<?xml version="1.0" encoding="UTF-8" standalone="no" ?>
<gpx xmlns="http://www.topografix.com/GPX/1/1" xmlns:xsi="http://www.w3.org/2001/XMLSchema-instance" xsi:schemaLocation="http://www.topografix.com/GPX/1/1 http://www.topografix.com/GPX/1/1/gpx.xsd" version="1.1" creator="VisuGPX - https://www.visugpx.com">
  <metadata>
    <name>ASPREMONT St Blaise LEVENS Plan ARIOU</name>
    <desc><![CDATA[Beau tour d'hiver. 
Quelques passages à revoir notamment, le chemin qui part du col du travail lorsqu'on arrive sur la piste il ne faut pas continuer en face mais prendre la piste soit à droite pour récupérer la route soit à gauche puis le chemin qui mène directement à plan d' Ariou.
VAE batterie 625W retour avec 15% pour 48km et D+ 1952m au GPS]]></desc>
  </metadata>
  <trk>
    <name><![CDATA[ASPREMONT LEVENS]]></name>
    <extensions>
      <line xmlns="http://www.topografix.com/GPX/gpx_style/0/2">
        <color>0000FF</color>
        <width>4</width>
      </line>
    </extensions>
    <trkseg>
      <trkpt lat="43.77148" lon="7.21481">
        <ele>77.599998474121</ele>
        <time>2022-01-13T08:09:48.000Z</time>
      </trkpt>
      <trkpt lat="43.77148" lon="7.21481">
        <ele>77.599998474121</ele>
        <time>2022-01-13T08:09:53.000Z</time>
      </trkpt>
      <trkpt lat="43.77148" lon="7.21481">
        <ele>76.800003051758</ele>
        <time>2022-01-13T08:10:05.000Z</time>
      </trkpt>
      <trkpt lat="43.77149" lon="7.21481">
        <ele>77.400001525879</ele>
        <time>2022-01-13T08:10:18.000Z</time>
      </trkpt>
      <trkpt lat="43.77149" lon="7.2148">
        <ele>78</ele>
        <time>2022-01-13T08:10:27.000Z</time>
      </trkpt>
      <trkpt lat="43.77149" lon="7.21479">
        <ele>77.400001525879</ele>
        <time>2022-01-13T08:10:39.000Z</time>
      </trkpt>
      <trkpt lat="43.77149" lon="7.21479">
        <ele>77.400001525879</ele>
        <time>2022-01-13T08:10:46.000Z</time>
      </trkpt>
      <trkpt lat="43.77148" lon="7.2148">
        <ele>77.599998474121</ele>
        <time>2022-01-13T08:10:57.000Z</time>
      </trkpt>
      <trkpt lat="43.77147" lon="7.21479">
        <ele>77.800003051758</ele>
        <time>2022-01-13T08:11:05.000Z</time>
      </trkpt>
      <trkpt lat="43.77146" lon="7.21476">
        <ele>77.800003051758</ele>
        <time>2022-01-13T08:11:11.000Z</time>
      </trkpt>
      <trkpt lat="43.7715" lon="7.21458">
        <ele>77.599998474121</ele>
        <time>2022-01-13T08:11:17.000Z</time>
      </trkpt>
      <trkpt lat="43.77158" lon="7.21421">
        <ele>77</ele>
        <time>2022-01-13T08:11:25.000Z</time>
      </trkpt>
      <trkpt lat="43.77169" lon="7.21391">
        <ele>76.599998474121</ele>
        <time>2022-01-13T08:11:31.000Z</time>
      </trkpt>
      <trkpt lat="43.77176" lon="7.21383">
        <ele>76.599998474121</ele>
        <time>2022-01-13T08:11:33.000Z</time>
      </trkpt>
      <trkpt lat="43.77184" lon="7.21379">
        <ele>76.599998474121</ele>
        <time>2022-01-13T08:11:35.000Z</time>
      </trkpt>
      <trkpt lat="43.77193" lon="7.21379">
        <ele>76.599998474121</ele>
        <time>2022-01-13T08:11:37.000Z</time>
      </trkpt>
      <trkpt lat="43.77202" lon="7.21383">
        <ele>76.800003051758</ele>
        <time>2022-01-13T08:11:39.000Z</time>
      </trkpt>
      <trkpt lat="43.77206" lon="7.21387">
        <ele>76.800003051758</ele>
        <time>2022-01-13T08:11:40.000Z</time>
      </trkpt>
      <trkpt lat="43.77218" lon="7.21397">
        <ele>77</ele>
        <time>2022-01-13T08:11:43.000Z</time>
      </trkpt>
      <trkpt lat="43.77265" lon="7.2144">
        <ele>77.199996948242</ele>
        <time>2022-01-13T08:11:55.000Z</time>
      </trkpt>
      <trkpt lat="43.7728" lon="7.21453">
        <ele>77.599998474121</ele>
        <time>2022-01-13T08:11:59.000Z</time>
      </trkpt>
      <trkpt lat="43.77315" lon="7.21483">
        <ele>77.599998474121</ele>
        <time>2022-01-13T08:12:08.000Z</time>
      </trkpt>
      <trkpt lat="43.77358" lon="7.21515">
        <ele>77.800003051758</ele>
        <time>2022-01-13T08:12:19.000Z</time>
      </trkpt>
      <trkpt lat="43.77392" lon="7.2154">
        <ele>77.599998474121</ele>
        <time>2022-01-13T08:12:28.000Z</time>
      </trkpt>
      <trkpt lat="43.77439" lon="7.21573">
        <ele>77.800003051758</ele>
        <time>2022-01-13T08:12:40.000Z</time>
      </trkpt>
      <trkpt lat="43.77475" lon="7.21597">
        <ele>77.800003051758</ele>
        <time>2022-01-13T08:12:49.000Z</time>
      </trkpt>
      <trkpt lat="43.77527" lon="7.21628">
        <ele>78.199996948242</ele>
        <time>2022-01-13T08:13:02.000Z</time>
      </trkpt>
      <trkpt lat="43.7758" lon="7.21657">
        <ele>78.599998474121</ele>
        <time>2022-01-13T08:13:15.000Z</time>
      </trkpt>
      <trkpt lat="43.77592" lon="7.21663">
        <ele>78.599998474121</ele>
        <time>2022-01-13T08:13:18.000Z</time>
      </trkpt>
      <trkpt lat="43.77633" lon="7.21683">
        <ele>79</ele>
        <time>2022-01-13T08:13:28.000Z</time>
      </trkpt>
      <trkpt lat="43.77679" lon="7.21703">
        <ele>79.199996948242</ele>
        <time>2022-01-13T08:13:39.000Z</time>
      </trkpt>
      <trkpt lat="43.77734" lon="7.21725">
        <ele>79.599998474121</ele>
        <time>2022-01-13T08:13:52.000Z</time>
      </trkpt>
      <trkpt lat="43.77771" lon="7.21739">
        <ele>79.599998474121</ele>
        <time>2022-01-13T08:14:01.000Z</time>
      </trkpt>
      <trkpt lat="43.77796" lon="7.21747">
        <ele>80</ele>
        <time>2022-01-13T08:14:07.000Z</time>
      </trkpt>
      <trkpt lat="43.77838" lon="7.2176">
        <ele>80.400001525879</ele>
        <time>2022-01-13T08:14:17.000Z</time>
      </trkpt>
      <trkpt lat="43.77892" lon="7.21773">
        <ele>80.599998474121</ele>
        <time>2022-01-13T08:14:30.000Z</time>
      </trkpt>
      <trkpt lat="43.77896" lon="7.21774">
        <ele>80.800003051758</ele>
        <time>2022-01-13T08:14:31.000Z</time>
      </trkpt>
      <trkpt lat="43.77905" lon="7.21776">
        <ele>80.800003051758</ele>
        <time>2022-01-13T08:14:33.000Z</time>
      </trkpt>
      <trkpt lat="43.77957" lon="7.21787">
        <ele>81</ele>
        <time>2022-01-13T08:14:46.000Z</time>
      </trkpt>
      <trkpt lat="43.77958" lon="7.21797">
        <ele>81.199996948242</ele>
        <time>2022-01-13T08:14:48.000Z</time>
      </trkpt>
      <trkpt lat="43.77953" lon="7.21803">
        <ele>81.400001525879</ele>
        <time>2022-01-13T08:14:50.000Z</time>
      </trkpt>
      <trkpt lat="43.77947" lon="7.21808">
        <ele>81.599998474121</ele>
        <time>2022-01-13T08:14:52.000Z</time>
      </trkpt>
      <trkpt lat="43.77944" lon="7.21811">
        <ele>81.800003051758</ele>
        <time>2022-01-13T08:14:53.000Z</time>
      </trkpt>
      <trkpt lat="43.77924" lon="7.21824">
        <ele>83</ele>
        <time>2022-01-13T08:14:59.000Z</time>
      </trkpt>
      <trkpt lat="43.77921" lon="7.21828">
        <ele>83.199996948242</ele>
        <time>2022-01-13T08:15:00.000Z</time>
      </trkpt>
      <trkpt lat="43.77911" lon="7.21848">
        <ele>84.199996948242</ele>
        <time>2022-01-13T08:15:05.000Z</time>
      </trkpt>
      <trkpt lat="43.77905" lon="7.21859">
        <ele>85</ele>
        <time>2022-01-13T08:15:08.000Z</time>
      </trkpt>
      <trkpt lat="43.77903" lon="7.21863">
        <ele>85.199996948242</ele>
        <time>2022-01-13T08:15:09.000Z</time>
      </trkpt>
      <trkpt lat="43.77898" lon="7.21874">
        <ele>86.199996948242</ele>
        <time>2022-01-13T08:15:12.000Z</time>
      </trkpt>
      <trkpt lat="43.77892" lon="7.21887">
        <ele>87.400001525879</ele>
        <time>2022-01-13T08:15:16.000Z</time>
      </trkpt>
      <trkpt lat="43.77885" lon="7.21899">
        <ele>88.400001525879</ele>
        <time>2022-01-13T08:15:20.000Z</time>
      </trkpt>
      <trkpt lat="43.77879" lon="7.21914">
        <ele>89.599998474121</ele>
        <time>2022-01-13T08:15:24.000Z</time>
      </trkpt>
      <trkpt lat="43.77878" lon="7.21917">
        <ele>89.800003051758</ele>
        <time>2022-01-13T08:15:25.000Z</time>
      </trkpt>
      <trkpt lat="43.77875" lon="7.21933">
        <ele>90.599998474121</ele>
        <time>2022-01-13T08:15:29.000Z</time>
      </trkpt>
      <trkpt lat="43.77874" lon="7.21941">
        <ele>91.400001525879</ele>
        <time>2022-01-13T08:15:31.000Z</time>
      </trkpt>
      <trkpt lat="43.77872" lon="7.21948">
        <ele>91.800003051758</ele>
        <time>2022-01-13T08:15:33.000Z</time>
      </trkpt>
      <trkpt lat="43.77869" lon="7.21963">
        <ele>92.800003051758</ele>
        <time>2022-01-13T08:15:37.000Z</time>
      </trkpt>
      <trkpt lat="43.7787" lon="7.21979">
        <ele>94</ele>
        <time>2022-01-13T08:15:41.000Z</time>
      </trkpt>
      <trkpt lat="43.77873" lon="7.21996">
        <ele>95.199996948242</ele>
        <time>2022-01-13T08:15:45.000Z</time>
      </trkpt>
      <trkpt lat="43.77877" lon="7.22012">
        <ele>96</ele>
        <time>2022-01-13T08:15:49.000Z</time>
      </trkpt>
      <trkpt lat="43.77878" lon="7.22016">
        <ele>96.400001525879</ele>
        <time>2022-01-13T08:15:50.000Z</time>
      </trkpt>
      <trkpt lat="43.77882" lon="7.22036">
        <ele>97.599998474121</ele>
        <time>2022-01-13T08:15:55.000Z</time>
      </trkpt>
      <trkpt lat="43.77881" lon="7.22044">
        <ele>98.199996948242</ele>
        <time>2022-01-13T08:15:57.000Z</time>
      </trkpt>
      <trkpt lat="43.77876" lon="7.22049">
        <ele>98.599998474121</ele>
        <time>2022-01-13T08:15:59.000Z</time>
      </trkpt>
      <trkpt lat="43.77873" lon="7.2205">
        <ele>99.199996948242</ele>
        <time>2022-01-13T08:16:00.000Z</time>
      </trkpt>
      <trkpt lat="43.7787" lon="7.22049">
        <ele>99.599998474121</ele>
        <time>2022-01-13T08:16:01.000Z</time>
      </trkpt>
      <trkpt lat="43.77867" lon="7.22048">
        <ele>99.800003051758</ele>
        <time>2022-01-13T08:16:02.000Z</time>
      </trkpt>
      <trkpt lat="43.77862" lon="7.22042">
        <ele>100.80000305176</ele>
        <time>2022-01-13T08:16:04.000Z</time>
      </trkpt>
      <trkpt lat="43.77859" lon="7.2204">
        <ele>101.19999694824</ele>
        <time>2022-01-13T08:16:05.000Z</time>
      </trkpt>
      <trkpt lat="43.77856" lon="7.22038">
        <ele>101.59999847412</ele>
        <time>2022-01-13T08:16:06.000Z</time>
      </trkpt>
      <trkpt lat="43.77849" lon="7.22038">
        <ele>102.19999694824</ele>
        <time>2022-01-13T08:16:08.000Z</time>
      </trkpt>
      <trkpt lat="43.77843" lon="7.22043">
        <ele>102.59999847412</ele>
        <time>2022-01-13T08:16:10.000Z</time>
      </trkpt>
      <trkpt lat="43.77836" lon="7.22049">
        <ele>102.80000305176</ele>
        <time>2022-01-13T08:16:12.000Z</time>
      </trkpt>
      <trkpt lat="43.77828" lon="7.22061">
        <ele>103.19999694824</ele>
        <time>2022-01-13T08:16:15.000Z</time>
      </trkpt>
      <trkpt lat="43.77825" lon="7.22066">
        <ele>103.40000152588</ele>
        <time>2022-01-13T08:16:16.000Z</time>
      </trkpt>
      <trkpt lat="43.77811" lon="7.2208">
        <ele>104.19999694824</ele>
        <time>2022-01-13T08:16:20.000Z</time>
      </trkpt>
      <trkpt lat="43.77807" lon="7.22083">
        <ele>104.40000152588</ele>
        <time>2022-01-13T08:16:21.000Z</time>
      </trkpt>
      <trkpt lat="43.77803" lon="7.22086">
        <ele>104.80000305176</ele>
        <time>2022-01-13T08:16:22.000Z</time>
      </trkpt>
      <trkpt lat="43.77791" lon="7.22094">
        <ele>105.80000305176</ele>
        <time>2022-01-13T08:16:25.000Z</time>
      </trkpt>
      <trkpt lat="43.77784" lon="7.22101">
        <ele>106.40000152588</ele>
        <time>2022-01-13T08:16:27.000Z</time>
      </trkpt>
      <trkpt lat="43.77778" lon="7.22109">
        <ele>107</ele>
        <time>2022-01-13T08:16:29.000Z</time>
      </trkpt>
      <trkpt lat="43.77771" lon="7.22118">
        <ele>107.40000152588</ele>
        <time>2022-01-13T08:16:31.000Z</time>
      </trkpt>
      <trkpt lat="43.77762" lon="7.22121">
        <ele>107.59999847412</ele>
        <time>2022-01-13T08:16:33.000Z</time>
      </trkpt>
      <trkpt lat="43.77752" lon="7.22109">
        <ele>107.80000305176</ele>
        <time>2022-01-13T08:16:36.000Z</time>
      </trkpt>
      <trkpt lat="43.7775" lon="7.22102">
        <ele>108</ele>
        <time>2022-01-13T08:16:37.000Z</time>
      </trkpt>
      <trkpt lat="43.7775" lon="7.22082">
        <ele>108.59999847412</ele>
        <time>2022-01-13T08:16:40.000Z</time>
      </trkpt>
      <trkpt lat="43.7775" lon="7.22076">
        <ele>109</ele>
        <time>2022-01-13T08:16:41.000Z</time>
      </trkpt>
      <trkpt lat="43.77755" lon="7.22059">
        <ele>110.19999694824</ele>
        <time>2022-01-13T08:16:44.000Z</time>
      </trkpt>
      <trkpt lat="43.77757" lon="7.22053">
        <ele>110.80000305176</ele>
        <time>2022-01-13T08:16:45.000Z</time>
      </trkpt>
      <trkpt lat="43.77759" lon="7.22048">
        <ele>111.19999694824</ele>
        <time>2022-01-13T08:16:46.000Z</time>
      </trkpt>
      <trkpt lat="43.77761" lon="7.22042">
        <ele>111.80000305176</ele>
        <time>2022-01-13T08:16:47.000Z</time>
      </trkpt>
      <trkpt lat="43.77767" lon="7.22033">
        <ele>112.40000152588</ele>
        <time>2022-01-13T08:16:49.000Z</time>
      </trkpt>
      <trkpt lat="43.77771" lon="7.22024">
        <ele>113.40000152588</ele>
        <time>2022-01-13T08:16:51.000Z</time>
      </trkpt>
      <trkpt lat="43.77773" lon="7.22019">
        <ele>113.80000305176</ele>
        <time>2022-01-13T08:16:52.000Z</time>
      </trkpt>
      <trkpt lat="43.77776" lon="7.22003">
        <ele>115.19999694824</ele>
        <time>2022-01-13T08:16:55.000Z</time>
      </trkpt>
      <trkpt lat="43.77778" lon="7.21993">
        <ele>116</ele>
        <time>2022-01-13T08:16:57.000Z</time>
      </trkpt>
      <trkpt lat="43.77779" lon="7.21988">
        <ele>116.59999847412</ele>
        <time>2022-01-13T08:16:58.000Z</time>
      </trkpt>
      <trkpt lat="43.77781" lon="7.21979">
        <ele>117.59999847412</ele>
        <time>2022-01-13T08:17:00.000Z</time>
      </trkpt>
      <trkpt lat="43.77782" lon="7.2197">
        <ele>118.80000305176</ele>
        <time>2022-01-13T08:17:02.000Z</time>
      </trkpt>
      <trkpt lat="43.77784" lon="7.21955">
        <ele>120.40000152588</ele>
        <time>2022-01-13T08:17:05.000Z</time>
      </trkpt>
      <trkpt lat="43.77785" lon="7.21946">
        <ele>121.40000152588</ele>
        <time>2022-01-13T08:17:07.000Z</time>
      </trkpt>
      <trkpt lat="43.77784" lon="7.21942">
        <ele>121.80000305176</ele>
        <time>2022-01-13T08:17:08.000Z</time>
      </trkpt>
      <trkpt lat="43.77782" lon="7.21934">
        <ele>122.80000305176</ele>
        <time>2022-01-13T08:17:10.000Z</time>
      </trkpt>
      <trkpt lat="43.77777" lon="7.21928">
        <ele>124</ele>
        <time>2022-01-13T08:17:12.000Z</time>
      </trkpt>
      <trkpt lat="43.77768" lon="7.21928">
        <ele>125.19999694824</ele>
        <time>2022-01-13T08:17:15.000Z</time>
      </trkpt>
      <trkpt lat="43.77765" lon="7.21929">
        <ele>125.59999847412</ele>
        <time>2022-01-13T08:17:16.000Z</time>
      </trkpt>
      <trkpt lat="43.77758" lon="7.21932">
        <ele>126.40000152588</ele>
        <time>2022-01-13T08:17:18.000Z</time>
      </trkpt>
      <trkpt lat="43.7775" lon="7.2194">
        <ele>127.40000152588</ele>
        <time>2022-01-13T08:17:21.000Z</time>
      </trkpt>
      <trkpt lat="43.77748" lon="7.21944">
        <ele>127.59999847412</ele>
        <time>2022-01-13T08:17:22.000Z</time>
      </trkpt>
      <trkpt lat="43.77744" lon="7.21957">
        <ele>128.60000610352</ele>
        <time>2022-01-13T08:17:25.000Z</time>
      </trkpt>
      <trkpt lat="43.77743" lon="7.21971">
        <ele>129.60000610352</ele>
        <time>2022-01-13T08:17:28.000Z</time>
      </trkpt>
      <trkpt lat="43.77742" lon="7.21976">
        <ele>129.80000305176</ele>
        <time>2022-01-13T08:17:29.000Z</time>
      </trkpt>
      <trkpt lat="43.7774" lon="7.21989">
        <ele>130.60000610352</ele>
        <time>2022-01-13T08:17:32.000Z</time>
      </trkpt>
      <trkpt lat="43.77737" lon="7.22002">
        <ele>131.60000610352</ele>
        <time>2022-01-13T08:17:35.000Z</time>
      </trkpt>
      <trkpt lat="43.77733" lon="7.22014">
        <ele>132.39999389648</ele>
        <time>2022-01-13T08:17:38.000Z</time>
      </trkpt>
      <trkpt lat="43.77731" lon="7.22019">
        <ele>132.80000305176</ele>
        <time>2022-01-13T08:17:39.000Z</time>
      </trkpt>
      <trkpt lat="43.77722" lon="7.22033">
        <ele>134</ele>
        <time>2022-01-13T08:17:43.000Z</time>
      </trkpt>
      <trkpt lat="43.77717" lon="7.22039">
        <ele>134.60000610352</ele>
        <time>2022-01-13T08:17:45.000Z</time>
      </trkpt>
      <trkpt lat="43.77711" lon="7.22043">
        <ele>135</ele>
        <time>2022-01-13T08:17:47.000Z</time>
      </trkpt>
      <trkpt lat="43.77701" lon="7.22044">
        <ele>135.80000305176</ele>
        <time>2022-01-13T08:17:50.000Z</time>
      </trkpt>
      <trkpt lat="43.77695" lon="7.22041">
        <ele>136</ele>
        <time>2022-01-13T08:17:52.000Z</time>
      </trkpt>
      <trkpt lat="43.77691" lon="7.22034">
        <ele>136.60000610352</ele>
        <time>2022-01-13T08:17:54.000Z</time>
      </trkpt>
      <trkpt lat="43.77689" lon="7.2203">
        <ele>137</ele>
        <time>2022-01-13T08:17:55.000Z</time>
      </trkpt>
      <trkpt lat="43.77688" lon="7.22027">
        <ele>137.39999389648</ele>
        <time>2022-01-13T08:17:56.000Z</time>
      </trkpt>
      <trkpt lat="43.77682" lon="7.22016">
        <ele>138.60000610352</ele>
        <time>2022-01-13T08:17:59.000Z</time>
      </trkpt>
      <trkpt lat="43.77678" lon="7.2201">
        <ele>139.60000610352</ele>
        <time>2022-01-13T08:18:01.000Z</time>
      </trkpt>
      <trkpt lat="43.77676" lon="7.22007">
        <ele>139.80000305176</ele>
        <time>2022-01-13T08:18:02.000Z</time>
      </trkpt>
      <trkpt lat="43.77671" lon="7.22002">
        <ele>141</ele>
        <time>2022-01-13T08:18:04.000Z</time>
      </trkpt>
      <trkpt lat="43.77669" lon="7.22001">
        <ele>141.60000610352</ele>
        <time>2022-01-13T08:18:05.000Z</time>
      </trkpt>
      <trkpt lat="43.77666" lon="7.22">
        <ele>142.19999694824</ele>
        <time>2022-01-13T08:18:06.000Z</time>
      </trkpt>
      <trkpt lat="43.77663" lon="7.22001">
        <ele>142.60000610352</ele>
        <time>2022-01-13T08:18:07.000Z</time>
      </trkpt>
      <trkpt lat="43.77659" lon="7.22005">
        <ele>143.39999389648</ele>
        <time>2022-01-13T08:18:09.000Z</time>
      </trkpt>
      <trkpt lat="43.77654" lon="7.22015">
        <ele>144.80000305176</ele>
        <time>2022-01-13T08:18:12.000Z</time>
      </trkpt>
      <trkpt lat="43.77652" lon="7.22027">
        <ele>146</ele>
        <time>2022-01-13T08:18:15.000Z</time>
      </trkpt>
      <trkpt lat="43.77649" lon="7.22039">
        <ele>147.19999694824</ele>
        <time>2022-01-13T08:18:18.000Z</time>
      </trkpt>
      <trkpt lat="43.77647" lon="7.22047">
        <ele>148.19999694824</ele>
        <time>2022-01-13T08:18:20.000Z</time>
      </trkpt>
      <trkpt lat="43.77647" lon="7.22049">
        <ele>148.39999389648</ele>
        <time>2022-01-13T08:18:21.000Z</time>
      </trkpt>
      <trkpt lat="43.77644" lon="7.22059">
        <ele>149.39999389648</ele>
        <time>2022-01-13T08:18:23.000Z</time>
      </trkpt>
      <trkpt lat="43.7764" lon="7.2207">
        <ele>150.60000610352</ele>
        <time>2022-01-13T08:18:26.000Z</time>
      </trkpt>
      <trkpt lat="43.77638" lon="7.22077">
        <ele>151.39999389648</ele>
        <time>2022-01-13T08:18:28.000Z</time>
      </trkpt>
      <trkpt lat="43.77639" lon="7.22081">
        <ele>151.80000305176</ele>
        <time>2022-01-13T08:18:29.000Z</time>
      </trkpt>
      <trkpt lat="43.77643" lon="7.22092">
        <ele>152.80000305176</ele>
        <time>2022-01-13T08:18:32.000Z</time>
      </trkpt>
      <trkpt lat="43.77648" lon="7.22103">
        <ele>154</ele>
        <time>2022-01-13T08:18:35.000Z</time>
      </trkpt>
      <trkpt lat="43.77652" lon="7.22118">
        <ele>155.19999694824</ele>
        <time>2022-01-13T08:18:39.000Z</time>
      </trkpt>
      <trkpt lat="43.77654" lon="7.22125">
        <ele>156.19999694824</ele>
        <time>2022-01-13T08:18:41.000Z</time>
      </trkpt>
      <trkpt lat="43.77655" lon="7.22129">
        <ele>156.39999389648</ele>
        <time>2022-01-13T08:18:42.000Z</time>
      </trkpt>
      <trkpt lat="43.77657" lon="7.2214">
        <ele>157.60000610352</ele>
        <time>2022-01-13T08:18:45.000Z</time>
      </trkpt>
      <trkpt lat="43.77659" lon="7.22152">
        <ele>158.80000305176</ele>
        <time>2022-01-13T08:18:48.000Z</time>
      </trkpt>
      <trkpt lat="43.7766" lon="7.22167">
        <ele>160</ele>
        <time>2022-01-13T08:18:52.000Z</time>
      </trkpt>
      <trkpt lat="43.7766" lon="7.22179">
        <ele>161</ele>
        <time>2022-01-13T08:18:55.000Z</time>
      </trkpt>
      <trkpt lat="43.77659" lon="7.22195">
        <ele>162.19999694824</ele>
        <time>2022-01-13T08:18:59.000Z</time>
      </trkpt>
      <trkpt lat="43.77659" lon="7.22206">
        <ele>163.19999694824</ele>
        <time>2022-01-13T08:19:02.000Z</time>
      </trkpt>
      <trkpt lat="43.77659" lon="7.22214">
        <ele>164</ele>
        <time>2022-01-13T08:19:04.000Z</time>
      </trkpt>
      <trkpt lat="43.77659" lon="7.22218">
        <ele>164.60000610352</ele>
        <time>2022-01-13T08:19:05.000Z</time>
      </trkpt>
      <trkpt lat="43.7766" lon="7.22229">
        <ele>165.60000610352</ele>
        <time>2022-01-13T08:19:08.000Z</time>
      </trkpt>
      <trkpt lat="43.77663" lon="7.2224">
        <ele>167</ele>
        <time>2022-01-13T08:19:11.000Z</time>
      </trkpt>
      <trkpt lat="43.77668" lon="7.22254">
        <ele>168.39999389648</ele>
        <time>2022-01-13T08:19:15.000Z</time>
      </trkpt>
      <trkpt lat="43.77669" lon="7.22265">
        <ele>169.39999389648</ele>
        <time>2022-01-13T08:19:18.000Z</time>
      </trkpt>
      <trkpt lat="43.77668" lon="7.22277">
        <ele>170.80000305176</ele>
        <time>2022-01-13T08:19:21.000Z</time>
      </trkpt>
      <trkpt lat="43.77666" lon="7.2229">
        <ele>172</ele>
        <time>2022-01-13T08:19:24.000Z</time>
      </trkpt>
      <trkpt lat="43.77666" lon="7.22293">
        <ele>172.39999389648</ele>
        <time>2022-01-13T08:19:25.000Z</time>
      </trkpt>
      <trkpt lat="43.77669" lon="7.22301">
        <ele>173.19999694824</ele>
        <time>2022-01-13T08:19:27.000Z</time>
      </trkpt>
      <trkpt lat="43.77672" lon="7.22313">
        <ele>174.39999389648</ele>
        <time>2022-01-13T08:19:30.000Z</time>
      </trkpt>
      <trkpt lat="43.77674" lon="7.22321">
        <ele>175.60000610352</ele>
        <time>2022-01-13T08:19:32.000Z</time>
      </trkpt>
      <trkpt lat="43.77673" lon="7.22333">
        <ele>177</ele>
        <time>2022-01-13T08:19:35.000Z</time>
      </trkpt>
      <trkpt lat="43.77672" lon="7.22337">
        <ele>177.39999389648</ele>
        <time>2022-01-13T08:19:36.000Z</time>
      </trkpt>
      <trkpt lat="43.77668" lon="7.22342">
        <ele>178.39999389648</ele>
        <time>2022-01-13T08:19:38.000Z</time>
      </trkpt>
      <trkpt lat="43.77662" lon="7.22345">
        <ele>179.60000610352</ele>
        <time>2022-01-13T08:19:40.000Z</time>
      </trkpt>
      <trkpt lat="43.77656" lon="7.22346">
        <ele>180.80000305176</ele>
        <time>2022-01-13T08:19:42.000Z</time>
      </trkpt>
      <trkpt lat="43.77648" lon="7.22347">
        <ele>182.39999389648</ele>
        <time>2022-01-13T08:19:45.000Z</time>
      </trkpt>
      <trkpt lat="43.77642" lon="7.22346">
        <ele>183.39999389648</ele>
        <time>2022-01-13T08:19:47.000Z</time>
      </trkpt>
      <trkpt lat="43.77639" lon="7.22344">
        <ele>183.80000305176</ele>
        <time>2022-01-13T08:19:48.000Z</time>
      </trkpt>
      <trkpt lat="43.77631" lon="7.22339">
        <ele>185.19999694824</ele>
        <time>2022-01-13T08:19:51.000Z</time>
      </trkpt>
      <trkpt lat="43.77625" lon="7.22332">
        <ele>186.19999694824</ele>
        <time>2022-01-13T08:19:54.000Z</time>
      </trkpt>
      <trkpt lat="43.77623" lon="7.22329">
        <ele>186.60000610352</ele>
        <time>2022-01-13T08:19:55.000Z</time>
      </trkpt>
      <trkpt lat="43.77618" lon="7.22326">
        <ele>187.39999389648</ele>
        <time>2022-01-13T08:19:57.000Z</time>
      </trkpt>
      <trkpt lat="43.77615" lon="7.22327">
        <ele>187.80000305176</ele>
        <time>2022-01-13T08:19:58.000Z</time>
      </trkpt>
      <trkpt lat="43.77613" lon="7.22328">
        <ele>188</ele>
        <time>2022-01-13T08:19:59.000Z</time>
      </trkpt>
      <trkpt lat="43.77612" lon="7.22332">
        <ele>188.39999389648</ele>
        <time>2022-01-13T08:20:00.000Z</time>
      </trkpt>
      <trkpt lat="43.77612" lon="7.22336">
        <ele>188.80000305176</ele>
        <time>2022-01-13T08:20:01.000Z</time>
      </trkpt>
      <trkpt lat="43.77613" lon="7.22339">
        <ele>189</ele>
        <time>2022-01-13T08:20:02.000Z</time>
      </trkpt>
      <trkpt lat="43.77617" lon="7.22344">
        <ele>189.60000610352</ele>
        <time>2022-01-13T08:20:04.000Z</time>
      </trkpt>
      <trkpt lat="43.77622" lon="7.22348">
        <ele>190</ele>
        <time>2022-01-13T08:20:06.000Z</time>
      </trkpt>
      <trkpt lat="43.77624" lon="7.2235">
        <ele>190.39999389648</ele>
        <time>2022-01-13T08:20:07.000Z</time>
      </trkpt>
      <trkpt lat="43.77629" lon="7.22354">
        <ele>191.19999694824</ele>
        <time>2022-01-13T08:20:09.000Z</time>
      </trkpt>
      <trkpt lat="43.77637" lon="7.2236">
        <ele>192.39999389648</ele>
        <time>2022-01-13T08:20:12.000Z</time>
      </trkpt>
      <trkpt lat="43.77644" lon="7.22366">
        <ele>193.39999389648</ele>
        <time>2022-01-13T08:20:15.000Z</time>
      </trkpt>
      <trkpt lat="43.77654" lon="7.22373">
        <ele>194.60000610352</ele>
        <time>2022-01-13T08:20:19.000Z</time>
      </trkpt>
      <trkpt lat="43.77666" lon="7.22376">
        <ele>195.60000610352</ele>
        <time>2022-01-13T08:20:23.000Z</time>
      </trkpt>
      <trkpt lat="43.77669" lon="7.22375">
        <ele>195.80000305176</ele>
        <time>2022-01-13T08:20:24.000Z</time>
      </trkpt>
      <trkpt lat="43.77684" lon="7.2237">
        <ele>197</ele>
        <time>2022-01-13T08:20:29.000Z</time>
      </trkpt>
      <trkpt lat="43.77689" lon="7.22365">
        <ele>197.19999694824</ele>
        <time>2022-01-13T08:20:31.000Z</time>
      </trkpt>
      <trkpt lat="43.777" lon="7.22344">
        <ele>198.19999694824</ele>
        <time>2022-01-13T08:20:37.000Z</time>
      </trkpt>
      <trkpt lat="43.77701" lon="7.2234">
        <ele>198.39999389648</ele>
        <time>2022-01-13T08:20:38.000Z</time>
      </trkpt>
      <trkpt lat="43.77703" lon="7.22323">
        <ele>199.39999389648</ele>
        <time>2022-01-13T08:20:42.000Z</time>
      </trkpt>
      <trkpt lat="43.77704" lon="7.22312">
        <ele>200</ele>
        <time>2022-01-13T08:20:45.000Z</time>
      </trkpt>
      <trkpt lat="43.77707" lon="7.2231">
        <ele>200.19999694824</ele>
        <time>2022-01-13T08:20:46.000Z</time>
      </trkpt>
      <trkpt lat="43.77709" lon="7.22312">
        <ele>200.60000610352</ele>
        <time>2022-01-13T08:20:47.000Z</time>
      </trkpt>
      <trkpt lat="43.77711" lon="7.2232">
        <ele>201.19999694824</ele>
        <time>2022-01-13T08:20:49.000Z</time>
      </trkpt>
      <trkpt lat="43.77709" lon="7.22327">
        <ele>202</ele>
        <time>2022-01-13T08:20:51.000Z</time>
      </trkpt>
      <trkpt lat="43.77708" lon="7.22339">
        <ele>203.19999694824</ele>
        <time>2022-01-13T08:20:54.000Z</time>
      </trkpt>
      <trkpt lat="43.77706" lon="7.22352">
        <ele>204.80000305176</ele>
        <time>2022-01-13T08:20:57.000Z</time>
      </trkpt>
      <trkpt lat="43.77703" lon="7.22364">
        <ele>206.39999389648</ele>
        <time>2022-01-13T08:21:00.000Z</time>
      </trkpt>
      <trkpt lat="43.77699" lon="7.22372">
        <ele>207.39999389648</ele>
        <time>2022-01-13T08:21:02.000Z</time>
      </trkpt>
      <trkpt lat="43.77697" lon="7.22375">
        <ele>208</ele>
        <time>2022-01-13T08:21:03.000Z</time>
      </trkpt>
      <trkpt lat="43.77691" lon="7.22385">
        <ele>209.19999694824</ele>
        <time>2022-01-13T08:21:06.000Z</time>
      </trkpt>
      <trkpt lat="43.77684" lon="7.22393">
        <ele>210</ele>
        <time>2022-01-13T08:21:09.000Z</time>
      </trkpt>
      <trkpt lat="43.7768" lon="7.22394">
        <ele>210.60000610352</ele>
        <time>2022-01-13T08:21:10.000Z</time>
      </trkpt>
      <trkpt lat="43.77672" lon="7.22398">
        <ele>211.60000610352</ele>
        <time>2022-01-13T08:21:13.000Z</time>
      </trkpt>
      <trkpt lat="43.77669" lon="7.22399">
        <ele>212.19999694824</ele>
        <time>2022-01-13T08:21:14.000Z</time>
      </trkpt>
      <trkpt lat="43.77662" lon="7.22399">
        <ele>213</ele>
        <time>2022-01-13T08:21:16.000Z</time>
      </trkpt>
      <trkpt lat="43.7765" lon="7.224">
        <ele>214.39999389648</ele>
        <time>2022-01-13T08:21:20.000Z</time>
      </trkpt>
      <trkpt lat="43.77647" lon="7.224">
        <ele>214.80000305176</ele>
        <time>2022-01-13T08:21:21.000Z</time>
      </trkpt>
      <trkpt lat="43.77638" lon="7.22403">
        <ele>215.60000610352</ele>
        <time>2022-01-13T08:21:24.000Z</time>
      </trkpt>
      <trkpt lat="43.77628" lon="7.22404">
        <ele>216.80000305176</ele>
        <time>2022-01-13T08:21:27.000Z</time>
      </trkpt>
      <trkpt lat="43.77619" lon="7.22404">
        <ele>217.60000610352</ele>
        <time>2022-01-13T08:21:30.000Z</time>
      </trkpt>
      <trkpt lat="43.77616" lon="7.22403">
        <ele>217.80000305176</ele>
        <time>2022-01-13T08:21:31.000Z</time>
      </trkpt>
      <trkpt lat="43.77604" lon="7.22396">
        <ele>219</ele>
        <time>2022-01-13T08:21:35.000Z</time>
      </trkpt>
      <trkpt lat="43.77595" lon="7.2239">
        <ele>219.80000305176</ele>
        <time>2022-01-13T08:21:38.000Z</time>
      </trkpt>
      <trkpt lat="43.77589" lon="7.22385">
        <ele>220.39999389648</ele>
        <time>2022-01-13T08:21:40.000Z</time>
      </trkpt>
      <trkpt lat="43.77579" lon="7.22372">
        <ele>221.19999694824</ele>
        <time>2022-01-13T08:21:44.000Z</time>
      </trkpt>
      <trkpt lat="43.77576" lon="7.2237">
        <ele>221.39999389648</ele>
        <time>2022-01-13T08:21:45.000Z</time>
      </trkpt>
      <trkpt lat="43.77571" lon="7.22372">
        <ele>221.60000610352</ele>
        <time>2022-01-13T08:21:47.000Z</time>
      </trkpt>
      <trkpt lat="43.77569" lon="7.22381">
        <ele>221.80000305176</ele>
        <time>2022-01-13T08:21:49.000Z</time>
      </trkpt>
      <trkpt lat="43.7757" lon="7.22385">
        <ele>221.80000305176</ele>
        <time>2022-01-13T08:21:50.000Z</time>
      </trkpt>
      <trkpt lat="43.77573" lon="7.22405">
        <ele>222.60000610352</ele>
        <time>2022-01-13T08:21:54.000Z</time>
      </trkpt>
      <trkpt lat="43.77575" lon="7.22415">
        <ele>223.19999694824</ele>
        <time>2022-01-13T08:21:56.000Z</time>
      </trkpt>
      <trkpt lat="43.77575" lon="7.2242">
        <ele>223.80000305176</ele>
        <time>2022-01-13T08:21:57.000Z</time>
      </trkpt>
      <trkpt lat="43.77578" lon="7.22432">
        <ele>225</ele>
        <time>2022-01-13T08:22:00.000Z</time>
      </trkpt>
      <trkpt lat="43.77582" lon="7.22444">
        <ele>226.39999389648</ele>
        <time>2022-01-13T08:22:03.000Z</time>
      </trkpt>
      <trkpt lat="43.77585" lon="7.22447">
        <ele>226.80000305176</ele>
        <time>2022-01-13T08:22:04.000Z</time>
      </trkpt>
      <trkpt lat="43.77588" lon="7.22448">
        <ele>227.19999694824</ele>
        <time>2022-01-13T08:22:05.000Z</time>
      </trkpt>
      <trkpt lat="43.7759" lon="7.2245">
        <ele>227.60000610352</ele>
        <time>2022-01-13T08:22:06.000Z</time>
      </trkpt>
      <trkpt lat="43.77596" lon="7.22453">
        <ele>227.80000305176</ele>
        <time>2022-01-13T08:22:08.000Z</time>
      </trkpt>
      <trkpt lat="43.7761" lon="7.22454">
        <ele>228.60000610352</ele>
        <time>2022-01-13T08:22:12.000Z</time>
      </trkpt>
      <trkpt lat="43.77617" lon="7.22453">
        <ele>229</ele>
        <time>2022-01-13T08:22:14.000Z</time>
      </trkpt>
      <trkpt lat="43.77634" lon="7.2245">
        <ele>229.60000610352</ele>
        <time>2022-01-13T08:22:19.000Z</time>
      </trkpt>
      <trkpt lat="43.77654" lon="7.22449">
        <ele>230.39999389648</ele>
        <time>2022-01-13T08:22:24.000Z</time>
      </trkpt>
      <trkpt lat="43.77658" lon="7.2245">
        <ele>230.80000305176</ele>
        <time>2022-01-13T08:22:25.000Z</time>
      </trkpt>
      <trkpt lat="43.7767" lon="7.22451">
        <ele>231.80000305176</ele>
        <time>2022-01-13T08:22:28.000Z</time>
      </trkpt>
      <trkpt lat="43.77676" lon="7.22453">
        <ele>233.19999694824</ele>
        <time>2022-01-13T08:22:30.000Z</time>
      </trkpt>
      <trkpt lat="43.77683" lon="7.22455">
        <ele>234.19999694824</ele>
        <time>2022-01-13T08:22:32.000Z</time>
      </trkpt>
      <trkpt lat="43.77689" lon="7.22458">
        <ele>235.60000610352</ele>
        <time>2022-01-13T08:22:34.000Z</time>
      </trkpt>
      <trkpt lat="43.77695" lon="7.2246">
        <ele>237.19999694824</ele>
        <time>2022-01-13T08:22:36.000Z</time>
      </trkpt>
      <trkpt lat="43.77704" lon="7.22463">
        <ele>238.60000610352</ele>
        <time>2022-01-13T08:22:39.000Z</time>
      </trkpt>
      <trkpt lat="43.7771" lon="7.22467">
        <ele>239.60000610352</ele>
        <time>2022-01-13T08:22:41.000Z</time>
      </trkpt>
      <trkpt lat="43.77717" lon="7.22475">
        <ele>240.60000610352</ele>
        <time>2022-01-13T08:22:44.000Z</time>
      </trkpt>
      <trkpt lat="43.77721" lon="7.22488">
        <ele>241.80000305176</ele>
        <time>2022-01-13T08:22:47.000Z</time>
      </trkpt>
      <trkpt lat="43.77725" lon="7.225">
        <ele>243</ele>
        <time>2022-01-13T08:22:50.000Z</time>
      </trkpt>
      <trkpt lat="43.77729" lon="7.22508">
        <ele>244.39999389648</ele>
        <time>2022-01-13T08:22:52.000Z</time>
      </trkpt>
      <trkpt lat="43.77732" lon="7.22521">
        <ele>245.80000305176</ele>
        <time>2022-01-13T08:22:55.000Z</time>
      </trkpt>
      <trkpt lat="43.77731" lon="7.22536">
        <ele>247</ele>
        <time>2022-01-13T08:22:58.000Z</time>
      </trkpt>
      <trkpt lat="43.77733" lon="7.2255">
        <ele>248</ele>
        <time>2022-01-13T08:23:01.000Z</time>
      </trkpt>
      <trkpt lat="43.77736" lon="7.22562">
        <ele>249</ele>
        <time>2022-01-13T08:23:04.000Z</time>
      </trkpt>
      <trkpt lat="43.77742" lon="7.22575">
        <ele>249.80000305176</ele>
        <time>2022-01-13T08:23:07.000Z</time>
      </trkpt>
      <trkpt lat="43.77744" lon="7.22578">
        <ele>250.19999694824</ele>
        <time>2022-01-13T08:23:08.000Z</time>
      </trkpt>
      <trkpt lat="43.7775" lon="7.22581">
        <ele>250.80000305176</ele>
        <time>2022-01-13T08:23:10.000Z</time>
      </trkpt>
      <trkpt lat="43.77753" lon="7.22581">
        <ele>251.19999694824</ele>
        <time>2022-01-13T08:23:11.000Z</time>
      </trkpt>
      <trkpt lat="43.77766" lon="7.22577">
        <ele>252.39999389648</ele>
        <time>2022-01-13T08:23:15.000Z</time>
      </trkpt>
      <trkpt lat="43.77776" lon="7.22574">
        <ele>253.39999389648</ele>
        <time>2022-01-13T08:23:18.000Z</time>
      </trkpt>
      <trkpt lat="43.77789" lon="7.22575">
        <ele>254.60000610352</ele>
        <time>2022-01-13T08:23:22.000Z</time>
      </trkpt>
      <trkpt lat="43.77796" lon="7.22578">
        <ele>255.19999694824</ele>
        <time>2022-01-13T08:23:24.000Z</time>
      </trkpt>
      <trkpt lat="43.77803" lon="7.22582">
        <ele>255.80000305176</ele>
        <time>2022-01-13T08:23:26.000Z</time>
      </trkpt>
      <trkpt lat="43.77815" lon="7.22593">
        <ele>257.20001220703</ele>
        <time>2022-01-13T08:23:30.000Z</time>
      </trkpt>
      <trkpt lat="43.77818" lon="7.22596">
        <ele>257.60000610352</ele>
        <time>2022-01-13T08:23:31.000Z</time>
      </trkpt>
      <trkpt lat="43.77828" lon="7.22605">
        <ele>258.39999389648</ele>
        <time>2022-01-13T08:23:34.000Z</time>
      </trkpt>
      <trkpt lat="43.77841" lon="7.22613">
        <ele>259.39999389648</ele>
        <time>2022-01-13T08:23:38.000Z</time>
      </trkpt>
      <trkpt lat="43.77854" lon="7.22623">
        <ele>260.60000610352</ele>
        <time>2022-01-13T08:23:42.000Z</time>
      </trkpt>
      <trkpt lat="43.77859" lon="7.22629">
        <ele>261</ele>
        <time>2022-01-13T08:23:44.000Z</time>
      </trkpt>
      <trkpt lat="43.77875" lon="7.22641">
        <ele>262</ele>
        <time>2022-01-13T08:23:49.000Z</time>
      </trkpt>
      <trkpt lat="43.77882" lon="7.22642">
        <ele>262.39999389648</ele>
        <time>2022-01-13T08:23:51.000Z</time>
      </trkpt>
      <trkpt lat="43.77891" lon="7.22643">
        <ele>263</ele>
        <time>2022-01-13T08:23:53.000Z</time>
      </trkpt>
      <trkpt lat="43.77921" lon="7.2265">
        <ele>263.60000610352</ele>
        <time>2022-01-13T08:24:00.000Z</time>
      </trkpt>
      <trkpt lat="43.77947" lon="7.22657">
        <ele>264</ele>
        <time>2022-01-13T08:24:06.000Z</time>
      </trkpt>
      <trkpt lat="43.77962" lon="7.2266">
        <ele>265</ele>
        <time>2022-01-13T08:24:10.000Z</time>
      </trkpt>
      <trkpt lat="43.77966" lon="7.22662">
        <ele>265.20001220703</ele>
        <time>2022-01-13T08:24:11.000Z</time>
      </trkpt>
      <trkpt lat="43.77986" lon="7.22669">
        <ele>266.20001220703</ele>
        <time>2022-01-13T08:24:16.000Z</time>
      </trkpt>
      <trkpt lat="43.78023" lon="7.22683">
        <ele>266.39999389648</ele>
        <time>2022-01-13T08:24:25.000Z</time>
      </trkpt>
      <trkpt lat="43.78032" lon="7.22687">
        <ele>266.60000610352</ele>
        <time>2022-01-13T08:24:27.000Z</time>
      </trkpt>
      <trkpt lat="43.78039" lon="7.22691">
        <ele>267.39999389648</ele>
        <time>2022-01-13T08:24:29.000Z</time>
      </trkpt>
      <trkpt lat="43.78046" lon="7.22695">
        <ele>268.39999389648</ele>
        <time>2022-01-13T08:24:31.000Z</time>
      </trkpt>
      <trkpt lat="43.78053" lon="7.22698">
        <ele>270</ele>
        <time>2022-01-13T08:24:33.000Z</time>
      </trkpt>
      <trkpt lat="43.78059" lon="7.22703">
        <ele>271</ele>
        <time>2022-01-13T08:24:35.000Z</time>
      </trkpt>
      <trkpt lat="43.78065" lon="7.22707">
        <ele>272</ele>
        <time>2022-01-13T08:24:37.000Z</time>
      </trkpt>
      <trkpt lat="43.78075" lon="7.22714">
        <ele>273.60000610352</ele>
        <time>2022-01-13T08:24:40.000Z</time>
      </trkpt>
      <trkpt lat="43.78083" lon="7.22722">
        <ele>275</ele>
        <time>2022-01-13T08:24:43.000Z</time>
      </trkpt>
      <trkpt lat="43.78089" lon="7.22728">
        <ele>276.20001220703</ele>
        <time>2022-01-13T08:24:45.000Z</time>
      </trkpt>
      <trkpt lat="43.78096" lon="7.22738">
        <ele>277.39999389648</ele>
        <time>2022-01-13T08:24:48.000Z</time>
      </trkpt>
      <trkpt lat="43.78102" lon="7.22748">
        <ele>278.39999389648</ele>
        <time>2022-01-13T08:24:51.000Z</time>
      </trkpt>
      <trkpt lat="43.78105" lon="7.22755">
        <ele>279.39999389648</ele>
        <time>2022-01-13T08:24:53.000Z</time>
      </trkpt>
      <trkpt lat="43.78108" lon="7.22761">
        <ele>280.20001220703</ele>
        <time>2022-01-13T08:24:55.000Z</time>
      </trkpt>
      <trkpt lat="43.78109" lon="7.22765">
        <ele>280.60000610352</ele>
        <time>2022-01-13T08:24:56.000Z</time>
      </trkpt>
      <trkpt lat="43.78114" lon="7.22775">
        <ele>281.79998779297</ele>
        <time>2022-01-13T08:24:59.000Z</time>
      </trkpt>
      <trkpt lat="43.7812" lon="7.22788">
        <ele>283.20001220703</ele>
        <time>2022-01-13T08:25:03.000Z</time>
      </trkpt>
      <trkpt lat="43.78125" lon="7.22796">
        <ele>284.39999389648</ele>
        <time>2022-01-13T08:25:06.000Z</time>
      </trkpt>
      <trkpt lat="43.78132" lon="7.22803">
        <ele>285.60000610352</ele>
        <time>2022-01-13T08:25:09.000Z</time>
      </trkpt>
      <trkpt lat="43.78139" lon="7.22808">
        <ele>286.79998779297</ele>
        <time>2022-01-13T08:25:12.000Z</time>
      </trkpt>
      <trkpt lat="43.78146" lon="7.22812">
        <ele>288</ele>
        <time>2022-01-13T08:25:15.000Z</time>
      </trkpt>
      <trkpt lat="43.78156" lon="7.22817">
        <ele>289</ele>
        <time>2022-01-13T08:25:19.000Z</time>
      </trkpt>
      <trkpt lat="43.78158" lon="7.22818">
        <ele>289.20001220703</ele>
        <time>2022-01-13T08:25:20.000Z</time>
      </trkpt>
      <trkpt lat="43.78166" lon="7.22823">
        <ele>290.20001220703</ele>
        <time>2022-01-13T08:25:23.000Z</time>
      </trkpt>
      <trkpt lat="43.78176" lon="7.22828">
        <ele>291.39999389648</ele>
        <time>2022-01-13T08:25:27.000Z</time>
      </trkpt>
      <trkpt lat="43.78178" lon="7.22829">
        <ele>291.79998779297</ele>
        <time>2022-01-13T08:25:28.000Z</time>
      </trkpt>
      <trkpt lat="43.78183" lon="7.22833">
        <ele>292.39999389648</ele>
        <time>2022-01-13T08:25:30.000Z</time>
      </trkpt>
      <trkpt lat="43.78193" lon="7.2284">
        <ele>293.39999389648</ele>
        <time>2022-01-13T08:25:34.000Z</time>
      </trkpt>
      <trkpt lat="43.782" lon="7.22848">
        <ele>294.39999389648</ele>
        <time>2022-01-13T08:25:37.000Z</time>
      </trkpt>
      <trkpt lat="43.78203" lon="7.2285">
        <ele>294.60000610352</ele>
        <time>2022-01-13T08:25:38.000Z</time>
      </trkpt>
      <trkpt lat="43.78214" lon="7.22858">
        <ele>295.79998779297</ele>
        <time>2022-01-13T08:25:42.000Z</time>
      </trkpt>
      <trkpt lat="43.78222" lon="7.22864">
        <ele>297.20001220703</ele>
        <time>2022-01-13T08:25:45.000Z</time>
      </trkpt>
      <trkpt lat="43.78224" lon="7.22866">
        <ele>298</ele>
        <time>2022-01-13T08:25:46.000Z</time>
      </trkpt>
      <trkpt lat="43.78227" lon="7.22869">
        <ele>298.20001220703</ele>
        <time>2022-01-13T08:25:47.000Z</time>
      </trkpt>
      <trkpt lat="43.78232" lon="7.22873">
        <ele>299.39999389648</ele>
        <time>2022-01-13T08:25:49.000Z</time>
      </trkpt>
      <trkpt lat="43.78238" lon="7.22877">
        <ele>300.60000610352</ele>
        <time>2022-01-13T08:25:51.000Z</time>
      </trkpt>
      <trkpt lat="43.78244" lon="7.2288">
        <ele>301.79998779297</ele>
        <time>2022-01-13T08:25:53.000Z</time>
      </trkpt>
      <trkpt lat="43.78246" lon="7.22881">
        <ele>302</ele>
        <time>2022-01-13T08:25:54.000Z</time>
      </trkpt>
      <trkpt lat="43.78251" lon="7.22883">
        <ele>302.79998779297</ele>
        <time>2022-01-13T08:25:56.000Z</time>
      </trkpt>
      <trkpt lat="43.78258" lon="7.22883">
        <ele>303.79998779297</ele>
        <time>2022-01-13T08:25:58.000Z</time>
      </trkpt>
      <trkpt lat="43.78264" lon="7.22883">
        <ele>304.60000610352</ele>
        <time>2022-01-13T08:26:00.000Z</time>
      </trkpt>
      <trkpt lat="43.78266" lon="7.22883">
        <ele>304.79998779297</ele>
        <time>2022-01-13T08:26:01.000Z</time>
      </trkpt>
      <trkpt lat="43.78276" lon="7.22882">
        <ele>306</ele>
        <time>2022-01-13T08:26:04.000Z</time>
      </trkpt>
      <trkpt lat="43.78284" lon="7.22884">
        <ele>307.20001220703</ele>
        <time>2022-01-13T08:26:07.000Z</time>
      </trkpt>
      <trkpt lat="43.7829" lon="7.22887">
        <ele>307.79998779297</ele>
        <time>2022-01-13T08:26:09.000Z</time>
      </trkpt>
      <trkpt lat="43.78298" lon="7.22892">
        <ele>308.20001220703</ele>
        <time>2022-01-13T08:26:12.000Z</time>
      </trkpt>
      <trkpt lat="43.78309" lon="7.22902">
        <ele>308.79998779297</ele>
        <time>2022-01-13T08:26:16.000Z</time>
      </trkpt>
      <trkpt lat="43.78316" lon="7.22911">
        <ele>309.20001220703</ele>
        <time>2022-01-13T08:26:19.000Z</time>
      </trkpt>
      <trkpt lat="43.78329" lon="7.22923">
        <ele>309.79998779297</ele>
        <time>2022-01-13T08:26:24.000Z</time>
      </trkpt>
      <trkpt lat="43.78356" lon="7.22948">
        <ele>310.20001220703</ele>
        <time>2022-01-13T08:26:33.000Z</time>
      </trkpt>
      <trkpt lat="43.78371" lon="7.22957">
        <ele>310.39999389648</ele>
        <time>2022-01-13T08:26:37.000Z</time>
      </trkpt>
      <trkpt lat="43.78374" lon="7.22957">
        <ele>310.39999389648</ele>
        <time>2022-01-13T08:26:38.000Z</time>
      </trkpt>
      <trkpt lat="43.78386" lon="7.2296">
        <ele>311.60000610352</ele>
        <time>2022-01-13T08:26:41.000Z</time>
      </trkpt>
      <trkpt lat="43.78393" lon="7.22962">
        <ele>312.60000610352</ele>
        <time>2022-01-13T08:26:43.000Z</time>
      </trkpt>
      <trkpt lat="43.784" lon="7.22964">
        <ele>314.39999389648</ele>
        <time>2022-01-13T08:26:45.000Z</time>
      </trkpt>
      <trkpt lat="43.78407" lon="7.22966">
        <ele>315.60000610352</ele>
        <time>2022-01-13T08:26:47.000Z</time>
      </trkpt>
      <trkpt lat="43.78416" lon="7.2297">
        <ele>317</ele>
        <time>2022-01-13T08:26:50.000Z</time>
      </trkpt>
      <trkpt lat="43.78425" lon="7.22974">
        <ele>318.20001220703</ele>
        <time>2022-01-13T08:26:53.000Z</time>
      </trkpt>
      <trkpt lat="43.7843" lon="7.2298">
        <ele>319.20001220703</ele>
        <time>2022-01-13T08:26:55.000Z</time>
      </trkpt>
      <trkpt lat="43.78432" lon="7.22983">
        <ele>319.39999389648</ele>
        <time>2022-01-13T08:26:56.000Z</time>
      </trkpt>
      <trkpt lat="43.78433" lon="7.22988">
        <ele>319.79998779297</ele>
        <time>2022-01-13T08:26:57.000Z</time>
      </trkpt>
      <trkpt lat="43.78436" lon="7.23">
        <ele>320.79998779297</ele>
        <time>2022-01-13T08:27:00.000Z</time>
      </trkpt>
      <trkpt lat="43.78441" lon="7.23016">
        <ele>321.79998779297</ele>
        <time>2022-01-13T08:27:04.000Z</time>
      </trkpt>
      <trkpt lat="43.78449" lon="7.2303">
        <ele>322.79998779297</ele>
        <time>2022-01-13T08:27:08.000Z</time>
      </trkpt>
      <trkpt lat="43.78451" lon="7.23033">
        <ele>323</ele>
        <time>2022-01-13T08:27:09.000Z</time>
      </trkpt>
      <trkpt lat="43.78463" lon="7.23051">
        <ele>324</ele>
        <time>2022-01-13T08:27:15.000Z</time>
      </trkpt>
      <trkpt lat="43.78466" lon="7.23054">
        <ele>324</ele>
        <time>2022-01-13T08:27:16.000Z</time>
      </trkpt>
      <trkpt lat="43.78479" lon="7.23067">
        <ele>325.20001220703</ele>
        <time>2022-01-13T08:27:21.000Z</time>
      </trkpt>
      <trkpt lat="43.78489" lon="7.23074">
        <ele>326.20001220703</ele>
        <time>2022-01-13T08:27:24.000Z</time>
      </trkpt>
      <trkpt lat="43.78492" lon="7.23076">
        <ele>326.60000610352</ele>
        <time>2022-01-13T08:27:25.000Z</time>
      </trkpt>
      <trkpt lat="43.78499" lon="7.23079">
        <ele>327.60000610352</ele>
        <time>2022-01-13T08:27:27.000Z</time>
      </trkpt>
      <trkpt lat="43.78507" lon="7.23085">
        <ele>329</ele>
        <time>2022-01-13T08:27:30.000Z</time>
      </trkpt>
      <trkpt lat="43.7851" lon="7.23087">
        <ele>329.39999389648</ele>
        <time>2022-01-13T08:27:31.000Z</time>
      </trkpt>
      <trkpt lat="43.78516" lon="7.23092">
        <ele>330.60000610352</ele>
        <time>2022-01-13T08:27:33.000Z</time>
      </trkpt>
      <trkpt lat="43.78524" lon="7.23098">
        <ele>331.79998779297</ele>
        <time>2022-01-13T08:27:36.000Z</time>
      </trkpt>
      <trkpt lat="43.7853" lon="7.23101">
        <ele>332.79998779297</ele>
        <time>2022-01-13T08:27:38.000Z</time>
      </trkpt>
      <trkpt lat="43.78535" lon="7.23107">
        <ele>334</ele>
        <time>2022-01-13T08:27:40.000Z</time>
      </trkpt>
      <trkpt lat="43.78539" lon="7.23111">
        <ele>335</ele>
        <time>2022-01-13T08:27:42.000Z</time>
      </trkpt>
      <trkpt lat="43.78543" lon="7.23115">
        <ele>336</ele>
        <time>2022-01-13T08:27:44.000Z</time>
      </trkpt>
      <trkpt lat="43.78546" lon="7.23117">
        <ele>336.60000610352</ele>
        <time>2022-01-13T08:27:45.000Z</time>
      </trkpt>
      <trkpt lat="43.78552" lon="7.23124">
        <ele>338</ele>
        <time>2022-01-13T08:27:48.000Z</time>
      </trkpt>
      <trkpt lat="43.78555" lon="7.2313">
        <ele>338.79998779297</ele>
        <time>2022-01-13T08:27:50.000Z</time>
      </trkpt>
      <trkpt lat="43.78557" lon="7.23133">
        <ele>339.39999389648</ele>
        <time>2022-01-13T08:27:51.000Z</time>
      </trkpt>
      <trkpt lat="43.78559" lon="7.23143">
        <ele>340.79998779297</ele>
        <time>2022-01-13T08:27:54.000Z</time>
      </trkpt>
      <trkpt lat="43.78561" lon="7.23149">
        <ele>341.60000610352</ele>
        <time>2022-01-13T08:27:56.000Z</time>
      </trkpt>
      <trkpt lat="43.78563" lon="7.23153">
        <ele>341.79998779297</ele>
        <time>2022-01-13T08:27:57.000Z</time>
      </trkpt>
      <trkpt lat="43.78566" lon="7.23163">
        <ele>343</ele>
        <time>2022-01-13T08:28:00.000Z</time>
      </trkpt>
      <trkpt lat="43.7857" lon="7.23171">
        <ele>344.20001220703</ele>
        <time>2022-01-13T08:28:03.000Z</time>
      </trkpt>
      <trkpt lat="43.78571" lon="7.23174">
        <ele>344.39999389648</ele>
        <time>2022-01-13T08:28:04.000Z</time>
      </trkpt>
      <trkpt lat="43.78578" lon="7.2318">
        <ele>345.39999389648</ele>
        <time>2022-01-13T08:28:07.000Z</time>
      </trkpt>
      <trkpt lat="43.78582" lon="7.23183">
        <ele>346</ele>
        <time>2022-01-13T08:28:09.000Z</time>
      </trkpt>
      <trkpt lat="43.78585" lon="7.23184">
        <ele>346.39999389648</ele>
        <time>2022-01-13T08:28:10.000Z</time>
      </trkpt>
      <trkpt lat="43.78594" lon="7.2319">
        <ele>347.60000610352</ele>
        <time>2022-01-13T08:28:14.000Z</time>
      </trkpt>
      <trkpt lat="43.78599" lon="7.23193">
        <ele>348</ele>
        <time>2022-01-13T08:28:16.000Z</time>
      </trkpt>
      <trkpt lat="43.78604" lon="7.23195">
        <ele>348.60000610352</ele>
        <time>2022-01-13T08:28:18.000Z</time>
      </trkpt>
      <trkpt lat="43.7861" lon="7.232">
        <ele>349.79998779297</ele>
        <time>2022-01-13T08:28:21.000Z</time>
      </trkpt>
      <trkpt lat="43.78616" lon="7.23205">
        <ele>350.60000610352</ele>
        <time>2022-01-13T08:28:24.000Z</time>
      </trkpt>
      <trkpt lat="43.78618" lon="7.23207">
        <ele>351</ele>
        <time>2022-01-13T08:28:25.000Z</time>
      </trkpt>
      <trkpt lat="43.78628" lon="7.23219">
        <ele>352.20001220703</ele>
        <time>2022-01-13T08:28:30.000Z</time>
      </trkpt>
      <trkpt lat="43.78632" lon="7.23224">
        <ele>352.60000610352</ele>
        <time>2022-01-13T08:28:32.000Z</time>
      </trkpt>
      <trkpt lat="43.78636" lon="7.23232">
        <ele>353.39999389648</ele>
        <time>2022-01-13T08:28:35.000Z</time>
      </trkpt>
      <trkpt lat="43.78644" lon="7.23241">
        <ele>354.60000610352</ele>
        <time>2022-01-13T08:28:39.000Z</time>
      </trkpt>
      <trkpt lat="43.78646" lon="7.23244">
        <ele>355</ele>
        <time>2022-01-13T08:28:40.000Z</time>
      </trkpt>
      <trkpt lat="43.78651" lon="7.23251">
        <ele>355.60000610352</ele>
        <time>2022-01-13T08:28:43.000Z</time>
      </trkpt>
      <trkpt lat="43.78661" lon="7.23262">
        <ele>356.79998779297</ele>
        <time>2022-01-13T08:28:48.000Z</time>
      </trkpt>
      <trkpt lat="43.78666" lon="7.23269">
        <ele>357.79998779297</ele>
        <time>2022-01-13T08:28:51.000Z</time>
      </trkpt>
      <trkpt lat="43.7867" lon="7.23273">
        <ele>358.20001220703</ele>
        <time>2022-01-13T08:28:53.000Z</time>
      </trkpt>
      <trkpt lat="43.78678" lon="7.23282">
        <ele>359.20001220703</ele>
        <time>2022-01-13T08:28:57.000Z</time>
      </trkpt>
      <trkpt lat="43.78687" lon="7.23291">
        <ele>360.20001220703</ele>
        <time>2022-01-13T08:29:01.000Z</time>
      </trkpt>
      <trkpt lat="43.78699" lon="7.23301">
        <ele>361.20001220703</ele>
        <time>2022-01-13T08:29:06.000Z</time>
      </trkpt>
      <trkpt lat="43.78711" lon="7.23308">
        <ele>361.79998779297</ele>
        <time>2022-01-13T08:29:10.000Z</time>
      </trkpt>
      <trkpt lat="43.7874" lon="7.23328">
        <ele>361.20001220703</ele>
        <time>2022-01-13T08:29:18.000Z</time>
      </trkpt>
      <trkpt lat="43.78765" lon="7.23356">
        <ele>361.20001220703</ele>
        <time>2022-01-13T08:29:26.000Z</time>
      </trkpt>
      <trkpt lat="43.78775" lon="7.2337">
        <ele>362.20001220703</ele>
        <time>2022-01-13T08:29:30.000Z</time>
      </trkpt>
      <trkpt lat="43.78786" lon="7.23382">
        <ele>363.39999389648</ele>
        <time>2022-01-13T08:29:34.000Z</time>
      </trkpt>
      <trkpt lat="43.78795" lon="7.23388">
        <ele>365</ele>
        <time>2022-01-13T08:29:37.000Z</time>
      </trkpt>
      <trkpt lat="43.78805" lon="7.23392">
        <ele>366.60000610352</ele>
        <time>2022-01-13T08:29:40.000Z</time>
      </trkpt>
      <trkpt lat="43.78809" lon="7.23393">
        <ele>366.79998779297</ele>
        <time>2022-01-13T08:29:41.000Z</time>
      </trkpt>
      <trkpt lat="43.78816" lon="7.23394">
        <ele>367.79998779297</ele>
        <time>2022-01-13T08:29:43.000Z</time>
      </trkpt>
      <trkpt lat="43.78822" lon="7.23394">
        <ele>369</ele>
        <time>2022-01-13T08:29:45.000Z</time>
      </trkpt>
      <trkpt lat="43.78832" lon="7.23398">
        <ele>370.39999389648</ele>
        <time>2022-01-13T08:29:48.000Z</time>
      </trkpt>
      <trkpt lat="43.78841" lon="7.23405">
        <ele>371.79998779297</ele>
        <time>2022-01-13T08:29:51.000Z</time>
      </trkpt>
      <trkpt lat="43.78845" lon="7.23412">
        <ele>372.79998779297</ele>
        <time>2022-01-13T08:29:53.000Z</time>
      </trkpt>
      <trkpt lat="43.78849" lon="7.23424">
        <ele>373.79998779297</ele>
        <time>2022-01-13T08:29:56.000Z</time>
      </trkpt>
      <trkpt lat="43.78854" lon="7.23436">
        <ele>375</ele>
        <time>2022-01-13T08:29:59.000Z</time>
      </trkpt>
      <trkpt lat="43.78856" lon="7.2344">
        <ele>375.39999389648</ele>
        <time>2022-01-13T08:30:00.000Z</time>
      </trkpt>
      <trkpt lat="43.7886" lon="7.23447">
        <ele>376</ele>
        <time>2022-01-13T08:30:02.000Z</time>
      </trkpt>
      <trkpt lat="43.78868" lon="7.23456">
        <ele>377</ele>
        <time>2022-01-13T08:30:05.000Z</time>
      </trkpt>
      <trkpt lat="43.78873" lon="7.23463">
        <ele>377.60000610352</ele>
        <time>2022-01-13T08:30:07.000Z</time>
      </trkpt>
      <trkpt lat="43.78879" lon="7.23469">
        <ele>378.20001220703</ele>
        <time>2022-01-13T08:30:09.000Z</time>
      </trkpt>
      <trkpt lat="43.78896" lon="7.23487">
        <ele>379.20001220703</ele>
        <time>2022-01-13T08:30:15.000Z</time>
      </trkpt>
      <trkpt lat="43.78921" lon="7.23508">
        <ele>380.20001220703</ele>
        <time>2022-01-13T08:30:23.000Z</time>
      </trkpt>
      <trkpt lat="43.78945" lon="7.23511">
        <ele>381</ele>
        <time>2022-01-13T08:30:30.000Z</time>
      </trkpt>
      <trkpt lat="43.78956" lon="7.2352">
        <ele>381.20001220703</ele>
        <time>2022-01-13T08:30:33.000Z</time>
      </trkpt>
      <trkpt lat="43.78959" lon="7.23525">
        <ele>381.20001220703</ele>
        <time>2022-01-13T08:30:34.000Z</time>
      </trkpt>
      <trkpt lat="43.78968" lon="7.23532">
        <ele>381</ele>
        <time>2022-01-13T08:30:37.000Z</time>
      </trkpt>
      <trkpt lat="43.78972" lon="7.23529">
        <ele>380.79998779297</ele>
        <time>2022-01-13T08:30:38.000Z</time>
      </trkpt>
      <trkpt lat="43.78976" lon="7.23518">
        <ele>380.20001220703</ele>
        <time>2022-01-13T08:30:40.000Z</time>
      </trkpt>
      <trkpt lat="43.78977" lon="7.23512">
        <ele>380.20001220703</ele>
        <time>2022-01-13T08:30:41.000Z</time>
      </trkpt>
      <trkpt lat="43.78977" lon="7.23507">
        <ele>380.20001220703</ele>
        <time>2022-01-13T08:30:42.000Z</time>
      </trkpt>
      <trkpt lat="43.78977" lon="7.235">
        <ele>380.20001220703</ele>
        <time>2022-01-13T08:30:43.000Z</time>
      </trkpt>
      <trkpt lat="43.78977" lon="7.23482">
        <ele>380.60000610352</ele>
        <time>2022-01-13T08:30:46.000Z</time>
      </trkpt>
      <trkpt lat="43.78978" lon="7.23477">
        <ele>380.60000610352</ele>
        <time>2022-01-13T08:30:47.000Z</time>
      </trkpt>
      <trkpt lat="43.78981" lon="7.23472">
        <ele>381</ele>
        <time>2022-01-13T08:30:48.000Z</time>
      </trkpt>
      <trkpt lat="43.78988" lon="7.23465">
        <ele>381.39999389648</ele>
        <time>2022-01-13T08:30:50.000Z</time>
      </trkpt>
      <trkpt lat="43.79004" lon="7.23459">
        <ele>382.79998779297</ele>
        <time>2022-01-13T08:30:54.000Z</time>
      </trkpt>
      <trkpt lat="43.79008" lon="7.23458">
        <ele>383</ele>
        <time>2022-01-13T08:30:55.000Z</time>
      </trkpt>
      <trkpt lat="43.79024" lon="7.23456">
        <ele>383.79998779297</ele>
        <time>2022-01-13T08:30:59.000Z</time>
      </trkpt>
      <trkpt lat="43.79031" lon="7.23462">
        <ele>384.20001220703</ele>
        <time>2022-01-13T08:31:01.000Z</time>
      </trkpt>
      <trkpt lat="43.79035" lon="7.23466">
        <ele>384.39999389648</ele>
        <time>2022-01-13T08:31:02.000Z</time>
      </trkpt>
      <trkpt lat="43.79045" lon="7.23473">
        <ele>384.60000610352</ele>
        <time>2022-01-13T08:31:04.000Z</time>
      </trkpt>
      <trkpt lat="43.79052" lon="7.23469">
        <ele>384.39999389648</ele>
        <time>2022-01-13T08:31:05.000Z</time>
      </trkpt>
      <trkpt lat="43.79057" lon="7.23464">
        <ele>384</ele>
        <time>2022-01-13T08:31:06.000Z</time>
      </trkpt>
      <trkpt lat="43.79069" lon="7.23455">
        <ele>383</ele>
        <time>2022-01-13T08:31:08.000Z</time>
      </trkpt>
      <trkpt lat="43.79076" lon="7.23454">
        <ele>382.60000610352</ele>
        <time>2022-01-13T08:31:09.000Z</time>
      </trkpt>
      <trkpt lat="43.79082" lon="7.2346">
        <ele>381.79998779297</ele>
        <time>2022-01-13T08:31:10.000Z</time>
      </trkpt>
      <trkpt lat="43.79087" lon="7.23464">
        <ele>381.20001220703</ele>
        <time>2022-01-13T08:31:11.000Z</time>
      </trkpt>
      <trkpt lat="43.79099" lon="7.23467">
        <ele>380.60000610352</ele>
        <time>2022-01-13T08:31:13.000Z</time>
      </trkpt>
      <trkpt lat="43.79105" lon="7.23466">
        <ele>380.39999389648</ele>
        <time>2022-01-13T08:31:14.000Z</time>
      </trkpt>
      <trkpt lat="43.79109" lon="7.23461">
        <ele>380</ele>
        <time>2022-01-13T08:31:15.000Z</time>
      </trkpt>
      <trkpt lat="43.79112" lon="7.23454">
        <ele>379.60000610352</ele>
        <time>2022-01-13T08:31:16.000Z</time>
      </trkpt>
      <trkpt lat="43.79118" lon="7.23433">
        <ele>379.39999389648</ele>
        <time>2022-01-13T08:31:19.000Z</time>
      </trkpt>
      <trkpt lat="43.79118" lon="7.23426">
        <ele>379.39999389648</ele>
        <time>2022-01-13T08:31:20.000Z</time>
      </trkpt>
      <trkpt lat="43.79115" lon="7.234">
        <ele>378.79998779297</ele>
        <time>2022-01-13T08:31:23.000Z</time>
      </trkpt>
      <trkpt lat="43.79116" lon="7.2339">
        <ele>377.79998779297</ele>
        <time>2022-01-13T08:31:25.000Z</time>
      </trkpt>
      <trkpt lat="43.7912" lon="7.23386">
        <ele>377.20001220703</ele>
        <time>2022-01-13T08:31:26.000Z</time>
      </trkpt>
      <trkpt lat="43.79124" lon="7.23386">
        <ele>376.39999389648</ele>
        <time>2022-01-13T08:31:27.000Z</time>
      </trkpt>
      <trkpt lat="43.79127" lon="7.23386">
        <ele>376</ele>
        <time>2022-01-13T08:31:28.000Z</time>
      </trkpt>
      <trkpt lat="43.79131" lon="7.23386">
        <ele>375.39999389648</ele>
        <time>2022-01-13T08:31:29.000Z</time>
      </trkpt>
      <trkpt lat="43.79149" lon="7.23379">
        <ele>376.20001220703</ele>
        <time>2022-01-13T08:31:34.000Z</time>
      </trkpt>
      <trkpt lat="43.79152" lon="7.23377">
        <ele>376.79998779297</ele>
        <time>2022-01-13T08:31:35.000Z</time>
      </trkpt>
      <trkpt lat="43.79162" lon="7.2337">
        <ele>378.20001220703</ele>
        <time>2022-01-13T08:31:38.000Z</time>
      </trkpt>
      <trkpt lat="43.79173" lon="7.23365">
        <ele>379.60000610352</ele>
        <time>2022-01-13T08:31:41.000Z</time>
      </trkpt>
      <trkpt lat="43.7918" lon="7.23361">
        <ele>380.60000610352</ele>
        <time>2022-01-13T08:31:43.000Z</time>
      </trkpt>
      <trkpt lat="43.79187" lon="7.23357">
        <ele>381.79998779297</ele>
        <time>2022-01-13T08:31:45.000Z</time>
      </trkpt>
      <trkpt lat="43.79196" lon="7.2335">
        <ele>383.20001220703</ele>
        <time>2022-01-13T08:31:48.000Z</time>
      </trkpt>
      <trkpt lat="43.79202" lon="7.23347">
        <ele>384.20001220703</ele>
        <time>2022-01-13T08:31:50.000Z</time>
      </trkpt>
      <trkpt lat="43.79207" lon="7.23346">
        <ele>385</ele>
        <time>2022-01-13T08:31:52.000Z</time>
      </trkpt>
      <trkpt lat="43.79208" lon="7.23347">
        <ele>385.20001220703</ele>
        <time>2022-01-13T08:31:53.000Z</time>
      </trkpt>
      <trkpt lat="43.79211" lon="7.23348">
        <ele>386</ele>
        <time>2022-01-13T08:31:57.000Z</time>
      </trkpt>
      <trkpt lat="43.79213" lon="7.23346">
        <ele>386.20001220703</ele>
        <time>2022-01-13T08:32:00.000Z</time>
      </trkpt>
      <trkpt lat="43.79213" lon="7.23344">
        <ele>386.20001220703</ele>
        <time>2022-01-13T08:32:01.000Z</time>
      </trkpt>
      <trkpt lat="43.79207" lon="7.23344">
        <ele>386.20001220703</ele>
        <time>2022-01-13T08:32:04.000Z</time>
      </trkpt>
      <trkpt lat="43.79207" lon="7.23359">
        <ele>386</ele>
        <time>2022-01-13T08:32:07.000Z</time>
      </trkpt>
      <trkpt lat="43.79208" lon="7.23363">
        <ele>386</ele>
        <time>2022-01-13T08:32:08.000Z</time>
      </trkpt>
      <trkpt lat="43.79208" lon="7.23376">
        <ele>387.39999389648</ele>
        <time>2022-01-13T08:32:11.000Z</time>
      </trkpt>
      <trkpt lat="43.79204" lon="7.23383">
        <ele>388.79998779297</ele>
        <time>2022-01-13T08:32:13.000Z</time>
      </trkpt>
      <trkpt lat="43.79201" lon="7.2339">
        <ele>390.20001220703</ele>
        <time>2022-01-13T08:32:15.000Z</time>
      </trkpt>
      <trkpt lat="43.79198" lon="7.23399">
        <ele>391.39999389648</ele>
        <time>2022-01-13T08:32:17.000Z</time>
      </trkpt>
      <trkpt lat="43.79195" lon="7.23406">
        <ele>392.20001220703</ele>
        <time>2022-01-13T08:32:19.000Z</time>
      </trkpt>
      <trkpt lat="43.79194" lon="7.23409">
        <ele>392.60000610352</ele>
        <time>2022-01-13T08:32:20.000Z</time>
      </trkpt>
      <trkpt lat="43.79191" lon="7.23418">
        <ele>393.79998779297</ele>
        <time>2022-01-13T08:32:23.000Z</time>
      </trkpt>
      <trkpt lat="43.79191" lon="7.23421">
        <ele>394</ele>
        <time>2022-01-13T08:32:24.000Z</time>
      </trkpt>
      <trkpt lat="43.79191" lon="7.23427">
        <ele>394.79998779297</ele>
        <time>2022-01-13T08:32:26.000Z</time>
      </trkpt>
      <trkpt lat="43.79191" lon="7.23428">
        <ele>396</ele>
        <time>2022-01-13T08:32:28.000Z</time>
      </trkpt>
      <trkpt lat="43.79191" lon="7.23425">
        <ele>397</ele>
        <time>2022-01-13T08:32:31.000Z</time>
      </trkpt>
      <trkpt lat="43.79191" lon="7.2342">
        <ele>397.20001220703</ele>
        <time>2022-01-13T08:32:33.000Z</time>
      </trkpt>
      <trkpt lat="43.79195" lon="7.23404">
        <ele>397.20001220703</ele>
        <time>2022-01-13T08:32:35.000Z</time>
      </trkpt>
      <trkpt lat="43.79197" lon="7.23397">
        <ele>396.79998779297</ele>
        <time>2022-01-13T08:32:36.000Z</time>
      </trkpt>
      <trkpt lat="43.792" lon="7.23391">
        <ele>396</ele>
        <time>2022-01-13T08:32:37.000Z</time>
      </trkpt>
      <trkpt lat="43.79205" lon="7.23377">
        <ele>394.39999389648</ele>
        <time>2022-01-13T08:32:39.000Z</time>
      </trkpt>
      <trkpt lat="43.79206" lon="7.23369">
        <ele>393.20001220703</ele>
        <time>2022-01-13T08:32:40.000Z</time>
      </trkpt>
      <trkpt lat="43.79207" lon="7.23361">
        <ele>392.79998779297</ele>
        <time>2022-01-13T08:32:41.000Z</time>
      </trkpt>
      <trkpt lat="43.79206" lon="7.23354">
        <ele>392.20001220703</ele>
        <time>2022-01-13T08:32:42.000Z</time>
      </trkpt>
      <trkpt lat="43.7921" lon="7.23339">
        <ele>391</ele>
        <time>2022-01-13T08:32:44.000Z</time>
      </trkpt>
      <trkpt lat="43.79214" lon="7.23333">
        <ele>390</ele>
        <time>2022-01-13T08:32:45.000Z</time>
      </trkpt>
      <trkpt lat="43.79218" lon="7.23327">
        <ele>389</ele>
        <time>2022-01-13T08:32:46.000Z</time>
      </trkpt>
      <trkpt lat="43.79221" lon="7.23323">
        <ele>387.79998779297</ele>
        <time>2022-01-13T08:32:47.000Z</time>
      </trkpt>
      <trkpt lat="43.79227" lon="7.23314">
        <ele>386.39999389648</ele>
        <time>2022-01-13T08:32:49.000Z</time>
      </trkpt>
      <trkpt lat="43.79237" lon="7.23295">
        <ele>387.79998779297</ele>
        <time>2022-01-13T08:32:53.000Z</time>
      </trkpt>
      <trkpt lat="43.79239" lon="7.23286">
        <ele>389.39999389648</ele>
        <time>2022-01-13T08:32:55.000Z</time>
      </trkpt>
      <trkpt lat="43.79241" lon="7.23278">
        <ele>391.20001220703</ele>
        <time>2022-01-13T08:32:57.000Z</time>
      </trkpt>
      <trkpt lat="43.79244" lon="7.23274">
        <ele>392.79998779297</ele>
        <time>2022-01-13T08:32:59.000Z</time>
      </trkpt>
      <trkpt lat="43.79246" lon="7.23274">
        <ele>393.60000610352</ele>
        <time>2022-01-13T08:33:00.000Z</time>
      </trkpt>
      <trkpt lat="43.79248" lon="7.23274">
        <ele>394.20001220703</ele>
        <time>2022-01-13T08:33:01.000Z</time>
      </trkpt>
      <trkpt lat="43.79249" lon="7.23275">
        <ele>394.79998779297</ele>
        <time>2022-01-13T08:33:02.000Z</time>
      </trkpt>
      <trkpt lat="43.79247" lon="7.23279">
        <ele>395.39999389648</ele>
        <time>2022-01-13T08:33:04.000Z</time>
      </trkpt>
      <trkpt lat="43.79239" lon="7.23286">
        <ele>395.60000610352</ele>
        <time>2022-01-13T08:33:07.000Z</time>
      </trkpt>
      <trkpt lat="43.79234" lon="7.23297">
        <ele>394.79998779297</ele>
        <time>2022-01-13T08:33:09.000Z</time>
      </trkpt>
      <trkpt lat="43.79231" lon="7.23303">
        <ele>394.20001220703</ele>
        <time>2022-01-13T08:33:10.000Z</time>
      </trkpt>
      <trkpt lat="43.79226" lon="7.23311">
        <ele>393.39999389648</ele>
        <time>2022-01-13T08:33:11.000Z</time>
      </trkpt>
      <trkpt lat="43.79222" lon="7.23318">
        <ele>392.39999389648</ele>
        <time>2022-01-13T08:33:12.000Z</time>
      </trkpt>
      <trkpt lat="43.79217" lon="7.23325">
        <ele>390.79998779297</ele>
        <time>2022-01-13T08:33:13.000Z</time>
      </trkpt>
      <trkpt lat="43.79208" lon="7.23335">
        <ele>388.79998779297</ele>
        <time>2022-01-13T08:33:15.000Z</time>
      </trkpt>
      <trkpt lat="43.79202" lon="7.23339">
        <ele>387.60000610352</ele>
        <time>2022-01-13T08:33:16.000Z</time>
      </trkpt>
      <trkpt lat="43.79191" lon="7.23345">
        <ele>385.79998779297</ele>
        <time>2022-01-13T08:33:18.000Z</time>
      </trkpt>
      <trkpt lat="43.79174" lon="7.23355">
        <ele>385</ele>
        <time>2022-01-13T08:33:21.000Z</time>
      </trkpt>
      <trkpt lat="43.79167" lon="7.23359">
        <ele>384.60000610352</ele>
        <time>2022-01-13T08:33:22.000Z</time>
      </trkpt>
      <trkpt lat="43.79153" lon="7.23367">
        <ele>383.20001220703</ele>
        <time>2022-01-13T08:33:24.000Z</time>
      </trkpt>
      <trkpt lat="43.7914" lon="7.23374">
        <ele>381.39999389648</ele>
        <time>2022-01-13T08:33:26.000Z</time>
      </trkpt>
      <trkpt lat="43.79134" lon="7.23376">
        <ele>380.20001220703</ele>
        <time>2022-01-13T08:33:27.000Z</time>
      </trkpt>
      <trkpt lat="43.79128" lon="7.23378">
        <ele>379</ele>
        <time>2022-01-13T08:33:28.000Z</time>
      </trkpt>
      <trkpt lat="43.7912" lon="7.23382">
        <ele>377.20001220703</ele>
        <time>2022-01-13T08:33:30.000Z</time>
      </trkpt>
      <trkpt lat="43.79116" lon="7.23386">
        <ele>376.20001220703</ele>
        <time>2022-01-13T08:33:31.000Z</time>
      </trkpt>
      <trkpt lat="43.79114" lon="7.23391">
        <ele>375.39999389648</ele>
        <time>2022-01-13T08:33:32.000Z</time>
      </trkpt>
      <trkpt lat="43.79114" lon="7.23402">
        <ele>374.20001220703</ele>
        <time>2022-01-13T08:33:34.000Z</time>
      </trkpt>
      <trkpt lat="43.79115" lon="7.23412">
        <ele>374</ele>
        <time>2022-01-13T08:33:36.000Z</time>
      </trkpt>
      <trkpt lat="43.79117" lon="7.23424">
        <ele>375.39999389648</ele>
        <time>2022-01-13T08:33:39.000Z</time>
      </trkpt>
      <trkpt lat="43.79118" lon="7.23426">
        <ele>375.79998779297</ele>
        <time>2022-01-13T08:33:40.000Z</time>
      </trkpt>
      <trkpt lat="43.79118" lon="7.23428">
        <ele>376.39999389648</ele>
        <time>2022-01-13T08:33:41.000Z</time>
      </trkpt>
      <trkpt lat="43.79118" lon="7.23428">
        <ele>377.60000610352</ele>
        <time>2022-01-13T08:33:43.000Z</time>
      </trkpt>
      <trkpt lat="43.79119" lon="7.23429">
        <ele>378.20001220703</ele>
        <time>2022-01-13T08:33:45.000Z</time>
      </trkpt>
      <trkpt lat="43.79119" lon="7.23429">
        <ele>378.79998779297</ele>
        <time>2022-01-13T08:33:51.000Z</time>
      </trkpt>
      <trkpt lat="43.7912" lon="7.23432">
        <ele>379</ele>
        <time>2022-01-13T08:33:55.000Z</time>
      </trkpt>
      <trkpt lat="43.79122" lon="7.23435">
        <ele>379.79998779297</ele>
        <time>2022-01-13T08:33:59.000Z</time>
      </trkpt>
      <trkpt lat="43.79124" lon="7.23439">
        <ele>380.39999389648</ele>
        <time>2022-01-13T08:34:03.000Z</time>
      </trkpt>
      <trkpt lat="43.79124" lon="7.23441">
        <ele>381.20001220703</ele>
        <time>2022-01-13T08:34:05.000Z</time>
      </trkpt>
      <trkpt lat="43.79126" lon="7.23445">
        <ele>382.20001220703</ele>
        <time>2022-01-13T08:34:09.000Z</time>
      </trkpt>
      <trkpt lat="43.79126" lon="7.23446">
        <ele>383</ele>
        <time>2022-01-13T08:34:12.000Z</time>
      </trkpt>
      <trkpt lat="43.79127" lon="7.23446">
        <ele>383.39999389648</ele>
        <time>2022-01-13T08:34:14.000Z</time>
      </trkpt>
      <trkpt lat="43.79129" lon="7.2345">
        <ele>384</ele>
        <time>2022-01-13T08:34:18.000Z</time>
      </trkpt>
      <trkpt lat="43.79129" lon="7.23453">
        <ele>384.60000610352</ele>
        <time>2022-01-13T08:34:21.000Z</time>
      </trkpt>
      <trkpt lat="43.79132" lon="7.23453">
        <ele>385.20001220703</ele>
        <time>2022-01-13T08:34:24.000Z</time>
      </trkpt>
      <trkpt lat="43.79133" lon="7.23453">
        <ele>385.60000610352</ele>
        <time>2022-01-13T08:34:26.000Z</time>
      </trkpt>
      <trkpt lat="43.79133" lon="7.23453">
        <ele>386.60000610352</ele>
        <time>2022-01-13T08:34:30.000Z</time>
      </trkpt>
      <trkpt lat="43.79134" lon="7.23453">
        <ele>386.79998779297</ele>
        <time>2022-01-13T08:34:32.000Z</time>
      </trkpt>
      <trkpt lat="43.79137" lon="7.23456">
        <ele>387</ele>
        <time>2022-01-13T08:34:46.000Z</time>
      </trkpt>
      <trkpt lat="43.79137" lon="7.2346">
        <ele>387.79998779297</ele>
        <time>2022-01-13T08:34:50.000Z</time>
      </trkpt>
      <trkpt lat="43.79137" lon="7.23461">
        <ele>388.60000610352</ele>
        <time>2022-01-13T08:34:54.000Z</time>
      </trkpt>
      <trkpt lat="43.79137" lon="7.23463">
        <ele>388.79998779297</ele>
        <time>2022-01-13T08:34:55.000Z</time>
      </trkpt>
      <trkpt lat="43.79139" lon="7.23463">
        <ele>389.60000610352</ele>
        <time>2022-01-13T08:35:01.000Z</time>
      </trkpt>
      <trkpt lat="43.79141" lon="7.23463">
        <ele>390</ele>
        <time>2022-01-13T08:35:03.000Z</time>
      </trkpt>
      <trkpt lat="43.79141" lon="7.23463">
        <ele>390.79998779297</ele>
        <time>2022-01-13T08:35:08.000Z</time>
      </trkpt>
      <trkpt lat="43.7914" lon="7.23468">
        <ele>390.60000610352</ele>
        <time>2022-01-13T08:35:17.000Z</time>
      </trkpt>
      <trkpt lat="43.7914" lon="7.23468">
        <ele>391</ele>
        <time>2022-01-13T08:35:20.000Z</time>
      </trkpt>
      <trkpt lat="43.79139" lon="7.23469">
        <ele>391.20001220703</ele>
        <time>2022-01-13T08:35:22.000Z</time>
      </trkpt>
      <trkpt lat="43.79141" lon="7.23473">
        <ele>392.20001220703</ele>
        <time>2022-01-13T08:35:28.000Z</time>
      </trkpt>
      <trkpt lat="43.79143" lon="7.23476">
        <ele>393</ele>
        <time>2022-01-13T08:35:33.000Z</time>
      </trkpt>
      <trkpt lat="43.79143" lon="7.23478">
        <ele>393.20001220703</ele>
        <time>2022-01-13T08:35:34.000Z</time>
      </trkpt>
      <trkpt lat="43.79141" lon="7.23481">
        <ele>394</ele>
        <time>2022-01-13T08:35:39.000Z</time>
      </trkpt>
      <trkpt lat="43.79141" lon="7.23481">
        <ele>394.20001220703</ele>
        <time>2022-01-13T08:35:40.000Z</time>
      </trkpt>
      <trkpt lat="43.7914" lon="7.23481">
        <ele>394.60000610352</ele>
        <time>2022-01-13T08:35:46.000Z</time>
      </trkpt>
      <trkpt lat="43.79138" lon="7.23484">
        <ele>395</ele>
        <time>2022-01-13T08:35:57.000Z</time>
      </trkpt>
      <trkpt lat="43.79136" lon="7.23492">
        <ele>395.39999389648</ele>
        <time>2022-01-13T08:36:01.000Z</time>
      </trkpt>
      <trkpt lat="43.79132" lon="7.235">
        <ele>396.79998779297</ele>
        <time>2022-01-13T08:36:04.000Z</time>
      </trkpt>
      <trkpt lat="43.7913" lon="7.23507">
        <ele>398.20001220703</ele>
        <time>2022-01-13T08:36:07.000Z</time>
      </trkpt>
      <trkpt lat="43.79129" lon="7.23514">
        <ele>399</ele>
        <time>2022-01-13T08:36:09.000Z</time>
      </trkpt>
      <trkpt lat="43.79128" lon="7.23517">
        <ele>399.60000610352</ele>
        <time>2022-01-13T08:36:10.000Z</time>
      </trkpt>
      <trkpt lat="43.79127" lon="7.23524">
        <ele>400.60000610352</ele>
        <time>2022-01-13T08:36:12.000Z</time>
      </trkpt>
      <trkpt lat="43.79124" lon="7.23529">
        <ele>401.60000610352</ele>
        <time>2022-01-13T08:36:14.000Z</time>
      </trkpt>
      <trkpt lat="43.79121" lon="7.23536">
        <ele>403</ele>
        <time>2022-01-13T08:36:17.000Z</time>
      </trkpt>
      <trkpt lat="43.7912" lon="7.23539">
        <ele>403.60000610352</ele>
        <time>2022-01-13T08:36:18.000Z</time>
      </trkpt>
      <trkpt lat="43.79119" lon="7.23542">
        <ele>404.20001220703</ele>
        <time>2022-01-13T08:36:19.000Z</time>
      </trkpt>
      <trkpt lat="43.79117" lon="7.23544">
        <ele>404.79998779297</ele>
        <time>2022-01-13T08:36:20.000Z</time>
      </trkpt>
      <trkpt lat="43.79116" lon="7.23546">
        <ele>405.20001220703</ele>
        <time>2022-01-13T08:36:21.000Z</time>
      </trkpt>
      <trkpt lat="43.79116" lon="7.23548">
        <ele>405.79998779297</ele>
        <time>2022-01-13T08:36:22.000Z</time>
      </trkpt>
      <trkpt lat="43.79115" lon="7.23551">
        <ele>406.39999389648</ele>
        <time>2022-01-13T08:36:23.000Z</time>
      </trkpt>
      <trkpt lat="43.79112" lon="7.23555">
        <ele>407.39999389648</ele>
        <time>2022-01-13T08:36:25.000Z</time>
      </trkpt>
      <trkpt lat="43.79111" lon="7.23556">
        <ele>408</ele>
        <time>2022-01-13T08:36:26.000Z</time>
      </trkpt>
      <trkpt lat="43.7911" lon="7.23556">
        <ele>408.60000610352</ele>
        <time>2022-01-13T08:36:27.000Z</time>
      </trkpt>
      <trkpt lat="43.79107" lon="7.23559">
        <ele>409.79998779297</ele>
        <time>2022-01-13T08:36:29.000Z</time>
      </trkpt>
      <trkpt lat="43.79105" lon="7.2356">
        <ele>410.60000610352</ele>
        <time>2022-01-13T08:36:30.000Z</time>
      </trkpt>
      <trkpt lat="43.79103" lon="7.2356">
        <ele>410.79998779297</ele>
        <time>2022-01-13T08:36:31.000Z</time>
      </trkpt>
      <trkpt lat="43.791" lon="7.23562">
        <ele>411.79998779297</ele>
        <time>2022-01-13T08:36:33.000Z</time>
      </trkpt>
      <trkpt lat="43.79095" lon="7.23562">
        <ele>413.60000610352</ele>
        <time>2022-01-13T08:36:36.000Z</time>
      </trkpt>
      <trkpt lat="43.79092" lon="7.23561">
        <ele>414.79998779297</ele>
        <time>2022-01-13T08:36:38.000Z</time>
      </trkpt>
      <trkpt lat="43.7909" lon="7.23562">
        <ele>415.20001220703</ele>
        <time>2022-01-13T08:36:39.000Z</time>
      </trkpt>
      <trkpt lat="43.7909" lon="7.23564">
        <ele>415.60000610352</ele>
        <time>2022-01-13T08:36:40.000Z</time>
      </trkpt>
      <trkpt lat="43.7909" lon="7.23567">
        <ele>415.79998779297</ele>
        <time>2022-01-13T08:36:41.000Z</time>
      </trkpt>
      <trkpt lat="43.79094" lon="7.23574">
        <ele>416.20001220703</ele>
        <time>2022-01-13T08:36:44.000Z</time>
      </trkpt>
      <trkpt lat="43.79102" lon="7.23579">
        <ele>416.60000610352</ele>
        <time>2022-01-13T08:36:48.000Z</time>
      </trkpt>
      <trkpt lat="43.79103" lon="7.23581">
        <ele>416.79998779297</ele>
        <time>2022-01-13T08:36:49.000Z</time>
      </trkpt>
      <trkpt lat="43.79105" lon="7.23583">
        <ele>417.20001220703</ele>
        <time>2022-01-13T08:36:50.000Z</time>
      </trkpt>
      <trkpt lat="43.79111" lon="7.23587">
        <ele>418.39999389648</ele>
        <time>2022-01-13T08:36:53.000Z</time>
      </trkpt>
      <trkpt lat="43.79114" lon="7.23589">
        <ele>419</ele>
        <time>2022-01-13T08:36:55.000Z</time>
      </trkpt>
      <trkpt lat="43.79116" lon="7.2359">
        <ele>419.39999389648</ele>
        <time>2022-01-13T08:36:56.000Z</time>
      </trkpt>
      <trkpt lat="43.79118" lon="7.23596">
        <ele>420.79998779297</ele>
        <time>2022-01-13T08:36:59.000Z</time>
      </trkpt>
      <trkpt lat="43.79116" lon="7.23599">
        <ele>421.20001220703</ele>
        <time>2022-01-13T08:37:00.000Z</time>
      </trkpt>
      <trkpt lat="43.79112" lon="7.23604">
        <ele>421.79998779297</ele>
        <time>2022-01-13T08:37:02.000Z</time>
      </trkpt>
      <trkpt lat="43.79107" lon="7.23615">
        <ele>422.20001220703</ele>
        <time>2022-01-13T08:37:06.000Z</time>
      </trkpt>
      <trkpt lat="43.79107" lon="7.23617">
        <ele>422.60000610352</ele>
        <time>2022-01-13T08:37:08.000Z</time>
      </trkpt>
      <trkpt lat="43.79108" lon="7.23619">
        <ele>423</ele>
        <time>2022-01-13T08:37:09.000Z</time>
      </trkpt>
      <trkpt lat="43.79108" lon="7.23619">
        <ele>423.20001220703</ele>
        <time>2022-01-13T08:37:10.000Z</time>
      </trkpt>
      <trkpt lat="43.79109" lon="7.23619">
        <ele>424</ele>
        <time>2022-01-13T08:37:12.000Z</time>
      </trkpt>
      <trkpt lat="43.7911" lon="7.2362">
        <ele>424.60000610352</ele>
        <time>2022-01-13T08:37:16.000Z</time>
      </trkpt>
      <trkpt lat="43.79113" lon="7.2362">
        <ele>425.20001220703</ele>
        <time>2022-01-13T08:37:20.000Z</time>
      </trkpt>
      <trkpt lat="43.79116" lon="7.23622">
        <ele>426</ele>
        <time>2022-01-13T08:37:25.000Z</time>
      </trkpt>
      <trkpt lat="43.79116" lon="7.23622">
        <ele>426.20001220703</ele>
        <time>2022-01-13T08:37:26.000Z</time>
      </trkpt>
      <trkpt lat="43.79114" lon="7.23624">
        <ele>426.60000610352</ele>
        <time>2022-01-13T08:37:34.000Z</time>
      </trkpt>
      <trkpt lat="43.79115" lon="7.23628">
        <ele>427.20001220703</ele>
        <time>2022-01-13T08:37:39.000Z</time>
      </trkpt>
      <trkpt lat="43.79116" lon="7.23628">
        <ele>427.39999389648</ele>
        <time>2022-01-13T08:37:40.000Z</time>
      </trkpt>
      <trkpt lat="43.79119" lon="7.2363">
        <ele>428.39999389648</ele>
        <time>2022-01-13T08:37:45.000Z</time>
      </trkpt>
      <trkpt lat="43.79119" lon="7.23631">
        <ele>428.60000610352</ele>
        <time>2022-01-13T08:37:46.000Z</time>
      </trkpt>
      <trkpt lat="43.79118" lon="7.23632">
        <ele>429</ele>
        <time>2022-01-13T08:37:47.000Z</time>
      </trkpt>
      <trkpt lat="43.79116" lon="7.23633">
        <ele>429.39999389648</ele>
        <time>2022-01-13T08:37:50.000Z</time>
      </trkpt>
      <trkpt lat="43.79117" lon="7.23634">
        <ele>429.60000610352</ele>
        <time>2022-01-13T08:37:51.000Z</time>
      </trkpt>
      <trkpt lat="43.79117" lon="7.23634">
        <ele>430.20001220703</ele>
        <time>2022-01-13T08:37:56.000Z</time>
      </trkpt>
      <trkpt lat="43.79117" lon="7.23633">
        <ele>430.39999389648</ele>
        <time>2022-01-13T08:38:11.000Z</time>
      </trkpt>
      <trkpt lat="43.79116" lon="7.23634">
        <ele>430.20001220703</ele>
        <time>2022-01-13T08:38:31.000Z</time>
      </trkpt>
      <trkpt lat="43.79116" lon="7.23634">
        <ele>430.20001220703</ele>
        <time>2022-01-13T08:38:46.000Z</time>
      </trkpt>
      <trkpt lat="43.79116" lon="7.23633">
        <ele>430.39999389648</ele>
        <time>2022-01-13T08:38:58.000Z</time>
      </trkpt>
      <trkpt lat="43.79116" lon="7.23632">
        <ele>430.60000610352</ele>
        <time>2022-01-13T08:39:08.000Z</time>
      </trkpt>
      <trkpt lat="43.79117" lon="7.23632">
        <ele>430.60000610352</ele>
        <time>2022-01-13T08:39:12.000Z</time>
      </trkpt>
      <trkpt lat="43.79117" lon="7.23632">
        <ele>430.39999389648</ele>
        <time>2022-01-13T08:39:27.000Z</time>
      </trkpt>
      <trkpt lat="43.79117" lon="7.23633">
        <ele>430.39999389648</ele>
        <time>2022-01-13T08:39:37.000Z</time>
      </trkpt>
      <trkpt lat="43.7912" lon="7.23635">
        <ele>430.79998779297</ele>
        <time>2022-01-13T08:39:45.000Z</time>
      </trkpt>
      <trkpt lat="43.7912" lon="7.23636">
        <ele>431.20001220703</ele>
        <time>2022-01-13T08:39:49.000Z</time>
      </trkpt>
      <trkpt lat="43.79119" lon="7.23638">
        <ele>431.60000610352</ele>
        <time>2022-01-13T08:39:52.000Z</time>
      </trkpt>
      <trkpt lat="43.79119" lon="7.23638">
        <ele>431.79998779297</ele>
        <time>2022-01-13T08:39:54.000Z</time>
      </trkpt>
      <trkpt lat="43.7912" lon="7.23638">
        <ele>431.79998779297</ele>
        <time>2022-01-13T08:39:55.000Z</time>
      </trkpt>
      <trkpt lat="43.79123" lon="7.23636">
        <ele>432.60000610352</ele>
        <time>2022-01-13T08:39:59.000Z</time>
      </trkpt>
      <trkpt lat="43.79124" lon="7.23635">
        <ele>433</ele>
        <time>2022-01-13T08:40:00.000Z</time>
      </trkpt>
      <trkpt lat="43.79126" lon="7.23636">
        <ele>433.39999389648</ele>
        <time>2022-01-13T08:40:02.000Z</time>
      </trkpt>
      <trkpt lat="43.79127" lon="7.23638">
        <ele>434</ele>
        <time>2022-01-13T08:40:04.000Z</time>
      </trkpt>
      <trkpt lat="43.79129" lon="7.23638">
        <ele>434.39999389648</ele>
        <time>2022-01-13T08:40:06.000Z</time>
      </trkpt>
      <trkpt lat="43.7913" lon="7.23639">
        <ele>435.20001220703</ele>
        <time>2022-01-13T08:40:10.000Z</time>
      </trkpt>
      <trkpt lat="43.7913" lon="7.23639">
        <ele>435.60000610352</ele>
        <time>2022-01-13T08:40:13.000Z</time>
      </trkpt>
      <trkpt lat="43.7913" lon="7.23638">
        <ele>435.39999389648</ele>
        <time>2022-01-13T08:40:24.000Z</time>
      </trkpt>
      <trkpt lat="43.79134" lon="7.2364">
        <ele>436</ele>
        <time>2022-01-13T08:40:30.000Z</time>
      </trkpt>
      <trkpt lat="43.79136" lon="7.23641">
        <ele>436.20001220703</ele>
        <time>2022-01-13T08:40:32.000Z</time>
      </trkpt>
      <trkpt lat="43.7914" lon="7.23643">
        <ele>437.20001220703</ele>
        <time>2022-01-13T08:40:37.000Z</time>
      </trkpt>
      <trkpt lat="43.79143" lon="7.23644">
        <ele>438</ele>
        <time>2022-01-13T08:40:40.000Z</time>
      </trkpt>
      <trkpt lat="43.79144" lon="7.23644">
        <ele>438.39999389648</ele>
        <time>2022-01-13T08:40:41.000Z</time>
      </trkpt>
      <trkpt lat="43.79151" lon="7.23643">
        <ele>439.39999389648</ele>
        <time>2022-01-13T08:40:47.000Z</time>
      </trkpt>
      <trkpt lat="43.79153" lon="7.23642">
        <ele>439.60000610352</ele>
        <time>2022-01-13T08:40:49.000Z</time>
      </trkpt>
      <trkpt lat="43.7916" lon="7.23641">
        <ele>440.39999389648</ele>
        <time>2022-01-13T08:40:55.000Z</time>
      </trkpt>
      <trkpt lat="43.79163" lon="7.23641">
        <ele>441</ele>
        <time>2022-01-13T08:40:59.000Z</time>
      </trkpt>
      <trkpt lat="43.79166" lon="7.23639">
        <ele>441.39999389648</ele>
        <time>2022-01-13T08:41:05.000Z</time>
      </trkpt>
      <trkpt lat="43.79168" lon="7.23639">
        <ele>441.39999389648</ele>
        <time>2022-01-13T08:41:06.000Z</time>
      </trkpt>
      <trkpt lat="43.79175" lon="7.23639">
        <ele>442</ele>
        <time>2022-01-13T08:41:10.000Z</time>
      </trkpt>
      <trkpt lat="43.79177" lon="7.23638">
        <ele>442.39999389648</ele>
        <time>2022-01-13T08:41:11.000Z</time>
      </trkpt>
      <trkpt lat="43.79181" lon="7.23637">
        <ele>443.60000610352</ele>
        <time>2022-01-13T08:41:13.000Z</time>
      </trkpt>
      <trkpt lat="43.79184" lon="7.23637">
        <ele>445</ele>
        <time>2022-01-13T08:41:15.000Z</time>
      </trkpt>
      <trkpt lat="43.79186" lon="7.2364">
        <ele>445.39999389648</ele>
        <time>2022-01-13T08:41:16.000Z</time>
      </trkpt>
      <trkpt lat="43.79186" lon="7.23646">
        <ele>446.20001220703</ele>
        <time>2022-01-13T08:41:18.000Z</time>
      </trkpt>
      <trkpt lat="43.79186" lon="7.23651">
        <ele>446.60000610352</ele>
        <time>2022-01-13T08:41:20.000Z</time>
      </trkpt>
      <trkpt lat="43.79185" lon="7.23657">
        <ele>447.20001220703</ele>
        <time>2022-01-13T08:41:22.000Z</time>
      </trkpt>
      <trkpt lat="43.79186" lon="7.23663">
        <ele>448</ele>
        <time>2022-01-13T08:41:24.000Z</time>
      </trkpt>
      <trkpt lat="43.79186" lon="7.23665">
        <ele>448.39999389648</ele>
        <time>2022-01-13T08:41:25.000Z</time>
      </trkpt>
      <trkpt lat="43.79187" lon="7.23668">
        <ele>448.79998779297</ele>
        <time>2022-01-13T08:41:26.000Z</time>
      </trkpt>
      <trkpt lat="43.79188" lon="7.23673">
        <ele>449.60000610352</ele>
        <time>2022-01-13T08:41:28.000Z</time>
      </trkpt>
      <trkpt lat="43.79189" lon="7.2368">
        <ele>451</ele>
        <time>2022-01-13T08:41:31.000Z</time>
      </trkpt>
      <trkpt lat="43.79189" lon="7.23685">
        <ele>451.60000610352</ele>
        <time>2022-01-13T08:41:33.000Z</time>
      </trkpt>
      <trkpt lat="43.79188" lon="7.23694">
        <ele>452</ele>
        <time>2022-01-13T08:41:36.000Z</time>
      </trkpt>
      <trkpt lat="43.79185" lon="7.23704">
        <ele>452.39999389648</ele>
        <time>2022-01-13T08:41:40.000Z</time>
      </trkpt>
      <trkpt lat="43.79179" lon="7.23716">
        <ele>453.20001220703</ele>
        <time>2022-01-13T08:41:45.000Z</time>
      </trkpt>
      <trkpt lat="43.79177" lon="7.23718">
        <ele>453.39999389648</ele>
        <time>2022-01-13T08:41:46.000Z</time>
      </trkpt>
      <trkpt lat="43.7917" lon="7.23726">
        <ele>454.39999389648</ele>
        <time>2022-01-13T08:41:51.000Z</time>
      </trkpt>
      <trkpt lat="43.79169" lon="7.23729">
        <ele>454.60000610352</ele>
        <time>2022-01-13T08:41:52.000Z</time>
      </trkpt>
      <trkpt lat="43.79161" lon="7.23737">
        <ele>455.39999389648</ele>
        <time>2022-01-13T08:41:57.000Z</time>
      </trkpt>
      <trkpt lat="43.7916" lon="7.23738">
        <ele>455.60000610352</ele>
        <time>2022-01-13T08:41:58.000Z</time>
      </trkpt>
      <trkpt lat="43.79151" lon="7.23753">
        <ele>455.79998779297</ele>
        <time>2022-01-13T08:42:04.000Z</time>
      </trkpt>
      <trkpt lat="43.79148" lon="7.2377">
        <ele>455.20001220703</ele>
        <time>2022-01-13T08:42:08.000Z</time>
      </trkpt>
      <trkpt lat="43.79147" lon="7.23774">
        <ele>455.20001220703</ele>
        <time>2022-01-13T08:42:09.000Z</time>
      </trkpt>
      <trkpt lat="43.79146" lon="7.23799">
        <ele>454.60000610352</ele>
        <time>2022-01-13T08:42:15.000Z</time>
      </trkpt>
      <trkpt lat="43.79143" lon="7.23821">
        <ele>455.20001220703</ele>
        <time>2022-01-13T08:42:21.000Z</time>
      </trkpt>
      <trkpt lat="43.79148" lon="7.23845">
        <ele>456.39999389648</ele>
        <time>2022-01-13T08:42:28.000Z</time>
      </trkpt>
      <trkpt lat="43.79154" lon="7.23859">
        <ele>457.39999389648</ele>
        <time>2022-01-13T08:42:33.000Z</time>
      </trkpt>
      <trkpt lat="43.79157" lon="7.23863">
        <ele>458</ele>
        <time>2022-01-13T08:42:35.000Z</time>
      </trkpt>
      <trkpt lat="43.7916" lon="7.23867">
        <ele>458.60000610352</ele>
        <time>2022-01-13T08:42:37.000Z</time>
      </trkpt>
      <trkpt lat="43.79166" lon="7.23876">
        <ele>459.39999389648</ele>
        <time>2022-01-13T08:42:41.000Z</time>
      </trkpt>
      <trkpt lat="43.79171" lon="7.23886">
        <ele>459.60000610352</ele>
        <time>2022-01-13T08:42:45.000Z</time>
      </trkpt>
      <trkpt lat="43.79171" lon="7.23889">
        <ele>459.60000610352</ele>
        <time>2022-01-13T08:42:46.000Z</time>
      </trkpt>
      <trkpt lat="43.79177" lon="7.23906">
        <ele>459.79998779297</ele>
        <time>2022-01-13T08:42:52.000Z</time>
      </trkpt>
      <trkpt lat="43.79182" lon="7.23908">
        <ele>460</ele>
        <time>2022-01-13T08:42:54.000Z</time>
      </trkpt>
      <trkpt lat="43.79186" lon="7.23906">
        <ele>460.39999389648</ele>
        <time>2022-01-13T08:42:56.000Z</time>
      </trkpt>
      <trkpt lat="43.7919" lon="7.23904">
        <ele>460.79998779297</ele>
        <time>2022-01-13T08:42:58.000Z</time>
      </trkpt>
      <trkpt lat="43.79197" lon="7.23896">
        <ele>462</ele>
        <time>2022-01-13T08:43:02.000Z</time>
      </trkpt>
      <trkpt lat="43.79197" lon="7.23893">
        <ele>462.20001220703</ele>
        <time>2022-01-13T08:43:03.000Z</time>
      </trkpt>
      <trkpt lat="43.79197" lon="7.23884">
        <ele>463.20001220703</ele>
        <time>2022-01-13T08:43:06.000Z</time>
      </trkpt>
      <trkpt lat="43.79197" lon="7.23881">
        <ele>463.79998779297</ele>
        <time>2022-01-13T08:43:07.000Z</time>
      </trkpt>
      <trkpt lat="43.79197" lon="7.23878">
        <ele>464.39999389648</ele>
        <time>2022-01-13T08:43:08.000Z</time>
      </trkpt>
      <trkpt lat="43.79198" lon="7.23878">
        <ele>465.60000610352</ele>
        <time>2022-01-13T08:43:10.000Z</time>
      </trkpt>
      <trkpt lat="43.79197" lon="7.23879">
        <ele>466</ele>
        <time>2022-01-13T08:43:11.000Z</time>
      </trkpt>
      <trkpt lat="43.79197" lon="7.23879">
        <ele>466.60000610352</ele>
        <time>2022-01-13T08:43:15.000Z</time>
      </trkpt>
      <trkpt lat="43.79197" lon="7.23879">
        <ele>466.60000610352</ele>
        <time>2022-01-13T08:43:16.000Z</time>
      </trkpt>
      <trkpt lat="43.79197" lon="7.2388">
        <ele>466.79998779297</ele>
        <time>2022-01-13T08:43:23.000Z</time>
      </trkpt>
      <trkpt lat="43.79199" lon="7.2388">
        <ele>466.39999389648</ele>
        <time>2022-01-13T08:43:31.000Z</time>
      </trkpt>
      <trkpt lat="43.79198" lon="7.2388">
        <ele>466.39999389648</ele>
        <time>2022-01-13T08:43:38.000Z</time>
      </trkpt>
      <trkpt lat="43.79198" lon="7.2388">
        <ele>466.20001220703</ele>
        <time>2022-01-13T08:43:51.000Z</time>
      </trkpt>
      <trkpt lat="43.79195" lon="7.23881">
        <ele>466.20001220703</ele>
        <time>2022-01-13T08:44:07.000Z</time>
      </trkpt>
      <trkpt lat="43.79195" lon="7.23881">
        <ele>466.20001220703</ele>
        <time>2022-01-13T08:44:32.000Z</time>
      </trkpt>
      <trkpt lat="43.79196" lon="7.2388">
        <ele>466.20001220703</ele>
        <time>2022-01-13T08:44:57.000Z</time>
      </trkpt>
      <trkpt lat="43.79195" lon="7.23881">
        <ele>466</ele>
        <time>2022-01-13T08:45:10.000Z</time>
      </trkpt>
      <trkpt lat="43.79194" lon="7.23881">
        <ele>466</ele>
        <time>2022-01-13T08:45:21.000Z</time>
      </trkpt>
      <trkpt lat="43.79195" lon="7.23882">
        <ele>466</ele>
        <time>2022-01-13T08:45:33.000Z</time>
      </trkpt>
      <trkpt lat="43.79196" lon="7.23881">
        <ele>466</ele>
        <time>2022-01-13T08:45:51.000Z</time>
      </trkpt>
      <trkpt lat="43.79195" lon="7.23881">
        <ele>466.20001220703</ele>
        <time>2022-01-13T08:46:05.000Z</time>
      </trkpt>
      <trkpt lat="43.79195" lon="7.23881">
        <ele>466</ele>
        <time>2022-01-13T08:46:19.000Z</time>
      </trkpt>
      <trkpt lat="43.79195" lon="7.23882">
        <ele>466</ele>
        <time>2022-01-13T08:46:23.000Z</time>
      </trkpt>
      <trkpt lat="43.79195" lon="7.23881">
        <ele>466</ele>
        <time>2022-01-13T08:46:24.000Z</time>
      </trkpt>
      <trkpt lat="43.79194" lon="7.23881">
        <ele>466.20001220703</ele>
        <time>2022-01-13T08:46:33.000Z</time>
      </trkpt>
      <trkpt lat="43.79195" lon="7.23881">
        <ele>466</ele>
        <time>2022-01-13T08:46:44.000Z</time>
      </trkpt>
      <trkpt lat="43.79195" lon="7.23881">
        <ele>466</ele>
        <time>2022-01-13T08:46:54.000Z</time>
      </trkpt>
      <trkpt lat="43.79195" lon="7.23881">
        <ele>466.39999389648</ele>
        <time>2022-01-13T08:47:01.000Z</time>
      </trkpt>
      <trkpt lat="43.79194" lon="7.23881">
        <ele>466.79998779297</ele>
        <time>2022-01-13T08:47:10.000Z</time>
      </trkpt>
      <trkpt lat="43.79194" lon="7.23881">
        <ele>466</ele>
        <time>2022-01-13T08:47:18.000Z</time>
      </trkpt>
      <trkpt lat="43.79195" lon="7.2388">
        <ele>466.20001220703</ele>
        <time>2022-01-13T08:47:26.000Z</time>
      </trkpt>
      <trkpt lat="43.79195" lon="7.2388">
        <ele>466.39999389648</ele>
        <time>2022-01-13T08:47:35.000Z</time>
      </trkpt>
      <trkpt lat="43.79199" lon="7.23879">
        <ele>466.20001220703</ele>
        <time>2022-01-13T08:47:40.000Z</time>
      </trkpt>
      <trkpt lat="43.792" lon="7.23882">
        <ele>466.20001220703</ele>
        <time>2022-01-13T08:47:41.000Z</time>
      </trkpt>
      <trkpt lat="43.79202" lon="7.23892">
        <ele>466.39999389648</ele>
        <time>2022-01-13T08:47:45.000Z</time>
      </trkpt>
      <trkpt lat="43.79203" lon="7.23895">
        <ele>466.60000610352</ele>
        <time>2022-01-13T08:47:46.000Z</time>
      </trkpt>
      <trkpt lat="43.792" lon="7.23912">
        <ele>467.60000610352</ele>
        <time>2022-01-13T08:47:52.000Z</time>
      </trkpt>
      <trkpt lat="43.79199" lon="7.23914">
        <ele>467.79998779297</ele>
        <time>2022-01-13T08:47:53.000Z</time>
      </trkpt>
      <trkpt lat="43.79195" lon="7.23923">
        <ele>468.79998779297</ele>
        <time>2022-01-13T08:47:57.000Z</time>
      </trkpt>
      <trkpt lat="43.79192" lon="7.23931">
        <ele>469.60000610352</ele>
        <time>2022-01-13T08:48:01.000Z</time>
      </trkpt>
      <trkpt lat="43.7919" lon="7.23935">
        <ele>469.79998779297</ele>
        <time>2022-01-13T08:48:03.000Z</time>
      </trkpt>
      <trkpt lat="43.79185" lon="7.23942">
        <ele>470.20001220703</ele>
        <time>2022-01-13T08:48:06.000Z</time>
      </trkpt>
      <trkpt lat="43.79178" lon="7.23963">
        <ele>470.79998779297</ele>
        <time>2022-01-13T08:48:14.000Z</time>
      </trkpt>
      <trkpt lat="43.79179" lon="7.23974">
        <ele>470.79998779297</ele>
        <time>2022-01-13T08:48:19.000Z</time>
      </trkpt>
      <trkpt lat="43.79179" lon="7.2398">
        <ele>471</ele>
        <time>2022-01-13T08:48:21.000Z</time>
      </trkpt>
      <trkpt lat="43.79181" lon="7.23994">
        <ele>471.39999389648</ele>
        <time>2022-01-13T08:48:25.000Z</time>
      </trkpt>
      <trkpt lat="43.79184" lon="7.24011">
        <ele>472</ele>
        <time>2022-01-13T08:48:30.000Z</time>
      </trkpt>
      <trkpt lat="43.79186" lon="7.24028">
        <ele>472.39999389648</ele>
        <time>2022-01-13T08:48:35.000Z</time>
      </trkpt>
      <trkpt lat="43.79187" lon="7.24053">
        <ele>473</ele>
        <time>2022-01-13T08:48:42.000Z</time>
      </trkpt>
      <trkpt lat="43.79186" lon="7.24057">
        <ele>473.20001220703</ele>
        <time>2022-01-13T08:48:43.000Z</time>
      </trkpt>
      <trkpt lat="43.79179" lon="7.24075">
        <ele>473.79998779297</ele>
        <time>2022-01-13T08:48:49.000Z</time>
      </trkpt>
      <trkpt lat="43.79177" lon="7.24077">
        <ele>474</ele>
        <time>2022-01-13T08:48:50.000Z</time>
      </trkpt>
      <trkpt lat="43.79165" lon="7.24087">
        <ele>474.60000610352</ele>
        <time>2022-01-13T08:48:55.000Z</time>
      </trkpt>
      <trkpt lat="43.7916" lon="7.2409">
        <ele>475</ele>
        <time>2022-01-13T08:48:57.000Z</time>
      </trkpt>
      <trkpt lat="43.79148" lon="7.241">
        <ele>476</ele>
        <time>2022-01-13T08:49:02.000Z</time>
      </trkpt>
      <trkpt lat="43.79134" lon="7.24119">
        <ele>477</ele>
        <time>2022-01-13T08:49:09.000Z</time>
      </trkpt>
      <trkpt lat="43.79133" lon="7.24123">
        <ele>477.20001220703</ele>
        <time>2022-01-13T08:49:10.000Z</time>
      </trkpt>
      <trkpt lat="43.79125" lon="7.24139">
        <ele>478.20001220703</ele>
        <time>2022-01-13T08:49:15.000Z</time>
      </trkpt>
      <trkpt lat="43.7912" lon="7.24154">
        <ele>478.79998779297</ele>
        <time>2022-01-13T08:49:19.000Z</time>
      </trkpt>
      <trkpt lat="43.79117" lon="7.24169">
        <ele>479.20001220703</ele>
        <time>2022-01-13T08:49:23.000Z</time>
      </trkpt>
      <trkpt lat="43.79114" lon="7.24187">
        <ele>479.60000610352</ele>
        <time>2022-01-13T08:49:28.000Z</time>
      </trkpt>
      <trkpt lat="43.7911" lon="7.24209">
        <ele>480.20001220703</ele>
        <time>2022-01-13T08:49:34.000Z</time>
      </trkpt>
      <trkpt lat="43.79107" lon="7.2422">
        <ele>480.60000610352</ele>
        <time>2022-01-13T08:49:37.000Z</time>
      </trkpt>
      <trkpt lat="43.79103" lon="7.24239">
        <ele>481.39999389648</ele>
        <time>2022-01-13T08:49:42.000Z</time>
      </trkpt>
      <trkpt lat="43.79097" lon="7.24254">
        <ele>482</ele>
        <time>2022-01-13T08:49:47.000Z</time>
      </trkpt>
      <trkpt lat="43.79093" lon="7.24267">
        <ele>482.60000610352</ele>
        <time>2022-01-13T08:49:51.000Z</time>
      </trkpt>
      <trkpt lat="43.79084" lon="7.24287">
        <ele>483.20001220703</ele>
        <time>2022-01-13T08:49:57.000Z</time>
      </trkpt>
      <trkpt lat="43.79079" lon="7.24298">
        <ele>483.60000610352</ele>
        <time>2022-01-13T08:50:00.000Z</time>
      </trkpt>
      <trkpt lat="43.79069" lon="7.24309">
        <ele>483.79998779297</ele>
        <time>2022-01-13T08:50:04.000Z</time>
      </trkpt>
      <trkpt lat="43.79057" lon="7.24315">
        <ele>484.60000610352</ele>
        <time>2022-01-13T08:50:08.000Z</time>
      </trkpt>
      <trkpt lat="43.79048" lon="7.24318">
        <ele>485.20001220703</ele>
        <time>2022-01-13T08:50:11.000Z</time>
      </trkpt>
      <trkpt lat="43.79042" lon="7.2432">
        <ele>485.60000610352</ele>
        <time>2022-01-13T08:50:13.000Z</time>
      </trkpt>
      <trkpt lat="43.79027" lon="7.24334">
        <ele>486.60000610352</ele>
        <time>2022-01-13T08:50:19.000Z</time>
      </trkpt>
      <trkpt lat="43.79022" lon="7.2434">
        <ele>486.79998779297</ele>
        <time>2022-01-13T08:50:21.000Z</time>
      </trkpt>
      <trkpt lat="43.79005" lon="7.2436">
        <ele>487.20001220703</ele>
        <time>2022-01-13T08:50:28.000Z</time>
      </trkpt>
      <trkpt lat="43.78993" lon="7.24367">
        <ele>488</ele>
        <time>2022-01-13T08:50:32.000Z</time>
      </trkpt>
      <trkpt lat="43.78987" lon="7.24367">
        <ele>488.20001220703</ele>
        <time>2022-01-13T08:50:34.000Z</time>
      </trkpt>
      <trkpt lat="43.78975" lon="7.24365">
        <ele>489</ele>
        <time>2022-01-13T08:50:38.000Z</time>
      </trkpt>
      <trkpt lat="43.78969" lon="7.24363">
        <ele>489.39999389648</ele>
        <time>2022-01-13T08:50:40.000Z</time>
      </trkpt>
      <trkpt lat="43.78958" lon="7.24358">
        <ele>490</ele>
        <time>2022-01-13T08:50:44.000Z</time>
      </trkpt>
      <trkpt lat="43.78946" lon="7.24352">
        <ele>490.60000610352</ele>
        <time>2022-01-13T08:50:48.000Z</time>
      </trkpt>
      <trkpt lat="43.78937" lon="7.24347">
        <ele>491.20001220703</ele>
        <time>2022-01-13T08:50:51.000Z</time>
      </trkpt>
      <trkpt lat="43.78921" lon="7.24337">
        <ele>492.20001220703</ele>
        <time>2022-01-13T08:50:57.000Z</time>
      </trkpt>
      <trkpt lat="43.78913" lon="7.2433">
        <ele>492.60000610352</ele>
        <time>2022-01-13T08:51:00.000Z</time>
      </trkpt>
      <trkpt lat="43.789" lon="7.2432">
        <ele>493.20001220703</ele>
        <time>2022-01-13T08:51:05.000Z</time>
      </trkpt>
      <trkpt lat="43.78883" lon="7.2431">
        <ele>494</ele>
        <time>2022-01-13T08:51:11.000Z</time>
      </trkpt>
      <trkpt lat="43.78874" lon="7.24308">
        <ele>494.20001220703</ele>
        <time>2022-01-13T08:51:14.000Z</time>
      </trkpt>
      <trkpt lat="43.78846" lon="7.24301">
        <ele>495.39999389648</ele>
        <time>2022-01-13T08:51:23.000Z</time>
      </trkpt>
      <trkpt lat="43.78825" lon="7.24296">
        <ele>496.39999389648</ele>
        <time>2022-01-13T08:51:30.000Z</time>
      </trkpt>
      <trkpt lat="43.78807" lon="7.24293">
        <ele>497.60000610352</ele>
        <time>2022-01-13T08:51:36.000Z</time>
      </trkpt>
      <trkpt lat="43.78783" lon="7.24287">
        <ele>498.60000610352</ele>
        <time>2022-01-13T08:51:44.000Z</time>
      </trkpt>
      <trkpt lat="43.78777" lon="7.24286">
        <ele>499</ele>
        <time>2022-01-13T08:51:46.000Z</time>
      </trkpt>
      <trkpt lat="43.78762" lon="7.24283">
        <ele>499.60000610352</ele>
        <time>2022-01-13T08:51:51.000Z</time>
      </trkpt>
      <trkpt lat="43.78745" lon="7.24281">
        <ele>500.79998779297</ele>
        <time>2022-01-13T08:51:57.000Z</time>
      </trkpt>
      <trkpt lat="43.78739" lon="7.2428">
        <ele>501.20001220703</ele>
        <time>2022-01-13T08:51:59.000Z</time>
      </trkpt>
      <trkpt lat="43.78727" lon="7.24279">
        <ele>501.79998779297</ele>
        <time>2022-01-13T08:52:03.000Z</time>
      </trkpt>
      <trkpt lat="43.78707" lon="7.2428">
        <ele>503</ele>
        <time>2022-01-13T08:52:10.000Z</time>
      </trkpt>
      <trkpt lat="43.78701" lon="7.24281">
        <ele>503.20001220703</ele>
        <time>2022-01-13T08:52:12.000Z</time>
      </trkpt>
      <trkpt lat="43.7869" lon="7.24283">
        <ele>504</ele>
        <time>2022-01-13T08:52:16.000Z</time>
      </trkpt>
      <trkpt lat="43.78673" lon="7.24288">
        <ele>505</ele>
        <time>2022-01-13T08:52:22.000Z</time>
      </trkpt>
      <trkpt lat="43.78668" lon="7.24291">
        <ele>505.20001220703</ele>
        <time>2022-01-13T08:52:24.000Z</time>
      </trkpt>
      <trkpt lat="43.78651" lon="7.24299">
        <ele>506</ele>
        <time>2022-01-13T08:52:30.000Z</time>
      </trkpt>
      <trkpt lat="43.78637" lon="7.24307">
        <ele>506.79998779297</ele>
        <time>2022-01-13T08:52:35.000Z</time>
      </trkpt>
      <trkpt lat="43.78629" lon="7.24311">
        <ele>507.20001220703</ele>
        <time>2022-01-13T08:52:38.000Z</time>
      </trkpt>
      <trkpt lat="43.7861" lon="7.24322">
        <ele>508.20001220703</ele>
        <time>2022-01-13T08:52:45.000Z</time>
      </trkpt>
      <trkpt lat="43.78604" lon="7.24325">
        <ele>508.60000610352</ele>
        <time>2022-01-13T08:52:47.000Z</time>
      </trkpt>
      <trkpt lat="43.78591" lon="7.24328">
        <ele>509.20001220703</ele>
        <time>2022-01-13T08:52:52.000Z</time>
      </trkpt>
      <trkpt lat="43.78585" lon="7.24326">
        <ele>509.39999389648</ele>
        <time>2022-01-13T08:52:54.000Z</time>
      </trkpt>
      <trkpt lat="43.78577" lon="7.24319">
        <ele>509.79998779297</ele>
        <time>2022-01-13T08:52:57.000Z</time>
      </trkpt>
      <trkpt lat="43.78565" lon="7.24305">
        <ele>510.39999389648</ele>
        <time>2022-01-13T08:53:02.000Z</time>
      </trkpt>
      <trkpt lat="43.78561" lon="7.24299">
        <ele>510.79998779297</ele>
        <time>2022-01-13T08:53:04.000Z</time>
      </trkpt>
      <trkpt lat="43.78544" lon="7.2429">
        <ele>511.39999389648</ele>
        <time>2022-01-13T08:53:10.000Z</time>
      </trkpt>
      <trkpt lat="43.78541" lon="7.24289">
        <ele>511.60000610352</ele>
        <time>2022-01-13T08:53:11.000Z</time>
      </trkpt>
      <trkpt lat="43.78523" lon="7.24291">
        <ele>512.20001220703</ele>
        <time>2022-01-13T08:53:17.000Z</time>
      </trkpt>
      <trkpt lat="43.78517" lon="7.24294">
        <ele>512.59997558594</ele>
        <time>2022-01-13T08:53:19.000Z</time>
      </trkpt>
      <trkpt lat="43.78505" lon="7.243">
        <ele>513.59997558594</ele>
        <time>2022-01-13T08:53:23.000Z</time>
      </trkpt>
      <trkpt lat="43.78502" lon="7.24301">
        <ele>513.59997558594</ele>
        <time>2022-01-13T08:53:24.000Z</time>
      </trkpt>
      <trkpt lat="43.78476" lon="7.24315">
        <ele>514.40002441406</ele>
        <time>2022-01-13T08:53:33.000Z</time>
      </trkpt>
      <trkpt lat="43.78471" lon="7.24318">
        <ele>514.79998779297</ele>
        <time>2022-01-13T08:53:35.000Z</time>
      </trkpt>
      <trkpt lat="43.7845" lon="7.24329">
        <ele>515.79998779297</ele>
        <time>2022-01-13T08:53:42.000Z</time>
      </trkpt>
      <trkpt lat="43.78447" lon="7.2433">
        <ele>515.79998779297</ele>
        <time>2022-01-13T08:53:43.000Z</time>
      </trkpt>
      <trkpt lat="43.78429" lon="7.24346">
        <ele>516.20001220703</ele>
        <time>2022-01-13T08:53:50.000Z</time>
      </trkpt>
      <trkpt lat="43.78429" lon="7.24351">
        <ele>516.20001220703</ele>
        <time>2022-01-13T08:53:51.000Z</time>
      </trkpt>
      <trkpt lat="43.78432" lon="7.24359">
        <ele>516.40002441406</ele>
        <time>2022-01-13T08:53:53.000Z</time>
      </trkpt>
      <trkpt lat="43.78435" lon="7.2436">
        <ele>516.40002441406</ele>
        <time>2022-01-13T08:53:54.000Z</time>
      </trkpt>
      <trkpt lat="43.78442" lon="7.24362">
        <ele>516.40002441406</ele>
        <time>2022-01-13T08:53:56.000Z</time>
      </trkpt>
      <trkpt lat="43.78451" lon="7.24365">
        <ele>516.79998779297</ele>
        <time>2022-01-13T08:53:59.000Z</time>
      </trkpt>
      <trkpt lat="43.7846" lon="7.24369">
        <ele>517.79998779297</ele>
        <time>2022-01-13T08:54:02.000Z</time>
      </trkpt>
      <trkpt lat="43.78466" lon="7.24372">
        <ele>518.20001220703</ele>
        <time>2022-01-13T08:54:04.000Z</time>
      </trkpt>
      <trkpt lat="43.78483" lon="7.2438">
        <ele>518.79998779297</ele>
        <time>2022-01-13T08:54:10.000Z</time>
      </trkpt>
      <trkpt lat="43.78488" lon="7.24383">
        <ele>519.40002441406</ele>
        <time>2022-01-13T08:54:12.000Z</time>
      </trkpt>
      <trkpt lat="43.78493" lon="7.24387">
        <ele>519.79998779297</ele>
        <time>2022-01-13T08:54:14.000Z</time>
      </trkpt>
      <trkpt lat="43.78503" lon="7.24393">
        <ele>521</ele>
        <time>2022-01-13T08:54:18.000Z</time>
      </trkpt>
      <trkpt lat="43.78512" lon="7.24398">
        <ele>522</ele>
        <time>2022-01-13T08:54:22.000Z</time>
      </trkpt>
      <trkpt lat="43.78518" lon="7.24402">
        <ele>522.79998779297</ele>
        <time>2022-01-13T08:54:25.000Z</time>
      </trkpt>
      <trkpt lat="43.78521" lon="7.24403">
        <ele>523</ele>
        <time>2022-01-13T08:54:26.000Z</time>
      </trkpt>
      <trkpt lat="43.78529" lon="7.24409">
        <ele>524.20001220703</ele>
        <time>2022-01-13T08:54:30.000Z</time>
      </trkpt>
      <trkpt lat="43.78531" lon="7.2441">
        <ele>524.40002441406</ele>
        <time>2022-01-13T08:54:31.000Z</time>
      </trkpt>
      <trkpt lat="43.7854" lon="7.24416">
        <ele>525.40002441406</ele>
        <time>2022-01-13T08:54:35.000Z</time>
      </trkpt>
      <trkpt lat="43.7855" lon="7.24422">
        <ele>526.20001220703</ele>
        <time>2022-01-13T08:54:39.000Z</time>
      </trkpt>
      <trkpt lat="43.78552" lon="7.24424">
        <ele>526.59997558594</ele>
        <time>2022-01-13T08:54:40.000Z</time>
      </trkpt>
      <trkpt lat="43.78561" lon="7.24429">
        <ele>527.79998779297</ele>
        <time>2022-01-13T08:54:44.000Z</time>
      </trkpt>
      <trkpt lat="43.78569" lon="7.2443">
        <ele>528.79998779297</ele>
        <time>2022-01-13T08:54:47.000Z</time>
      </trkpt>
      <trkpt lat="43.78579" lon="7.24431">
        <ele>530</ele>
        <time>2022-01-13T08:54:51.000Z</time>
      </trkpt>
      <trkpt lat="43.78585" lon="7.24433">
        <ele>531.20001220703</ele>
        <time>2022-01-13T08:54:54.000Z</time>
      </trkpt>
      <trkpt lat="43.78592" lon="7.24435">
        <ele>532.20001220703</ele>
        <time>2022-01-13T08:54:57.000Z</time>
      </trkpt>
      <trkpt lat="43.78598" lon="7.24435">
        <ele>533.20001220703</ele>
        <time>2022-01-13T08:55:00.000Z</time>
      </trkpt>
      <trkpt lat="43.78601" lon="7.24436">
        <ele>533.59997558594</ele>
        <time>2022-01-13T08:55:01.000Z</time>
      </trkpt>
      <trkpt lat="43.78608" lon="7.24435">
        <ele>534.59997558594</ele>
        <time>2022-01-13T08:55:04.000Z</time>
      </trkpt>
      <trkpt lat="43.78615" lon="7.24432">
        <ele>535.59997558594</ele>
        <time>2022-01-13T08:55:07.000Z</time>
      </trkpt>
      <trkpt lat="43.78618" lon="7.24431">
        <ele>536</ele>
        <time>2022-01-13T08:55:08.000Z</time>
      </trkpt>
      <trkpt lat="43.78623" lon="7.24428">
        <ele>536.79998779297</ele>
        <time>2022-01-13T08:55:10.000Z</time>
      </trkpt>
      <trkpt lat="43.78633" lon="7.24423">
        <ele>538</ele>
        <time>2022-01-13T08:55:14.000Z</time>
      </trkpt>
      <trkpt lat="43.78635" lon="7.24421">
        <ele>538.20001220703</ele>
        <time>2022-01-13T08:55:15.000Z</time>
      </trkpt>
      <trkpt lat="43.78642" lon="7.24416">
        <ele>539.20001220703</ele>
        <time>2022-01-13T08:55:18.000Z</time>
      </trkpt>
      <trkpt lat="43.78649" lon="7.24411">
        <ele>540.20001220703</ele>
        <time>2022-01-13T08:55:21.000Z</time>
      </trkpt>
      <trkpt lat="43.78655" lon="7.24408">
        <ele>541.40002441406</ele>
        <time>2022-01-13T08:55:24.000Z</time>
      </trkpt>
      <trkpt lat="43.78663" lon="7.24408">
        <ele>542.59997558594</ele>
        <time>2022-01-13T08:55:27.000Z</time>
      </trkpt>
      <trkpt lat="43.78668" lon="7.24406">
        <ele>543.40002441406</ele>
        <time>2022-01-13T08:55:29.000Z</time>
      </trkpt>
      <trkpt lat="43.78671" lon="7.24406">
        <ele>543.79998779297</ele>
        <time>2022-01-13T08:55:30.000Z</time>
      </trkpt>
      <trkpt lat="43.78676" lon="7.24406">
        <ele>544.79998779297</ele>
        <time>2022-01-13T08:55:32.000Z</time>
      </trkpt>
      <trkpt lat="43.7868" lon="7.24405">
        <ele>546</ele>
        <time>2022-01-13T08:55:34.000Z</time>
      </trkpt>
      <trkpt lat="43.78682" lon="7.24405">
        <ele>546.40002441406</ele>
        <time>2022-01-13T08:55:35.000Z</time>
      </trkpt>
      <trkpt lat="43.78687" lon="7.24405">
        <ele>547.20001220703</ele>
        <time>2022-01-13T08:55:37.000Z</time>
      </trkpt>
      <trkpt lat="43.78694" lon="7.24405">
        <ele>548.40002441406</ele>
        <time>2022-01-13T08:55:40.000Z</time>
      </trkpt>
      <trkpt lat="43.78696" lon="7.24405">
        <ele>548.79998779297</ele>
        <time>2022-01-13T08:55:41.000Z</time>
      </trkpt>
      <trkpt lat="43.78701" lon="7.24404">
        <ele>549.59997558594</ele>
        <time>2022-01-13T08:55:43.000Z</time>
      </trkpt>
      <trkpt lat="43.78709" lon="7.24406">
        <ele>550.59997558594</ele>
        <time>2022-01-13T08:55:46.000Z</time>
      </trkpt>
      <trkpt lat="43.78713" lon="7.24407">
        <ele>551.20001220703</ele>
        <time>2022-01-13T08:55:48.000Z</time>
      </trkpt>
      <trkpt lat="43.78718" lon="7.24408">
        <ele>552</ele>
        <time>2022-01-13T08:55:50.000Z</time>
      </trkpt>
      <trkpt lat="43.78724" lon="7.24413">
        <ele>553.40002441406</ele>
        <time>2022-01-13T08:55:53.000Z</time>
      </trkpt>
      <trkpt lat="43.78731" lon="7.24418">
        <ele>554.79998779297</ele>
        <time>2022-01-13T08:55:56.000Z</time>
      </trkpt>
      <trkpt lat="43.78737" lon="7.24422">
        <ele>556</ele>
        <time>2022-01-13T08:55:59.000Z</time>
      </trkpt>
      <trkpt lat="43.78743" lon="7.24426">
        <ele>557</ele>
        <time>2022-01-13T08:56:02.000Z</time>
      </trkpt>
      <trkpt lat="43.78745" lon="7.24428">
        <ele>557.59997558594</ele>
        <time>2022-01-13T08:56:03.000Z</time>
      </trkpt>
      <trkpt lat="43.78748" lon="7.24432">
        <ele>558.20001220703</ele>
        <time>2022-01-13T08:56:05.000Z</time>
      </trkpt>
      <trkpt lat="43.78754" lon="7.2444">
        <ele>559.40002441406</ele>
        <time>2022-01-13T08:56:09.000Z</time>
      </trkpt>
      <trkpt lat="43.78757" lon="7.24445">
        <ele>560</ele>
        <time>2022-01-13T08:56:11.000Z</time>
      </trkpt>
      <trkpt lat="43.78761" lon="7.24451">
        <ele>560.59997558594</ele>
        <time>2022-01-13T08:56:13.000Z</time>
      </trkpt>
      <trkpt lat="43.78764" lon="7.24459">
        <ele>561.59997558594</ele>
        <time>2022-01-13T08:56:16.000Z</time>
      </trkpt>
      <trkpt lat="43.78765" lon="7.24469">
        <ele>563</ele>
        <time>2022-01-13T08:56:19.000Z</time>
      </trkpt>
      <trkpt lat="43.78767" lon="7.24475">
        <ele>564</ele>
        <time>2022-01-13T08:56:21.000Z</time>
      </trkpt>
      <trkpt lat="43.7877" lon="7.24484">
        <ele>565.20001220703</ele>
        <time>2022-01-13T08:56:24.000Z</time>
      </trkpt>
      <trkpt lat="43.78771" lon="7.24487">
        <ele>565.59997558594</ele>
        <time>2022-01-13T08:56:25.000Z</time>
      </trkpt>
      <trkpt lat="43.78773" lon="7.24497">
        <ele>566.40002441406</ele>
        <time>2022-01-13T08:56:28.000Z</time>
      </trkpt>
      <trkpt lat="43.78776" lon="7.24506">
        <ele>567.59997558594</ele>
        <time>2022-01-13T08:56:31.000Z</time>
      </trkpt>
      <trkpt lat="43.78778" lon="7.24508">
        <ele>568</ele>
        <time>2022-01-13T08:56:32.000Z</time>
      </trkpt>
      <trkpt lat="43.78782" lon="7.24511">
        <ele>568.59997558594</ele>
        <time>2022-01-13T08:56:34.000Z</time>
      </trkpt>
      <trkpt lat="43.78789" lon="7.24515">
        <ele>569.20001220703</ele>
        <time>2022-01-13T08:56:37.000Z</time>
      </trkpt>
      <trkpt lat="43.78793" lon="7.24518">
        <ele>569.79998779297</ele>
        <time>2022-01-13T08:56:39.000Z</time>
      </trkpt>
      <trkpt lat="43.78802" lon="7.24525">
        <ele>571</ele>
        <time>2022-01-13T08:56:43.000Z</time>
      </trkpt>
      <trkpt lat="43.78809" lon="7.24529">
        <ele>572.20001220703</ele>
        <time>2022-01-13T08:56:46.000Z</time>
      </trkpt>
      <trkpt lat="43.78815" lon="7.24535">
        <ele>573.40002441406</ele>
        <time>2022-01-13T08:56:49.000Z</time>
      </trkpt>
      <trkpt lat="43.78818" lon="7.24537">
        <ele>573.79998779297</ele>
        <time>2022-01-13T08:56:50.000Z</time>
      </trkpt>
      <trkpt lat="43.7882" lon="7.24539">
        <ele>574.40002441406</ele>
        <time>2022-01-13T08:56:51.000Z</time>
      </trkpt>
      <trkpt lat="43.78824" lon="7.24544">
        <ele>575.59997558594</ele>
        <time>2022-01-13T08:56:53.000Z</time>
      </trkpt>
      <trkpt lat="43.78826" lon="7.24546">
        <ele>576.20001220703</ele>
        <time>2022-01-13T08:56:54.000Z</time>
      </trkpt>
      <trkpt lat="43.78828" lon="7.24548">
        <ele>576.79998779297</ele>
        <time>2022-01-13T08:56:55.000Z</time>
      </trkpt>
      <trkpt lat="43.78831" lon="7.24553">
        <ele>578.20001220703</ele>
        <time>2022-01-13T08:56:57.000Z</time>
      </trkpt>
      <trkpt lat="43.78834" lon="7.24556">
        <ele>579.59997558594</ele>
        <time>2022-01-13T08:56:59.000Z</time>
      </trkpt>
      <trkpt lat="43.78836" lon="7.24559">
        <ele>580.20001220703</ele>
        <time>2022-01-13T08:57:00.000Z</time>
      </trkpt>
      <trkpt lat="43.78837" lon="7.24561">
        <ele>580.79998779297</ele>
        <time>2022-01-13T08:57:01.000Z</time>
      </trkpt>
      <trkpt lat="43.7884" lon="7.24564">
        <ele>582</ele>
        <time>2022-01-13T08:57:03.000Z</time>
      </trkpt>
      <trkpt lat="43.78842" lon="7.2457">
        <ele>583.20001220703</ele>
        <time>2022-01-13T08:57:05.000Z</time>
      </trkpt>
      <trkpt lat="43.78842" lon="7.24576">
        <ele>584</ele>
        <time>2022-01-13T08:57:07.000Z</time>
      </trkpt>
      <trkpt lat="43.78842" lon="7.24579">
        <ele>584.40002441406</ele>
        <time>2022-01-13T08:57:08.000Z</time>
      </trkpt>
      <trkpt lat="43.78841" lon="7.24584">
        <ele>585.20001220703</ele>
        <time>2022-01-13T08:57:10.000Z</time>
      </trkpt>
      <trkpt lat="43.78839" lon="7.24586">
        <ele>585.59997558594</ele>
        <time>2022-01-13T08:57:11.000Z</time>
      </trkpt>
      <trkpt lat="43.78836" lon="7.2459">
        <ele>586.40002441406</ele>
        <time>2022-01-13T08:57:13.000Z</time>
      </trkpt>
      <trkpt lat="43.78834" lon="7.24591">
        <ele>586.59997558594</ele>
        <time>2022-01-13T08:57:14.000Z</time>
      </trkpt>
      <trkpt lat="43.78828" lon="7.24593">
        <ele>587.59997558594</ele>
        <time>2022-01-13T08:57:17.000Z</time>
      </trkpt>
      <trkpt lat="43.78825" lon="7.24593">
        <ele>587.79998779297</ele>
        <time>2022-01-13T08:57:18.000Z</time>
      </trkpt>
      <trkpt lat="43.78823" lon="7.24594">
        <ele>588.20001220703</ele>
        <time>2022-01-13T08:57:19.000Z</time>
      </trkpt>
      <trkpt lat="43.78815" lon="7.24606">
        <ele>588.59997558594</ele>
        <time>2022-01-13T08:57:24.000Z</time>
      </trkpt>
      <trkpt lat="43.78815" lon="7.24609">
        <ele>588.79998779297</ele>
        <time>2022-01-13T08:57:25.000Z</time>
      </trkpt>
      <trkpt lat="43.78821" lon="7.24622">
        <ele>589</ele>
        <time>2022-01-13T08:57:29.000Z</time>
      </trkpt>
      <trkpt lat="43.78822" lon="7.24624">
        <ele>589</ele>
        <time>2022-01-13T08:57:30.000Z</time>
      </trkpt>
      <trkpt lat="43.78836" lon="7.24638">
        <ele>590.20001220703</ele>
        <time>2022-01-13T08:57:36.000Z</time>
      </trkpt>
      <trkpt lat="43.78843" lon="7.24645">
        <ele>591.20001220703</ele>
        <time>2022-01-13T08:57:39.000Z</time>
      </trkpt>
      <trkpt lat="43.78851" lon="7.24652">
        <ele>592.20001220703</ele>
        <time>2022-01-13T08:57:42.000Z</time>
      </trkpt>
      <trkpt lat="43.78858" lon="7.24657">
        <ele>593.59997558594</ele>
        <time>2022-01-13T08:57:45.000Z</time>
      </trkpt>
      <trkpt lat="43.78865" lon="7.24661">
        <ele>595</ele>
        <time>2022-01-13T08:57:48.000Z</time>
      </trkpt>
      <trkpt lat="43.78869" lon="7.24661">
        <ele>595.59997558594</ele>
        <time>2022-01-13T08:57:50.000Z</time>
      </trkpt>
      <trkpt lat="43.78871" lon="7.24661">
        <ele>596</ele>
        <time>2022-01-13T08:57:51.000Z</time>
      </trkpt>
      <trkpt lat="43.78877" lon="7.24658">
        <ele>597</ele>
        <time>2022-01-13T08:57:54.000Z</time>
      </trkpt>
      <trkpt lat="43.7888" lon="7.24657">
        <ele>597.59997558594</ele>
        <time>2022-01-13T08:57:56.000Z</time>
      </trkpt>
      <trkpt lat="43.78881" lon="7.24658">
        <ele>598</ele>
        <time>2022-01-13T08:57:57.000Z</time>
      </trkpt>
      <trkpt lat="43.78881" lon="7.2466">
        <ele>598.20001220703</ele>
        <time>2022-01-13T08:57:58.000Z</time>
      </trkpt>
      <trkpt lat="43.7888" lon="7.24664">
        <ele>598.40002441406</ele>
        <time>2022-01-13T08:58:00.000Z</time>
      </trkpt>
      <trkpt lat="43.78876" lon="7.24669">
        <ele>599.20001220703</ele>
        <time>2022-01-13T08:58:04.000Z</time>
      </trkpt>
      <trkpt lat="43.78879" lon="7.24672">
        <ele>600.40002441406</ele>
        <time>2022-01-13T08:58:07.000Z</time>
      </trkpt>
      <trkpt lat="43.78881" lon="7.24674">
        <ele>600.59997558594</ele>
        <time>2022-01-13T08:58:08.000Z</time>
      </trkpt>
      <trkpt lat="43.78884" lon="7.24678">
        <ele>601.59997558594</ele>
        <time>2022-01-13T08:58:11.000Z</time>
      </trkpt>
      <trkpt lat="43.78888" lon="7.24681">
        <ele>602.40002441406</ele>
        <time>2022-01-13T08:58:13.000Z</time>
      </trkpt>
      <trkpt lat="43.7889" lon="7.24682">
        <ele>602.79998779297</ele>
        <time>2022-01-13T08:58:14.000Z</time>
      </trkpt>
      <trkpt lat="43.78893" lon="7.24685">
        <ele>604</ele>
        <time>2022-01-13T08:58:16.000Z</time>
      </trkpt>
      <trkpt lat="43.78896" lon="7.24689">
        <ele>605</ele>
        <time>2022-01-13T08:58:18.000Z</time>
      </trkpt>
      <trkpt lat="43.78898" lon="7.24693">
        <ele>606.20001220703</ele>
        <time>2022-01-13T08:58:20.000Z</time>
      </trkpt>
      <trkpt lat="43.78901" lon="7.24701">
        <ele>607.59997558594</ele>
        <time>2022-01-13T08:58:23.000Z</time>
      </trkpt>
      <trkpt lat="43.78902" lon="7.24707">
        <ele>608.79998779297</ele>
        <time>2022-01-13T08:58:25.000Z</time>
      </trkpt>
      <trkpt lat="43.78906" lon="7.24714">
        <ele>610.20001220703</ele>
        <time>2022-01-13T08:58:28.000Z</time>
      </trkpt>
      <trkpt lat="43.78907" lon="7.24723">
        <ele>611.20001220703</ele>
        <time>2022-01-13T08:58:31.000Z</time>
      </trkpt>
      <trkpt lat="43.78906" lon="7.24724">
        <ele>611.59997558594</ele>
        <time>2022-01-13T08:58:32.000Z</time>
      </trkpt>
      <trkpt lat="43.78907" lon="7.24724">
        <ele>612.59997558594</ele>
        <time>2022-01-13T08:58:34.000Z</time>
      </trkpt>
      <trkpt lat="43.78907" lon="7.24724">
        <ele>613.59997558594</ele>
        <time>2022-01-13T08:58:36.000Z</time>
      </trkpt>
      <trkpt lat="43.78906" lon="7.24724">
        <ele>614</ele>
        <time>2022-01-13T08:58:37.000Z</time>
      </trkpt>
      <trkpt lat="43.78907" lon="7.24725">
        <ele>614.20001220703</ele>
        <time>2022-01-13T08:58:41.000Z</time>
      </trkpt>
      <trkpt lat="43.78907" lon="7.24726">
        <ele>614.79998779297</ele>
        <time>2022-01-13T08:58:49.000Z</time>
      </trkpt>
      <trkpt lat="43.78909" lon="7.24734">
        <ele>614.59997558594</ele>
        <time>2022-01-13T08:58:59.000Z</time>
      </trkpt>
      <trkpt lat="43.7891" lon="7.24739">
        <ele>615.20001220703</ele>
        <time>2022-01-13T08:59:02.000Z</time>
      </trkpt>
      <trkpt lat="43.78911" lon="7.24747">
        <ele>616.20001220703</ele>
        <time>2022-01-13T08:59:05.000Z</time>
      </trkpt>
      <trkpt lat="43.78911" lon="7.2475">
        <ele>616.59997558594</ele>
        <time>2022-01-13T08:59:07.000Z</time>
      </trkpt>
      <trkpt lat="43.78915" lon="7.24758">
        <ele>617.79998779297</ele>
        <time>2022-01-13T08:59:11.000Z</time>
      </trkpt>
      <trkpt lat="43.78916" lon="7.2476">
        <ele>618.79998779297</ele>
        <time>2022-01-13T08:59:13.000Z</time>
      </trkpt>
      <trkpt lat="43.78916" lon="7.2476">
        <ele>619.79998779297</ele>
        <time>2022-01-13T08:59:15.000Z</time>
      </trkpt>
      <trkpt lat="43.78916" lon="7.24761">
        <ele>620</ele>
        <time>2022-01-13T08:59:16.000Z</time>
      </trkpt>
      <trkpt lat="43.78916" lon="7.24761">
        <ele>620.40002441406</ele>
        <time>2022-01-13T08:59:21.000Z</time>
      </trkpt>
      <trkpt lat="43.78919" lon="7.24766">
        <ele>620.59997558594</ele>
        <time>2022-01-13T08:59:26.000Z</time>
      </trkpt>
      <trkpt lat="43.78927" lon="7.24776">
        <ele>621.20001220703</ele>
        <time>2022-01-13T08:59:31.000Z</time>
      </trkpt>
      <trkpt lat="43.78928" lon="7.24777">
        <ele>621.59997558594</ele>
        <time>2022-01-13T08:59:32.000Z</time>
      </trkpt>
      <trkpt lat="43.78931" lon="7.24781">
        <ele>622.79998779297</ele>
        <time>2022-01-13T08:59:34.000Z</time>
      </trkpt>
      <trkpt lat="43.78934" lon="7.24784">
        <ele>623.79998779297</ele>
        <time>2022-01-13T08:59:36.000Z</time>
      </trkpt>
      <trkpt lat="43.78938" lon="7.2479">
        <ele>625.20001220703</ele>
        <time>2022-01-13T08:59:39.000Z</time>
      </trkpt>
      <trkpt lat="43.78939" lon="7.2479">
        <ele>625.59997558594</ele>
        <time>2022-01-13T08:59:40.000Z</time>
      </trkpt>
      <trkpt lat="43.78942" lon="7.24794">
        <ele>626.59997558594</ele>
        <time>2022-01-13T08:59:42.000Z</time>
      </trkpt>
      <trkpt lat="43.78944" lon="7.24796">
        <ele>627.40002441406</ele>
        <time>2022-01-13T08:59:44.000Z</time>
      </trkpt>
      <trkpt lat="43.78944" lon="7.24796">
        <ele>627.79998779297</ele>
        <time>2022-01-13T08:59:45.000Z</time>
      </trkpt>
      <trkpt lat="43.78944" lon="7.24797">
        <ele>628.79998779297</ele>
        <time>2022-01-13T08:59:50.000Z</time>
      </trkpt>
      <trkpt lat="43.78944" lon="7.24797">
        <ele>628.79998779297</ele>
        <time>2022-01-13T08:59:51.000Z</time>
      </trkpt>
      <trkpt lat="43.78945" lon="7.24799">
        <ele>630</ele>
        <time>2022-01-13T08:59:57.000Z</time>
      </trkpt>
      <trkpt lat="43.78948" lon="7.248">
        <ele>631</ele>
        <time>2022-01-13T09:00:04.000Z</time>
      </trkpt>
      <trkpt lat="43.78949" lon="7.248">
        <ele>631.59997558594</ele>
        <time>2022-01-13T09:00:08.000Z</time>
      </trkpt>
      <trkpt lat="43.7895" lon="7.24801">
        <ele>631.79998779297</ele>
        <time>2022-01-13T09:00:20.000Z</time>
      </trkpt>
      <trkpt lat="43.78951" lon="7.248">
        <ele>631.79998779297</ele>
        <time>2022-01-13T09:00:22.000Z</time>
      </trkpt>
      <trkpt lat="43.78955" lon="7.24801">
        <ele>631.79998779297</ele>
        <time>2022-01-13T09:00:25.000Z</time>
      </trkpt>
      <trkpt lat="43.78957" lon="7.248">
        <ele>631.79998779297</ele>
        <time>2022-01-13T09:00:26.000Z</time>
      </trkpt>
      <trkpt lat="43.78963" lon="7.24796">
        <ele>631.59997558594</ele>
        <time>2022-01-13T09:00:30.000Z</time>
      </trkpt>
      <trkpt lat="43.78969" lon="7.24792">
        <ele>631.79998779297</ele>
        <time>2022-01-13T09:00:33.000Z</time>
      </trkpt>
      <trkpt lat="43.78972" lon="7.2479">
        <ele>632</ele>
        <time>2022-01-13T09:00:35.000Z</time>
      </trkpt>
      <trkpt lat="43.7898" lon="7.24785">
        <ele>633.20001220703</ele>
        <time>2022-01-13T09:00:41.000Z</time>
      </trkpt>
      <trkpt lat="43.78986" lon="7.24788">
        <ele>634.40002441406</ele>
        <time>2022-01-13T09:00:46.000Z</time>
      </trkpt>
      <trkpt lat="43.78989" lon="7.24788">
        <ele>635.40002441406</ele>
        <time>2022-01-13T09:00:50.000Z</time>
      </trkpt>
      <trkpt lat="43.78989" lon="7.24787">
        <ele>636.40002441406</ele>
        <time>2022-01-13T09:00:53.000Z</time>
      </trkpt>
      <trkpt lat="43.78992" lon="7.24787">
        <ele>636.79998779297</ele>
        <time>2022-01-13T09:00:55.000Z</time>
      </trkpt>
      <trkpt lat="43.78993" lon="7.24786">
        <ele>637</ele>
        <time>2022-01-13T09:00:56.000Z</time>
      </trkpt>
      <trkpt lat="43.78993" lon="7.24787">
        <ele>637.59997558594</ele>
        <time>2022-01-13T09:00:58.000Z</time>
      </trkpt>
      <trkpt lat="43.78993" lon="7.24786">
        <ele>638.20001220703</ele>
        <time>2022-01-13T09:01:02.000Z</time>
      </trkpt>
      <trkpt lat="43.78999" lon="7.24784">
        <ele>638.20001220703</ele>
        <time>2022-01-13T09:01:06.000Z</time>
      </trkpt>
      <trkpt lat="43.79002" lon="7.24782">
        <ele>638.59997558594</ele>
        <time>2022-01-13T09:01:08.000Z</time>
      </trkpt>
      <trkpt lat="43.79007" lon="7.24782">
        <ele>639.59997558594</ele>
        <time>2022-01-13T09:01:11.000Z</time>
      </trkpt>
      <trkpt lat="43.79009" lon="7.24781">
        <ele>640</ele>
        <time>2022-01-13T09:01:12.000Z</time>
      </trkpt>
      <trkpt lat="43.79014" lon="7.24779">
        <ele>641.20001220703</ele>
        <time>2022-01-13T09:01:15.000Z</time>
      </trkpt>
      <trkpt lat="43.79016" lon="7.24778">
        <ele>641.79998779297</ele>
        <time>2022-01-13T09:01:16.000Z</time>
      </trkpt>
      <trkpt lat="43.7902" lon="7.24775">
        <ele>642.59997558594</ele>
        <time>2022-01-13T09:01:18.000Z</time>
      </trkpt>
      <trkpt lat="43.79025" lon="7.24776">
        <ele>643.20001220703</ele>
        <time>2022-01-13T09:01:21.000Z</time>
      </trkpt>
      <trkpt lat="43.79028" lon="7.24776">
        <ele>643.79998779297</ele>
        <time>2022-01-13T09:01:23.000Z</time>
      </trkpt>
      <trkpt lat="43.79036" lon="7.24772">
        <ele>644.79998779297</ele>
        <time>2022-01-13T09:01:27.000Z</time>
      </trkpt>
      <trkpt lat="43.79039" lon="7.24771">
        <ele>645.20001220703</ele>
        <time>2022-01-13T09:01:28.000Z</time>
      </trkpt>
      <trkpt lat="43.79044" lon="7.24771">
        <ele>646.20001220703</ele>
        <time>2022-01-13T09:01:31.000Z</time>
      </trkpt>
      <trkpt lat="43.79046" lon="7.24772">
        <ele>646.40002441406</ele>
        <time>2022-01-13T09:01:32.000Z</time>
      </trkpt>
      <trkpt lat="43.7905" lon="7.24772">
        <ele>647.20001220703</ele>
        <time>2022-01-13T09:01:34.000Z</time>
      </trkpt>
      <trkpt lat="43.79054" lon="7.24769">
        <ele>647.59997558594</ele>
        <time>2022-01-13T09:01:36.000Z</time>
      </trkpt>
      <trkpt lat="43.79056" lon="7.24769">
        <ele>648</ele>
        <time>2022-01-13T09:01:37.000Z</time>
      </trkpt>
      <trkpt lat="43.79058" lon="7.24769">
        <ele>648.20001220703</ele>
        <time>2022-01-13T09:01:38.000Z</time>
      </trkpt>
      <trkpt lat="43.79063" lon="7.24771">
        <ele>649.40002441406</ele>
        <time>2022-01-13T09:01:41.000Z</time>
      </trkpt>
      <trkpt lat="43.79065" lon="7.2477">
        <ele>650</ele>
        <time>2022-01-13T09:01:42.000Z</time>
      </trkpt>
      <trkpt lat="43.79066" lon="7.2477">
        <ele>650.40002441406</ele>
        <time>2022-01-13T09:01:43.000Z</time>
      </trkpt>
      <trkpt lat="43.79072" lon="7.2477">
        <ele>651.59997558594</ele>
        <time>2022-01-13T09:01:46.000Z</time>
      </trkpt>
      <trkpt lat="43.79076" lon="7.24771">
        <ele>652.79998779297</ele>
        <time>2022-01-13T09:01:49.000Z</time>
      </trkpt>
      <trkpt lat="43.79081" lon="7.24769">
        <ele>654</ele>
        <time>2022-01-13T09:01:52.000Z</time>
      </trkpt>
      <trkpt lat="43.79084" lon="7.24768">
        <ele>654.79998779297</ele>
        <time>2022-01-13T09:01:54.000Z</time>
      </trkpt>
      <trkpt lat="43.79085" lon="7.24767">
        <ele>655.20001220703</ele>
        <time>2022-01-13T09:01:55.000Z</time>
      </trkpt>
      <trkpt lat="43.79093" lon="7.24764">
        <ele>656.20001220703</ele>
        <time>2022-01-13T09:02:00.000Z</time>
      </trkpt>
      <trkpt lat="43.791" lon="7.24761">
        <ele>657.59997558594</ele>
        <time>2022-01-13T09:02:05.000Z</time>
      </trkpt>
      <trkpt lat="43.79102" lon="7.24759">
        <ele>657.79998779297</ele>
        <time>2022-01-13T09:02:06.000Z</time>
      </trkpt>
      <trkpt lat="43.79106" lon="7.2476">
        <ele>658.79998779297</ele>
        <time>2022-01-13T09:02:09.000Z</time>
      </trkpt>
      <trkpt lat="43.79108" lon="7.24759">
        <ele>659</ele>
        <time>2022-01-13T09:02:10.000Z</time>
      </trkpt>
      <trkpt lat="43.79117" lon="7.24758">
        <ele>659.79998779297</ele>
        <time>2022-01-13T09:02:15.000Z</time>
      </trkpt>
      <trkpt lat="43.79119" lon="7.24757">
        <ele>660</ele>
        <time>2022-01-13T09:02:16.000Z</time>
      </trkpt>
      <trkpt lat="43.79123" lon="7.24758">
        <ele>661</ele>
        <time>2022-01-13T09:02:18.000Z</time>
      </trkpt>
      <trkpt lat="43.79127" lon="7.24756">
        <ele>662.40002441406</ele>
        <time>2022-01-13T09:02:21.000Z</time>
      </trkpt>
      <trkpt lat="43.79128" lon="7.24755">
        <ele>663.59997558594</ele>
        <time>2022-01-13T09:02:25.000Z</time>
      </trkpt>
      <trkpt lat="43.79132" lon="7.24754">
        <ele>664.59997558594</ele>
        <time>2022-01-13T09:02:32.000Z</time>
      </trkpt>
      <trkpt lat="43.79136" lon="7.24752">
        <ele>665.59997558594</ele>
        <time>2022-01-13T09:02:38.000Z</time>
      </trkpt>
      <trkpt lat="43.79138" lon="7.24752">
        <ele>666.20001220703</ele>
        <time>2022-01-13T09:02:41.000Z</time>
      </trkpt>
      <trkpt lat="43.79141" lon="7.24752">
        <ele>666.79998779297</ele>
        <time>2022-01-13T09:02:45.000Z</time>
      </trkpt>
      <trkpt lat="43.79142" lon="7.24751">
        <ele>667.20001220703</ele>
        <time>2022-01-13T09:02:49.000Z</time>
      </trkpt>
      <trkpt lat="43.79143" lon="7.24751">
        <ele>667.40002441406</ele>
        <time>2022-01-13T09:02:57.000Z</time>
      </trkpt>
      <trkpt lat="43.79149" lon="7.2475">
        <ele>667.40002441406</ele>
        <time>2022-01-13T09:03:03.000Z</time>
      </trkpt>
      <trkpt lat="43.79152" lon="7.2475">
        <ele>667.79998779297</ele>
        <time>2022-01-13T09:03:05.000Z</time>
      </trkpt>
      <trkpt lat="43.79157" lon="7.24751">
        <ele>668.40002441406</ele>
        <time>2022-01-13T09:03:08.000Z</time>
      </trkpt>
      <trkpt lat="43.79159" lon="7.24752">
        <ele>668.79998779297</ele>
        <time>2022-01-13T09:03:09.000Z</time>
      </trkpt>
      <trkpt lat="43.79166" lon="7.24752">
        <ele>670.20001220703</ele>
        <time>2022-01-13T09:03:13.000Z</time>
      </trkpt>
      <trkpt lat="43.79167" lon="7.24752">
        <ele>670.40002441406</ele>
        <time>2022-01-13T09:03:14.000Z</time>
      </trkpt>
      <trkpt lat="43.79176" lon="7.24754">
        <ele>671.40002441406</ele>
        <time>2022-01-13T09:03:19.000Z</time>
      </trkpt>
      <trkpt lat="43.79178" lon="7.24754">
        <ele>671.59997558594</ele>
        <time>2022-01-13T09:03:20.000Z</time>
      </trkpt>
      <trkpt lat="43.79183" lon="7.24755">
        <ele>672.40002441406</ele>
        <time>2022-01-13T09:03:23.000Z</time>
      </trkpt>
      <trkpt lat="43.79189" lon="7.24757">
        <ele>673</ele>
        <time>2022-01-13T09:03:26.000Z</time>
      </trkpt>
      <trkpt lat="43.79192" lon="7.2476">
        <ele>673.59997558594</ele>
        <time>2022-01-13T09:03:28.000Z</time>
      </trkpt>
      <trkpt lat="43.79196" lon="7.24764">
        <ele>674.20001220703</ele>
        <time>2022-01-13T09:03:31.000Z</time>
      </trkpt>
      <trkpt lat="43.79201" lon="7.24768">
        <ele>674.59997558594</ele>
        <time>2022-01-13T09:03:34.000Z</time>
      </trkpt>
      <trkpt lat="43.79207" lon="7.24773">
        <ele>674.59997558594</ele>
        <time>2022-01-13T09:03:37.000Z</time>
      </trkpt>
      <trkpt lat="43.79216" lon="7.24777">
        <ele>676.20001220703</ele>
        <time>2022-01-13T09:03:42.000Z</time>
      </trkpt>
      <trkpt lat="43.79218" lon="7.24778">
        <ele>676.40002441406</ele>
        <time>2022-01-13T09:03:43.000Z</time>
      </trkpt>
      <trkpt lat="43.79226" lon="7.24781">
        <ele>677.59997558594</ele>
        <time>2022-01-13T09:03:47.000Z</time>
      </trkpt>
      <trkpt lat="43.79234" lon="7.24782">
        <ele>678.59997558594</ele>
        <time>2022-01-13T09:03:51.000Z</time>
      </trkpt>
      <trkpt lat="43.79236" lon="7.24783">
        <ele>678.79998779297</ele>
        <time>2022-01-13T09:03:52.000Z</time>
      </trkpt>
      <trkpt lat="43.79244" lon="7.24783">
        <ele>679.79998779297</ele>
        <time>2022-01-13T09:03:56.000Z</time>
      </trkpt>
      <trkpt lat="43.79249" lon="7.24784">
        <ele>680.20001220703</ele>
        <time>2022-01-13T09:03:59.000Z</time>
      </trkpt>
      <trkpt lat="43.79255" lon="7.24786">
        <ele>681</ele>
        <time>2022-01-13T09:04:02.000Z</time>
      </trkpt>
      <trkpt lat="43.79259" lon="7.24786">
        <ele>681.59997558594</ele>
        <time>2022-01-13T09:04:05.000Z</time>
      </trkpt>
      <trkpt lat="43.7926" lon="7.24786">
        <ele>682</ele>
        <time>2022-01-13T09:04:06.000Z</time>
      </trkpt>
      <trkpt lat="43.79267" lon="7.24787">
        <ele>683</ele>
        <time>2022-01-13T09:04:10.000Z</time>
      </trkpt>
      <trkpt lat="43.7927" lon="7.24787">
        <ele>683.40002441406</ele>
        <time>2022-01-13T09:04:11.000Z</time>
      </trkpt>
      <trkpt lat="43.79278" lon="7.24788">
        <ele>684.20001220703</ele>
        <time>2022-01-13T09:04:15.000Z</time>
      </trkpt>
      <trkpt lat="43.79282" lon="7.2479">
        <ele>684.79998779297</ele>
        <time>2022-01-13T09:04:17.000Z</time>
      </trkpt>
      <trkpt lat="43.79286" lon="7.24792">
        <ele>685.59997558594</ele>
        <time>2022-01-13T09:04:19.000Z</time>
      </trkpt>
      <trkpt lat="43.79285" lon="7.24792">
        <ele>686.59997558594</ele>
        <time>2022-01-13T09:04:21.000Z</time>
      </trkpt>
      <trkpt lat="43.79285" lon="7.24793">
        <ele>687.20001220703</ele>
        <time>2022-01-13T09:04:22.000Z</time>
      </trkpt>
      <trkpt lat="43.79285" lon="7.24793">
        <ele>688</ele>
        <time>2022-01-13T09:04:24.000Z</time>
      </trkpt>
      <trkpt lat="43.79287" lon="7.24794">
        <ele>688.20001220703</ele>
        <time>2022-01-13T09:04:25.000Z</time>
      </trkpt>
      <trkpt lat="43.79291" lon="7.24799">
        <ele>688.20001220703</ele>
        <time>2022-01-13T09:04:28.000Z</time>
      </trkpt>
      <trkpt lat="43.79296" lon="7.24808">
        <ele>689</ele>
        <time>2022-01-13T09:04:33.000Z</time>
      </trkpt>
      <trkpt lat="43.79298" lon="7.24812">
        <ele>689</ele>
        <time>2022-01-13T09:04:35.000Z</time>
      </trkpt>
      <trkpt lat="43.79308" lon="7.2482">
        <ele>689.40002441406</ele>
        <time>2022-01-13T09:04:41.000Z</time>
      </trkpt>
      <trkpt lat="43.79322" lon="7.24827">
        <ele>690.20001220703</ele>
        <time>2022-01-13T09:04:48.000Z</time>
      </trkpt>
      <trkpt lat="43.79329" lon="7.2483">
        <ele>690.59997558594</ele>
        <time>2022-01-13T09:04:52.000Z</time>
      </trkpt>
      <trkpt lat="43.79331" lon="7.24835">
        <ele>690.79998779297</ele>
        <time>2022-01-13T09:04:53.000Z</time>
      </trkpt>
      <trkpt lat="43.79339" lon="7.24836">
        <ele>690.59997558594</ele>
        <time>2022-01-13T09:04:56.000Z</time>
      </trkpt>
      <trkpt lat="43.79341" lon="7.24836">
        <ele>690.59997558594</ele>
        <time>2022-01-13T09:04:57.000Z</time>
      </trkpt>
      <trkpt lat="43.79348" lon="7.24836">
        <ele>691.40002441406</ele>
        <time>2022-01-13T09:05:00.000Z</time>
      </trkpt>
      <trkpt lat="43.79352" lon="7.24837">
        <ele>692.40002441406</ele>
        <time>2022-01-13T09:05:02.000Z</time>
      </trkpt>
      <trkpt lat="43.79357" lon="7.24836">
        <ele>693.59997558594</ele>
        <time>2022-01-13T09:05:05.000Z</time>
      </trkpt>
      <trkpt lat="43.79364" lon="7.24838">
        <ele>694.59997558594</ele>
        <time>2022-01-13T09:05:09.000Z</time>
      </trkpt>
      <trkpt lat="43.79367" lon="7.24839">
        <ele>694.59997558594</ele>
        <time>2022-01-13T09:05:10.000Z</time>
      </trkpt>
      <trkpt lat="43.79373" lon="7.24841">
        <ele>694.40002441406</ele>
        <time>2022-01-13T09:05:13.000Z</time>
      </trkpt>
      <trkpt lat="43.79385" lon="7.24844">
        <ele>694</ele>
        <time>2022-01-13T09:05:17.000Z</time>
      </trkpt>
      <trkpt lat="43.7941" lon="7.24855">
        <ele>693.20001220703</ele>
        <time>2022-01-13T09:05:25.000Z</time>
      </trkpt>
      <trkpt lat="43.79436" lon="7.24869">
        <ele>693.20001220703</ele>
        <time>2022-01-13T09:05:33.000Z</time>
      </trkpt>
      <trkpt lat="43.79463" lon="7.24882">
        <ele>694.20001220703</ele>
        <time>2022-01-13T09:05:43.000Z</time>
      </trkpt>
      <trkpt lat="43.79472" lon="7.24885">
        <ele>694.79998779297</ele>
        <time>2022-01-13T09:05:46.000Z</time>
      </trkpt>
      <trkpt lat="43.79487" lon="7.24891">
        <ele>695.59997558594</ele>
        <time>2022-01-13T09:05:51.000Z</time>
      </trkpt>
      <trkpt lat="43.79493" lon="7.24894">
        <ele>695.79998779297</ele>
        <time>2022-01-13T09:05:53.000Z</time>
      </trkpt>
      <trkpt lat="43.79514" lon="7.24899">
        <ele>696.79998779297</ele>
        <time>2022-01-13T09:06:00.000Z</time>
      </trkpt>
      <trkpt lat="43.79517" lon="7.24899">
        <ele>697</ele>
        <time>2022-01-13T09:06:01.000Z</time>
      </trkpt>
      <trkpt lat="43.79534" lon="7.24902">
        <ele>698.20001220703</ele>
        <time>2022-01-13T09:06:07.000Z</time>
      </trkpt>
      <trkpt lat="43.79537" lon="7.24902">
        <ele>698.40002441406</ele>
        <time>2022-01-13T09:06:08.000Z</time>
      </trkpt>
      <trkpt lat="43.79562" lon="7.24902">
        <ele>699.20001220703</ele>
        <time>2022-01-13T09:06:16.000Z</time>
      </trkpt>
      <trkpt lat="43.79585" lon="7.24905">
        <ele>700.40002441406</ele>
        <time>2022-01-13T09:06:24.000Z</time>
      </trkpt>
      <trkpt lat="43.7959" lon="7.24906">
        <ele>700.79998779297</ele>
        <time>2022-01-13T09:06:26.000Z</time>
      </trkpt>
      <trkpt lat="43.79598" lon="7.24906">
        <ele>701.40002441406</ele>
        <time>2022-01-13T09:06:29.000Z</time>
      </trkpt>
      <trkpt lat="43.79609" lon="7.24904">
        <ele>702.20001220703</ele>
        <time>2022-01-13T09:06:33.000Z</time>
      </trkpt>
      <trkpt lat="43.79613" lon="7.24904">
        <ele>702.59997558594</ele>
        <time>2022-01-13T09:06:35.000Z</time>
      </trkpt>
      <trkpt lat="43.79622" lon="7.24902">
        <ele>704</ele>
        <time>2022-01-13T09:06:39.000Z</time>
      </trkpt>
      <trkpt lat="43.79627" lon="7.24901">
        <ele>704.59997558594</ele>
        <time>2022-01-13T09:06:41.000Z</time>
      </trkpt>
      <trkpt lat="43.79631" lon="7.24901">
        <ele>705</ele>
        <time>2022-01-13T09:06:43.000Z</time>
      </trkpt>
      <trkpt lat="43.79639" lon="7.24897">
        <ele>706</ele>
        <time>2022-01-13T09:06:47.000Z</time>
      </trkpt>
      <trkpt lat="43.79641" lon="7.24895">
        <ele>706.40002441406</ele>
        <time>2022-01-13T09:06:48.000Z</time>
      </trkpt>
      <trkpt lat="43.79648" lon="7.24889">
        <ele>707.40002441406</ele>
        <time>2022-01-13T09:06:52.000Z</time>
      </trkpt>
      <trkpt lat="43.79656" lon="7.24882">
        <ele>708.20001220703</ele>
        <time>2022-01-13T09:06:56.000Z</time>
      </trkpt>
      <trkpt lat="43.79658" lon="7.2488">
        <ele>708.40002441406</ele>
        <time>2022-01-13T09:06:57.000Z</time>
      </trkpt>
      <trkpt lat="43.79667" lon="7.24874">
        <ele>709.59997558594</ele>
        <time>2022-01-13T09:07:01.000Z</time>
      </trkpt>
      <trkpt lat="43.79669" lon="7.24872">
        <ele>710</ele>
        <time>2022-01-13T09:07:02.000Z</time>
      </trkpt>
      <trkpt lat="43.79673" lon="7.24868">
        <ele>710.79998779297</ele>
        <time>2022-01-13T09:07:04.000Z</time>
      </trkpt>
      <trkpt lat="43.79678" lon="7.24862">
        <ele>711.79998779297</ele>
        <time>2022-01-13T09:07:07.000Z</time>
      </trkpt>
      <trkpt lat="43.79685" lon="7.24853">
        <ele>713.20001220703</ele>
        <time>2022-01-13T09:07:11.000Z</time>
      </trkpt>
      <trkpt lat="43.79693" lon="7.24844">
        <ele>714.20001220703</ele>
        <time>2022-01-13T09:07:15.000Z</time>
      </trkpt>
      <trkpt lat="43.797" lon="7.24836">
        <ele>715.20001220703</ele>
        <time>2022-01-13T09:07:19.000Z</time>
      </trkpt>
      <trkpt lat="43.79702" lon="7.24834">
        <ele>715.40002441406</ele>
        <time>2022-01-13T09:07:20.000Z</time>
      </trkpt>
      <trkpt lat="43.79709" lon="7.24827">
        <ele>716.59997558594</ele>
        <time>2022-01-13T09:07:24.000Z</time>
      </trkpt>
      <trkpt lat="43.79716" lon="7.24819">
        <ele>717.40002441406</ele>
        <time>2022-01-13T09:07:28.000Z</time>
      </trkpt>
      <trkpt lat="43.79719" lon="7.24815">
        <ele>717.79998779297</ele>
        <time>2022-01-13T09:07:30.000Z</time>
      </trkpt>
      <trkpt lat="43.79729" lon="7.24807">
        <ele>718.79998779297</ele>
        <time>2022-01-13T09:07:35.000Z</time>
      </trkpt>
      <trkpt lat="43.79731" lon="7.24805">
        <ele>719</ele>
        <time>2022-01-13T09:07:36.000Z</time>
      </trkpt>
      <trkpt lat="43.79741" lon="7.24799">
        <ele>720</ele>
        <time>2022-01-13T09:07:41.000Z</time>
      </trkpt>
      <trkpt lat="43.79744" lon="7.24798">
        <ele>720.20001220703</ele>
        <time>2022-01-13T09:07:42.000Z</time>
      </trkpt>
      <trkpt lat="43.7975" lon="7.24795">
        <ele>721</ele>
        <time>2022-01-13T09:07:45.000Z</time>
      </trkpt>
      <trkpt lat="43.79759" lon="7.24791">
        <ele>722</ele>
        <time>2022-01-13T09:07:49.000Z</time>
      </trkpt>
      <trkpt lat="43.79766" lon="7.24788">
        <ele>722.79998779297</ele>
        <time>2022-01-13T09:07:52.000Z</time>
      </trkpt>
      <trkpt lat="43.7977" lon="7.24786">
        <ele>723.20001220703</ele>
        <time>2022-01-13T09:07:54.000Z</time>
      </trkpt>
      <trkpt lat="43.79781" lon="7.2478">
        <ele>724.20001220703</ele>
        <time>2022-01-13T09:07:59.000Z</time>
      </trkpt>
      <trkpt lat="43.79783" lon="7.24779">
        <ele>724.40002441406</ele>
        <time>2022-01-13T09:08:00.000Z</time>
      </trkpt>
      <trkpt lat="43.79802" lon="7.24764">
        <ele>724.79998779297</ele>
        <time>2022-01-13T09:08:08.000Z</time>
      </trkpt>
      <trkpt lat="43.79812" lon="7.24756">
        <ele>725</ele>
        <time>2022-01-13T09:08:14.000Z</time>
      </trkpt>
      <trkpt lat="43.79813" lon="7.24755">
        <ele>725.20001220703</ele>
        <time>2022-01-13T09:08:15.000Z</time>
      </trkpt>
      <trkpt lat="43.79816" lon="7.24753">
        <ele>725.20001220703</ele>
        <time>2022-01-13T09:08:17.000Z</time>
      </trkpt>
      <trkpt lat="43.79818" lon="7.24749">
        <ele>725.40002441406</ele>
        <time>2022-01-13T09:08:19.000Z</time>
      </trkpt>
      <trkpt lat="43.79822" lon="7.24744">
        <ele>725.40002441406</ele>
        <time>2022-01-13T09:08:22.000Z</time>
      </trkpt>
      <trkpt lat="43.79829" lon="7.24734">
        <ele>725.79998779297</ele>
        <time>2022-01-13T09:08:27.000Z</time>
      </trkpt>
      <trkpt lat="43.79839" lon="7.24718">
        <ele>726.20001220703</ele>
        <time>2022-01-13T09:08:33.000Z</time>
      </trkpt>
      <trkpt lat="43.79843" lon="7.24713">
        <ele>726.59997558594</ele>
        <time>2022-01-13T09:08:35.000Z</time>
      </trkpt>
      <trkpt lat="43.79852" lon="7.24704">
        <ele>727.40002441406</ele>
        <time>2022-01-13T09:08:39.000Z</time>
      </trkpt>
      <trkpt lat="43.79854" lon="7.24702">
        <ele>727.59997558594</ele>
        <time>2022-01-13T09:08:40.000Z</time>
      </trkpt>
      <trkpt lat="43.79858" lon="7.24697">
        <ele>728.59997558594</ele>
        <time>2022-01-13T09:08:42.000Z</time>
      </trkpt>
      <trkpt lat="43.79867" lon="7.24689">
        <ele>729.59997558594</ele>
        <time>2022-01-13T09:08:46.000Z</time>
      </trkpt>
      <trkpt lat="43.79869" lon="7.24688">
        <ele>729.79998779297</ele>
        <time>2022-01-13T09:08:47.000Z</time>
      </trkpt>
      <trkpt lat="43.79877" lon="7.24684">
        <ele>730.79998779297</ele>
        <time>2022-01-13T09:08:50.000Z</time>
      </trkpt>
      <trkpt lat="43.79885" lon="7.24679">
        <ele>731.59997558594</ele>
        <time>2022-01-13T09:08:53.000Z</time>
      </trkpt>
      <trkpt lat="43.79887" lon="7.24678">
        <ele>731.79998779297</ele>
        <time>2022-01-13T09:08:54.000Z</time>
      </trkpt>
      <trkpt lat="43.79901" lon="7.24665">
        <ele>732.59997558594</ele>
        <time>2022-01-13T09:09:00.000Z</time>
      </trkpt>
      <trkpt lat="43.79905" lon="7.24661">
        <ele>732.79998779297</ele>
        <time>2022-01-13T09:09:02.000Z</time>
      </trkpt>
      <trkpt lat="43.79913" lon="7.24647">
        <ele>733.79998779297</ele>
        <time>2022-01-13T09:09:07.000Z</time>
      </trkpt>
      <trkpt lat="43.79924" lon="7.24632">
        <ele>735</ele>
        <time>2022-01-13T09:09:13.000Z</time>
      </trkpt>
      <trkpt lat="43.79933" lon="7.24617">
        <ele>736.20001220703</ele>
        <time>2022-01-13T09:09:18.000Z</time>
      </trkpt>
      <trkpt lat="43.79937" lon="7.24607">
        <ele>737.20001220703</ele>
        <time>2022-01-13T09:09:21.000Z</time>
      </trkpt>
      <trkpt lat="43.79938" lon="7.24603">
        <ele>737.40002441406</ele>
        <time>2022-01-13T09:09:22.000Z</time>
      </trkpt>
      <trkpt lat="43.79943" lon="7.24579">
        <ele>738.59997558594</ele>
        <time>2022-01-13T09:09:28.000Z</time>
      </trkpt>
      <trkpt lat="43.79944" lon="7.24575">
        <ele>738.59997558594</ele>
        <time>2022-01-13T09:09:29.000Z</time>
      </trkpt>
      <trkpt lat="43.79952" lon="7.24553">
        <ele>739.59997558594</ele>
        <time>2022-01-13T09:09:35.000Z</time>
      </trkpt>
      <trkpt lat="43.79954" lon="7.24549">
        <ele>739.79998779297</ele>
        <time>2022-01-13T09:09:36.000Z</time>
      </trkpt>
      <trkpt lat="43.79965" lon="7.2454">
        <ele>740.59997558594</ele>
        <time>2022-01-13T09:09:40.000Z</time>
      </trkpt>
      <trkpt lat="43.79968" lon="7.24539">
        <ele>741</ele>
        <time>2022-01-13T09:09:41.000Z</time>
      </trkpt>
      <trkpt lat="43.7998" lon="7.24538">
        <ele>741.79998779297</ele>
        <time>2022-01-13T09:09:45.000Z</time>
      </trkpt>
      <trkpt lat="43.79986" lon="7.24539">
        <ele>742.40002441406</ele>
        <time>2022-01-13T09:09:47.000Z</time>
      </trkpt>
      <trkpt lat="43.79994" lon="7.2454">
        <ele>743</ele>
        <time>2022-01-13T09:09:50.000Z</time>
      </trkpt>
      <trkpt lat="43.80002" lon="7.24541">
        <ele>744</ele>
        <time>2022-01-13T09:09:54.000Z</time>
      </trkpt>
      <trkpt lat="43.80005" lon="7.24542">
        <ele>744.40002441406</ele>
        <time>2022-01-13T09:09:55.000Z</time>
      </trkpt>
      <trkpt lat="43.80011" lon="7.24543">
        <ele>745.40002441406</ele>
        <time>2022-01-13T09:09:58.000Z</time>
      </trkpt>
      <trkpt lat="43.80018" lon="7.24546">
        <ele>746.40002441406</ele>
        <time>2022-01-13T09:10:02.000Z</time>
      </trkpt>
      <trkpt lat="43.80031" lon="7.24552">
        <ele>747.59997558594</ele>
        <time>2022-01-13T09:10:09.000Z</time>
      </trkpt>
      <trkpt lat="43.80037" lon="7.24542">
        <ele>748.40002441406</ele>
        <time>2022-01-13T09:10:13.000Z</time>
      </trkpt>
      <trkpt lat="43.80037" lon="7.24539">
        <ele>748.40002441406</ele>
        <time>2022-01-13T09:10:14.000Z</time>
      </trkpt>
      <trkpt lat="43.80038" lon="7.24535">
        <ele>748.79998779297</ele>
        <time>2022-01-13T09:10:15.000Z</time>
      </trkpt>
      <trkpt lat="43.80041" lon="7.24525">
        <ele>750</ele>
        <time>2022-01-13T09:10:18.000Z</time>
      </trkpt>
      <trkpt lat="43.80043" lon="7.24522">
        <ele>750.40002441406</ele>
        <time>2022-01-13T09:10:19.000Z</time>
      </trkpt>
      <trkpt lat="43.80045" lon="7.24516">
        <ele>751.20001220703</ele>
        <time>2022-01-13T09:10:21.000Z</time>
      </trkpt>
      <trkpt lat="43.80052" lon="7.24502">
        <ele>752.20001220703</ele>
        <time>2022-01-13T09:10:26.000Z</time>
      </trkpt>
      <trkpt lat="43.80055" lon="7.24496">
        <ele>752.79998779297</ele>
        <time>2022-01-13T09:10:28.000Z</time>
      </trkpt>
      <trkpt lat="43.8006" lon="7.24486">
        <ele>753.40002441406</ele>
        <time>2022-01-13T09:10:32.000Z</time>
      </trkpt>
      <trkpt lat="43.80062" lon="7.24483">
        <ele>753.59997558594</ele>
        <time>2022-01-13T09:10:33.000Z</time>
      </trkpt>
      <trkpt lat="43.80067" lon="7.24471">
        <ele>754.59997558594</ele>
        <time>2022-01-13T09:10:38.000Z</time>
      </trkpt>
      <trkpt lat="43.80067" lon="7.24468">
        <ele>754.79998779297</ele>
        <time>2022-01-13T09:10:39.000Z</time>
      </trkpt>
      <trkpt lat="43.80068" lon="7.24458">
        <ele>755</ele>
        <time>2022-01-13T09:10:45.000Z</time>
      </trkpt>
      <trkpt lat="43.80069" lon="7.24458">
        <ele>755</ele>
        <time>2022-01-13T09:10:59.000Z</time>
      </trkpt>
      <trkpt lat="43.80069" lon="7.24458">
        <ele>754.79998779297</ele>
        <time>2022-01-13T09:11:22.000Z</time>
      </trkpt>
      <trkpt lat="43.80069" lon="7.24458">
        <ele>754.59997558594</ele>
        <time>2022-01-13T09:11:46.000Z</time>
      </trkpt>
      <trkpt lat="43.80069" lon="7.24459">
        <ele>754.59997558594</ele>
        <time>2022-01-13T09:12:10.000Z</time>
      </trkpt>
      <trkpt lat="43.8007" lon="7.24459">
        <ele>754.59997558594</ele>
        <time>2022-01-13T09:12:41.000Z</time>
      </trkpt>
      <trkpt lat="43.8007" lon="7.24458">
        <ele>754.79998779297</ele>
        <time>2022-01-13T09:13:04.000Z</time>
      </trkpt>
      <trkpt lat="43.80071" lon="7.24457">
        <ele>754.59997558594</ele>
        <time>2022-01-13T09:13:17.000Z</time>
      </trkpt>
      <trkpt lat="43.80071" lon="7.24456">
        <ele>754.79998779297</ele>
        <time>2022-01-13T09:13:45.000Z</time>
      </trkpt>
      <trkpt lat="43.80071" lon="7.24456">
        <ele>754.79998779297</ele>
        <time>2022-01-13T09:14:04.000Z</time>
      </trkpt>
      <trkpt lat="43.80071" lon="7.24456">
        <ele>754.79998779297</ele>
        <time>2022-01-13T09:14:14.000Z</time>
      </trkpt>
      <trkpt lat="43.80074" lon="7.24448">
        <ele>754.79998779297</ele>
        <time>2022-01-13T09:14:23.000Z</time>
      </trkpt>
      <trkpt lat="43.80079" lon="7.24436">
        <ele>754.59997558594</ele>
        <time>2022-01-13T09:14:27.000Z</time>
      </trkpt>
      <trkpt lat="43.80085" lon="7.24426">
        <ele>753.79998779297</ele>
        <time>2022-01-13T09:14:31.000Z</time>
      </trkpt>
      <trkpt lat="43.80085" lon="7.24423">
        <ele>753</ele>
        <time>2022-01-13T09:14:32.000Z</time>
      </trkpt>
      <trkpt lat="43.80085" lon="7.24424">
        <ele>752.20001220703</ele>
        <time>2022-01-13T09:14:34.000Z</time>
      </trkpt>
      <trkpt lat="43.80085" lon="7.24423">
        <ele>751.20001220703</ele>
        <time>2022-01-13T09:14:35.000Z</time>
      </trkpt>
      <trkpt lat="43.80085" lon="7.24423">
        <ele>749.59997558594</ele>
        <time>2022-01-13T09:14:37.000Z</time>
      </trkpt>
      <trkpt lat="43.80085" lon="7.2442">
        <ele>749.20001220703</ele>
        <time>2022-01-13T09:14:38.000Z</time>
      </trkpt>
      <trkpt lat="43.80088" lon="7.24413">
        <ele>749</ele>
        <time>2022-01-13T09:14:41.000Z</time>
      </trkpt>
      <trkpt lat="43.8009" lon="7.2441">
        <ele>748.79998779297</ele>
        <time>2022-01-13T09:14:42.000Z</time>
      </trkpt>
      <trkpt lat="43.80097" lon="7.24409">
        <ele>747.59997558594</ele>
        <time>2022-01-13T09:14:44.000Z</time>
      </trkpt>
      <trkpt lat="43.80099" lon="7.24412">
        <ele>747.20001220703</ele>
        <time>2022-01-13T09:14:45.000Z</time>
      </trkpt>
      <trkpt lat="43.80103" lon="7.24416">
        <ele>746</ele>
        <time>2022-01-13T09:14:46.000Z</time>
      </trkpt>
      <trkpt lat="43.80106" lon="7.24419">
        <ele>744.40002441406</ele>
        <time>2022-01-13T09:14:47.000Z</time>
      </trkpt>
      <trkpt lat="43.80109" lon="7.24423">
        <ele>743.20001220703</ele>
        <time>2022-01-13T09:14:48.000Z</time>
      </trkpt>
      <trkpt lat="43.80111" lon="7.24427">
        <ele>742</ele>
        <time>2022-01-13T09:14:49.000Z</time>
      </trkpt>
      <trkpt lat="43.80115" lon="7.24435">
        <ele>740.79998779297</ele>
        <time>2022-01-13T09:14:52.000Z</time>
      </trkpt>
      <trkpt lat="43.80118" lon="7.24438">
        <ele>740.79998779297</ele>
        <time>2022-01-13T09:14:53.000Z</time>
      </trkpt>
      <trkpt lat="43.80124" lon="7.24444">
        <ele>739.40002441406</ele>
        <time>2022-01-13T09:14:56.000Z</time>
      </trkpt>
      <trkpt lat="43.80125" lon="7.24444">
        <ele>739</ele>
        <time>2022-01-13T09:14:57.000Z</time>
      </trkpt>
      <trkpt lat="43.80125" lon="7.24443">
        <ele>738.40002441406</ele>
        <time>2022-01-13T09:14:58.000Z</time>
      </trkpt>
      <trkpt lat="43.80126" lon="7.24441">
        <ele>737.79998779297</ele>
        <time>2022-01-13T09:14:59.000Z</time>
      </trkpt>
      <trkpt lat="43.80125" lon="7.24435">
        <ele>737.20001220703</ele>
        <time>2022-01-13T09:15:01.000Z</time>
      </trkpt>
      <trkpt lat="43.80125" lon="7.2443">
        <ele>736.59997558594</ele>
        <time>2022-01-13T09:15:02.000Z</time>
      </trkpt>
      <trkpt lat="43.80125" lon="7.24418">
        <ele>735.59997558594</ele>
        <time>2022-01-13T09:15:04.000Z</time>
      </trkpt>
      <trkpt lat="43.80124" lon="7.24414">
        <ele>734.59997558594</ele>
        <time>2022-01-13T09:15:05.000Z</time>
      </trkpt>
      <trkpt lat="43.80124" lon="7.24409">
        <ele>733.59997558594</ele>
        <time>2022-01-13T09:15:06.000Z</time>
      </trkpt>
      <trkpt lat="43.80123" lon="7.24404">
        <ele>732.59997558594</ele>
        <time>2022-01-13T09:15:07.000Z</time>
      </trkpt>
      <trkpt lat="43.80121" lon="7.24398">
        <ele>731.40002441406</ele>
        <time>2022-01-13T09:15:08.000Z</time>
      </trkpt>
      <trkpt lat="43.80121" lon="7.24392">
        <ele>730.79998779297</ele>
        <time>2022-01-13T09:15:09.000Z</time>
      </trkpt>
      <trkpt lat="43.80121" lon="7.24387">
        <ele>730.40002441406</ele>
        <time>2022-01-13T09:15:10.000Z</time>
      </trkpt>
      <trkpt lat="43.80119" lon="7.24381">
        <ele>729.79998779297</ele>
        <time>2022-01-13T09:15:11.000Z</time>
      </trkpt>
      <trkpt lat="43.80116" lon="7.24371">
        <ele>728.79998779297</ele>
        <time>2022-01-13T09:15:13.000Z</time>
      </trkpt>
      <trkpt lat="43.80114" lon="7.24366">
        <ele>727.79998779297</ele>
        <time>2022-01-13T09:15:14.000Z</time>
      </trkpt>
      <trkpt lat="43.80112" lon="7.24362">
        <ele>726.40002441406</ele>
        <time>2022-01-13T09:15:15.000Z</time>
      </trkpt>
      <trkpt lat="43.8011" lon="7.24357">
        <ele>725.40002441406</ele>
        <time>2022-01-13T09:15:16.000Z</time>
      </trkpt>
      <trkpt lat="43.8011" lon="7.24351">
        <ele>723.79998779297</ele>
        <time>2022-01-13T09:15:17.000Z</time>
      </trkpt>
      <trkpt lat="43.80111" lon="7.24347">
        <ele>722.20001220703</ele>
        <time>2022-01-13T09:15:18.000Z</time>
      </trkpt>
      <trkpt lat="43.80112" lon="7.24343">
        <ele>721.59997558594</ele>
        <time>2022-01-13T09:15:19.000Z</time>
      </trkpt>
      <trkpt lat="43.80111" lon="7.24337">
        <ele>721</ele>
        <time>2022-01-13T09:15:20.000Z</time>
      </trkpt>
      <trkpt lat="43.80112" lon="7.24323">
        <ele>719.59997558594</ele>
        <time>2022-01-13T09:15:22.000Z</time>
      </trkpt>
      <trkpt lat="43.80111" lon="7.24312">
        <ele>718.20001220703</ele>
        <time>2022-01-13T09:15:24.000Z</time>
      </trkpt>
      <trkpt lat="43.8011" lon="7.24308">
        <ele>716.79998779297</ele>
        <time>2022-01-13T09:15:25.000Z</time>
      </trkpt>
      <trkpt lat="43.8011" lon="7.24307">
        <ele>716.40002441406</ele>
        <time>2022-01-13T09:15:26.000Z</time>
      </trkpt>
      <trkpt lat="43.80116" lon="7.24302">
        <ele>714.79998779297</ele>
        <time>2022-01-13T09:15:28.000Z</time>
      </trkpt>
      <trkpt lat="43.80118" lon="7.24305">
        <ele>714.20001220703</ele>
        <time>2022-01-13T09:15:29.000Z</time>
      </trkpt>
      <trkpt lat="43.80119" lon="7.24307">
        <ele>713.59997558594</ele>
        <time>2022-01-13T09:15:30.000Z</time>
      </trkpt>
      <trkpt lat="43.80121" lon="7.2431">
        <ele>713.40002441406</ele>
        <time>2022-01-13T09:15:31.000Z</time>
      </trkpt>
      <trkpt lat="43.80126" lon="7.24315">
        <ele>712</ele>
        <time>2022-01-13T09:15:33.000Z</time>
      </trkpt>
      <trkpt lat="43.80131" lon="7.2432">
        <ele>710.59997558594</ele>
        <time>2022-01-13T09:15:35.000Z</time>
      </trkpt>
      <trkpt lat="43.80135" lon="7.24324">
        <ele>708.79998779297</ele>
        <time>2022-01-13T09:15:37.000Z</time>
      </trkpt>
      <trkpt lat="43.80138" lon="7.24326">
        <ele>708</ele>
        <time>2022-01-13T09:15:38.000Z</time>
      </trkpt>
      <trkpt lat="43.80139" lon="7.24328">
        <ele>707.20001220703</ele>
        <time>2022-01-13T09:15:39.000Z</time>
      </trkpt>
      <trkpt lat="43.80144" lon="7.24334">
        <ele>705.20001220703</ele>
        <time>2022-01-13T09:15:41.000Z</time>
      </trkpt>
      <trkpt lat="43.80149" lon="7.24339">
        <ele>703.79998779297</ele>
        <time>2022-01-13T09:15:43.000Z</time>
      </trkpt>
      <trkpt lat="43.80154" lon="7.24339">
        <ele>702.59997558594</ele>
        <time>2022-01-13T09:15:45.000Z</time>
      </trkpt>
      <trkpt lat="43.80156" lon="7.24335">
        <ele>702</ele>
        <time>2022-01-13T09:15:47.000Z</time>
      </trkpt>
      <trkpt lat="43.80165" lon="7.24326">
        <ele>703.20001220703</ele>
        <time>2022-01-13T09:15:53.000Z</time>
      </trkpt>
      <trkpt lat="43.80169" lon="7.24321">
        <ele>703.59997558594</ele>
        <time>2022-01-13T09:15:55.000Z</time>
      </trkpt>
      <trkpt lat="43.80172" lon="7.24317">
        <ele>703.79998779297</ele>
        <time>2022-01-13T09:15:57.000Z</time>
      </trkpt>
      <trkpt lat="43.80181" lon="7.24308">
        <ele>703.20001220703</ele>
        <time>2022-01-13T09:16:01.000Z</time>
      </trkpt>
      <trkpt lat="43.80192" lon="7.24296">
        <ele>703.20001220703</ele>
        <time>2022-01-13T09:16:06.000Z</time>
      </trkpt>
      <trkpt lat="43.802" lon="7.24288">
        <ele>703.20001220703</ele>
        <time>2022-01-13T09:16:11.000Z</time>
      </trkpt>
      <trkpt lat="43.80207" lon="7.24285">
        <ele>702.40002441406</ele>
        <time>2022-01-13T09:16:14.000Z</time>
      </trkpt>
      <trkpt lat="43.80215" lon="7.24279">
        <ele>702.40002441406</ele>
        <time>2022-01-13T09:16:17.000Z</time>
      </trkpt>
      <trkpt lat="43.80227" lon="7.2427">
        <ele>702.40002441406</ele>
        <time>2022-01-13T09:16:22.000Z</time>
      </trkpt>
      <trkpt lat="43.80238" lon="7.24264">
        <ele>702.20001220703</ele>
        <time>2022-01-13T09:16:27.000Z</time>
      </trkpt>
      <trkpt lat="43.80242" lon="7.24266">
        <ele>702</ele>
        <time>2022-01-13T09:16:30.000Z</time>
      </trkpt>
      <trkpt lat="43.80246" lon="7.24265">
        <ele>702.59997558594</ele>
        <time>2022-01-13T09:16:36.000Z</time>
      </trkpt>
      <trkpt lat="43.80247" lon="7.24264">
        <ele>702.59997558594</ele>
        <time>2022-01-13T09:16:37.000Z</time>
      </trkpt>
      <trkpt lat="43.80254" lon="7.24264">
        <ele>702.40002441406</ele>
        <time>2022-01-13T09:16:40.000Z</time>
      </trkpt>
      <trkpt lat="43.8026" lon="7.24264">
        <ele>701.40002441406</ele>
        <time>2022-01-13T09:16:43.000Z</time>
      </trkpt>
      <trkpt lat="43.80263" lon="7.24264">
        <ele>701.79998779297</ele>
        <time>2022-01-13T09:16:45.000Z</time>
      </trkpt>
      <trkpt lat="43.80267" lon="7.24264">
        <ele>702.79998779297</ele>
        <time>2022-01-13T09:16:50.000Z</time>
      </trkpt>
      <trkpt lat="43.80274" lon="7.24265">
        <ele>703</ele>
        <time>2022-01-13T09:16:54.000Z</time>
      </trkpt>
      <trkpt lat="43.80277" lon="7.24264">
        <ele>703.40002441406</ele>
        <time>2022-01-13T09:16:56.000Z</time>
      </trkpt>
      <trkpt lat="43.80282" lon="7.24263">
        <ele>703.40002441406</ele>
        <time>2022-01-13T09:16:58.000Z</time>
      </trkpt>
      <trkpt lat="43.80291" lon="7.24261">
        <ele>703.20001220703</ele>
        <time>2022-01-13T09:17:03.000Z</time>
      </trkpt>
      <trkpt lat="43.80293" lon="7.2426">
        <ele>703.40002441406</ele>
        <time>2022-01-13T09:17:04.000Z</time>
      </trkpt>
      <trkpt lat="43.80303" lon="7.24259">
        <ele>703.59997558594</ele>
        <time>2022-01-13T09:17:08.000Z</time>
      </trkpt>
      <trkpt lat="43.80307" lon="7.24258">
        <ele>704</ele>
        <time>2022-01-13T09:17:10.000Z</time>
      </trkpt>
      <trkpt lat="43.80317" lon="7.24258">
        <ele>704.20001220703</ele>
        <time>2022-01-13T09:17:14.000Z</time>
      </trkpt>
      <trkpt lat="43.80331" lon="7.2425">
        <ele>704.20001220703</ele>
        <time>2022-01-13T09:17:19.000Z</time>
      </trkpt>
      <trkpt lat="43.8034" lon="7.24245">
        <ele>702.79998779297</ele>
        <time>2022-01-13T09:17:22.000Z</time>
      </trkpt>
      <trkpt lat="43.80345" lon="7.24243">
        <ele>702</ele>
        <time>2022-01-13T09:17:24.000Z</time>
      </trkpt>
      <trkpt lat="43.80348" lon="7.24237">
        <ele>701.59997558594</ele>
        <time>2022-01-13T09:17:26.000Z</time>
      </trkpt>
      <trkpt lat="43.80354" lon="7.24233">
        <ele>701.20001220703</ele>
        <time>2022-01-13T09:17:28.000Z</time>
      </trkpt>
      <trkpt lat="43.80357" lon="7.2423">
        <ele>700.40002441406</ele>
        <time>2022-01-13T09:17:30.000Z</time>
      </trkpt>
      <trkpt lat="43.8036" lon="7.24228">
        <ele>700</ele>
        <time>2022-01-13T09:17:31.000Z</time>
      </trkpt>
      <trkpt lat="43.80362" lon="7.24227">
        <ele>699.20001220703</ele>
        <time>2022-01-13T09:17:32.000Z</time>
      </trkpt>
      <trkpt lat="43.80365" lon="7.24224">
        <ele>698.20001220703</ele>
        <time>2022-01-13T09:17:35.000Z</time>
      </trkpt>
      <trkpt lat="43.80367" lon="7.24222">
        <ele>698.20001220703</ele>
        <time>2022-01-13T09:17:36.000Z</time>
      </trkpt>
      <trkpt lat="43.80368" lon="7.24219">
        <ele>698.20001220703</ele>
        <time>2022-01-13T09:17:37.000Z</time>
      </trkpt>
      <trkpt lat="43.80373" lon="7.24215">
        <ele>698</ele>
        <time>2022-01-13T09:17:39.000Z</time>
      </trkpt>
      <trkpt lat="43.80377" lon="7.24211">
        <ele>697.79998779297</ele>
        <time>2022-01-13T09:17:41.000Z</time>
      </trkpt>
      <trkpt lat="43.80381" lon="7.24207">
        <ele>697.59997558594</ele>
        <time>2022-01-13T09:17:43.000Z</time>
      </trkpt>
      <trkpt lat="43.80388" lon="7.24194">
        <ele>697.59997558594</ele>
        <time>2022-01-13T09:17:48.000Z</time>
      </trkpt>
      <trkpt lat="43.80389" lon="7.24194">
        <ele>697.79998779297</ele>
        <time>2022-01-13T09:17:49.000Z</time>
      </trkpt>
      <trkpt lat="43.80393" lon="7.24191">
        <ele>698</ele>
        <time>2022-01-13T09:17:52.000Z</time>
      </trkpt>
      <trkpt lat="43.80398" lon="7.24185">
        <ele>699</ele>
        <time>2022-01-13T09:17:55.000Z</time>
      </trkpt>
      <trkpt lat="43.80399" lon="7.24183">
        <ele>699.59997558594</ele>
        <time>2022-01-13T09:17:56.000Z</time>
      </trkpt>
      <trkpt lat="43.804" lon="7.24183">
        <ele>700.59997558594</ele>
        <time>2022-01-13T09:18:00.000Z</time>
      </trkpt>
      <trkpt lat="43.804" lon="7.24183">
        <ele>700.59997558594</ele>
        <time>2022-01-13T09:18:01.000Z</time>
      </trkpt>
      <trkpt lat="43.804" lon="7.24182">
        <ele>700.20001220703</ele>
        <time>2022-01-13T09:18:08.000Z</time>
      </trkpt>
      <trkpt lat="43.80401" lon="7.24181">
        <ele>699.59997558594</ele>
        <time>2022-01-13T09:18:13.000Z</time>
      </trkpt>
      <trkpt lat="43.80401" lon="7.24181">
        <ele>700</ele>
        <time>2022-01-13T09:18:16.000Z</time>
      </trkpt>
      <trkpt lat="43.80405" lon="7.24176">
        <ele>700.40002441406</ele>
        <time>2022-01-13T09:18:24.000Z</time>
      </trkpt>
      <trkpt lat="43.80421" lon="7.24164">
        <ele>699.59997558594</ele>
        <time>2022-01-13T09:18:29.000Z</time>
      </trkpt>
      <trkpt lat="43.8043" lon="7.24154">
        <ele>698</ele>
        <time>2022-01-13T09:18:32.000Z</time>
      </trkpt>
      <trkpt lat="43.80433" lon="7.24151">
        <ele>697.20001220703</ele>
        <time>2022-01-13T09:18:33.000Z</time>
      </trkpt>
      <trkpt lat="43.80435" lon="7.24148">
        <ele>696.20001220703</ele>
        <time>2022-01-13T09:18:34.000Z</time>
      </trkpt>
      <trkpt lat="43.8044" lon="7.24141">
        <ele>694.59997558594</ele>
        <time>2022-01-13T09:18:36.000Z</time>
      </trkpt>
      <trkpt lat="43.80445" lon="7.24131">
        <ele>693.20001220703</ele>
        <time>2022-01-13T09:18:38.000Z</time>
      </trkpt>
      <trkpt lat="43.8045" lon="7.2412">
        <ele>691.79998779297</ele>
        <time>2022-01-13T09:18:40.000Z</time>
      </trkpt>
      <trkpt lat="43.80454" lon="7.24111">
        <ele>690.59997558594</ele>
        <time>2022-01-13T09:18:42.000Z</time>
      </trkpt>
      <trkpt lat="43.80456" lon="7.24107">
        <ele>689.20001220703</ele>
        <time>2022-01-13T09:18:43.000Z</time>
      </trkpt>
      <trkpt lat="43.80461" lon="7.24101">
        <ele>687.59997558594</ele>
        <time>2022-01-13T09:18:45.000Z</time>
      </trkpt>
      <trkpt lat="43.80465" lon="7.24094">
        <ele>686</ele>
        <time>2022-01-13T09:18:47.000Z</time>
      </trkpt>
      <trkpt lat="43.80467" lon="7.2409">
        <ele>684.79998779297</ele>
        <time>2022-01-13T09:18:48.000Z</time>
      </trkpt>
      <trkpt lat="43.8047" lon="7.24086">
        <ele>684</ele>
        <time>2022-01-13T09:18:49.000Z</time>
      </trkpt>
      <trkpt lat="43.80473" lon="7.24081">
        <ele>683.20001220703</ele>
        <time>2022-01-13T09:18:50.000Z</time>
      </trkpt>
      <trkpt lat="43.80476" lon="7.24075">
        <ele>682</ele>
        <time>2022-01-13T09:18:51.000Z</time>
      </trkpt>
      <trkpt lat="43.80479" lon="7.24069">
        <ele>681</ele>
        <time>2022-01-13T09:18:52.000Z</time>
      </trkpt>
      <trkpt lat="43.80483" lon="7.24062">
        <ele>679.79998779297</ele>
        <time>2022-01-13T09:18:53.000Z</time>
      </trkpt>
      <trkpt lat="43.80485" lon="7.24057">
        <ele>678.59997558594</ele>
        <time>2022-01-13T09:18:54.000Z</time>
      </trkpt>
      <trkpt lat="43.80488" lon="7.24051">
        <ele>677.40002441406</ele>
        <time>2022-01-13T09:18:55.000Z</time>
      </trkpt>
      <trkpt lat="43.80492" lon="7.24041">
        <ele>675.59997558594</ele>
        <time>2022-01-13T09:18:57.000Z</time>
      </trkpt>
      <trkpt lat="43.80494" lon="7.24036">
        <ele>674</ele>
        <time>2022-01-13T09:18:58.000Z</time>
      </trkpt>
      <trkpt lat="43.80495" lon="7.24031">
        <ele>672.79998779297</ele>
        <time>2022-01-13T09:18:59.000Z</time>
      </trkpt>
      <trkpt lat="43.80497" lon="7.24026">
        <ele>672</ele>
        <time>2022-01-13T09:19:00.000Z</time>
      </trkpt>
      <trkpt lat="43.80499" lon="7.2402">
        <ele>671.20001220703</ele>
        <time>2022-01-13T09:19:01.000Z</time>
      </trkpt>
      <trkpt lat="43.80503" lon="7.2401">
        <ele>670.20001220703</ele>
        <time>2022-01-13T09:19:03.000Z</time>
      </trkpt>
      <trkpt lat="43.80508" lon="7.23996">
        <ele>668.20001220703</ele>
        <time>2022-01-13T09:19:06.000Z</time>
      </trkpt>
      <trkpt lat="43.8051" lon="7.23992">
        <ele>667.20001220703</ele>
        <time>2022-01-13T09:19:07.000Z</time>
      </trkpt>
      <trkpt lat="43.80511" lon="7.23989">
        <ele>666</ele>
        <time>2022-01-13T09:19:08.000Z</time>
      </trkpt>
      <trkpt lat="43.80516" lon="7.23983">
        <ele>664.40002441406</ele>
        <time>2022-01-13T09:19:10.000Z</time>
      </trkpt>
      <trkpt lat="43.80522" lon="7.23977">
        <ele>662.20001220703</ele>
        <time>2022-01-13T09:19:12.000Z</time>
      </trkpt>
      <trkpt lat="43.80525" lon="7.23975">
        <ele>660.79998779297</ele>
        <time>2022-01-13T09:19:13.000Z</time>
      </trkpt>
      <trkpt lat="43.80527" lon="7.23974">
        <ele>659.59997558594</ele>
        <time>2022-01-13T09:19:14.000Z</time>
      </trkpt>
      <trkpt lat="43.8053" lon="7.23974">
        <ele>658.79998779297</ele>
        <time>2022-01-13T09:19:15.000Z</time>
      </trkpt>
      <trkpt lat="43.80532" lon="7.23977">
        <ele>657.59997558594</ele>
        <time>2022-01-13T09:19:16.000Z</time>
      </trkpt>
      <trkpt lat="43.80533" lon="7.23986">
        <ele>656.59997558594</ele>
        <time>2022-01-13T09:19:18.000Z</time>
      </trkpt>
      <trkpt lat="43.80536" lon="7.24002">
        <ele>655.40002441406</ele>
        <time>2022-01-13T09:19:21.000Z</time>
      </trkpt>
      <trkpt lat="43.80537" lon="7.24007">
        <ele>655.20001220703</ele>
        <time>2022-01-13T09:19:22.000Z</time>
      </trkpt>
      <trkpt lat="43.80538" lon="7.24012">
        <ele>655</ele>
        <time>2022-01-13T09:19:23.000Z</time>
      </trkpt>
      <trkpt lat="43.80542" lon="7.24021">
        <ele>654.40002441406</ele>
        <time>2022-01-13T09:19:25.000Z</time>
      </trkpt>
      <trkpt lat="43.80545" lon="7.24026">
        <ele>654</ele>
        <time>2022-01-13T09:19:26.000Z</time>
      </trkpt>
      <trkpt lat="43.80547" lon="7.24032">
        <ele>653.20001220703</ele>
        <time>2022-01-13T09:19:27.000Z</time>
      </trkpt>
      <trkpt lat="43.8055" lon="7.24038">
        <ele>652</ele>
        <time>2022-01-13T09:19:28.000Z</time>
      </trkpt>
      <trkpt lat="43.80552" lon="7.24042">
        <ele>650.79998779297</ele>
        <time>2022-01-13T09:19:29.000Z</time>
      </trkpt>
      <trkpt lat="43.80554" lon="7.24043">
        <ele>649.59997558594</ele>
        <time>2022-01-13T09:19:30.000Z</time>
      </trkpt>
      <trkpt lat="43.80559" lon="7.24038">
        <ele>648.59997558594</ele>
        <time>2022-01-13T09:19:32.000Z</time>
      </trkpt>
      <trkpt lat="43.80563" lon="7.24034">
        <ele>648.59997558594</ele>
        <time>2022-01-13T09:19:33.000Z</time>
      </trkpt>
      <trkpt lat="43.80572" lon="7.24023">
        <ele>649</ele>
        <time>2022-01-13T09:19:36.000Z</time>
      </trkpt>
      <trkpt lat="43.80581" lon="7.24011">
        <ele>649.59997558594</ele>
        <time>2022-01-13T09:19:40.000Z</time>
      </trkpt>
      <trkpt lat="43.80586" lon="7.24006">
        <ele>649.59997558594</ele>
        <time>2022-01-13T09:19:41.000Z</time>
      </trkpt>
      <trkpt lat="43.80593" lon="7.24">
        <ele>649.79998779297</ele>
        <time>2022-01-13T09:19:43.000Z</time>
      </trkpt>
      <trkpt lat="43.806" lon="7.23992">
        <ele>648.20001220703</ele>
        <time>2022-01-13T09:19:46.000Z</time>
      </trkpt>
      <trkpt lat="43.80604" lon="7.23989">
        <ele>646.20001220703</ele>
        <time>2022-01-13T09:19:48.000Z</time>
      </trkpt>
      <trkpt lat="43.80609" lon="7.23983">
        <ele>644.79998779297</ele>
        <time>2022-01-13T09:19:50.000Z</time>
      </trkpt>
      <trkpt lat="43.80615" lon="7.23977">
        <ele>643</ele>
        <time>2022-01-13T09:19:52.000Z</time>
      </trkpt>
      <trkpt lat="43.80621" lon="7.23971">
        <ele>641.59997558594</ele>
        <time>2022-01-13T09:19:54.000Z</time>
      </trkpt>
      <trkpt lat="43.80626" lon="7.23968">
        <ele>640.40002441406</ele>
        <time>2022-01-13T09:19:56.000Z</time>
      </trkpt>
      <trkpt lat="43.80632" lon="7.23961">
        <ele>638.79998779297</ele>
        <time>2022-01-13T09:19:59.000Z</time>
      </trkpt>
      <trkpt lat="43.80637" lon="7.23958">
        <ele>637.59997558594</ele>
        <time>2022-01-13T09:20:01.000Z</time>
      </trkpt>
      <trkpt lat="43.80642" lon="7.23954">
        <ele>636.20001220703</ele>
        <time>2022-01-13T09:20:03.000Z</time>
      </trkpt>
      <trkpt lat="43.80648" lon="7.23948">
        <ele>635</ele>
        <time>2022-01-13T09:20:05.000Z</time>
      </trkpt>
      <trkpt lat="43.80652" lon="7.23945">
        <ele>634.20001220703</ele>
        <time>2022-01-13T09:20:06.000Z</time>
      </trkpt>
      <trkpt lat="43.80656" lon="7.23941">
        <ele>633.20001220703</ele>
        <time>2022-01-13T09:20:07.000Z</time>
      </trkpt>
      <trkpt lat="43.80658" lon="7.23938">
        <ele>632.40002441406</ele>
        <time>2022-01-13T09:20:08.000Z</time>
      </trkpt>
      <trkpt lat="43.8066" lon="7.23935">
        <ele>631.20001220703</ele>
        <time>2022-01-13T09:20:09.000Z</time>
      </trkpt>
      <trkpt lat="43.80663" lon="7.23929">
        <ele>629.40002441406</ele>
        <time>2022-01-13T09:20:11.000Z</time>
      </trkpt>
      <trkpt lat="43.80667" lon="7.2392">
        <ele>629</ele>
        <time>2022-01-13T09:20:14.000Z</time>
      </trkpt>
      <trkpt lat="43.80668" lon="7.23913">
        <ele>629</ele>
        <time>2022-01-13T09:20:16.000Z</time>
      </trkpt>
      <trkpt lat="43.80669" lon="7.23904">
        <ele>628.40002441406</ele>
        <time>2022-01-13T09:20:18.000Z</time>
      </trkpt>
      <trkpt lat="43.80671" lon="7.23893">
        <ele>627.20001220703</ele>
        <time>2022-01-13T09:20:20.000Z</time>
      </trkpt>
      <trkpt lat="43.80672" lon="7.23889">
        <ele>626.40002441406</ele>
        <time>2022-01-13T09:20:21.000Z</time>
      </trkpt>
      <trkpt lat="43.80673" lon="7.23886">
        <ele>625.79998779297</ele>
        <time>2022-01-13T09:20:22.000Z</time>
      </trkpt>
      <trkpt lat="43.80676" lon="7.23886">
        <ele>624.79998779297</ele>
        <time>2022-01-13T09:20:23.000Z</time>
      </trkpt>
      <trkpt lat="43.80678" lon="7.23884">
        <ele>624.20001220703</ele>
        <time>2022-01-13T09:20:24.000Z</time>
      </trkpt>
      <trkpt lat="43.80681" lon="7.23881">
        <ele>623.79998779297</ele>
        <time>2022-01-13T09:20:25.000Z</time>
      </trkpt>
      <trkpt lat="43.80684" lon="7.23876">
        <ele>622.79998779297</ele>
        <time>2022-01-13T09:20:27.000Z</time>
      </trkpt>
      <trkpt lat="43.80688" lon="7.23876">
        <ele>621</ele>
        <time>2022-01-13T09:20:29.000Z</time>
      </trkpt>
      <trkpt lat="43.80691" lon="7.2388">
        <ele>619.20001220703</ele>
        <time>2022-01-13T09:20:31.000Z</time>
      </trkpt>
      <trkpt lat="43.80691" lon="7.2388">
        <ele>618.59997558594</ele>
        <time>2022-01-13T09:20:33.000Z</time>
      </trkpt>
      <trkpt lat="43.80693" lon="7.23884">
        <ele>618.59997558594</ele>
        <time>2022-01-13T09:20:40.000Z</time>
      </trkpt>
      <trkpt lat="43.80696" lon="7.23884">
        <ele>619.20001220703</ele>
        <time>2022-01-13T09:20:46.000Z</time>
      </trkpt>
      <trkpt lat="43.80704" lon="7.23881">
        <ele>619.79998779297</ele>
        <time>2022-01-13T09:20:52.000Z</time>
      </trkpt>
      <trkpt lat="43.80722" lon="7.23877">
        <ele>619.20001220703</ele>
        <time>2022-01-13T09:20:57.000Z</time>
      </trkpt>
      <trkpt lat="43.80729" lon="7.23875">
        <ele>618.20001220703</ele>
        <time>2022-01-13T09:21:00.000Z</time>
      </trkpt>
      <trkpt lat="43.80736" lon="7.23873">
        <ele>617.79998779297</ele>
        <time>2022-01-13T09:21:02.000Z</time>
      </trkpt>
      <trkpt lat="43.80752" lon="7.23873">
        <ele>617</ele>
        <time>2022-01-13T09:21:06.000Z</time>
      </trkpt>
      <trkpt lat="43.8076" lon="7.23872">
        <ele>616.59997558594</ele>
        <time>2022-01-13T09:21:08.000Z</time>
      </trkpt>
      <trkpt lat="43.80767" lon="7.23869">
        <ele>615.40002441406</ele>
        <time>2022-01-13T09:21:10.000Z</time>
      </trkpt>
      <trkpt lat="43.8077" lon="7.23866">
        <ele>614.40002441406</ele>
        <time>2022-01-13T09:21:12.000Z</time>
      </trkpt>
      <trkpt lat="43.8077" lon="7.23864">
        <ele>614</ele>
        <time>2022-01-13T09:21:13.000Z</time>
      </trkpt>
      <trkpt lat="43.80773" lon="7.23857">
        <ele>613.20001220703</ele>
        <time>2022-01-13T09:21:15.000Z</time>
      </trkpt>
      <trkpt lat="43.80774" lon="7.23855">
        <ele>612.59997558594</ele>
        <time>2022-01-13T09:21:16.000Z</time>
      </trkpt>
      <trkpt lat="43.80774" lon="7.23852">
        <ele>611.79998779297</ele>
        <time>2022-01-13T09:21:17.000Z</time>
      </trkpt>
      <trkpt lat="43.80772" lon="7.23846">
        <ele>610</ele>
        <time>2022-01-13T09:21:19.000Z</time>
      </trkpt>
      <trkpt lat="43.80775" lon="7.2384">
        <ele>608.20001220703</ele>
        <time>2022-01-13T09:21:21.000Z</time>
      </trkpt>
      <trkpt lat="43.80777" lon="7.23837">
        <ele>607.20001220703</ele>
        <time>2022-01-13T09:21:22.000Z</time>
      </trkpt>
      <trkpt lat="43.80777" lon="7.2383">
        <ele>605.40002441406</ele>
        <time>2022-01-13T09:21:24.000Z</time>
      </trkpt>
      <trkpt lat="43.80776" lon="7.23826">
        <ele>604.40002441406</ele>
        <time>2022-01-13T09:21:25.000Z</time>
      </trkpt>
      <trkpt lat="43.80775" lon="7.23824">
        <ele>603.79998779297</ele>
        <time>2022-01-13T09:21:26.000Z</time>
      </trkpt>
      <trkpt lat="43.80773" lon="7.23822">
        <ele>603</ele>
        <time>2022-01-13T09:21:27.000Z</time>
      </trkpt>
      <trkpt lat="43.80771" lon="7.23821">
        <ele>602.40002441406</ele>
        <time>2022-01-13T09:21:28.000Z</time>
      </trkpt>
      <trkpt lat="43.80767" lon="7.23816">
        <ele>601.40002441406</ele>
        <time>2022-01-13T09:21:30.000Z</time>
      </trkpt>
      <trkpt lat="43.80768" lon="7.23814">
        <ele>601</ele>
        <time>2022-01-13T09:21:31.000Z</time>
      </trkpt>
      <trkpt lat="43.80772" lon="7.23812">
        <ele>599.40002441406</ele>
        <time>2022-01-13T09:21:33.000Z</time>
      </trkpt>
      <trkpt lat="43.80773" lon="7.23808">
        <ele>599.79998779297</ele>
        <time>2022-01-13T09:21:35.000Z</time>
      </trkpt>
      <trkpt lat="43.80773" lon="7.23801">
        <ele>597.59997558594</ele>
        <time>2022-01-13T09:21:37.000Z</time>
      </trkpt>
      <trkpt lat="43.80771" lon="7.23795">
        <ele>595.59997558594</ele>
        <time>2022-01-13T09:21:39.000Z</time>
      </trkpt>
      <trkpt lat="43.80772" lon="7.23793">
        <ele>594.79998779297</ele>
        <time>2022-01-13T09:21:40.000Z</time>
      </trkpt>
      <trkpt lat="43.80773" lon="7.2379">
        <ele>593.79998779297</ele>
        <time>2022-01-13T09:21:41.000Z</time>
      </trkpt>
      <trkpt lat="43.80774" lon="7.23788">
        <ele>592.79998779297</ele>
        <time>2022-01-13T09:21:42.000Z</time>
      </trkpt>
      <trkpt lat="43.80773" lon="7.23786">
        <ele>592</ele>
        <time>2022-01-13T09:21:43.000Z</time>
      </trkpt>
      <trkpt lat="43.80772" lon="7.23784">
        <ele>591.20001220703</ele>
        <time>2022-01-13T09:21:44.000Z</time>
      </trkpt>
      <trkpt lat="43.80771" lon="7.23781">
        <ele>590.40002441406</ele>
        <time>2022-01-13T09:21:45.000Z</time>
      </trkpt>
      <trkpt lat="43.80774" lon="7.23776">
        <ele>589</ele>
        <time>2022-01-13T09:21:47.000Z</time>
      </trkpt>
      <trkpt lat="43.80776" lon="7.23771">
        <ele>587.79998779297</ele>
        <time>2022-01-13T09:21:49.000Z</time>
      </trkpt>
      <trkpt lat="43.80778" lon="7.23764">
        <ele>586.40002441406</ele>
        <time>2022-01-13T09:21:51.000Z</time>
      </trkpt>
      <trkpt lat="43.8078" lon="7.23757">
        <ele>584.79998779297</ele>
        <time>2022-01-13T09:21:53.000Z</time>
      </trkpt>
      <trkpt lat="43.80781" lon="7.23754">
        <ele>584</ele>
        <time>2022-01-13T09:21:54.000Z</time>
      </trkpt>
      <trkpt lat="43.80781" lon="7.2375">
        <ele>583</ele>
        <time>2022-01-13T09:21:55.000Z</time>
      </trkpt>
      <trkpt lat="43.80782" lon="7.23741">
        <ele>581.20001220703</ele>
        <time>2022-01-13T09:21:57.000Z</time>
      </trkpt>
      <trkpt lat="43.80788" lon="7.23734">
        <ele>579.79998779297</ele>
        <time>2022-01-13T09:21:59.000Z</time>
      </trkpt>
      <trkpt lat="43.80795" lon="7.23725">
        <ele>578.40002441406</ele>
        <time>2022-01-13T09:22:01.000Z</time>
      </trkpt>
      <trkpt lat="43.80802" lon="7.23719">
        <ele>577.40002441406</ele>
        <time>2022-01-13T09:22:03.000Z</time>
      </trkpt>
      <trkpt lat="43.80806" lon="7.23717">
        <ele>577</ele>
        <time>2022-01-13T09:22:04.000Z</time>
      </trkpt>
      <trkpt lat="43.80809" lon="7.23716">
        <ele>576.79998779297</ele>
        <time>2022-01-13T09:22:05.000Z</time>
      </trkpt>
      <trkpt lat="43.80817" lon="7.23713">
        <ele>576</ele>
        <time>2022-01-13T09:22:07.000Z</time>
      </trkpt>
      <trkpt lat="43.80821" lon="7.23712">
        <ele>575.79998779297</ele>
        <time>2022-01-13T09:22:08.000Z</time>
      </trkpt>
      <trkpt lat="43.80828" lon="7.23709">
        <ele>575</ele>
        <time>2022-01-13T09:22:10.000Z</time>
      </trkpt>
      <trkpt lat="43.80831" lon="7.23706">
        <ele>574.20001220703</ele>
        <time>2022-01-13T09:22:11.000Z</time>
      </trkpt>
      <trkpt lat="43.80832" lon="7.23703">
        <ele>573.59997558594</ele>
        <time>2022-01-13T09:22:12.000Z</time>
      </trkpt>
      <trkpt lat="43.80834" lon="7.237">
        <ele>573</ele>
        <time>2022-01-13T09:22:13.000Z</time>
      </trkpt>
      <trkpt lat="43.80838" lon="7.23692">
        <ele>572</ele>
        <time>2022-01-13T09:22:15.000Z</time>
      </trkpt>
      <trkpt lat="43.80842" lon="7.23684">
        <ele>571</ele>
        <time>2022-01-13T09:22:17.000Z</time>
      </trkpt>
      <trkpt lat="43.80843" lon="7.2368">
        <ele>570.40002441406</ele>
        <time>2022-01-13T09:22:18.000Z</time>
      </trkpt>
      <trkpt lat="43.80845" lon="7.23676">
        <ele>569.59997558594</ele>
        <time>2022-01-13T09:22:19.000Z</time>
      </trkpt>
      <trkpt lat="43.80848" lon="7.23667">
        <ele>568.59997558594</ele>
        <time>2022-01-13T09:22:21.000Z</time>
      </trkpt>
      <trkpt lat="43.8085" lon="7.23661">
        <ele>567.40002441406</ele>
        <time>2022-01-13T09:22:23.000Z</time>
      </trkpt>
      <trkpt lat="43.80851" lon="7.23654">
        <ele>566.40002441406</ele>
        <time>2022-01-13T09:22:25.000Z</time>
      </trkpt>
      <trkpt lat="43.80853" lon="7.23647">
        <ele>564.79998779297</ele>
        <time>2022-01-13T09:22:27.000Z</time>
      </trkpt>
      <trkpt lat="43.80854" lon="7.23645">
        <ele>564</ele>
        <time>2022-01-13T09:22:28.000Z</time>
      </trkpt>
      <trkpt lat="43.80854" lon="7.23642">
        <ele>563.59997558594</ele>
        <time>2022-01-13T09:22:29.000Z</time>
      </trkpt>
      <trkpt lat="43.80856" lon="7.23633">
        <ele>562.59997558594</ele>
        <time>2022-01-13T09:22:31.000Z</time>
      </trkpt>
      <trkpt lat="43.80858" lon="7.23629">
        <ele>562.20001220703</ele>
        <time>2022-01-13T09:22:32.000Z</time>
      </trkpt>
      <trkpt lat="43.8086" lon="7.23625">
        <ele>561.40002441406</ele>
        <time>2022-01-13T09:22:33.000Z</time>
      </trkpt>
      <trkpt lat="43.80862" lon="7.23622">
        <ele>560.40002441406</ele>
        <time>2022-01-13T09:22:34.000Z</time>
      </trkpt>
      <trkpt lat="43.80863" lon="7.23617">
        <ele>559</ele>
        <time>2022-01-13T09:22:36.000Z</time>
      </trkpt>
      <trkpt lat="43.80865" lon="7.2361">
        <ele>557.20001220703</ele>
        <time>2022-01-13T09:22:38.000Z</time>
      </trkpt>
      <trkpt lat="43.80867" lon="7.236">
        <ele>556.40002441406</ele>
        <time>2022-01-13T09:22:40.000Z</time>
      </trkpt>
      <trkpt lat="43.80869" lon="7.23596">
        <ele>555.20001220703</ele>
        <time>2022-01-13T09:22:41.000Z</time>
      </trkpt>
      <trkpt lat="43.80874" lon="7.23589">
        <ele>553.59997558594</ele>
        <time>2022-01-13T09:22:43.000Z</time>
      </trkpt>
      <trkpt lat="43.80877" lon="7.23586">
        <ele>552.79998779297</ele>
        <time>2022-01-13T09:22:44.000Z</time>
      </trkpt>
      <trkpt lat="43.8088" lon="7.23583">
        <ele>551.79998779297</ele>
        <time>2022-01-13T09:22:45.000Z</time>
      </trkpt>
      <trkpt lat="43.80882" lon="7.23579">
        <ele>550.79998779297</ele>
        <time>2022-01-13T09:22:46.000Z</time>
      </trkpt>
      <trkpt lat="43.80886" lon="7.23572">
        <ele>548.79998779297</ele>
        <time>2022-01-13T09:22:48.000Z</time>
      </trkpt>
      <trkpt lat="43.80887" lon="7.2357">
        <ele>548.40002441406</ele>
        <time>2022-01-13T09:22:49.000Z</time>
      </trkpt>
      <trkpt lat="43.80889" lon="7.23566">
        <ele>547.59997558594</ele>
        <time>2022-01-13T09:22:51.000Z</time>
      </trkpt>
      <trkpt lat="43.80894" lon="7.23555">
        <ele>546.79998779297</ele>
        <time>2022-01-13T09:22:55.000Z</time>
      </trkpt>
      <trkpt lat="43.80895" lon="7.2355">
        <ele>546.40002441406</ele>
        <time>2022-01-13T09:22:57.000Z</time>
      </trkpt>
      <trkpt lat="43.80895" lon="7.2355">
        <ele>545.79998779297</ele>
        <time>2022-01-13T09:22:59.000Z</time>
      </trkpt>
      <trkpt lat="43.80895" lon="7.2355">
        <ele>545.20001220703</ele>
        <time>2022-01-13T09:23:01.000Z</time>
      </trkpt>
      <trkpt lat="43.80895" lon="7.23549">
        <ele>545</ele>
        <time>2022-01-13T09:23:10.000Z</time>
      </trkpt>
      <trkpt lat="43.80895" lon="7.23549">
        <ele>544.79998779297</ele>
        <time>2022-01-13T09:23:30.000Z</time>
      </trkpt>
      <trkpt lat="43.80895" lon="7.23548">
        <ele>544.79998779297</ele>
        <time>2022-01-13T09:23:51.000Z</time>
      </trkpt>
      <trkpt lat="43.80895" lon="7.23548">
        <ele>545</ele>
        <time>2022-01-13T09:24:24.000Z</time>
      </trkpt>
      <trkpt lat="43.80895" lon="7.23546">
        <ele>545</ele>
        <time>2022-01-13T09:24:52.000Z</time>
      </trkpt>
      <trkpt lat="43.80894" lon="7.23543">
        <ele>545</ele>
        <time>2022-01-13T09:25:18.000Z</time>
      </trkpt>
      <trkpt lat="43.80894" lon="7.23543">
        <ele>545</ele>
        <time>2022-01-13T09:25:41.000Z</time>
      </trkpt>
      <trkpt lat="43.80894" lon="7.23543">
        <ele>545</ele>
        <time>2022-01-13T09:26:03.000Z</time>
      </trkpt>
      <trkpt lat="43.80892" lon="7.23536">
        <ele>544.79998779297</ele>
        <time>2022-01-13T09:26:08.000Z</time>
      </trkpt>
      <trkpt lat="43.80892" lon="7.23534">
        <ele>544.59997558594</ele>
        <time>2022-01-13T09:26:09.000Z</time>
      </trkpt>
      <trkpt lat="43.80894" lon="7.23529">
        <ele>544</ele>
        <time>2022-01-13T09:26:11.000Z</time>
      </trkpt>
      <trkpt lat="43.80896" lon="7.23524">
        <ele>543.40002441406</ele>
        <time>2022-01-13T09:26:13.000Z</time>
      </trkpt>
      <trkpt lat="43.80897" lon="7.23521">
        <ele>543.20001220703</ele>
        <time>2022-01-13T09:26:14.000Z</time>
      </trkpt>
      <trkpt lat="43.80899" lon="7.23518">
        <ele>543</ele>
        <time>2022-01-13T09:26:15.000Z</time>
      </trkpt>
      <trkpt lat="43.80906" lon="7.23505">
        <ele>541.40002441406</ele>
        <time>2022-01-13T09:26:19.000Z</time>
      </trkpt>
      <trkpt lat="43.80909" lon="7.23502">
        <ele>540.20001220703</ele>
        <time>2022-01-13T09:26:21.000Z</time>
      </trkpt>
      <trkpt lat="43.80914" lon="7.23498">
        <ele>539.20001220703</ele>
        <time>2022-01-13T09:26:23.000Z</time>
      </trkpt>
      <trkpt lat="43.80916" lon="7.23496">
        <ele>538.79998779297</ele>
        <time>2022-01-13T09:26:24.000Z</time>
      </trkpt>
      <trkpt lat="43.80921" lon="7.23493">
        <ele>537.79998779297</ele>
        <time>2022-01-13T09:26:27.000Z</time>
      </trkpt>
      <trkpt lat="43.80924" lon="7.2349">
        <ele>536.59997558594</ele>
        <time>2022-01-13T09:26:29.000Z</time>
      </trkpt>
      <trkpt lat="43.80928" lon="7.23486">
        <ele>535</ele>
        <time>2022-01-13T09:26:31.000Z</time>
      </trkpt>
      <trkpt lat="43.80929" lon="7.23484">
        <ele>534</ele>
        <time>2022-01-13T09:26:32.000Z</time>
      </trkpt>
      <trkpt lat="43.80931" lon="7.23482">
        <ele>532.79998779297</ele>
        <time>2022-01-13T09:26:33.000Z</time>
      </trkpt>
      <trkpt lat="43.80933" lon="7.23479">
        <ele>530.79998779297</ele>
        <time>2022-01-13T09:26:35.000Z</time>
      </trkpt>
      <trkpt lat="43.80935" lon="7.23476">
        <ele>530.20001220703</ele>
        <time>2022-01-13T09:26:36.000Z</time>
      </trkpt>
      <trkpt lat="43.80937" lon="7.23473">
        <ele>529.59997558594</ele>
        <time>2022-01-13T09:26:37.000Z</time>
      </trkpt>
      <trkpt lat="43.8094" lon="7.23468">
        <ele>528.20001220703</ele>
        <time>2022-01-13T09:26:39.000Z</time>
      </trkpt>
      <trkpt lat="43.80942" lon="7.23467">
        <ele>527.59997558594</ele>
        <time>2022-01-13T09:26:40.000Z</time>
      </trkpt>
      <trkpt lat="43.80945" lon="7.23465">
        <ele>527</ele>
        <time>2022-01-13T09:26:41.000Z</time>
      </trkpt>
      <trkpt lat="43.80952" lon="7.23456">
        <ele>526.40002441406</ele>
        <time>2022-01-13T09:26:44.000Z</time>
      </trkpt>
      <trkpt lat="43.80955" lon="7.23455">
        <ele>526.59997558594</ele>
        <time>2022-01-13T09:26:45.000Z</time>
      </trkpt>
      <trkpt lat="43.80962" lon="7.23454">
        <ele>526.40002441406</ele>
        <time>2022-01-13T09:26:47.000Z</time>
      </trkpt>
      <trkpt lat="43.80968" lon="7.23452">
        <ele>525.79998779297</ele>
        <time>2022-01-13T09:26:49.000Z</time>
      </trkpt>
      <trkpt lat="43.80973" lon="7.23449">
        <ele>524.59997558594</ele>
        <time>2022-01-13T09:26:51.000Z</time>
      </trkpt>
      <trkpt lat="43.80975" lon="7.23447">
        <ele>523.79998779297</ele>
        <time>2022-01-13T09:26:52.000Z</time>
      </trkpt>
      <trkpt lat="43.80976" lon="7.23445">
        <ele>522.59997558594</ele>
        <time>2022-01-13T09:26:53.000Z</time>
      </trkpt>
      <trkpt lat="43.8098" lon="7.23442">
        <ele>520.59997558594</ele>
        <time>2022-01-13T09:26:55.000Z</time>
      </trkpt>
      <trkpt lat="43.80984" lon="7.23443">
        <ele>519</ele>
        <time>2022-01-13T09:26:57.000Z</time>
      </trkpt>
      <trkpt lat="43.80987" lon="7.23446">
        <ele>517.59997558594</ele>
        <time>2022-01-13T09:26:59.000Z</time>
      </trkpt>
      <trkpt lat="43.8099" lon="7.23449">
        <ele>516.20001220703</ele>
        <time>2022-01-13T09:27:01.000Z</time>
      </trkpt>
      <trkpt lat="43.80991" lon="7.2345">
        <ele>516</ele>
        <time>2022-01-13T09:27:02.000Z</time>
      </trkpt>
      <trkpt lat="43.80993" lon="7.2345">
        <ele>515.20001220703</ele>
        <time>2022-01-13T09:27:03.000Z</time>
      </trkpt>
      <trkpt lat="43.80996" lon="7.23446">
        <ele>514.40002441406</ele>
        <time>2022-01-13T09:27:05.000Z</time>
      </trkpt>
      <trkpt lat="43.80997" lon="7.23443">
        <ele>514</ele>
        <time>2022-01-13T09:27:06.000Z</time>
      </trkpt>
      <trkpt lat="43.80997" lon="7.23441">
        <ele>513.20001220703</ele>
        <time>2022-01-13T09:27:07.000Z</time>
      </trkpt>
      <trkpt lat="43.80996" lon="7.23438">
        <ele>512.40002441406</ele>
        <time>2022-01-13T09:27:08.000Z</time>
      </trkpt>
      <trkpt lat="43.80996" lon="7.23432">
        <ele>510.79998779297</ele>
        <time>2022-01-13T09:27:10.000Z</time>
      </trkpt>
      <trkpt lat="43.80996" lon="7.23428">
        <ele>509.79998779297</ele>
        <time>2022-01-13T09:27:11.000Z</time>
      </trkpt>
      <trkpt lat="43.80997" lon="7.23425">
        <ele>509.20001220703</ele>
        <time>2022-01-13T09:27:12.000Z</time>
      </trkpt>
      <trkpt lat="43.81001" lon="7.23421">
        <ele>508.39999389648</ele>
        <time>2022-01-13T09:27:14.000Z</time>
      </trkpt>
      <trkpt lat="43.81004" lon="7.23422">
        <ele>508</ele>
        <time>2022-01-13T09:27:15.000Z</time>
      </trkpt>
      <trkpt lat="43.81006" lon="7.23423">
        <ele>507.60000610352</ele>
        <time>2022-01-13T09:27:16.000Z</time>
      </trkpt>
      <trkpt lat="43.81008" lon="7.23423">
        <ele>506.60000610352</ele>
        <time>2022-01-13T09:27:17.000Z</time>
      </trkpt>
      <trkpt lat="43.8101" lon="7.23422">
        <ele>505.79998779297</ele>
        <time>2022-01-13T09:27:18.000Z</time>
      </trkpt>
      <trkpt lat="43.81011" lon="7.2342">
        <ele>505.20001220703</ele>
        <time>2022-01-13T09:27:19.000Z</time>
      </trkpt>
      <trkpt lat="43.81013" lon="7.23413">
        <ele>504.39999389648</ele>
        <time>2022-01-13T09:27:21.000Z</time>
      </trkpt>
      <trkpt lat="43.81012" lon="7.23409">
        <ele>504.20001220703</ele>
        <time>2022-01-13T09:27:22.000Z</time>
      </trkpt>
      <trkpt lat="43.81012" lon="7.23405">
        <ele>504</ele>
        <time>2022-01-13T09:27:23.000Z</time>
      </trkpt>
      <trkpt lat="43.81015" lon="7.234">
        <ele>504</ele>
        <time>2022-01-13T09:27:25.000Z</time>
      </trkpt>
      <trkpt lat="43.81016" lon="7.23399">
        <ele>504.60000610352</ele>
        <time>2022-01-13T09:27:29.000Z</time>
      </trkpt>
      <trkpt lat="43.81016" lon="7.23399">
        <ele>505</ele>
        <time>2022-01-13T09:27:30.000Z</time>
      </trkpt>
      <trkpt lat="43.81016" lon="7.23398">
        <ele>505.79998779297</ele>
        <time>2022-01-13T09:27:38.000Z</time>
      </trkpt>
      <trkpt lat="43.81019" lon="7.23397">
        <ele>506.20001220703</ele>
        <time>2022-01-13T09:27:44.000Z</time>
      </trkpt>
      <trkpt lat="43.8102" lon="7.23397">
        <ele>507.39999389648</ele>
        <time>2022-01-13T09:27:50.000Z</time>
      </trkpt>
      <trkpt lat="43.81021" lon="7.23398">
        <ele>507.60000610352</ele>
        <time>2022-01-13T09:27:51.000Z</time>
      </trkpt>
      <trkpt lat="43.81025" lon="7.23396">
        <ele>508.20001220703</ele>
        <time>2022-01-13T09:27:57.000Z</time>
      </trkpt>
      <trkpt lat="43.81025" lon="7.23396">
        <ele>508.39999389648</ele>
        <time>2022-01-13T09:27:58.000Z</time>
      </trkpt>
      <trkpt lat="43.81028" lon="7.23391">
        <ele>508.39999389648</ele>
        <time>2022-01-13T09:28:01.000Z</time>
      </trkpt>
      <trkpt lat="43.81034" lon="7.2338">
        <ele>508.20001220703</ele>
        <time>2022-01-13T09:28:06.000Z</time>
      </trkpt>
      <trkpt lat="43.81046" lon="7.2337">
        <ele>509.79998779297</ele>
        <time>2022-01-13T09:28:12.000Z</time>
      </trkpt>
      <trkpt lat="43.81055" lon="7.23367">
        <ele>511</ele>
        <time>2022-01-13T09:28:16.000Z</time>
      </trkpt>
      <trkpt lat="43.81058" lon="7.23366">
        <ele>511.39999389648</ele>
        <time>2022-01-13T09:28:17.000Z</time>
      </trkpt>
      <trkpt lat="43.81062" lon="7.23359">
        <ele>512.59997558594</ele>
        <time>2022-01-13T09:28:20.000Z</time>
      </trkpt>
      <trkpt lat="43.81062" lon="7.23355">
        <ele>513</ele>
        <time>2022-01-13T09:28:21.000Z</time>
      </trkpt>
      <trkpt lat="43.81067" lon="7.23345">
        <ele>513.79998779297</ele>
        <time>2022-01-13T09:28:25.000Z</time>
      </trkpt>
      <trkpt lat="43.8107" lon="7.23338">
        <ele>515</ele>
        <time>2022-01-13T09:28:28.000Z</time>
      </trkpt>
      <trkpt lat="43.81072" lon="7.23336">
        <ele>515</ele>
        <time>2022-01-13T09:28:29.000Z</time>
      </trkpt>
      <trkpt lat="43.81083" lon="7.23335">
        <ele>514.59997558594</ele>
        <time>2022-01-13T09:28:33.000Z</time>
      </trkpt>
      <trkpt lat="43.81084" lon="7.23335">
        <ele>515.20001220703</ele>
        <time>2022-01-13T09:28:36.000Z</time>
      </trkpt>
      <trkpt lat="43.81085" lon="7.23333">
        <ele>516</ele>
        <time>2022-01-13T09:28:38.000Z</time>
      </trkpt>
      <trkpt lat="43.81088" lon="7.23326">
        <ele>517</ele>
        <time>2022-01-13T09:28:41.000Z</time>
      </trkpt>
      <trkpt lat="43.81096" lon="7.23312">
        <ele>516.79998779297</ele>
        <time>2022-01-13T09:28:46.000Z</time>
      </trkpt>
      <trkpt lat="43.81097" lon="7.23311">
        <ele>516.59997558594</ele>
        <time>2022-01-13T09:28:47.000Z</time>
      </trkpt>
      <trkpt lat="43.81097" lon="7.23303">
        <ele>516.40002441406</ele>
        <time>2022-01-13T09:28:50.000Z</time>
      </trkpt>
      <trkpt lat="43.81094" lon="7.23291">
        <ele>516.79998779297</ele>
        <time>2022-01-13T09:28:54.000Z</time>
      </trkpt>
      <trkpt lat="43.81094" lon="7.23281">
        <ele>515.20001220703</ele>
        <time>2022-01-13T09:28:58.000Z</time>
      </trkpt>
      <trkpt lat="43.81094" lon="7.23279">
        <ele>515</ele>
        <time>2022-01-13T09:28:59.000Z</time>
      </trkpt>
      <trkpt lat="43.81093" lon="7.23277">
        <ele>514.59997558594</ele>
        <time>2022-01-13T09:29:00.000Z</time>
      </trkpt>
      <trkpt lat="43.81091" lon="7.23273">
        <ele>514.59997558594</ele>
        <time>2022-01-13T09:29:02.000Z</time>
      </trkpt>
      <trkpt lat="43.8109" lon="7.23264">
        <ele>514.20001220703</ele>
        <time>2022-01-13T09:29:05.000Z</time>
      </trkpt>
      <trkpt lat="43.81091" lon="7.2326">
        <ele>514</ele>
        <time>2022-01-13T09:29:07.000Z</time>
      </trkpt>
      <trkpt lat="43.81092" lon="7.23259">
        <ele>514</ele>
        <time>2022-01-13T09:29:08.000Z</time>
      </trkpt>
      <trkpt lat="43.81093" lon="7.23258">
        <ele>514</ele>
        <time>2022-01-13T09:29:10.000Z</time>
      </trkpt>
      <trkpt lat="43.81099" lon="7.23249">
        <ele>514.59997558594</ele>
        <time>2022-01-13T09:29:15.000Z</time>
      </trkpt>
      <trkpt lat="43.811" lon="7.23247">
        <ele>514.59997558594</ele>
        <time>2022-01-13T09:29:16.000Z</time>
      </trkpt>
      <trkpt lat="43.81104" lon="7.23238">
        <ele>514.79998779297</ele>
        <time>2022-01-13T09:29:19.000Z</time>
      </trkpt>
      <trkpt lat="43.81111" lon="7.23225">
        <ele>515</ele>
        <time>2022-01-13T09:29:23.000Z</time>
      </trkpt>
      <trkpt lat="43.81112" lon="7.23223">
        <ele>515</ele>
        <time>2022-01-13T09:29:24.000Z</time>
      </trkpt>
      <trkpt lat="43.81122" lon="7.23204">
        <ele>515.79998779297</ele>
        <time>2022-01-13T09:29:31.000Z</time>
      </trkpt>
      <trkpt lat="43.81124" lon="7.23201">
        <ele>516</ele>
        <time>2022-01-13T09:29:32.000Z</time>
      </trkpt>
      <trkpt lat="43.81128" lon="7.2319">
        <ele>517.20001220703</ele>
        <time>2022-01-13T09:29:36.000Z</time>
      </trkpt>
      <trkpt lat="43.8113" lon="7.23188">
        <ele>517.79998779297</ele>
        <time>2022-01-13T09:29:37.000Z</time>
      </trkpt>
      <trkpt lat="43.81132" lon="7.23184">
        <ele>518.59997558594</ele>
        <time>2022-01-13T09:29:39.000Z</time>
      </trkpt>
      <trkpt lat="43.81134" lon="7.23176">
        <ele>519.79998779297</ele>
        <time>2022-01-13T09:29:42.000Z</time>
      </trkpt>
      <trkpt lat="43.81135" lon="7.23171">
        <ele>520.40002441406</ele>
        <time>2022-01-13T09:29:44.000Z</time>
      </trkpt>
      <trkpt lat="43.81136" lon="7.23166">
        <ele>521</ele>
        <time>2022-01-13T09:29:46.000Z</time>
      </trkpt>
      <trkpt lat="43.81137" lon="7.23158">
        <ele>522.20001220703</ele>
        <time>2022-01-13T09:29:49.000Z</time>
      </trkpt>
      <trkpt lat="43.81139" lon="7.23147">
        <ele>523.20001220703</ele>
        <time>2022-01-13T09:29:53.000Z</time>
      </trkpt>
      <trkpt lat="43.81139" lon="7.23144">
        <ele>523.20001220703</ele>
        <time>2022-01-13T09:29:54.000Z</time>
      </trkpt>
      <trkpt lat="43.81144" lon="7.2313">
        <ele>524.40002441406</ele>
        <time>2022-01-13T09:29:59.000Z</time>
      </trkpt>
      <trkpt lat="43.81145" lon="7.23127">
        <ele>524.59997558594</ele>
        <time>2022-01-13T09:30:00.000Z</time>
      </trkpt>
      <trkpt lat="43.81154" lon="7.23116">
        <ele>525.40002441406</ele>
        <time>2022-01-13T09:30:05.000Z</time>
      </trkpt>
      <trkpt lat="43.81155" lon="7.23114">
        <ele>526</ele>
        <time>2022-01-13T09:30:06.000Z</time>
      </trkpt>
      <trkpt lat="43.81159" lon="7.2311">
        <ele>526.59997558594</ele>
        <time>2022-01-13T09:30:08.000Z</time>
      </trkpt>
      <trkpt lat="43.81164" lon="7.23105">
        <ele>528</ele>
        <time>2022-01-13T09:30:11.000Z</time>
      </trkpt>
      <trkpt lat="43.81169" lon="7.23098">
        <ele>529</ele>
        <time>2022-01-13T09:30:14.000Z</time>
      </trkpt>
      <trkpt lat="43.81174" lon="7.23093">
        <ele>530.40002441406</ele>
        <time>2022-01-13T09:30:17.000Z</time>
      </trkpt>
      <trkpt lat="43.8118" lon="7.23089">
        <ele>531.40002441406</ele>
        <time>2022-01-13T09:30:20.000Z</time>
      </trkpt>
      <trkpt lat="43.81183" lon="7.23085">
        <ele>532.20001220703</ele>
        <time>2022-01-13T09:30:22.000Z</time>
      </trkpt>
      <trkpt lat="43.81185" lon="7.23084">
        <ele>532.59997558594</ele>
        <time>2022-01-13T09:30:23.000Z</time>
      </trkpt>
      <trkpt lat="43.8119" lon="7.2308">
        <ele>533.59997558594</ele>
        <time>2022-01-13T09:30:26.000Z</time>
      </trkpt>
      <trkpt lat="43.81192" lon="7.2308">
        <ele>534.20001220703</ele>
        <time>2022-01-13T09:30:27.000Z</time>
      </trkpt>
      <trkpt lat="43.81194" lon="7.23085">
        <ele>534.79998779297</ele>
        <time>2022-01-13T09:30:29.000Z</time>
      </trkpt>
      <trkpt lat="43.81193" lon="7.23088">
        <ele>535.20001220703</ele>
        <time>2022-01-13T09:30:30.000Z</time>
      </trkpt>
      <trkpt lat="43.81191" lon="7.23092">
        <ele>535.79998779297</ele>
        <time>2022-01-13T09:30:32.000Z</time>
      </trkpt>
      <trkpt lat="43.81189" lon="7.23094">
        <ele>536</ele>
        <time>2022-01-13T09:30:33.000Z</time>
      </trkpt>
      <trkpt lat="43.81187" lon="7.23098">
        <ele>536.79998779297</ele>
        <time>2022-01-13T09:30:35.000Z</time>
      </trkpt>
      <trkpt lat="43.81186" lon="7.23102">
        <ele>537.20001220703</ele>
        <time>2022-01-13T09:30:37.000Z</time>
      </trkpt>
      <trkpt lat="43.81184" lon="7.23111">
        <ele>538.20001220703</ele>
        <time>2022-01-13T09:30:41.000Z</time>
      </trkpt>
      <trkpt lat="43.81183" lon="7.2312">
        <ele>539.59997558594</ele>
        <time>2022-01-13T09:30:45.000Z</time>
      </trkpt>
      <trkpt lat="43.81182" lon="7.23128">
        <ele>540.59997558594</ele>
        <time>2022-01-13T09:30:48.000Z</time>
      </trkpt>
      <trkpt lat="43.81181" lon="7.2313">
        <ele>541</ele>
        <time>2022-01-13T09:30:49.000Z</time>
      </trkpt>
      <trkpt lat="43.81181" lon="7.23135">
        <ele>541.79998779297</ele>
        <time>2022-01-13T09:30:51.000Z</time>
      </trkpt>
      <trkpt lat="43.81179" lon="7.23145">
        <ele>542.79998779297</ele>
        <time>2022-01-13T09:30:55.000Z</time>
      </trkpt>
      <trkpt lat="43.81179" lon="7.2315">
        <ele>543.40002441406</ele>
        <time>2022-01-13T09:30:57.000Z</time>
      </trkpt>
      <trkpt lat="43.81178" lon="7.23155">
        <ele>544</ele>
        <time>2022-01-13T09:30:59.000Z</time>
      </trkpt>
      <trkpt lat="43.81177" lon="7.23165">
        <ele>545</ele>
        <time>2022-01-13T09:31:03.000Z</time>
      </trkpt>
      <trkpt lat="43.81177" lon="7.23173">
        <ele>546</ele>
        <time>2022-01-13T09:31:06.000Z</time>
      </trkpt>
      <trkpt lat="43.81176" lon="7.23175">
        <ele>546.20001220703</ele>
        <time>2022-01-13T09:31:07.000Z</time>
      </trkpt>
      <trkpt lat="43.81176" lon="7.23186">
        <ele>547.20001220703</ele>
        <time>2022-01-13T09:31:11.000Z</time>
      </trkpt>
      <trkpt lat="43.81176" lon="7.23193">
        <ele>548.20001220703</ele>
        <time>2022-01-13T09:31:14.000Z</time>
      </trkpt>
      <trkpt lat="43.81177" lon="7.23196">
        <ele>548.40002441406</ele>
        <time>2022-01-13T09:31:15.000Z</time>
      </trkpt>
      <trkpt lat="43.81177" lon="7.23209">
        <ele>549.59997558594</ele>
        <time>2022-01-13T09:31:20.000Z</time>
      </trkpt>
      <trkpt lat="43.81176" lon="7.23214">
        <ele>550.40002441406</ele>
        <time>2022-01-13T09:31:22.000Z</time>
      </trkpt>
      <trkpt lat="43.81175" lon="7.23216">
        <ele>550.79998779297</ele>
        <time>2022-01-13T09:31:23.000Z</time>
      </trkpt>
      <trkpt lat="43.81173" lon="7.23224">
        <ele>551.79998779297</ele>
        <time>2022-01-13T09:31:27.000Z</time>
      </trkpt>
      <trkpt lat="43.81174" lon="7.23226">
        <ele>552.20001220703</ele>
        <time>2022-01-13T09:31:28.000Z</time>
      </trkpt>
      <trkpt lat="43.8118" lon="7.23227">
        <ele>552.79998779297</ele>
        <time>2022-01-13T09:31:32.000Z</time>
      </trkpt>
      <trkpt lat="43.81187" lon="7.23217">
        <ele>553.59997558594</ele>
        <time>2022-01-13T09:31:37.000Z</time>
      </trkpt>
      <trkpt lat="43.81188" lon="7.23215">
        <ele>553.59997558594</ele>
        <time>2022-01-13T09:31:38.000Z</time>
      </trkpt>
      <trkpt lat="43.81191" lon="7.2321">
        <ele>554.20001220703</ele>
        <time>2022-01-13T09:31:40.000Z</time>
      </trkpt>
      <trkpt lat="43.81194" lon="7.23198">
        <ele>555.59997558594</ele>
        <time>2022-01-13T09:31:45.000Z</time>
      </trkpt>
      <trkpt lat="43.81194" lon="7.23196">
        <ele>556</ele>
        <time>2022-01-13T09:31:46.000Z</time>
      </trkpt>
      <trkpt lat="43.81195" lon="7.23191">
        <ele>557</ele>
        <time>2022-01-13T09:31:48.000Z</time>
      </trkpt>
      <trkpt lat="43.81196" lon="7.23184">
        <ele>558</ele>
        <time>2022-01-13T09:31:51.000Z</time>
      </trkpt>
      <trkpt lat="43.81198" lon="7.23181">
        <ele>558.79998779297</ele>
        <time>2022-01-13T09:31:53.000Z</time>
      </trkpt>
      <trkpt lat="43.812" lon="7.23181">
        <ele>559.20001220703</ele>
        <time>2022-01-13T09:31:54.000Z</time>
      </trkpt>
      <trkpt lat="43.81205" lon="7.23185">
        <ele>559.79998779297</ele>
        <time>2022-01-13T09:31:57.000Z</time>
      </trkpt>
      <trkpt lat="43.81207" lon="7.2319">
        <ele>560.20001220703</ele>
        <time>2022-01-13T09:31:59.000Z</time>
      </trkpt>
      <trkpt lat="43.81208" lon="7.23195">
        <ele>560.59997558594</ele>
        <time>2022-01-13T09:32:01.000Z</time>
      </trkpt>
      <trkpt lat="43.81208" lon="7.23199">
        <ele>561</ele>
        <time>2022-01-13T09:32:03.000Z</time>
      </trkpt>
      <trkpt lat="43.81209" lon="7.23204">
        <ele>561.40002441406</ele>
        <time>2022-01-13T09:32:05.000Z</time>
      </trkpt>
      <trkpt lat="43.81212" lon="7.23212">
        <ele>562.59997558594</ele>
        <time>2022-01-13T09:32:10.000Z</time>
      </trkpt>
      <trkpt lat="43.81212" lon="7.23213">
        <ele>562.79998779297</ele>
        <time>2022-01-13T09:32:11.000Z</time>
      </trkpt>
      <trkpt lat="43.81212" lon="7.23214">
        <ele>563.59997558594</ele>
        <time>2022-01-13T09:32:15.000Z</time>
      </trkpt>
      <trkpt lat="43.81212" lon="7.23214">
        <ele>564</ele>
        <time>2022-01-13T09:32:17.000Z</time>
      </trkpt>
      <trkpt lat="43.81213" lon="7.23214">
        <ele>563.79998779297</ele>
        <time>2022-01-13T09:32:32.000Z</time>
      </trkpt>
      <trkpt lat="43.81213" lon="7.23217">
        <ele>563.79998779297</ele>
        <time>2022-01-13T09:32:38.000Z</time>
      </trkpt>
      <trkpt lat="43.81213" lon="7.23216">
        <ele>563.79998779297</ele>
        <time>2022-01-13T09:32:52.000Z</time>
      </trkpt>
      <trkpt lat="43.81213" lon="7.23216">
        <ele>564</ele>
        <time>2022-01-13T09:33:11.000Z</time>
      </trkpt>
      <trkpt lat="43.81213" lon="7.23216">
        <ele>564</ele>
        <time>2022-01-13T09:33:31.000Z</time>
      </trkpt>
      <trkpt lat="43.81213" lon="7.23216">
        <ele>564</ele>
        <time>2022-01-13T09:33:38.000Z</time>
      </trkpt>
      <trkpt lat="43.81212" lon="7.23215">
        <ele>564.40002441406</ele>
        <time>2022-01-13T09:33:44.000Z</time>
      </trkpt>
      <trkpt lat="43.81213" lon="7.23216">
        <ele>564.20001220703</ele>
        <time>2022-01-13T09:33:57.000Z</time>
      </trkpt>
      <trkpt lat="43.81213" lon="7.23216">
        <ele>564.20001220703</ele>
        <time>2022-01-13T09:34:19.000Z</time>
      </trkpt>
      <trkpt lat="43.81215" lon="7.23215">
        <ele>564.59997558594</ele>
        <time>2022-01-13T09:34:36.000Z</time>
      </trkpt>
      <trkpt lat="43.81222" lon="7.23213">
        <ele>564.40002441406</ele>
        <time>2022-01-13T09:34:40.000Z</time>
      </trkpt>
      <trkpt lat="43.81243" lon="7.23211">
        <ele>564.40002441406</ele>
        <time>2022-01-13T09:34:48.000Z</time>
      </trkpt>
      <trkpt lat="43.81263" lon="7.23209">
        <ele>563.40002441406</ele>
        <time>2022-01-13T09:34:55.000Z</time>
      </trkpt>
      <trkpt lat="43.8127" lon="7.232">
        <ele>562.59997558594</ele>
        <time>2022-01-13T09:34:58.000Z</time>
      </trkpt>
      <trkpt lat="43.8127" lon="7.23196">
        <ele>562.40002441406</ele>
        <time>2022-01-13T09:34:59.000Z</time>
      </trkpt>
      <trkpt lat="43.8127" lon="7.23179">
        <ele>561.20001220703</ele>
        <time>2022-01-13T09:35:02.000Z</time>
      </trkpt>
      <trkpt lat="43.81269" lon="7.23169">
        <ele>560</ele>
        <time>2022-01-13T09:35:04.000Z</time>
      </trkpt>
      <trkpt lat="43.81269" lon="7.23163">
        <ele>559.20001220703</ele>
        <time>2022-01-13T09:35:05.000Z</time>
      </trkpt>
      <trkpt lat="43.81268" lon="7.23157">
        <ele>558.79998779297</ele>
        <time>2022-01-13T09:35:06.000Z</time>
      </trkpt>
      <trkpt lat="43.81267" lon="7.23146">
        <ele>557.40002441406</ele>
        <time>2022-01-13T09:35:08.000Z</time>
      </trkpt>
      <trkpt lat="43.81266" lon="7.23135">
        <ele>556.59997558594</ele>
        <time>2022-01-13T09:35:10.000Z</time>
      </trkpt>
      <trkpt lat="43.81266" lon="7.2313">
        <ele>556</ele>
        <time>2022-01-13T09:35:11.000Z</time>
      </trkpt>
      <trkpt lat="43.81268" lon="7.23122">
        <ele>554.59997558594</ele>
        <time>2022-01-13T09:35:13.000Z</time>
      </trkpt>
      <trkpt lat="43.81269" lon="7.2312">
        <ele>554</ele>
        <time>2022-01-13T09:35:14.000Z</time>
      </trkpt>
      <trkpt lat="43.81271" lon="7.23118">
        <ele>553.40002441406</ele>
        <time>2022-01-13T09:35:15.000Z</time>
      </trkpt>
      <trkpt lat="43.81272" lon="7.23115">
        <ele>552.40002441406</ele>
        <time>2022-01-13T09:35:17.000Z</time>
      </trkpt>
      <trkpt lat="43.81272" lon="7.23111">
        <ele>552</ele>
        <time>2022-01-13T09:35:19.000Z</time>
      </trkpt>
      <trkpt lat="43.81273" lon="7.23105">
        <ele>552</ele>
        <time>2022-01-13T09:35:24.000Z</time>
      </trkpt>
      <trkpt lat="43.81273" lon="7.23105">
        <ele>551.59997558594</ele>
        <time>2022-01-13T09:35:35.000Z</time>
      </trkpt>
      <trkpt lat="43.81273" lon="7.23105">
        <ele>551.40002441406</ele>
        <time>2022-01-13T09:35:38.000Z</time>
      </trkpt>
      <trkpt lat="43.81274" lon="7.23106">
        <ele>551.20001220703</ele>
        <time>2022-01-13T09:35:42.000Z</time>
      </trkpt>
      <trkpt lat="43.81275" lon="7.23107">
        <ele>551.40002441406</ele>
        <time>2022-01-13T09:35:43.000Z</time>
      </trkpt>
      <trkpt lat="43.81277" lon="7.23123">
        <ele>551.59997558594</ele>
        <time>2022-01-13T09:35:50.000Z</time>
      </trkpt>
      <trkpt lat="43.81282" lon="7.23143">
        <ele>550.40002441406</ele>
        <time>2022-01-13T09:35:54.000Z</time>
      </trkpt>
      <trkpt lat="43.81284" lon="7.23147">
        <ele>550</ele>
        <time>2022-01-13T09:35:55.000Z</time>
      </trkpt>
      <trkpt lat="43.81286" lon="7.23151">
        <ele>548.79998779297</ele>
        <time>2022-01-13T09:35:58.000Z</time>
      </trkpt>
      <trkpt lat="43.81289" lon="7.23155">
        <ele>548.79998779297</ele>
        <time>2022-01-13T09:36:07.000Z</time>
      </trkpt>
      <trkpt lat="43.813" lon="7.23164">
        <ele>548.20001220703</ele>
        <time>2022-01-13T09:36:12.000Z</time>
      </trkpt>
      <trkpt lat="43.81306" lon="7.23167">
        <ele>547.59997558594</ele>
        <time>2022-01-13T09:36:14.000Z</time>
      </trkpt>
      <trkpt lat="43.81312" lon="7.2317">
        <ele>546.59997558594</ele>
        <time>2022-01-13T09:36:16.000Z</time>
      </trkpt>
      <trkpt lat="43.81319" lon="7.23171">
        <ele>545.40002441406</ele>
        <time>2022-01-13T09:36:18.000Z</time>
      </trkpt>
      <trkpt lat="43.81322" lon="7.23172">
        <ele>545</ele>
        <time>2022-01-13T09:36:19.000Z</time>
      </trkpt>
      <trkpt lat="43.81329" lon="7.2317">
        <ele>544.40002441406</ele>
        <time>2022-01-13T09:36:21.000Z</time>
      </trkpt>
      <trkpt lat="43.8134" lon="7.23166">
        <ele>543.59997558594</ele>
        <time>2022-01-13T09:36:24.000Z</time>
      </trkpt>
      <trkpt lat="43.81347" lon="7.23163">
        <ele>543</ele>
        <time>2022-01-13T09:36:26.000Z</time>
      </trkpt>
      <trkpt lat="43.81359" lon="7.23159">
        <ele>542</ele>
        <time>2022-01-13T09:36:29.000Z</time>
      </trkpt>
      <trkpt lat="43.81364" lon="7.23159">
        <ele>541.79998779297</ele>
        <time>2022-01-13T09:36:30.000Z</time>
      </trkpt>
      <trkpt lat="43.81368" lon="7.2316">
        <ele>541.40002441406</ele>
        <time>2022-01-13T09:36:31.000Z</time>
      </trkpt>
      <trkpt lat="43.81377" lon="7.23164">
        <ele>540.20001220703</ele>
        <time>2022-01-13T09:36:33.000Z</time>
      </trkpt>
      <trkpt lat="43.81381" lon="7.23166">
        <ele>539.79998779297</ele>
        <time>2022-01-13T09:36:34.000Z</time>
      </trkpt>
      <trkpt lat="43.81391" lon="7.23172">
        <ele>538.79998779297</ele>
        <time>2022-01-13T09:36:36.000Z</time>
      </trkpt>
      <trkpt lat="43.814" lon="7.23177">
        <ele>537.59997558594</ele>
        <time>2022-01-13T09:36:38.000Z</time>
      </trkpt>
      <trkpt lat="43.81404" lon="7.23179">
        <ele>536.79998779297</ele>
        <time>2022-01-13T09:36:39.000Z</time>
      </trkpt>
      <trkpt lat="43.81408" lon="7.23182">
        <ele>536.20001220703</ele>
        <time>2022-01-13T09:36:40.000Z</time>
      </trkpt>
      <trkpt lat="43.81417" lon="7.23187">
        <ele>535.40002441406</ele>
        <time>2022-01-13T09:36:42.000Z</time>
      </trkpt>
      <trkpt lat="43.81421" lon="7.23189">
        <ele>535.20001220703</ele>
        <time>2022-01-13T09:36:43.000Z</time>
      </trkpt>
      <trkpt lat="43.81441" lon="7.23198">
        <ele>533.59997558594</ele>
        <time>2022-01-13T09:36:47.000Z</time>
      </trkpt>
      <trkpt lat="43.81447" lon="7.232">
        <ele>533.40002441406</ele>
        <time>2022-01-13T09:36:48.000Z</time>
      </trkpt>
      <trkpt lat="43.81452" lon="7.23202">
        <ele>532.59997558594</ele>
        <time>2022-01-13T09:36:49.000Z</time>
      </trkpt>
      <trkpt lat="43.81464" lon="7.23208">
        <ele>531.20001220703</ele>
        <time>2022-01-13T09:36:51.000Z</time>
      </trkpt>
      <trkpt lat="43.81475" lon="7.23215">
        <ele>530.40002441406</ele>
        <time>2022-01-13T09:36:53.000Z</time>
      </trkpt>
      <trkpt lat="43.8148" lon="7.2322">
        <ele>530</ele>
        <time>2022-01-13T09:36:54.000Z</time>
      </trkpt>
      <trkpt lat="43.81486" lon="7.23231">
        <ele>529.79998779297</ele>
        <time>2022-01-13T09:36:56.000Z</time>
      </trkpt>
      <trkpt lat="43.81488" lon="7.23254">
        <ele>530</ele>
        <time>2022-01-13T09:37:00.000Z</time>
      </trkpt>
      <trkpt lat="43.81494" lon="7.23269">
        <ele>530</ele>
        <time>2022-01-13T09:37:03.000Z</time>
      </trkpt>
      <trkpt lat="43.81497" lon="7.23273">
        <ele>529.79998779297</ele>
        <time>2022-01-13T09:37:04.000Z</time>
      </trkpt>
      <trkpt lat="43.81511" lon="7.23289">
        <ele>530</ele>
        <time>2022-01-13T09:37:09.000Z</time>
      </trkpt>
      <trkpt lat="43.81525" lon="7.23309">
        <ele>530.59997558594</ele>
        <time>2022-01-13T09:37:14.000Z</time>
      </trkpt>
      <trkpt lat="43.81527" lon="7.23315">
        <ele>530.59997558594</ele>
        <time>2022-01-13T09:37:15.000Z</time>
      </trkpt>
      <trkpt lat="43.8153" lon="7.2334">
        <ele>530.20001220703</ele>
        <time>2022-01-13T09:37:19.000Z</time>
      </trkpt>
      <trkpt lat="43.81529" lon="7.23355">
        <ele>529.79998779297</ele>
        <time>2022-01-13T09:37:21.000Z</time>
      </trkpt>
      <trkpt lat="43.81528" lon="7.23371">
        <ele>528.79998779297</ele>
        <time>2022-01-13T09:37:23.000Z</time>
      </trkpt>
      <trkpt lat="43.81529" lon="7.2338">
        <ele>528.20001220703</ele>
        <time>2022-01-13T09:37:24.000Z</time>
      </trkpt>
      <trkpt lat="43.81532" lon="7.2339">
        <ele>527.59997558594</ele>
        <time>2022-01-13T09:37:25.000Z</time>
      </trkpt>
      <trkpt lat="43.8154" lon="7.23407">
        <ele>526</ele>
        <time>2022-01-13T09:37:27.000Z</time>
      </trkpt>
      <trkpt lat="43.81546" lon="7.23425">
        <ele>524.59997558594</ele>
        <time>2022-01-13T09:37:29.000Z</time>
      </trkpt>
      <trkpt lat="43.81553" lon="7.23442">
        <ele>523.40002441406</ele>
        <time>2022-01-13T09:37:31.000Z</time>
      </trkpt>
      <trkpt lat="43.81557" lon="7.23459">
        <ele>523</ele>
        <time>2022-01-13T09:37:33.000Z</time>
      </trkpt>
      <trkpt lat="43.81563" lon="7.23488">
        <ele>523.79998779297</ele>
        <time>2022-01-13T09:37:37.000Z</time>
      </trkpt>
      <trkpt lat="43.81564" lon="7.23494">
        <ele>524</ele>
        <time>2022-01-13T09:37:38.000Z</time>
      </trkpt>
      <trkpt lat="43.81564" lon="7.23515">
        <ele>524.20001220703</ele>
        <time>2022-01-13T09:37:41.000Z</time>
      </trkpt>
      <trkpt lat="43.81562" lon="7.23532">
        <ele>524.20001220703</ele>
        <time>2022-01-13T09:37:44.000Z</time>
      </trkpt>
      <trkpt lat="43.81557" lon="7.2356">
        <ele>524.20001220703</ele>
        <time>2022-01-13T09:37:50.000Z</time>
      </trkpt>
      <trkpt lat="43.81556" lon="7.23564">
        <ele>524.40002441406</ele>
        <time>2022-01-13T09:37:51.000Z</time>
      </trkpt>
      <trkpt lat="43.8155" lon="7.23584">
        <ele>524.20001220703</ele>
        <time>2022-01-13T09:37:56.000Z</time>
      </trkpt>
      <trkpt lat="43.81551" lon="7.23608">
        <ele>524</ele>
        <time>2022-01-13T09:38:01.000Z</time>
      </trkpt>
      <trkpt lat="43.81554" lon="7.23633">
        <ele>523.79998779297</ele>
        <time>2022-01-13T09:38:07.000Z</time>
      </trkpt>
      <trkpt lat="43.81556" lon="7.23663">
        <ele>523.40002441406</ele>
        <time>2022-01-13T09:38:14.000Z</time>
      </trkpt>
      <trkpt lat="43.81556" lon="7.23668">
        <ele>523.40002441406</ele>
        <time>2022-01-13T09:38:15.000Z</time>
      </trkpt>
      <trkpt lat="43.8156" lon="7.23694">
        <ele>523.20001220703</ele>
        <time>2022-01-13T09:38:21.000Z</time>
      </trkpt>
      <trkpt lat="43.8157" lon="7.23722">
        <ele>523.20001220703</ele>
        <time>2022-01-13T09:38:29.000Z</time>
      </trkpt>
      <trkpt lat="43.8157" lon="7.23741">
        <ele>523.59997558594</ele>
        <time>2022-01-13T09:38:35.000Z</time>
      </trkpt>
      <trkpt lat="43.81559" lon="7.23752">
        <ele>523.79998779297</ele>
        <time>2022-01-13T09:38:40.000Z</time>
      </trkpt>
      <trkpt lat="43.81542" lon="7.23762">
        <ele>524.59997558594</ele>
        <time>2022-01-13T09:38:47.000Z</time>
      </trkpt>
      <trkpt lat="43.8154" lon="7.23763">
        <ele>524.79998779297</ele>
        <time>2022-01-13T09:38:48.000Z</time>
      </trkpt>
      <trkpt lat="43.8153" lon="7.2377">
        <ele>525.79998779297</ele>
        <time>2022-01-13T09:38:52.000Z</time>
      </trkpt>
      <trkpt lat="43.81526" lon="7.23773">
        <ele>526.20001220703</ele>
        <time>2022-01-13T09:38:54.000Z</time>
      </trkpt>
      <trkpt lat="43.81521" lon="7.23777">
        <ele>526.79998779297</ele>
        <time>2022-01-13T09:38:57.000Z</time>
      </trkpt>
      <trkpt lat="43.81514" lon="7.23781">
        <ele>527.79998779297</ele>
        <time>2022-01-13T09:39:01.000Z</time>
      </trkpt>
      <trkpt lat="43.81513" lon="7.23782">
        <ele>528</ele>
        <time>2022-01-13T09:39:02.000Z</time>
      </trkpt>
      <trkpt lat="43.81506" lon="7.23787">
        <ele>528.79998779297</ele>
        <time>2022-01-13T09:39:07.000Z</time>
      </trkpt>
      <trkpt lat="43.81505" lon="7.23788">
        <ele>529</ele>
        <time>2022-01-13T09:39:08.000Z</time>
      </trkpt>
      <trkpt lat="43.81502" lon="7.23792">
        <ele>529.59997558594</ele>
        <time>2022-01-13T09:39:14.000Z</time>
      </trkpt>
      <trkpt lat="43.81501" lon="7.23793">
        <ele>529.79998779297</ele>
        <time>2022-01-13T09:39:26.000Z</time>
      </trkpt>
      <trkpt lat="43.81501" lon="7.23794">
        <ele>529.79998779297</ele>
        <time>2022-01-13T09:39:52.000Z</time>
      </trkpt>
      <trkpt lat="43.81501" lon="7.23794">
        <ele>529.59997558594</ele>
        <time>2022-01-13T09:40:15.000Z</time>
      </trkpt>
      <trkpt lat="43.81501" lon="7.23794">
        <ele>529</ele>
        <time>2022-01-13T09:40:29.000Z</time>
      </trkpt>
      <trkpt lat="43.81501" lon="7.23794">
        <ele>529.40002441406</ele>
        <time>2022-01-13T09:40:38.000Z</time>
      </trkpt>
      <trkpt lat="43.81501" lon="7.23794">
        <ele>529.40002441406</ele>
        <time>2022-01-13T09:40:47.000Z</time>
      </trkpt>
      <trkpt lat="43.81498" lon="7.23802">
        <ele>529.59997558594</ele>
        <time>2022-01-13T09:40:56.000Z</time>
      </trkpt>
      <trkpt lat="43.81491" lon="7.23813">
        <ele>528</ele>
        <time>2022-01-13T09:41:01.000Z</time>
      </trkpt>
      <trkpt lat="43.8149" lon="7.23814">
        <ele>527.79998779297</ele>
        <time>2022-01-13T09:41:02.000Z</time>
      </trkpt>
      <trkpt lat="43.81491" lon="7.23816">
        <ele>527</ele>
        <time>2022-01-13T09:41:05.000Z</time>
      </trkpt>
      <trkpt lat="43.81492" lon="7.23814">
        <ele>526.59997558594</ele>
        <time>2022-01-13T09:41:06.000Z</time>
      </trkpt>
      <trkpt lat="43.81497" lon="7.23811">
        <ele>526</ele>
        <time>2022-01-13T09:41:08.000Z</time>
      </trkpt>
      <trkpt lat="43.81501" lon="7.23807">
        <ele>525.40002441406</ele>
        <time>2022-01-13T09:41:10.000Z</time>
      </trkpt>
      <trkpt lat="43.81503" lon="7.23809">
        <ele>524.59997558594</ele>
        <time>2022-01-13T09:41:11.000Z</time>
      </trkpt>
      <trkpt lat="43.81503" lon="7.23811">
        <ele>523.79998779297</ele>
        <time>2022-01-13T09:41:12.000Z</time>
      </trkpt>
      <trkpt lat="43.81499" lon="7.23818">
        <ele>522.20001220703</ele>
        <time>2022-01-13T09:41:14.000Z</time>
      </trkpt>
      <trkpt lat="43.81496" lon="7.23822">
        <ele>521.40002441406</ele>
        <time>2022-01-13T09:41:15.000Z</time>
      </trkpt>
      <trkpt lat="43.81493" lon="7.23826">
        <ele>520.59997558594</ele>
        <time>2022-01-13T09:41:16.000Z</time>
      </trkpt>
      <trkpt lat="43.8149" lon="7.23829">
        <ele>520</ele>
        <time>2022-01-13T09:41:17.000Z</time>
      </trkpt>
      <trkpt lat="43.81487" lon="7.23833">
        <ele>519.59997558594</ele>
        <time>2022-01-13T09:41:18.000Z</time>
      </trkpt>
      <trkpt lat="43.81484" lon="7.23838">
        <ele>519</ele>
        <time>2022-01-13T09:41:19.000Z</time>
      </trkpt>
      <trkpt lat="43.81478" lon="7.23851">
        <ele>518.20001220703</ele>
        <time>2022-01-13T09:41:21.000Z</time>
      </trkpt>
      <trkpt lat="43.81474" lon="7.23856">
        <ele>517.59997558594</ele>
        <time>2022-01-13T09:41:22.000Z</time>
      </trkpt>
      <trkpt lat="43.8147" lon="7.2386">
        <ele>517.20001220703</ele>
        <time>2022-01-13T09:41:23.000Z</time>
      </trkpt>
      <trkpt lat="43.8146" lon="7.23866">
        <ele>515.79998779297</ele>
        <time>2022-01-13T09:41:25.000Z</time>
      </trkpt>
      <trkpt lat="43.81455" lon="7.23868">
        <ele>515.40002441406</ele>
        <time>2022-01-13T09:41:26.000Z</time>
      </trkpt>
      <trkpt lat="43.81446" lon="7.23874">
        <ele>514.59997558594</ele>
        <time>2022-01-13T09:41:28.000Z</time>
      </trkpt>
      <trkpt lat="43.81439" lon="7.2388">
        <ele>513.79998779297</ele>
        <time>2022-01-13T09:41:30.000Z</time>
      </trkpt>
      <trkpt lat="43.81438" lon="7.23882">
        <ele>513.20001220703</ele>
        <time>2022-01-13T09:41:31.000Z</time>
      </trkpt>
      <trkpt lat="43.81438" lon="7.23888">
        <ele>512.79998779297</ele>
        <time>2022-01-13T09:41:33.000Z</time>
      </trkpt>
      <trkpt lat="43.8144" lon="7.23889">
        <ele>512.20001220703</ele>
        <time>2022-01-13T09:41:35.000Z</time>
      </trkpt>
      <trkpt lat="43.81443" lon="7.23891">
        <ele>511.79998779297</ele>
        <time>2022-01-13T09:41:36.000Z</time>
      </trkpt>
      <trkpt lat="43.81445" lon="7.23893">
        <ele>511.39999389648</ele>
        <time>2022-01-13T09:41:37.000Z</time>
      </trkpt>
      <trkpt lat="43.81454" lon="7.23908">
        <ele>511.60000610352</ele>
        <time>2022-01-13T09:41:41.000Z</time>
      </trkpt>
      <trkpt lat="43.81463" lon="7.2392">
        <ele>513.20001220703</ele>
        <time>2022-01-13T09:41:45.000Z</time>
      </trkpt>
      <trkpt lat="43.81466" lon="7.23923">
        <ele>514</ele>
        <time>2022-01-13T09:41:46.000Z</time>
      </trkpt>
      <trkpt lat="43.81469" lon="7.23927">
        <ele>514.79998779297</ele>
        <time>2022-01-13T09:41:47.000Z</time>
      </trkpt>
      <trkpt lat="43.81482" lon="7.23939">
        <ele>515</ele>
        <time>2022-01-13T09:41:50.000Z</time>
      </trkpt>
      <trkpt lat="43.8149" lon="7.23948">
        <ele>514.79998779297</ele>
        <time>2022-01-13T09:41:52.000Z</time>
      </trkpt>
      <trkpt lat="43.81503" lon="7.2396">
        <ele>515</ele>
        <time>2022-01-13T09:41:55.000Z</time>
      </trkpt>
      <trkpt lat="43.81507" lon="7.23964">
        <ele>514.79998779297</ele>
        <time>2022-01-13T09:41:56.000Z</time>
      </trkpt>
      <trkpt lat="43.81514" lon="7.23971">
        <ele>514.79998779297</ele>
        <time>2022-01-13T09:41:58.000Z</time>
      </trkpt>
      <trkpt lat="43.81519" lon="7.23975">
        <ele>515</ele>
        <time>2022-01-13T09:41:59.000Z</time>
      </trkpt>
      <trkpt lat="43.81532" lon="7.23996">
        <ele>514.79998779297</ele>
        <time>2022-01-13T09:42:03.000Z</time>
      </trkpt>
      <trkpt lat="43.81534" lon="7.24001">
        <ele>514.59997558594</ele>
        <time>2022-01-13T09:42:04.000Z</time>
      </trkpt>
      <trkpt lat="43.81538" lon="7.24019">
        <ele>514.79998779297</ele>
        <time>2022-01-13T09:42:07.000Z</time>
      </trkpt>
      <trkpt lat="43.81542" lon="7.24041">
        <ele>516</ele>
        <time>2022-01-13T09:42:11.000Z</time>
      </trkpt>
      <trkpt lat="43.81543" lon="7.24046">
        <ele>516.20001220703</ele>
        <time>2022-01-13T09:42:12.000Z</time>
      </trkpt>
      <trkpt lat="43.81545" lon="7.24064">
        <ele>516.40002441406</ele>
        <time>2022-01-13T09:42:16.000Z</time>
      </trkpt>
      <trkpt lat="43.81547" lon="7.24072">
        <ele>517.59997558594</ele>
        <time>2022-01-13T09:42:18.000Z</time>
      </trkpt>
      <trkpt lat="43.81545" lon="7.24081">
        <ele>518.20001220703</ele>
        <time>2022-01-13T09:42:20.000Z</time>
      </trkpt>
      <trkpt lat="43.81544" lon="7.24092">
        <ele>518.40002441406</ele>
        <time>2022-01-13T09:42:22.000Z</time>
      </trkpt>
      <trkpt lat="43.81541" lon="7.24106">
        <ele>518.40002441406</ele>
        <time>2022-01-13T09:42:25.000Z</time>
      </trkpt>
      <trkpt lat="43.81541" lon="7.2411">
        <ele>518.59997558594</ele>
        <time>2022-01-13T09:42:26.000Z</time>
      </trkpt>
      <trkpt lat="43.81539" lon="7.2412">
        <ele>519.59997558594</ele>
        <time>2022-01-13T09:42:29.000Z</time>
      </trkpt>
      <trkpt lat="43.81538" lon="7.24124">
        <ele>520.20001220703</ele>
        <time>2022-01-13T09:42:30.000Z</time>
      </trkpt>
      <trkpt lat="43.81538" lon="7.24133">
        <ele>520.79998779297</ele>
        <time>2022-01-13T09:42:32.000Z</time>
      </trkpt>
      <trkpt lat="43.81541" lon="7.24155">
        <ele>521.79998779297</ele>
        <time>2022-01-13T09:42:37.000Z</time>
      </trkpt>
      <trkpt lat="43.81543" lon="7.24159">
        <ele>522</ele>
        <time>2022-01-13T09:42:38.000Z</time>
      </trkpt>
      <trkpt lat="43.81554" lon="7.24173">
        <ele>522.59997558594</ele>
        <time>2022-01-13T09:42:43.000Z</time>
      </trkpt>
      <trkpt lat="43.8156" lon="7.24176">
        <ele>523.20001220703</ele>
        <time>2022-01-13T09:42:45.000Z</time>
      </trkpt>
      <trkpt lat="43.81566" lon="7.24178">
        <ele>524.20001220703</ele>
        <time>2022-01-13T09:42:47.000Z</time>
      </trkpt>
      <trkpt lat="43.81569" lon="7.24179">
        <ele>524.59997558594</ele>
        <time>2022-01-13T09:42:48.000Z</time>
      </trkpt>
      <trkpt lat="43.81572" lon="7.2418">
        <ele>525.20001220703</ele>
        <time>2022-01-13T09:42:49.000Z</time>
      </trkpt>
      <trkpt lat="43.81585" lon="7.24182">
        <ele>526</ele>
        <time>2022-01-13T09:42:53.000Z</time>
      </trkpt>
      <trkpt lat="43.81592" lon="7.24181">
        <ele>526.20001220703</ele>
        <time>2022-01-13T09:42:55.000Z</time>
      </trkpt>
      <trkpt lat="43.81597" lon="7.2418">
        <ele>526.20001220703</ele>
        <time>2022-01-13T09:42:56.000Z</time>
      </trkpt>
      <trkpt lat="43.81603" lon="7.2418">
        <ele>526.20001220703</ele>
        <time>2022-01-13T09:42:57.000Z</time>
      </trkpt>
      <trkpt lat="43.8162" lon="7.2418">
        <ele>524.79998779297</ele>
        <time>2022-01-13T09:43:00.000Z</time>
      </trkpt>
      <trkpt lat="43.81632" lon="7.24181">
        <ele>523</ele>
        <time>2022-01-13T09:43:02.000Z</time>
      </trkpt>
      <trkpt lat="43.81642" lon="7.24183">
        <ele>521.79998779297</ele>
        <time>2022-01-13T09:43:04.000Z</time>
      </trkpt>
      <trkpt lat="43.81647" lon="7.24186">
        <ele>521.59997558594</ele>
        <time>2022-01-13T09:43:05.000Z</time>
      </trkpt>
      <trkpt lat="43.81653" lon="7.24201">
        <ele>522</ele>
        <time>2022-01-13T09:43:08.000Z</time>
      </trkpt>
      <trkpt lat="43.81655" lon="7.24207">
        <ele>522</ele>
        <time>2022-01-13T09:43:09.000Z</time>
      </trkpt>
      <trkpt lat="43.81657" lon="7.24213">
        <ele>522</ele>
        <time>2022-01-13T09:43:10.000Z</time>
      </trkpt>
      <trkpt lat="43.81665" lon="7.24236">
        <ele>521.59997558594</ele>
        <time>2022-01-13T09:43:14.000Z</time>
      </trkpt>
      <trkpt lat="43.81671" lon="7.24245">
        <ele>521.20001220703</ele>
        <time>2022-01-13T09:43:16.000Z</time>
      </trkpt>
      <trkpt lat="43.81681" lon="7.24251">
        <ele>520.79998779297</ele>
        <time>2022-01-13T09:43:18.000Z</time>
      </trkpt>
      <trkpt lat="43.81698" lon="7.24259">
        <ele>520</ele>
        <time>2022-01-13T09:43:22.000Z</time>
      </trkpt>
      <trkpt lat="43.81706" lon="7.24259">
        <ele>520</ele>
        <time>2022-01-13T09:43:25.000Z</time>
      </trkpt>
      <trkpt lat="43.81716" lon="7.24261">
        <ele>519.59997558594</ele>
        <time>2022-01-13T09:43:28.000Z</time>
      </trkpt>
      <trkpt lat="43.81718" lon="7.24263">
        <ele>519.40002441406</ele>
        <time>2022-01-13T09:43:29.000Z</time>
      </trkpt>
      <trkpt lat="43.81721" lon="7.24264">
        <ele>518.59997558594</ele>
        <time>2022-01-13T09:43:32.000Z</time>
      </trkpt>
      <trkpt lat="43.81722" lon="7.24262">
        <ele>518.40002441406</ele>
        <time>2022-01-13T09:43:33.000Z</time>
      </trkpt>
      <trkpt lat="43.81727" lon="7.24246">
        <ele>518.20001220703</ele>
        <time>2022-01-13T09:43:37.000Z</time>
      </trkpt>
      <trkpt lat="43.81733" lon="7.24235">
        <ele>517.40002441406</ele>
        <time>2022-01-13T09:43:40.000Z</time>
      </trkpt>
      <trkpt lat="43.81736" lon="7.24232">
        <ele>517</ele>
        <time>2022-01-13T09:43:41.000Z</time>
      </trkpt>
      <trkpt lat="43.81738" lon="7.2423">
        <ele>516.40002441406</ele>
        <time>2022-01-13T09:43:42.000Z</time>
      </trkpt>
      <trkpt lat="43.81741" lon="7.24224">
        <ele>516.20001220703</ele>
        <time>2022-01-13T09:43:45.000Z</time>
      </trkpt>
      <trkpt lat="43.81743" lon="7.24222">
        <ele>516.40002441406</ele>
        <time>2022-01-13T09:43:46.000Z</time>
      </trkpt>
      <trkpt lat="43.81746" lon="7.24224">
        <ele>516.79998779297</ele>
        <time>2022-01-13T09:43:48.000Z</time>
      </trkpt>
      <trkpt lat="43.81745" lon="7.24227">
        <ele>516.79998779297</ele>
        <time>2022-01-13T09:43:51.000Z</time>
      </trkpt>
      <trkpt lat="43.81746" lon="7.24227">
        <ele>517.20001220703</ele>
        <time>2022-01-13T09:44:02.000Z</time>
      </trkpt>
      <trkpt lat="43.81746" lon="7.24226">
        <ele>516.59997558594</ele>
        <time>2022-01-13T09:44:07.000Z</time>
      </trkpt>
      <trkpt lat="43.81746" lon="7.24226">
        <ele>516.59997558594</ele>
        <time>2022-01-13T09:44:12.000Z</time>
      </trkpt>
      <trkpt lat="43.81746" lon="7.24224">
        <ele>516.59997558594</ele>
        <time>2022-01-13T09:44:13.000Z</time>
      </trkpt>
      <trkpt lat="43.81745" lon="7.24223">
        <ele>516.79998779297</ele>
        <time>2022-01-13T09:44:17.000Z</time>
      </trkpt>
      <trkpt lat="43.81747" lon="7.24221">
        <ele>516.40002441406</ele>
        <time>2022-01-13T09:44:23.000Z</time>
      </trkpt>
      <trkpt lat="43.81747" lon="7.24221">
        <ele>516</ele>
        <time>2022-01-13T09:44:43.000Z</time>
      </trkpt>
      <trkpt lat="43.81746" lon="7.24223">
        <ele>516</ele>
        <time>2022-01-13T09:44:53.000Z</time>
      </trkpt>
      <trkpt lat="43.81746" lon="7.24225">
        <ele>516.20001220703</ele>
        <time>2022-01-13T09:45:00.000Z</time>
      </trkpt>
      <trkpt lat="43.81746" lon="7.24227">
        <ele>516.20001220703</ele>
        <time>2022-01-13T09:45:06.000Z</time>
      </trkpt>
      <trkpt lat="43.81746" lon="7.24228">
        <ele>516.59997558594</ele>
        <time>2022-01-13T09:45:14.000Z</time>
      </trkpt>
      <trkpt lat="43.81746" lon="7.24229">
        <ele>516.40002441406</ele>
        <time>2022-01-13T09:45:28.000Z</time>
      </trkpt>
      <trkpt lat="43.81746" lon="7.24229">
        <ele>516.40002441406</ele>
        <time>2022-01-13T09:45:38.000Z</time>
      </trkpt>
      <trkpt lat="43.81747" lon="7.24229">
        <ele>516.59997558594</ele>
        <time>2022-01-13T09:45:45.000Z</time>
      </trkpt>
      <trkpt lat="43.81747" lon="7.24229">
        <ele>516.20001220703</ele>
        <time>2022-01-13T09:45:54.000Z</time>
      </trkpt>
      <trkpt lat="43.81747" lon="7.24228">
        <ele>516.40002441406</ele>
        <time>2022-01-13T09:46:05.000Z</time>
      </trkpt>
      <trkpt lat="43.81746" lon="7.24228">
        <ele>515.20001220703</ele>
        <time>2022-01-13T09:46:12.000Z</time>
      </trkpt>
      <trkpt lat="43.81746" lon="7.24228">
        <ele>515</ele>
        <time>2022-01-13T09:46:14.000Z</time>
      </trkpt>
      <trkpt lat="43.81746" lon="7.24228">
        <ele>515.59997558594</ele>
        <time>2022-01-13T09:46:23.000Z</time>
      </trkpt>
      <trkpt lat="43.81746" lon="7.24227">
        <ele>515.79998779297</ele>
        <time>2022-01-13T09:46:32.000Z</time>
      </trkpt>
      <trkpt lat="43.81746" lon="7.24227">
        <ele>515.79998779297</ele>
        <time>2022-01-13T09:46:36.000Z</time>
      </trkpt>
      <trkpt lat="43.81747" lon="7.24226">
        <ele>515.59997558594</ele>
        <time>2022-01-13T09:46:43.000Z</time>
      </trkpt>
      <trkpt lat="43.8175" lon="7.24227">
        <ele>515.59997558594</ele>
        <time>2022-01-13T09:46:48.000Z</time>
      </trkpt>
      <trkpt lat="43.8175" lon="7.24227">
        <ele>515.79998779297</ele>
        <time>2022-01-13T09:46:50.000Z</time>
      </trkpt>
      <trkpt lat="43.81747" lon="7.24227">
        <ele>516.20001220703</ele>
        <time>2022-01-13T09:46:53.000Z</time>
      </trkpt>
      <trkpt lat="43.81741" lon="7.24233">
        <ele>516</ele>
        <time>2022-01-13T09:46:58.000Z</time>
      </trkpt>
      <trkpt lat="43.81734" lon="7.24248">
        <ele>515.59997558594</ele>
        <time>2022-01-13T09:47:03.000Z</time>
      </trkpt>
      <trkpt lat="43.8173" lon="7.24257">
        <ele>515.79998779297</ele>
        <time>2022-01-13T09:47:07.000Z</time>
      </trkpt>
      <trkpt lat="43.81729" lon="7.2426">
        <ele>516.20001220703</ele>
        <time>2022-01-13T09:47:09.000Z</time>
      </trkpt>
      <trkpt lat="43.81729" lon="7.24261">
        <ele>516.79998779297</ele>
        <time>2022-01-13T09:47:11.000Z</time>
      </trkpt>
      <trkpt lat="43.81729" lon="7.24263">
        <ele>517.20001220703</ele>
        <time>2022-01-13T09:47:13.000Z</time>
      </trkpt>
      <trkpt lat="43.81728" lon="7.24265">
        <ele>517.40002441406</ele>
        <time>2022-01-13T09:47:16.000Z</time>
      </trkpt>
      <trkpt lat="43.81728" lon="7.24268">
        <ele>517.59997558594</ele>
        <time>2022-01-13T09:47:24.000Z</time>
      </trkpt>
      <trkpt lat="43.81729" lon="7.24272">
        <ele>517.40002441406</ele>
        <time>2022-01-13T09:47:29.000Z</time>
      </trkpt>
      <trkpt lat="43.81729" lon="7.24273">
        <ele>517.40002441406</ele>
        <time>2022-01-13T09:47:30.000Z</time>
      </trkpt>
      <trkpt lat="43.81729" lon="7.24277">
        <ele>516.59997558594</ele>
        <time>2022-01-13T09:47:34.000Z</time>
      </trkpt>
      <trkpt lat="43.81726" lon="7.24287">
        <ele>516.20001220703</ele>
        <time>2022-01-13T09:47:37.000Z</time>
      </trkpt>
      <trkpt lat="43.81724" lon="7.24291">
        <ele>515.40002441406</ele>
        <time>2022-01-13T09:47:39.000Z</time>
      </trkpt>
      <trkpt lat="43.81724" lon="7.24295">
        <ele>515</ele>
        <time>2022-01-13T09:47:41.000Z</time>
      </trkpt>
      <trkpt lat="43.81721" lon="7.243">
        <ele>514.20001220703</ele>
        <time>2022-01-13T09:47:43.000Z</time>
      </trkpt>
      <trkpt lat="43.8172" lon="7.24301">
        <ele>514</ele>
        <time>2022-01-13T09:47:44.000Z</time>
      </trkpt>
      <trkpt lat="43.81718" lon="7.24303">
        <ele>513.59997558594</ele>
        <time>2022-01-13T09:47:45.000Z</time>
      </trkpt>
      <trkpt lat="43.81713" lon="7.24307">
        <ele>512.59997558594</ele>
        <time>2022-01-13T09:47:47.000Z</time>
      </trkpt>
      <trkpt lat="43.8171" lon="7.24309">
        <ele>512</ele>
        <time>2022-01-13T09:47:48.000Z</time>
      </trkpt>
      <trkpt lat="43.81706" lon="7.24311">
        <ele>511.20001220703</ele>
        <time>2022-01-13T09:47:49.000Z</time>
      </trkpt>
      <trkpt lat="43.81701" lon="7.24313">
        <ele>510.20001220703</ele>
        <time>2022-01-13T09:47:51.000Z</time>
      </trkpt>
      <trkpt lat="43.81699" lon="7.24315">
        <ele>510</ele>
        <time>2022-01-13T09:47:52.000Z</time>
      </trkpt>
      <trkpt lat="43.81686" lon="7.24329">
        <ele>510.60000610352</ele>
        <time>2022-01-13T09:47:56.000Z</time>
      </trkpt>
      <trkpt lat="43.81674" lon="7.24337">
        <ele>510</ele>
        <time>2022-01-13T09:47:59.000Z</time>
      </trkpt>
      <trkpt lat="43.81664" lon="7.24347">
        <ele>510.20001220703</ele>
        <time>2022-01-13T09:48:02.000Z</time>
      </trkpt>
      <trkpt lat="43.81643" lon="7.24368">
        <ele>510</ele>
        <time>2022-01-13T09:48:07.000Z</time>
      </trkpt>
      <trkpt lat="43.81639" lon="7.24371">
        <ele>510</ele>
        <time>2022-01-13T09:48:08.000Z</time>
      </trkpt>
      <trkpt lat="43.81624" lon="7.24382">
        <ele>510.39999389648</ele>
        <time>2022-01-13T09:48:12.000Z</time>
      </trkpt>
      <trkpt lat="43.81614" lon="7.24389">
        <ele>511</ele>
        <time>2022-01-13T09:48:15.000Z</time>
      </trkpt>
      <trkpt lat="43.8161" lon="7.24392">
        <ele>511.39999389648</ele>
        <time>2022-01-13T09:48:16.000Z</time>
      </trkpt>
      <trkpt lat="43.81594" lon="7.24407">
        <ele>512</ele>
        <time>2022-01-13T09:48:20.000Z</time>
      </trkpt>
      <trkpt lat="43.8159" lon="7.24411">
        <ele>511.60000610352</ele>
        <time>2022-01-13T09:48:21.000Z</time>
      </trkpt>
      <trkpt lat="43.8157" lon="7.24425">
        <ele>510.20001220703</ele>
        <time>2022-01-13T09:48:25.000Z</time>
      </trkpt>
      <trkpt lat="43.81565" lon="7.24427">
        <ele>509.79998779297</ele>
        <time>2022-01-13T09:48:26.000Z</time>
      </trkpt>
      <trkpt lat="43.81554" lon="7.2443">
        <ele>509</ele>
        <time>2022-01-13T09:48:28.000Z</time>
      </trkpt>
      <trkpt lat="43.81551" lon="7.24431">
        <ele>508.60000610352</ele>
        <time>2022-01-13T09:48:29.000Z</time>
      </trkpt>
      <trkpt lat="43.81547" lon="7.24433">
        <ele>508.39999389648</ele>
        <time>2022-01-13T09:48:30.000Z</time>
      </trkpt>
      <trkpt lat="43.81544" lon="7.24435">
        <ele>508.39999389648</ele>
        <time>2022-01-13T09:48:33.000Z</time>
      </trkpt>
      <trkpt lat="43.81547" lon="7.24437">
        <ele>507.79998779297</ele>
        <time>2022-01-13T09:48:35.000Z</time>
      </trkpt>
      <trkpt lat="43.81549" lon="7.24439">
        <ele>507.39999389648</ele>
        <time>2022-01-13T09:48:36.000Z</time>
      </trkpt>
      <trkpt lat="43.8155" lon="7.2444">
        <ele>506.79998779297</ele>
        <time>2022-01-13T09:48:37.000Z</time>
      </trkpt>
      <trkpt lat="43.81551" lon="7.24441">
        <ele>505.60000610352</ele>
        <time>2022-01-13T09:48:38.000Z</time>
      </trkpt>
      <trkpt lat="43.81551" lon="7.24443">
        <ele>504.79998779297</ele>
        <time>2022-01-13T09:48:39.000Z</time>
      </trkpt>
      <trkpt lat="43.8155" lon="7.24444">
        <ele>504</ele>
        <time>2022-01-13T09:48:40.000Z</time>
      </trkpt>
      <trkpt lat="43.81546" lon="7.24446">
        <ele>502.60000610352</ele>
        <time>2022-01-13T09:48:42.000Z</time>
      </trkpt>
      <trkpt lat="43.81547" lon="7.24448">
        <ele>501.60000610352</ele>
        <time>2022-01-13T09:48:44.000Z</time>
      </trkpt>
      <trkpt lat="43.8155" lon="7.2445">
        <ele>501</ele>
        <time>2022-01-13T09:48:45.000Z</time>
      </trkpt>
      <trkpt lat="43.81552" lon="7.24452">
        <ele>500.20001220703</ele>
        <time>2022-01-13T09:48:46.000Z</time>
      </trkpt>
      <trkpt lat="43.81556" lon="7.24455">
        <ele>498.39999389648</ele>
        <time>2022-01-13T09:48:48.000Z</time>
      </trkpt>
      <trkpt lat="43.81557" lon="7.24458">
        <ele>497.60000610352</ele>
        <time>2022-01-13T09:48:49.000Z</time>
      </trkpt>
      <trkpt lat="43.81556" lon="7.24459">
        <ele>496.60000610352</ele>
        <time>2022-01-13T09:48:50.000Z</time>
      </trkpt>
      <trkpt lat="43.81554" lon="7.2446">
        <ele>495.60000610352</ele>
        <time>2022-01-13T09:48:51.000Z</time>
      </trkpt>
      <trkpt lat="43.81553" lon="7.24462">
        <ele>494.60000610352</ele>
        <time>2022-01-13T09:48:52.000Z</time>
      </trkpt>
      <trkpt lat="43.81553" lon="7.24466">
        <ele>492.79998779297</ele>
        <time>2022-01-13T09:48:54.000Z</time>
      </trkpt>
      <trkpt lat="43.81555" lon="7.24467">
        <ele>492</ele>
        <time>2022-01-13T09:48:55.000Z</time>
      </trkpt>
      <trkpt lat="43.81557" lon="7.24468">
        <ele>491.20001220703</ele>
        <time>2022-01-13T09:48:56.000Z</time>
      </trkpt>
      <trkpt lat="43.81559" lon="7.24471">
        <ele>489.60000610352</ele>
        <time>2022-01-13T09:48:58.000Z</time>
      </trkpt>
      <trkpt lat="43.81557" lon="7.24474">
        <ele>488.39999389648</ele>
        <time>2022-01-13T09:49:00.000Z</time>
      </trkpt>
      <trkpt lat="43.81555" lon="7.24475">
        <ele>488.20001220703</ele>
        <time>2022-01-13T09:49:01.000Z</time>
      </trkpt>
      <trkpt lat="43.81557" lon="7.24478">
        <ele>487.20001220703</ele>
        <time>2022-01-13T09:49:03.000Z</time>
      </trkpt>
      <trkpt lat="43.81558" lon="7.24479">
        <ele>486.79998779297</ele>
        <time>2022-01-13T09:49:04.000Z</time>
      </trkpt>
      <trkpt lat="43.81562" lon="7.24483">
        <ele>485.79998779297</ele>
        <time>2022-01-13T09:49:06.000Z</time>
      </trkpt>
      <trkpt lat="43.81566" lon="7.24486">
        <ele>484.20001220703</ele>
        <time>2022-01-13T09:49:08.000Z</time>
      </trkpt>
      <trkpt lat="43.81568" lon="7.24486">
        <ele>483.20001220703</ele>
        <time>2022-01-13T09:49:09.000Z</time>
      </trkpt>
      <trkpt lat="43.8157" lon="7.24488">
        <ele>481.60000610352</ele>
        <time>2022-01-13T09:49:10.000Z</time>
      </trkpt>
      <trkpt lat="43.81569" lon="7.2449">
        <ele>479.79998779297</ele>
        <time>2022-01-13T09:49:12.000Z</time>
      </trkpt>
      <trkpt lat="43.81568" lon="7.24493">
        <ele>478.60000610352</ele>
        <time>2022-01-13T09:49:14.000Z</time>
      </trkpt>
      <trkpt lat="43.81569" lon="7.24494">
        <ele>477.79998779297</ele>
        <time>2022-01-13T09:49:16.000Z</time>
      </trkpt>
      <trkpt lat="43.81569" lon="7.24495">
        <ele>477.39999389648</ele>
        <time>2022-01-13T09:49:17.000Z</time>
      </trkpt>
      <trkpt lat="43.81569" lon="7.24495">
        <ele>476.39999389648</ele>
        <time>2022-01-13T09:49:20.000Z</time>
      </trkpt>
      <trkpt lat="43.81572" lon="7.24497">
        <ele>475.60000610352</ele>
        <time>2022-01-13T09:49:21.000Z</time>
      </trkpt>
      <trkpt lat="43.81571" lon="7.24499">
        <ele>475.20001220703</ele>
        <time>2022-01-13T09:49:23.000Z</time>
      </trkpt>
      <trkpt lat="43.81571" lon="7.24503">
        <ele>474.79998779297</ele>
        <time>2022-01-13T09:49:25.000Z</time>
      </trkpt>
      <trkpt lat="43.81571" lon="7.24505">
        <ele>474.20001220703</ele>
        <time>2022-01-13T09:49:27.000Z</time>
      </trkpt>
      <trkpt lat="43.8157" lon="7.24506">
        <ele>473.79998779297</ele>
        <time>2022-01-13T09:49:28.000Z</time>
      </trkpt>
      <trkpt lat="43.81569" lon="7.24507">
        <ele>473.39999389648</ele>
        <time>2022-01-13T09:49:29.000Z</time>
      </trkpt>
      <trkpt lat="43.81569" lon="7.24509">
        <ele>473</ele>
        <time>2022-01-13T09:49:30.000Z</time>
      </trkpt>
      <trkpt lat="43.81571" lon="7.2451">
        <ele>472.20001220703</ele>
        <time>2022-01-13T09:49:32.000Z</time>
      </trkpt>
      <trkpt lat="43.81573" lon="7.24512">
        <ele>471.79998779297</ele>
        <time>2022-01-13T09:49:33.000Z</time>
      </trkpt>
      <trkpt lat="43.81579" lon="7.24513">
        <ele>470.20001220703</ele>
        <time>2022-01-13T09:49:35.000Z</time>
      </trkpt>
      <trkpt lat="43.81583" lon="7.24514">
        <ele>469.20001220703</ele>
        <time>2022-01-13T09:49:36.000Z</time>
      </trkpt>
      <trkpt lat="43.81588" lon="7.24513">
        <ele>468</ele>
        <time>2022-01-13T09:49:37.000Z</time>
      </trkpt>
      <trkpt lat="43.81592" lon="7.24513">
        <ele>466.60000610352</ele>
        <time>2022-01-13T09:49:38.000Z</time>
      </trkpt>
      <trkpt lat="43.81597" lon="7.24512">
        <ele>465.39999389648</ele>
        <time>2022-01-13T09:49:39.000Z</time>
      </trkpt>
      <trkpt lat="43.81603" lon="7.24512">
        <ele>464.39999389648</ele>
        <time>2022-01-13T09:49:40.000Z</time>
      </trkpt>
      <trkpt lat="43.81607" lon="7.24511">
        <ele>463.20001220703</ele>
        <time>2022-01-13T09:49:41.000Z</time>
      </trkpt>
      <trkpt lat="43.81611" lon="7.2451">
        <ele>462.20001220703</ele>
        <time>2022-01-13T09:49:42.000Z</time>
      </trkpt>
      <trkpt lat="43.81613" lon="7.24511">
        <ele>461.20001220703</ele>
        <time>2022-01-13T09:49:43.000Z</time>
      </trkpt>
      <trkpt lat="43.81618" lon="7.24514">
        <ele>459.60000610352</ele>
        <time>2022-01-13T09:49:45.000Z</time>
      </trkpt>
      <trkpt lat="43.81626" lon="7.24512">
        <ele>458.20001220703</ele>
        <time>2022-01-13T09:49:47.000Z</time>
      </trkpt>
      <trkpt lat="43.8163" lon="7.2451">
        <ele>457.39999389648</ele>
        <time>2022-01-13T09:49:48.000Z</time>
      </trkpt>
      <trkpt lat="43.81634" lon="7.24508">
        <ele>456.39999389648</ele>
        <time>2022-01-13T09:49:49.000Z</time>
      </trkpt>
      <trkpt lat="43.81638" lon="7.24508">
        <ele>455.20001220703</ele>
        <time>2022-01-13T09:49:50.000Z</time>
      </trkpt>
      <trkpt lat="43.81641" lon="7.24509">
        <ele>454</ele>
        <time>2022-01-13T09:49:51.000Z</time>
      </trkpt>
      <trkpt lat="43.81644" lon="7.24508">
        <ele>452.60000610352</ele>
        <time>2022-01-13T09:49:52.000Z</time>
      </trkpt>
      <trkpt lat="43.81647" lon="7.24508">
        <ele>451.60000610352</ele>
        <time>2022-01-13T09:49:53.000Z</time>
      </trkpt>
      <trkpt lat="43.81656" lon="7.24505">
        <ele>450.20001220703</ele>
        <time>2022-01-13T09:49:55.000Z</time>
      </trkpt>
      <trkpt lat="43.81664" lon="7.24503">
        <ele>448.39999389648</ele>
        <time>2022-01-13T09:49:57.000Z</time>
      </trkpt>
      <trkpt lat="43.81668" lon="7.24501">
        <ele>447.39999389648</ele>
        <time>2022-01-13T09:49:58.000Z</time>
      </trkpt>
      <trkpt lat="43.81671" lon="7.245">
        <ele>446.79998779297</ele>
        <time>2022-01-13T09:49:59.000Z</time>
      </trkpt>
      <trkpt lat="43.81672" lon="7.24501">
        <ele>446</ele>
        <time>2022-01-13T09:50:00.000Z</time>
      </trkpt>
      <trkpt lat="43.81673" lon="7.24502">
        <ele>444.79998779297</ele>
        <time>2022-01-13T09:50:01.000Z</time>
      </trkpt>
      <trkpt lat="43.81671" lon="7.24506">
        <ele>443.20001220703</ele>
        <time>2022-01-13T09:50:03.000Z</time>
      </trkpt>
      <trkpt lat="43.81666" lon="7.24512">
        <ele>442</ele>
        <time>2022-01-13T09:50:05.000Z</time>
      </trkpt>
      <trkpt lat="43.81659" lon="7.24523">
        <ele>440.79998779297</ele>
        <time>2022-01-13T09:50:08.000Z</time>
      </trkpt>
      <trkpt lat="43.81652" lon="7.2453">
        <ele>439.79998779297</ele>
        <time>2022-01-13T09:50:10.000Z</time>
      </trkpt>
      <trkpt lat="43.81649" lon="7.24533">
        <ele>439.39999389648</ele>
        <time>2022-01-13T09:50:11.000Z</time>
      </trkpt>
      <trkpt lat="43.81632" lon="7.24545">
        <ele>439.79998779297</ele>
        <time>2022-01-13T09:50:16.000Z</time>
      </trkpt>
      <trkpt lat="43.81628" lon="7.24548">
        <ele>440.20001220703</ele>
        <time>2022-01-13T09:50:17.000Z</time>
      </trkpt>
      <trkpt lat="43.81613" lon="7.24557">
        <ele>440.60000610352</ele>
        <time>2022-01-13T09:50:21.000Z</time>
      </trkpt>
      <trkpt lat="43.81604" lon="7.24563">
        <ele>440.60000610352</ele>
        <time>2022-01-13T09:50:23.000Z</time>
      </trkpt>
      <trkpt lat="43.81599" lon="7.2457">
        <ele>440.39999389648</ele>
        <time>2022-01-13T09:50:25.000Z</time>
      </trkpt>
      <trkpt lat="43.81599" lon="7.24576">
        <ele>440</ele>
        <time>2022-01-13T09:50:26.000Z</time>
      </trkpt>
      <trkpt lat="43.81599" lon="7.24588">
        <ele>439.79998779297</ele>
        <time>2022-01-13T09:50:28.000Z</time>
      </trkpt>
      <trkpt lat="43.81596" lon="7.24597">
        <ele>439.60000610352</ele>
        <time>2022-01-13T09:50:30.000Z</time>
      </trkpt>
      <trkpt lat="43.81593" lon="7.24601">
        <ele>439.79998779297</ele>
        <time>2022-01-13T09:50:31.000Z</time>
      </trkpt>
      <trkpt lat="43.81581" lon="7.2461">
        <ele>439.39999389648</ele>
        <time>2022-01-13T09:50:34.000Z</time>
      </trkpt>
      <trkpt lat="43.81577" lon="7.24614">
        <ele>439</ele>
        <time>2022-01-13T09:50:35.000Z</time>
      </trkpt>
      <trkpt lat="43.81574" lon="7.24618">
        <ele>438.39999389648</ele>
        <time>2022-01-13T09:50:36.000Z</time>
      </trkpt>
      <trkpt lat="43.8157" lon="7.24629">
        <ele>438.39999389648</ele>
        <time>2022-01-13T09:50:39.000Z</time>
      </trkpt>
      <trkpt lat="43.81577" lon="7.24642">
        <ele>438.20001220703</ele>
        <time>2022-01-13T09:50:42.000Z</time>
      </trkpt>
      <trkpt lat="43.8158" lon="7.24646">
        <ele>437.20001220703</ele>
        <time>2022-01-13T09:50:43.000Z</time>
      </trkpt>
      <trkpt lat="43.81582" lon="7.2465">
        <ele>436.20001220703</ele>
        <time>2022-01-13T09:50:44.000Z</time>
      </trkpt>
      <trkpt lat="43.81583" lon="7.24655">
        <ele>434.79998779297</ele>
        <time>2022-01-13T09:50:45.000Z</time>
      </trkpt>
      <trkpt lat="43.81581" lon="7.24657">
        <ele>433.60000610352</ele>
        <time>2022-01-13T09:50:46.000Z</time>
      </trkpt>
      <trkpt lat="43.8158" lon="7.24661">
        <ele>432.79998779297</ele>
        <time>2022-01-13T09:50:47.000Z</time>
      </trkpt>
      <trkpt lat="43.81577" lon="7.24664">
        <ele>432.20001220703</ele>
        <time>2022-01-13T09:50:48.000Z</time>
      </trkpt>
      <trkpt lat="43.81568" lon="7.24673">
        <ele>431.60000610352</ele>
        <time>2022-01-13T09:50:51.000Z</time>
      </trkpt>
      <trkpt lat="43.81564" lon="7.24676">
        <ele>431.60000610352</ele>
        <time>2022-01-13T09:50:52.000Z</time>
      </trkpt>
      <trkpt lat="43.81555" lon="7.24687">
        <ele>431.39999389648</ele>
        <time>2022-01-13T09:50:55.000Z</time>
      </trkpt>
      <trkpt lat="43.81552" lon="7.24687">
        <ele>431</ele>
        <time>2022-01-13T09:50:56.000Z</time>
      </trkpt>
      <trkpt lat="43.81544" lon="7.24687">
        <ele>429.79998779297</ele>
        <time>2022-01-13T09:50:58.000Z</time>
      </trkpt>
      <trkpt lat="43.81542" lon="7.24686">
        <ele>428.79998779297</ele>
        <time>2022-01-13T09:51:00.000Z</time>
      </trkpt>
      <trkpt lat="43.81541" lon="7.24687">
        <ele>428.20001220703</ele>
        <time>2022-01-13T09:51:01.000Z</time>
      </trkpt>
      <trkpt lat="43.81536" lon="7.24691">
        <ele>428.20001220703</ele>
        <time>2022-01-13T09:51:07.000Z</time>
      </trkpt>
      <trkpt lat="43.81535" lon="7.24695">
        <ele>428</ele>
        <time>2022-01-13T09:51:12.000Z</time>
      </trkpt>
      <trkpt lat="43.81535" lon="7.24696">
        <ele>427.79998779297</ele>
        <time>2022-01-13T09:51:14.000Z</time>
      </trkpt>
      <trkpt lat="43.81536" lon="7.24696">
        <ele>428</ele>
        <time>2022-01-13T09:51:18.000Z</time>
      </trkpt>
      <trkpt lat="43.81538" lon="7.24696">
        <ele>428.39999389648</ele>
        <time>2022-01-13T09:51:27.000Z</time>
      </trkpt>
      <trkpt lat="43.8154" lon="7.24697">
        <ele>428.60000610352</ele>
        <time>2022-01-13T09:51:31.000Z</time>
      </trkpt>
      <trkpt lat="43.81541" lon="7.24698">
        <ele>428.79998779297</ele>
        <time>2022-01-13T09:51:32.000Z</time>
      </trkpt>
      <trkpt lat="43.81542" lon="7.24699">
        <ele>428.79998779297</ele>
        <time>2022-01-13T09:51:33.000Z</time>
      </trkpt>
      <trkpt lat="43.81542" lon="7.24701">
        <ele>429</ele>
        <time>2022-01-13T09:51:34.000Z</time>
      </trkpt>
      <trkpt lat="43.81541" lon="7.24703">
        <ele>429.39999389648</ele>
        <time>2022-01-13T09:51:37.000Z</time>
      </trkpt>
      <trkpt lat="43.81538" lon="7.24703">
        <ele>429.79998779297</ele>
        <time>2022-01-13T09:51:43.000Z</time>
      </trkpt>
      <trkpt lat="43.81536" lon="7.24703">
        <ele>430.20001220703</ele>
        <time>2022-01-13T09:51:46.000Z</time>
      </trkpt>
      <trkpt lat="43.81534" lon="7.24704">
        <ele>431</ele>
        <time>2022-01-13T09:51:50.000Z</time>
      </trkpt>
      <trkpt lat="43.81533" lon="7.24708">
        <ele>431.79998779297</ele>
        <time>2022-01-13T09:51:55.000Z</time>
      </trkpt>
      <trkpt lat="43.81533" lon="7.24709">
        <ele>432</ele>
        <time>2022-01-13T09:51:56.000Z</time>
      </trkpt>
      <trkpt lat="43.81533" lon="7.24711">
        <ele>433</ele>
        <time>2022-01-13T09:52:03.000Z</time>
      </trkpt>
      <trkpt lat="43.81532" lon="7.24711">
        <ele>433</ele>
        <time>2022-01-13T09:52:08.000Z</time>
      </trkpt>
      <trkpt lat="43.81532" lon="7.2471">
        <ele>433</ele>
        <time>2022-01-13T09:52:13.000Z</time>
      </trkpt>
      <trkpt lat="43.81531" lon="7.24708">
        <ele>433</ele>
        <time>2022-01-13T09:52:22.000Z</time>
      </trkpt>
      <trkpt lat="43.81531" lon="7.24705">
        <ele>432.79998779297</ele>
        <time>2022-01-13T09:52:24.000Z</time>
      </trkpt>
      <trkpt lat="43.81535" lon="7.247">
        <ele>432</ele>
        <time>2022-01-13T09:52:29.000Z</time>
      </trkpt>
      <trkpt lat="43.81536" lon="7.247">
        <ele>431.39999389648</ele>
        <time>2022-01-13T09:52:31.000Z</time>
      </trkpt>
      <trkpt lat="43.81536" lon="7.247">
        <ele>430.79998779297</ele>
        <time>2022-01-13T09:52:33.000Z</time>
      </trkpt>
      <trkpt lat="43.81536" lon="7.24697">
        <ele>430</ele>
        <time>2022-01-13T09:52:37.000Z</time>
      </trkpt>
      <trkpt lat="43.81536" lon="7.24697">
        <ele>429.60000610352</ele>
        <time>2022-01-13T09:52:38.000Z</time>
      </trkpt>
      <trkpt lat="43.81533" lon="7.24695">
        <ele>428.39999389648</ele>
        <time>2022-01-13T09:52:42.000Z</time>
      </trkpt>
      <trkpt lat="43.81532" lon="7.24692">
        <ele>428.20001220703</ele>
        <time>2022-01-13T09:52:45.000Z</time>
      </trkpt>
      <trkpt lat="43.81535" lon="7.2469">
        <ele>427.60000610352</ele>
        <time>2022-01-13T09:52:49.000Z</time>
      </trkpt>
      <trkpt lat="43.81535" lon="7.24691">
        <ele>427.79998779297</ele>
        <time>2022-01-13T09:52:55.000Z</time>
      </trkpt>
      <trkpt lat="43.81537" lon="7.24691">
        <ele>427.60000610352</ele>
        <time>2022-01-13T09:52:57.000Z</time>
      </trkpt>
      <trkpt lat="43.81542" lon="7.24693">
        <ele>427.60000610352</ele>
        <time>2022-01-13T09:52:59.000Z</time>
      </trkpt>
      <trkpt lat="43.81545" lon="7.24694">
        <ele>427.60000610352</ele>
        <time>2022-01-13T09:53:00.000Z</time>
      </trkpt>
      <trkpt lat="43.81552" lon="7.24692">
        <ele>428</ele>
        <time>2022-01-13T09:53:03.000Z</time>
      </trkpt>
      <trkpt lat="43.8156" lon="7.24682">
        <ele>429.79998779297</ele>
        <time>2022-01-13T09:53:07.000Z</time>
      </trkpt>
      <trkpt lat="43.81563" lon="7.24679">
        <ele>430</ele>
        <time>2022-01-13T09:53:08.000Z</time>
      </trkpt>
      <trkpt lat="43.8157" lon="7.24672">
        <ele>430.60000610352</ele>
        <time>2022-01-13T09:53:11.000Z</time>
      </trkpt>
      <trkpt lat="43.81572" lon="7.24669">
        <ele>431</ele>
        <time>2022-01-13T09:53:12.000Z</time>
      </trkpt>
      <trkpt lat="43.81579" lon="7.24656">
        <ele>431.20001220703</ele>
        <time>2022-01-13T09:53:16.000Z</time>
      </trkpt>
      <trkpt lat="43.81575" lon="7.24649">
        <ele>430.60000610352</ele>
        <time>2022-01-13T09:53:20.000Z</time>
      </trkpt>
      <trkpt lat="43.81575" lon="7.24646">
        <ele>430.20001220703</ele>
        <time>2022-01-13T09:53:24.000Z</time>
      </trkpt>
      <trkpt lat="43.81575" lon="7.24646">
        <ele>430</ele>
        <time>2022-01-13T09:53:25.000Z</time>
      </trkpt>
      <trkpt lat="43.81577" lon="7.2465">
        <ele>430.20001220703</ele>
        <time>2022-01-13T09:53:28.000Z</time>
      </trkpt>
      <trkpt lat="43.81579" lon="7.24653">
        <ele>430.60000610352</ele>
        <time>2022-01-13T09:53:31.000Z</time>
      </trkpt>
      <trkpt lat="43.8158" lon="7.24656">
        <ele>430.79998779297</ele>
        <time>2022-01-13T09:53:33.000Z</time>
      </trkpt>
      <trkpt lat="43.81579" lon="7.24657">
        <ele>431</ele>
        <time>2022-01-13T09:53:35.000Z</time>
      </trkpt>
      <trkpt lat="43.81578" lon="7.24655">
        <ele>431.60000610352</ele>
        <time>2022-01-13T09:53:40.000Z</time>
      </trkpt>
      <trkpt lat="43.81573" lon="7.24648">
        <ele>431.60000610352</ele>
        <time>2022-01-13T09:53:46.000Z</time>
      </trkpt>
      <trkpt lat="43.81565" lon="7.24639">
        <ele>432</ele>
        <time>2022-01-13T09:53:50.000Z</time>
      </trkpt>
      <trkpt lat="43.81566" lon="7.24636">
        <ele>432.79998779297</ele>
        <time>2022-01-13T09:53:51.000Z</time>
      </trkpt>
      <trkpt lat="43.81567" lon="7.24634">
        <ele>433.60000610352</ele>
        <time>2022-01-13T09:53:52.000Z</time>
      </trkpt>
      <trkpt lat="43.81568" lon="7.24631">
        <ele>434.79998779297</ele>
        <time>2022-01-13T09:53:53.000Z</time>
      </trkpt>
      <trkpt lat="43.81569" lon="7.24628">
        <ele>435.79998779297</ele>
        <time>2022-01-13T09:53:54.000Z</time>
      </trkpt>
      <trkpt lat="43.81572" lon="7.24624">
        <ele>437.60000610352</ele>
        <time>2022-01-13T09:53:56.000Z</time>
      </trkpt>
      <trkpt lat="43.81576" lon="7.24619">
        <ele>438.60000610352</ele>
        <time>2022-01-13T09:53:58.000Z</time>
      </trkpt>
      <trkpt lat="43.81588" lon="7.2461">
        <ele>438</ele>
        <time>2022-01-13T09:54:03.000Z</time>
      </trkpt>
      <trkpt lat="43.81593" lon="7.246">
        <ele>438.79998779297</ele>
        <time>2022-01-13T09:54:07.000Z</time>
      </trkpt>
      <trkpt lat="43.81594" lon="7.24584">
        <ele>439</ele>
        <time>2022-01-13T09:54:12.000Z</time>
      </trkpt>
      <trkpt lat="43.816" lon="7.24575">
        <ele>439.39999389648</ele>
        <time>2022-01-13T09:54:16.000Z</time>
      </trkpt>
      <trkpt lat="43.81603" lon="7.24573">
        <ele>439.60000610352</ele>
        <time>2022-01-13T09:54:18.000Z</time>
      </trkpt>
      <trkpt lat="43.81608" lon="7.24568">
        <ele>439.79998779297</ele>
        <time>2022-01-13T09:54:22.000Z</time>
      </trkpt>
      <trkpt lat="43.81618" lon="7.24561">
        <ele>440.60000610352</ele>
        <time>2022-01-13T09:54:27.000Z</time>
      </trkpt>
      <trkpt lat="43.8162" lon="7.2456">
        <ele>440.60000610352</ele>
        <time>2022-01-13T09:54:28.000Z</time>
      </trkpt>
      <trkpt lat="43.81629" lon="7.24553">
        <ele>440.39999389648</ele>
        <time>2022-01-13T09:54:32.000Z</time>
      </trkpt>
      <trkpt lat="43.81641" lon="7.24543">
        <ele>440</ele>
        <time>2022-01-13T09:54:36.000Z</time>
      </trkpt>
      <trkpt lat="43.8165" lon="7.24534">
        <ele>439.39999389648</ele>
        <time>2022-01-13T09:54:39.000Z</time>
      </trkpt>
      <trkpt lat="43.81655" lon="7.24526">
        <ele>438.60000610352</ele>
        <time>2022-01-13T09:54:41.000Z</time>
      </trkpt>
      <trkpt lat="43.81665" lon="7.24515">
        <ele>439</ele>
        <time>2022-01-13T09:54:45.000Z</time>
      </trkpt>
      <trkpt lat="43.81672" lon="7.24507">
        <ele>440.39999389648</ele>
        <time>2022-01-13T09:54:49.000Z</time>
      </trkpt>
      <trkpt lat="43.81673" lon="7.24504">
        <ele>440.79998779297</ele>
        <time>2022-01-13T09:54:50.000Z</time>
      </trkpt>
      <trkpt lat="43.81679" lon="7.24494">
        <ele>441.60000610352</ele>
        <time>2022-01-13T09:54:54.000Z</time>
      </trkpt>
      <trkpt lat="43.81679" lon="7.24491">
        <ele>441.60000610352</ele>
        <time>2022-01-13T09:54:55.000Z</time>
      </trkpt>
      <trkpt lat="43.81687" lon="7.24483">
        <ele>441.60000610352</ele>
        <time>2022-01-13T09:54:58.000Z</time>
      </trkpt>
      <trkpt lat="43.81693" lon="7.24476">
        <ele>440.39999389648</ele>
        <time>2022-01-13T09:55:00.000Z</time>
      </trkpt>
      <trkpt lat="43.81698" lon="7.24472">
        <ele>438.39999389648</ele>
        <time>2022-01-13T09:55:02.000Z</time>
      </trkpt>
      <trkpt lat="43.81701" lon="7.24471">
        <ele>438</ele>
        <time>2022-01-13T09:55:03.000Z</time>
      </trkpt>
      <trkpt lat="43.81708" lon="7.24466">
        <ele>438.20001220703</ele>
        <time>2022-01-13T09:55:07.000Z</time>
      </trkpt>
      <trkpt lat="43.81717" lon="7.24454">
        <ele>438.20001220703</ele>
        <time>2022-01-13T09:55:11.000Z</time>
      </trkpt>
      <trkpt lat="43.81724" lon="7.24448">
        <ele>438.60000610352</ele>
        <time>2022-01-13T09:55:14.000Z</time>
      </trkpt>
      <trkpt lat="43.81727" lon="7.24448">
        <ele>438.79998779297</ele>
        <time>2022-01-13T09:55:15.000Z</time>
      </trkpt>
      <trkpt lat="43.81732" lon="7.24443">
        <ele>438.79998779297</ele>
        <time>2022-01-13T09:55:18.000Z</time>
      </trkpt>
      <trkpt lat="43.81739" lon="7.24437">
        <ele>439.39999389648</ele>
        <time>2022-01-13T09:55:23.000Z</time>
      </trkpt>
      <trkpt lat="43.81743" lon="7.24434">
        <ele>439.79998779297</ele>
        <time>2022-01-13T09:55:28.000Z</time>
      </trkpt>
      <trkpt lat="43.81748" lon="7.24429">
        <ele>440</ele>
        <time>2022-01-13T09:55:35.000Z</time>
      </trkpt>
      <trkpt lat="43.81752" lon="7.24424">
        <ele>440</ele>
        <time>2022-01-13T09:55:38.000Z</time>
      </trkpt>
      <trkpt lat="43.81756" lon="7.24421">
        <ele>439.79998779297</ele>
        <time>2022-01-13T09:55:40.000Z</time>
      </trkpt>
      <trkpt lat="43.81757" lon="7.2442">
        <ele>438.60000610352</ele>
        <time>2022-01-13T09:55:45.000Z</time>
      </trkpt>
      <trkpt lat="43.8176" lon="7.24416">
        <ele>438.60000610352</ele>
        <time>2022-01-13T09:55:53.000Z</time>
      </trkpt>
      <trkpt lat="43.81765" lon="7.2441">
        <ele>438.39999389648</ele>
        <time>2022-01-13T09:55:58.000Z</time>
      </trkpt>
      <trkpt lat="43.81767" lon="7.24408">
        <ele>438.39999389648</ele>
        <time>2022-01-13T09:55:59.000Z</time>
      </trkpt>
      <trkpt lat="43.81778" lon="7.2439">
        <ele>437.79998779297</ele>
        <time>2022-01-13T09:56:04.000Z</time>
      </trkpt>
      <trkpt lat="43.81783" lon="7.24382">
        <ele>437.79998779297</ele>
        <time>2022-01-13T09:56:08.000Z</time>
      </trkpt>
      <trkpt lat="43.81786" lon="7.24377">
        <ele>437.79998779297</ele>
        <time>2022-01-13T09:56:11.000Z</time>
      </trkpt>
      <trkpt lat="43.81789" lon="7.24371">
        <ele>437.60000610352</ele>
        <time>2022-01-13T09:56:13.000Z</time>
      </trkpt>
      <trkpt lat="43.81795" lon="7.24359">
        <ele>437.39999389648</ele>
        <time>2022-01-13T09:56:16.000Z</time>
      </trkpt>
      <trkpt lat="43.81798" lon="7.24353">
        <ele>437.20001220703</ele>
        <time>2022-01-13T09:56:18.000Z</time>
      </trkpt>
      <trkpt lat="43.81802" lon="7.2435">
        <ele>436.39999389648</ele>
        <time>2022-01-13T09:56:21.000Z</time>
      </trkpt>
      <trkpt lat="43.81803" lon="7.24348">
        <ele>435.79998779297</ele>
        <time>2022-01-13T09:56:23.000Z</time>
      </trkpt>
      <trkpt lat="43.81803" lon="7.24348">
        <ele>435.79998779297</ele>
        <time>2022-01-13T09:56:24.000Z</time>
      </trkpt>
      <trkpt lat="43.81805" lon="7.24346">
        <ele>435.20001220703</ele>
        <time>2022-01-13T09:56:26.000Z</time>
      </trkpt>
      <trkpt lat="43.81807" lon="7.24343">
        <ele>434.20001220703</ele>
        <time>2022-01-13T09:56:31.000Z</time>
      </trkpt>
      <trkpt lat="43.81808" lon="7.24343">
        <ele>434.20001220703</ele>
        <time>2022-01-13T09:56:32.000Z</time>
      </trkpt>
      <trkpt lat="43.81815" lon="7.24339">
        <ele>433.39999389648</ele>
        <time>2022-01-13T09:56:36.000Z</time>
      </trkpt>
      <trkpt lat="43.81817" lon="7.24338">
        <ele>433</ele>
        <time>2022-01-13T09:56:37.000Z</time>
      </trkpt>
      <trkpt lat="43.81818" lon="7.24337">
        <ele>431.79998779297</ele>
        <time>2022-01-13T09:56:39.000Z</time>
      </trkpt>
      <trkpt lat="43.81819" lon="7.24337">
        <ele>431.20001220703</ele>
        <time>2022-01-13T09:56:40.000Z</time>
      </trkpt>
      <trkpt lat="43.8182" lon="7.24336">
        <ele>430.60000610352</ele>
        <time>2022-01-13T09:56:41.000Z</time>
      </trkpt>
      <trkpt lat="43.81828" lon="7.2433">
        <ele>430</ele>
        <time>2022-01-13T09:56:46.000Z</time>
      </trkpt>
      <trkpt lat="43.81829" lon="7.24331">
        <ele>429.60000610352</ele>
        <time>2022-01-13T09:56:47.000Z</time>
      </trkpt>
      <trkpt lat="43.81831" lon="7.24332">
        <ele>429.20001220703</ele>
        <time>2022-01-13T09:56:48.000Z</time>
      </trkpt>
      <trkpt lat="43.81833" lon="7.24334">
        <ele>428.79998779297</ele>
        <time>2022-01-13T09:56:49.000Z</time>
      </trkpt>
      <trkpt lat="43.81838" lon="7.24338">
        <ele>427.79998779297</ele>
        <time>2022-01-13T09:56:51.000Z</time>
      </trkpt>
      <trkpt lat="43.81841" lon="7.24341">
        <ele>426.79998779297</ele>
        <time>2022-01-13T09:56:52.000Z</time>
      </trkpt>
      <trkpt lat="43.81844" lon="7.24343">
        <ele>426.20001220703</ele>
        <time>2022-01-13T09:56:53.000Z</time>
      </trkpt>
      <trkpt lat="43.8185" lon="7.24349">
        <ele>424.39999389648</ele>
        <time>2022-01-13T09:56:55.000Z</time>
      </trkpt>
      <trkpt lat="43.81857" lon="7.24355">
        <ele>422.79998779297</ele>
        <time>2022-01-13T09:56:57.000Z</time>
      </trkpt>
      <trkpt lat="43.81859" lon="7.24358">
        <ele>422.39999389648</ele>
        <time>2022-01-13T09:56:58.000Z</time>
      </trkpt>
      <trkpt lat="43.81861" lon="7.24361">
        <ele>421.79998779297</ele>
        <time>2022-01-13T09:56:59.000Z</time>
      </trkpt>
      <trkpt lat="43.81864" lon="7.24363">
        <ele>421.20001220703</ele>
        <time>2022-01-13T09:57:00.000Z</time>
      </trkpt>
      <trkpt lat="43.81869" lon="7.24365">
        <ele>420</ele>
        <time>2022-01-13T09:57:02.000Z</time>
      </trkpt>
      <trkpt lat="43.8187" lon="7.24364">
        <ele>419.20001220703</ele>
        <time>2022-01-13T09:57:03.000Z</time>
      </trkpt>
      <trkpt lat="43.81872" lon="7.24362">
        <ele>418.60000610352</ele>
        <time>2022-01-13T09:57:04.000Z</time>
      </trkpt>
      <trkpt lat="43.81873" lon="7.24357">
        <ele>418.39999389648</ele>
        <time>2022-01-13T09:57:05.000Z</time>
      </trkpt>
      <trkpt lat="43.81877" lon="7.24346">
        <ele>417.60000610352</ele>
        <time>2022-01-13T09:57:07.000Z</time>
      </trkpt>
      <trkpt lat="43.81879" lon="7.24341">
        <ele>417.39999389648</ele>
        <time>2022-01-13T09:57:08.000Z</time>
      </trkpt>
      <trkpt lat="43.81884" lon="7.24329">
        <ele>416.39999389648</ele>
        <time>2022-01-13T09:57:10.000Z</time>
      </trkpt>
      <trkpt lat="43.81891" lon="7.24315">
        <ele>414.79998779297</ele>
        <time>2022-01-13T09:57:13.000Z</time>
      </trkpt>
      <trkpt lat="43.81896" lon="7.24304">
        <ele>415</ele>
        <time>2022-01-13T09:57:15.000Z</time>
      </trkpt>
      <trkpt lat="43.81909" lon="7.24272">
        <ele>413.39999389648</ele>
        <time>2022-01-13T09:57:20.000Z</time>
      </trkpt>
      <trkpt lat="43.81912" lon="7.24267">
        <ele>413.39999389648</ele>
        <time>2022-01-13T09:57:21.000Z</time>
      </trkpt>
      <trkpt lat="43.81915" lon="7.24262">
        <ele>413</ele>
        <time>2022-01-13T09:57:22.000Z</time>
      </trkpt>
      <trkpt lat="43.81921" lon="7.24255">
        <ele>412.39999389648</ele>
        <time>2022-01-13T09:57:24.000Z</time>
      </trkpt>
      <trkpt lat="43.81925" lon="7.24251">
        <ele>412.20001220703</ele>
        <time>2022-01-13T09:57:25.000Z</time>
      </trkpt>
      <trkpt lat="43.81938" lon="7.2424">
        <ele>411.60000610352</ele>
        <time>2022-01-13T09:57:28.000Z</time>
      </trkpt>
      <trkpt lat="43.81946" lon="7.24234">
        <ele>411.60000610352</ele>
        <time>2022-01-13T09:57:30.000Z</time>
      </trkpt>
      <trkpt lat="43.81954" lon="7.2423">
        <ele>411.39999389648</ele>
        <time>2022-01-13T09:57:32.000Z</time>
      </trkpt>
      <trkpt lat="43.81958" lon="7.24228">
        <ele>411.39999389648</ele>
        <time>2022-01-13T09:57:33.000Z</time>
      </trkpt>
      <trkpt lat="43.81959" lon="7.24225">
        <ele>411.39999389648</ele>
        <time>2022-01-13T09:57:34.000Z</time>
      </trkpt>
      <trkpt lat="43.81968" lon="7.24221">
        <ele>411.20001220703</ele>
        <time>2022-01-13T09:57:38.000Z</time>
      </trkpt>
      <trkpt lat="43.81973" lon="7.2422">
        <ele>409.79998779297</ele>
        <time>2022-01-13T09:57:41.000Z</time>
      </trkpt>
      <trkpt lat="43.81976" lon="7.24216">
        <ele>408.60000610352</ele>
        <time>2022-01-13T09:57:43.000Z</time>
      </trkpt>
      <trkpt lat="43.81978" lon="7.24212">
        <ele>406.60000610352</ele>
        <time>2022-01-13T09:57:45.000Z</time>
      </trkpt>
      <trkpt lat="43.8198" lon="7.24213">
        <ele>405.39999389648</ele>
        <time>2022-01-13T09:57:46.000Z</time>
      </trkpt>
      <trkpt lat="43.81986" lon="7.24217">
        <ele>403.60000610352</ele>
        <time>2022-01-13T09:57:48.000Z</time>
      </trkpt>
      <trkpt lat="43.8199" lon="7.24218">
        <ele>402</ele>
        <time>2022-01-13T09:57:50.000Z</time>
      </trkpt>
      <trkpt lat="43.81994" lon="7.24216">
        <ele>401.39999389648</ele>
        <time>2022-01-13T09:57:51.000Z</time>
      </trkpt>
      <trkpt lat="43.81998" lon="7.24215">
        <ele>400.20001220703</ele>
        <time>2022-01-13T09:57:52.000Z</time>
      </trkpt>
      <trkpt lat="43.82002" lon="7.24216">
        <ele>399</ele>
        <time>2022-01-13T09:57:53.000Z</time>
      </trkpt>
      <trkpt lat="43.82005" lon="7.24218">
        <ele>397.79998779297</ele>
        <time>2022-01-13T09:57:54.000Z</time>
      </trkpt>
      <trkpt lat="43.82007" lon="7.24217">
        <ele>396.39999389648</ele>
        <time>2022-01-13T09:57:55.000Z</time>
      </trkpt>
      <trkpt lat="43.82008" lon="7.24216">
        <ele>395.20001220703</ele>
        <time>2022-01-13T09:57:56.000Z</time>
      </trkpt>
      <trkpt lat="43.82007" lon="7.24213">
        <ele>393.39999389648</ele>
        <time>2022-01-13T09:57:58.000Z</time>
      </trkpt>
      <trkpt lat="43.82006" lon="7.24212">
        <ele>392.79998779297</ele>
        <time>2022-01-13T09:57:59.000Z</time>
      </trkpt>
      <trkpt lat="43.82006" lon="7.24212">
        <ele>392.20001220703</ele>
        <time>2022-01-13T09:58:00.000Z</time>
      </trkpt>
      <trkpt lat="43.82007" lon="7.24211">
        <ele>391.20001220703</ele>
        <time>2022-01-13T09:58:03.000Z</time>
      </trkpt>
      <trkpt lat="43.82007" lon="7.24211">
        <ele>391</ele>
        <time>2022-01-13T09:58:05.000Z</time>
      </trkpt>
      <trkpt lat="43.82006" lon="7.24208">
        <ele>390.79998779297</ele>
        <time>2022-01-13T09:58:10.000Z</time>
      </trkpt>
      <trkpt lat="43.82006" lon="7.24207">
        <ele>390.79998779297</ele>
        <time>2022-01-13T09:58:11.000Z</time>
      </trkpt>
      <trkpt lat="43.8201" lon="7.24208">
        <ele>389.79998779297</ele>
        <time>2022-01-13T09:58:14.000Z</time>
      </trkpt>
      <trkpt lat="43.82011" lon="7.24207">
        <ele>389.60000610352</ele>
        <time>2022-01-13T09:58:15.000Z</time>
      </trkpt>
      <trkpt lat="43.82009" lon="7.24201">
        <ele>388.79998779297</ele>
        <time>2022-01-13T09:58:17.000Z</time>
      </trkpt>
      <trkpt lat="43.82006" lon="7.24198">
        <ele>388.20001220703</ele>
        <time>2022-01-13T09:58:18.000Z</time>
      </trkpt>
      <trkpt lat="43.82004" lon="7.24195">
        <ele>387.60000610352</ele>
        <time>2022-01-13T09:58:19.000Z</time>
      </trkpt>
      <trkpt lat="43.82003" lon="7.24193">
        <ele>387</ele>
        <time>2022-01-13T09:58:20.000Z</time>
      </trkpt>
      <trkpt lat="43.82002" lon="7.24192">
        <ele>386.20001220703</ele>
        <time>2022-01-13T09:58:21.000Z</time>
      </trkpt>
      <trkpt lat="43.82002" lon="7.24191">
        <ele>385</ele>
        <time>2022-01-13T09:58:24.000Z</time>
      </trkpt>
      <trkpt lat="43.82002" lon="7.2419">
        <ele>384.79998779297</ele>
        <time>2022-01-13T09:58:31.000Z</time>
      </trkpt>
      <trkpt lat="43.82" lon="7.24188">
        <ele>384.79998779297</ele>
        <time>2022-01-13T09:58:53.000Z</time>
      </trkpt>
      <trkpt lat="43.82" lon="7.24186">
        <ele>384.60000610352</ele>
        <time>2022-01-13T09:59:00.000Z</time>
      </trkpt>
      <trkpt lat="43.81999" lon="7.24182">
        <ele>384.60000610352</ele>
        <time>2022-01-13T09:59:03.000Z</time>
      </trkpt>
      <trkpt lat="43.81999" lon="7.24181">
        <ele>384.39999389648</ele>
        <time>2022-01-13T09:59:04.000Z</time>
      </trkpt>
      <trkpt lat="43.81997" lon="7.24172">
        <ele>383.79998779297</ele>
        <time>2022-01-13T09:59:08.000Z</time>
      </trkpt>
      <trkpt lat="43.81995" lon="7.24165">
        <ele>383.60000610352</ele>
        <time>2022-01-13T09:59:10.000Z</time>
      </trkpt>
      <trkpt lat="43.81991" lon="7.2415">
        <ele>382.79998779297</ele>
        <time>2022-01-13T09:59:14.000Z</time>
      </trkpt>
      <trkpt lat="43.8199" lon="7.24144">
        <ele>382.39999389648</ele>
        <time>2022-01-13T09:59:15.000Z</time>
      </trkpt>
      <trkpt lat="43.8199" lon="7.24129">
        <ele>381.39999389648</ele>
        <time>2022-01-13T09:59:18.000Z</time>
      </trkpt>
      <trkpt lat="43.81992" lon="7.2411">
        <ele>380.60000610352</ele>
        <time>2022-01-13T09:59:21.000Z</time>
      </trkpt>
      <trkpt lat="43.81994" lon="7.24104">
        <ele>380.20001220703</ele>
        <time>2022-01-13T09:59:22.000Z</time>
      </trkpt>
      <trkpt lat="43.81997" lon="7.24091">
        <ele>379</ele>
        <time>2022-01-13T09:59:24.000Z</time>
      </trkpt>
      <trkpt lat="43.82" lon="7.24077">
        <ele>377.20001220703</ele>
        <time>2022-01-13T09:59:26.000Z</time>
      </trkpt>
      <trkpt lat="43.82001" lon="7.2407">
        <ele>376.20001220703</ele>
        <time>2022-01-13T09:59:27.000Z</time>
      </trkpt>
      <trkpt lat="43.82001" lon="7.24064">
        <ele>375</ele>
        <time>2022-01-13T09:59:28.000Z</time>
      </trkpt>
      <trkpt lat="43.82" lon="7.24059">
        <ele>373.79998779297</ele>
        <time>2022-01-13T09:59:29.000Z</time>
      </trkpt>
      <trkpt lat="43.82" lon="7.24053">
        <ele>372.60000610352</ele>
        <time>2022-01-13T09:59:30.000Z</time>
      </trkpt>
      <trkpt lat="43.82" lon="7.24049">
        <ele>371.20001220703</ele>
        <time>2022-01-13T09:59:31.000Z</time>
      </trkpt>
      <trkpt lat="43.82003" lon="7.24047">
        <ele>370</ele>
        <time>2022-01-13T09:59:32.000Z</time>
      </trkpt>
      <trkpt lat="43.82012" lon="7.24048">
        <ele>368</ele>
        <time>2022-01-13T09:59:34.000Z</time>
      </trkpt>
      <trkpt lat="43.82018" lon="7.24051">
        <ele>366.79998779297</ele>
        <time>2022-01-13T09:59:35.000Z</time>
      </trkpt>
      <trkpt lat="43.82031" lon="7.24057">
        <ele>367</ele>
        <time>2022-01-13T09:59:37.000Z</time>
      </trkpt>
      <trkpt lat="43.82035" lon="7.2406">
        <ele>365.79998779297</ele>
        <time>2022-01-13T09:59:38.000Z</time>
      </trkpt>
      <trkpt lat="43.82039" lon="7.2406">
        <ele>364.39999389648</ele>
        <time>2022-01-13T09:59:39.000Z</time>
      </trkpt>
      <trkpt lat="43.82044" lon="7.24054">
        <ele>362.39999389648</ele>
        <time>2022-01-13T09:59:41.000Z</time>
      </trkpt>
      <trkpt lat="43.82045" lon="7.24049">
        <ele>360.79998779297</ele>
        <time>2022-01-13T09:59:42.000Z</time>
      </trkpt>
      <trkpt lat="43.82046" lon="7.24045">
        <ele>359.60000610352</ele>
        <time>2022-01-13T09:59:43.000Z</time>
      </trkpt>
      <trkpt lat="43.82046" lon="7.24041">
        <ele>358.39999389648</ele>
        <time>2022-01-13T09:59:44.000Z</time>
      </trkpt>
      <trkpt lat="43.82046" lon="7.24036">
        <ele>356.79998779297</ele>
        <time>2022-01-13T09:59:46.000Z</time>
      </trkpt>
      <trkpt lat="43.82046" lon="7.24031">
        <ele>356</ele>
        <time>2022-01-13T09:59:48.000Z</time>
      </trkpt>
      <trkpt lat="43.82046" lon="7.24029">
        <ele>355.60000610352</ele>
        <time>2022-01-13T09:59:49.000Z</time>
      </trkpt>
      <trkpt lat="43.82045" lon="7.24023">
        <ele>355.20001220703</ele>
        <time>2022-01-13T09:59:51.000Z</time>
      </trkpt>
      <trkpt lat="43.82043" lon="7.24021">
        <ele>355.20001220703</ele>
        <time>2022-01-13T09:59:52.000Z</time>
      </trkpt>
      <trkpt lat="43.82035" lon="7.24011">
        <ele>354.39999389648</ele>
        <time>2022-01-13T09:59:58.000Z</time>
      </trkpt>
      <trkpt lat="43.82034" lon="7.2401">
        <ele>354.39999389648</ele>
        <time>2022-01-13T09:59:59.000Z</time>
      </trkpt>
      <trkpt lat="43.82034" lon="7.24009">
        <ele>353.60000610352</ele>
        <time>2022-01-13T10:00:05.000Z</time>
      </trkpt>
      <trkpt lat="43.82034" lon="7.24009">
        <ele>353.39999389648</ele>
        <time>2022-01-13T10:00:07.000Z</time>
      </trkpt>
      <trkpt lat="43.82031" lon="7.24007">
        <ele>353</ele>
        <time>2022-01-13T10:00:15.000Z</time>
      </trkpt>
      <trkpt lat="43.82033" lon="7.24012">
        <ele>352.39999389648</ele>
        <time>2022-01-13T10:00:18.000Z</time>
      </trkpt>
      <trkpt lat="43.82035" lon="7.24014">
        <ele>352.39999389648</ele>
        <time>2022-01-13T10:00:19.000Z</time>
      </trkpt>
      <trkpt lat="43.82045" lon="7.24027">
        <ele>351.60000610352</ele>
        <time>2022-01-13T10:00:24.000Z</time>
      </trkpt>
      <trkpt lat="43.82047" lon="7.24028">
        <ele>351.39999389648</ele>
        <time>2022-01-13T10:00:25.000Z</time>
      </trkpt>
      <trkpt lat="43.82048" lon="7.24027">
        <ele>351.39999389648</ele>
        <time>2022-01-13T10:00:26.000Z</time>
      </trkpt>
      <trkpt lat="43.82049" lon="7.24026">
        <ele>351.20001220703</ele>
        <time>2022-01-13T10:00:27.000Z</time>
      </trkpt>
      <trkpt lat="43.82056" lon="7.24019">
        <ele>350.39999389648</ele>
        <time>2022-01-13T10:00:31.000Z</time>
      </trkpt>
      <trkpt lat="43.82059" lon="7.24016">
        <ele>350.20001220703</ele>
        <time>2022-01-13T10:00:32.000Z</time>
      </trkpt>
      <trkpt lat="43.82068" lon="7.24009">
        <ele>348.20001220703</ele>
        <time>2022-01-13T10:00:35.000Z</time>
      </trkpt>
      <trkpt lat="43.82074" lon="7.24003">
        <ele>346.60000610352</ele>
        <time>2022-01-13T10:00:37.000Z</time>
      </trkpt>
      <trkpt lat="43.82085" lon="7.23992">
        <ele>345</ele>
        <time>2022-01-13T10:00:41.000Z</time>
      </trkpt>
      <trkpt lat="43.82092" lon="7.23987">
        <ele>344.60000610352</ele>
        <time>2022-01-13T10:00:43.000Z</time>
      </trkpt>
      <trkpt lat="43.82095" lon="7.23984">
        <ele>344</ele>
        <time>2022-01-13T10:00:44.000Z</time>
      </trkpt>
      <trkpt lat="43.82101" lon="7.2398">
        <ele>342.39999389648</ele>
        <time>2022-01-13T10:00:46.000Z</time>
      </trkpt>
      <trkpt lat="43.82103" lon="7.23981">
        <ele>342</ele>
        <time>2022-01-13T10:00:47.000Z</time>
      </trkpt>
      <trkpt lat="43.82105" lon="7.23984">
        <ele>341.39999389648</ele>
        <time>2022-01-13T10:00:48.000Z</time>
      </trkpt>
      <trkpt lat="43.82107" lon="7.23991">
        <ele>341.20001220703</ele>
        <time>2022-01-13T10:00:50.000Z</time>
      </trkpt>
      <trkpt lat="43.82107" lon="7.24013">
        <ele>340.20001220703</ele>
        <time>2022-01-13T10:00:54.000Z</time>
      </trkpt>
      <trkpt lat="43.82107" lon="7.2402">
        <ele>339.79998779297</ele>
        <time>2022-01-13T10:00:55.000Z</time>
      </trkpt>
      <trkpt lat="43.82107" lon="7.24026">
        <ele>339.39999389648</ele>
        <time>2022-01-13T10:00:56.000Z</time>
      </trkpt>
      <trkpt lat="43.82104" lon="7.2404">
        <ele>339</ele>
        <time>2022-01-13T10:00:58.000Z</time>
      </trkpt>
      <trkpt lat="43.82101" lon="7.24046">
        <ele>338.60000610352</ele>
        <time>2022-01-13T10:00:59.000Z</time>
      </trkpt>
      <trkpt lat="43.82089" lon="7.24063">
        <ele>337.79998779297</ele>
        <time>2022-01-13T10:01:02.000Z</time>
      </trkpt>
      <trkpt lat="43.82084" lon="7.24076">
        <ele>337.39999389648</ele>
        <time>2022-01-13T10:01:04.000Z</time>
      </trkpt>
      <trkpt lat="43.82082" lon="7.24088">
        <ele>336.60000610352</ele>
        <time>2022-01-13T10:01:06.000Z</time>
      </trkpt>
      <trkpt lat="43.82082" lon="7.24099">
        <ele>336</ele>
        <time>2022-01-13T10:01:08.000Z</time>
      </trkpt>
      <trkpt lat="43.82084" lon="7.24111">
        <ele>335.60000610352</ele>
        <time>2022-01-13T10:01:10.000Z</time>
      </trkpt>
      <trkpt lat="43.82093" lon="7.2413">
        <ele>334.79998779297</ele>
        <time>2022-01-13T10:01:14.000Z</time>
      </trkpt>
      <trkpt lat="43.82104" lon="7.24142">
        <ele>334.60000610352</ele>
        <time>2022-01-13T10:01:17.000Z</time>
      </trkpt>
      <trkpt lat="43.82114" lon="7.24149">
        <ele>334.20001220703</ele>
        <time>2022-01-13T10:01:19.000Z</time>
      </trkpt>
      <trkpt lat="43.82125" lon="7.24161">
        <ele>333.39999389648</ele>
        <time>2022-01-13T10:01:22.000Z</time>
      </trkpt>
      <trkpt lat="43.82129" lon="7.24164">
        <ele>332.79998779297</ele>
        <time>2022-01-13T10:01:23.000Z</time>
      </trkpt>
      <trkpt lat="43.82133" lon="7.24167">
        <ele>332.20001220703</ele>
        <time>2022-01-13T10:01:24.000Z</time>
      </trkpt>
      <trkpt lat="43.82137" lon="7.24171">
        <ele>331.79998779297</ele>
        <time>2022-01-13T10:01:25.000Z</time>
      </trkpt>
      <trkpt lat="43.82145" lon="7.24179">
        <ele>331</ele>
        <time>2022-01-13T10:01:27.000Z</time>
      </trkpt>
      <trkpt lat="43.82149" lon="7.24183">
        <ele>330.60000610352</ele>
        <time>2022-01-13T10:01:28.000Z</time>
      </trkpt>
      <trkpt lat="43.82153" lon="7.24188">
        <ele>330.20001220703</ele>
        <time>2022-01-13T10:01:29.000Z</time>
      </trkpt>
      <trkpt lat="43.82157" lon="7.24192">
        <ele>329.79998779297</ele>
        <time>2022-01-13T10:01:30.000Z</time>
      </trkpt>
      <trkpt lat="43.82164" lon="7.24201">
        <ele>329.20001220703</ele>
        <time>2022-01-13T10:01:32.000Z</time>
      </trkpt>
      <trkpt lat="43.82168" lon="7.24207">
        <ele>328.60000610352</ele>
        <time>2022-01-13T10:01:33.000Z</time>
      </trkpt>
      <trkpt lat="43.82173" lon="7.2421">
        <ele>328.20001220703</ele>
        <time>2022-01-13T10:01:34.000Z</time>
      </trkpt>
      <trkpt lat="43.82184" lon="7.24216">
        <ele>327.39999389648</ele>
        <time>2022-01-13T10:01:36.000Z</time>
      </trkpt>
      <trkpt lat="43.8219" lon="7.24216">
        <ele>326.79998779297</ele>
        <time>2022-01-13T10:01:37.000Z</time>
      </trkpt>
      <trkpt lat="43.82195" lon="7.24214">
        <ele>326</ele>
        <time>2022-01-13T10:01:38.000Z</time>
      </trkpt>
      <trkpt lat="43.822" lon="7.24213">
        <ele>325.60000610352</ele>
        <time>2022-01-13T10:01:39.000Z</time>
      </trkpt>
      <trkpt lat="43.82211" lon="7.24209">
        <ele>325</ele>
        <time>2022-01-13T10:01:41.000Z</time>
      </trkpt>
      <trkpt lat="43.8223" lon="7.24204">
        <ele>324.79998779297</ele>
        <time>2022-01-13T10:01:46.000Z</time>
      </trkpt>
      <trkpt lat="43.82259" lon="7.24195">
        <ele>325</ele>
        <time>2022-01-13T10:01:54.000Z</time>
      </trkpt>
      <trkpt lat="43.82293" lon="7.24184">
        <ele>325</ele>
        <time>2022-01-13T10:02:03.000Z</time>
      </trkpt>
      <trkpt lat="43.82314" lon="7.24173">
        <ele>325</ele>
        <time>2022-01-13T10:02:10.000Z</time>
      </trkpt>
      <trkpt lat="43.82327" lon="7.24166">
        <ele>325.79998779297</ele>
        <time>2022-01-13T10:02:15.000Z</time>
      </trkpt>
      <trkpt lat="43.82333" lon="7.24165">
        <ele>326</ele>
        <time>2022-01-13T10:02:17.000Z</time>
      </trkpt>
      <trkpt lat="43.82343" lon="7.24164">
        <ele>326.20001220703</ele>
        <time>2022-01-13T10:02:20.000Z</time>
      </trkpt>
      <trkpt lat="43.82358" lon="7.24168">
        <ele>327</ele>
        <time>2022-01-13T10:02:25.000Z</time>
      </trkpt>
      <trkpt lat="43.82364" lon="7.2417">
        <ele>327.20001220703</ele>
        <time>2022-01-13T10:02:27.000Z</time>
      </trkpt>
      <trkpt lat="43.82384" lon="7.2417">
        <ele>327.79998779297</ele>
        <time>2022-01-13T10:02:34.000Z</time>
      </trkpt>
      <trkpt lat="43.82404" lon="7.24161">
        <ele>328</ele>
        <time>2022-01-13T10:02:41.000Z</time>
      </trkpt>
      <trkpt lat="43.82407" lon="7.2416">
        <ele>328</ele>
        <time>2022-01-13T10:02:42.000Z</time>
      </trkpt>
      <trkpt lat="43.82427" lon="7.24147">
        <ele>328.79998779297</ele>
        <time>2022-01-13T10:02:50.000Z</time>
      </trkpt>
      <trkpt lat="43.82436" lon="7.24142">
        <ele>329</ele>
        <time>2022-01-13T10:02:53.000Z</time>
      </trkpt>
      <trkpt lat="43.82451" lon="7.24138">
        <ele>329.39999389648</ele>
        <time>2022-01-13T10:02:58.000Z</time>
      </trkpt>
      <trkpt lat="43.82464" lon="7.24151">
        <ele>330</ele>
        <time>2022-01-13T10:03:03.000Z</time>
      </trkpt>
      <trkpt lat="43.82465" lon="7.24155">
        <ele>330</ele>
        <time>2022-01-13T10:03:04.000Z</time>
      </trkpt>
      <trkpt lat="43.82475" lon="7.2418">
        <ele>330.79998779297</ele>
        <time>2022-01-13T10:03:11.000Z</time>
      </trkpt>
      <trkpt lat="43.82485" lon="7.24196">
        <ele>331.20001220703</ele>
        <time>2022-01-13T10:03:17.000Z</time>
      </trkpt>
      <trkpt lat="43.82488" lon="7.24197">
        <ele>331.20001220703</ele>
        <time>2022-01-13T10:03:18.000Z</time>
      </trkpt>
      <trkpt lat="43.82503" lon="7.24201">
        <ele>332</ele>
        <time>2022-01-13T10:03:24.000Z</time>
      </trkpt>
      <trkpt lat="43.82506" lon="7.24202">
        <ele>332.20001220703</ele>
        <time>2022-01-13T10:03:25.000Z</time>
      </trkpt>
      <trkpt lat="43.82527" lon="7.24206">
        <ele>332.60000610352</ele>
        <time>2022-01-13T10:03:32.000Z</time>
      </trkpt>
      <trkpt lat="43.82545" lon="7.24211">
        <ele>333.20001220703</ele>
        <time>2022-01-13T10:03:38.000Z</time>
      </trkpt>
      <trkpt lat="43.82553" lon="7.24215">
        <ele>333.20001220703</ele>
        <time>2022-01-13T10:03:41.000Z</time>
      </trkpt>
      <trkpt lat="43.82566" lon="7.24217">
        <ele>333.79998779297</ele>
        <time>2022-01-13T10:03:45.000Z</time>
      </trkpt>
      <trkpt lat="43.82576" lon="7.24218">
        <ele>334.20001220703</ele>
        <time>2022-01-13T10:03:48.000Z</time>
      </trkpt>
      <trkpt lat="43.82592" lon="7.24221">
        <ele>334.60000610352</ele>
        <time>2022-01-13T10:03:53.000Z</time>
      </trkpt>
      <trkpt lat="43.8261" lon="7.24221">
        <ele>335.20001220703</ele>
        <time>2022-01-13T10:03:59.000Z</time>
      </trkpt>
      <trkpt lat="43.82633" lon="7.24224">
        <ele>336</ele>
        <time>2022-01-13T10:04:06.000Z</time>
      </trkpt>
      <trkpt lat="43.82647" lon="7.24233">
        <ele>336.39999389648</ele>
        <time>2022-01-13T10:04:11.000Z</time>
      </trkpt>
      <trkpt lat="43.82655" lon="7.24234">
        <ele>336.79998779297</ele>
        <time>2022-01-13T10:04:14.000Z</time>
      </trkpt>
      <trkpt lat="43.82678" lon="7.24232">
        <ele>337.20001220703</ele>
        <time>2022-01-13T10:04:21.000Z</time>
      </trkpt>
      <trkpt lat="43.82687" lon="7.24234">
        <ele>337.39999389648</ele>
        <time>2022-01-13T10:04:24.000Z</time>
      </trkpt>
      <trkpt lat="43.82696" lon="7.24241">
        <ele>337.79998779297</ele>
        <time>2022-01-13T10:04:27.000Z</time>
      </trkpt>
      <trkpt lat="43.82708" lon="7.2426">
        <ele>338</ele>
        <time>2022-01-13T10:04:33.000Z</time>
      </trkpt>
      <trkpt lat="43.82713" lon="7.24275">
        <ele>338.39999389648</ele>
        <time>2022-01-13T10:04:37.000Z</time>
      </trkpt>
      <trkpt lat="43.82717" lon="7.24286">
        <ele>338.79998779297</ele>
        <time>2022-01-13T10:04:40.000Z</time>
      </trkpt>
      <trkpt lat="43.82725" lon="7.24317">
        <ele>339.39999389648</ele>
        <time>2022-01-13T10:04:48.000Z</time>
      </trkpt>
      <trkpt lat="43.82726" lon="7.2432">
        <ele>339.60000610352</ele>
        <time>2022-01-13T10:04:49.000Z</time>
      </trkpt>
      <trkpt lat="43.82737" lon="7.24335">
        <ele>340.20001220703</ele>
        <time>2022-01-13T10:04:54.000Z</time>
      </trkpt>
      <trkpt lat="43.82744" lon="7.24343">
        <ele>340.60000610352</ele>
        <time>2022-01-13T10:04:57.000Z</time>
      </trkpt>
      <trkpt lat="43.82752" lon="7.24358">
        <ele>340.60000610352</ele>
        <time>2022-01-13T10:05:01.000Z</time>
      </trkpt>
      <trkpt lat="43.82749" lon="7.24375">
        <ele>340.60000610352</ele>
        <time>2022-01-13T10:05:05.000Z</time>
      </trkpt>
      <trkpt lat="43.82736" lon="7.24394">
        <ele>340.60000610352</ele>
        <time>2022-01-13T10:05:11.000Z</time>
      </trkpt>
      <trkpt lat="43.82717" lon="7.24414">
        <ele>340.39999389648</ele>
        <time>2022-01-13T10:05:18.000Z</time>
      </trkpt>
      <trkpt lat="43.82715" lon="7.24419">
        <ele>340.39999389648</ele>
        <time>2022-01-13T10:05:19.000Z</time>
      </trkpt>
      <trkpt lat="43.82713" lon="7.24437">
        <ele>339.60000610352</ele>
        <time>2022-01-13T10:05:22.000Z</time>
      </trkpt>
      <trkpt lat="43.82714" lon="7.24443">
        <ele>339.20001220703</ele>
        <time>2022-01-13T10:05:23.000Z</time>
      </trkpt>
      <trkpt lat="43.82721" lon="7.24458">
        <ele>339</ele>
        <time>2022-01-13T10:05:26.000Z</time>
      </trkpt>
      <trkpt lat="43.82735" lon="7.24465">
        <ele>339.20001220703</ele>
        <time>2022-01-13T10:05:30.000Z</time>
      </trkpt>
      <trkpt lat="43.82757" lon="7.24463">
        <ele>339.79998779297</ele>
        <time>2022-01-13T10:05:36.000Z</time>
      </trkpt>
      <trkpt lat="43.82772" lon="7.2446">
        <ele>340.39999389648</ele>
        <time>2022-01-13T10:05:40.000Z</time>
      </trkpt>
      <trkpt lat="43.82799" lon="7.24455">
        <ele>340.60000610352</ele>
        <time>2022-01-13T10:05:47.000Z</time>
      </trkpt>
      <trkpt lat="43.82813" lon="7.24451">
        <ele>340.20001220703</ele>
        <time>2022-01-13T10:05:52.000Z</time>
      </trkpt>
      <trkpt lat="43.82824" lon="7.24439">
        <ele>340.20001220703</ele>
        <time>2022-01-13T10:05:57.000Z</time>
      </trkpt>
      <trkpt lat="43.82835" lon="7.24423">
        <ele>340.39999389648</ele>
        <time>2022-01-13T10:06:02.000Z</time>
      </trkpt>
      <trkpt lat="43.82852" lon="7.24421">
        <ele>340.20001220703</ele>
        <time>2022-01-13T10:06:07.000Z</time>
      </trkpt>
      <trkpt lat="43.82875" lon="7.24437">
        <ele>340</ele>
        <time>2022-01-13T10:06:15.000Z</time>
      </trkpt>
      <trkpt lat="43.82891" lon="7.24458">
        <ele>340</ele>
        <time>2022-01-13T10:06:22.000Z</time>
      </trkpt>
      <trkpt lat="43.82902" lon="7.24462">
        <ele>340</ele>
        <time>2022-01-13T10:06:26.000Z</time>
      </trkpt>
      <trkpt lat="43.82912" lon="7.24452">
        <ele>339.79998779297</ele>
        <time>2022-01-13T10:06:30.000Z</time>
      </trkpt>
      <trkpt lat="43.82914" lon="7.24434">
        <ele>340</ele>
        <time>2022-01-13T10:06:34.000Z</time>
      </trkpt>
      <trkpt lat="43.82911" lon="7.24399">
        <ele>340.20001220703</ele>
        <time>2022-01-13T10:06:41.000Z</time>
      </trkpt>
      <trkpt lat="43.82918" lon="7.24388">
        <ele>340.39999389648</ele>
        <time>2022-01-13T10:06:44.000Z</time>
      </trkpt>
      <trkpt lat="43.82943" lon="7.24376">
        <ele>340.20001220703</ele>
        <time>2022-01-13T10:06:51.000Z</time>
      </trkpt>
      <trkpt lat="43.82957" lon="7.24382">
        <ele>340.20001220703</ele>
        <time>2022-01-13T10:06:55.000Z</time>
      </trkpt>
      <trkpt lat="43.82969" lon="7.24399">
        <ele>340.39999389648</ele>
        <time>2022-01-13T10:07:00.000Z</time>
      </trkpt>
      <trkpt lat="43.82988" lon="7.24424">
        <ele>340.60000610352</ele>
        <time>2022-01-13T10:07:08.000Z</time>
      </trkpt>
      <trkpt lat="43.83005" lon="7.24426">
        <ele>340.39999389648</ele>
        <time>2022-01-13T10:07:14.000Z</time>
      </trkpt>
      <trkpt lat="43.83012" lon="7.24412">
        <ele>340</ele>
        <time>2022-01-13T10:07:18.000Z</time>
      </trkpt>
      <trkpt lat="43.83008" lon="7.24393">
        <ele>340</ele>
        <time>2022-01-13T10:07:23.000Z</time>
      </trkpt>
      <trkpt lat="43.82998" lon="7.24365">
        <ele>340.60000610352</ele>
        <time>2022-01-13T10:07:30.000Z</time>
      </trkpt>
      <trkpt lat="43.82987" lon="7.24336">
        <ele>340.60000610352</ele>
        <time>2022-01-13T10:07:38.000Z</time>
      </trkpt>
      <trkpt lat="43.82977" lon="7.24317">
        <ele>340.60000610352</ele>
        <time>2022-01-13T10:07:44.000Z</time>
      </trkpt>
      <trkpt lat="43.82969" lon="7.243">
        <ele>340.39999389648</ele>
        <time>2022-01-13T10:07:48.000Z</time>
      </trkpt>
      <trkpt lat="43.82972" lon="7.24293">
        <ele>340.39999389648</ele>
        <time>2022-01-13T10:07:49.000Z</time>
      </trkpt>
      <trkpt lat="43.82983" lon="7.24274">
        <ele>340.60000610352</ele>
        <time>2022-01-13T10:07:53.000Z</time>
      </trkpt>
      <trkpt lat="43.82993" lon="7.24267">
        <ele>340.39999389648</ele>
        <time>2022-01-13T10:07:56.000Z</time>
      </trkpt>
      <trkpt lat="43.83002" lon="7.24261">
        <ele>340.20001220703</ele>
        <time>2022-01-13T10:07:59.000Z</time>
      </trkpt>
      <trkpt lat="43.83032" lon="7.2424">
        <ele>339.60000610352</ele>
        <time>2022-01-13T10:08:09.000Z</time>
      </trkpt>
      <trkpt lat="43.83046" lon="7.24224">
        <ele>339.39999389648</ele>
        <time>2022-01-13T10:08:14.000Z</time>
      </trkpt>
      <trkpt lat="43.83049" lon="7.2422">
        <ele>339.39999389648</ele>
        <time>2022-01-13T10:08:15.000Z</time>
      </trkpt>
      <trkpt lat="43.83063" lon="7.24194">
        <ele>339</ele>
        <time>2022-01-13T10:08:22.000Z</time>
      </trkpt>
      <trkpt lat="43.83065" lon="7.24166">
        <ele>338.60000610352</ele>
        <time>2022-01-13T10:08:28.000Z</time>
      </trkpt>
      <trkpt lat="43.83063" lon="7.24156">
        <ele>338.20001220703</ele>
        <time>2022-01-13T10:08:30.000Z</time>
      </trkpt>
      <trkpt lat="43.83059" lon="7.2415">
        <ele>338</ele>
        <time>2022-01-13T10:08:32.000Z</time>
      </trkpt>
      <trkpt lat="43.83042" lon="7.24136">
        <ele>337.60000610352</ele>
        <time>2022-01-13T10:08:38.000Z</time>
      </trkpt>
      <trkpt lat="43.83033" lon="7.24131">
        <ele>337.20001220703</ele>
        <time>2022-01-13T10:08:41.000Z</time>
      </trkpt>
      <trkpt lat="43.83023" lon="7.24128">
        <ele>337.20001220703</ele>
        <time>2022-01-13T10:08:44.000Z</time>
      </trkpt>
      <trkpt lat="43.83004" lon="7.24113">
        <ele>336.79998779297</ele>
        <time>2022-01-13T10:08:50.000Z</time>
      </trkpt>
      <trkpt lat="43.83002" lon="7.24095">
        <ele>336.79998779297</ele>
        <time>2022-01-13T10:08:53.000Z</time>
      </trkpt>
      <trkpt lat="43.8301" lon="7.24077">
        <ele>336.60000610352</ele>
        <time>2022-01-13T10:08:57.000Z</time>
      </trkpt>
      <trkpt lat="43.83028" lon="7.24066">
        <ele>336.39999389648</ele>
        <time>2022-01-13T10:09:02.000Z</time>
      </trkpt>
      <trkpt lat="43.83036" lon="7.24065">
        <ele>336.20001220703</ele>
        <time>2022-01-13T10:09:04.000Z</time>
      </trkpt>
      <trkpt lat="43.8305" lon="7.24059">
        <ele>335.79998779297</ele>
        <time>2022-01-13T10:09:08.000Z</time>
      </trkpt>
      <trkpt lat="43.8307" lon="7.24046">
        <ele>335.39999389648</ele>
        <time>2022-01-13T10:09:14.000Z</time>
      </trkpt>
      <trkpt lat="43.83102" lon="7.24034">
        <ele>335.20001220703</ele>
        <time>2022-01-13T10:09:23.000Z</time>
      </trkpt>
      <trkpt lat="43.83117" lon="7.24024">
        <ele>334.39999389648</ele>
        <time>2022-01-13T10:09:28.000Z</time>
      </trkpt>
      <trkpt lat="43.8312" lon="7.24005">
        <ele>334.39999389648</ele>
        <time>2022-01-13T10:09:32.000Z</time>
      </trkpt>
      <trkpt lat="43.83113" lon="7.23989">
        <ele>334.20001220703</ele>
        <time>2022-01-13T10:09:36.000Z</time>
      </trkpt>
      <trkpt lat="43.8309" lon="7.2397">
        <ele>334.79998779297</ele>
        <time>2022-01-13T10:09:44.000Z</time>
      </trkpt>
      <trkpt lat="43.83072" lon="7.23965">
        <ele>335.79998779297</ele>
        <time>2022-01-13T10:09:50.000Z</time>
      </trkpt>
      <trkpt lat="43.83063" lon="7.2396">
        <ele>336.20001220703</ele>
        <time>2022-01-13T10:09:53.000Z</time>
      </trkpt>
      <trkpt lat="43.83055" lon="7.23953">
        <ele>336.79998779297</ele>
        <time>2022-01-13T10:09:56.000Z</time>
      </trkpt>
      <trkpt lat="43.83045" lon="7.23942">
        <ele>337.39999389648</ele>
        <time>2022-01-13T10:10:00.000Z</time>
      </trkpt>
      <trkpt lat="43.83039" lon="7.23937">
        <ele>337.60000610352</ele>
        <time>2022-01-13T10:10:02.000Z</time>
      </trkpt>
      <trkpt lat="43.83024" lon="7.23932">
        <ele>338.39999389648</ele>
        <time>2022-01-13T10:10:07.000Z</time>
      </trkpt>
      <trkpt lat="43.83021" lon="7.23932">
        <ele>338.60000610352</ele>
        <time>2022-01-13T10:10:08.000Z</time>
      </trkpt>
      <trkpt lat="43.83008" lon="7.23929">
        <ele>339.39999389648</ele>
        <time>2022-01-13T10:10:12.000Z</time>
      </trkpt>
      <trkpt lat="43.82999" lon="7.23924">
        <ele>339.79998779297</ele>
        <time>2022-01-13T10:10:15.000Z</time>
      </trkpt>
      <trkpt lat="43.82992" lon="7.23914">
        <ele>340.39999389648</ele>
        <time>2022-01-13T10:10:18.000Z</time>
      </trkpt>
      <trkpt lat="43.82989" lon="7.23906">
        <ele>340.79998779297</ele>
        <time>2022-01-13T10:10:20.000Z</time>
      </trkpt>
      <trkpt lat="43.82988" lon="7.23884">
        <ele>341.39999389648</ele>
        <time>2022-01-13T10:10:25.000Z</time>
      </trkpt>
      <trkpt lat="43.82988" lon="7.23879">
        <ele>341.60000610352</ele>
        <time>2022-01-13T10:10:26.000Z</time>
      </trkpt>
      <trkpt lat="43.82989" lon="7.23843">
        <ele>342.60000610352</ele>
        <time>2022-01-13T10:10:34.000Z</time>
      </trkpt>
      <trkpt lat="43.8299" lon="7.23814">
        <ele>343.79998779297</ele>
        <time>2022-01-13T10:10:41.000Z</time>
      </trkpt>
      <trkpt lat="43.8299" lon="7.23806">
        <ele>344</ele>
        <time>2022-01-13T10:10:43.000Z</time>
      </trkpt>
      <trkpt lat="43.8299" lon="7.23786">
        <ele>344.79998779297</ele>
        <time>2022-01-13T10:10:48.000Z</time>
      </trkpt>
      <trkpt lat="43.8299" lon="7.23782">
        <ele>345</ele>
        <time>2022-01-13T10:10:49.000Z</time>
      </trkpt>
      <trkpt lat="43.82983" lon="7.23766">
        <ele>345.79998779297</ele>
        <time>2022-01-13T10:10:54.000Z</time>
      </trkpt>
      <trkpt lat="43.8298" lon="7.23764">
        <ele>345.79998779297</ele>
        <time>2022-01-13T10:10:55.000Z</time>
      </trkpt>
      <trkpt lat="43.82968" lon="7.23762">
        <ele>346.20001220703</ele>
        <time>2022-01-13T10:10:59.000Z</time>
      </trkpt>
      <trkpt lat="43.82953" lon="7.23768">
        <ele>347</ele>
        <time>2022-01-13T10:11:04.000Z</time>
      </trkpt>
      <trkpt lat="43.82935" lon="7.23777">
        <ele>348.20001220703</ele>
        <time>2022-01-13T10:11:10.000Z</time>
      </trkpt>
      <trkpt lat="43.82931" lon="7.23777">
        <ele>348.20001220703</ele>
        <time>2022-01-13T10:11:11.000Z</time>
      </trkpt>
      <trkpt lat="43.82916" lon="7.23771">
        <ele>349.20001220703</ele>
        <time>2022-01-13T10:11:16.000Z</time>
      </trkpt>
      <trkpt lat="43.82913" lon="7.2377">
        <ele>349.39999389648</ele>
        <time>2022-01-13T10:11:17.000Z</time>
      </trkpt>
      <trkpt lat="43.82895" lon="7.23761">
        <ele>350.20001220703</ele>
        <time>2022-01-13T10:11:23.000Z</time>
      </trkpt>
      <trkpt lat="43.82886" lon="7.23757">
        <ele>350.39999389648</ele>
        <time>2022-01-13T10:11:26.000Z</time>
      </trkpt>
      <trkpt lat="43.8287" lon="7.23751">
        <ele>351.20001220703</ele>
        <time>2022-01-13T10:11:31.000Z</time>
      </trkpt>
      <trkpt lat="43.82862" lon="7.23749">
        <ele>351.60000610352</ele>
        <time>2022-01-13T10:11:34.000Z</time>
      </trkpt>
      <trkpt lat="43.8285" lon="7.23747">
        <ele>352.20001220703</ele>
        <time>2022-01-13T10:11:38.000Z</time>
      </trkpt>
      <trkpt lat="43.82846" lon="7.23746">
        <ele>352.60000610352</ele>
        <time>2022-01-13T10:11:40.000Z</time>
      </trkpt>
      <trkpt lat="43.82844" lon="7.23746">
        <ele>353.20001220703</ele>
        <time>2022-01-13T10:11:45.000Z</time>
      </trkpt>
      <trkpt lat="43.82844" lon="7.23746">
        <ele>353.39999389648</ele>
        <time>2022-01-13T10:11:46.000Z</time>
      </trkpt>
      <trkpt lat="43.82843" lon="7.23746">
        <ele>353.20001220703</ele>
        <time>2022-01-13T10:12:01.000Z</time>
      </trkpt>
      <trkpt lat="43.82843" lon="7.23746">
        <ele>352.79998779297</ele>
        <time>2022-01-13T10:12:13.000Z</time>
      </trkpt>
      <trkpt lat="43.82842" lon="7.23746">
        <ele>352.60000610352</ele>
        <time>2022-01-13T10:12:19.000Z</time>
      </trkpt>
      <trkpt lat="43.82842" lon="7.23747">
        <ele>352.20001220703</ele>
        <time>2022-01-13T10:12:26.000Z</time>
      </trkpt>
      <trkpt lat="43.82842" lon="7.23748">
        <ele>352.60000610352</ele>
        <time>2022-01-13T10:12:32.000Z</time>
      </trkpt>
      <trkpt lat="43.82841" lon="7.23748">
        <ele>352.60000610352</ele>
        <time>2022-01-13T10:12:33.000Z</time>
      </trkpt>
      <trkpt lat="43.82835" lon="7.23745">
        <ele>353</ele>
        <time>2022-01-13T10:12:37.000Z</time>
      </trkpt>
      <trkpt lat="43.82834" lon="7.23745">
        <ele>353.20001220703</ele>
        <time>2022-01-13T10:12:38.000Z</time>
      </trkpt>
      <trkpt lat="43.82828" lon="7.23742">
        <ele>353.39999389648</ele>
        <time>2022-01-13T10:12:41.000Z</time>
      </trkpt>
      <trkpt lat="43.82821" lon="7.23735">
        <ele>353.79998779297</ele>
        <time>2022-01-13T10:12:45.000Z</time>
      </trkpt>
      <trkpt lat="43.82809" lon="7.23723">
        <ele>354.20001220703</ele>
        <time>2022-01-13T10:12:51.000Z</time>
      </trkpt>
      <trkpt lat="43.82804" lon="7.23717">
        <ele>354.39999389648</ele>
        <time>2022-01-13T10:12:53.000Z</time>
      </trkpt>
      <trkpt lat="43.82796" lon="7.23706">
        <ele>354.60000610352</ele>
        <time>2022-01-13T10:12:56.000Z</time>
      </trkpt>
      <trkpt lat="43.82785" lon="7.23692">
        <ele>355.20001220703</ele>
        <time>2022-01-13T10:13:00.000Z</time>
      </trkpt>
      <trkpt lat="43.8278" lon="7.23685">
        <ele>355.39999389648</ele>
        <time>2022-01-13T10:13:02.000Z</time>
      </trkpt>
      <trkpt lat="43.82769" lon="7.23664">
        <ele>356.60000610352</ele>
        <time>2022-01-13T10:13:07.000Z</time>
      </trkpt>
      <trkpt lat="43.82759" lon="7.23635">
        <ele>357.79998779297</ele>
        <time>2022-01-13T10:13:13.000Z</time>
      </trkpt>
      <trkpt lat="43.82755" lon="7.23625">
        <ele>358.60000610352</ele>
        <time>2022-01-13T10:13:15.000Z</time>
      </trkpt>
      <trkpt lat="43.82753" lon="7.2362">
        <ele>358.79998779297</ele>
        <time>2022-01-13T10:13:16.000Z</time>
      </trkpt>
      <trkpt lat="43.82746" lon="7.23607">
        <ele>359</ele>
        <time>2022-01-13T10:13:19.000Z</time>
      </trkpt>
      <trkpt lat="43.82743" lon="7.23604">
        <ele>358.79998779297</ele>
        <time>2022-01-13T10:13:20.000Z</time>
      </trkpt>
      <trkpt lat="43.82723" lon="7.23589">
        <ele>360</ele>
        <time>2022-01-13T10:13:26.000Z</time>
      </trkpt>
      <trkpt lat="43.8272" lon="7.23586">
        <ele>360.39999389648</ele>
        <time>2022-01-13T10:13:27.000Z</time>
      </trkpt>
      <trkpt lat="43.82708" lon="7.23573">
        <ele>361.20001220703</ele>
        <time>2022-01-13T10:13:31.000Z</time>
      </trkpt>
      <trkpt lat="43.82695" lon="7.23556">
        <ele>362</ele>
        <time>2022-01-13T10:13:36.000Z</time>
      </trkpt>
      <trkpt lat="43.8269" lon="7.2355">
        <ele>362.39999389648</ele>
        <time>2022-01-13T10:13:38.000Z</time>
      </trkpt>
      <trkpt lat="43.82678" lon="7.23533">
        <ele>363.39999389648</ele>
        <time>2022-01-13T10:13:43.000Z</time>
      </trkpt>
      <trkpt lat="43.82671" lon="7.23522">
        <ele>364.20001220703</ele>
        <time>2022-01-13T10:13:46.000Z</time>
      </trkpt>
      <trkpt lat="43.82665" lon="7.23512">
        <ele>364.60000610352</ele>
        <time>2022-01-13T10:13:49.000Z</time>
      </trkpt>
      <trkpt lat="43.82657" lon="7.23496">
        <ele>365.20001220703</ele>
        <time>2022-01-13T10:13:54.000Z</time>
      </trkpt>
      <trkpt lat="43.82654" lon="7.23491">
        <ele>365.60000610352</ele>
        <time>2022-01-13T10:13:56.000Z</time>
      </trkpt>
      <trkpt lat="43.82649" lon="7.23481">
        <ele>366.20001220703</ele>
        <time>2022-01-13T10:14:01.000Z</time>
      </trkpt>
      <trkpt lat="43.82647" lon="7.23471">
        <ele>366.39999389648</ele>
        <time>2022-01-13T10:14:07.000Z</time>
      </trkpt>
      <trkpt lat="43.82648" lon="7.23469">
        <ele>366.60000610352</ele>
        <time>2022-01-13T10:14:10.000Z</time>
      </trkpt>
      <trkpt lat="43.82651" lon="7.23469">
        <ele>366.60000610352</ele>
        <time>2022-01-13T10:14:12.000Z</time>
      </trkpt>
      <trkpt lat="43.82656" lon="7.23469">
        <ele>366.60000610352</ele>
        <time>2022-01-13T10:14:18.000Z</time>
      </trkpt>
      <trkpt lat="43.82658" lon="7.23471">
        <ele>366.39999389648</ele>
        <time>2022-01-13T10:14:21.000Z</time>
      </trkpt>
      <trkpt lat="43.82657" lon="7.23473">
        <ele>366.39999389648</ele>
        <time>2022-01-13T10:14:23.000Z</time>
      </trkpt>
      <trkpt lat="43.82655" lon="7.2347">
        <ele>366.60000610352</ele>
        <time>2022-01-13T10:14:26.000Z</time>
      </trkpt>
      <trkpt lat="43.82661" lon="7.23464">
        <ele>366.60000610352</ele>
        <time>2022-01-13T10:14:30.000Z</time>
      </trkpt>
      <trkpt lat="43.8266" lon="7.23456">
        <ele>366.39999389648</ele>
        <time>2022-01-13T10:14:33.000Z</time>
      </trkpt>
      <trkpt lat="43.82657" lon="7.2345">
        <ele>366.79998779297</ele>
        <time>2022-01-13T10:14:35.000Z</time>
      </trkpt>
      <trkpt lat="43.82655" lon="7.23445">
        <ele>367.79998779297</ele>
        <time>2022-01-13T10:14:37.000Z</time>
      </trkpt>
      <trkpt lat="43.82652" lon="7.2344">
        <ele>369.20001220703</ele>
        <time>2022-01-13T10:14:39.000Z</time>
      </trkpt>
      <trkpt lat="43.82652" lon="7.23437">
        <ele>369.79998779297</ele>
        <time>2022-01-13T10:14:40.000Z</time>
      </trkpt>
      <trkpt lat="43.82653" lon="7.23435">
        <ele>370.60000610352</ele>
        <time>2022-01-13T10:14:41.000Z</time>
      </trkpt>
      <trkpt lat="43.82653" lon="7.23432">
        <ele>371.39999389648</ele>
        <time>2022-01-13T10:14:42.000Z</time>
      </trkpt>
      <trkpt lat="43.82654" lon="7.23429">
        <ele>372</ele>
        <time>2022-01-13T10:14:43.000Z</time>
      </trkpt>
      <trkpt lat="43.82654" lon="7.23424">
        <ele>373</ele>
        <time>2022-01-13T10:14:45.000Z</time>
      </trkpt>
      <trkpt lat="43.82653" lon="7.23421">
        <ele>373.60000610352</ele>
        <time>2022-01-13T10:14:46.000Z</time>
      </trkpt>
      <trkpt lat="43.82654" lon="7.23418">
        <ele>374.20001220703</ele>
        <time>2022-01-13T10:14:47.000Z</time>
      </trkpt>
      <trkpt lat="43.82654" lon="7.23413">
        <ele>375.39999389648</ele>
        <time>2022-01-13T10:14:49.000Z</time>
      </trkpt>
      <trkpt lat="43.82654" lon="7.23411">
        <ele>375.79998779297</ele>
        <time>2022-01-13T10:14:50.000Z</time>
      </trkpt>
      <trkpt lat="43.82655" lon="7.23405">
        <ele>377</ele>
        <time>2022-01-13T10:14:52.000Z</time>
      </trkpt>
      <trkpt lat="43.82656" lon="7.234">
        <ele>378</ele>
        <time>2022-01-13T10:14:54.000Z</time>
      </trkpt>
      <trkpt lat="43.82657" lon="7.23397">
        <ele>378.60000610352</ele>
        <time>2022-01-13T10:14:55.000Z</time>
      </trkpt>
      <trkpt lat="43.82658" lon="7.23394">
        <ele>379.39999389648</ele>
        <time>2022-01-13T10:14:56.000Z</time>
      </trkpt>
      <trkpt lat="43.82659" lon="7.23393">
        <ele>379.60000610352</ele>
        <time>2022-01-13T10:14:57.000Z</time>
      </trkpt>
      <trkpt lat="43.8266" lon="7.23391">
        <ele>380.20001220703</ele>
        <time>2022-01-13T10:14:58.000Z</time>
      </trkpt>
      <trkpt lat="43.82661" lon="7.2339">
        <ele>380.79998779297</ele>
        <time>2022-01-13T10:14:59.000Z</time>
      </trkpt>
      <trkpt lat="43.82666" lon="7.23387">
        <ele>382.39999389648</ele>
        <time>2022-01-13T10:15:02.000Z</time>
      </trkpt>
      <trkpt lat="43.82667" lon="7.23392">
        <ele>383.79998779297</ele>
        <time>2022-01-13T10:15:05.000Z</time>
      </trkpt>
      <trkpt lat="43.82669" lon="7.23399">
        <ele>385</ele>
        <time>2022-01-13T10:15:08.000Z</time>
      </trkpt>
      <trkpt lat="43.82669" lon="7.23401">
        <ele>385.39999389648</ele>
        <time>2022-01-13T10:15:09.000Z</time>
      </trkpt>
      <trkpt lat="43.8267" lon="7.23402">
        <ele>386.20001220703</ele>
        <time>2022-01-13T10:15:11.000Z</time>
      </trkpt>
      <trkpt lat="43.82671" lon="7.23401">
        <ele>386.60000610352</ele>
        <time>2022-01-13T10:15:12.000Z</time>
      </trkpt>
      <trkpt lat="43.82671" lon="7.234">
        <ele>386.79998779297</ele>
        <time>2022-01-13T10:15:13.000Z</time>
      </trkpt>
      <trkpt lat="43.82671" lon="7.23396">
        <ele>387.39999389648</ele>
        <time>2022-01-13T10:15:15.000Z</time>
      </trkpt>
      <trkpt lat="43.82672" lon="7.23393">
        <ele>387.79998779297</ele>
        <time>2022-01-13T10:15:17.000Z</time>
      </trkpt>
      <trkpt lat="43.82674" lon="7.23392">
        <ele>388.39999389648</ele>
        <time>2022-01-13T10:15:18.000Z</time>
      </trkpt>
      <trkpt lat="43.82675" lon="7.23392">
        <ele>388.60000610352</ele>
        <time>2022-01-13T10:15:19.000Z</time>
      </trkpt>
      <trkpt lat="43.82678" lon="7.23394">
        <ele>389.39999389648</ele>
        <time>2022-01-13T10:15:21.000Z</time>
      </trkpt>
      <trkpt lat="43.82679" lon="7.23394">
        <ele>389.79998779297</ele>
        <time>2022-01-13T10:15:22.000Z</time>
      </trkpt>
      <trkpt lat="43.82679" lon="7.23394">
        <ele>390.79998779297</ele>
        <time>2022-01-13T10:15:26.000Z</time>
      </trkpt>
      <trkpt lat="43.82679" lon="7.23394">
        <ele>391</ele>
        <time>2022-01-13T10:15:28.000Z</time>
      </trkpt>
      <trkpt lat="43.82679" lon="7.23393">
        <ele>391.20001220703</ele>
        <time>2022-01-13T10:15:38.000Z</time>
      </trkpt>
      <trkpt lat="43.82678" lon="7.23392">
        <ele>390.79998779297</ele>
        <time>2022-01-13T10:15:45.000Z</time>
      </trkpt>
      <trkpt lat="43.82678" lon="7.23387">
        <ele>390.60000610352</ele>
        <time>2022-01-13T10:15:57.000Z</time>
      </trkpt>
      <trkpt lat="43.82678" lon="7.23386">
        <ele>391</ele>
        <time>2022-01-13T10:16:03.000Z</time>
      </trkpt>
      <trkpt lat="43.82678" lon="7.23386">
        <ele>391</ele>
        <time>2022-01-13T10:16:13.000Z</time>
      </trkpt>
      <trkpt lat="43.82679" lon="7.23387">
        <ele>391.20001220703</ele>
        <time>2022-01-13T10:16:21.000Z</time>
      </trkpt>
      <trkpt lat="43.8268" lon="7.23389">
        <ele>391.39999389648</ele>
        <time>2022-01-13T10:16:26.000Z</time>
      </trkpt>
      <trkpt lat="43.8268" lon="7.23391">
        <ele>391.60000610352</ele>
        <time>2022-01-13T10:16:33.000Z</time>
      </trkpt>
      <trkpt lat="43.82681" lon="7.2339">
        <ele>392</ele>
        <time>2022-01-13T10:16:36.000Z</time>
      </trkpt>
      <trkpt lat="43.82683" lon="7.23388">
        <ele>392.79998779297</ele>
        <time>2022-01-13T10:16:40.000Z</time>
      </trkpt>
      <trkpt lat="43.82684" lon="7.23389">
        <ele>393.20001220703</ele>
        <time>2022-01-13T10:16:42.000Z</time>
      </trkpt>
      <trkpt lat="43.82685" lon="7.23389">
        <ele>393.79998779297</ele>
        <time>2022-01-13T10:16:46.000Z</time>
      </trkpt>
      <trkpt lat="43.82686" lon="7.23388">
        <ele>394.39999389648</ele>
        <time>2022-01-13T10:16:49.000Z</time>
      </trkpt>
      <trkpt lat="43.82689" lon="7.23387">
        <ele>395.39999389648</ele>
        <time>2022-01-13T10:16:55.000Z</time>
      </trkpt>
      <trkpt lat="43.82691" lon="7.23387">
        <ele>395.79998779297</ele>
        <time>2022-01-13T10:16:57.000Z</time>
      </trkpt>
      <trkpt lat="43.82692" lon="7.23388">
        <ele>396.39999389648</ele>
        <time>2022-01-13T10:17:00.000Z</time>
      </trkpt>
      <trkpt lat="43.82695" lon="7.23388">
        <ele>397.39999389648</ele>
        <time>2022-01-13T10:17:06.000Z</time>
      </trkpt>
      <trkpt lat="43.82695" lon="7.23387">
        <ele>397.60000610352</ele>
        <time>2022-01-13T10:17:07.000Z</time>
      </trkpt>
      <trkpt lat="43.82695" lon="7.23386">
        <ele>398.20001220703</ele>
        <time>2022-01-13T10:17:12.000Z</time>
      </trkpt>
      <trkpt lat="43.82695" lon="7.23383">
        <ele>398.79998779297</ele>
        <time>2022-01-13T10:17:15.000Z</time>
      </trkpt>
      <trkpt lat="43.82696" lon="7.23382">
        <ele>399</ele>
        <time>2022-01-13T10:17:16.000Z</time>
      </trkpt>
      <trkpt lat="43.82697" lon="7.23381">
        <ele>399.39999389648</ele>
        <time>2022-01-13T10:17:18.000Z</time>
      </trkpt>
      <trkpt lat="43.82698" lon="7.23382">
        <ele>399.79998779297</ele>
        <time>2022-01-13T10:17:21.000Z</time>
      </trkpt>
      <trkpt lat="43.82699" lon="7.23382">
        <ele>399.79998779297</ele>
        <time>2022-01-13T10:17:24.000Z</time>
      </trkpt>
      <trkpt lat="43.82701" lon="7.23382">
        <ele>399.79998779297</ele>
        <time>2022-01-13T10:17:25.000Z</time>
      </trkpt>
      <trkpt lat="43.82704" lon="7.23388">
        <ele>399.60000610352</ele>
        <time>2022-01-13T10:17:28.000Z</time>
      </trkpt>
      <trkpt lat="43.82711" lon="7.23399">
        <ele>400.60000610352</ele>
        <time>2022-01-13T10:17:33.000Z</time>
      </trkpt>
      <trkpt lat="43.82713" lon="7.23401">
        <ele>401</ele>
        <time>2022-01-13T10:17:34.000Z</time>
      </trkpt>
      <trkpt lat="43.82718" lon="7.23408">
        <ele>402</ele>
        <time>2022-01-13T10:17:37.000Z</time>
      </trkpt>
      <trkpt lat="43.82726" lon="7.23416">
        <ele>403</ele>
        <time>2022-01-13T10:17:41.000Z</time>
      </trkpt>
      <trkpt lat="43.82735" lon="7.23425">
        <ele>404.20001220703</ele>
        <time>2022-01-13T10:17:45.000Z</time>
      </trkpt>
      <trkpt lat="43.82743" lon="7.23432">
        <ele>404.79998779297</ele>
        <time>2022-01-13T10:17:49.000Z</time>
      </trkpt>
      <trkpt lat="43.8275" lon="7.23437">
        <ele>405.20001220703</ele>
        <time>2022-01-13T10:17:52.000Z</time>
      </trkpt>
      <trkpt lat="43.82759" lon="7.23444">
        <ele>405.39999389648</ele>
        <time>2022-01-13T10:17:56.000Z</time>
      </trkpt>
      <trkpt lat="43.82777" lon="7.23452">
        <ele>406</ele>
        <time>2022-01-13T10:18:03.000Z</time>
      </trkpt>
      <trkpt lat="43.82782" lon="7.23454">
        <ele>406.20001220703</ele>
        <time>2022-01-13T10:18:05.000Z</time>
      </trkpt>
      <trkpt lat="43.828" lon="7.23461">
        <ele>407</ele>
        <time>2022-01-13T10:18:12.000Z</time>
      </trkpt>
      <trkpt lat="43.82802" lon="7.23461">
        <ele>407.20001220703</ele>
        <time>2022-01-13T10:18:13.000Z</time>
      </trkpt>
      <trkpt lat="43.82819" lon="7.23464">
        <ele>408.39999389648</ele>
        <time>2022-01-13T10:18:20.000Z</time>
      </trkpt>
      <trkpt lat="43.82832" lon="7.23462">
        <ele>409.60000610352</ele>
        <time>2022-01-13T10:18:25.000Z</time>
      </trkpt>
      <trkpt lat="43.82839" lon="7.23462">
        <ele>410.60000610352</ele>
        <time>2022-01-13T10:18:28.000Z</time>
      </trkpt>
      <trkpt lat="43.82842" lon="7.23461">
        <ele>410.79998779297</ele>
        <time>2022-01-13T10:18:29.000Z</time>
      </trkpt>
      <trkpt lat="43.8285" lon="7.23462">
        <ele>412</ele>
        <time>2022-01-13T10:18:32.000Z</time>
      </trkpt>
      <trkpt lat="43.82856" lon="7.23465">
        <ele>413.20001220703</ele>
        <time>2022-01-13T10:18:35.000Z</time>
      </trkpt>
      <trkpt lat="43.82862" lon="7.2347">
        <ele>414.39999389648</ele>
        <time>2022-01-13T10:18:38.000Z</time>
      </trkpt>
      <trkpt lat="43.8287" lon="7.23477">
        <ele>415.60000610352</ele>
        <time>2022-01-13T10:18:42.000Z</time>
      </trkpt>
      <trkpt lat="43.82876" lon="7.23483">
        <ele>416.79998779297</ele>
        <time>2022-01-13T10:18:45.000Z</time>
      </trkpt>
      <trkpt lat="43.82885" lon="7.23487">
        <ele>418</ele>
        <time>2022-01-13T10:18:49.000Z</time>
      </trkpt>
      <trkpt lat="43.82887" lon="7.23488">
        <ele>418.39999389648</ele>
        <time>2022-01-13T10:18:50.000Z</time>
      </trkpt>
      <trkpt lat="43.82892" lon="7.2349">
        <ele>419.20001220703</ele>
        <time>2022-01-13T10:18:52.000Z</time>
      </trkpt>
      <trkpt lat="43.82901" lon="7.23492">
        <ele>420.20001220703</ele>
        <time>2022-01-13T10:18:56.000Z</time>
      </trkpt>
      <trkpt lat="43.82911" lon="7.23493">
        <ele>421.39999389648</ele>
        <time>2022-01-13T10:19:00.000Z</time>
      </trkpt>
      <trkpt lat="43.82919" lon="7.23494">
        <ele>422.20001220703</ele>
        <time>2022-01-13T10:19:03.000Z</time>
      </trkpt>
      <trkpt lat="43.82922" lon="7.23495">
        <ele>422.60000610352</ele>
        <time>2022-01-13T10:19:04.000Z</time>
      </trkpt>
      <trkpt lat="43.82941" lon="7.23502">
        <ele>423.60000610352</ele>
        <time>2022-01-13T10:19:11.000Z</time>
      </trkpt>
      <trkpt lat="43.82954" lon="7.23509">
        <ele>424.60000610352</ele>
        <time>2022-01-13T10:19:16.000Z</time>
      </trkpt>
      <trkpt lat="43.82961" lon="7.23514">
        <ele>425.20001220703</ele>
        <time>2022-01-13T10:19:19.000Z</time>
      </trkpt>
      <trkpt lat="43.82966" lon="7.23517">
        <ele>425.79998779297</ele>
        <time>2022-01-13T10:19:21.000Z</time>
      </trkpt>
      <trkpt lat="43.82976" lon="7.23523">
        <ele>426.39999389648</ele>
        <time>2022-01-13T10:19:25.000Z</time>
      </trkpt>
      <trkpt lat="43.82981" lon="7.23526">
        <ele>426.79998779297</ele>
        <time>2022-01-13T10:19:27.000Z</time>
      </trkpt>
      <trkpt lat="43.82992" lon="7.23528">
        <ele>427.60000610352</ele>
        <time>2022-01-13T10:19:31.000Z</time>
      </trkpt>
      <trkpt lat="43.82993" lon="7.23523">
        <ele>427.79998779297</ele>
        <time>2022-01-13T10:19:33.000Z</time>
      </trkpt>
      <trkpt lat="43.82992" lon="7.23521">
        <ele>428</ele>
        <time>2022-01-13T10:19:34.000Z</time>
      </trkpt>
      <trkpt lat="43.82987" lon="7.23517">
        <ele>428.60000610352</ele>
        <time>2022-01-13T10:19:36.000Z</time>
      </trkpt>
      <trkpt lat="43.82985" lon="7.23515">
        <ele>429</ele>
        <time>2022-01-13T10:19:37.000Z</time>
      </trkpt>
      <trkpt lat="43.82978" lon="7.2351">
        <ele>429.79998779297</ele>
        <time>2022-01-13T10:19:40.000Z</time>
      </trkpt>
      <trkpt lat="43.82976" lon="7.23508">
        <ele>430</ele>
        <time>2022-01-13T10:19:41.000Z</time>
      </trkpt>
      <trkpt lat="43.82968" lon="7.23502">
        <ele>430.79998779297</ele>
        <time>2022-01-13T10:19:46.000Z</time>
      </trkpt>
      <trkpt lat="43.82962" lon="7.23498">
        <ele>431</ele>
        <time>2022-01-13T10:19:52.000Z</time>
      </trkpt>
      <trkpt lat="43.82964" lon="7.23494">
        <ele>431</ele>
        <time>2022-01-13T10:19:55.000Z</time>
      </trkpt>
      <trkpt lat="43.82965" lon="7.23494">
        <ele>431</ele>
        <time>2022-01-13T10:19:56.000Z</time>
      </trkpt>
      <trkpt lat="43.82966" lon="7.23495">
        <ele>431.20001220703</ele>
        <time>2022-01-13T10:19:57.000Z</time>
      </trkpt>
      <trkpt lat="43.82969" lon="7.23496">
        <ele>431.20001220703</ele>
        <time>2022-01-13T10:19:59.000Z</time>
      </trkpt>
      <trkpt lat="43.82973" lon="7.23497">
        <ele>431</ele>
        <time>2022-01-13T10:20:01.000Z</time>
      </trkpt>
      <trkpt lat="43.82975" lon="7.23498">
        <ele>432.39999389648</ele>
        <time>2022-01-13T10:20:05.000Z</time>
      </trkpt>
      <trkpt lat="43.82979" lon="7.23497">
        <ele>433.60000610352</ele>
        <time>2022-01-13T10:20:11.000Z</time>
      </trkpt>
      <trkpt lat="43.8298" lon="7.23497">
        <ele>434</ele>
        <time>2022-01-13T10:20:13.000Z</time>
      </trkpt>
      <trkpt lat="43.82981" lon="7.23497">
        <ele>434.79998779297</ele>
        <time>2022-01-13T10:20:16.000Z</time>
      </trkpt>
      <trkpt lat="43.82982" lon="7.23497">
        <ele>434.79998779297</ele>
        <time>2022-01-13T10:20:17.000Z</time>
      </trkpt>
      <trkpt lat="43.82991" lon="7.23501">
        <ele>435.39999389648</ele>
        <time>2022-01-13T10:20:23.000Z</time>
      </trkpt>
      <trkpt lat="43.82992" lon="7.235">
        <ele>435.79998779297</ele>
        <time>2022-01-13T10:20:24.000Z</time>
      </trkpt>
      <trkpt lat="43.82994" lon="7.23495">
        <ele>436.79998779297</ele>
        <time>2022-01-13T10:20:27.000Z</time>
      </trkpt>
      <trkpt lat="43.82996" lon="7.23492">
        <ele>438</ele>
        <time>2022-01-13T10:20:30.000Z</time>
      </trkpt>
      <trkpt lat="43.82996" lon="7.23492">
        <ele>438.39999389648</ele>
        <time>2022-01-13T10:20:31.000Z</time>
      </trkpt>
      <trkpt lat="43.82995" lon="7.23492">
        <ele>439</ele>
        <time>2022-01-13T10:20:33.000Z</time>
      </trkpt>
      <trkpt lat="43.82995" lon="7.23491">
        <ele>439</ele>
        <time>2022-01-13T10:20:40.000Z</time>
      </trkpt>
      <trkpt lat="43.82995" lon="7.23491">
        <ele>439.60000610352</ele>
        <time>2022-01-13T10:20:47.000Z</time>
      </trkpt>
      <trkpt lat="43.82994" lon="7.23491">
        <ele>439.60000610352</ele>
        <time>2022-01-13T10:20:59.000Z</time>
      </trkpt>
      <trkpt lat="43.82995" lon="7.23491">
        <ele>439.39999389648</ele>
        <time>2022-01-13T10:21:22.000Z</time>
      </trkpt>
      <trkpt lat="43.82994" lon="7.2349">
        <ele>439.39999389648</ele>
        <time>2022-01-13T10:21:44.000Z</time>
      </trkpt>
      <trkpt lat="43.82993" lon="7.23486">
        <ele>439.20001220703</ele>
        <time>2022-01-13T10:22:07.000Z</time>
      </trkpt>
      <trkpt lat="43.82994" lon="7.23484">
        <ele>439.20001220703</ele>
        <time>2022-01-13T10:22:11.000Z</time>
      </trkpt>
      <trkpt lat="43.82993" lon="7.23483">
        <ele>439.79998779297</ele>
        <time>2022-01-13T10:22:17.000Z</time>
      </trkpt>
      <trkpt lat="43.82994" lon="7.2348">
        <ele>440.20001220703</ele>
        <time>2022-01-13T10:22:22.000Z</time>
      </trkpt>
      <trkpt lat="43.82994" lon="7.2348">
        <ele>440.79998779297</ele>
        <time>2022-01-13T10:22:24.000Z</time>
      </trkpt>
      <trkpt lat="43.82995" lon="7.23479">
        <ele>441.20001220703</ele>
        <time>2022-01-13T10:22:27.000Z</time>
      </trkpt>
      <trkpt lat="43.82998" lon="7.23479">
        <ele>441.79998779297</ele>
        <time>2022-01-13T10:22:30.000Z</time>
      </trkpt>
      <trkpt lat="43.82999" lon="7.23479">
        <ele>442.39999389648</ele>
        <time>2022-01-13T10:22:33.000Z</time>
      </trkpt>
      <trkpt lat="43.83" lon="7.23477">
        <ele>442.79998779297</ele>
        <time>2022-01-13T10:22:36.000Z</time>
      </trkpt>
      <trkpt lat="43.83" lon="7.23476">
        <ele>443.60000610352</ele>
        <time>2022-01-13T10:22:40.000Z</time>
      </trkpt>
      <trkpt lat="43.83002" lon="7.23474">
        <ele>444.20001220703</ele>
        <time>2022-01-13T10:22:43.000Z</time>
      </trkpt>
      <trkpt lat="43.83003" lon="7.23471">
        <ele>444.79998779297</ele>
        <time>2022-01-13T10:22:47.000Z</time>
      </trkpt>
      <trkpt lat="43.83004" lon="7.23471">
        <ele>445.20001220703</ele>
        <time>2022-01-13T10:22:50.000Z</time>
      </trkpt>
      <trkpt lat="43.83004" lon="7.23471">
        <ele>445.79998779297</ele>
        <time>2022-01-13T10:22:53.000Z</time>
      </trkpt>
      <trkpt lat="43.83006" lon="7.23468">
        <ele>445.79998779297</ele>
        <time>2022-01-13T10:22:56.000Z</time>
      </trkpt>
      <trkpt lat="43.83006" lon="7.23466">
        <ele>445.79998779297</ele>
        <time>2022-01-13T10:22:57.000Z</time>
      </trkpt>
      <trkpt lat="43.83005" lon="7.23461">
        <ele>446.79998779297</ele>
        <time>2022-01-13T10:23:01.000Z</time>
      </trkpt>
      <trkpt lat="43.83006" lon="7.2346">
        <ele>447.20001220703</ele>
        <time>2022-01-13T10:23:02.000Z</time>
      </trkpt>
      <trkpt lat="43.8301" lon="7.23456">
        <ele>447.79998779297</ele>
        <time>2022-01-13T10:23:05.000Z</time>
      </trkpt>
      <trkpt lat="43.83011" lon="7.23455">
        <ele>448</ele>
        <time>2022-01-13T10:23:06.000Z</time>
      </trkpt>
      <trkpt lat="43.83016" lon="7.23458">
        <ele>448.39999389648</ele>
        <time>2022-01-13T10:23:09.000Z</time>
      </trkpt>
      <trkpt lat="43.83023" lon="7.23459">
        <ele>448.79998779297</ele>
        <time>2022-01-13T10:23:13.000Z</time>
      </trkpt>
      <trkpt lat="43.83028" lon="7.23454">
        <ele>449.39999389648</ele>
        <time>2022-01-13T10:23:16.000Z</time>
      </trkpt>
      <trkpt lat="43.83032" lon="7.23446">
        <ele>449.79998779297</ele>
        <time>2022-01-13T10:23:19.000Z</time>
      </trkpt>
      <trkpt lat="43.83035" lon="7.2344">
        <ele>449.79998779297</ele>
        <time>2022-01-13T10:23:21.000Z</time>
      </trkpt>
      <trkpt lat="43.8304" lon="7.23424">
        <ele>450.60000610352</ele>
        <time>2022-01-13T10:23:26.000Z</time>
      </trkpt>
      <trkpt lat="43.83042" lon="7.23416">
        <ele>452</ele>
        <time>2022-01-13T10:23:29.000Z</time>
      </trkpt>
      <trkpt lat="43.83043" lon="7.23411">
        <ele>453</ele>
        <time>2022-01-13T10:23:31.000Z</time>
      </trkpt>
      <trkpt lat="43.83045" lon="7.23406">
        <ele>454.20001220703</ele>
        <time>2022-01-13T10:23:33.000Z</time>
      </trkpt>
      <trkpt lat="43.83046" lon="7.23402">
        <ele>455.20001220703</ele>
        <time>2022-01-13T10:23:35.000Z</time>
      </trkpt>
      <trkpt lat="43.83047" lon="7.23398">
        <ele>456.20001220703</ele>
        <time>2022-01-13T10:23:37.000Z</time>
      </trkpt>
      <trkpt lat="43.83048" lon="7.23396">
        <ele>456.60000610352</ele>
        <time>2022-01-13T10:23:38.000Z</time>
      </trkpt>
      <trkpt lat="43.83049" lon="7.23389">
        <ele>457.60000610352</ele>
        <time>2022-01-13T10:23:41.000Z</time>
      </trkpt>
      <trkpt lat="43.83049" lon="7.23385">
        <ele>458.79998779297</ele>
        <time>2022-01-13T10:23:43.000Z</time>
      </trkpt>
      <trkpt lat="43.8305" lon="7.23382">
        <ele>459.79998779297</ele>
        <time>2022-01-13T10:23:45.000Z</time>
      </trkpt>
      <trkpt lat="43.83051" lon="7.23377">
        <ele>461</ele>
        <time>2022-01-13T10:23:47.000Z</time>
      </trkpt>
      <trkpt lat="43.83051" lon="7.23375">
        <ele>461.39999389648</ele>
        <time>2022-01-13T10:23:48.000Z</time>
      </trkpt>
      <trkpt lat="43.83053" lon="7.23371">
        <ele>462</ele>
        <time>2022-01-13T10:23:50.000Z</time>
      </trkpt>
      <trkpt lat="43.83057" lon="7.23363">
        <ele>463.20001220703</ele>
        <time>2022-01-13T10:23:54.000Z</time>
      </trkpt>
      <trkpt lat="43.83059" lon="7.23359">
        <ele>463.60000610352</ele>
        <time>2022-01-13T10:23:56.000Z</time>
      </trkpt>
      <trkpt lat="43.83063" lon="7.23353">
        <ele>464.20001220703</ele>
        <time>2022-01-13T10:23:59.000Z</time>
      </trkpt>
      <trkpt lat="43.83067" lon="7.23348">
        <ele>465.39999389648</ele>
        <time>2022-01-13T10:24:02.000Z</time>
      </trkpt>
      <trkpt lat="43.83068" lon="7.23346">
        <ele>465.60000610352</ele>
        <time>2022-01-13T10:24:03.000Z</time>
      </trkpt>
      <trkpt lat="43.83071" lon="7.23342">
        <ele>466.39999389648</ele>
        <time>2022-01-13T10:24:05.000Z</time>
      </trkpt>
      <trkpt lat="43.83075" lon="7.23333">
        <ele>468</ele>
        <time>2022-01-13T10:24:09.000Z</time>
      </trkpt>
      <trkpt lat="43.83077" lon="7.23328">
        <ele>468.79998779297</ele>
        <time>2022-01-13T10:24:11.000Z</time>
      </trkpt>
      <trkpt lat="43.83078" lon="7.23326">
        <ele>469.39999389648</ele>
        <time>2022-01-13T10:24:12.000Z</time>
      </trkpt>
      <trkpt lat="43.83081" lon="7.23319">
        <ele>470.39999389648</ele>
        <time>2022-01-13T10:24:15.000Z</time>
      </trkpt>
      <trkpt lat="43.83085" lon="7.23309">
        <ele>471.20001220703</ele>
        <time>2022-01-13T10:24:19.000Z</time>
      </trkpt>
      <trkpt lat="43.83086" lon="7.23306">
        <ele>471.39999389648</ele>
        <time>2022-01-13T10:24:20.000Z</time>
      </trkpt>
      <trkpt lat="43.83089" lon="7.23301">
        <ele>472.79998779297</ele>
        <time>2022-01-13T10:24:23.000Z</time>
      </trkpt>
      <trkpt lat="43.83089" lon="7.23301">
        <ele>473.20001220703</ele>
        <time>2022-01-13T10:24:24.000Z</time>
      </trkpt>
      <trkpt lat="43.83089" lon="7.233">
        <ele>473.79998779297</ele>
        <time>2022-01-13T10:24:27.000Z</time>
      </trkpt>
      <trkpt lat="43.8309" lon="7.233">
        <ele>474</ele>
        <time>2022-01-13T10:24:32.000Z</time>
      </trkpt>
      <trkpt lat="43.83089" lon="7.233">
        <ele>474</ele>
        <time>2022-01-13T10:24:39.000Z</time>
      </trkpt>
      <trkpt lat="43.83089" lon="7.23299">
        <ele>474</ele>
        <time>2022-01-13T10:24:53.000Z</time>
      </trkpt>
      <trkpt lat="43.83089" lon="7.23298">
        <ele>473.79998779297</ele>
        <time>2022-01-13T10:25:15.000Z</time>
      </trkpt>
      <trkpt lat="43.8309" lon="7.23297">
        <ele>473.79998779297</ele>
        <time>2022-01-13T10:25:32.000Z</time>
      </trkpt>
      <trkpt lat="43.83095" lon="7.23296">
        <ele>473.79998779297</ele>
        <time>2022-01-13T10:25:38.000Z</time>
      </trkpt>
      <trkpt lat="43.83112" lon="7.23288">
        <ele>473</ele>
        <time>2022-01-13T10:25:43.000Z</time>
      </trkpt>
      <trkpt lat="43.83116" lon="7.23286">
        <ele>472.79998779297</ele>
        <time>2022-01-13T10:25:44.000Z</time>
      </trkpt>
      <trkpt lat="43.83121" lon="7.23282">
        <ele>472.60000610352</ele>
        <time>2022-01-13T10:25:45.000Z</time>
      </trkpt>
      <trkpt lat="43.83133" lon="7.2328">
        <ele>471.60000610352</ele>
        <time>2022-01-13T10:25:48.000Z</time>
      </trkpt>
      <trkpt lat="43.83136" lon="7.2328">
        <ele>471.20001220703</ele>
        <time>2022-01-13T10:25:49.000Z</time>
      </trkpt>
      <trkpt lat="43.83145" lon="7.23278">
        <ele>470.20001220703</ele>
        <time>2022-01-13T10:25:52.000Z</time>
      </trkpt>
      <trkpt lat="43.8315" lon="7.23277">
        <ele>469.39999389648</ele>
        <time>2022-01-13T10:25:54.000Z</time>
      </trkpt>
      <trkpt lat="43.83153" lon="7.23277">
        <ele>469</ele>
        <time>2022-01-13T10:25:55.000Z</time>
      </trkpt>
      <trkpt lat="43.83154" lon="7.23283">
        <ele>467.79998779297</ele>
        <time>2022-01-13T10:25:57.000Z</time>
      </trkpt>
      <trkpt lat="43.83154" lon="7.23291">
        <ele>467.20001220703</ele>
        <time>2022-01-13T10:25:59.000Z</time>
      </trkpt>
      <trkpt lat="43.83154" lon="7.23297">
        <ele>466.60000610352</ele>
        <time>2022-01-13T10:26:01.000Z</time>
      </trkpt>
      <trkpt lat="43.83152" lon="7.23307">
        <ele>466</ele>
        <time>2022-01-13T10:26:04.000Z</time>
      </trkpt>
      <trkpt lat="43.83149" lon="7.23325">
        <ele>465.60000610352</ele>
        <time>2022-01-13T10:26:10.000Z</time>
      </trkpt>
      <trkpt lat="43.83149" lon="7.23332">
        <ele>465.60000610352</ele>
        <time>2022-01-13T10:26:12.000Z</time>
      </trkpt>
      <trkpt lat="43.83157" lon="7.23353">
        <ele>465.39999389648</ele>
        <time>2022-01-13T10:26:19.000Z</time>
      </trkpt>
      <trkpt lat="43.83169" lon="7.23367">
        <ele>465.20001220703</ele>
        <time>2022-01-13T10:26:26.000Z</time>
      </trkpt>
      <trkpt lat="43.83178" lon="7.23371">
        <ele>465.20001220703</ele>
        <time>2022-01-13T10:26:31.000Z</time>
      </trkpt>
      <trkpt lat="43.83182" lon="7.23373">
        <ele>465.39999389648</ele>
        <time>2022-01-13T10:26:33.000Z</time>
      </trkpt>
      <trkpt lat="43.83185" lon="7.23381">
        <ele>465.60000610352</ele>
        <time>2022-01-13T10:26:36.000Z</time>
      </trkpt>
      <trkpt lat="43.83191" lon="7.23399">
        <ele>466.60000610352</ele>
        <time>2022-01-13T10:26:43.000Z</time>
      </trkpt>
      <trkpt lat="43.83192" lon="7.23401">
        <ele>467</ele>
        <time>2022-01-13T10:26:44.000Z</time>
      </trkpt>
      <trkpt lat="43.83193" lon="7.23404">
        <ele>467.79998779297</ele>
        <time>2022-01-13T10:26:47.000Z</time>
      </trkpt>
      <trkpt lat="43.83193" lon="7.23404">
        <ele>468</ele>
        <time>2022-01-13T10:26:48.000Z</time>
      </trkpt>
      <trkpt lat="43.83194" lon="7.23408">
        <ele>468.60000610352</ele>
        <time>2022-01-13T10:26:53.000Z</time>
      </trkpt>
      <trkpt lat="43.83197" lon="7.23419">
        <ele>469</ele>
        <time>2022-01-13T10:26:57.000Z</time>
      </trkpt>
      <trkpt lat="43.83198" lon="7.23422">
        <ele>469.20001220703</ele>
        <time>2022-01-13T10:26:58.000Z</time>
      </trkpt>
      <trkpt lat="43.83203" lon="7.23439">
        <ele>470.39999389648</ele>
        <time>2022-01-13T10:27:03.000Z</time>
      </trkpt>
      <trkpt lat="43.83203" lon="7.2344">
        <ele>471</ele>
        <time>2022-01-13T10:27:04.000Z</time>
      </trkpt>
      <trkpt lat="43.83205" lon="7.23442">
        <ele>471.79998779297</ele>
        <time>2022-01-13T10:27:06.000Z</time>
      </trkpt>
      <trkpt lat="43.83206" lon="7.23442">
        <ele>472.20001220703</ele>
        <time>2022-01-13T10:27:07.000Z</time>
      </trkpt>
      <trkpt lat="43.83208" lon="7.23441">
        <ele>472.39999389648</ele>
        <time>2022-01-13T10:27:08.000Z</time>
      </trkpt>
      <trkpt lat="43.83208" lon="7.23442">
        <ele>473.20001220703</ele>
        <time>2022-01-13T10:27:10.000Z</time>
      </trkpt>
      <trkpt lat="43.8321" lon="7.23443">
        <ele>474.60000610352</ele>
        <time>2022-01-13T10:27:13.000Z</time>
      </trkpt>
      <trkpt lat="43.83212" lon="7.23444">
        <ele>475.20001220703</ele>
        <time>2022-01-13T10:27:18.000Z</time>
      </trkpt>
      <trkpt lat="43.83218" lon="7.23446">
        <ele>476</ele>
        <time>2022-01-13T10:27:22.000Z</time>
      </trkpt>
      <trkpt lat="43.83218" lon="7.23445">
        <ele>476.39999389648</ele>
        <time>2022-01-13T10:27:23.000Z</time>
      </trkpt>
      <trkpt lat="43.83219" lon="7.23446">
        <ele>477</ele>
        <time>2022-01-13T10:27:24.000Z</time>
      </trkpt>
      <trkpt lat="43.8322" lon="7.23448">
        <ele>478</ele>
        <time>2022-01-13T10:27:28.000Z</time>
      </trkpt>
      <trkpt lat="43.83221" lon="7.23448">
        <ele>478.20001220703</ele>
        <time>2022-01-13T10:27:29.000Z</time>
      </trkpt>
      <trkpt lat="43.83222" lon="7.23449">
        <ele>479.20001220703</ele>
        <time>2022-01-13T10:27:32.000Z</time>
      </trkpt>
      <trkpt lat="43.83222" lon="7.23452">
        <ele>479.39999389648</ele>
        <time>2022-01-13T10:27:37.000Z</time>
      </trkpt>
      <trkpt lat="43.83228" lon="7.23464">
        <ele>479.60000610352</ele>
        <time>2022-01-13T10:27:42.000Z</time>
      </trkpt>
      <trkpt lat="43.83239" lon="7.23486">
        <ele>479.79998779297</ele>
        <time>2022-01-13T10:27:50.000Z</time>
      </trkpt>
      <trkpt lat="43.83243" lon="7.23497">
        <ele>480</ele>
        <time>2022-01-13T10:27:53.000Z</time>
      </trkpt>
      <trkpt lat="43.83245" lon="7.23502">
        <ele>480</ele>
        <time>2022-01-13T10:27:54.000Z</time>
      </trkpt>
      <trkpt lat="43.83254" lon="7.2351">
        <ele>478.79998779297</ele>
        <time>2022-01-13T10:27:57.000Z</time>
      </trkpt>
      <trkpt lat="43.83255" lon="7.23514">
        <ele>478.20001220703</ele>
        <time>2022-01-13T10:27:58.000Z</time>
      </trkpt>
      <trkpt lat="43.83256" lon="7.23517">
        <ele>478</ele>
        <time>2022-01-13T10:27:59.000Z</time>
      </trkpt>
      <trkpt lat="43.83262" lon="7.23523">
        <ele>477.79998779297</ele>
        <time>2022-01-13T10:28:01.000Z</time>
      </trkpt>
      <trkpt lat="43.83266" lon="7.23523">
        <ele>477.79998779297</ele>
        <time>2022-01-13T10:28:02.000Z</time>
      </trkpt>
      <trkpt lat="43.83271" lon="7.23524">
        <ele>478</ele>
        <time>2022-01-13T10:28:04.000Z</time>
      </trkpt>
      <trkpt lat="43.83276" lon="7.23529">
        <ele>479.39999389648</ele>
        <time>2022-01-13T10:28:06.000Z</time>
      </trkpt>
      <trkpt lat="43.83278" lon="7.23532">
        <ele>480.20001220703</ele>
        <time>2022-01-13T10:28:07.000Z</time>
      </trkpt>
      <trkpt lat="43.8328" lon="7.23535">
        <ele>480.79998779297</ele>
        <time>2022-01-13T10:28:08.000Z</time>
      </trkpt>
      <trkpt lat="43.83285" lon="7.23551">
        <ele>482</ele>
        <time>2022-01-13T10:28:12.000Z</time>
      </trkpt>
      <trkpt lat="43.83287" lon="7.23555">
        <ele>482.20001220703</ele>
        <time>2022-01-13T10:28:13.000Z</time>
      </trkpt>
      <trkpt lat="43.83296" lon="7.23571">
        <ele>483.20001220703</ele>
        <time>2022-01-13T10:28:18.000Z</time>
      </trkpt>
      <trkpt lat="43.833" lon="7.23577">
        <ele>483.60000610352</ele>
        <time>2022-01-13T10:28:20.000Z</time>
      </trkpt>
      <trkpt lat="43.8331" lon="7.23596">
        <ele>484.39999389648</ele>
        <time>2022-01-13T10:28:26.000Z</time>
      </trkpt>
      <trkpt lat="43.83312" lon="7.236">
        <ele>484.39999389648</ele>
        <time>2022-01-13T10:28:27.000Z</time>
      </trkpt>
      <trkpt lat="43.8332" lon="7.23616">
        <ele>484.39999389648</ele>
        <time>2022-01-13T10:28:33.000Z</time>
      </trkpt>
      <trkpt lat="43.83324" lon="7.23623">
        <ele>484.39999389648</ele>
        <time>2022-01-13T10:28:39.000Z</time>
      </trkpt>
      <trkpt lat="43.83324" lon="7.23624">
        <ele>484.39999389648</ele>
        <time>2022-01-13T10:28:44.000Z</time>
      </trkpt>
      <trkpt lat="43.83325" lon="7.23624">
        <ele>484.20001220703</ele>
        <time>2022-01-13T10:29:01.000Z</time>
      </trkpt>
      <trkpt lat="43.83328" lon="7.23631">
        <ele>484</ele>
        <time>2022-01-13T10:29:10.000Z</time>
      </trkpt>
      <trkpt lat="43.8333" lon="7.23631">
        <ele>484.20001220703</ele>
        <time>2022-01-13T10:29:11.000Z</time>
      </trkpt>
      <trkpt lat="43.83334" lon="7.23635">
        <ele>484.39999389648</ele>
        <time>2022-01-13T10:29:14.000Z</time>
      </trkpt>
      <trkpt lat="43.83335" lon="7.23636">
        <ele>485.20001220703</ele>
        <time>2022-01-13T10:29:19.000Z</time>
      </trkpt>
      <trkpt lat="43.83335" lon="7.23636">
        <ele>485.39999389648</ele>
        <time>2022-01-13T10:29:21.000Z</time>
      </trkpt>
      <trkpt lat="43.83337" lon="7.23635">
        <ele>485.39999389648</ele>
        <time>2022-01-13T10:29:36.000Z</time>
      </trkpt>
      <trkpt lat="43.83338" lon="7.23635">
        <ele>485.60000610352</ele>
        <time>2022-01-13T10:29:49.000Z</time>
      </trkpt>
      <trkpt lat="43.83339" lon="7.23635">
        <ele>485.39999389648</ele>
        <time>2022-01-13T10:30:00.000Z</time>
      </trkpt>
      <trkpt lat="43.8334" lon="7.23636">
        <ele>485.60000610352</ele>
        <time>2022-01-13T10:30:05.000Z</time>
      </trkpt>
      <trkpt lat="43.83342" lon="7.23637">
        <ele>486</ele>
        <time>2022-01-13T10:30:10.000Z</time>
      </trkpt>
      <trkpt lat="43.83345" lon="7.23636">
        <ele>486.20001220703</ele>
        <time>2022-01-13T10:30:11.000Z</time>
      </trkpt>
      <trkpt lat="43.83345" lon="7.23633">
        <ele>486.39999389648</ele>
        <time>2022-01-13T10:30:13.000Z</time>
      </trkpt>
      <trkpt lat="43.83344" lon="7.23635">
        <ele>487.39999389648</ele>
        <time>2022-01-13T10:30:15.000Z</time>
      </trkpt>
      <trkpt lat="43.83343" lon="7.23634">
        <ele>487.79998779297</ele>
        <time>2022-01-13T10:30:16.000Z</time>
      </trkpt>
      <trkpt lat="43.83343" lon="7.23635">
        <ele>488</ele>
        <time>2022-01-13T10:30:19.000Z</time>
      </trkpt>
      <trkpt lat="43.83343" lon="7.23636">
        <ele>486.60000610352</ele>
        <time>2022-01-13T10:30:23.000Z</time>
      </trkpt>
      <trkpt lat="43.83343" lon="7.23636">
        <ele>487.39999389648</ele>
        <time>2022-01-13T10:30:30.000Z</time>
      </trkpt>
      <trkpt lat="43.83343" lon="7.23636">
        <ele>487.79998779297</ele>
        <time>2022-01-13T10:30:35.000Z</time>
      </trkpt>
      <trkpt lat="43.83343" lon="7.23637">
        <ele>487.79998779297</ele>
        <time>2022-01-13T10:30:42.000Z</time>
      </trkpt>
      <trkpt lat="43.83344" lon="7.23635">
        <ele>488</ele>
        <time>2022-01-13T10:30:50.000Z</time>
      </trkpt>
      <trkpt lat="43.83345" lon="7.23633">
        <ele>489</ele>
        <time>2022-01-13T10:30:55.000Z</time>
      </trkpt>
      <trkpt lat="43.83345" lon="7.23633">
        <ele>489.20001220703</ele>
        <time>2022-01-13T10:30:56.000Z</time>
      </trkpt>
      <trkpt lat="43.83346" lon="7.2363">
        <ele>490</ele>
        <time>2022-01-13T10:31:02.000Z</time>
      </trkpt>
      <trkpt lat="43.83346" lon="7.23627">
        <ele>491.20001220703</ele>
        <time>2022-01-13T10:31:08.000Z</time>
      </trkpt>
      <trkpt lat="43.83346" lon="7.23625">
        <ele>491.79998779297</ele>
        <time>2022-01-13T10:31:11.000Z</time>
      </trkpt>
      <trkpt lat="43.83346" lon="7.23623">
        <ele>492.39999389648</ele>
        <time>2022-01-13T10:31:14.000Z</time>
      </trkpt>
      <trkpt lat="43.83346" lon="7.23623">
        <ele>493.20001220703</ele>
        <time>2022-01-13T10:31:18.000Z</time>
      </trkpt>
      <trkpt lat="43.83346" lon="7.23623">
        <ele>493.39999389648</ele>
        <time>2022-01-13T10:31:20.000Z</time>
      </trkpt>
      <trkpt lat="43.83346" lon="7.23624">
        <ele>493.79998779297</ele>
        <time>2022-01-13T10:31:24.000Z</time>
      </trkpt>
      <trkpt lat="43.83345" lon="7.23622">
        <ele>494.20001220703</ele>
        <time>2022-01-13T10:31:31.000Z</time>
      </trkpt>
      <trkpt lat="43.83347" lon="7.23619">
        <ele>494.39999389648</ele>
        <time>2022-01-13T10:31:35.000Z</time>
      </trkpt>
      <trkpt lat="43.83347" lon="7.23617">
        <ele>495.39999389648</ele>
        <time>2022-01-13T10:31:39.000Z</time>
      </trkpt>
      <trkpt lat="43.83347" lon="7.23616">
        <ele>495.79998779297</ele>
        <time>2022-01-13T10:31:40.000Z</time>
      </trkpt>
      <trkpt lat="43.83346" lon="7.23613">
        <ele>496.39999389648</ele>
        <time>2022-01-13T10:31:45.000Z</time>
      </trkpt>
      <trkpt lat="43.83346" lon="7.2361">
        <ele>496.79998779297</ele>
        <time>2022-01-13T10:31:48.000Z</time>
      </trkpt>
      <trkpt lat="43.83347" lon="7.23608">
        <ele>497.79998779297</ele>
        <time>2022-01-13T10:31:53.000Z</time>
      </trkpt>
      <trkpt lat="43.83348" lon="7.23608">
        <ele>497.79998779297</ele>
        <time>2022-01-13T10:31:54.000Z</time>
      </trkpt>
      <trkpt lat="43.83351" lon="7.23609">
        <ele>499</ele>
        <time>2022-01-13T10:32:00.000Z</time>
      </trkpt>
      <trkpt lat="43.83351" lon="7.23609">
        <ele>499.39999389648</ele>
        <time>2022-01-13T10:32:07.000Z</time>
      </trkpt>
      <trkpt lat="43.83354" lon="7.23609">
        <ele>499.60000610352</ele>
        <time>2022-01-13T10:32:23.000Z</time>
      </trkpt>
      <trkpt lat="43.83354" lon="7.23609">
        <ele>500</ele>
        <time>2022-01-13T10:32:26.000Z</time>
      </trkpt>
      <trkpt lat="43.83354" lon="7.2361">
        <ele>500.39999389648</ele>
        <time>2022-01-13T10:32:28.000Z</time>
      </trkpt>
      <trkpt lat="43.83355" lon="7.23609">
        <ele>500.60000610352</ele>
        <time>2022-01-13T10:32:34.000Z</time>
      </trkpt>
      <trkpt lat="43.83356" lon="7.23609">
        <ele>501</ele>
        <time>2022-01-13T10:32:42.000Z</time>
      </trkpt>
      <trkpt lat="43.83356" lon="7.23609">
        <ele>501</ele>
        <time>2022-01-13T10:32:49.000Z</time>
      </trkpt>
      <trkpt lat="43.83355" lon="7.23609">
        <ele>500.39999389648</ele>
        <time>2022-01-13T10:32:56.000Z</time>
      </trkpt>
      <trkpt lat="43.83355" lon="7.23609">
        <ele>500.20001220703</ele>
        <time>2022-01-13T10:33:07.000Z</time>
      </trkpt>
      <trkpt lat="43.83355" lon="7.2361">
        <ele>499.79998779297</ele>
        <time>2022-01-13T10:33:15.000Z</time>
      </trkpt>
      <trkpt lat="43.83356" lon="7.23611">
        <ele>499</ele>
        <time>2022-01-13T10:33:25.000Z</time>
      </trkpt>
      <trkpt lat="43.83356" lon="7.23613">
        <ele>499.20001220703</ele>
        <time>2022-01-13T10:33:35.000Z</time>
      </trkpt>
      <trkpt lat="43.83355" lon="7.23613">
        <ele>499.20001220703</ele>
        <time>2022-01-13T10:33:49.000Z</time>
      </trkpt>
      <trkpt lat="43.83357" lon="7.23612">
        <ele>500.60000610352</ele>
        <time>2022-01-13T10:33:58.000Z</time>
      </trkpt>
      <trkpt lat="43.83358" lon="7.23611">
        <ele>501</ele>
        <time>2022-01-13T10:34:01.000Z</time>
      </trkpt>
      <trkpt lat="43.8336" lon="7.23609">
        <ele>502</ele>
        <time>2022-01-13T10:34:05.000Z</time>
      </trkpt>
      <trkpt lat="43.8336" lon="7.23608">
        <ele>502.20001220703</ele>
        <time>2022-01-13T10:34:06.000Z</time>
      </trkpt>
      <trkpt lat="43.83363" lon="7.23609">
        <ele>503.20001220703</ele>
        <time>2022-01-13T10:34:11.000Z</time>
      </trkpt>
      <trkpt lat="43.83364" lon="7.23609">
        <ele>503.60000610352</ele>
        <time>2022-01-13T10:34:13.000Z</time>
      </trkpt>
      <trkpt lat="43.83365" lon="7.23609">
        <ele>504.39999389648</ele>
        <time>2022-01-13T10:34:17.000Z</time>
      </trkpt>
      <trkpt lat="43.83366" lon="7.23608">
        <ele>505</ele>
        <time>2022-01-13T10:34:21.000Z</time>
      </trkpt>
      <trkpt lat="43.83367" lon="7.23607">
        <ele>505.60000610352</ele>
        <time>2022-01-13T10:34:23.000Z</time>
      </trkpt>
      <trkpt lat="43.83369" lon="7.23607">
        <ele>506.39999389648</ele>
        <time>2022-01-13T10:34:27.000Z</time>
      </trkpt>
      <trkpt lat="43.8337" lon="7.23607">
        <ele>506.60000610352</ele>
        <time>2022-01-13T10:34:28.000Z</time>
      </trkpt>
      <trkpt lat="43.83371" lon="7.23608">
        <ele>507.79998779297</ele>
        <time>2022-01-13T10:34:34.000Z</time>
      </trkpt>
      <trkpt lat="43.83371" lon="7.23608">
        <ele>507.79998779297</ele>
        <time>2022-01-13T10:34:35.000Z</time>
      </trkpt>
      <trkpt lat="43.83374" lon="7.23609">
        <ele>507.79998779297</ele>
        <time>2022-01-13T10:34:46.000Z</time>
      </trkpt>
      <trkpt lat="43.83378" lon="7.23608">
        <ele>508.20001220703</ele>
        <time>2022-01-13T10:34:49.000Z</time>
      </trkpt>
      <trkpt lat="43.83379" lon="7.23609">
        <ele>509.20001220703</ele>
        <time>2022-01-13T10:34:51.000Z</time>
      </trkpt>
      <trkpt lat="43.83381" lon="7.23609">
        <ele>510.39999389648</ele>
        <time>2022-01-13T10:34:54.000Z</time>
      </trkpt>
      <trkpt lat="43.83386" lon="7.23609">
        <ele>511.20001220703</ele>
        <time>2022-01-13T10:34:57.000Z</time>
      </trkpt>
      <trkpt lat="43.83388" lon="7.23608">
        <ele>511.79998779297</ele>
        <time>2022-01-13T10:34:59.000Z</time>
      </trkpt>
      <trkpt lat="43.83388" lon="7.23608">
        <ele>512.79998779297</ele>
        <time>2022-01-13T10:35:01.000Z</time>
      </trkpt>
      <trkpt lat="43.83388" lon="7.23608">
        <ele>513.20001220703</ele>
        <time>2022-01-13T10:35:02.000Z</time>
      </trkpt>
      <trkpt lat="43.83389" lon="7.23607">
        <ele>514</ele>
        <time>2022-01-13T10:35:08.000Z</time>
      </trkpt>
      <trkpt lat="43.8339" lon="7.23606">
        <ele>514.20001220703</ele>
        <time>2022-01-13T10:35:10.000Z</time>
      </trkpt>
      <trkpt lat="43.83395" lon="7.23604">
        <ele>515.40002441406</ele>
        <time>2022-01-13T10:35:16.000Z</time>
      </trkpt>
      <trkpt lat="43.83397" lon="7.23605">
        <ele>516.40002441406</ele>
        <time>2022-01-13T10:35:22.000Z</time>
      </trkpt>
      <trkpt lat="43.83401" lon="7.23605">
        <ele>516.40002441406</ele>
        <time>2022-01-13T10:35:25.000Z</time>
      </trkpt>
      <trkpt lat="43.83404" lon="7.23605">
        <ele>517</ele>
        <time>2022-01-13T10:35:28.000Z</time>
      </trkpt>
      <trkpt lat="43.8341" lon="7.23605">
        <ele>517.59997558594</ele>
        <time>2022-01-13T10:35:32.000Z</time>
      </trkpt>
      <trkpt lat="43.83413" lon="7.23604">
        <ele>518.20001220703</ele>
        <time>2022-01-13T10:35:34.000Z</time>
      </trkpt>
      <trkpt lat="43.83415" lon="7.23603">
        <ele>518.59997558594</ele>
        <time>2022-01-13T10:35:35.000Z</time>
      </trkpt>
      <trkpt lat="43.8342" lon="7.23602">
        <ele>519.79998779297</ele>
        <time>2022-01-13T10:35:38.000Z</time>
      </trkpt>
      <trkpt lat="43.83423" lon="7.23601">
        <ele>520.59997558594</ele>
        <time>2022-01-13T10:35:40.000Z</time>
      </trkpt>
      <trkpt lat="43.83424" lon="7.23602">
        <ele>520.79998779297</ele>
        <time>2022-01-13T10:35:41.000Z</time>
      </trkpt>
      <trkpt lat="43.83429" lon="7.23603">
        <ele>521.40002441406</ele>
        <time>2022-01-13T10:35:44.000Z</time>
      </trkpt>
      <trkpt lat="43.83436" lon="7.23603">
        <ele>521.79998779297</ele>
        <time>2022-01-13T10:35:47.000Z</time>
      </trkpt>
      <trkpt lat="43.83438" lon="7.23603">
        <ele>522</ele>
        <time>2022-01-13T10:35:48.000Z</time>
      </trkpt>
      <trkpt lat="43.83441" lon="7.23604">
        <ele>522.20001220703</ele>
        <time>2022-01-13T10:35:50.000Z</time>
      </trkpt>
      <trkpt lat="43.83452" lon="7.23605">
        <ele>522.79998779297</ele>
        <time>2022-01-13T10:35:55.000Z</time>
      </trkpt>
      <trkpt lat="43.83456" lon="7.23602">
        <ele>523</ele>
        <time>2022-01-13T10:35:57.000Z</time>
      </trkpt>
      <trkpt lat="43.8346" lon="7.23602">
        <ele>524</ele>
        <time>2022-01-13T10:35:59.000Z</time>
      </trkpt>
      <trkpt lat="43.83463" lon="7.23602">
        <ele>524.59997558594</ele>
        <time>2022-01-13T10:36:00.000Z</time>
      </trkpt>
      <trkpt lat="43.83468" lon="7.23603">
        <ele>525.40002441406</ele>
        <time>2022-01-13T10:36:02.000Z</time>
      </trkpt>
      <trkpt lat="43.8347" lon="7.23602">
        <ele>525.79998779297</ele>
        <time>2022-01-13T10:36:03.000Z</time>
      </trkpt>
      <trkpt lat="43.83472" lon="7.23601">
        <ele>526</ele>
        <time>2022-01-13T10:36:04.000Z</time>
      </trkpt>
      <trkpt lat="43.83484" lon="7.23601">
        <ele>527.20001220703</ele>
        <time>2022-01-13T10:36:09.000Z</time>
      </trkpt>
      <trkpt lat="43.83495" lon="7.23602">
        <ele>528</ele>
        <time>2022-01-13T10:36:14.000Z</time>
      </trkpt>
      <trkpt lat="43.83501" lon="7.23599">
        <ele>528.40002441406</ele>
        <time>2022-01-13T10:36:17.000Z</time>
      </trkpt>
      <trkpt lat="43.83505" lon="7.23598">
        <ele>529.20001220703</ele>
        <time>2022-01-13T10:36:19.000Z</time>
      </trkpt>
      <trkpt lat="43.83507" lon="7.23597">
        <ele>529.79998779297</ele>
        <time>2022-01-13T10:36:20.000Z</time>
      </trkpt>
      <trkpt lat="43.83513" lon="7.23596">
        <ele>531.20001220703</ele>
        <time>2022-01-13T10:36:23.000Z</time>
      </trkpt>
      <trkpt lat="43.83514" lon="7.23594">
        <ele>531.59997558594</ele>
        <time>2022-01-13T10:36:24.000Z</time>
      </trkpt>
      <trkpt lat="43.83516" lon="7.23593">
        <ele>531.79998779297</ele>
        <time>2022-01-13T10:36:25.000Z</time>
      </trkpt>
      <trkpt lat="43.83518" lon="7.23592">
        <ele>532.20001220703</ele>
        <time>2022-01-13T10:36:27.000Z</time>
      </trkpt>
      <trkpt lat="43.83523" lon="7.23589">
        <ele>533</ele>
        <time>2022-01-13T10:36:30.000Z</time>
      </trkpt>
      <trkpt lat="43.83525" lon="7.23588">
        <ele>533.40002441406</ele>
        <time>2022-01-13T10:36:31.000Z</time>
      </trkpt>
      <trkpt lat="43.83532" lon="7.23583">
        <ele>534.40002441406</ele>
        <time>2022-01-13T10:36:35.000Z</time>
      </trkpt>
      <trkpt lat="43.83534" lon="7.23582">
        <ele>534.79998779297</ele>
        <time>2022-01-13T10:36:36.000Z</time>
      </trkpt>
      <trkpt lat="43.83543" lon="7.23576">
        <ele>535.59997558594</ele>
        <time>2022-01-13T10:36:40.000Z</time>
      </trkpt>
      <trkpt lat="43.83549" lon="7.23572">
        <ele>536</ele>
        <time>2022-01-13T10:36:43.000Z</time>
      </trkpt>
      <trkpt lat="43.83554" lon="7.23566">
        <ele>536.79998779297</ele>
        <time>2022-01-13T10:36:46.000Z</time>
      </trkpt>
      <trkpt lat="43.83558" lon="7.23562">
        <ele>537.40002441406</ele>
        <time>2022-01-13T10:36:48.000Z</time>
      </trkpt>
      <trkpt lat="43.83561" lon="7.23558">
        <ele>537.79998779297</ele>
        <time>2022-01-13T10:36:50.000Z</time>
      </trkpt>
      <trkpt lat="43.83565" lon="7.23555">
        <ele>538.79998779297</ele>
        <time>2022-01-13T10:36:53.000Z</time>
      </trkpt>
      <trkpt lat="43.83565" lon="7.23553">
        <ele>539.20001220703</ele>
        <time>2022-01-13T10:36:54.000Z</time>
      </trkpt>
      <trkpt lat="43.83566" lon="7.23553">
        <ele>540.20001220703</ele>
        <time>2022-01-13T10:36:57.000Z</time>
      </trkpt>
      <trkpt lat="43.83566" lon="7.23552">
        <ele>540.40002441406</ele>
        <time>2022-01-13T10:36:58.000Z</time>
      </trkpt>
      <trkpt lat="43.83567" lon="7.23551">
        <ele>541</ele>
        <time>2022-01-13T10:37:03.000Z</time>
      </trkpt>
      <trkpt lat="43.8357" lon="7.23548">
        <ele>541</ele>
        <time>2022-01-13T10:37:10.000Z</time>
      </trkpt>
      <trkpt lat="43.83571" lon="7.23545">
        <ele>541.40002441406</ele>
        <time>2022-01-13T10:37:13.000Z</time>
      </trkpt>
      <trkpt lat="43.83571" lon="7.23543">
        <ele>542.20001220703</ele>
        <time>2022-01-13T10:37:15.000Z</time>
      </trkpt>
      <trkpt lat="43.83572" lon="7.23543">
        <ele>542.40002441406</ele>
        <time>2022-01-13T10:37:16.000Z</time>
      </trkpt>
      <trkpt lat="43.83573" lon="7.2354">
        <ele>543</ele>
        <time>2022-01-13T10:37:22.000Z</time>
      </trkpt>
      <trkpt lat="43.83576" lon="7.23535">
        <ele>543.59997558594</ele>
        <time>2022-01-13T10:37:26.000Z</time>
      </trkpt>
      <trkpt lat="43.83578" lon="7.23529">
        <ele>544.20001220703</ele>
        <time>2022-01-13T10:37:29.000Z</time>
      </trkpt>
      <trkpt lat="43.8358" lon="7.23524">
        <ele>544.79998779297</ele>
        <time>2022-01-13T10:37:31.000Z</time>
      </trkpt>
      <trkpt lat="43.83581" lon="7.23517">
        <ele>546</ele>
        <time>2022-01-13T10:37:34.000Z</time>
      </trkpt>
      <trkpt lat="43.83582" lon="7.23515">
        <ele>546.40002441406</ele>
        <time>2022-01-13T10:37:35.000Z</time>
      </trkpt>
      <trkpt lat="43.83584" lon="7.23511">
        <ele>547.40002441406</ele>
        <time>2022-01-13T10:37:37.000Z</time>
      </trkpt>
      <trkpt lat="43.83586" lon="7.23503">
        <ele>548.59997558594</ele>
        <time>2022-01-13T10:37:40.000Z</time>
      </trkpt>
      <trkpt lat="43.83588" lon="7.23498">
        <ele>549.40002441406</ele>
        <time>2022-01-13T10:37:42.000Z</time>
      </trkpt>
      <trkpt lat="43.83588" lon="7.23497">
        <ele>550</ele>
        <time>2022-01-13T10:37:43.000Z</time>
      </trkpt>
      <trkpt lat="43.83588" lon="7.23498">
        <ele>550.59997558594</ele>
        <time>2022-01-13T10:37:44.000Z</time>
      </trkpt>
      <trkpt lat="43.83588" lon="7.23497">
        <ele>551.40002441406</ele>
        <time>2022-01-13T10:37:45.000Z</time>
      </trkpt>
      <trkpt lat="43.83588" lon="7.23497">
        <ele>552.40002441406</ele>
        <time>2022-01-13T10:37:49.000Z</time>
      </trkpt>
      <trkpt lat="43.83589" lon="7.23494">
        <ele>552.40002441406</ele>
        <time>2022-01-13T10:37:53.000Z</time>
      </trkpt>
      <trkpt lat="43.83589" lon="7.23492">
        <ele>552.40002441406</ele>
        <time>2022-01-13T10:37:54.000Z</time>
      </trkpt>
      <trkpt lat="43.83589" lon="7.2349">
        <ele>553.59997558594</ele>
        <time>2022-01-13T10:37:58.000Z</time>
      </trkpt>
      <trkpt lat="43.8359" lon="7.23488">
        <ele>554</ele>
        <time>2022-01-13T10:38:05.000Z</time>
      </trkpt>
      <trkpt lat="43.8359" lon="7.23485">
        <ele>554.79998779297</ele>
        <time>2022-01-13T10:38:11.000Z</time>
      </trkpt>
      <trkpt lat="43.8359" lon="7.23485">
        <ele>555</ele>
        <time>2022-01-13T10:38:12.000Z</time>
      </trkpt>
      <trkpt lat="43.83592" lon="7.23482">
        <ele>556</ele>
        <time>2022-01-13T10:38:18.000Z</time>
      </trkpt>
      <trkpt lat="43.83592" lon="7.23481">
        <ele>556.20001220703</ele>
        <time>2022-01-13T10:38:21.000Z</time>
      </trkpt>
      <trkpt lat="43.83592" lon="7.23478">
        <ele>556.79998779297</ele>
        <time>2022-01-13T10:38:29.000Z</time>
      </trkpt>
      <trkpt lat="43.83592" lon="7.23478">
        <ele>557</ele>
        <time>2022-01-13T10:38:30.000Z</time>
      </trkpt>
      <trkpt lat="43.83592" lon="7.23475">
        <ele>558</ele>
        <time>2022-01-13T10:38:37.000Z</time>
      </trkpt>
      <trkpt lat="43.83592" lon="7.23475">
        <ele>558.20001220703</ele>
        <time>2022-01-13T10:38:38.000Z</time>
      </trkpt>
      <trkpt lat="43.83591" lon="7.23474">
        <ele>558.79998779297</ele>
        <time>2022-01-13T10:38:42.000Z</time>
      </trkpt>
      <trkpt lat="43.83593" lon="7.23471">
        <ele>559</ele>
        <time>2022-01-13T10:38:48.000Z</time>
      </trkpt>
      <trkpt lat="43.83593" lon="7.2347">
        <ele>559.20001220703</ele>
        <time>2022-01-13T10:38:50.000Z</time>
      </trkpt>
      <trkpt lat="43.83594" lon="7.23469">
        <ele>559.20001220703</ele>
        <time>2022-01-13T10:38:55.000Z</time>
      </trkpt>
      <trkpt lat="43.83601" lon="7.23458">
        <ele>559.59997558594</ele>
        <time>2022-01-13T10:39:02.000Z</time>
      </trkpt>
      <trkpt lat="43.83604" lon="7.23454">
        <ele>560</ele>
        <time>2022-01-13T10:39:05.000Z</time>
      </trkpt>
      <trkpt lat="43.83605" lon="7.23451">
        <ele>560.20001220703</ele>
        <time>2022-01-13T10:39:07.000Z</time>
      </trkpt>
      <trkpt lat="43.83611" lon="7.23446">
        <ele>560.79998779297</ele>
        <time>2022-01-13T10:39:11.000Z</time>
      </trkpt>
      <trkpt lat="43.83614" lon="7.23439">
        <ele>561</ele>
        <time>2022-01-13T10:39:16.000Z</time>
      </trkpt>
      <trkpt lat="43.83616" lon="7.23435">
        <ele>561.40002441406</ele>
        <time>2022-01-13T10:39:18.000Z</time>
      </trkpt>
      <trkpt lat="43.83619" lon="7.23431">
        <ele>561.59997558594</ele>
        <time>2022-01-13T10:39:21.000Z</time>
      </trkpt>
      <trkpt lat="43.83625" lon="7.23422">
        <ele>562.40002441406</ele>
        <time>2022-01-13T10:39:25.000Z</time>
      </trkpt>
      <trkpt lat="43.83628" lon="7.23417">
        <ele>562.59997558594</ele>
        <time>2022-01-13T10:39:27.000Z</time>
      </trkpt>
      <trkpt lat="43.83634" lon="7.23408">
        <ele>563</ele>
        <time>2022-01-13T10:39:31.000Z</time>
      </trkpt>
      <trkpt lat="43.83638" lon="7.23405">
        <ele>563.20001220703</ele>
        <time>2022-01-13T10:39:33.000Z</time>
      </trkpt>
      <trkpt lat="43.83643" lon="7.23395">
        <ele>563.20001220703</ele>
        <time>2022-01-13T10:39:37.000Z</time>
      </trkpt>
      <trkpt lat="43.83643" lon="7.23384">
        <ele>563.59997558594</ele>
        <time>2022-01-13T10:39:41.000Z</time>
      </trkpt>
      <trkpt lat="43.83643" lon="7.23383">
        <ele>564</ele>
        <time>2022-01-13T10:39:43.000Z</time>
      </trkpt>
      <trkpt lat="43.83643" lon="7.23382">
        <ele>564.59997558594</ele>
        <time>2022-01-13T10:39:47.000Z</time>
      </trkpt>
      <trkpt lat="43.83643" lon="7.2338">
        <ele>564.59997558594</ele>
        <time>2022-01-13T10:39:57.000Z</time>
      </trkpt>
      <trkpt lat="43.83644" lon="7.23379">
        <ele>564.40002441406</ele>
        <time>2022-01-13T10:40:20.000Z</time>
      </trkpt>
      <trkpt lat="43.83644" lon="7.23378">
        <ele>565</ele>
        <time>2022-01-13T10:40:31.000Z</time>
      </trkpt>
      <trkpt lat="43.83644" lon="7.23369">
        <ele>564.79998779297</ele>
        <time>2022-01-13T10:40:37.000Z</time>
      </trkpt>
      <trkpt lat="43.83649" lon="7.23364">
        <ele>564.59997558594</ele>
        <time>2022-01-13T10:40:40.000Z</time>
      </trkpt>
      <trkpt lat="43.83656" lon="7.23355">
        <ele>564.79998779297</ele>
        <time>2022-01-13T10:40:44.000Z</time>
      </trkpt>
      <trkpt lat="43.83658" lon="7.23354">
        <ele>565</ele>
        <time>2022-01-13T10:40:45.000Z</time>
      </trkpt>
      <trkpt lat="43.83669" lon="7.23353">
        <ele>565.40002441406</ele>
        <time>2022-01-13T10:40:50.000Z</time>
      </trkpt>
      <trkpt lat="43.83673" lon="7.23355">
        <ele>565.79998779297</ele>
        <time>2022-01-13T10:40:52.000Z</time>
      </trkpt>
      <trkpt lat="43.83678" lon="7.23359">
        <ele>566.59997558594</ele>
        <time>2022-01-13T10:40:55.000Z</time>
      </trkpt>
      <trkpt lat="43.8368" lon="7.2336">
        <ele>567</ele>
        <time>2022-01-13T10:40:57.000Z</time>
      </trkpt>
      <trkpt lat="43.83681" lon="7.2336">
        <ele>567.20001220703</ele>
        <time>2022-01-13T10:40:58.000Z</time>
      </trkpt>
      <trkpt lat="43.83683" lon="7.23358">
        <ele>567.40002441406</ele>
        <time>2022-01-13T10:40:59.000Z</time>
      </trkpt>
      <trkpt lat="43.83689" lon="7.23354">
        <ele>567.59997558594</ele>
        <time>2022-01-13T10:41:02.000Z</time>
      </trkpt>
      <trkpt lat="43.83691" lon="7.23354">
        <ele>568</ele>
        <time>2022-01-13T10:41:03.000Z</time>
      </trkpt>
      <trkpt lat="43.83693" lon="7.23354">
        <ele>568.20001220703</ele>
        <time>2022-01-13T10:41:04.000Z</time>
      </trkpt>
      <trkpt lat="43.83702" lon="7.23351">
        <ele>569.40002441406</ele>
        <time>2022-01-13T10:41:08.000Z</time>
      </trkpt>
      <trkpt lat="43.83703" lon="7.2335">
        <ele>569.59997558594</ele>
        <time>2022-01-13T10:41:09.000Z</time>
      </trkpt>
      <trkpt lat="43.8371" lon="7.23348">
        <ele>570.40002441406</ele>
        <time>2022-01-13T10:41:12.000Z</time>
      </trkpt>
      <trkpt lat="43.83711" lon="7.23348">
        <ele>570.79998779297</ele>
        <time>2022-01-13T10:41:13.000Z</time>
      </trkpt>
      <trkpt lat="43.83714" lon="7.23351">
        <ele>571.40002441406</ele>
        <time>2022-01-13T10:41:15.000Z</time>
      </trkpt>
      <trkpt lat="43.83716" lon="7.23351">
        <ele>571.59997558594</ele>
        <time>2022-01-13T10:41:16.000Z</time>
      </trkpt>
      <trkpt lat="43.83724" lon="7.2335">
        <ele>572.20001220703</ele>
        <time>2022-01-13T10:41:20.000Z</time>
      </trkpt>
      <trkpt lat="43.8373" lon="7.2335">
        <ele>572.79998779297</ele>
        <time>2022-01-13T10:41:23.000Z</time>
      </trkpt>
      <trkpt lat="43.83733" lon="7.2335">
        <ele>573.20001220703</ele>
        <time>2022-01-13T10:41:25.000Z</time>
      </trkpt>
      <trkpt lat="43.83734" lon="7.23348">
        <ele>573.79998779297</ele>
        <time>2022-01-13T10:41:26.000Z</time>
      </trkpt>
      <trkpt lat="43.83737" lon="7.23341">
        <ele>574.79998779297</ele>
        <time>2022-01-13T10:41:29.000Z</time>
      </trkpt>
      <trkpt lat="43.83745" lon="7.23342">
        <ele>576.20001220703</ele>
        <time>2022-01-13T10:41:33.000Z</time>
      </trkpt>
      <trkpt lat="43.83754" lon="7.23338">
        <ele>577</ele>
        <time>2022-01-13T10:41:38.000Z</time>
      </trkpt>
      <trkpt lat="43.83755" lon="7.23339">
        <ele>577.20001220703</ele>
        <time>2022-01-13T10:41:39.000Z</time>
      </trkpt>
      <trkpt lat="43.8376" lon="7.23339">
        <ele>577.79998779297</ele>
        <time>2022-01-13T10:41:42.000Z</time>
      </trkpt>
      <trkpt lat="43.83763" lon="7.23336">
        <ele>578.40002441406</ele>
        <time>2022-01-13T10:41:44.000Z</time>
      </trkpt>
      <trkpt lat="43.83769" lon="7.23334">
        <ele>579.20001220703</ele>
        <time>2022-01-13T10:41:47.000Z</time>
      </trkpt>
      <trkpt lat="43.83771" lon="7.23334">
        <ele>579.79998779297</ele>
        <time>2022-01-13T10:41:48.000Z</time>
      </trkpt>
      <trkpt lat="43.83777" lon="7.23333">
        <ele>580.79998779297</ele>
        <time>2022-01-13T10:41:51.000Z</time>
      </trkpt>
      <trkpt lat="43.83779" lon="7.23333">
        <ele>580.79998779297</ele>
        <time>2022-01-13T10:41:52.000Z</time>
      </trkpt>
      <trkpt lat="43.8378" lon="7.23333">
        <ele>580.79998779297</ele>
        <time>2022-01-13T10:41:53.000Z</time>
      </trkpt>
      <trkpt lat="43.83782" lon="7.23332">
        <ele>581</ele>
        <time>2022-01-13T10:41:54.000Z</time>
      </trkpt>
      <trkpt lat="43.83787" lon="7.23329">
        <ele>581.40002441406</ele>
        <time>2022-01-13T10:41:57.000Z</time>
      </trkpt>
      <trkpt lat="43.83792" lon="7.23328">
        <ele>581.79998779297</ele>
        <time>2022-01-13T10:41:59.000Z</time>
      </trkpt>
      <trkpt lat="43.83794" lon="7.23328">
        <ele>581.79998779297</ele>
        <time>2022-01-13T10:42:00.000Z</time>
      </trkpt>
      <trkpt lat="43.83802" lon="7.23328">
        <ele>582.40002441406</ele>
        <time>2022-01-13T10:42:04.000Z</time>
      </trkpt>
      <trkpt lat="43.83803" lon="7.23328">
        <ele>582.59997558594</ele>
        <time>2022-01-13T10:42:05.000Z</time>
      </trkpt>
      <trkpt lat="43.83805" lon="7.23327">
        <ele>582.79998779297</ele>
        <time>2022-01-13T10:42:06.000Z</time>
      </trkpt>
      <trkpt lat="43.83807" lon="7.23326">
        <ele>583.59997558594</ele>
        <time>2022-01-13T10:42:08.000Z</time>
      </trkpt>
      <trkpt lat="43.83809" lon="7.23327">
        <ele>583.59997558594</ele>
        <time>2022-01-13T10:42:09.000Z</time>
      </trkpt>
      <trkpt lat="43.83811" lon="7.23328">
        <ele>584</ele>
        <time>2022-01-13T10:42:10.000Z</time>
      </trkpt>
      <trkpt lat="43.83818" lon="7.23327">
        <ele>585.20001220703</ele>
        <time>2022-01-13T10:42:14.000Z</time>
      </trkpt>
      <trkpt lat="43.8382" lon="7.23326">
        <ele>585.59997558594</ele>
        <time>2022-01-13T10:42:15.000Z</time>
      </trkpt>
      <trkpt lat="43.83821" lon="7.23325">
        <ele>586.20001220703</ele>
        <time>2022-01-13T10:42:16.000Z</time>
      </trkpt>
      <trkpt lat="43.83827" lon="7.23324">
        <ele>587</ele>
        <time>2022-01-13T10:42:19.000Z</time>
      </trkpt>
      <trkpt lat="43.83828" lon="7.23326">
        <ele>587.59997558594</ele>
        <time>2022-01-13T10:42:20.000Z</time>
      </trkpt>
      <trkpt lat="43.8383" lon="7.23326">
        <ele>588.40002441406</ele>
        <time>2022-01-13T10:42:22.000Z</time>
      </trkpt>
      <trkpt lat="43.83832" lon="7.23325">
        <ele>588.59997558594</ele>
        <time>2022-01-13T10:42:23.000Z</time>
      </trkpt>
      <trkpt lat="43.83838" lon="7.23324">
        <ele>590</ele>
        <time>2022-01-13T10:42:26.000Z</time>
      </trkpt>
      <trkpt lat="43.8384" lon="7.23325">
        <ele>590.20001220703</ele>
        <time>2022-01-13T10:42:27.000Z</time>
      </trkpt>
      <trkpt lat="43.83843" lon="7.23325">
        <ele>591.20001220703</ele>
        <time>2022-01-13T10:42:29.000Z</time>
      </trkpt>
      <trkpt lat="43.83846" lon="7.23323">
        <ele>592.20001220703</ele>
        <time>2022-01-13T10:42:31.000Z</time>
      </trkpt>
      <trkpt lat="43.83848" lon="7.23323">
        <ele>592.59997558594</ele>
        <time>2022-01-13T10:42:32.000Z</time>
      </trkpt>
      <trkpt lat="43.83854" lon="7.23321">
        <ele>593.40002441406</ele>
        <time>2022-01-13T10:42:35.000Z</time>
      </trkpt>
      <trkpt lat="43.83856" lon="7.23321">
        <ele>593.59997558594</ele>
        <time>2022-01-13T10:42:36.000Z</time>
      </trkpt>
      <trkpt lat="43.83863" lon="7.23317">
        <ele>594.79998779297</ele>
        <time>2022-01-13T10:42:40.000Z</time>
      </trkpt>
      <trkpt lat="43.83866" lon="7.23317">
        <ele>595.79998779297</ele>
        <time>2022-01-13T10:42:42.000Z</time>
      </trkpt>
      <trkpt lat="43.83868" lon="7.23319">
        <ele>596.20001220703</ele>
        <time>2022-01-13T10:42:43.000Z</time>
      </trkpt>
      <trkpt lat="43.83869" lon="7.2332">
        <ele>596.40002441406</ele>
        <time>2022-01-13T10:42:44.000Z</time>
      </trkpt>
      <trkpt lat="43.83872" lon="7.23319">
        <ele>597.40002441406</ele>
        <time>2022-01-13T10:42:47.000Z</time>
      </trkpt>
      <trkpt lat="43.83874" lon="7.23317">
        <ele>597.79998779297</ele>
        <time>2022-01-13T10:42:48.000Z</time>
      </trkpt>
      <trkpt lat="43.83879" lon="7.23314">
        <ele>598.40002441406</ele>
        <time>2022-01-13T10:42:51.000Z</time>
      </trkpt>
      <trkpt lat="43.8388" lon="7.23312">
        <ele>598.79998779297</ele>
        <time>2022-01-13T10:42:52.000Z</time>
      </trkpt>
      <trkpt lat="43.83885" lon="7.2331">
        <ele>599</ele>
        <time>2022-01-13T10:42:55.000Z</time>
      </trkpt>
      <trkpt lat="43.83886" lon="7.23308">
        <ele>599.40002441406</ele>
        <time>2022-01-13T10:42:56.000Z</time>
      </trkpt>
      <trkpt lat="43.83887" lon="7.23307">
        <ele>599.79998779297</ele>
        <time>2022-01-13T10:42:57.000Z</time>
      </trkpt>
      <trkpt lat="43.83893" lon="7.23304">
        <ele>600.79998779297</ele>
        <time>2022-01-13T10:43:00.000Z</time>
      </trkpt>
      <trkpt lat="43.83895" lon="7.23304">
        <ele>600.79998779297</ele>
        <time>2022-01-13T10:43:01.000Z</time>
      </trkpt>
      <trkpt lat="43.839" lon="7.23302">
        <ele>601.79998779297</ele>
        <time>2022-01-13T10:43:05.000Z</time>
      </trkpt>
      <trkpt lat="43.83903" lon="7.23299">
        <ele>602.59997558594</ele>
        <time>2022-01-13T10:43:07.000Z</time>
      </trkpt>
      <trkpt lat="43.83904" lon="7.23298">
        <ele>602.79998779297</ele>
        <time>2022-01-13T10:43:08.000Z</time>
      </trkpt>
      <trkpt lat="43.83907" lon="7.23296">
        <ele>603</ele>
        <time>2022-01-13T10:43:10.000Z</time>
      </trkpt>
      <trkpt lat="43.83918" lon="7.23293">
        <ele>603.20001220703</ele>
        <time>2022-01-13T10:43:16.000Z</time>
      </trkpt>
      <trkpt lat="43.83918" lon="7.23293">
        <ele>604</ele>
        <time>2022-01-13T10:43:19.000Z</time>
      </trkpt>
      <trkpt lat="43.83918" lon="7.23293">
        <ele>604.20001220703</ele>
        <time>2022-01-13T10:43:20.000Z</time>
      </trkpt>
      <trkpt lat="43.83918" lon="7.23292">
        <ele>604.40002441406</ele>
        <time>2022-01-13T10:43:43.000Z</time>
      </trkpt>
      <trkpt lat="43.8392" lon="7.23293">
        <ele>604.40002441406</ele>
        <time>2022-01-13T10:43:47.000Z</time>
      </trkpt>
      <trkpt lat="43.83922" lon="7.23297">
        <ele>604.59997558594</ele>
        <time>2022-01-13T10:43:49.000Z</time>
      </trkpt>
      <trkpt lat="43.83925" lon="7.23301">
        <ele>605.20001220703</ele>
        <time>2022-01-13T10:43:52.000Z</time>
      </trkpt>
      <trkpt lat="43.83925" lon="7.23301">
        <ele>606.20001220703</ele>
        <time>2022-01-13T10:43:54.000Z</time>
      </trkpt>
      <trkpt lat="43.83925" lon="7.23302">
        <ele>606.59997558594</ele>
        <time>2022-01-13T10:43:55.000Z</time>
      </trkpt>
      <trkpt lat="43.83933" lon="7.23302">
        <ele>607.79998779297</ele>
        <time>2022-01-13T10:44:00.000Z</time>
      </trkpt>
      <trkpt lat="43.83938" lon="7.23303">
        <ele>608.59997558594</ele>
        <time>2022-01-13T10:44:03.000Z</time>
      </trkpt>
      <trkpt lat="43.83939" lon="7.23304">
        <ele>608.79998779297</ele>
        <time>2022-01-13T10:44:04.000Z</time>
      </trkpt>
      <trkpt lat="43.83941" lon="7.23304">
        <ele>609.20001220703</ele>
        <time>2022-01-13T10:44:05.000Z</time>
      </trkpt>
      <trkpt lat="43.83946" lon="7.23303">
        <ele>610</ele>
        <time>2022-01-13T10:44:07.000Z</time>
      </trkpt>
      <trkpt lat="43.83953" lon="7.233">
        <ele>611.20001220703</ele>
        <time>2022-01-13T10:44:11.000Z</time>
      </trkpt>
      <trkpt lat="43.83958" lon="7.233">
        <ele>611.59997558594</ele>
        <time>2022-01-13T10:44:15.000Z</time>
      </trkpt>
      <trkpt lat="43.83962" lon="7.23301">
        <ele>611.79998779297</ele>
        <time>2022-01-13T10:44:21.000Z</time>
      </trkpt>
      <trkpt lat="43.83968" lon="7.23305">
        <ele>612</ele>
        <time>2022-01-13T10:44:26.000Z</time>
      </trkpt>
      <trkpt lat="43.83971" lon="7.23309">
        <ele>612.20001220703</ele>
        <time>2022-01-13T10:44:29.000Z</time>
      </trkpt>
      <trkpt lat="43.83971" lon="7.23309">
        <ele>612.40002441406</ele>
        <time>2022-01-13T10:44:30.000Z</time>
      </trkpt>
      <trkpt lat="43.83971" lon="7.2331">
        <ele>612.20001220703</ele>
        <time>2022-01-13T10:44:38.000Z</time>
      </trkpt>
      <trkpt lat="43.8397" lon="7.2331">
        <ele>612.20001220703</ele>
        <time>2022-01-13T10:44:44.000Z</time>
      </trkpt>
      <trkpt lat="43.83971" lon="7.23309">
        <ele>612.20001220703</ele>
        <time>2022-01-13T10:44:49.000Z</time>
      </trkpt>
      <trkpt lat="43.83971" lon="7.23308">
        <ele>612.59997558594</ele>
        <time>2022-01-13T10:44:55.000Z</time>
      </trkpt>
      <trkpt lat="43.83971" lon="7.23308">
        <ele>612.59997558594</ele>
        <time>2022-01-13T10:45:01.000Z</time>
      </trkpt>
      <trkpt lat="43.83971" lon="7.23307">
        <ele>612.79998779297</ele>
        <time>2022-01-13T10:45:07.000Z</time>
      </trkpt>
      <trkpt lat="43.83965" lon="7.23303">
        <ele>612.59997558594</ele>
        <time>2022-01-13T10:45:12.000Z</time>
      </trkpt>
      <trkpt lat="43.83955" lon="7.23298">
        <ele>612</ele>
        <time>2022-01-13T10:45:17.000Z</time>
      </trkpt>
      <trkpt lat="43.83952" lon="7.23299">
        <ele>611.79998779297</ele>
        <time>2022-01-13T10:45:20.000Z</time>
      </trkpt>
      <trkpt lat="43.8395" lon="7.233">
        <ele>611.59997558594</ele>
        <time>2022-01-13T10:45:21.000Z</time>
      </trkpt>
      <trkpt lat="43.83943" lon="7.23302">
        <ele>611.79998779297</ele>
        <time>2022-01-13T10:45:24.000Z</time>
      </trkpt>
      <trkpt lat="43.8394" lon="7.23302">
        <ele>611.79998779297</ele>
        <time>2022-01-13T10:45:25.000Z</time>
      </trkpt>
      <trkpt lat="43.83932" lon="7.23301">
        <ele>611</ele>
        <time>2022-01-13T10:45:28.000Z</time>
      </trkpt>
      <trkpt lat="43.83925" lon="7.233">
        <ele>610</ele>
        <time>2022-01-13T10:45:30.000Z</time>
      </trkpt>
      <trkpt lat="43.83924" lon="7.23299">
        <ele>609.40002441406</ele>
        <time>2022-01-13T10:45:31.000Z</time>
      </trkpt>
      <trkpt lat="43.83922" lon="7.23296">
        <ele>608.20001220703</ele>
        <time>2022-01-13T10:45:33.000Z</time>
      </trkpt>
      <trkpt lat="43.83916" lon="7.23291">
        <ele>606.40002441406</ele>
        <time>2022-01-13T10:45:36.000Z</time>
      </trkpt>
      <trkpt lat="43.83911" lon="7.23292">
        <ele>604.79998779297</ele>
        <time>2022-01-13T10:45:38.000Z</time>
      </trkpt>
      <trkpt lat="43.83904" lon="7.23295">
        <ele>603.79998779297</ele>
        <time>2022-01-13T10:45:40.000Z</time>
      </trkpt>
      <trkpt lat="43.83902" lon="7.23298">
        <ele>603.40002441406</ele>
        <time>2022-01-13T10:45:41.000Z</time>
      </trkpt>
      <trkpt lat="43.839" lon="7.23302">
        <ele>602.79998779297</ele>
        <time>2022-01-13T10:45:43.000Z</time>
      </trkpt>
      <trkpt lat="43.83898" lon="7.23302">
        <ele>602.79998779297</ele>
        <time>2022-01-13T10:45:44.000Z</time>
      </trkpt>
      <trkpt lat="43.8389" lon="7.23302">
        <ele>602.20001220703</ele>
        <time>2022-01-13T10:45:48.000Z</time>
      </trkpt>
      <trkpt lat="43.83891" lon="7.23302">
        <ele>601.20001220703</ele>
        <time>2022-01-13T10:45:52.000Z</time>
      </trkpt>
      <trkpt lat="43.83891" lon="7.23302">
        <ele>601</ele>
        <time>2022-01-13T10:45:53.000Z</time>
      </trkpt>
      <trkpt lat="43.83891" lon="7.23302">
        <ele>600.40002441406</ele>
        <time>2022-01-13T10:45:59.000Z</time>
      </trkpt>
      <trkpt lat="43.83887" lon="7.23306">
        <ele>600.59997558594</ele>
        <time>2022-01-13T10:46:05.000Z</time>
      </trkpt>
      <trkpt lat="43.83883" lon="7.23309">
        <ele>600.40002441406</ele>
        <time>2022-01-13T10:46:07.000Z</time>
      </trkpt>
      <trkpt lat="43.83877" lon="7.23312">
        <ele>600</ele>
        <time>2022-01-13T10:46:10.000Z</time>
      </trkpt>
      <trkpt lat="43.83875" lon="7.23314">
        <ele>599.79998779297</ele>
        <time>2022-01-13T10:46:11.000Z</time>
      </trkpt>
      <trkpt lat="43.83872" lon="7.23318">
        <ele>599.20001220703</ele>
        <time>2022-01-13T10:46:13.000Z</time>
      </trkpt>
      <trkpt lat="43.8387" lon="7.23317">
        <ele>598.79998779297</ele>
        <time>2022-01-13T10:46:14.000Z</time>
      </trkpt>
      <trkpt lat="43.83863" lon="7.23315">
        <ele>597.40002441406</ele>
        <time>2022-01-13T10:46:18.000Z</time>
      </trkpt>
      <trkpt lat="43.83854" lon="7.23319">
        <ele>595.79998779297</ele>
        <time>2022-01-13T10:46:21.000Z</time>
      </trkpt>
      <trkpt lat="43.83849" lon="7.23321">
        <ele>594.59997558594</ele>
        <time>2022-01-13T10:46:23.000Z</time>
      </trkpt>
      <trkpt lat="43.83844" lon="7.23322">
        <ele>593.79998779297</ele>
        <time>2022-01-13T10:46:25.000Z</time>
      </trkpt>
      <trkpt lat="43.83842" lon="7.23322">
        <ele>593.59997558594</ele>
        <time>2022-01-13T10:46:26.000Z</time>
      </trkpt>
      <trkpt lat="43.83835" lon="7.23323">
        <ele>593.20001220703</ele>
        <time>2022-01-13T10:46:29.000Z</time>
      </trkpt>
      <trkpt lat="43.83829" lon="7.23322">
        <ele>592</ele>
        <time>2022-01-13T10:46:31.000Z</time>
      </trkpt>
      <trkpt lat="43.83827" lon="7.23321">
        <ele>591.20001220703</ele>
        <time>2022-01-13T10:46:32.000Z</time>
      </trkpt>
      <trkpt lat="43.83824" lon="7.23322">
        <ele>590.20001220703</ele>
        <time>2022-01-13T10:46:33.000Z</time>
      </trkpt>
      <trkpt lat="43.83818" lon="7.23324">
        <ele>588.40002441406</ele>
        <time>2022-01-13T10:46:35.000Z</time>
      </trkpt>
      <trkpt lat="43.83814" lon="7.23324">
        <ele>587.79998779297</ele>
        <time>2022-01-13T10:46:36.000Z</time>
      </trkpt>
      <trkpt lat="43.83812" lon="7.23324">
        <ele>587.40002441406</ele>
        <time>2022-01-13T10:46:37.000Z</time>
      </trkpt>
      <trkpt lat="43.83807" lon="7.23324">
        <ele>586</ele>
        <time>2022-01-13T10:46:39.000Z</time>
      </trkpt>
      <trkpt lat="43.83805" lon="7.23325">
        <ele>585.59997558594</ele>
        <time>2022-01-13T10:46:40.000Z</time>
      </trkpt>
      <trkpt lat="43.83799" lon="7.23325">
        <ele>584.59997558594</ele>
        <time>2022-01-13T10:46:42.000Z</time>
      </trkpt>
      <trkpt lat="43.83795" lon="7.23325">
        <ele>583.79998779297</ele>
        <time>2022-01-13T10:46:43.000Z</time>
      </trkpt>
      <trkpt lat="43.83791" lon="7.23326">
        <ele>583.79998779297</ele>
        <time>2022-01-13T10:46:44.000Z</time>
      </trkpt>
      <trkpt lat="43.83788" lon="7.23327">
        <ele>583.40002441406</ele>
        <time>2022-01-13T10:46:45.000Z</time>
      </trkpt>
      <trkpt lat="43.83782" lon="7.23332">
        <ele>582.59997558594</ele>
        <time>2022-01-13T10:46:47.000Z</time>
      </trkpt>
      <trkpt lat="43.83779" lon="7.23332">
        <ele>582.20001220703</ele>
        <time>2022-01-13T10:46:48.000Z</time>
      </trkpt>
      <trkpt lat="43.83771" lon="7.23332">
        <ele>581.59997558594</ele>
        <time>2022-01-13T10:46:51.000Z</time>
      </trkpt>
      <trkpt lat="43.83766" lon="7.23334">
        <ele>581</ele>
        <time>2022-01-13T10:46:53.000Z</time>
      </trkpt>
      <trkpt lat="43.83761" lon="7.23337">
        <ele>579.59997558594</ele>
        <time>2022-01-13T10:46:55.000Z</time>
      </trkpt>
      <trkpt lat="43.83753" lon="7.23335">
        <ele>578.59997558594</ele>
        <time>2022-01-13T10:46:58.000Z</time>
      </trkpt>
      <trkpt lat="43.83748" lon="7.23338">
        <ele>578.59997558594</ele>
        <time>2022-01-13T10:47:00.000Z</time>
      </trkpt>
      <trkpt lat="43.83743" lon="7.23338">
        <ele>578</ele>
        <time>2022-01-13T10:47:02.000Z</time>
      </trkpt>
      <trkpt lat="43.83738" lon="7.23342">
        <ele>577.40002441406</ele>
        <time>2022-01-13T10:47:05.000Z</time>
      </trkpt>
      <trkpt lat="43.83737" lon="7.23346">
        <ele>577</ele>
        <time>2022-01-13T10:47:06.000Z</time>
      </trkpt>
      <trkpt lat="43.83732" lon="7.23346">
        <ele>576.20001220703</ele>
        <time>2022-01-13T10:47:08.000Z</time>
      </trkpt>
      <trkpt lat="43.83729" lon="7.23346">
        <ele>575.59997558594</ele>
        <time>2022-01-13T10:47:09.000Z</time>
      </trkpt>
      <trkpt lat="43.83722" lon="7.23347">
        <ele>574.79998779297</ele>
        <time>2022-01-13T10:47:11.000Z</time>
      </trkpt>
      <trkpt lat="43.83719" lon="7.23347">
        <ele>574.79998779297</ele>
        <time>2022-01-13T10:47:12.000Z</time>
      </trkpt>
      <trkpt lat="43.83715" lon="7.23346">
        <ele>574</ele>
        <time>2022-01-13T10:47:13.000Z</time>
      </trkpt>
      <trkpt lat="43.83713" lon="7.23344">
        <ele>573.59997558594</ele>
        <time>2022-01-13T10:47:14.000Z</time>
      </trkpt>
      <trkpt lat="43.83702" lon="7.23347">
        <ele>572.20001220703</ele>
        <time>2022-01-13T10:47:17.000Z</time>
      </trkpt>
      <trkpt lat="43.83692" lon="7.2335">
        <ele>571.20001220703</ele>
        <time>2022-01-13T10:47:20.000Z</time>
      </trkpt>
      <trkpt lat="43.83686" lon="7.23352">
        <ele>570.20001220703</ele>
        <time>2022-01-13T10:47:22.000Z</time>
      </trkpt>
      <trkpt lat="43.83684" lon="7.23354">
        <ele>570</ele>
        <time>2022-01-13T10:47:23.000Z</time>
      </trkpt>
      <trkpt lat="43.83679" lon="7.23354">
        <ele>568.79998779297</ele>
        <time>2022-01-13T10:47:26.000Z</time>
      </trkpt>
      <trkpt lat="43.83671" lon="7.2335">
        <ele>567.79998779297</ele>
        <time>2022-01-13T10:47:29.000Z</time>
      </trkpt>
      <trkpt lat="43.83669" lon="7.23349">
        <ele>567.40002441406</ele>
        <time>2022-01-13T10:47:30.000Z</time>
      </trkpt>
      <trkpt lat="43.83669" lon="7.23348">
        <ele>566.79998779297</ele>
        <time>2022-01-13T10:47:33.000Z</time>
      </trkpt>
      <trkpt lat="43.83669" lon="7.23348">
        <ele>566.40002441406</ele>
        <time>2022-01-13T10:47:36.000Z</time>
      </trkpt>
      <trkpt lat="43.8367" lon="7.23349">
        <ele>566.59997558594</ele>
        <time>2022-01-13T10:47:42.000Z</time>
      </trkpt>
      <trkpt lat="43.83671" lon="7.2335">
        <ele>567</ele>
        <time>2022-01-13T10:47:49.000Z</time>
      </trkpt>
      <trkpt lat="43.83675" lon="7.23351">
        <ele>567</ele>
        <time>2022-01-13T10:48:00.000Z</time>
      </trkpt>
      <trkpt lat="43.83677" lon="7.23353">
        <ele>567.40002441406</ele>
        <time>2022-01-13T10:48:03.000Z</time>
      </trkpt>
      <trkpt lat="43.83678" lon="7.23353">
        <ele>568</ele>
        <time>2022-01-13T10:48:08.000Z</time>
      </trkpt>
      <trkpt lat="43.8368" lon="7.23356">
        <ele>568.40002441406</ele>
        <time>2022-01-13T10:48:15.000Z</time>
      </trkpt>
      <trkpt lat="43.83682" lon="7.23355">
        <ele>568.40002441406</ele>
        <time>2022-01-13T10:48:18.000Z</time>
      </trkpt>
      <trkpt lat="43.83683" lon="7.23352">
        <ele>568.59997558594</ele>
        <time>2022-01-13T10:48:21.000Z</time>
      </trkpt>
      <trkpt lat="43.83686" lon="7.23351">
        <ele>569.20001220703</ele>
        <time>2022-01-13T10:48:27.000Z</time>
      </trkpt>
      <trkpt lat="43.83693" lon="7.2335">
        <ele>569.59997558594</ele>
        <time>2022-01-13T10:48:30.000Z</time>
      </trkpt>
      <trkpt lat="43.83697" lon="7.23348">
        <ele>569.79998779297</ele>
        <time>2022-01-13T10:48:32.000Z</time>
      </trkpt>
      <trkpt lat="43.83709" lon="7.23344">
        <ele>570.59997558594</ele>
        <time>2022-01-13T10:48:37.000Z</time>
      </trkpt>
      <trkpt lat="43.8371" lon="7.23345">
        <ele>571</ele>
        <time>2022-01-13T10:48:38.000Z</time>
      </trkpt>
      <trkpt lat="43.8371" lon="7.23348">
        <ele>572</ele>
        <time>2022-01-13T10:48:40.000Z</time>
      </trkpt>
      <trkpt lat="43.83711" lon="7.23353">
        <ele>572.79998779297</ele>
        <time>2022-01-13T10:48:42.000Z</time>
      </trkpt>
      <trkpt lat="43.83717" lon="7.2336">
        <ele>572.20001220703</ele>
        <time>2022-01-13T10:48:46.000Z</time>
      </trkpt>
      <trkpt lat="43.83725" lon="7.23365">
        <ele>572.59997558594</ele>
        <time>2022-01-13T10:48:50.000Z</time>
      </trkpt>
      <trkpt lat="43.83729" lon="7.23367">
        <ele>573.20001220703</ele>
        <time>2022-01-13T10:48:52.000Z</time>
      </trkpt>
      <trkpt lat="43.83737" lon="7.23371">
        <ele>573.59997558594</ele>
        <time>2022-01-13T10:48:56.000Z</time>
      </trkpt>
      <trkpt lat="43.8374" lon="7.23374">
        <ele>573.79998779297</ele>
        <time>2022-01-13T10:49:00.000Z</time>
      </trkpt>
      <trkpt lat="43.8374" lon="7.23374">
        <ele>574</ele>
        <time>2022-01-13T10:49:11.000Z</time>
      </trkpt>
      <trkpt lat="43.83744" lon="7.23374">
        <ele>574.20001220703</ele>
        <time>2022-01-13T10:49:17.000Z</time>
      </trkpt>
      <trkpt lat="43.83744" lon="7.23374">
        <ele>574.40002441406</ele>
        <time>2022-01-13T10:49:18.000Z</time>
      </trkpt>
      <trkpt lat="43.83747" lon="7.23375">
        <ele>575</ele>
        <time>2022-01-13T10:49:21.000Z</time>
      </trkpt>
      <trkpt lat="43.83749" lon="7.23373">
        <ele>575</ele>
        <time>2022-01-13T10:49:24.000Z</time>
      </trkpt>
      <trkpt lat="43.83751" lon="7.23373">
        <ele>575.20001220703</ele>
        <time>2022-01-13T10:49:26.000Z</time>
      </trkpt>
      <trkpt lat="43.83751" lon="7.23373">
        <ele>575.40002441406</ele>
        <time>2022-01-13T10:49:27.000Z</time>
      </trkpt>
      <trkpt lat="43.83752" lon="7.23373">
        <ele>575.59997558594</ele>
        <time>2022-01-13T10:49:29.000Z</time>
      </trkpt>
      <trkpt lat="43.83753" lon="7.23375">
        <ele>575.79998779297</ele>
        <time>2022-01-13T10:49:32.000Z</time>
      </trkpt>
      <trkpt lat="43.83755" lon="7.2338">
        <ele>576</ele>
        <time>2022-01-13T10:49:34.000Z</time>
      </trkpt>
      <trkpt lat="43.83754" lon="7.23384">
        <ele>576.20001220703</ele>
        <time>2022-01-13T10:49:36.000Z</time>
      </trkpt>
      <trkpt lat="43.83754" lon="7.23389">
        <ele>576.20001220703</ele>
        <time>2022-01-13T10:49:38.000Z</time>
      </trkpt>
      <trkpt lat="43.83753" lon="7.23396">
        <ele>576.59997558594</ele>
        <time>2022-01-13T10:49:41.000Z</time>
      </trkpt>
      <trkpt lat="43.83755" lon="7.23398">
        <ele>576.59997558594</ele>
        <time>2022-01-13T10:49:43.000Z</time>
      </trkpt>
      <trkpt lat="43.83756" lon="7.23401">
        <ele>576.40002441406</ele>
        <time>2022-01-13T10:49:47.000Z</time>
      </trkpt>
      <trkpt lat="43.83757" lon="7.23405">
        <ele>577.20001220703</ele>
        <time>2022-01-13T10:49:51.000Z</time>
      </trkpt>
      <trkpt lat="43.83757" lon="7.23405">
        <ele>577.40002441406</ele>
        <time>2022-01-13T10:49:52.000Z</time>
      </trkpt>
      <trkpt lat="43.83756" lon="7.23414">
        <ele>577.59997558594</ele>
        <time>2022-01-13T10:49:56.000Z</time>
      </trkpt>
      <trkpt lat="43.83756" lon="7.23417">
        <ele>577.59997558594</ele>
        <time>2022-01-13T10:49:57.000Z</time>
      </trkpt>
      <trkpt lat="43.83757" lon="7.23426">
        <ele>578</ele>
        <time>2022-01-13T10:50:02.000Z</time>
      </trkpt>
      <trkpt lat="43.83758" lon="7.2343">
        <ele>578</ele>
        <time>2022-01-13T10:50:04.000Z</time>
      </trkpt>
      <trkpt lat="43.8376" lon="7.23431">
        <ele>578</ele>
        <time>2022-01-13T10:50:06.000Z</time>
      </trkpt>
      <trkpt lat="43.8376" lon="7.23431">
        <ele>578.40002441406</ele>
        <time>2022-01-13T10:50:08.000Z</time>
      </trkpt>
      <trkpt lat="43.8376" lon="7.23431">
        <ele>579</ele>
        <time>2022-01-13T10:50:11.000Z</time>
      </trkpt>
      <trkpt lat="43.83761" lon="7.23432">
        <ele>579.40002441406</ele>
        <time>2022-01-13T10:50:16.000Z</time>
      </trkpt>
      <trkpt lat="43.83762" lon="7.23432">
        <ele>579.79998779297</ele>
        <time>2022-01-13T10:50:19.000Z</time>
      </trkpt>
      <trkpt lat="43.83766" lon="7.23432">
        <ele>580.40002441406</ele>
        <time>2022-01-13T10:50:25.000Z</time>
      </trkpt>
      <trkpt lat="43.83767" lon="7.23433">
        <ele>581.40002441406</ele>
        <time>2022-01-13T10:50:28.000Z</time>
      </trkpt>
      <trkpt lat="43.83768" lon="7.23433">
        <ele>581.59997558594</ele>
        <time>2022-01-13T10:50:29.000Z</time>
      </trkpt>
      <trkpt lat="43.83768" lon="7.23436">
        <ele>582.40002441406</ele>
        <time>2022-01-13T10:50:33.000Z</time>
      </trkpt>
      <trkpt lat="43.83768" lon="7.23437">
        <ele>582.59997558594</ele>
        <time>2022-01-13T10:50:35.000Z</time>
      </trkpt>
      <trkpt lat="43.83768" lon="7.2344">
        <ele>582.79998779297</ele>
        <time>2022-01-13T10:50:39.000Z</time>
      </trkpt>
      <trkpt lat="43.8377" lon="7.23446">
        <ele>582.59997558594</ele>
        <time>2022-01-13T10:50:45.000Z</time>
      </trkpt>
      <trkpt lat="43.83771" lon="7.23448">
        <ele>583</ele>
        <time>2022-01-13T10:50:48.000Z</time>
      </trkpt>
      <trkpt lat="43.83772" lon="7.23451">
        <ele>583.59997558594</ele>
        <time>2022-01-13T10:50:51.000Z</time>
      </trkpt>
      <trkpt lat="43.83772" lon="7.2345">
        <ele>583.79998779297</ele>
        <time>2022-01-13T10:50:52.000Z</time>
      </trkpt>
      <trkpt lat="43.83773" lon="7.23455">
        <ele>584.40002441406</ele>
        <time>2022-01-13T10:50:56.000Z</time>
      </trkpt>
      <trkpt lat="43.83772" lon="7.2347">
        <ele>584</ele>
        <time>2022-01-13T10:51:01.000Z</time>
      </trkpt>
      <trkpt lat="43.83771" lon="7.23486">
        <ele>583.40002441406</ele>
        <time>2022-01-13T10:51:06.000Z</time>
      </trkpt>
      <trkpt lat="43.83782" lon="7.23502">
        <ele>583.79998779297</ele>
        <time>2022-01-13T10:51:12.000Z</time>
      </trkpt>
      <trkpt lat="43.83785" lon="7.23507">
        <ele>585.40002441406</ele>
        <time>2022-01-13T10:51:15.000Z</time>
      </trkpt>
      <trkpt lat="43.83787" lon="7.23511">
        <ele>586.79998779297</ele>
        <time>2022-01-13T10:51:17.000Z</time>
      </trkpt>
      <trkpt lat="43.83789" lon="7.23515">
        <ele>587.79998779297</ele>
        <time>2022-01-13T10:51:19.000Z</time>
      </trkpt>
      <trkpt lat="43.83789" lon="7.23517">
        <ele>588</ele>
        <time>2022-01-13T10:51:20.000Z</time>
      </trkpt>
      <trkpt lat="43.83788" lon="7.23519">
        <ele>588</ele>
        <time>2022-01-13T10:51:21.000Z</time>
      </trkpt>
      <trkpt lat="43.8379" lon="7.23529">
        <ele>588</ele>
        <time>2022-01-13T10:51:25.000Z</time>
      </trkpt>
      <trkpt lat="43.83791" lon="7.23535">
        <ele>588.59997558594</ele>
        <time>2022-01-13T10:51:29.000Z</time>
      </trkpt>
      <trkpt lat="43.83792" lon="7.23535">
        <ele>589</ele>
        <time>2022-01-13T10:51:30.000Z</time>
      </trkpt>
      <trkpt lat="43.83794" lon="7.23534">
        <ele>589.20001220703</ele>
        <time>2022-01-13T10:51:32.000Z</time>
      </trkpt>
      <trkpt lat="43.83795" lon="7.23532">
        <ele>589.59997558594</ele>
        <time>2022-01-13T10:51:34.000Z</time>
      </trkpt>
      <trkpt lat="43.83797" lon="7.2353">
        <ele>590.20001220703</ele>
        <time>2022-01-13T10:51:36.000Z</time>
      </trkpt>
      <trkpt lat="43.838" lon="7.23527">
        <ele>591.40002441406</ele>
        <time>2022-01-13T10:51:38.000Z</time>
      </trkpt>
      <trkpt lat="43.83803" lon="7.23524">
        <ele>592.59997558594</ele>
        <time>2022-01-13T10:51:40.000Z</time>
      </trkpt>
      <trkpt lat="43.83804" lon="7.23522">
        <ele>592.79998779297</ele>
        <time>2022-01-13T10:51:41.000Z</time>
      </trkpt>
      <trkpt lat="43.83806" lon="7.23517">
        <ele>593.59997558594</ele>
        <time>2022-01-13T10:51:43.000Z</time>
      </trkpt>
      <trkpt lat="43.83814" lon="7.23516">
        <ele>595.20001220703</ele>
        <time>2022-01-13T10:51:47.000Z</time>
      </trkpt>
      <trkpt lat="43.8382" lon="7.23516">
        <ele>596.40002441406</ele>
        <time>2022-01-13T10:51:50.000Z</time>
      </trkpt>
      <trkpt lat="43.83821" lon="7.23516">
        <ele>597</ele>
        <time>2022-01-13T10:51:51.000Z</time>
      </trkpt>
      <trkpt lat="43.83822" lon="7.23516">
        <ele>597.59997558594</ele>
        <time>2022-01-13T10:51:52.000Z</time>
      </trkpt>
      <trkpt lat="43.83825" lon="7.23518">
        <ele>598.59997558594</ele>
        <time>2022-01-13T10:51:54.000Z</time>
      </trkpt>
      <trkpt lat="43.83827" lon="7.23519">
        <ele>599</ele>
        <time>2022-01-13T10:51:55.000Z</time>
      </trkpt>
      <trkpt lat="43.83831" lon="7.23518">
        <ele>600</ele>
        <time>2022-01-13T10:51:57.000Z</time>
      </trkpt>
      <trkpt lat="43.83836" lon="7.23515">
        <ele>601</ele>
        <time>2022-01-13T10:52:00.000Z</time>
      </trkpt>
      <trkpt lat="43.8384" lon="7.23515">
        <ele>602.59997558594</ele>
        <time>2022-01-13T10:52:03.000Z</time>
      </trkpt>
      <trkpt lat="43.83843" lon="7.23512">
        <ele>603.20001220703</ele>
        <time>2022-01-13T10:52:05.000Z</time>
      </trkpt>
      <trkpt lat="43.83845" lon="7.23508">
        <ele>603.79998779297</ele>
        <time>2022-01-13T10:52:07.000Z</time>
      </trkpt>
      <trkpt lat="43.83847" lon="7.23507">
        <ele>604</ele>
        <time>2022-01-13T10:52:08.000Z</time>
      </trkpt>
      <trkpt lat="43.83849" lon="7.23507">
        <ele>604.40002441406</ele>
        <time>2022-01-13T10:52:09.000Z</time>
      </trkpt>
      <trkpt lat="43.8385" lon="7.23506">
        <ele>604.79998779297</ele>
        <time>2022-01-13T10:52:10.000Z</time>
      </trkpt>
      <trkpt lat="43.83854" lon="7.23505">
        <ele>606</ele>
        <time>2022-01-13T10:52:12.000Z</time>
      </trkpt>
      <trkpt lat="43.83857" lon="7.23504">
        <ele>607</ele>
        <time>2022-01-13T10:52:14.000Z</time>
      </trkpt>
      <trkpt lat="43.83862" lon="7.23504">
        <ele>608</ele>
        <time>2022-01-13T10:52:16.000Z</time>
      </trkpt>
      <trkpt lat="43.83867" lon="7.23504">
        <ele>609.20001220703</ele>
        <time>2022-01-13T10:52:19.000Z</time>
      </trkpt>
      <trkpt lat="43.83869" lon="7.23505">
        <ele>609.40002441406</ele>
        <time>2022-01-13T10:52:20.000Z</time>
      </trkpt>
      <trkpt lat="43.83873" lon="7.23509">
        <ele>610.40002441406</ele>
        <time>2022-01-13T10:52:23.000Z</time>
      </trkpt>
      <trkpt lat="43.8388" lon="7.23513">
        <ele>611.40002441406</ele>
        <time>2022-01-13T10:52:27.000Z</time>
      </trkpt>
      <trkpt lat="43.83889" lon="7.23526">
        <ele>612</ele>
        <time>2022-01-13T10:52:33.000Z</time>
      </trkpt>
      <trkpt lat="43.83895" lon="7.23535">
        <ele>611.59997558594</ele>
        <time>2022-01-13T10:52:38.000Z</time>
      </trkpt>
      <trkpt lat="43.83896" lon="7.23534">
        <ele>611.40002441406</ele>
        <time>2022-01-13T10:52:46.000Z</time>
      </trkpt>
      <trkpt lat="43.83893" lon="7.2353">
        <ele>611.59997558594</ele>
        <time>2022-01-13T10:52:53.000Z</time>
      </trkpt>
      <trkpt lat="43.83891" lon="7.23528">
        <ele>611.79998779297</ele>
        <time>2022-01-13T10:52:59.000Z</time>
      </trkpt>
      <trkpt lat="43.83886" lon="7.2352">
        <ele>611.59997558594</ele>
        <time>2022-01-13T10:53:03.000Z</time>
      </trkpt>
      <trkpt lat="43.83882" lon="7.23509">
        <ele>612</ele>
        <time>2022-01-13T10:53:07.000Z</time>
      </trkpt>
      <trkpt lat="43.83884" lon="7.23503">
        <ele>612</ele>
        <time>2022-01-13T10:53:09.000Z</time>
      </trkpt>
      <trkpt lat="43.83889" lon="7.23499">
        <ele>612.40002441406</ele>
        <time>2022-01-13T10:53:11.000Z</time>
      </trkpt>
      <trkpt lat="43.83893" lon="7.23495">
        <ele>613</ele>
        <time>2022-01-13T10:53:13.000Z</time>
      </trkpt>
      <trkpt lat="43.83895" lon="7.23494">
        <ele>613.40002441406</ele>
        <time>2022-01-13T10:53:14.000Z</time>
      </trkpt>
      <trkpt lat="43.83899" lon="7.23492">
        <ele>613.79998779297</ele>
        <time>2022-01-13T10:53:15.000Z</time>
      </trkpt>
      <trkpt lat="43.83907" lon="7.2349">
        <ele>615.20001220703</ele>
        <time>2022-01-13T10:53:18.000Z</time>
      </trkpt>
      <trkpt lat="43.83913" lon="7.23488">
        <ele>616.40002441406</ele>
        <time>2022-01-13T10:53:20.000Z</time>
      </trkpt>
      <trkpt lat="43.8392" lon="7.23488">
        <ele>618.20001220703</ele>
        <time>2022-01-13T10:53:22.000Z</time>
      </trkpt>
      <trkpt lat="43.83922" lon="7.23488">
        <ele>619</ele>
        <time>2022-01-13T10:53:23.000Z</time>
      </trkpt>
      <trkpt lat="43.83924" lon="7.23488">
        <ele>619.79998779297</ele>
        <time>2022-01-13T10:53:24.000Z</time>
      </trkpt>
      <trkpt lat="43.83928" lon="7.23486">
        <ele>621.40002441406</ele>
        <time>2022-01-13T10:53:26.000Z</time>
      </trkpt>
      <trkpt lat="43.83932" lon="7.23484">
        <ele>622</ele>
        <time>2022-01-13T10:53:28.000Z</time>
      </trkpt>
      <trkpt lat="43.83935" lon="7.23485">
        <ele>622.40002441406</ele>
        <time>2022-01-13T10:53:30.000Z</time>
      </trkpt>
      <trkpt lat="43.83936" lon="7.23489">
        <ele>622.59997558594</ele>
        <time>2022-01-13T10:53:32.000Z</time>
      </trkpt>
      <trkpt lat="43.83936" lon="7.23489">
        <ele>622.59997558594</ele>
        <time>2022-01-13T10:53:37.000Z</time>
      </trkpt>
      <trkpt lat="43.83937" lon="7.23489">
        <ele>622.79998779297</ele>
        <time>2022-01-13T10:54:03.000Z</time>
      </trkpt>
      <trkpt lat="43.83935" lon="7.23488">
        <ele>623</ele>
        <time>2022-01-13T10:54:23.000Z</time>
      </trkpt>
      <trkpt lat="43.83934" lon="7.23486">
        <ele>623</ele>
        <time>2022-01-13T10:54:50.000Z</time>
      </trkpt>
      <trkpt lat="43.83934" lon="7.23485">
        <ele>623</ele>
        <time>2022-01-13T10:55:16.000Z</time>
      </trkpt>
      <trkpt lat="43.83934" lon="7.23484">
        <ele>622.79998779297</ele>
        <time>2022-01-13T10:55:36.000Z</time>
      </trkpt>
      <trkpt lat="43.83934" lon="7.23484">
        <ele>623</ele>
        <time>2022-01-13T10:56:02.000Z</time>
      </trkpt>
      <trkpt lat="43.83933" lon="7.23486">
        <ele>623</ele>
        <time>2022-01-13T10:56:28.000Z</time>
      </trkpt>
      <trkpt lat="43.83933" lon="7.23487">
        <ele>623</ele>
        <time>2022-01-13T10:56:48.000Z</time>
      </trkpt>
      <trkpt lat="43.83934" lon="7.23487">
        <ele>623.20001220703</ele>
        <time>2022-01-13T10:57:04.000Z</time>
      </trkpt>
      <trkpt lat="43.83933" lon="7.23489">
        <ele>623</ele>
        <time>2022-01-13T10:57:20.000Z</time>
      </trkpt>
      <trkpt lat="43.83934" lon="7.23489">
        <ele>623</ele>
        <time>2022-01-13T10:57:41.000Z</time>
      </trkpt>
      <trkpt lat="43.83935" lon="7.23489">
        <ele>623.20001220703</ele>
        <time>2022-01-13T10:57:53.000Z</time>
      </trkpt>
      <trkpt lat="43.83938" lon="7.23491">
        <ele>623.20001220703</ele>
        <time>2022-01-13T10:57:55.000Z</time>
      </trkpt>
      <trkpt lat="43.83942" lon="7.23484">
        <ele>622.79998779297</ele>
        <time>2022-01-13T10:57:58.000Z</time>
      </trkpt>
      <trkpt lat="43.83945" lon="7.23475">
        <ele>622.79998779297</ele>
        <time>2022-01-13T10:58:01.000Z</time>
      </trkpt>
      <trkpt lat="43.83948" lon="7.23467">
        <ele>622.79998779297</ele>
        <time>2022-01-13T10:58:04.000Z</time>
      </trkpt>
      <trkpt lat="43.83958" lon="7.23446">
        <ele>623.20001220703</ele>
        <time>2022-01-13T10:58:11.000Z</time>
      </trkpt>
      <trkpt lat="43.83961" lon="7.23438">
        <ele>623.40002441406</ele>
        <time>2022-01-13T10:58:14.000Z</time>
      </trkpt>
      <trkpt lat="43.83963" lon="7.23426">
        <ele>623.79998779297</ele>
        <time>2022-01-13T10:58:18.000Z</time>
      </trkpt>
      <trkpt lat="43.83968" lon="7.23409">
        <ele>624.20001220703</ele>
        <time>2022-01-13T10:58:25.000Z</time>
      </trkpt>
      <trkpt lat="43.83972" lon="7.23399">
        <ele>624.40002441406</ele>
        <time>2022-01-13T10:58:31.000Z</time>
      </trkpt>
      <trkpt lat="43.83973" lon="7.23395">
        <ele>624.40002441406</ele>
        <time>2022-01-13T10:58:33.000Z</time>
      </trkpt>
      <trkpt lat="43.83976" lon="7.23386">
        <ele>624.59997558594</ele>
        <time>2022-01-13T10:58:39.000Z</time>
      </trkpt>
      <trkpt lat="43.83979" lon="7.23365">
        <ele>624.40002441406</ele>
        <time>2022-01-13T10:58:45.000Z</time>
      </trkpt>
      <trkpt lat="43.83983" lon="7.23349">
        <ele>624.20001220703</ele>
        <time>2022-01-13T10:58:48.000Z</time>
      </trkpt>
      <trkpt lat="43.83988" lon="7.2334">
        <ele>623.20001220703</ele>
        <time>2022-01-13T10:58:50.000Z</time>
      </trkpt>
      <trkpt lat="43.83994" lon="7.23332">
        <ele>622</ele>
        <time>2022-01-13T10:58:52.000Z</time>
      </trkpt>
      <trkpt lat="43.83999" lon="7.23325">
        <ele>621</ele>
        <time>2022-01-13T10:58:54.000Z</time>
      </trkpt>
      <trkpt lat="43.84005" lon="7.2332">
        <ele>620.20001220703</ele>
        <time>2022-01-13T10:58:56.000Z</time>
      </trkpt>
      <trkpt lat="43.84008" lon="7.23317">
        <ele>620</ele>
        <time>2022-01-13T10:58:57.000Z</time>
      </trkpt>
      <trkpt lat="43.84027" lon="7.23303">
        <ele>620.40002441406</ele>
        <time>2022-01-13T10:59:03.000Z</time>
      </trkpt>
      <trkpt lat="43.8403" lon="7.233">
        <ele>620.20001220703</ele>
        <time>2022-01-13T10:59:04.000Z</time>
      </trkpt>
      <trkpt lat="43.84044" lon="7.23289">
        <ele>619.59997558594</ele>
        <time>2022-01-13T10:59:08.000Z</time>
      </trkpt>
      <trkpt lat="43.84052" lon="7.23283">
        <ele>618.79998779297</ele>
        <time>2022-01-13T10:59:10.000Z</time>
      </trkpt>
      <trkpt lat="43.84066" lon="7.23271">
        <ele>618.20001220703</ele>
        <time>2022-01-13T10:59:14.000Z</time>
      </trkpt>
      <trkpt lat="43.84075" lon="7.23266">
        <ele>618</ele>
        <time>2022-01-13T10:59:16.000Z</time>
      </trkpt>
      <trkpt lat="43.84084" lon="7.23264">
        <ele>617.40002441406</ele>
        <time>2022-01-13T10:59:18.000Z</time>
      </trkpt>
      <trkpt lat="43.84088" lon="7.23263">
        <ele>617</ele>
        <time>2022-01-13T10:59:19.000Z</time>
      </trkpt>
      <trkpt lat="43.84101" lon="7.23263">
        <ele>616.20001220703</ele>
        <time>2022-01-13T10:59:22.000Z</time>
      </trkpt>
      <trkpt lat="43.84113" lon="7.23264">
        <ele>616</ele>
        <time>2022-01-13T10:59:25.000Z</time>
      </trkpt>
      <trkpt lat="43.84117" lon="7.23264">
        <ele>616</ele>
        <time>2022-01-13T10:59:26.000Z</time>
      </trkpt>
      <trkpt lat="43.84132" lon="7.23264">
        <ele>615.20001220703</ele>
        <time>2022-01-13T10:59:30.000Z</time>
      </trkpt>
      <trkpt lat="43.84134" lon="7.23265">
        <ele>615</ele>
        <time>2022-01-13T10:59:31.000Z</time>
      </trkpt>
      <trkpt lat="43.84142" lon="7.23263">
        <ele>614.59997558594</ele>
        <time>2022-01-13T10:59:35.000Z</time>
      </trkpt>
      <trkpt lat="43.84151" lon="7.23258">
        <ele>613.79998779297</ele>
        <time>2022-01-13T10:59:38.000Z</time>
      </trkpt>
      <trkpt lat="43.84158" lon="7.23251">
        <ele>613</ele>
        <time>2022-01-13T10:59:40.000Z</time>
      </trkpt>
      <trkpt lat="43.84162" lon="7.23248">
        <ele>612.20001220703</ele>
        <time>2022-01-13T10:59:41.000Z</time>
      </trkpt>
      <trkpt lat="43.8417" lon="7.23243">
        <ele>610.79998779297</ele>
        <time>2022-01-13T10:59:43.000Z</time>
      </trkpt>
      <trkpt lat="43.84176" lon="7.23238">
        <ele>609.40002441406</ele>
        <time>2022-01-13T10:59:45.000Z</time>
      </trkpt>
      <trkpt lat="43.84183" lon="7.23235">
        <ele>607.79998779297</ele>
        <time>2022-01-13T10:59:47.000Z</time>
      </trkpt>
      <trkpt lat="43.8419" lon="7.23232">
        <ele>606.59997558594</ele>
        <time>2022-01-13T10:59:49.000Z</time>
      </trkpt>
      <trkpt lat="43.84194" lon="7.2323">
        <ele>606</ele>
        <time>2022-01-13T10:59:50.000Z</time>
      </trkpt>
      <trkpt lat="43.84199" lon="7.23227">
        <ele>605.40002441406</ele>
        <time>2022-01-13T10:59:51.000Z</time>
      </trkpt>
      <trkpt lat="43.84203" lon="7.23223">
        <ele>604.59997558594</ele>
        <time>2022-01-13T10:59:52.000Z</time>
      </trkpt>
      <trkpt lat="43.84206" lon="7.23221">
        <ele>603.79998779297</ele>
        <time>2022-01-13T10:59:53.000Z</time>
      </trkpt>
      <trkpt lat="43.84209" lon="7.23219">
        <ele>603.40002441406</ele>
        <time>2022-01-13T10:59:54.000Z</time>
      </trkpt>
      <trkpt lat="43.84217" lon="7.23218">
        <ele>602</ele>
        <time>2022-01-13T10:59:56.000Z</time>
      </trkpt>
      <trkpt lat="43.84224" lon="7.2322">
        <ele>600.79998779297</ele>
        <time>2022-01-13T10:59:58.000Z</time>
      </trkpt>
      <trkpt lat="43.84234" lon="7.23215">
        <ele>599.20001220703</ele>
        <time>2022-01-13T11:00:01.000Z</time>
      </trkpt>
      <trkpt lat="43.84236" lon="7.23214">
        <ele>598.59997558594</ele>
        <time>2022-01-13T11:00:02.000Z</time>
      </trkpt>
      <trkpt lat="43.84237" lon="7.23212">
        <ele>598.20001220703</ele>
        <time>2022-01-13T11:00:03.000Z</time>
      </trkpt>
      <trkpt lat="43.84245" lon="7.23208">
        <ele>597.20001220703</ele>
        <time>2022-01-13T11:00:07.000Z</time>
      </trkpt>
      <trkpt lat="43.84247" lon="7.23206">
        <ele>597</ele>
        <time>2022-01-13T11:00:08.000Z</time>
      </trkpt>
      <trkpt lat="43.84261" lon="7.23199">
        <ele>596</ele>
        <time>2022-01-13T11:00:12.000Z</time>
      </trkpt>
      <trkpt lat="43.84266" lon="7.23197">
        <ele>595</ele>
        <time>2022-01-13T11:00:14.000Z</time>
      </trkpt>
      <trkpt lat="43.84269" lon="7.23195">
        <ele>594.79998779297</ele>
        <time>2022-01-13T11:00:15.000Z</time>
      </trkpt>
      <trkpt lat="43.84284" lon="7.23191">
        <ele>593.40002441406</ele>
        <time>2022-01-13T11:00:19.000Z</time>
      </trkpt>
      <trkpt lat="43.84288" lon="7.23192">
        <ele>592.59997558594</ele>
        <time>2022-01-13T11:00:20.000Z</time>
      </trkpt>
      <trkpt lat="43.84292" lon="7.23196">
        <ele>592.20001220703</ele>
        <time>2022-01-13T11:00:21.000Z</time>
      </trkpt>
      <trkpt lat="43.84294" lon="7.23199">
        <ele>592</ele>
        <time>2022-01-13T11:00:22.000Z</time>
      </trkpt>
      <trkpt lat="43.84308" lon="7.23219">
        <ele>591.59997558594</ele>
        <time>2022-01-13T11:00:27.000Z</time>
      </trkpt>
      <trkpt lat="43.84309" lon="7.23224">
        <ele>591.59997558594</ele>
        <time>2022-01-13T11:00:28.000Z</time>
      </trkpt>
      <trkpt lat="43.8431" lon="7.23238">
        <ele>591.40002441406</ele>
        <time>2022-01-13T11:00:31.000Z</time>
      </trkpt>
      <trkpt lat="43.8431" lon="7.23243">
        <ele>591.40002441406</ele>
        <time>2022-01-13T11:00:32.000Z</time>
      </trkpt>
      <trkpt lat="43.8431" lon="7.23257">
        <ele>591.40002441406</ele>
        <time>2022-01-13T11:00:34.000Z</time>
      </trkpt>
      <trkpt lat="43.84311" lon="7.23263">
        <ele>591</ele>
        <time>2022-01-13T11:00:35.000Z</time>
      </trkpt>
      <trkpt lat="43.84314" lon="7.23271">
        <ele>589.79998779297</ele>
        <time>2022-01-13T11:00:37.000Z</time>
      </trkpt>
      <trkpt lat="43.84317" lon="7.23273">
        <ele>589.20001220703</ele>
        <time>2022-01-13T11:00:39.000Z</time>
      </trkpt>
      <trkpt lat="43.8433" lon="7.23273">
        <ele>591</ele>
        <time>2022-01-13T11:00:44.000Z</time>
      </trkpt>
      <trkpt lat="43.84347" lon="7.23269">
        <ele>591.40002441406</ele>
        <time>2022-01-13T11:00:49.000Z</time>
      </trkpt>
      <trkpt lat="43.84352" lon="7.23274">
        <ele>592.40002441406</ele>
        <time>2022-01-13T11:00:52.000Z</time>
      </trkpt>
      <trkpt lat="43.84362" lon="7.23273">
        <ele>592.79998779297</ele>
        <time>2022-01-13T11:00:56.000Z</time>
      </trkpt>
      <trkpt lat="43.84369" lon="7.2327">
        <ele>593.79998779297</ele>
        <time>2022-01-13T11:00:59.000Z</time>
      </trkpt>
      <trkpt lat="43.84375" lon="7.23268">
        <ele>594.20001220703</ele>
        <time>2022-01-13T11:01:01.000Z</time>
      </trkpt>
      <trkpt lat="43.84378" lon="7.23266">
        <ele>594</ele>
        <time>2022-01-13T11:01:02.000Z</time>
      </trkpt>
      <trkpt lat="43.8439" lon="7.23265">
        <ele>593</ele>
        <time>2022-01-13T11:01:05.000Z</time>
      </trkpt>
      <trkpt lat="43.84394" lon="7.23263">
        <ele>592.79998779297</ele>
        <time>2022-01-13T11:01:06.000Z</time>
      </trkpt>
      <trkpt lat="43.84404" lon="7.23265">
        <ele>593</ele>
        <time>2022-01-13T11:01:09.000Z</time>
      </trkpt>
      <trkpt lat="43.84408" lon="7.23265">
        <ele>593.20001220703</ele>
        <time>2022-01-13T11:01:10.000Z</time>
      </trkpt>
      <trkpt lat="43.84421" lon="7.23268">
        <ele>593.79998779297</ele>
        <time>2022-01-13T11:01:14.000Z</time>
      </trkpt>
      <trkpt lat="43.84427" lon="7.23271">
        <ele>594.20001220703</ele>
        <time>2022-01-13T11:01:17.000Z</time>
      </trkpt>
      <trkpt lat="43.84433" lon="7.23273">
        <ele>595</ele>
        <time>2022-01-13T11:01:19.000Z</time>
      </trkpt>
      <trkpt lat="43.84441" lon="7.23276">
        <ele>595.40002441406</ele>
        <time>2022-01-13T11:01:21.000Z</time>
      </trkpt>
      <trkpt lat="43.84444" lon="7.23279">
        <ele>595.40002441406</ele>
        <time>2022-01-13T11:01:22.000Z</time>
      </trkpt>
      <trkpt lat="43.84458" lon="7.23285">
        <ele>595.79998779297</ele>
        <time>2022-01-13T11:01:26.000Z</time>
      </trkpt>
      <trkpt lat="43.84462" lon="7.23286">
        <ele>596</ele>
        <time>2022-01-13T11:01:27.000Z</time>
      </trkpt>
      <trkpt lat="43.84466" lon="7.23288">
        <ele>596.20001220703</ele>
        <time>2022-01-13T11:01:28.000Z</time>
      </trkpt>
      <trkpt lat="43.84483" lon="7.23286">
        <ele>595.59997558594</ele>
        <time>2022-01-13T11:01:32.000Z</time>
      </trkpt>
      <trkpt lat="43.84487" lon="7.23282">
        <ele>595.40002441406</ele>
        <time>2022-01-13T11:01:33.000Z</time>
      </trkpt>
      <trkpt lat="43.84498" lon="7.23269">
        <ele>595.59997558594</ele>
        <time>2022-01-13T11:01:36.000Z</time>
      </trkpt>
      <trkpt lat="43.84504" lon="7.23258">
        <ele>595.20001220703</ele>
        <time>2022-01-13T11:01:38.000Z</time>
      </trkpt>
      <trkpt lat="43.84507" lon="7.23252">
        <ele>595.20001220703</ele>
        <time>2022-01-13T11:01:39.000Z</time>
      </trkpt>
      <trkpt lat="43.84509" lon="7.23246">
        <ele>595</ele>
        <time>2022-01-13T11:01:40.000Z</time>
      </trkpt>
      <trkpt lat="43.84511" lon="7.23239">
        <ele>595</ele>
        <time>2022-01-13T11:01:41.000Z</time>
      </trkpt>
      <trkpt lat="43.84513" lon="7.23234">
        <ele>595</ele>
        <time>2022-01-13T11:01:42.000Z</time>
      </trkpt>
      <trkpt lat="43.84521" lon="7.23217">
        <ele>595.40002441406</ele>
        <time>2022-01-13T11:01:45.000Z</time>
      </trkpt>
      <trkpt lat="43.84534" lon="7.2321">
        <ele>595.20001220703</ele>
        <time>2022-01-13T11:01:48.000Z</time>
      </trkpt>
      <trkpt lat="43.84542" lon="7.23205">
        <ele>595.20001220703</ele>
        <time>2022-01-13T11:01:50.000Z</time>
      </trkpt>
      <trkpt lat="43.84551" lon="7.23199">
        <ele>596.40002441406</ele>
        <time>2022-01-13T11:01:53.000Z</time>
      </trkpt>
      <trkpt lat="43.84562" lon="7.23193">
        <ele>597.40002441406</ele>
        <time>2022-01-13T11:01:56.000Z</time>
      </trkpt>
      <trkpt lat="43.84567" lon="7.23193">
        <ele>597.59997558594</ele>
        <time>2022-01-13T11:01:57.000Z</time>
      </trkpt>
      <trkpt lat="43.8457" lon="7.23193">
        <ele>597.40002441406</ele>
        <time>2022-01-13T11:01:58.000Z</time>
      </trkpt>
      <trkpt lat="43.84582" lon="7.2319">
        <ele>597.20001220703</ele>
        <time>2022-01-13T11:02:02.000Z</time>
      </trkpt>
      <trkpt lat="43.84593" lon="7.23188">
        <ele>596.79998779297</ele>
        <time>2022-01-13T11:02:05.000Z</time>
      </trkpt>
      <trkpt lat="43.84597" lon="7.23191">
        <ele>596.20001220703</ele>
        <time>2022-01-13T11:02:06.000Z</time>
      </trkpt>
      <trkpt lat="43.84602" lon="7.23194">
        <ele>596</ele>
        <time>2022-01-13T11:02:07.000Z</time>
      </trkpt>
      <trkpt lat="43.84606" lon="7.23197">
        <ele>595.79998779297</ele>
        <time>2022-01-13T11:02:08.000Z</time>
      </trkpt>
      <trkpt lat="43.84609" lon="7.23201">
        <ele>595.20001220703</ele>
        <time>2022-01-13T11:02:09.000Z</time>
      </trkpt>
      <trkpt lat="43.84612" lon="7.23206">
        <ele>595.20001220703</ele>
        <time>2022-01-13T11:02:10.000Z</time>
      </trkpt>
      <trkpt lat="43.84621" lon="7.23213">
        <ele>595</ele>
        <time>2022-01-13T11:02:13.000Z</time>
      </trkpt>
      <trkpt lat="43.84625" lon="7.23213">
        <ele>595</ele>
        <time>2022-01-13T11:02:14.000Z</time>
      </trkpt>
      <trkpt lat="43.84633" lon="7.23218">
        <ele>593.79998779297</ele>
        <time>2022-01-13T11:02:17.000Z</time>
      </trkpt>
      <trkpt lat="43.84633" lon="7.23218">
        <ele>592.59997558594</ele>
        <time>2022-01-13T11:02:19.000Z</time>
      </trkpt>
      <trkpt lat="43.84633" lon="7.23218">
        <ele>592.20001220703</ele>
        <time>2022-01-13T11:02:20.000Z</time>
      </trkpt>
      <trkpt lat="43.84635" lon="7.23218">
        <ele>592</ele>
        <time>2022-01-13T11:02:44.000Z</time>
      </trkpt>
      <trkpt lat="43.84635" lon="7.23218">
        <ele>592.20001220703</ele>
        <time>2022-01-13T11:03:16.000Z</time>
      </trkpt>
      <trkpt lat="43.84636" lon="7.2322">
        <ele>592.20001220703</ele>
        <time>2022-01-13T11:03:32.000Z</time>
      </trkpt>
      <trkpt lat="43.84637" lon="7.23221">
        <ele>592.20001220703</ele>
        <time>2022-01-13T11:03:41.000Z</time>
      </trkpt>
      <trkpt lat="43.84637" lon="7.23221">
        <ele>592.40002441406</ele>
        <time>2022-01-13T11:04:07.000Z</time>
      </trkpt>
      <trkpt lat="43.84636" lon="7.2322">
        <ele>592.40002441406</ele>
        <time>2022-01-13T11:04:13.000Z</time>
      </trkpt>
      <trkpt lat="43.84635" lon="7.23219">
        <ele>592.79998779297</ele>
        <time>2022-01-13T11:04:18.000Z</time>
      </trkpt>
      <trkpt lat="43.84633" lon="7.23218">
        <ele>593</ele>
        <time>2022-01-13T11:04:24.000Z</time>
      </trkpt>
      <trkpt lat="43.84628" lon="7.23214">
        <ele>593</ele>
        <time>2022-01-13T11:04:28.000Z</time>
      </trkpt>
      <trkpt lat="43.84626" lon="7.23215">
        <ele>593</ele>
        <time>2022-01-13T11:04:29.000Z</time>
      </trkpt>
      <trkpt lat="43.84621" lon="7.23214">
        <ele>593.59997558594</ele>
        <time>2022-01-13T11:04:31.000Z</time>
      </trkpt>
      <trkpt lat="43.84615" lon="7.23208">
        <ele>595.20001220703</ele>
        <time>2022-01-13T11:04:34.000Z</time>
      </trkpt>
      <trkpt lat="43.84613" lon="7.23205">
        <ele>595.79998779297</ele>
        <time>2022-01-13T11:04:35.000Z</time>
      </trkpt>
      <trkpt lat="43.84602" lon="7.23193">
        <ele>596.20001220703</ele>
        <time>2022-01-13T11:04:40.000Z</time>
      </trkpt>
      <trkpt lat="43.84591" lon="7.23188">
        <ele>596.40002441406</ele>
        <time>2022-01-13T11:04:44.000Z</time>
      </trkpt>
      <trkpt lat="43.84588" lon="7.23189">
        <ele>596.40002441406</ele>
        <time>2022-01-13T11:04:45.000Z</time>
      </trkpt>
      <trkpt lat="43.84586" lon="7.23191">
        <ele>596.40002441406</ele>
        <time>2022-01-13T11:04:46.000Z</time>
      </trkpt>
      <trkpt lat="43.84583" lon="7.23191">
        <ele>596.40002441406</ele>
        <time>2022-01-13T11:04:47.000Z</time>
      </trkpt>
      <trkpt lat="43.84577" lon="7.2319">
        <ele>597.20001220703</ele>
        <time>2022-01-13T11:04:50.000Z</time>
      </trkpt>
      <trkpt lat="43.84575" lon="7.23191">
        <ele>597.59997558594</ele>
        <time>2022-01-13T11:04:51.000Z</time>
      </trkpt>
      <trkpt lat="43.84567" lon="7.23191">
        <ele>598.59997558594</ele>
        <time>2022-01-13T11:04:54.000Z</time>
      </trkpt>
      <trkpt lat="43.84563" lon="7.23191">
        <ele>598.79998779297</ele>
        <time>2022-01-13T11:04:55.000Z</time>
      </trkpt>
      <trkpt lat="43.84556" lon="7.23196">
        <ele>598.79998779297</ele>
        <time>2022-01-13T11:04:58.000Z</time>
      </trkpt>
      <trkpt lat="43.84553" lon="7.23198">
        <ele>598.59997558594</ele>
        <time>2022-01-13T11:04:59.000Z</time>
      </trkpt>
      <trkpt lat="43.84542" lon="7.23206">
        <ele>598.40002441406</ele>
        <time>2022-01-13T11:05:03.000Z</time>
      </trkpt>
      <trkpt lat="43.84525" lon="7.23217">
        <ele>597.59997558594</ele>
        <time>2022-01-13T11:05:07.000Z</time>
      </trkpt>
      <trkpt lat="43.84519" lon="7.23231">
        <ele>596.40002441406</ele>
        <time>2022-01-13T11:05:10.000Z</time>
      </trkpt>
      <trkpt lat="43.84517" lon="7.23235">
        <ele>596</ele>
        <time>2022-01-13T11:05:11.000Z</time>
      </trkpt>
      <trkpt lat="43.84507" lon="7.2326">
        <ele>596.79998779297</ele>
        <time>2022-01-13T11:05:17.000Z</time>
      </trkpt>
      <trkpt lat="43.84491" lon="7.23282">
        <ele>596.79998779297</ele>
        <time>2022-01-13T11:05:23.000Z</time>
      </trkpt>
      <trkpt lat="43.84474" lon="7.23289">
        <ele>597</ele>
        <time>2022-01-13T11:05:28.000Z</time>
      </trkpt>
      <trkpt lat="43.84458" lon="7.23284">
        <ele>596.59997558594</ele>
        <time>2022-01-13T11:05:33.000Z</time>
      </trkpt>
      <trkpt lat="43.84447" lon="7.23277">
        <ele>597</ele>
        <time>2022-01-13T11:05:37.000Z</time>
      </trkpt>
      <trkpt lat="43.84444" lon="7.23275">
        <ele>597</ele>
        <time>2022-01-13T11:05:38.000Z</time>
      </trkpt>
      <trkpt lat="43.84431" lon="7.2327">
        <ele>596.59997558594</ele>
        <time>2022-01-13T11:05:42.000Z</time>
      </trkpt>
      <trkpt lat="43.8442" lon="7.23265">
        <ele>596.20001220703</ele>
        <time>2022-01-13T11:05:45.000Z</time>
      </trkpt>
      <trkpt lat="43.84412" lon="7.23265">
        <ele>595.79998779297</ele>
        <time>2022-01-13T11:05:47.000Z</time>
      </trkpt>
      <trkpt lat="43.84408" lon="7.23265">
        <ele>595.20001220703</ele>
        <time>2022-01-13T11:05:48.000Z</time>
      </trkpt>
      <trkpt lat="43.84398" lon="7.23263">
        <ele>594.40002441406</ele>
        <time>2022-01-13T11:05:51.000Z</time>
      </trkpt>
      <trkpt lat="43.84386" lon="7.23266">
        <ele>594.20001220703</ele>
        <time>2022-01-13T11:05:54.000Z</time>
      </trkpt>
      <trkpt lat="43.84381" lon="7.23267">
        <ele>594</ele>
        <time>2022-01-13T11:05:55.000Z</time>
      </trkpt>
      <trkpt lat="43.84371" lon="7.23272">
        <ele>593.79998779297</ele>
        <time>2022-01-13T11:05:59.000Z</time>
      </trkpt>
      <trkpt lat="43.84361" lon="7.23273">
        <ele>595</ele>
        <time>2022-01-13T11:06:03.000Z</time>
      </trkpt>
      <trkpt lat="43.8435" lon="7.23275">
        <ele>594.40002441406</ele>
        <time>2022-01-13T11:06:07.000Z</time>
      </trkpt>
      <trkpt lat="43.84338" lon="7.2328">
        <ele>594</ele>
        <time>2022-01-13T11:06:11.000Z</time>
      </trkpt>
      <trkpt lat="43.84321" lon="7.23288">
        <ele>595.20001220703</ele>
        <time>2022-01-13T11:06:17.000Z</time>
      </trkpt>
      <trkpt lat="43.84316" lon="7.23289">
        <ele>595.59997558594</ele>
        <time>2022-01-13T11:06:19.000Z</time>
      </trkpt>
      <trkpt lat="43.84311" lon="7.23286">
        <ele>595.59997558594</ele>
        <time>2022-01-13T11:06:21.000Z</time>
      </trkpt>
      <trkpt lat="43.843" lon="7.23281">
        <ele>595.79998779297</ele>
        <time>2022-01-13T11:06:27.000Z</time>
      </trkpt>
      <trkpt lat="43.84285" lon="7.23281">
        <ele>596.40002441406</ele>
        <time>2022-01-13T11:06:33.000Z</time>
      </trkpt>
      <trkpt lat="43.8428" lon="7.23283">
        <ele>596.59997558594</ele>
        <time>2022-01-13T11:06:35.000Z</time>
      </trkpt>
      <trkpt lat="43.84274" lon="7.23285">
        <ele>597.59997558594</ele>
        <time>2022-01-13T11:06:38.000Z</time>
      </trkpt>
      <trkpt lat="43.84272" lon="7.23285">
        <ele>597.79998779297</ele>
        <time>2022-01-13T11:06:39.000Z</time>
      </trkpt>
      <trkpt lat="43.84269" lon="7.23289">
        <ele>598.79998779297</ele>
        <time>2022-01-13T11:06:42.000Z</time>
      </trkpt>
      <trkpt lat="43.84268" lon="7.23291">
        <ele>599.20001220703</ele>
        <time>2022-01-13T11:06:43.000Z</time>
      </trkpt>
      <trkpt lat="43.84268" lon="7.23293">
        <ele>599.59997558594</ele>
        <time>2022-01-13T11:06:44.000Z</time>
      </trkpt>
      <trkpt lat="43.84269" lon="7.23303">
        <ele>599.79998779297</ele>
        <time>2022-01-13T11:06:47.000Z</time>
      </trkpt>
      <trkpt lat="43.84271" lon="7.23309">
        <ele>600</ele>
        <time>2022-01-13T11:06:50.000Z</time>
      </trkpt>
      <trkpt lat="43.84272" lon="7.23311">
        <ele>600.20001220703</ele>
        <time>2022-01-13T11:06:51.000Z</time>
      </trkpt>
      <trkpt lat="43.84276" lon="7.23322">
        <ele>601.20001220703</ele>
        <time>2022-01-13T11:06:55.000Z</time>
      </trkpt>
      <trkpt lat="43.84276" lon="7.23327">
        <ele>602.20001220703</ele>
        <time>2022-01-13T11:06:58.000Z</time>
      </trkpt>
      <trkpt lat="43.84276" lon="7.23328">
        <ele>603.20001220703</ele>
        <time>2022-01-13T11:07:00.000Z</time>
      </trkpt>
      <trkpt lat="43.84276" lon="7.23328">
        <ele>603.59997558594</ele>
        <time>2022-01-13T11:07:01.000Z</time>
      </trkpt>
      <trkpt lat="43.84275" lon="7.23328">
        <ele>604.20001220703</ele>
        <time>2022-01-13T11:07:10.000Z</time>
      </trkpt>
      <trkpt lat="43.84274" lon="7.23329">
        <ele>604.20001220703</ele>
        <time>2022-01-13T11:07:28.000Z</time>
      </trkpt>
      <trkpt lat="43.84271" lon="7.23335">
        <ele>604.40002441406</ele>
        <time>2022-01-13T11:07:37.000Z</time>
      </trkpt>
      <trkpt lat="43.84264" lon="7.23344">
        <ele>603.79998779297</ele>
        <time>2022-01-13T11:07:40.000Z</time>
      </trkpt>
      <trkpt lat="43.84261" lon="7.23346">
        <ele>603.59997558594</ele>
        <time>2022-01-13T11:07:41.000Z</time>
      </trkpt>
      <trkpt lat="43.84256" lon="7.23355">
        <ele>602.40002441406</ele>
        <time>2022-01-13T11:07:43.000Z</time>
      </trkpt>
      <trkpt lat="43.84254" lon="7.23361">
        <ele>601.59997558594</ele>
        <time>2022-01-13T11:07:44.000Z</time>
      </trkpt>
      <trkpt lat="43.84252" lon="7.23367">
        <ele>600.40002441406</ele>
        <time>2022-01-13T11:07:45.000Z</time>
      </trkpt>
      <trkpt lat="43.84248" lon="7.23375">
        <ele>598.79998779297</ele>
        <time>2022-01-13T11:07:47.000Z</time>
      </trkpt>
      <trkpt lat="43.84247" lon="7.2338">
        <ele>598.59997558594</ele>
        <time>2022-01-13T11:07:48.000Z</time>
      </trkpt>
      <trkpt lat="43.8424" lon="7.23391">
        <ele>598.79998779297</ele>
        <time>2022-01-13T11:07:51.000Z</time>
      </trkpt>
      <trkpt lat="43.84236" lon="7.23396">
        <ele>598.59997558594</ele>
        <time>2022-01-13T11:07:52.000Z</time>
      </trkpt>
      <trkpt lat="43.84232" lon="7.23405">
        <ele>597.40002441406</ele>
        <time>2022-01-13T11:07:54.000Z</time>
      </trkpt>
      <trkpt lat="43.8423" lon="7.2341">
        <ele>596.79998779297</ele>
        <time>2022-01-13T11:07:55.000Z</time>
      </trkpt>
      <trkpt lat="43.84227" lon="7.23414">
        <ele>596</ele>
        <time>2022-01-13T11:07:56.000Z</time>
      </trkpt>
      <trkpt lat="43.84221" lon="7.23425">
        <ele>594.79998779297</ele>
        <time>2022-01-13T11:07:58.000Z</time>
      </trkpt>
      <trkpt lat="43.84218" lon="7.2343">
        <ele>594</ele>
        <time>2022-01-13T11:07:59.000Z</time>
      </trkpt>
      <trkpt lat="43.84215" lon="7.23436">
        <ele>593.20001220703</ele>
        <time>2022-01-13T11:08:00.000Z</time>
      </trkpt>
      <trkpt lat="43.84213" lon="7.23442">
        <ele>592.20001220703</ele>
        <time>2022-01-13T11:08:01.000Z</time>
      </trkpt>
      <trkpt lat="43.84213" lon="7.23447">
        <ele>591.20001220703</ele>
        <time>2022-01-13T11:08:02.000Z</time>
      </trkpt>
      <trkpt lat="43.84213" lon="7.23453">
        <ele>590.40002441406</ele>
        <time>2022-01-13T11:08:03.000Z</time>
      </trkpt>
      <trkpt lat="43.84217" lon="7.23471">
        <ele>591.79998779297</ele>
        <time>2022-01-13T11:08:07.000Z</time>
      </trkpt>
      <trkpt lat="43.84218" lon="7.23481">
        <ele>593.20001220703</ele>
        <time>2022-01-13T11:08:09.000Z</time>
      </trkpt>
      <trkpt lat="43.84219" lon="7.23488">
        <ele>593.59997558594</ele>
        <time>2022-01-13T11:08:10.000Z</time>
      </trkpt>
      <trkpt lat="43.8422" lon="7.23492">
        <ele>593.59997558594</ele>
        <time>2022-01-13T11:08:11.000Z</time>
      </trkpt>
      <trkpt lat="43.8423" lon="7.23513">
        <ele>592.79998779297</ele>
        <time>2022-01-13T11:08:15.000Z</time>
      </trkpt>
      <trkpt lat="43.84232" lon="7.23518">
        <ele>592.59997558594</ele>
        <time>2022-01-13T11:08:16.000Z</time>
      </trkpt>
      <trkpt lat="43.84241" lon="7.23534">
        <ele>592.20001220703</ele>
        <time>2022-01-13T11:08:20.000Z</time>
      </trkpt>
      <trkpt lat="43.84243" lon="7.23536">
        <ele>592.40002441406</ele>
        <time>2022-01-13T11:08:21.000Z</time>
      </trkpt>
      <trkpt lat="43.84249" lon="7.23547">
        <ele>593.79998779297</ele>
        <time>2022-01-13T11:08:24.000Z</time>
      </trkpt>
      <trkpt lat="43.84252" lon="7.23551">
        <ele>594.59997558594</ele>
        <time>2022-01-13T11:08:25.000Z</time>
      </trkpt>
      <trkpt lat="43.84255" lon="7.23559">
        <ele>595.79998779297</ele>
        <time>2022-01-13T11:08:27.000Z</time>
      </trkpt>
      <trkpt lat="43.84258" lon="7.23563">
        <ele>596.20001220703</ele>
        <time>2022-01-13T11:08:28.000Z</time>
      </trkpt>
      <trkpt lat="43.84263" lon="7.23568">
        <ele>597</ele>
        <time>2022-01-13T11:08:30.000Z</time>
      </trkpt>
      <trkpt lat="43.84267" lon="7.23575">
        <ele>597.79998779297</ele>
        <time>2022-01-13T11:08:32.000Z</time>
      </trkpt>
      <trkpt lat="43.84268" lon="7.23579">
        <ele>598.20001220703</ele>
        <time>2022-01-13T11:08:33.000Z</time>
      </trkpt>
      <trkpt lat="43.8427" lon="7.23586">
        <ele>599.20001220703</ele>
        <time>2022-01-13T11:08:35.000Z</time>
      </trkpt>
      <trkpt lat="43.84271" lon="7.23594">
        <ele>599.79998779297</ele>
        <time>2022-01-13T11:08:37.000Z</time>
      </trkpt>
      <trkpt lat="43.8427" lon="7.23599">
        <ele>600</ele>
        <time>2022-01-13T11:08:38.000Z</time>
      </trkpt>
      <trkpt lat="43.84266" lon="7.23608">
        <ele>599.79998779297</ele>
        <time>2022-01-13T11:08:40.000Z</time>
      </trkpt>
      <trkpt lat="43.84256" lon="7.23616">
        <ele>597.79998779297</ele>
        <time>2022-01-13T11:08:43.000Z</time>
      </trkpt>
      <trkpt lat="43.84253" lon="7.2362">
        <ele>596.59997558594</ele>
        <time>2022-01-13T11:08:44.000Z</time>
      </trkpt>
      <trkpt lat="43.84251" lon="7.23627">
        <ele>595.20001220703</ele>
        <time>2022-01-13T11:08:45.000Z</time>
      </trkpt>
      <trkpt lat="43.84251" lon="7.23634">
        <ele>594</ele>
        <time>2022-01-13T11:08:46.000Z</time>
      </trkpt>
      <trkpt lat="43.84252" lon="7.2364">
        <ele>592.79998779297</ele>
        <time>2022-01-13T11:08:47.000Z</time>
      </trkpt>
      <trkpt lat="43.84255" lon="7.23646">
        <ele>591.59997558594</ele>
        <time>2022-01-13T11:08:48.000Z</time>
      </trkpt>
      <trkpt lat="43.84257" lon="7.23652">
        <ele>591.20001220703</ele>
        <time>2022-01-13T11:08:49.000Z</time>
      </trkpt>
      <trkpt lat="43.84259" lon="7.23658">
        <ele>590.59997558594</ele>
        <time>2022-01-13T11:08:50.000Z</time>
      </trkpt>
      <trkpt lat="43.84261" lon="7.23663">
        <ele>590.20001220703</ele>
        <time>2022-01-13T11:08:51.000Z</time>
      </trkpt>
      <trkpt lat="43.84271" lon="7.23677">
        <ele>590.59997558594</ele>
        <time>2022-01-13T11:08:54.000Z</time>
      </trkpt>
      <trkpt lat="43.8428" lon="7.23691">
        <ele>591</ele>
        <time>2022-01-13T11:08:57.000Z</time>
      </trkpt>
      <trkpt lat="43.84284" lon="7.23693">
        <ele>590.79998779297</ele>
        <time>2022-01-13T11:08:58.000Z</time>
      </trkpt>
      <trkpt lat="43.84296" lon="7.23702">
        <ele>590.40002441406</ele>
        <time>2022-01-13T11:09:01.000Z</time>
      </trkpt>
      <trkpt lat="43.84306" lon="7.23709">
        <ele>589.79998779297</ele>
        <time>2022-01-13T11:09:04.000Z</time>
      </trkpt>
      <trkpt lat="43.84309" lon="7.2371">
        <ele>589.79998779297</ele>
        <time>2022-01-13T11:09:07.000Z</time>
      </trkpt>
      <trkpt lat="43.84311" lon="7.23711">
        <ele>590.20001220703</ele>
        <time>2022-01-13T11:09:24.000Z</time>
      </trkpt>
      <trkpt lat="43.84314" lon="7.23714">
        <ele>590.59997558594</ele>
        <time>2022-01-13T11:09:45.000Z</time>
      </trkpt>
      <trkpt lat="43.84316" lon="7.23719">
        <ele>590.40002441406</ele>
        <time>2022-01-13T11:09:47.000Z</time>
      </trkpt>
      <trkpt lat="43.84317" lon="7.23724">
        <ele>590</ele>
        <time>2022-01-13T11:09:49.000Z</time>
      </trkpt>
      <trkpt lat="43.84319" lon="7.23736">
        <ele>589.40002441406</ele>
        <time>2022-01-13T11:09:53.000Z</time>
      </trkpt>
      <trkpt lat="43.84321" lon="7.23738">
        <ele>589</ele>
        <time>2022-01-13T11:09:54.000Z</time>
      </trkpt>
      <trkpt lat="43.84328" lon="7.23741">
        <ele>587.59997558594</ele>
        <time>2022-01-13T11:09:57.000Z</time>
      </trkpt>
      <trkpt lat="43.84329" lon="7.23744">
        <ele>587.40002441406</ele>
        <time>2022-01-13T11:09:58.000Z</time>
      </trkpt>
      <trkpt lat="43.84333" lon="7.23752">
        <ele>587.40002441406</ele>
        <time>2022-01-13T11:10:01.000Z</time>
      </trkpt>
      <trkpt lat="43.84338" lon="7.23763">
        <ele>586.40002441406</ele>
        <time>2022-01-13T11:10:05.000Z</time>
      </trkpt>
      <trkpt lat="43.84339" lon="7.23766">
        <ele>585.79998779297</ele>
        <time>2022-01-13T11:10:06.000Z</time>
      </trkpt>
      <trkpt lat="43.84343" lon="7.23771">
        <ele>585</ele>
        <time>2022-01-13T11:10:08.000Z</time>
      </trkpt>
      <trkpt lat="43.84347" lon="7.23774">
        <ele>584.40002441406</ele>
        <time>2022-01-13T11:10:10.000Z</time>
      </trkpt>
      <trkpt lat="43.84347" lon="7.23774">
        <ele>583.59997558594</ele>
        <time>2022-01-13T11:10:12.000Z</time>
      </trkpt>
      <trkpt lat="43.84348" lon="7.23775">
        <ele>582.79998779297</ele>
        <time>2022-01-13T11:10:14.000Z</time>
      </trkpt>
      <trkpt lat="43.84348" lon="7.23775">
        <ele>582.40002441406</ele>
        <time>2022-01-13T11:10:15.000Z</time>
      </trkpt>
      <trkpt lat="43.84351" lon="7.23779">
        <ele>582.20001220703</ele>
        <time>2022-01-13T11:10:27.000Z</time>
      </trkpt>
      <trkpt lat="43.84352" lon="7.23781">
        <ele>582.20001220703</ele>
        <time>2022-01-13T11:10:28.000Z</time>
      </trkpt>
      <trkpt lat="43.8435" lon="7.23792">
        <ele>582.20001220703</ele>
        <time>2022-01-13T11:10:31.000Z</time>
      </trkpt>
      <trkpt lat="43.84351" lon="7.23799">
        <ele>582.20001220703</ele>
        <time>2022-01-13T11:10:34.000Z</time>
      </trkpt>
      <trkpt lat="43.84351" lon="7.23803">
        <ele>582.59997558594</ele>
        <time>2022-01-13T11:10:35.000Z</time>
      </trkpt>
      <trkpt lat="43.84349" lon="7.2381">
        <ele>582</ele>
        <time>2022-01-13T11:10:38.000Z</time>
      </trkpt>
      <trkpt lat="43.84348" lon="7.23811">
        <ele>581.40002441406</ele>
        <time>2022-01-13T11:10:39.000Z</time>
      </trkpt>
      <trkpt lat="43.84341" lon="7.2381">
        <ele>581.40002441406</ele>
        <time>2022-01-13T11:10:43.000Z</time>
      </trkpt>
      <trkpt lat="43.84334" lon="7.23817">
        <ele>582.20001220703</ele>
        <time>2022-01-13T11:10:47.000Z</time>
      </trkpt>
      <trkpt lat="43.84331" lon="7.23821">
        <ele>582.40002441406</ele>
        <time>2022-01-13T11:10:49.000Z</time>
      </trkpt>
      <trkpt lat="43.84328" lon="7.23828">
        <ele>583</ele>
        <time>2022-01-13T11:10:52.000Z</time>
      </trkpt>
      <trkpt lat="43.84329" lon="7.23834">
        <ele>583.40002441406</ele>
        <time>2022-01-13T11:10:55.000Z</time>
      </trkpt>
      <trkpt lat="43.8433" lon="7.23835">
        <ele>583.59997558594</ele>
        <time>2022-01-13T11:10:56.000Z</time>
      </trkpt>
      <trkpt lat="43.84333" lon="7.23839">
        <ele>583.79998779297</ele>
        <time>2022-01-13T11:10:58.000Z</time>
      </trkpt>
      <trkpt lat="43.84345" lon="7.23845">
        <ele>583.40002441406</ele>
        <time>2022-01-13T11:11:02.000Z</time>
      </trkpt>
      <trkpt lat="43.84353" lon="7.23852">
        <ele>582.40002441406</ele>
        <time>2022-01-13T11:11:04.000Z</time>
      </trkpt>
      <trkpt lat="43.84357" lon="7.23857">
        <ele>581.79998779297</ele>
        <time>2022-01-13T11:11:05.000Z</time>
      </trkpt>
      <trkpt lat="43.8436" lon="7.23859">
        <ele>581</ele>
        <time>2022-01-13T11:11:06.000Z</time>
      </trkpt>
      <trkpt lat="43.84366" lon="7.23865">
        <ele>579.59997558594</ele>
        <time>2022-01-13T11:11:08.000Z</time>
      </trkpt>
      <trkpt lat="43.84369" lon="7.23867">
        <ele>579.20001220703</ele>
        <time>2022-01-13T11:11:09.000Z</time>
      </trkpt>
      <trkpt lat="43.84373" lon="7.23868">
        <ele>579.20001220703</ele>
        <time>2022-01-13T11:11:10.000Z</time>
      </trkpt>
      <trkpt lat="43.84381" lon="7.23865">
        <ele>578</ele>
        <time>2022-01-13T11:11:13.000Z</time>
      </trkpt>
      <trkpt lat="43.84385" lon="7.23857">
        <ele>576</ele>
        <time>2022-01-13T11:11:15.000Z</time>
      </trkpt>
      <trkpt lat="43.84387" lon="7.23855">
        <ele>575.20001220703</ele>
        <time>2022-01-13T11:11:16.000Z</time>
      </trkpt>
      <trkpt lat="43.84389" lon="7.23854">
        <ele>573.79998779297</ele>
        <time>2022-01-13T11:11:17.000Z</time>
      </trkpt>
      <trkpt lat="43.84393" lon="7.23854">
        <ele>572.79998779297</ele>
        <time>2022-01-13T11:11:19.000Z</time>
      </trkpt>
      <trkpt lat="43.84394" lon="7.23855">
        <ele>572.40002441406</ele>
        <time>2022-01-13T11:11:20.000Z</time>
      </trkpt>
      <trkpt lat="43.84395" lon="7.23856">
        <ele>572.40002441406</ele>
        <time>2022-01-13T11:11:21.000Z</time>
      </trkpt>
      <trkpt lat="43.84396" lon="7.2386">
        <ele>571.59997558594</ele>
        <time>2022-01-13T11:11:23.000Z</time>
      </trkpt>
      <trkpt lat="43.84397" lon="7.23861">
        <ele>571.40002441406</ele>
        <time>2022-01-13T11:11:24.000Z</time>
      </trkpt>
      <trkpt lat="43.84399" lon="7.23862">
        <ele>571</ele>
        <time>2022-01-13T11:11:25.000Z</time>
      </trkpt>
      <trkpt lat="43.84402" lon="7.23863">
        <ele>570.59997558594</ele>
        <time>2022-01-13T11:11:26.000Z</time>
      </trkpt>
      <trkpt lat="43.84405" lon="7.2386">
        <ele>570</ele>
        <time>2022-01-13T11:11:27.000Z</time>
      </trkpt>
      <trkpt lat="43.8441" lon="7.23858">
        <ele>569.20001220703</ele>
        <time>2022-01-13T11:11:29.000Z</time>
      </trkpt>
      <trkpt lat="43.84409" lon="7.23863">
        <ele>568.20001220703</ele>
        <time>2022-01-13T11:11:30.000Z</time>
      </trkpt>
      <trkpt lat="43.84408" lon="7.23867">
        <ele>567.59997558594</ele>
        <time>2022-01-13T11:11:31.000Z</time>
      </trkpt>
      <trkpt lat="43.84409" lon="7.23876">
        <ele>565.79998779297</ele>
        <time>2022-01-13T11:11:33.000Z</time>
      </trkpt>
      <trkpt lat="43.84411" lon="7.23882">
        <ele>565.20001220703</ele>
        <time>2022-01-13T11:11:34.000Z</time>
      </trkpt>
      <trkpt lat="43.84414" lon="7.23886">
        <ele>564.40002441406</ele>
        <time>2022-01-13T11:11:35.000Z</time>
      </trkpt>
      <trkpt lat="43.84418" lon="7.23891">
        <ele>563.20001220703</ele>
        <time>2022-01-13T11:11:36.000Z</time>
      </trkpt>
      <trkpt lat="43.84421" lon="7.23895">
        <ele>562.20001220703</ele>
        <time>2022-01-13T11:11:37.000Z</time>
      </trkpt>
      <trkpt lat="43.84424" lon="7.23897">
        <ele>561.40002441406</ele>
        <time>2022-01-13T11:11:38.000Z</time>
      </trkpt>
      <trkpt lat="43.84428" lon="7.23901">
        <ele>560</ele>
        <time>2022-01-13T11:11:40.000Z</time>
      </trkpt>
      <trkpt lat="43.84432" lon="7.23904">
        <ele>558.59997558594</ele>
        <time>2022-01-13T11:11:42.000Z</time>
      </trkpt>
      <trkpt lat="43.84434" lon="7.23904">
        <ele>558.59997558594</ele>
        <time>2022-01-13T11:11:43.000Z</time>
      </trkpt>
      <trkpt lat="43.84437" lon="7.239">
        <ele>558</ele>
        <time>2022-01-13T11:11:45.000Z</time>
      </trkpt>
      <trkpt lat="43.84439" lon="7.23898">
        <ele>557.59997558594</ele>
        <time>2022-01-13T11:11:46.000Z</time>
      </trkpt>
      <trkpt lat="43.84452" lon="7.23881">
        <ele>557.20001220703</ele>
        <time>2022-01-13T11:11:54.000Z</time>
      </trkpt>
      <trkpt lat="43.84464" lon="7.23866">
        <ele>556.40002441406</ele>
        <time>2022-01-13T11:12:00.000Z</time>
      </trkpt>
      <trkpt lat="43.84468" lon="7.23861">
        <ele>556.40002441406</ele>
        <time>2022-01-13T11:12:02.000Z</time>
      </trkpt>
      <trkpt lat="43.84484" lon="7.2384">
        <ele>556</ele>
        <time>2022-01-13T11:12:11.000Z</time>
      </trkpt>
      <trkpt lat="43.84502" lon="7.23818">
        <ele>555.59997558594</ele>
        <time>2022-01-13T11:12:21.000Z</time>
      </trkpt>
      <trkpt lat="43.84517" lon="7.238">
        <ele>555.79998779297</ele>
        <time>2022-01-13T11:12:30.000Z</time>
      </trkpt>
      <trkpt lat="43.84532" lon="7.23782">
        <ele>556</ele>
        <time>2022-01-13T11:12:38.000Z</time>
      </trkpt>
      <trkpt lat="43.84544" lon="7.23768">
        <ele>555.79998779297</ele>
        <time>2022-01-13T11:12:44.000Z</time>
      </trkpt>
      <trkpt lat="43.84553" lon="7.23757">
        <ele>556</ele>
        <time>2022-01-13T11:12:51.000Z</time>
      </trkpt>
      <trkpt lat="43.84554" lon="7.23757">
        <ele>556</ele>
        <time>2022-01-13T11:12:52.000Z</time>
      </trkpt>
      <trkpt lat="43.84558" lon="7.23759">
        <ele>555.79998779297</ele>
        <time>2022-01-13T11:12:55.000Z</time>
      </trkpt>
      <trkpt lat="43.84558" lon="7.23759">
        <ele>555.79998779297</ele>
        <time>2022-01-13T11:13:00.000Z</time>
      </trkpt>
      <trkpt lat="43.84558" lon="7.2376">
        <ele>555.79998779297</ele>
        <time>2022-01-13T11:13:28.000Z</time>
      </trkpt>
      <trkpt lat="43.84559" lon="7.23761">
        <ele>556</ele>
        <time>2022-01-13T11:13:46.000Z</time>
      </trkpt>
      <trkpt lat="43.8456" lon="7.23761">
        <ele>555.79998779297</ele>
        <time>2022-01-13T11:14:13.000Z</time>
      </trkpt>
      <trkpt lat="43.84561" lon="7.23762">
        <ele>555.79998779297</ele>
        <time>2022-01-13T11:14:37.000Z</time>
      </trkpt>
      <trkpt lat="43.84562" lon="7.23762">
        <ele>556</ele>
        <time>2022-01-13T11:15:08.000Z</time>
      </trkpt>
      <trkpt lat="43.84561" lon="7.23761">
        <ele>556</ele>
        <time>2022-01-13T11:15:39.000Z</time>
      </trkpt>
      <trkpt lat="43.84561" lon="7.23761">
        <ele>555.79998779297</ele>
        <time>2022-01-13T11:16:03.000Z</time>
      </trkpt>
      <trkpt lat="43.84562" lon="7.23762">
        <ele>556</ele>
        <time>2022-01-13T11:16:30.000Z</time>
      </trkpt>
      <trkpt lat="43.84562" lon="7.23761">
        <ele>556.20001220703</ele>
        <time>2022-01-13T11:16:52.000Z</time>
      </trkpt>
      <trkpt lat="43.84561" lon="7.23761">
        <ele>556</ele>
        <time>2022-01-13T11:17:03.000Z</time>
      </trkpt>
      <trkpt lat="43.8456" lon="7.2376">
        <ele>556</ele>
        <time>2022-01-13T11:17:39.000Z</time>
      </trkpt>
      <trkpt lat="43.8456" lon="7.2376">
        <ele>556</ele>
        <time>2022-01-13T11:18:04.000Z</time>
      </trkpt>
      <trkpt lat="43.84559" lon="7.2376">
        <ele>556</ele>
        <time>2022-01-13T11:18:41.000Z</time>
      </trkpt>
      <trkpt lat="43.84559" lon="7.2376">
        <ele>555.79998779297</ele>
        <time>2022-01-13T11:19:16.000Z</time>
      </trkpt>
      <trkpt lat="43.84559" lon="7.2376">
        <ele>555.59997558594</ele>
        <time>2022-01-13T11:19:53.000Z</time>
      </trkpt>
      <trkpt lat="43.8456" lon="7.2376">
        <ele>555.59997558594</ele>
        <time>2022-01-13T11:20:32.000Z</time>
      </trkpt>
      <trkpt lat="43.8456" lon="7.2376">
        <ele>555.40002441406</ele>
        <time>2022-01-13T11:20:55.000Z</time>
      </trkpt>
      <trkpt lat="43.84559" lon="7.2376">
        <ele>555.40002441406</ele>
        <time>2022-01-13T11:21:12.000Z</time>
      </trkpt>
      <trkpt lat="43.84559" lon="7.2376">
        <ele>555.40002441406</ele>
        <time>2022-01-13T11:21:46.000Z</time>
      </trkpt>
      <trkpt lat="43.84559" lon="7.2376">
        <ele>555.20001220703</ele>
        <time>2022-01-13T11:22:00.000Z</time>
      </trkpt>
      <trkpt lat="43.84559" lon="7.23759">
        <ele>554.79998779297</ele>
        <time>2022-01-13T11:22:21.000Z</time>
      </trkpt>
      <trkpt lat="43.84559" lon="7.23759">
        <ele>555.20001220703</ele>
        <time>2022-01-13T11:22:36.000Z</time>
      </trkpt>
      <trkpt lat="43.84559" lon="7.23758">
        <ele>555.40002441406</ele>
        <time>2022-01-13T11:23:02.000Z</time>
      </trkpt>
      <trkpt lat="43.8456" lon="7.23758">
        <ele>555.20001220703</ele>
        <time>2022-01-13T11:23:34.000Z</time>
      </trkpt>
      <trkpt lat="43.8456" lon="7.23758">
        <ele>555.20001220703</ele>
        <time>2022-01-13T11:23:57.000Z</time>
      </trkpt>
      <trkpt lat="43.84559" lon="7.23756">
        <ele>555</ele>
        <time>2022-01-13T11:24:19.000Z</time>
      </trkpt>
      <trkpt lat="43.84559" lon="7.23755">
        <ele>554.79998779297</ele>
        <time>2022-01-13T11:24:37.000Z</time>
      </trkpt>
      <trkpt lat="43.8456" lon="7.23753">
        <ele>554.79998779297</ele>
        <time>2022-01-13T11:24:38.000Z</time>
      </trkpt>
      <trkpt lat="43.84563" lon="7.23748">
        <ele>555</ele>
        <time>2022-01-13T11:24:41.000Z</time>
      </trkpt>
      <trkpt lat="43.84571" lon="7.23738">
        <ele>554.79998779297</ele>
        <time>2022-01-13T11:24:45.000Z</time>
      </trkpt>
      <trkpt lat="43.84574" lon="7.23735">
        <ele>554.79998779297</ele>
        <time>2022-01-13T11:24:46.000Z</time>
      </trkpt>
      <trkpt lat="43.84581" lon="7.23722">
        <ele>554.40002441406</ele>
        <time>2022-01-13T11:24:49.000Z</time>
      </trkpt>
      <trkpt lat="43.84586" lon="7.23713">
        <ele>554.20001220703</ele>
        <time>2022-01-13T11:24:51.000Z</time>
      </trkpt>
      <trkpt lat="43.84597" lon="7.23694">
        <ele>553.40002441406</ele>
        <time>2022-01-13T11:24:55.000Z</time>
      </trkpt>
      <trkpt lat="43.8461" lon="7.23677">
        <ele>553.40002441406</ele>
        <time>2022-01-13T11:24:59.000Z</time>
      </trkpt>
      <trkpt lat="43.8464" lon="7.23638">
        <ele>553.40002441406</ele>
        <time>2022-01-13T11:25:08.000Z</time>
      </trkpt>
      <trkpt lat="43.84677" lon="7.23589">
        <ele>553.79998779297</ele>
        <time>2022-01-13T11:25:19.000Z</time>
      </trkpt>
      <trkpt lat="43.84703" lon="7.23555">
        <ele>554.40002441406</ele>
        <time>2022-01-13T11:25:28.000Z</time>
      </trkpt>
      <trkpt lat="43.84706" lon="7.23556">
        <ele>554.59997558594</ele>
        <time>2022-01-13T11:25:29.000Z</time>
      </trkpt>
      <trkpt lat="43.84709" lon="7.23562">
        <ele>554.79998779297</ele>
        <time>2022-01-13T11:25:31.000Z</time>
      </trkpt>
      <trkpt lat="43.84709" lon="7.23566">
        <ele>555.20001220703</ele>
        <time>2022-01-13T11:25:35.000Z</time>
      </trkpt>
      <trkpt lat="43.8471" lon="7.23567">
        <ele>555</ele>
        <time>2022-01-13T11:25:41.000Z</time>
      </trkpt>
      <trkpt lat="43.84709" lon="7.23567">
        <ele>554.79998779297</ele>
        <time>2022-01-13T11:25:46.000Z</time>
      </trkpt>
      <trkpt lat="43.84709" lon="7.23568">
        <ele>554.79998779297</ele>
        <time>2022-01-13T11:25:52.000Z</time>
      </trkpt>
      <trkpt lat="43.8471" lon="7.23568">
        <ele>554.79998779297</ele>
        <time>2022-01-13T11:26:00.000Z</time>
      </trkpt>
      <trkpt lat="43.8471" lon="7.23568">
        <ele>554.79998779297</ele>
        <time>2022-01-13T11:26:10.000Z</time>
      </trkpt>
      <trkpt lat="43.8471" lon="7.23568">
        <ele>555.40002441406</ele>
        <time>2022-01-13T11:26:37.000Z</time>
      </trkpt>
      <trkpt lat="43.8471" lon="7.23568">
        <ele>555.40002441406</ele>
        <time>2022-01-13T11:26:39.000Z</time>
      </trkpt>
      <trkpt lat="43.8471" lon="7.23568">
        <ele>555.59997558594</ele>
        <time>2022-01-13T11:27:13.000Z</time>
      </trkpt>
      <trkpt lat="43.8471" lon="7.23567">
        <ele>555.59997558594</ele>
        <time>2022-01-13T11:27:40.000Z</time>
      </trkpt>
      <trkpt lat="43.8471" lon="7.23567">
        <ele>555.40002441406</ele>
        <time>2022-01-13T11:27:46.000Z</time>
      </trkpt>
      <trkpt lat="43.84711" lon="7.23567">
        <ele>555.20001220703</ele>
        <time>2022-01-13T11:28:00.000Z</time>
      </trkpt>
      <trkpt lat="43.84711" lon="7.23567">
        <ele>555.20001220703</ele>
        <time>2022-01-13T11:28:08.000Z</time>
      </trkpt>
      <trkpt lat="43.84711" lon="7.23566">
        <ele>555.40002441406</ele>
        <time>2022-01-13T11:28:21.000Z</time>
      </trkpt>
      <trkpt lat="43.8471" lon="7.23564">
        <ele>556</ele>
        <time>2022-01-13T11:28:29.000Z</time>
      </trkpt>
      <trkpt lat="43.84711" lon="7.23564">
        <ele>555.79998779297</ele>
        <time>2022-01-13T11:28:30.000Z</time>
      </trkpt>
      <trkpt lat="43.84711" lon="7.23565">
        <ele>555.40002441406</ele>
        <time>2022-01-13T11:28:36.000Z</time>
      </trkpt>
      <trkpt lat="43.84713" lon="7.23563">
        <ele>555.40002441406</ele>
        <time>2022-01-13T11:28:41.000Z</time>
      </trkpt>
      <trkpt lat="43.84712" lon="7.23562">
        <ele>555.59997558594</ele>
        <time>2022-01-13T11:28:42.000Z</time>
      </trkpt>
      <trkpt lat="43.84708" lon="7.23558">
        <ele>555.59997558594</ele>
        <time>2022-01-13T11:28:45.000Z</time>
      </trkpt>
      <trkpt lat="43.84711" lon="7.23544">
        <ele>556.20001220703</ele>
        <time>2022-01-13T11:28:49.000Z</time>
      </trkpt>
      <trkpt lat="43.84716" lon="7.2354">
        <ele>556.40002441406</ele>
        <time>2022-01-13T11:28:51.000Z</time>
      </trkpt>
      <trkpt lat="43.84726" lon="7.23531">
        <ele>556.20001220703</ele>
        <time>2022-01-13T11:28:54.000Z</time>
      </trkpt>
      <trkpt lat="43.8476" lon="7.23503">
        <ele>555.79998779297</ele>
        <time>2022-01-13T11:29:03.000Z</time>
      </trkpt>
      <trkpt lat="43.84795" lon="7.23474">
        <ele>555.79998779297</ele>
        <time>2022-01-13T11:29:12.000Z</time>
      </trkpt>
      <trkpt lat="43.84823" lon="7.23455">
        <ele>556</ele>
        <time>2022-01-13T11:29:19.000Z</time>
      </trkpt>
      <trkpt lat="43.84843" lon="7.23439">
        <ele>556</ele>
        <time>2022-01-13T11:29:24.000Z</time>
      </trkpt>
      <trkpt lat="43.84854" lon="7.2343">
        <ele>556.40002441406</ele>
        <time>2022-01-13T11:29:27.000Z</time>
      </trkpt>
      <trkpt lat="43.84862" lon="7.23424">
        <ele>556.59997558594</ele>
        <time>2022-01-13T11:29:29.000Z</time>
      </trkpt>
      <trkpt lat="43.84883" lon="7.23402">
        <ele>556.40002441406</ele>
        <time>2022-01-13T11:29:35.000Z</time>
      </trkpt>
      <trkpt lat="43.84904" lon="7.23379">
        <ele>556.40002441406</ele>
        <time>2022-01-13T11:29:41.000Z</time>
      </trkpt>
      <trkpt lat="43.84909" lon="7.23377">
        <ele>556.40002441406</ele>
        <time>2022-01-13T11:29:42.000Z</time>
      </trkpt>
      <trkpt lat="43.84921" lon="7.23384">
        <ele>556.59997558594</ele>
        <time>2022-01-13T11:29:45.000Z</time>
      </trkpt>
      <trkpt lat="43.84926" lon="7.23387">
        <ele>556.79998779297</ele>
        <time>2022-01-13T11:29:46.000Z</time>
      </trkpt>
      <trkpt lat="43.84955" lon="7.23413">
        <ele>556.40002441406</ele>
        <time>2022-01-13T11:29:53.000Z</time>
      </trkpt>
      <trkpt lat="43.84965" lon="7.23435">
        <ele>556.59997558594</ele>
        <time>2022-01-13T11:29:57.000Z</time>
      </trkpt>
      <trkpt lat="43.84982" lon="7.23465">
        <ele>557.20001220703</ele>
        <time>2022-01-13T11:30:03.000Z</time>
      </trkpt>
      <trkpt lat="43.84987" lon="7.23468">
        <ele>557.20001220703</ele>
        <time>2022-01-13T11:30:04.000Z</time>
      </trkpt>
      <trkpt lat="43.85" lon="7.23477">
        <ele>557.59997558594</ele>
        <time>2022-01-13T11:30:07.000Z</time>
      </trkpt>
      <trkpt lat="43.85018" lon="7.23489">
        <ele>557.59997558594</ele>
        <time>2022-01-13T11:30:11.000Z</time>
      </trkpt>
      <trkpt lat="43.85043" lon="7.23517">
        <ele>556.40002441406</ele>
        <time>2022-01-13T11:30:16.000Z</time>
      </trkpt>
      <trkpt lat="43.85053" lon="7.23535">
        <ele>555.40002441406</ele>
        <time>2022-01-13T11:30:18.000Z</time>
      </trkpt>
      <trkpt lat="43.85057" lon="7.23545">
        <ele>555</ele>
        <time>2022-01-13T11:30:19.000Z</time>
      </trkpt>
      <trkpt lat="43.85059" lon="7.23555">
        <ele>554.40002441406</ele>
        <time>2022-01-13T11:30:20.000Z</time>
      </trkpt>
      <trkpt lat="43.85062" lon="7.23566">
        <ele>553.79998779297</ele>
        <time>2022-01-13T11:30:21.000Z</time>
      </trkpt>
      <trkpt lat="43.85067" lon="7.23588">
        <ele>552.40002441406</ele>
        <time>2022-01-13T11:30:23.000Z</time>
      </trkpt>
      <trkpt lat="43.85072" lon="7.23608">
        <ele>551.20001220703</ele>
        <time>2022-01-13T11:30:25.000Z</time>
      </trkpt>
      <trkpt lat="43.85074" lon="7.23617">
        <ele>550.79998779297</ele>
        <time>2022-01-13T11:30:26.000Z</time>
      </trkpt>
      <trkpt lat="43.85079" lon="7.23628">
        <ele>550.40002441406</ele>
        <time>2022-01-13T11:30:28.000Z</time>
      </trkpt>
      <trkpt lat="43.85082" lon="7.23629">
        <ele>550.40002441406</ele>
        <time>2022-01-13T11:30:29.000Z</time>
      </trkpt>
      <trkpt lat="43.8509" lon="7.23626">
        <ele>550.40002441406</ele>
        <time>2022-01-13T11:30:32.000Z</time>
      </trkpt>
      <trkpt lat="43.85107" lon="7.23623">
        <ele>550.40002441406</ele>
        <time>2022-01-13T11:30:36.000Z</time>
      </trkpt>
      <trkpt lat="43.85112" lon="7.23621">
        <ele>550.20001220703</ele>
        <time>2022-01-13T11:30:37.000Z</time>
      </trkpt>
      <trkpt lat="43.85118" lon="7.23618">
        <ele>549.79998779297</ele>
        <time>2022-01-13T11:30:38.000Z</time>
      </trkpt>
      <trkpt lat="43.85137" lon="7.2361">
        <ele>548.59997558594</ele>
        <time>2022-01-13T11:30:41.000Z</time>
      </trkpt>
      <trkpt lat="43.8515" lon="7.23603">
        <ele>547.40002441406</ele>
        <time>2022-01-13T11:30:43.000Z</time>
      </trkpt>
      <trkpt lat="43.85156" lon="7.23598">
        <ele>546.79998779297</ele>
        <time>2022-01-13T11:30:44.000Z</time>
      </trkpt>
      <trkpt lat="43.85162" lon="7.23592">
        <ele>546.40002441406</ele>
        <time>2022-01-13T11:30:45.000Z</time>
      </trkpt>
      <trkpt lat="43.85169" lon="7.23584">
        <ele>545.79998779297</ele>
        <time>2022-01-13T11:30:46.000Z</time>
      </trkpt>
      <trkpt lat="43.85175" lon="7.23576">
        <ele>545.20001220703</ele>
        <time>2022-01-13T11:30:47.000Z</time>
      </trkpt>
      <trkpt lat="43.85185" lon="7.23561">
        <ele>544</ele>
        <time>2022-01-13T11:30:49.000Z</time>
      </trkpt>
      <trkpt lat="43.85197" lon="7.23542">
        <ele>543</ele>
        <time>2022-01-13T11:30:51.000Z</time>
      </trkpt>
      <trkpt lat="43.85207" lon="7.23521">
        <ele>541.79998779297</ele>
        <time>2022-01-13T11:30:53.000Z</time>
      </trkpt>
      <trkpt lat="43.85218" lon="7.23501">
        <ele>540.79998779297</ele>
        <time>2022-01-13T11:30:55.000Z</time>
      </trkpt>
      <trkpt lat="43.8523" lon="7.23481">
        <ele>539.20001220703</ele>
        <time>2022-01-13T11:30:57.000Z</time>
      </trkpt>
      <trkpt lat="43.85236" lon="7.23471">
        <ele>538.59997558594</ele>
        <time>2022-01-13T11:30:58.000Z</time>
      </trkpt>
      <trkpt lat="43.85244" lon="7.23463">
        <ele>537.40002441406</ele>
        <time>2022-01-13T11:30:59.000Z</time>
      </trkpt>
      <trkpt lat="43.85261" lon="7.23451">
        <ele>536.59997558594</ele>
        <time>2022-01-13T11:31:01.000Z</time>
      </trkpt>
      <trkpt lat="43.8527" lon="7.23446">
        <ele>535.79998779297</ele>
        <time>2022-01-13T11:31:02.000Z</time>
      </trkpt>
      <trkpt lat="43.85277" lon="7.23441">
        <ele>535.40002441406</ele>
        <time>2022-01-13T11:31:03.000Z</time>
      </trkpt>
      <trkpt lat="43.85286" lon="7.23435">
        <ele>534.79998779297</ele>
        <time>2022-01-13T11:31:04.000Z</time>
      </trkpt>
      <trkpt lat="43.85299" lon="7.23422">
        <ele>534</ele>
        <time>2022-01-13T11:31:06.000Z</time>
      </trkpt>
      <trkpt lat="43.85326" lon="7.23382">
        <ele>534</ele>
        <time>2022-01-13T11:31:11.000Z</time>
      </trkpt>
      <trkpt lat="43.85351" lon="7.23344">
        <ele>533.79998779297</ele>
        <time>2022-01-13T11:31:16.000Z</time>
      </trkpt>
      <trkpt lat="43.85365" lon="7.23323">
        <ele>533.79998779297</ele>
        <time>2022-01-13T11:31:19.000Z</time>
      </trkpt>
      <trkpt lat="43.85396" lon="7.23285">
        <ele>534</ele>
        <time>2022-01-13T11:31:25.000Z</time>
      </trkpt>
      <trkpt lat="43.85439" lon="7.23251">
        <ele>533.40002441406</ele>
        <time>2022-01-13T11:31:32.000Z</time>
      </trkpt>
      <trkpt lat="43.85482" lon="7.2322">
        <ele>533.20001220703</ele>
        <time>2022-01-13T11:31:39.000Z</time>
      </trkpt>
      <trkpt lat="43.85495" lon="7.23211">
        <ele>533</ele>
        <time>2022-01-13T11:31:41.000Z</time>
      </trkpt>
      <trkpt lat="43.85506" lon="7.23203">
        <ele>532.79998779297</ele>
        <time>2022-01-13T11:31:43.000Z</time>
      </trkpt>
      <trkpt lat="43.85525" lon="7.23189">
        <ele>532.40002441406</ele>
        <time>2022-01-13T11:31:46.000Z</time>
      </trkpt>
      <trkpt lat="43.85567" lon="7.23158">
        <ele>532.59997558594</ele>
        <time>2022-01-13T11:31:53.000Z</time>
      </trkpt>
      <trkpt lat="43.85611" lon="7.23124">
        <ele>532.40002441406</ele>
        <time>2022-01-13T11:32:01.000Z</time>
      </trkpt>
      <trkpt lat="43.85619" lon="7.2312">
        <ele>532.20001220703</ele>
        <time>2022-01-13T11:32:03.000Z</time>
      </trkpt>
      <trkpt lat="43.85626" lon="7.23118">
        <ele>532.40002441406</ele>
        <time>2022-01-13T11:32:05.000Z</time>
      </trkpt>
      <trkpt lat="43.85631" lon="7.23119">
        <ele>532.59997558594</ele>
        <time>2022-01-13T11:32:07.000Z</time>
      </trkpt>
      <trkpt lat="43.85633" lon="7.23118">
        <ele>533</ele>
        <time>2022-01-13T11:32:10.000Z</time>
      </trkpt>
      <trkpt lat="43.85635" lon="7.23116">
        <ele>533.20001220703</ele>
        <time>2022-01-13T11:32:15.000Z</time>
      </trkpt>
      <trkpt lat="43.85635" lon="7.23117">
        <ele>533</ele>
        <time>2022-01-13T11:32:20.000Z</time>
      </trkpt>
      <trkpt lat="43.85633" lon="7.23116">
        <ele>533</ele>
        <time>2022-01-13T11:32:22.000Z</time>
      </trkpt>
      <trkpt lat="43.85632" lon="7.23116">
        <ele>532.79998779297</ele>
        <time>2022-01-13T11:32:28.000Z</time>
      </trkpt>
      <trkpt lat="43.8563" lon="7.23117">
        <ele>533.40002441406</ele>
        <time>2022-01-13T11:32:35.000Z</time>
      </trkpt>
      <trkpt lat="43.85631" lon="7.23119">
        <ele>532.79998779297</ele>
        <time>2022-01-13T11:32:41.000Z</time>
      </trkpt>
      <trkpt lat="43.85633" lon="7.2312">
        <ele>533</ele>
        <time>2022-01-13T11:32:50.000Z</time>
      </trkpt>
      <trkpt lat="43.85634" lon="7.23122">
        <ele>533</ele>
        <time>2022-01-13T11:33:01.000Z</time>
      </trkpt>
      <trkpt lat="43.85636" lon="7.23123">
        <ele>532.79998779297</ele>
        <time>2022-01-13T11:33:07.000Z</time>
      </trkpt>
      <trkpt lat="43.85637" lon="7.23126">
        <ele>532.79998779297</ele>
        <time>2022-01-13T11:33:19.000Z</time>
      </trkpt>
      <trkpt lat="43.85633" lon="7.23129">
        <ele>533</ele>
        <time>2022-01-13T11:33:27.000Z</time>
      </trkpt>
      <trkpt lat="43.85631" lon="7.23128">
        <ele>533.40002441406</ele>
        <time>2022-01-13T11:33:35.000Z</time>
      </trkpt>
      <trkpt lat="43.85627" lon="7.23128">
        <ele>533.59997558594</ele>
        <time>2022-01-13T11:33:46.000Z</time>
      </trkpt>
      <trkpt lat="43.85624" lon="7.23127">
        <ele>533.40002441406</ele>
        <time>2022-01-13T11:33:55.000Z</time>
      </trkpt>
      <trkpt lat="43.85623" lon="7.23126">
        <ele>533.20001220703</ele>
        <time>2022-01-13T11:34:11.000Z</time>
      </trkpt>
      <trkpt lat="43.85622" lon="7.23126">
        <ele>533.40002441406</ele>
        <time>2022-01-13T11:34:22.000Z</time>
      </trkpt>
      <trkpt lat="43.85621" lon="7.23124">
        <ele>533.20001220703</ele>
        <time>2022-01-13T11:34:31.000Z</time>
      </trkpt>
      <trkpt lat="43.85619" lon="7.23124">
        <ele>533.40002441406</ele>
        <time>2022-01-13T11:34:44.000Z</time>
      </trkpt>
      <trkpt lat="43.85618" lon="7.23123">
        <ele>533.40002441406</ele>
        <time>2022-01-13T11:34:55.000Z</time>
      </trkpt>
      <trkpt lat="43.85619" lon="7.23122">
        <ele>533.40002441406</ele>
        <time>2022-01-13T11:35:03.000Z</time>
      </trkpt>
      <trkpt lat="43.85619" lon="7.23122">
        <ele>533.40002441406</ele>
        <time>2022-01-13T11:35:15.000Z</time>
      </trkpt>
      <trkpt lat="43.85618" lon="7.23123">
        <ele>533.40002441406</ele>
        <time>2022-01-13T11:35:30.000Z</time>
      </trkpt>
      <trkpt lat="43.85618" lon="7.23123">
        <ele>533.40002441406</ele>
        <time>2022-01-13T11:35:43.000Z</time>
      </trkpt>
      <trkpt lat="43.85618" lon="7.23124">
        <ele>533.40002441406</ele>
        <time>2022-01-13T11:35:54.000Z</time>
      </trkpt>
      <trkpt lat="43.85618" lon="7.23124">
        <ele>533.59997558594</ele>
        <time>2022-01-13T11:36:04.000Z</time>
      </trkpt>
      <trkpt lat="43.85617" lon="7.23125">
        <ele>533.40002441406</ele>
        <time>2022-01-13T11:36:13.000Z</time>
      </trkpt>
      <trkpt lat="43.85617" lon="7.23125">
        <ele>533.40002441406</ele>
        <time>2022-01-13T11:36:23.000Z</time>
      </trkpt>
      <trkpt lat="43.85616" lon="7.23124">
        <ele>533.20001220703</ele>
        <time>2022-01-13T11:36:37.000Z</time>
      </trkpt>
      <trkpt lat="43.85616" lon="7.23123">
        <ele>533.20001220703</ele>
        <time>2022-01-13T11:36:53.000Z</time>
      </trkpt>
      <trkpt lat="43.85616" lon="7.23122">
        <ele>533.20001220703</ele>
        <time>2022-01-13T11:37:02.000Z</time>
      </trkpt>
      <trkpt lat="43.85616" lon="7.23122">
        <ele>533.20001220703</ele>
        <time>2022-01-13T11:37:22.000Z</time>
      </trkpt>
      <trkpt lat="43.85615" lon="7.23124">
        <ele>533.20001220703</ele>
        <time>2022-01-13T11:37:41.000Z</time>
      </trkpt>
      <trkpt lat="43.85615" lon="7.23125">
        <ele>533.40002441406</ele>
        <time>2022-01-13T11:37:54.000Z</time>
      </trkpt>
      <trkpt lat="43.85615" lon="7.23124">
        <ele>533.40002441406</ele>
        <time>2022-01-13T11:38:09.000Z</time>
      </trkpt>
      <trkpt lat="43.85616" lon="7.23123">
        <ele>533.40002441406</ele>
        <time>2022-01-13T11:38:23.000Z</time>
      </trkpt>
      <trkpt lat="43.85615" lon="7.23122">
        <ele>533.40002441406</ele>
        <time>2022-01-13T11:38:32.000Z</time>
      </trkpt>
      <trkpt lat="43.85614" lon="7.23121">
        <ele>533.40002441406</ele>
        <time>2022-01-13T11:38:43.000Z</time>
      </trkpt>
      <trkpt lat="43.85615" lon="7.23122">
        <ele>533.20001220703</ele>
        <time>2022-01-13T11:38:50.000Z</time>
      </trkpt>
      <trkpt lat="43.85615" lon="7.23121">
        <ele>533.20001220703</ele>
        <time>2022-01-13T11:38:58.000Z</time>
      </trkpt>
      <trkpt lat="43.85615" lon="7.2312">
        <ele>533.20001220703</ele>
        <time>2022-01-13T11:39:10.000Z</time>
      </trkpt>
      <trkpt lat="43.85614" lon="7.2312">
        <ele>533.40002441406</ele>
        <time>2022-01-13T11:39:30.000Z</time>
      </trkpt>
      <trkpt lat="43.85614" lon="7.2312">
        <ele>533.20001220703</ele>
        <time>2022-01-13T11:39:40.000Z</time>
      </trkpt>
      <trkpt lat="43.85614" lon="7.2312">
        <ele>533.40002441406</ele>
        <time>2022-01-13T11:39:48.000Z</time>
      </trkpt>
      <trkpt lat="43.85613" lon="7.23121">
        <ele>533.20001220703</ele>
        <time>2022-01-13T11:39:57.000Z</time>
      </trkpt>
      <trkpt lat="43.85613" lon="7.23122">
        <ele>533.40002441406</ele>
        <time>2022-01-13T11:40:14.000Z</time>
      </trkpt>
      <trkpt lat="43.85613" lon="7.23123">
        <ele>533.40002441406</ele>
        <time>2022-01-13T11:40:26.000Z</time>
      </trkpt>
      <trkpt lat="43.85614" lon="7.23124">
        <ele>533.20001220703</ele>
        <time>2022-01-13T11:40:42.000Z</time>
      </trkpt>
      <trkpt lat="43.85615" lon="7.23124">
        <ele>533.40002441406</ele>
        <time>2022-01-13T11:40:56.000Z</time>
      </trkpt>
      <trkpt lat="43.85614" lon="7.23125">
        <ele>533.40002441406</ele>
        <time>2022-01-13T11:41:10.000Z</time>
      </trkpt>
      <trkpt lat="43.85614" lon="7.23126">
        <ele>533.20001220703</ele>
        <time>2022-01-13T11:41:25.000Z</time>
      </trkpt>
      <trkpt lat="43.85615" lon="7.23125">
        <ele>533.20001220703</ele>
        <time>2022-01-13T11:41:33.000Z</time>
      </trkpt>
      <trkpt lat="43.85613" lon="7.23125">
        <ele>533.40002441406</ele>
        <time>2022-01-13T11:41:45.000Z</time>
      </trkpt>
      <trkpt lat="43.85615" lon="7.23123">
        <ele>533.20001220703</ele>
        <time>2022-01-13T11:42:01.000Z</time>
      </trkpt>
      <trkpt lat="43.85616" lon="7.23122">
        <ele>533.40002441406</ele>
        <time>2022-01-13T11:42:16.000Z</time>
      </trkpt>
      <trkpt lat="43.85616" lon="7.23122">
        <ele>533.20001220703</ele>
        <time>2022-01-13T11:42:26.000Z</time>
      </trkpt>
      <trkpt lat="43.85616" lon="7.23122">
        <ele>533.20001220703</ele>
        <time>2022-01-13T11:42:37.000Z</time>
      </trkpt>
      <trkpt lat="43.85617" lon="7.23121">
        <ele>533.40002441406</ele>
        <time>2022-01-13T11:42:53.000Z</time>
      </trkpt>
      <trkpt lat="43.85616" lon="7.23122">
        <ele>533.40002441406</ele>
        <time>2022-01-13T11:43:05.000Z</time>
      </trkpt>
      <trkpt lat="43.85616" lon="7.23121">
        <ele>533.59997558594</ele>
        <time>2022-01-13T11:43:14.000Z</time>
      </trkpt>
      <trkpt lat="43.85615" lon="7.23121">
        <ele>533.59997558594</ele>
        <time>2022-01-13T11:43:27.000Z</time>
      </trkpt>
      <trkpt lat="43.85615" lon="7.23121">
        <ele>533.59997558594</ele>
        <time>2022-01-13T11:43:35.000Z</time>
      </trkpt>
      <trkpt lat="43.85615" lon="7.23121">
        <ele>533.79998779297</ele>
        <time>2022-01-13T11:43:36.000Z</time>
      </trkpt>
      <trkpt lat="43.85615" lon="7.2312">
        <ele>533.79998779297</ele>
        <time>2022-01-13T11:43:48.000Z</time>
      </trkpt>
      <trkpt lat="43.85615" lon="7.23121">
        <ele>533.59997558594</ele>
        <time>2022-01-13T11:44:00.000Z</time>
      </trkpt>
      <trkpt lat="43.85614" lon="7.23122">
        <ele>533.79998779297</ele>
        <time>2022-01-13T11:44:14.000Z</time>
      </trkpt>
      <trkpt lat="43.85615" lon="7.23121">
        <ele>533.79998779297</ele>
        <time>2022-01-13T11:44:23.000Z</time>
      </trkpt>
      <trkpt lat="43.85617" lon="7.2312">
        <ele>534.20001220703</ele>
        <time>2022-01-13T11:44:43.000Z</time>
      </trkpt>
      <trkpt lat="43.85616" lon="7.23121">
        <ele>534</ele>
        <time>2022-01-13T11:45:02.000Z</time>
      </trkpt>
      <trkpt lat="43.85615" lon="7.23122">
        <ele>533.79998779297</ele>
        <time>2022-01-13T11:45:15.000Z</time>
      </trkpt>
      <trkpt lat="43.85615" lon="7.23122">
        <ele>534</ele>
        <time>2022-01-13T11:45:26.000Z</time>
      </trkpt>
      <trkpt lat="43.85614" lon="7.23125">
        <ele>534.20001220703</ele>
        <time>2022-01-13T11:45:40.000Z</time>
      </trkpt>
      <trkpt lat="43.85615" lon="7.23124">
        <ele>534.20001220703</ele>
        <time>2022-01-13T11:45:49.000Z</time>
      </trkpt>
      <trkpt lat="43.85615" lon="7.23124">
        <ele>534</ele>
        <time>2022-01-13T11:46:00.000Z</time>
      </trkpt>
      <trkpt lat="43.85615" lon="7.23123">
        <ele>533.79998779297</ele>
        <time>2022-01-13T11:46:13.000Z</time>
      </trkpt>
      <trkpt lat="43.85614" lon="7.23124">
        <ele>534</ele>
        <time>2022-01-13T11:46:25.000Z</time>
      </trkpt>
      <trkpt lat="43.85615" lon="7.23125">
        <ele>533.79998779297</ele>
        <time>2022-01-13T11:46:33.000Z</time>
      </trkpt>
      <trkpt lat="43.85618" lon="7.23124">
        <ele>533.59997558594</ele>
        <time>2022-01-13T11:46:42.000Z</time>
      </trkpt>
      <trkpt lat="43.8562" lon="7.23123">
        <ele>533.79998779297</ele>
        <time>2022-01-13T11:46:53.000Z</time>
      </trkpt>
      <trkpt lat="43.8562" lon="7.23124">
        <ele>533.79998779297</ele>
        <time>2022-01-13T11:47:10.000Z</time>
      </trkpt>
      <trkpt lat="43.8562" lon="7.23124">
        <ele>534.20001220703</ele>
        <time>2022-01-13T11:47:23.000Z</time>
      </trkpt>
      <trkpt lat="43.8562" lon="7.23125">
        <ele>534</ele>
        <time>2022-01-13T11:47:30.000Z</time>
      </trkpt>
      <trkpt lat="43.8562" lon="7.23125">
        <ele>533.79998779297</ele>
        <time>2022-01-13T11:47:41.000Z</time>
      </trkpt>
      <trkpt lat="43.85619" lon="7.23125">
        <ele>534.20001220703</ele>
        <time>2022-01-13T11:47:51.000Z</time>
      </trkpt>
      <trkpt lat="43.85619" lon="7.23125">
        <ele>534</ele>
        <time>2022-01-13T11:48:00.000Z</time>
      </trkpt>
      <trkpt lat="43.85619" lon="7.23126">
        <ele>533.79998779297</ele>
        <time>2022-01-13T11:48:07.000Z</time>
      </trkpt>
      <trkpt lat="43.85622" lon="7.23126">
        <ele>533.59997558594</ele>
        <time>2022-01-13T11:48:13.000Z</time>
      </trkpt>
      <trkpt lat="43.85628" lon="7.23123">
        <ele>534.20001220703</ele>
        <time>2022-01-13T11:48:20.000Z</time>
      </trkpt>
      <trkpt lat="43.85631" lon="7.2312">
        <ele>534</ele>
        <time>2022-01-13T11:48:27.000Z</time>
      </trkpt>
      <trkpt lat="43.85633" lon="7.2312">
        <ele>534.59997558594</ele>
        <time>2022-01-13T11:48:35.000Z</time>
      </trkpt>
      <trkpt lat="43.85635" lon="7.23119">
        <ele>533.79998779297</ele>
        <time>2022-01-13T11:48:43.000Z</time>
      </trkpt>
      <trkpt lat="43.85635" lon="7.2312">
        <ele>534.20001220703</ele>
        <time>2022-01-13T11:48:48.000Z</time>
      </trkpt>
      <trkpt lat="43.85634" lon="7.23121">
        <ele>534</ele>
        <time>2022-01-13T11:48:50.000Z</time>
      </trkpt>
      <trkpt lat="43.85629" lon="7.2312">
        <ele>534</ele>
        <time>2022-01-13T11:48:53.000Z</time>
      </trkpt>
      <trkpt lat="43.85625" lon="7.23121">
        <ele>534.20001220703</ele>
        <time>2022-01-13T11:48:55.000Z</time>
      </trkpt>
      <trkpt lat="43.85616" lon="7.23124">
        <ele>534</ele>
        <time>2022-01-13T11:48:59.000Z</time>
      </trkpt>
      <trkpt lat="43.85598" lon="7.23133">
        <ele>534.20001220703</ele>
        <time>2022-01-13T11:49:05.000Z</time>
      </trkpt>
      <trkpt lat="43.85576" lon="7.23148">
        <ele>533.79998779297</ele>
        <time>2022-01-13T11:49:12.000Z</time>
      </trkpt>
      <trkpt lat="43.85545" lon="7.23169">
        <ele>534.20001220703</ele>
        <time>2022-01-13T11:49:21.000Z</time>
      </trkpt>
      <trkpt lat="43.85525" lon="7.23184">
        <ele>534.40002441406</ele>
        <time>2022-01-13T11:49:27.000Z</time>
      </trkpt>
      <trkpt lat="43.85496" lon="7.23205">
        <ele>534.59997558594</ele>
        <time>2022-01-13T11:49:36.000Z</time>
      </trkpt>
      <trkpt lat="43.85489" lon="7.23209">
        <ele>534.79998779297</ele>
        <time>2022-01-13T11:49:38.000Z</time>
      </trkpt>
      <trkpt lat="43.85469" lon="7.23223">
        <ele>535</ele>
        <time>2022-01-13T11:49:44.000Z</time>
      </trkpt>
      <trkpt lat="43.85444" lon="7.23242">
        <ele>535.59997558594</ele>
        <time>2022-01-13T11:49:52.000Z</time>
      </trkpt>
      <trkpt lat="43.8543" lon="7.23253">
        <ele>535.79998779297</ele>
        <time>2022-01-13T11:49:57.000Z</time>
      </trkpt>
      <trkpt lat="43.85424" lon="7.23258">
        <ele>536</ele>
        <time>2022-01-13T11:49:59.000Z</time>
      </trkpt>
      <trkpt lat="43.85399" lon="7.23274">
        <ele>536.20001220703</ele>
        <time>2022-01-13T11:50:07.000Z</time>
      </trkpt>
      <trkpt lat="43.8538" lon="7.23291">
        <ele>536.79998779297</ele>
        <time>2022-01-13T11:50:13.000Z</time>
      </trkpt>
      <trkpt lat="43.85375" lon="7.23299">
        <ele>536.79998779297</ele>
        <time>2022-01-13T11:50:15.000Z</time>
      </trkpt>
      <trkpt lat="43.85363" lon="7.23318">
        <ele>537.20001220703</ele>
        <time>2022-01-13T11:50:20.000Z</time>
      </trkpt>
      <trkpt lat="43.85344" lon="7.23346">
        <ele>537.20001220703</ele>
        <time>2022-01-13T11:50:27.000Z</time>
      </trkpt>
      <trkpt lat="43.85324" lon="7.23373">
        <ele>537.40002441406</ele>
        <time>2022-01-13T11:50:34.000Z</time>
      </trkpt>
      <trkpt lat="43.85302" lon="7.23406">
        <ele>537.40002441406</ele>
        <time>2022-01-13T11:50:44.000Z</time>
      </trkpt>
      <trkpt lat="43.85275" lon="7.23434">
        <ele>537.79998779297</ele>
        <time>2022-01-13T11:50:52.000Z</time>
      </trkpt>
      <trkpt lat="43.85269" lon="7.23438">
        <ele>538</ele>
        <time>2022-01-13T11:50:54.000Z</time>
      </trkpt>
      <trkpt lat="43.85257" lon="7.23447">
        <ele>538.20001220703</ele>
        <time>2022-01-13T11:50:58.000Z</time>
      </trkpt>
      <trkpt lat="43.85239" lon="7.2346">
        <ele>539</ele>
        <time>2022-01-13T11:51:05.000Z</time>
      </trkpt>
      <trkpt lat="43.85225" lon="7.23476">
        <ele>540.20001220703</ele>
        <time>2022-01-13T11:51:10.000Z</time>
      </trkpt>
      <trkpt lat="43.85223" lon="7.2348">
        <ele>540.20001220703</ele>
        <time>2022-01-13T11:51:11.000Z</time>
      </trkpt>
      <trkpt lat="43.85212" lon="7.23498">
        <ele>541.40002441406</ele>
        <time>2022-01-13T11:51:16.000Z</time>
      </trkpt>
      <trkpt lat="43.85205" lon="7.23511">
        <ele>542.40002441406</ele>
        <time>2022-01-13T11:51:20.000Z</time>
      </trkpt>
      <trkpt lat="43.85204" lon="7.23515">
        <ele>542.59997558594</ele>
        <time>2022-01-13T11:51:21.000Z</time>
      </trkpt>
      <trkpt lat="43.85197" lon="7.23526">
        <ele>543.40002441406</ele>
        <time>2022-01-13T11:51:25.000Z</time>
      </trkpt>
      <trkpt lat="43.85194" lon="7.23532">
        <ele>543.79998779297</ele>
        <time>2022-01-13T11:51:27.000Z</time>
      </trkpt>
      <trkpt lat="43.85188" lon="7.23542">
        <ele>544.59997558594</ele>
        <time>2022-01-13T11:51:31.000Z</time>
      </trkpt>
      <trkpt lat="43.85182" lon="7.2355">
        <ele>545</ele>
        <time>2022-01-13T11:51:34.000Z</time>
      </trkpt>
      <trkpt lat="43.85176" lon="7.23558">
        <ele>545.59997558594</ele>
        <time>2022-01-13T11:51:37.000Z</time>
      </trkpt>
      <trkpt lat="43.85167" lon="7.23573">
        <ele>546.59997558594</ele>
        <time>2022-01-13T11:51:42.000Z</time>
      </trkpt>
      <trkpt lat="43.85156" lon="7.23585">
        <ele>547.79998779297</ele>
        <time>2022-01-13T11:51:47.000Z</time>
      </trkpt>
      <trkpt lat="43.85148" lon="7.23591">
        <ele>548.20001220703</ele>
        <time>2022-01-13T11:51:50.000Z</time>
      </trkpt>
      <trkpt lat="43.85137" lon="7.23598">
        <ele>548.79998779297</ele>
        <time>2022-01-13T11:51:54.000Z</time>
      </trkpt>
      <trkpt lat="43.85129" lon="7.23601">
        <ele>549.40002441406</ele>
        <time>2022-01-13T11:51:57.000Z</time>
      </trkpt>
      <trkpt lat="43.85121" lon="7.23604">
        <ele>550</ele>
        <time>2022-01-13T11:52:00.000Z</time>
      </trkpt>
      <trkpt lat="43.85109" lon="7.23611">
        <ele>551</ele>
        <time>2022-01-13T11:52:05.000Z</time>
      </trkpt>
      <trkpt lat="43.85106" lon="7.23613">
        <ele>551.20001220703</ele>
        <time>2022-01-13T11:52:06.000Z</time>
      </trkpt>
      <trkpt lat="43.85093" lon="7.2362">
        <ele>552.20001220703</ele>
        <time>2022-01-13T11:52:12.000Z</time>
      </trkpt>
      <trkpt lat="43.85091" lon="7.23622">
        <ele>552.59997558594</ele>
        <time>2022-01-13T11:52:13.000Z</time>
      </trkpt>
      <trkpt lat="43.85091" lon="7.23624">
        <ele>552.79998779297</ele>
        <time>2022-01-13T11:52:14.000Z</time>
      </trkpt>
      <trkpt lat="43.85091" lon="7.2363">
        <ele>553.20001220703</ele>
        <time>2022-01-13T11:52:16.000Z</time>
      </trkpt>
      <trkpt lat="43.85093" lon="7.23632">
        <ele>553.40002441406</ele>
        <time>2022-01-13T11:52:17.000Z</time>
      </trkpt>
      <trkpt lat="43.85099" lon="7.23632">
        <ele>553.40002441406</ele>
        <time>2022-01-13T11:52:20.000Z</time>
      </trkpt>
      <trkpt lat="43.85101" lon="7.23633">
        <ele>553.59997558594</ele>
        <time>2022-01-13T11:52:21.000Z</time>
      </trkpt>
      <trkpt lat="43.85105" lon="7.23637">
        <ele>554.40002441406</ele>
        <time>2022-01-13T11:52:24.000Z</time>
      </trkpt>
      <trkpt lat="43.8511" lon="7.23642">
        <ele>555.20001220703</ele>
        <time>2022-01-13T11:52:27.000Z</time>
      </trkpt>
      <trkpt lat="43.85112" lon="7.23647">
        <ele>555.59997558594</ele>
        <time>2022-01-13T11:52:29.000Z</time>
      </trkpt>
      <trkpt lat="43.85117" lon="7.23656">
        <ele>556.59997558594</ele>
        <time>2022-01-13T11:52:33.000Z</time>
      </trkpt>
      <trkpt lat="43.85119" lon="7.23661">
        <ele>557.20001220703</ele>
        <time>2022-01-13T11:52:35.000Z</time>
      </trkpt>
      <trkpt lat="43.85122" lon="7.23666">
        <ele>558</ele>
        <time>2022-01-13T11:52:37.000Z</time>
      </trkpt>
      <trkpt lat="43.85127" lon="7.23674">
        <ele>559.20001220703</ele>
        <time>2022-01-13T11:52:41.000Z</time>
      </trkpt>
      <trkpt lat="43.85127" lon="7.23677">
        <ele>559.40002441406</ele>
        <time>2022-01-13T11:52:42.000Z</time>
      </trkpt>
      <trkpt lat="43.8513" lon="7.23683">
        <ele>560.20001220703</ele>
        <time>2022-01-13T11:52:45.000Z</time>
      </trkpt>
      <trkpt lat="43.85135" lon="7.2369">
        <ele>561.20001220703</ele>
        <time>2022-01-13T11:52:49.000Z</time>
      </trkpt>
      <trkpt lat="43.85136" lon="7.23693">
        <ele>561.40002441406</ele>
        <time>2022-01-13T11:52:50.000Z</time>
      </trkpt>
      <trkpt lat="43.85139" lon="7.23701">
        <ele>562.20001220703</ele>
        <time>2022-01-13T11:52:53.000Z</time>
      </trkpt>
      <trkpt lat="43.85144" lon="7.23712">
        <ele>563.20001220703</ele>
        <time>2022-01-13T11:52:57.000Z</time>
      </trkpt>
      <trkpt lat="43.85145" lon="7.23715">
        <ele>563.40002441406</ele>
        <time>2022-01-13T11:52:58.000Z</time>
      </trkpt>
      <trkpt lat="43.8515" lon="7.23725">
        <ele>564.59997558594</ele>
        <time>2022-01-13T11:53:02.000Z</time>
      </trkpt>
      <trkpt lat="43.85155" lon="7.23735">
        <ele>565.59997558594</ele>
        <time>2022-01-13T11:53:06.000Z</time>
      </trkpt>
      <trkpt lat="43.85158" lon="7.2374">
        <ele>566.20001220703</ele>
        <time>2022-01-13T11:53:08.000Z</time>
      </trkpt>
      <trkpt lat="43.85163" lon="7.23745">
        <ele>566.79998779297</ele>
        <time>2022-01-13T11:53:11.000Z</time>
      </trkpt>
      <trkpt lat="43.8517" lon="7.23751">
        <ele>567.40002441406</ele>
        <time>2022-01-13T11:53:15.000Z</time>
      </trkpt>
      <trkpt lat="43.85176" lon="7.23756">
        <ele>567.79998779297</ele>
        <time>2022-01-13T11:53:18.000Z</time>
      </trkpt>
      <trkpt lat="43.85186" lon="7.23765">
        <ele>568.59997558594</ele>
        <time>2022-01-13T11:53:24.000Z</time>
      </trkpt>
      <trkpt lat="43.85187" lon="7.23767">
        <ele>568.79998779297</ele>
        <time>2022-01-13T11:53:25.000Z</time>
      </trkpt>
      <trkpt lat="43.85198" lon="7.23772">
        <ele>569.59997558594</ele>
        <time>2022-01-13T11:53:30.000Z</time>
      </trkpt>
      <trkpt lat="43.85211" lon="7.2378">
        <ele>569.79998779297</ele>
        <time>2022-01-13T11:53:35.000Z</time>
      </trkpt>
      <trkpt lat="43.85214" lon="7.23789">
        <ele>569.79998779297</ele>
        <time>2022-01-13T11:53:38.000Z</time>
      </trkpt>
      <trkpt lat="43.85215" lon="7.23796">
        <ele>570</ele>
        <time>2022-01-13T11:53:40.000Z</time>
      </trkpt>
      <trkpt lat="43.85217" lon="7.23832">
        <ele>570.20001220703</ele>
        <time>2022-01-13T11:53:50.000Z</time>
      </trkpt>
      <trkpt lat="43.8522" lon="7.23866">
        <ele>570.40002441406</ele>
        <time>2022-01-13T11:53:59.000Z</time>
      </trkpt>
      <trkpt lat="43.85224" lon="7.23897">
        <ele>571</ele>
        <time>2022-01-13T11:54:06.000Z</time>
      </trkpt>
      <trkpt lat="43.85226" lon="7.23906">
        <ele>571.20001220703</ele>
        <time>2022-01-13T11:54:08.000Z</time>
      </trkpt>
      <trkpt lat="43.85229" lon="7.23934">
        <ele>569.59997558594</ele>
        <time>2022-01-13T11:54:13.000Z</time>
      </trkpt>
      <trkpt lat="43.85231" lon="7.23946">
        <ele>569.20001220703</ele>
        <time>2022-01-13T11:54:15.000Z</time>
      </trkpt>
      <trkpt lat="43.85236" lon="7.23977">
        <ele>568.40002441406</ele>
        <time>2022-01-13T11:54:20.000Z</time>
      </trkpt>
      <trkpt lat="43.85237" lon="7.23996">
        <ele>567.79998779297</ele>
        <time>2022-01-13T11:54:23.000Z</time>
      </trkpt>
      <trkpt lat="43.85233" lon="7.24008">
        <ele>567.40002441406</ele>
        <time>2022-01-13T11:54:25.000Z</time>
      </trkpt>
      <trkpt lat="43.8523" lon="7.24012">
        <ele>567.20001220703</ele>
        <time>2022-01-13T11:54:26.000Z</time>
      </trkpt>
      <trkpt lat="43.85223" lon="7.2402">
        <ele>567</ele>
        <time>2022-01-13T11:54:28.000Z</time>
      </trkpt>
      <trkpt lat="43.85212" lon="7.24036">
        <ele>567</ele>
        <time>2022-01-13T11:54:32.000Z</time>
      </trkpt>
      <trkpt lat="43.85193" lon="7.24058">
        <ele>568.59997558594</ele>
        <time>2022-01-13T11:54:39.000Z</time>
      </trkpt>
      <trkpt lat="43.85188" lon="7.24065">
        <ele>569.40002441406</ele>
        <time>2022-01-13T11:54:41.000Z</time>
      </trkpt>
      <trkpt lat="43.85186" lon="7.24069">
        <ele>569.79998779297</ele>
        <time>2022-01-13T11:54:42.000Z</time>
      </trkpt>
      <trkpt lat="43.8518" lon="7.24079">
        <ele>571</ele>
        <time>2022-01-13T11:54:45.000Z</time>
      </trkpt>
      <trkpt lat="43.85175" lon="7.24092">
        <ele>572</ele>
        <time>2022-01-13T11:54:48.000Z</time>
      </trkpt>
      <trkpt lat="43.8517" lon="7.24109">
        <ele>573.20001220703</ele>
        <time>2022-01-13T11:54:52.000Z</time>
      </trkpt>
      <trkpt lat="43.85165" lon="7.24125">
        <ele>574.20001220703</ele>
        <time>2022-01-13T11:54:56.000Z</time>
      </trkpt>
      <trkpt lat="43.85163" lon="7.24129">
        <ele>574.79998779297</ele>
        <time>2022-01-13T11:54:57.000Z</time>
      </trkpt>
      <trkpt lat="43.8516" lon="7.24136">
        <ele>575.79998779297</ele>
        <time>2022-01-13T11:54:59.000Z</time>
      </trkpt>
      <trkpt lat="43.85156" lon="7.24148">
        <ele>577</ele>
        <time>2022-01-13T11:55:02.000Z</time>
      </trkpt>
      <trkpt lat="43.85154" lon="7.24156">
        <ele>577.59997558594</ele>
        <time>2022-01-13T11:55:04.000Z</time>
      </trkpt>
      <trkpt lat="43.85153" lon="7.24159">
        <ele>578</ele>
        <time>2022-01-13T11:55:05.000Z</time>
      </trkpt>
      <trkpt lat="43.85149" lon="7.24173">
        <ele>579.20001220703</ele>
        <time>2022-01-13T11:55:09.000Z</time>
      </trkpt>
      <trkpt lat="43.85145" lon="7.24183">
        <ele>579.59997558594</ele>
        <time>2022-01-13T11:55:12.000Z</time>
      </trkpt>
      <trkpt lat="43.85141" lon="7.24196">
        <ele>580.20001220703</ele>
        <time>2022-01-13T11:55:16.000Z</time>
      </trkpt>
      <trkpt lat="43.85137" lon="7.24209">
        <ele>581</ele>
        <time>2022-01-13T11:55:20.000Z</time>
      </trkpt>
      <trkpt lat="43.85136" lon="7.24218">
        <ele>581.20001220703</ele>
        <time>2022-01-13T11:55:22.000Z</time>
      </trkpt>
      <trkpt lat="43.85136" lon="7.24249">
        <ele>582.40002441406</ele>
        <time>2022-01-13T11:55:30.000Z</time>
      </trkpt>
      <trkpt lat="43.85137" lon="7.24254">
        <ele>582.40002441406</ele>
        <time>2022-01-13T11:55:31.000Z</time>
      </trkpt>
      <trkpt lat="43.85142" lon="7.24287">
        <ele>583.40002441406</ele>
        <time>2022-01-13T11:55:39.000Z</time>
      </trkpt>
      <trkpt lat="43.85145" lon="7.243">
        <ele>583.59997558594</ele>
        <time>2022-01-13T11:55:42.000Z</time>
      </trkpt>
      <trkpt lat="43.85149" lon="7.24326">
        <ele>584.40002441406</ele>
        <time>2022-01-13T11:55:48.000Z</time>
      </trkpt>
      <trkpt lat="43.85152" lon="7.24347">
        <ele>585.40002441406</ele>
        <time>2022-01-13T11:55:53.000Z</time>
      </trkpt>
      <trkpt lat="43.85155" lon="7.24365">
        <ele>586.40002441406</ele>
        <time>2022-01-13T11:55:57.000Z</time>
      </trkpt>
      <trkpt lat="43.85159" lon="7.24387">
        <ele>587.59997558594</ele>
        <time>2022-01-13T11:56:02.000Z</time>
      </trkpt>
      <trkpt lat="43.85163" lon="7.24406">
        <ele>588.79998779297</ele>
        <time>2022-01-13T11:56:07.000Z</time>
      </trkpt>
      <trkpt lat="43.85166" lon="7.24417">
        <ele>589.79998779297</ele>
        <time>2022-01-13T11:56:10.000Z</time>
      </trkpt>
      <trkpt lat="43.85169" lon="7.24427">
        <ele>590.79998779297</ele>
        <time>2022-01-13T11:56:13.000Z</time>
      </trkpt>
      <trkpt lat="43.85172" lon="7.24434">
        <ele>591.40002441406</ele>
        <time>2022-01-13T11:56:15.000Z</time>
      </trkpt>
      <trkpt lat="43.85175" lon="7.24441">
        <ele>592.20001220703</ele>
        <time>2022-01-13T11:56:17.000Z</time>
      </trkpt>
      <trkpt lat="43.85183" lon="7.24461">
        <ele>593.20001220703</ele>
        <time>2022-01-13T11:56:23.000Z</time>
      </trkpt>
      <trkpt lat="43.85186" lon="7.24467">
        <ele>593.79998779297</ele>
        <time>2022-01-13T11:56:25.000Z</time>
      </trkpt>
      <trkpt lat="43.85188" lon="7.24473">
        <ele>594.40002441406</ele>
        <time>2022-01-13T11:56:27.000Z</time>
      </trkpt>
      <trkpt lat="43.85191" lon="7.24483">
        <ele>595.79998779297</ele>
        <time>2022-01-13T11:56:30.000Z</time>
      </trkpt>
      <trkpt lat="43.85194" lon="7.24493">
        <ele>596.79998779297</ele>
        <time>2022-01-13T11:56:33.000Z</time>
      </trkpt>
      <trkpt lat="43.85195" lon="7.24496">
        <ele>597.20001220703</ele>
        <time>2022-01-13T11:56:34.000Z</time>
      </trkpt>
      <trkpt lat="43.85198" lon="7.24505">
        <ele>598</ele>
        <time>2022-01-13T11:56:37.000Z</time>
      </trkpt>
      <trkpt lat="43.85204" lon="7.24518">
        <ele>599</ele>
        <time>2022-01-13T11:56:42.000Z</time>
      </trkpt>
      <trkpt lat="43.85205" lon="7.24527">
        <ele>600.20001220703</ele>
        <time>2022-01-13T11:56:45.000Z</time>
      </trkpt>
      <trkpt lat="43.85207" lon="7.24535">
        <ele>601.20001220703</ele>
        <time>2022-01-13T11:56:48.000Z</time>
      </trkpt>
      <trkpt lat="43.85208" lon="7.24538">
        <ele>601.59997558594</ele>
        <time>2022-01-13T11:56:49.000Z</time>
      </trkpt>
      <trkpt lat="43.8521" lon="7.24547">
        <ele>602.40002441406</ele>
        <time>2022-01-13T11:56:52.000Z</time>
      </trkpt>
      <trkpt lat="43.85213" lon="7.2456">
        <ele>603.40002441406</ele>
        <time>2022-01-13T11:56:56.000Z</time>
      </trkpt>
      <trkpt lat="43.85213" lon="7.24569">
        <ele>604.20001220703</ele>
        <time>2022-01-13T11:56:59.000Z</time>
      </trkpt>
      <trkpt lat="43.85214" lon="7.24572">
        <ele>604.40002441406</ele>
        <time>2022-01-13T11:57:00.000Z</time>
      </trkpt>
      <trkpt lat="43.85212" lon="7.24588">
        <ele>605.59997558594</ele>
        <time>2022-01-13T11:57:05.000Z</time>
      </trkpt>
      <trkpt lat="43.85212" lon="7.24595">
        <ele>606</ele>
        <time>2022-01-13T11:57:07.000Z</time>
      </trkpt>
      <trkpt lat="43.85211" lon="7.24602">
        <ele>606.59997558594</ele>
        <time>2022-01-13T11:57:09.000Z</time>
      </trkpt>
      <trkpt lat="43.85209" lon="7.24615">
        <ele>607.79998779297</ele>
        <time>2022-01-13T11:57:13.000Z</time>
      </trkpt>
      <trkpt lat="43.85209" lon="7.24619">
        <ele>608</ele>
        <time>2022-01-13T11:57:14.000Z</time>
      </trkpt>
      <trkpt lat="43.85206" lon="7.24629">
        <ele>609</ele>
        <time>2022-01-13T11:57:17.000Z</time>
      </trkpt>
      <trkpt lat="43.85201" lon="7.24642">
        <ele>610.20001220703</ele>
        <time>2022-01-13T11:57:21.000Z</time>
      </trkpt>
      <trkpt lat="43.85199" lon="7.24645">
        <ele>610.40002441406</ele>
        <time>2022-01-13T11:57:22.000Z</time>
      </trkpt>
      <trkpt lat="43.85191" lon="7.24656">
        <ele>611.40002441406</ele>
        <time>2022-01-13T11:57:26.000Z</time>
      </trkpt>
      <trkpt lat="43.85182" lon="7.2467">
        <ele>612</ele>
        <time>2022-01-13T11:57:31.000Z</time>
      </trkpt>
      <trkpt lat="43.85177" lon="7.24679">
        <ele>612.40002441406</ele>
        <time>2022-01-13T11:57:34.000Z</time>
      </trkpt>
      <trkpt lat="43.8517" lon="7.24699">
        <ele>613.40002441406</ele>
        <time>2022-01-13T11:57:40.000Z</time>
      </trkpt>
      <trkpt lat="43.85169" lon="7.24702">
        <ele>613.59997558594</ele>
        <time>2022-01-13T11:57:41.000Z</time>
      </trkpt>
      <trkpt lat="43.85164" lon="7.24712">
        <ele>614.79998779297</ele>
        <time>2022-01-13T11:57:45.000Z</time>
      </trkpt>
      <trkpt lat="43.85163" lon="7.24715">
        <ele>615.20001220703</ele>
        <time>2022-01-13T11:57:46.000Z</time>
      </trkpt>
      <trkpt lat="43.85161" lon="7.24721">
        <ele>616</ele>
        <time>2022-01-13T11:57:48.000Z</time>
      </trkpt>
      <trkpt lat="43.85158" lon="7.2473">
        <ele>617</ele>
        <time>2022-01-13T11:57:51.000Z</time>
      </trkpt>
      <trkpt lat="43.85154" lon="7.2474">
        <ele>618.20001220703</ele>
        <time>2022-01-13T11:57:54.000Z</time>
      </trkpt>
      <trkpt lat="43.85153" lon="7.24744">
        <ele>618.59997558594</ele>
        <time>2022-01-13T11:57:55.000Z</time>
      </trkpt>
      <trkpt lat="43.8515" lon="7.2475">
        <ele>619.59997558594</ele>
        <time>2022-01-13T11:57:57.000Z</time>
      </trkpt>
      <trkpt lat="43.85146" lon="7.2476">
        <ele>620.79998779297</ele>
        <time>2022-01-13T11:58:00.000Z</time>
      </trkpt>
      <trkpt lat="43.85141" lon="7.24772">
        <ele>621.79998779297</ele>
        <time>2022-01-13T11:58:04.000Z</time>
      </trkpt>
      <trkpt lat="43.85139" lon="7.24775">
        <ele>622</ele>
        <time>2022-01-13T11:58:05.000Z</time>
      </trkpt>
      <trkpt lat="43.85136" lon="7.24784">
        <ele>623</ele>
        <time>2022-01-13T11:58:08.000Z</time>
      </trkpt>
      <trkpt lat="43.85133" lon="7.24793">
        <ele>624</ele>
        <time>2022-01-13T11:58:11.000Z</time>
      </trkpt>
      <trkpt lat="43.85132" lon="7.248">
        <ele>624.79998779297</ele>
        <time>2022-01-13T11:58:13.000Z</time>
      </trkpt>
      <trkpt lat="43.85131" lon="7.24803">
        <ele>625.20001220703</ele>
        <time>2022-01-13T11:58:14.000Z</time>
      </trkpt>
      <trkpt lat="43.85131" lon="7.24813">
        <ele>626.20001220703</ele>
        <time>2022-01-13T11:58:17.000Z</time>
      </trkpt>
      <trkpt lat="43.85133" lon="7.24823">
        <ele>627.20001220703</ele>
        <time>2022-01-13T11:58:20.000Z</time>
      </trkpt>
      <trkpt lat="43.85136" lon="7.24832">
        <ele>628.40002441406</ele>
        <time>2022-01-13T11:58:23.000Z</time>
      </trkpt>
      <trkpt lat="43.85137" lon="7.24841">
        <ele>629.59997558594</ele>
        <time>2022-01-13T11:58:26.000Z</time>
      </trkpt>
      <trkpt lat="43.85137" lon="7.24844">
        <ele>630</ele>
        <time>2022-01-13T11:58:27.000Z</time>
      </trkpt>
      <trkpt lat="43.85137" lon="7.24851">
        <ele>631</ele>
        <time>2022-01-13T11:58:29.000Z</time>
      </trkpt>
      <trkpt lat="43.85135" lon="7.24857">
        <ele>632</ele>
        <time>2022-01-13T11:58:31.000Z</time>
      </trkpt>
      <trkpt lat="43.85133" lon="7.24862">
        <ele>633</ele>
        <time>2022-01-13T11:58:33.000Z</time>
      </trkpt>
      <trkpt lat="43.8513" lon="7.2487">
        <ele>634.40002441406</ele>
        <time>2022-01-13T11:58:36.000Z</time>
      </trkpt>
      <trkpt lat="43.85124" lon="7.24878">
        <ele>635.40002441406</ele>
        <time>2022-01-13T11:58:39.000Z</time>
      </trkpt>
      <trkpt lat="43.85122" lon="7.2488">
        <ele>635.79998779297</ele>
        <time>2022-01-13T11:58:40.000Z</time>
      </trkpt>
      <trkpt lat="43.85117" lon="7.24884">
        <ele>636.59997558594</ele>
        <time>2022-01-13T11:58:42.000Z</time>
      </trkpt>
      <trkpt lat="43.85111" lon="7.24889">
        <ele>638</ele>
        <time>2022-01-13T11:58:45.000Z</time>
      </trkpt>
      <trkpt lat="43.85103" lon="7.24893">
        <ele>639</ele>
        <time>2022-01-13T11:58:48.000Z</time>
      </trkpt>
      <trkpt lat="43.85094" lon="7.24898">
        <ele>640</ele>
        <time>2022-01-13T11:58:52.000Z</time>
      </trkpt>
      <trkpt lat="43.85086" lon="7.24902">
        <ele>641</ele>
        <time>2022-01-13T11:58:56.000Z</time>
      </trkpt>
      <trkpt lat="43.85084" lon="7.24904">
        <ele>641.20001220703</ele>
        <time>2022-01-13T11:58:57.000Z</time>
      </trkpt>
      <trkpt lat="43.85077" lon="7.24912">
        <ele>642</ele>
        <time>2022-01-13T11:59:01.000Z</time>
      </trkpt>
      <trkpt lat="43.85075" lon="7.24915">
        <ele>642.40002441406</ele>
        <time>2022-01-13T11:59:02.000Z</time>
      </trkpt>
      <trkpt lat="43.85068" lon="7.24924">
        <ele>643.59997558594</ele>
        <time>2022-01-13T11:59:06.000Z</time>
      </trkpt>
      <trkpt lat="43.85067" lon="7.24926">
        <ele>644</ele>
        <time>2022-01-13T11:59:07.000Z</time>
      </trkpt>
      <trkpt lat="43.85063" lon="7.24934">
        <ele>644.59997558594</ele>
        <time>2022-01-13T11:59:10.000Z</time>
      </trkpt>
      <trkpt lat="43.85057" lon="7.24941">
        <ele>645.40002441406</ele>
        <time>2022-01-13T11:59:13.000Z</time>
      </trkpt>
      <trkpt lat="43.85054" lon="7.24944">
        <ele>645.79998779297</ele>
        <time>2022-01-13T11:59:15.000Z</time>
      </trkpt>
      <trkpt lat="43.85049" lon="7.24949">
        <ele>646.40002441406</ele>
        <time>2022-01-13T11:59:18.000Z</time>
      </trkpt>
      <trkpt lat="43.85047" lon="7.2495">
        <ele>646.59997558594</ele>
        <time>2022-01-13T11:59:19.000Z</time>
      </trkpt>
      <trkpt lat="43.85045" lon="7.24951">
        <ele>646.79998779297</ele>
        <time>2022-01-13T11:59:20.000Z</time>
      </trkpt>
      <trkpt lat="43.85036" lon="7.24957">
        <ele>648</ele>
        <time>2022-01-13T11:59:24.000Z</time>
      </trkpt>
      <trkpt lat="43.85032" lon="7.2496">
        <ele>648.40002441406</ele>
        <time>2022-01-13T11:59:26.000Z</time>
      </trkpt>
      <trkpt lat="43.85025" lon="7.24966">
        <ele>649</ele>
        <time>2022-01-13T11:59:29.000Z</time>
      </trkpt>
      <trkpt lat="43.85019" lon="7.24975">
        <ele>650.40002441406</ele>
        <time>2022-01-13T11:59:33.000Z</time>
      </trkpt>
      <trkpt lat="43.85017" lon="7.24978">
        <ele>650.79998779297</ele>
        <time>2022-01-13T11:59:34.000Z</time>
      </trkpt>
      <trkpt lat="43.85013" lon="7.24986">
        <ele>651.40002441406</ele>
        <time>2022-01-13T11:59:37.000Z</time>
      </trkpt>
      <trkpt lat="43.85008" lon="7.24998">
        <ele>652.40002441406</ele>
        <time>2022-01-13T11:59:41.000Z</time>
      </trkpt>
      <trkpt lat="43.85008" lon="7.25001">
        <ele>652.79998779297</ele>
        <time>2022-01-13T11:59:42.000Z</time>
      </trkpt>
      <trkpt lat="43.85004" lon="7.25012">
        <ele>653.59997558594</ele>
        <time>2022-01-13T11:59:46.000Z</time>
      </trkpt>
      <trkpt lat="43.85001" lon="7.25021">
        <ele>654.40002441406</ele>
        <time>2022-01-13T11:59:49.000Z</time>
      </trkpt>
      <trkpt lat="43.84997" lon="7.25025">
        <ele>654.79998779297</ele>
        <time>2022-01-13T11:59:51.000Z</time>
      </trkpt>
      <trkpt lat="43.8499" lon="7.25027">
        <ele>655.20001220703</ele>
        <time>2022-01-13T11:59:54.000Z</time>
      </trkpt>
      <trkpt lat="43.84986" lon="7.25028">
        <ele>655.79998779297</ele>
        <time>2022-01-13T11:59:56.000Z</time>
      </trkpt>
      <trkpt lat="43.84978" lon="7.25028">
        <ele>657.20001220703</ele>
        <time>2022-01-13T12:00:00.000Z</time>
      </trkpt>
      <trkpt lat="43.84976" lon="7.25026">
        <ele>657.59997558594</ele>
        <time>2022-01-13T12:00:01.000Z</time>
      </trkpt>
      <trkpt lat="43.84972" lon="7.25018">
        <ele>658.40002441406</ele>
        <time>2022-01-13T12:00:04.000Z</time>
      </trkpt>
      <trkpt lat="43.84966" lon="7.2501">
        <ele>659</ele>
        <time>2022-01-13T12:00:07.000Z</time>
      </trkpt>
      <trkpt lat="43.84959" lon="7.25005">
        <ele>659.59997558594</ele>
        <time>2022-01-13T12:00:10.000Z</time>
      </trkpt>
      <trkpt lat="43.84949" lon="7.25002">
        <ele>660</ele>
        <time>2022-01-13T12:00:14.000Z</time>
      </trkpt>
      <trkpt lat="43.8494" lon="7.25003">
        <ele>660.59997558594</ele>
        <time>2022-01-13T12:00:18.000Z</time>
      </trkpt>
      <trkpt lat="43.84935" lon="7.25005">
        <ele>661</ele>
        <time>2022-01-13T12:00:20.000Z</time>
      </trkpt>
      <trkpt lat="43.8493" lon="7.25006">
        <ele>661.59997558594</ele>
        <time>2022-01-13T12:00:22.000Z</time>
      </trkpt>
      <trkpt lat="43.84924" lon="7.25007">
        <ele>662.59997558594</ele>
        <time>2022-01-13T12:00:25.000Z</time>
      </trkpt>
      <trkpt lat="43.84922" lon="7.25008">
        <ele>662.79998779297</ele>
        <time>2022-01-13T12:00:26.000Z</time>
      </trkpt>
      <trkpt lat="43.84914" lon="7.2501">
        <ele>664</ele>
        <time>2022-01-13T12:00:30.000Z</time>
      </trkpt>
      <trkpt lat="43.8491" lon="7.25011">
        <ele>664.59997558594</ele>
        <time>2022-01-13T12:00:32.000Z</time>
      </trkpt>
      <trkpt lat="43.84906" lon="7.25012">
        <ele>665.20001220703</ele>
        <time>2022-01-13T12:00:34.000Z</time>
      </trkpt>
      <trkpt lat="43.84899" lon="7.25014">
        <ele>666.59997558594</ele>
        <time>2022-01-13T12:00:38.000Z</time>
      </trkpt>
      <trkpt lat="43.84894" lon="7.25017">
        <ele>667.79998779297</ele>
        <time>2022-01-13T12:00:42.000Z</time>
      </trkpt>
      <trkpt lat="43.84892" lon="7.25017">
        <ele>668</ele>
        <time>2022-01-13T12:00:43.000Z</time>
      </trkpt>
      <trkpt lat="43.84887" lon="7.25017">
        <ele>668.79998779297</ele>
        <time>2022-01-13T12:00:47.000Z</time>
      </trkpt>
      <trkpt lat="43.84883" lon="7.25015">
        <ele>669.40002441406</ele>
        <time>2022-01-13T12:00:50.000Z</time>
      </trkpt>
      <trkpt lat="43.84877" lon="7.25014">
        <ele>670</ele>
        <time>2022-01-13T12:00:53.000Z</time>
      </trkpt>
      <trkpt lat="43.84872" lon="7.25013">
        <ele>670.79998779297</ele>
        <time>2022-01-13T12:00:56.000Z</time>
      </trkpt>
      <trkpt lat="43.8487" lon="7.25013">
        <ele>671.20001220703</ele>
        <time>2022-01-13T12:00:57.000Z</time>
      </trkpt>
      <trkpt lat="43.84862" lon="7.25013">
        <ele>672.20001220703</ele>
        <time>2022-01-13T12:01:01.000Z</time>
      </trkpt>
      <trkpt lat="43.84853" lon="7.25014">
        <ele>673.40002441406</ele>
        <time>2022-01-13T12:01:06.000Z</time>
      </trkpt>
      <trkpt lat="43.84845" lon="7.25016">
        <ele>674.40002441406</ele>
        <time>2022-01-13T12:01:10.000Z</time>
      </trkpt>
      <trkpt lat="43.84836" lon="7.25019">
        <ele>675.59997558594</ele>
        <time>2022-01-13T12:01:14.000Z</time>
      </trkpt>
      <trkpt lat="43.84829" lon="7.25023">
        <ele>677</ele>
        <time>2022-01-13T12:01:18.000Z</time>
      </trkpt>
      <trkpt lat="43.84824" lon="7.25025">
        <ele>677.79998779297</ele>
        <time>2022-01-13T12:01:21.000Z</time>
      </trkpt>
      <trkpt lat="43.84821" lon="7.25026">
        <ele>678.20001220703</ele>
        <time>2022-01-13T12:01:22.000Z</time>
      </trkpt>
      <trkpt lat="43.84815" lon="7.25029">
        <ele>679.20001220703</ele>
        <time>2022-01-13T12:01:25.000Z</time>
      </trkpt>
      <trkpt lat="43.84809" lon="7.25032">
        <ele>680.79998779297</ele>
        <time>2022-01-13T12:01:28.000Z</time>
      </trkpt>
      <trkpt lat="43.84804" lon="7.25035">
        <ele>682</ele>
        <time>2022-01-13T12:01:31.000Z</time>
      </trkpt>
      <trkpt lat="43.84799" lon="7.2504">
        <ele>683.20001220703</ele>
        <time>2022-01-13T12:01:35.000Z</time>
      </trkpt>
      <trkpt lat="43.84791" lon="7.25046">
        <ele>684.40002441406</ele>
        <time>2022-01-13T12:01:42.000Z</time>
      </trkpt>
      <trkpt lat="43.84789" lon="7.25045">
        <ele>684.40002441406</ele>
        <time>2022-01-13T12:01:43.000Z</time>
      </trkpt>
      <trkpt lat="43.84785" lon="7.25042">
        <ele>684.40002441406</ele>
        <time>2022-01-13T12:01:47.000Z</time>
      </trkpt>
      <trkpt lat="43.84784" lon="7.2504">
        <ele>684.40002441406</ele>
        <time>2022-01-13T12:01:49.000Z</time>
      </trkpt>
      <trkpt lat="43.84785" lon="7.25039">
        <ele>684.40002441406</ele>
        <time>2022-01-13T12:01:52.000Z</time>
      </trkpt>
      <trkpt lat="43.84785" lon="7.25039">
        <ele>684.59997558594</ele>
        <time>2022-01-13T12:01:59.000Z</time>
      </trkpt>
      <trkpt lat="43.84783" lon="7.2504">
        <ele>684.79998779297</ele>
        <time>2022-01-13T12:02:22.000Z</time>
      </trkpt>
      <trkpt lat="43.84785" lon="7.25041">
        <ele>684.79998779297</ele>
        <time>2022-01-13T12:02:23.000Z</time>
      </trkpt>
      <trkpt lat="43.84786" lon="7.25042">
        <ele>684.59997558594</ele>
        <time>2022-01-13T12:02:25.000Z</time>
      </trkpt>
      <trkpt lat="43.84788" lon="7.25045">
        <ele>684.59997558594</ele>
        <time>2022-01-13T12:02:27.000Z</time>
      </trkpt>
      <trkpt lat="43.84789" lon="7.25049">
        <ele>684.59997558594</ele>
        <time>2022-01-13T12:02:32.000Z</time>
      </trkpt>
      <trkpt lat="43.84791" lon="7.2505">
        <ele>684.59997558594</ele>
        <time>2022-01-13T12:02:38.000Z</time>
      </trkpt>
      <trkpt lat="43.8479" lon="7.25051">
        <ele>684.20001220703</ele>
        <time>2022-01-13T12:02:49.000Z</time>
      </trkpt>
      <trkpt lat="43.84791" lon="7.25054">
        <ele>684.20001220703</ele>
        <time>2022-01-13T12:02:52.000Z</time>
      </trkpt>
      <trkpt lat="43.8479" lon="7.25059">
        <ele>684.40002441406</ele>
        <time>2022-01-13T12:02:54.000Z</time>
      </trkpt>
      <trkpt lat="43.84788" lon="7.25078">
        <ele>685.20001220703</ele>
        <time>2022-01-13T12:03:00.000Z</time>
      </trkpt>
      <trkpt lat="43.84787" lon="7.25081">
        <ele>685.20001220703</ele>
        <time>2022-01-13T12:03:01.000Z</time>
      </trkpt>
      <trkpt lat="43.84787" lon="7.25084">
        <ele>685.40002441406</ele>
        <time>2022-01-13T12:03:02.000Z</time>
      </trkpt>
      <trkpt lat="43.84786" lon="7.2509">
        <ele>685.40002441406</ele>
        <time>2022-01-13T12:03:04.000Z</time>
      </trkpt>
      <trkpt lat="43.84783" lon="7.25096">
        <ele>685.79998779297</ele>
        <time>2022-01-13T12:03:06.000Z</time>
      </trkpt>
      <trkpt lat="43.84776" lon="7.25105">
        <ele>686.40002441406</ele>
        <time>2022-01-13T12:03:10.000Z</time>
      </trkpt>
      <trkpt lat="43.84765" lon="7.25115">
        <ele>687.20001220703</ele>
        <time>2022-01-13T12:03:16.000Z</time>
      </trkpt>
      <trkpt lat="43.84761" lon="7.25118">
        <ele>687.59997558594</ele>
        <time>2022-01-13T12:03:18.000Z</time>
      </trkpt>
      <trkpt lat="43.84756" lon="7.25126">
        <ele>688.79998779297</ele>
        <time>2022-01-13T12:03:22.000Z</time>
      </trkpt>
      <trkpt lat="43.84755" lon="7.25128">
        <ele>689</ele>
        <time>2022-01-13T12:03:23.000Z</time>
      </trkpt>
      <trkpt lat="43.84752" lon="7.2514">
        <ele>689.79998779297</ele>
        <time>2022-01-13T12:03:28.000Z</time>
      </trkpt>
      <trkpt lat="43.8475" lon="7.25148">
        <ele>691.20001220703</ele>
        <time>2022-01-13T12:03:31.000Z</time>
      </trkpt>
      <trkpt lat="43.8475" lon="7.25156">
        <ele>692.40002441406</ele>
        <time>2022-01-13T12:03:34.000Z</time>
      </trkpt>
      <trkpt lat="43.84749" lon="7.25165">
        <ele>693.59997558594</ele>
        <time>2022-01-13T12:03:38.000Z</time>
      </trkpt>
      <trkpt lat="43.84747" lon="7.25176">
        <ele>694.59997558594</ele>
        <time>2022-01-13T12:03:42.000Z</time>
      </trkpt>
      <trkpt lat="43.84743" lon="7.25182">
        <ele>695.40002441406</ele>
        <time>2022-01-13T12:03:45.000Z</time>
      </trkpt>
      <trkpt lat="43.84743" lon="7.25184">
        <ele>695.79998779297</ele>
        <time>2022-01-13T12:03:46.000Z</time>
      </trkpt>
      <trkpt lat="43.8474" lon="7.2519">
        <ele>696.79998779297</ele>
        <time>2022-01-13T12:03:49.000Z</time>
      </trkpt>
      <trkpt lat="43.84738" lon="7.25196">
        <ele>697.79998779297</ele>
        <time>2022-01-13T12:03:52.000Z</time>
      </trkpt>
      <trkpt lat="43.84734" lon="7.25203">
        <ele>699</ele>
        <time>2022-01-13T12:03:56.000Z</time>
      </trkpt>
      <trkpt lat="43.84733" lon="7.25205">
        <ele>699.40002441406</ele>
        <time>2022-01-13T12:03:57.000Z</time>
      </trkpt>
      <trkpt lat="43.84731" lon="7.25208">
        <ele>700.20001220703</ele>
        <time>2022-01-13T12:03:59.000Z</time>
      </trkpt>
      <trkpt lat="43.84727" lon="7.25212">
        <ele>701.40002441406</ele>
        <time>2022-01-13T12:04:02.000Z</time>
      </trkpt>
      <trkpt lat="43.84725" lon="7.25215">
        <ele>701.79998779297</ele>
        <time>2022-01-13T12:04:04.000Z</time>
      </trkpt>
      <trkpt lat="43.84721" lon="7.25216">
        <ele>702.59997558594</ele>
        <time>2022-01-13T12:04:07.000Z</time>
      </trkpt>
      <trkpt lat="43.84716" lon="7.25216">
        <ele>703.40002441406</ele>
        <time>2022-01-13T12:04:10.000Z</time>
      </trkpt>
      <trkpt lat="43.84714" lon="7.25217">
        <ele>703.79998779297</ele>
        <time>2022-01-13T12:04:11.000Z</time>
      </trkpt>
      <trkpt lat="43.84707" lon="7.25222">
        <ele>705</ele>
        <time>2022-01-13T12:04:16.000Z</time>
      </trkpt>
      <trkpt lat="43.847" lon="7.25226">
        <ele>706.20001220703</ele>
        <time>2022-01-13T12:04:20.000Z</time>
      </trkpt>
      <trkpt lat="43.84696" lon="7.25228">
        <ele>706.79998779297</ele>
        <time>2022-01-13T12:04:22.000Z</time>
      </trkpt>
      <trkpt lat="43.84695" lon="7.25229">
        <ele>707.40002441406</ele>
        <time>2022-01-13T12:04:23.000Z</time>
      </trkpt>
      <trkpt lat="43.84693" lon="7.25232">
        <ele>708.20001220703</ele>
        <time>2022-01-13T12:04:25.000Z</time>
      </trkpt>
      <trkpt lat="43.84693" lon="7.25235">
        <ele>708.79998779297</ele>
        <time>2022-01-13T12:04:26.000Z</time>
      </trkpt>
      <trkpt lat="43.84693" lon="7.25237">
        <ele>709.40002441406</ele>
        <time>2022-01-13T12:04:27.000Z</time>
      </trkpt>
      <trkpt lat="43.84693" lon="7.2524">
        <ele>710</ele>
        <time>2022-01-13T12:04:28.000Z</time>
      </trkpt>
      <trkpt lat="43.84694" lon="7.25245">
        <ele>711</ele>
        <time>2022-01-13T12:04:30.000Z</time>
      </trkpt>
      <trkpt lat="43.84695" lon="7.25251">
        <ele>712.40002441406</ele>
        <time>2022-01-13T12:04:32.000Z</time>
      </trkpt>
      <trkpt lat="43.84695" lon="7.25254">
        <ele>713</ele>
        <time>2022-01-13T12:04:33.000Z</time>
      </trkpt>
      <trkpt lat="43.84696" lon="7.25257">
        <ele>713.59997558594</ele>
        <time>2022-01-13T12:04:34.000Z</time>
      </trkpt>
      <trkpt lat="43.84698" lon="7.25263">
        <ele>714.59997558594</ele>
        <time>2022-01-13T12:04:37.000Z</time>
      </trkpt>
      <trkpt lat="43.84699" lon="7.25264">
        <ele>715.20001220703</ele>
        <time>2022-01-13T12:04:38.000Z</time>
      </trkpt>
      <trkpt lat="43.847" lon="7.25265">
        <ele>715.40002441406</ele>
        <time>2022-01-13T12:04:39.000Z</time>
      </trkpt>
      <trkpt lat="43.84701" lon="7.25266">
        <ele>716</ele>
        <time>2022-01-13T12:04:40.000Z</time>
      </trkpt>
      <trkpt lat="43.84704" lon="7.2527">
        <ele>717.40002441406</ele>
        <time>2022-01-13T12:04:43.000Z</time>
      </trkpt>
      <trkpt lat="43.84707" lon="7.25272">
        <ele>718.20001220703</ele>
        <time>2022-01-13T12:04:47.000Z</time>
      </trkpt>
      <trkpt lat="43.84707" lon="7.25272">
        <ele>718.40002441406</ele>
        <time>2022-01-13T12:04:49.000Z</time>
      </trkpt>
      <trkpt lat="43.84707" lon="7.25273">
        <ele>718.59997558594</ele>
        <time>2022-01-13T12:04:51.000Z</time>
      </trkpt>
      <trkpt lat="43.84708" lon="7.25273">
        <ele>718.79998779297</ele>
        <time>2022-01-13T12:04:59.000Z</time>
      </trkpt>
      <trkpt lat="43.84712" lon="7.25276">
        <ele>718.59997558594</ele>
        <time>2022-01-13T12:05:05.000Z</time>
      </trkpt>
      <trkpt lat="43.84722" lon="7.25282">
        <ele>718.59997558594</ele>
        <time>2022-01-13T12:05:10.000Z</time>
      </trkpt>
      <trkpt lat="43.84737" lon="7.25293">
        <ele>718.79998779297</ele>
        <time>2022-01-13T12:05:17.000Z</time>
      </trkpt>
      <trkpt lat="43.84758" lon="7.25307">
        <ele>718</ele>
        <time>2022-01-13T12:05:24.000Z</time>
      </trkpt>
      <trkpt lat="43.8477" lon="7.25315">
        <ele>717.40002441406</ele>
        <time>2022-01-13T12:05:28.000Z</time>
      </trkpt>
      <trkpt lat="43.84778" lon="7.2532">
        <ele>717.40002441406</ele>
        <time>2022-01-13T12:05:30.000Z</time>
      </trkpt>
      <trkpt lat="43.84786" lon="7.25329">
        <ele>717</ele>
        <time>2022-01-13T12:05:32.000Z</time>
      </trkpt>
      <trkpt lat="43.84806" lon="7.25348">
        <ele>716.40002441406</ele>
        <time>2022-01-13T12:05:36.000Z</time>
      </trkpt>
      <trkpt lat="43.84819" lon="7.25357">
        <ele>715.40002441406</ele>
        <time>2022-01-13T12:05:38.000Z</time>
      </trkpt>
      <trkpt lat="43.84825" lon="7.25362">
        <ele>714.79998779297</ele>
        <time>2022-01-13T12:05:39.000Z</time>
      </trkpt>
      <trkpt lat="43.84832" lon="7.25368">
        <ele>713.59997558594</ele>
        <time>2022-01-13T12:05:40.000Z</time>
      </trkpt>
      <trkpt lat="43.84844" lon="7.25381">
        <ele>711.59997558594</ele>
        <time>2022-01-13T12:05:42.000Z</time>
      </trkpt>
      <trkpt lat="43.8485" lon="7.25387">
        <ele>711.20001220703</ele>
        <time>2022-01-13T12:05:43.000Z</time>
      </trkpt>
      <trkpt lat="43.84856" lon="7.25391">
        <ele>710.59997558594</ele>
        <time>2022-01-13T12:05:44.000Z</time>
      </trkpt>
      <trkpt lat="43.84866" lon="7.25403">
        <ele>709.59997558594</ele>
        <time>2022-01-13T12:05:46.000Z</time>
      </trkpt>
      <trkpt lat="43.84872" lon="7.25407">
        <ele>709</ele>
        <time>2022-01-13T12:05:47.000Z</time>
      </trkpt>
      <trkpt lat="43.84878" lon="7.25412">
        <ele>708.59997558594</ele>
        <time>2022-01-13T12:05:48.000Z</time>
      </trkpt>
      <trkpt lat="43.84885" lon="7.25417">
        <ele>708</ele>
        <time>2022-01-13T12:05:49.000Z</time>
      </trkpt>
      <trkpt lat="43.8491" lon="7.25437">
        <ele>706.79998779297</ele>
        <time>2022-01-13T12:05:53.000Z</time>
      </trkpt>
      <trkpt lat="43.84917" lon="7.25441">
        <ele>706.40002441406</ele>
        <time>2022-01-13T12:05:54.000Z</time>
      </trkpt>
      <trkpt lat="43.84924" lon="7.25443">
        <ele>705.59997558594</ele>
        <time>2022-01-13T12:05:55.000Z</time>
      </trkpt>
      <trkpt lat="43.8494" lon="7.25448">
        <ele>704</ele>
        <time>2022-01-13T12:05:57.000Z</time>
      </trkpt>
      <trkpt lat="43.84946" lon="7.25454">
        <ele>703.40002441406</ele>
        <time>2022-01-13T12:05:58.000Z</time>
      </trkpt>
      <trkpt lat="43.84959" lon="7.25459">
        <ele>702.59997558594</ele>
        <time>2022-01-13T12:06:00.000Z</time>
      </trkpt>
      <trkpt lat="43.84966" lon="7.25462">
        <ele>702</ele>
        <time>2022-01-13T12:06:01.000Z</time>
      </trkpt>
      <trkpt lat="43.84972" lon="7.25466">
        <ele>701.40002441406</ele>
        <time>2022-01-13T12:06:02.000Z</time>
      </trkpt>
      <trkpt lat="43.8498" lon="7.25471">
        <ele>700.20001220703</ele>
        <time>2022-01-13T12:06:03.000Z</time>
      </trkpt>
      <trkpt lat="43.84987" lon="7.25476">
        <ele>698.59997558594</ele>
        <time>2022-01-13T12:06:04.000Z</time>
      </trkpt>
      <trkpt lat="43.84993" lon="7.25484">
        <ele>697</ele>
        <time>2022-01-13T12:06:05.000Z</time>
      </trkpt>
      <trkpt lat="43.85" lon="7.25491">
        <ele>695.79998779297</ele>
        <time>2022-01-13T12:06:06.000Z</time>
      </trkpt>
      <trkpt lat="43.85007" lon="7.25497">
        <ele>694.79998779297</ele>
        <time>2022-01-13T12:06:07.000Z</time>
      </trkpt>
      <trkpt lat="43.85021" lon="7.2551">
        <ele>693.20001220703</ele>
        <time>2022-01-13T12:06:09.000Z</time>
      </trkpt>
      <trkpt lat="43.85034" lon="7.25525">
        <ele>691.79998779297</ele>
        <time>2022-01-13T12:06:11.000Z</time>
      </trkpt>
      <trkpt lat="43.85046" lon="7.25538">
        <ele>690.59997558594</ele>
        <time>2022-01-13T12:06:13.000Z</time>
      </trkpt>
      <trkpt lat="43.85058" lon="7.25549">
        <ele>689</ele>
        <time>2022-01-13T12:06:15.000Z</time>
      </trkpt>
      <trkpt lat="43.85065" lon="7.25555">
        <ele>688.59997558594</ele>
        <time>2022-01-13T12:06:16.000Z</time>
      </trkpt>
      <trkpt lat="43.8507" lon="7.2556">
        <ele>688.40002441406</ele>
        <time>2022-01-13T12:06:17.000Z</time>
      </trkpt>
      <trkpt lat="43.85074" lon="7.25566">
        <ele>688</ele>
        <time>2022-01-13T12:06:18.000Z</time>
      </trkpt>
      <trkpt lat="43.85074" lon="7.25571">
        <ele>687.40002441406</ele>
        <time>2022-01-13T12:06:19.000Z</time>
      </trkpt>
      <trkpt lat="43.85071" lon="7.25583">
        <ele>686.59997558594</ele>
        <time>2022-01-13T12:06:21.000Z</time>
      </trkpt>
      <trkpt lat="43.85068" lon="7.25586">
        <ele>686.20001220703</ele>
        <time>2022-01-13T12:06:22.000Z</time>
      </trkpt>
      <trkpt lat="43.85066" lon="7.25589">
        <ele>686</ele>
        <time>2022-01-13T12:06:23.000Z</time>
      </trkpt>
      <trkpt lat="43.85056" lon="7.25605">
        <ele>686.40002441406</ele>
        <time>2022-01-13T12:06:28.000Z</time>
      </trkpt>
      <trkpt lat="43.8505" lon="7.25623">
        <ele>687</ele>
        <time>2022-01-13T12:06:33.000Z</time>
      </trkpt>
      <trkpt lat="43.85053" lon="7.25647">
        <ele>687.20001220703</ele>
        <time>2022-01-13T12:06:38.000Z</time>
      </trkpt>
      <trkpt lat="43.85056" lon="7.25684">
        <ele>685.79998779297</ele>
        <time>2022-01-13T12:06:43.000Z</time>
      </trkpt>
      <trkpt lat="43.85057" lon="7.25693">
        <ele>685.20001220703</ele>
        <time>2022-01-13T12:06:44.000Z</time>
      </trkpt>
      <trkpt lat="43.85058" lon="7.25704">
        <ele>684</ele>
        <time>2022-01-13T12:06:45.000Z</time>
      </trkpt>
      <trkpt lat="43.85062" lon="7.25723">
        <ele>681.59997558594</ele>
        <time>2022-01-13T12:06:47.000Z</time>
      </trkpt>
      <trkpt lat="43.85065" lon="7.2574">
        <ele>680.20001220703</ele>
        <time>2022-01-13T12:06:49.000Z</time>
      </trkpt>
      <trkpt lat="43.85068" lon="7.25748">
        <ele>680</ele>
        <time>2022-01-13T12:06:50.000Z</time>
      </trkpt>
      <trkpt lat="43.85069" lon="7.25761">
        <ele>680</ele>
        <time>2022-01-13T12:06:52.000Z</time>
      </trkpt>
      <trkpt lat="43.85066" lon="7.25772">
        <ele>680.40002441406</ele>
        <time>2022-01-13T12:06:54.000Z</time>
      </trkpt>
      <trkpt lat="43.85066" lon="7.25782">
        <ele>681.20001220703</ele>
        <time>2022-01-13T12:06:56.000Z</time>
      </trkpt>
      <trkpt lat="43.85066" lon="7.25788">
        <ele>681.59997558594</ele>
        <time>2022-01-13T12:06:57.000Z</time>
      </trkpt>
      <trkpt lat="43.85072" lon="7.25808">
        <ele>682.40002441406</ele>
        <time>2022-01-13T12:07:00.000Z</time>
      </trkpt>
      <trkpt lat="43.85075" lon="7.25813">
        <ele>682.20001220703</ele>
        <time>2022-01-13T12:07:01.000Z</time>
      </trkpt>
      <trkpt lat="43.85082" lon="7.25824">
        <ele>681.40002441406</ele>
        <time>2022-01-13T12:07:04.000Z</time>
      </trkpt>
      <trkpt lat="43.85088" lon="7.25845">
        <ele>681.40002441406</ele>
        <time>2022-01-13T12:07:09.000Z</time>
      </trkpt>
      <trkpt lat="43.85088" lon="7.25848">
        <ele>681.20001220703</ele>
        <time>2022-01-13T12:07:10.000Z</time>
      </trkpt>
      <trkpt lat="43.85086" lon="7.25852">
        <ele>680.79998779297</ele>
        <time>2022-01-13T12:07:13.000Z</time>
      </trkpt>
      <trkpt lat="43.85076" lon="7.25856">
        <ele>680.79998779297</ele>
        <time>2022-01-13T12:07:19.000Z</time>
      </trkpt>
      <trkpt lat="43.85066" lon="7.25863">
        <ele>681.79998779297</ele>
        <time>2022-01-13T12:07:24.000Z</time>
      </trkpt>
      <trkpt lat="43.85063" lon="7.25866">
        <ele>682.40002441406</ele>
        <time>2022-01-13T12:07:26.000Z</time>
      </trkpt>
      <trkpt lat="43.85057" lon="7.2587">
        <ele>683.40002441406</ele>
        <time>2022-01-13T12:07:29.000Z</time>
      </trkpt>
      <trkpt lat="43.85055" lon="7.2587">
        <ele>683.59997558594</ele>
        <time>2022-01-13T12:07:30.000Z</time>
      </trkpt>
      <trkpt lat="43.85046" lon="7.25866">
        <ele>684.79998779297</ele>
        <time>2022-01-13T12:07:34.000Z</time>
      </trkpt>
      <trkpt lat="43.85038" lon="7.25863">
        <ele>686.20001220703</ele>
        <time>2022-01-13T12:07:37.000Z</time>
      </trkpt>
      <trkpt lat="43.85035" lon="7.25861">
        <ele>686.79998779297</ele>
        <time>2022-01-13T12:07:39.000Z</time>
      </trkpt>
      <trkpt lat="43.85032" lon="7.25855">
        <ele>687.59997558594</ele>
        <time>2022-01-13T12:07:41.000Z</time>
      </trkpt>
      <trkpt lat="43.85027" lon="7.25851">
        <ele>688.40002441406</ele>
        <time>2022-01-13T12:07:43.000Z</time>
      </trkpt>
      <trkpt lat="43.85025" lon="7.25849">
        <ele>688.79998779297</ele>
        <time>2022-01-13T12:07:44.000Z</time>
      </trkpt>
      <trkpt lat="43.85018" lon="7.25847">
        <ele>690</ele>
        <time>2022-01-13T12:07:47.000Z</time>
      </trkpt>
      <trkpt lat="43.85016" lon="7.25847">
        <ele>690.59997558594</ele>
        <time>2022-01-13T12:07:48.000Z</time>
      </trkpt>
      <trkpt lat="43.85015" lon="7.25851">
        <ele>691.59997558594</ele>
        <time>2022-01-13T12:07:50.000Z</time>
      </trkpt>
      <trkpt lat="43.85014" lon="7.25855">
        <ele>691.79998779297</ele>
        <time>2022-01-13T12:07:51.000Z</time>
      </trkpt>
      <trkpt lat="43.85012" lon="7.25861">
        <ele>692.79998779297</ele>
        <time>2022-01-13T12:07:53.000Z</time>
      </trkpt>
      <trkpt lat="43.8501" lon="7.25864">
        <ele>693.79998779297</ele>
        <time>2022-01-13T12:07:55.000Z</time>
      </trkpt>
      <trkpt lat="43.85008" lon="7.25867">
        <ele>694.20001220703</ele>
        <time>2022-01-13T12:07:56.000Z</time>
      </trkpt>
      <trkpt lat="43.85006" lon="7.25869">
        <ele>694.79998779297</ele>
        <time>2022-01-13T12:07:57.000Z</time>
      </trkpt>
      <trkpt lat="43.85003" lon="7.25872">
        <ele>696</ele>
        <time>2022-01-13T12:07:59.000Z</time>
      </trkpt>
      <trkpt lat="43.85002" lon="7.25874">
        <ele>696.59997558594</ele>
        <time>2022-01-13T12:08:00.000Z</time>
      </trkpt>
      <trkpt lat="43.85" lon="7.25877">
        <ele>697.20001220703</ele>
        <time>2022-01-13T12:08:02.000Z</time>
      </trkpt>
      <trkpt lat="43.84999" lon="7.25882">
        <ele>698.40002441406</ele>
        <time>2022-01-13T12:08:05.000Z</time>
      </trkpt>
      <trkpt lat="43.84998" lon="7.25884">
        <ele>698.59997558594</ele>
        <time>2022-01-13T12:08:06.000Z</time>
      </trkpt>
      <trkpt lat="43.84993" lon="7.25883">
        <ele>699.20001220703</ele>
        <time>2022-01-13T12:08:09.000Z</time>
      </trkpt>
      <trkpt lat="43.84993" lon="7.25881">
        <ele>699.59997558594</ele>
        <time>2022-01-13T12:08:10.000Z</time>
      </trkpt>
      <trkpt lat="43.8499" lon="7.25879">
        <ele>700.79998779297</ele>
        <time>2022-01-13T12:08:13.000Z</time>
      </trkpt>
      <trkpt lat="43.84989" lon="7.2588">
        <ele>701.20001220703</ele>
        <time>2022-01-13T12:08:14.000Z</time>
      </trkpt>
      <trkpt lat="43.84989" lon="7.25887">
        <ele>702</ele>
        <time>2022-01-13T12:08:17.000Z</time>
      </trkpt>
      <trkpt lat="43.84991" lon="7.25895">
        <ele>703</ele>
        <time>2022-01-13T12:08:21.000Z</time>
      </trkpt>
      <trkpt lat="43.8499" lon="7.25897">
        <ele>703.20001220703</ele>
        <time>2022-01-13T12:08:22.000Z</time>
      </trkpt>
      <trkpt lat="43.84989" lon="7.25899">
        <ele>703.40002441406</ele>
        <time>2022-01-13T12:08:23.000Z</time>
      </trkpt>
      <trkpt lat="43.84988" lon="7.25898">
        <ele>703.79998779297</ele>
        <time>2022-01-13T12:08:24.000Z</time>
      </trkpt>
      <trkpt lat="43.84986" lon="7.25897">
        <ele>704.20001220703</ele>
        <time>2022-01-13T12:08:25.000Z</time>
      </trkpt>
      <trkpt lat="43.84985" lon="7.25895">
        <ele>704.40002441406</ele>
        <time>2022-01-13T12:08:26.000Z</time>
      </trkpt>
      <trkpt lat="43.84982" lon="7.25889">
        <ele>705</ele>
        <time>2022-01-13T12:08:28.000Z</time>
      </trkpt>
      <trkpt lat="43.8498" lon="7.25887">
        <ele>705.59997558594</ele>
        <time>2022-01-13T12:08:29.000Z</time>
      </trkpt>
      <trkpt lat="43.84975" lon="7.25884">
        <ele>706.20001220703</ele>
        <time>2022-01-13T12:08:31.000Z</time>
      </trkpt>
      <trkpt lat="43.84973" lon="7.25884">
        <ele>706.79998779297</ele>
        <time>2022-01-13T12:08:32.000Z</time>
      </trkpt>
      <trkpt lat="43.8497" lon="7.25883">
        <ele>707.40002441406</ele>
        <time>2022-01-13T12:08:33.000Z</time>
      </trkpt>
      <trkpt lat="43.84969" lon="7.2588">
        <ele>708.20001220703</ele>
        <time>2022-01-13T12:08:34.000Z</time>
      </trkpt>
      <trkpt lat="43.84968" lon="7.25878">
        <ele>709</ele>
        <time>2022-01-13T12:08:35.000Z</time>
      </trkpt>
      <trkpt lat="43.84967" lon="7.25876">
        <ele>709.59997558594</ele>
        <time>2022-01-13T12:08:36.000Z</time>
      </trkpt>
      <trkpt lat="43.84965" lon="7.25872">
        <ele>710.79998779297</ele>
        <time>2022-01-13T12:08:38.000Z</time>
      </trkpt>
      <trkpt lat="43.84962" lon="7.2587">
        <ele>711.79998779297</ele>
        <time>2022-01-13T12:08:40.000Z</time>
      </trkpt>
      <trkpt lat="43.84961" lon="7.2587">
        <ele>712.20001220703</ele>
        <time>2022-01-13T12:08:41.000Z</time>
      </trkpt>
      <trkpt lat="43.84961" lon="7.25876">
        <ele>713</ele>
        <time>2022-01-13T12:08:43.000Z</time>
      </trkpt>
      <trkpt lat="43.84962" lon="7.25878">
        <ele>713.20001220703</ele>
        <time>2022-01-13T12:08:44.000Z</time>
      </trkpt>
      <trkpt lat="43.84961" lon="7.25882">
        <ele>713.40002441406</ele>
        <time>2022-01-13T12:08:45.000Z</time>
      </trkpt>
      <trkpt lat="43.84958" lon="7.25885">
        <ele>714</ele>
        <time>2022-01-13T12:08:47.000Z</time>
      </trkpt>
      <trkpt lat="43.84957" lon="7.25882">
        <ele>714.40002441406</ele>
        <time>2022-01-13T12:08:48.000Z</time>
      </trkpt>
      <trkpt lat="43.84955" lon="7.25878">
        <ele>715.40002441406</ele>
        <time>2022-01-13T12:08:50.000Z</time>
      </trkpt>
      <trkpt lat="43.84952" lon="7.25878">
        <ele>716.20001220703</ele>
        <time>2022-01-13T12:08:52.000Z</time>
      </trkpt>
      <trkpt lat="43.84951" lon="7.25881">
        <ele>716.40002441406</ele>
        <time>2022-01-13T12:08:53.000Z</time>
      </trkpt>
      <trkpt lat="43.84951" lon="7.25888">
        <ele>717.20001220703</ele>
        <time>2022-01-13T12:08:56.000Z</time>
      </trkpt>
      <trkpt lat="43.8495" lon="7.25891">
        <ele>717.59997558594</ele>
        <time>2022-01-13T12:08:57.000Z</time>
      </trkpt>
      <trkpt lat="43.84948" lon="7.25894">
        <ele>718.59997558594</ele>
        <time>2022-01-13T12:08:59.000Z</time>
      </trkpt>
      <trkpt lat="43.84946" lon="7.25895">
        <ele>719.40002441406</ele>
        <time>2022-01-13T12:09:00.000Z</time>
      </trkpt>
      <trkpt lat="43.84944" lon="7.25894">
        <ele>719.79998779297</ele>
        <time>2022-01-13T12:09:01.000Z</time>
      </trkpt>
      <trkpt lat="43.84941" lon="7.2589">
        <ele>721</ele>
        <time>2022-01-13T12:09:04.000Z</time>
      </trkpt>
      <trkpt lat="43.84936" lon="7.25888">
        <ele>721.59997558594</ele>
        <time>2022-01-13T12:09:07.000Z</time>
      </trkpt>
      <trkpt lat="43.84934" lon="7.25888">
        <ele>722.40002441406</ele>
        <time>2022-01-13T12:09:09.000Z</time>
      </trkpt>
      <trkpt lat="43.8493" lon="7.25891">
        <ele>723.79998779297</ele>
        <time>2022-01-13T12:09:12.000Z</time>
      </trkpt>
      <trkpt lat="43.84928" lon="7.25892">
        <ele>724.40002441406</ele>
        <time>2022-01-13T12:09:14.000Z</time>
      </trkpt>
      <trkpt lat="43.84926" lon="7.25893">
        <ele>725.20001220703</ele>
        <time>2022-01-13T12:09:16.000Z</time>
      </trkpt>
      <trkpt lat="43.84921" lon="7.25895">
        <ele>726.20001220703</ele>
        <time>2022-01-13T12:09:19.000Z</time>
      </trkpt>
      <trkpt lat="43.84919" lon="7.25896">
        <ele>726.20001220703</ele>
        <time>2022-01-13T12:09:20.000Z</time>
      </trkpt>
      <trkpt lat="43.84909" lon="7.25902">
        <ele>727.40002441406</ele>
        <time>2022-01-13T12:09:25.000Z</time>
      </trkpt>
      <trkpt lat="43.84907" lon="7.25903">
        <ele>728</ele>
        <time>2022-01-13T12:09:26.000Z</time>
      </trkpt>
      <trkpt lat="43.84904" lon="7.25906">
        <ele>728.79998779297</ele>
        <time>2022-01-13T12:09:28.000Z</time>
      </trkpt>
      <trkpt lat="43.84896" lon="7.25918">
        <ele>729.40002441406</ele>
        <time>2022-01-13T12:09:33.000Z</time>
      </trkpt>
      <trkpt lat="43.84889" lon="7.25928">
        <ele>729.79998779297</ele>
        <time>2022-01-13T12:09:37.000Z</time>
      </trkpt>
      <trkpt lat="43.84883" lon="7.25937">
        <ele>730.40002441406</ele>
        <time>2022-01-13T12:09:41.000Z</time>
      </trkpt>
      <trkpt lat="43.84881" lon="7.25942">
        <ele>731</ele>
        <time>2022-01-13T12:09:43.000Z</time>
      </trkpt>
      <trkpt lat="43.84877" lon="7.25954">
        <ele>731.79998779297</ele>
        <time>2022-01-13T12:09:47.000Z</time>
      </trkpt>
      <trkpt lat="43.84877" lon="7.25957">
        <ele>732.20001220703</ele>
        <time>2022-01-13T12:09:48.000Z</time>
      </trkpt>
      <trkpt lat="43.84875" lon="7.2597">
        <ele>733.20001220703</ele>
        <time>2022-01-13T12:09:52.000Z</time>
      </trkpt>
      <trkpt lat="43.84869" lon="7.25985">
        <ele>733.79998779297</ele>
        <time>2022-01-13T12:09:57.000Z</time>
      </trkpt>
      <trkpt lat="43.84863" lon="7.25999">
        <ele>734.20001220703</ele>
        <time>2022-01-13T12:10:02.000Z</time>
      </trkpt>
      <trkpt lat="43.84847" lon="7.26023">
        <ele>735.20001220703</ele>
        <time>2022-01-13T12:10:10.000Z</time>
      </trkpt>
      <trkpt lat="43.84846" lon="7.26025">
        <ele>735.40002441406</ele>
        <time>2022-01-13T12:10:11.000Z</time>
      </trkpt>
      <trkpt lat="43.84845" lon="7.26027">
        <ele>735.59997558594</ele>
        <time>2022-01-13T12:10:12.000Z</time>
      </trkpt>
      <trkpt lat="43.84841" lon="7.26029">
        <ele>736.40002441406</ele>
        <time>2022-01-13T12:10:14.000Z</time>
      </trkpt>
      <trkpt lat="43.84831" lon="7.26029">
        <ele>737.40002441406</ele>
        <time>2022-01-13T12:10:18.000Z</time>
      </trkpt>
      <trkpt lat="43.84827" lon="7.26031">
        <ele>738.59997558594</ele>
        <time>2022-01-13T12:10:20.000Z</time>
      </trkpt>
      <trkpt lat="43.84824" lon="7.26031">
        <ele>739.79998779297</ele>
        <time>2022-01-13T12:10:22.000Z</time>
      </trkpt>
      <trkpt lat="43.8482" lon="7.2603">
        <ele>741</ele>
        <time>2022-01-13T12:10:24.000Z</time>
      </trkpt>
      <trkpt lat="43.84818" lon="7.2603">
        <ele>741.40002441406</ele>
        <time>2022-01-13T12:10:25.000Z</time>
      </trkpt>
      <trkpt lat="43.8481" lon="7.26031">
        <ele>743.40002441406</ele>
        <time>2022-01-13T12:10:30.000Z</time>
      </trkpt>
      <trkpt lat="43.84806" lon="7.26033">
        <ele>744</ele>
        <time>2022-01-13T12:10:32.000Z</time>
      </trkpt>
      <trkpt lat="43.84803" lon="7.26037">
        <ele>744.59997558594</ele>
        <time>2022-01-13T12:10:34.000Z</time>
      </trkpt>
      <trkpt lat="43.84798" lon="7.2604">
        <ele>745.59997558594</ele>
        <time>2022-01-13T12:10:37.000Z</time>
      </trkpt>
      <trkpt lat="43.84796" lon="7.26041">
        <ele>746</ele>
        <time>2022-01-13T12:10:38.000Z</time>
      </trkpt>
      <trkpt lat="43.84787" lon="7.26049">
        <ele>747</ele>
        <time>2022-01-13T12:10:43.000Z</time>
      </trkpt>
      <trkpt lat="43.84775" lon="7.26057">
        <ele>747.79998779297</ele>
        <time>2022-01-13T12:10:50.000Z</time>
      </trkpt>
      <trkpt lat="43.8477" lon="7.2606">
        <ele>748</ele>
        <time>2022-01-13T12:10:53.000Z</time>
      </trkpt>
      <trkpt lat="43.84767" lon="7.26062">
        <ele>748.40002441406</ele>
        <time>2022-01-13T12:10:55.000Z</time>
      </trkpt>
      <trkpt lat="43.84766" lon="7.26063">
        <ele>748.40002441406</ele>
        <time>2022-01-13T12:10:56.000Z</time>
      </trkpt>
      <trkpt lat="43.84762" lon="7.26069">
        <ele>749.20001220703</ele>
        <time>2022-01-13T12:10:59.000Z</time>
      </trkpt>
      <trkpt lat="43.84752" lon="7.26074">
        <ele>750.20001220703</ele>
        <time>2022-01-13T12:11:04.000Z</time>
      </trkpt>
      <trkpt lat="43.84742" lon="7.26078">
        <ele>751.40002441406</ele>
        <time>2022-01-13T12:11:09.000Z</time>
      </trkpt>
      <trkpt lat="43.8474" lon="7.26079">
        <ele>751.59997558594</ele>
        <time>2022-01-13T12:11:10.000Z</time>
      </trkpt>
      <trkpt lat="43.84736" lon="7.26083">
        <ele>752.40002441406</ele>
        <time>2022-01-13T12:11:13.000Z</time>
      </trkpt>
      <trkpt lat="43.84733" lon="7.26085">
        <ele>752.79998779297</ele>
        <time>2022-01-13T12:11:15.000Z</time>
      </trkpt>
      <trkpt lat="43.84727" lon="7.26089">
        <ele>753.79998779297</ele>
        <time>2022-01-13T12:11:19.000Z</time>
      </trkpt>
      <trkpt lat="43.84726" lon="7.2609">
        <ele>754</ele>
        <time>2022-01-13T12:11:20.000Z</time>
      </trkpt>
      <trkpt lat="43.84719" lon="7.26096">
        <ele>754.79998779297</ele>
        <time>2022-01-13T12:11:24.000Z</time>
      </trkpt>
      <trkpt lat="43.84716" lon="7.261">
        <ele>755</ele>
        <time>2022-01-13T12:11:26.000Z</time>
      </trkpt>
      <trkpt lat="43.84707" lon="7.26106">
        <ele>755.79998779297</ele>
        <time>2022-01-13T12:11:31.000Z</time>
      </trkpt>
      <trkpt lat="43.84702" lon="7.2611">
        <ele>756.79998779297</ele>
        <time>2022-01-13T12:11:34.000Z</time>
      </trkpt>
      <trkpt lat="43.84697" lon="7.26112">
        <ele>758.40002441406</ele>
        <time>2022-01-13T12:11:37.000Z</time>
      </trkpt>
      <trkpt lat="43.84696" lon="7.26114">
        <ele>758.79998779297</ele>
        <time>2022-01-13T12:11:38.000Z</time>
      </trkpt>
      <trkpt lat="43.84691" lon="7.26123">
        <ele>759.79998779297</ele>
        <time>2022-01-13T12:11:42.000Z</time>
      </trkpt>
      <trkpt lat="43.84685" lon="7.26132">
        <ele>761</ele>
        <time>2022-01-13T12:11:46.000Z</time>
      </trkpt>
      <trkpt lat="43.84682" lon="7.26135">
        <ele>762</ele>
        <time>2022-01-13T12:11:48.000Z</time>
      </trkpt>
      <trkpt lat="43.84679" lon="7.26139">
        <ele>763.59997558594</ele>
        <time>2022-01-13T12:11:50.000Z</time>
      </trkpt>
      <trkpt lat="43.84676" lon="7.26141">
        <ele>765.20001220703</ele>
        <time>2022-01-13T12:11:52.000Z</time>
      </trkpt>
      <trkpt lat="43.84675" lon="7.26141">
        <ele>765.79998779297</ele>
        <time>2022-01-13T12:11:53.000Z</time>
      </trkpt>
      <trkpt lat="43.84673" lon="7.26141">
        <ele>766.40002441406</ele>
        <time>2022-01-13T12:11:54.000Z</time>
      </trkpt>
      <trkpt lat="43.84671" lon="7.26142">
        <ele>767.59997558594</ele>
        <time>2022-01-13T12:11:56.000Z</time>
      </trkpt>
      <trkpt lat="43.84669" lon="7.26145">
        <ele>768.20001220703</ele>
        <time>2022-01-13T12:11:58.000Z</time>
      </trkpt>
      <trkpt lat="43.84667" lon="7.26148">
        <ele>768.59997558594</ele>
        <time>2022-01-13T12:12:00.000Z</time>
      </trkpt>
      <trkpt lat="43.84664" lon="7.26152">
        <ele>769.20001220703</ele>
        <time>2022-01-13T12:12:03.000Z</time>
      </trkpt>
      <trkpt lat="43.84663" lon="7.26152">
        <ele>769.40002441406</ele>
        <time>2022-01-13T12:12:04.000Z</time>
      </trkpt>
      <trkpt lat="43.84659" lon="7.26153">
        <ele>769.79998779297</ele>
        <time>2022-01-13T12:12:06.000Z</time>
      </trkpt>
      <trkpt lat="43.84658" lon="7.26154">
        <ele>770</ele>
        <time>2022-01-13T12:12:07.000Z</time>
      </trkpt>
      <trkpt lat="43.8465" lon="7.26156">
        <ele>770.79998779297</ele>
        <time>2022-01-13T12:12:11.000Z</time>
      </trkpt>
      <trkpt lat="43.84646" lon="7.26154">
        <ele>771.79998779297</ele>
        <time>2022-01-13T12:12:13.000Z</time>
      </trkpt>
      <trkpt lat="43.84641" lon="7.26154">
        <ele>772.79998779297</ele>
        <time>2022-01-13T12:12:16.000Z</time>
      </trkpt>
      <trkpt lat="43.84639" lon="7.26154">
        <ele>773.20001220703</ele>
        <time>2022-01-13T12:12:17.000Z</time>
      </trkpt>
      <trkpt lat="43.84632" lon="7.26154">
        <ele>773.79998779297</ele>
        <time>2022-01-13T12:12:21.000Z</time>
      </trkpt>
      <trkpt lat="43.84627" lon="7.26155">
        <ele>774.79998779297</ele>
        <time>2022-01-13T12:12:24.000Z</time>
      </trkpt>
      <trkpt lat="43.84624" lon="7.26155">
        <ele>775</ele>
        <time>2022-01-13T12:12:25.000Z</time>
      </trkpt>
      <trkpt lat="43.84618" lon="7.26156">
        <ele>776</ele>
        <time>2022-01-13T12:12:28.000Z</time>
      </trkpt>
      <trkpt lat="43.84616" lon="7.26155">
        <ele>776.40002441406</ele>
        <time>2022-01-13T12:12:29.000Z</time>
      </trkpt>
      <trkpt lat="43.84615" lon="7.26153">
        <ele>777</ele>
        <time>2022-01-13T12:12:30.000Z</time>
      </trkpt>
      <trkpt lat="43.84615" lon="7.26151">
        <ele>777.40002441406</ele>
        <time>2022-01-13T12:12:31.000Z</time>
      </trkpt>
      <trkpt lat="43.84613" lon="7.26148">
        <ele>778</ele>
        <time>2022-01-13T12:12:33.000Z</time>
      </trkpt>
      <trkpt lat="43.84612" lon="7.26148">
        <ele>778</ele>
        <time>2022-01-13T12:12:36.000Z</time>
      </trkpt>
      <trkpt lat="43.84611" lon="7.26148">
        <ele>777.79998779297</ele>
        <time>2022-01-13T12:12:38.000Z</time>
      </trkpt>
      <trkpt lat="43.8461" lon="7.26146">
        <ele>777.79998779297</ele>
        <time>2022-01-13T12:12:40.000Z</time>
      </trkpt>
      <trkpt lat="43.8461" lon="7.26145">
        <ele>777.40002441406</ele>
        <time>2022-01-13T12:12:46.000Z</time>
      </trkpt>
      <trkpt lat="43.84608" lon="7.26146">
        <ele>777.40002441406</ele>
        <time>2022-01-13T12:12:53.000Z</time>
      </trkpt>
      <trkpt lat="43.84608" lon="7.26148">
        <ele>778</ele>
        <time>2022-01-13T12:12:56.000Z</time>
      </trkpt>
      <trkpt lat="43.84608" lon="7.26147">
        <ele>778.20001220703</ele>
        <time>2022-01-13T12:12:57.000Z</time>
      </trkpt>
      <trkpt lat="43.84609" lon="7.26152">
        <ele>778.20001220703</ele>
        <time>2022-01-13T12:13:02.000Z</time>
      </trkpt>
      <trkpt lat="43.84609" lon="7.26153">
        <ele>778.40002441406</ele>
        <time>2022-01-13T12:13:03.000Z</time>
      </trkpt>
      <trkpt lat="43.84609" lon="7.26154">
        <ele>778.40002441406</ele>
        <time>2022-01-13T12:13:04.000Z</time>
      </trkpt>
      <trkpt lat="43.8461" lon="7.26156">
        <ele>778.40002441406</ele>
        <time>2022-01-13T12:13:07.000Z</time>
      </trkpt>
      <trkpt lat="43.8461" lon="7.26163">
        <ele>778.20001220703</ele>
        <time>2022-01-13T12:13:13.000Z</time>
      </trkpt>
      <trkpt lat="43.84611" lon="7.26164">
        <ele>778.40002441406</ele>
        <time>2022-01-13T12:13:20.000Z</time>
      </trkpt>
      <trkpt lat="43.84611" lon="7.26165">
        <ele>778.40002441406</ele>
        <time>2022-01-13T12:13:38.000Z</time>
      </trkpt>
      <trkpt lat="43.84611" lon="7.26162">
        <ele>778.59997558594</ele>
        <time>2022-01-13T12:13:51.000Z</time>
      </trkpt>
      <trkpt lat="43.8461" lon="7.26153">
        <ele>778.59997558594</ele>
        <time>2022-01-13T12:14:01.000Z</time>
      </trkpt>
      <trkpt lat="43.84608" lon="7.26152">
        <ele>778.40002441406</ele>
        <time>2022-01-13T12:14:09.000Z</time>
      </trkpt>
      <trkpt lat="43.84607" lon="7.26152">
        <ele>779</ele>
        <time>2022-01-13T12:14:19.000Z</time>
      </trkpt>
      <trkpt lat="43.84605" lon="7.26149">
        <ele>778.40002441406</ele>
        <time>2022-01-13T12:14:28.000Z</time>
      </trkpt>
      <trkpt lat="43.84604" lon="7.26149">
        <ele>779</ele>
        <time>2022-01-13T12:14:38.000Z</time>
      </trkpt>
      <trkpt lat="43.84603" lon="7.26149">
        <ele>779</ele>
        <time>2022-01-13T12:14:53.000Z</time>
      </trkpt>
      <trkpt lat="43.84603" lon="7.26148">
        <ele>779</ele>
        <time>2022-01-13T12:15:09.000Z</time>
      </trkpt>
      <trkpt lat="43.84604" lon="7.26149">
        <ele>778.79998779297</ele>
        <time>2022-01-13T12:15:20.000Z</time>
      </trkpt>
      <trkpt lat="43.84605" lon="7.2615">
        <ele>778.79998779297</ele>
        <time>2022-01-13T12:15:21.000Z</time>
      </trkpt>
      <trkpt lat="43.84607" lon="7.26152">
        <ele>778.20001220703</ele>
        <time>2022-01-13T12:15:27.000Z</time>
      </trkpt>
      <trkpt lat="43.84606" lon="7.26151">
        <ele>778.59997558594</ele>
        <time>2022-01-13T12:15:33.000Z</time>
      </trkpt>
      <trkpt lat="43.84605" lon="7.2615">
        <ele>778.79998779297</ele>
        <time>2022-01-13T12:15:39.000Z</time>
      </trkpt>
      <trkpt lat="43.84602" lon="7.26145">
        <ele>778.59997558594</ele>
        <time>2022-01-13T12:15:44.000Z</time>
      </trkpt>
      <trkpt lat="43.84592" lon="7.26141">
        <ele>778.79998779297</ele>
        <time>2022-01-13T12:15:50.000Z</time>
      </trkpt>
      <trkpt lat="43.8459" lon="7.26141">
        <ele>778.79998779297</ele>
        <time>2022-01-13T12:15:51.000Z</time>
      </trkpt>
      <trkpt lat="43.84583" lon="7.26145">
        <ele>778.40002441406</ele>
        <time>2022-01-13T12:15:55.000Z</time>
      </trkpt>
      <trkpt lat="43.84573" lon="7.26155">
        <ele>777.79998779297</ele>
        <time>2022-01-13T12:15:58.000Z</time>
      </trkpt>
      <trkpt lat="43.8457" lon="7.26159">
        <ele>777.20001220703</ele>
        <time>2022-01-13T12:15:59.000Z</time>
      </trkpt>
      <trkpt lat="43.84564" lon="7.26167">
        <ele>775.59997558594</ele>
        <time>2022-01-13T12:16:01.000Z</time>
      </trkpt>
      <trkpt lat="43.84559" lon="7.26174">
        <ele>773</ele>
        <time>2022-01-13T12:16:03.000Z</time>
      </trkpt>
      <trkpt lat="43.84557" lon="7.26176">
        <ele>771.79998779297</ele>
        <time>2022-01-13T12:16:04.000Z</time>
      </trkpt>
      <trkpt lat="43.84554" lon="7.26178">
        <ele>770.40002441406</ele>
        <time>2022-01-13T12:16:05.000Z</time>
      </trkpt>
      <trkpt lat="43.84551" lon="7.2618">
        <ele>771.59997558594</ele>
        <time>2022-01-13T12:16:06.000Z</time>
      </trkpt>
      <trkpt lat="43.84549" lon="7.26182">
        <ele>771.20001220703</ele>
        <time>2022-01-13T12:16:07.000Z</time>
      </trkpt>
      <trkpt lat="43.84546" lon="7.26181">
        <ele>770.40002441406</ele>
        <time>2022-01-13T12:16:08.000Z</time>
      </trkpt>
      <trkpt lat="43.84539" lon="7.26186">
        <ele>769</ele>
        <time>2022-01-13T12:16:11.000Z</time>
      </trkpt>
      <trkpt lat="43.84536" lon="7.26187">
        <ele>767.20001220703</ele>
        <time>2022-01-13T12:16:12.000Z</time>
      </trkpt>
      <trkpt lat="43.84533" lon="7.26185">
        <ele>766</ele>
        <time>2022-01-13T12:16:14.000Z</time>
      </trkpt>
      <trkpt lat="43.8453" lon="7.26185">
        <ele>765.59997558594</ele>
        <time>2022-01-13T12:16:15.000Z</time>
      </trkpt>
      <trkpt lat="43.84528" lon="7.26186">
        <ele>765</ele>
        <time>2022-01-13T12:16:16.000Z</time>
      </trkpt>
      <trkpt lat="43.84522" lon="7.2619">
        <ele>763.40002441406</ele>
        <time>2022-01-13T12:16:18.000Z</time>
      </trkpt>
      <trkpt lat="43.84521" lon="7.26192">
        <ele>762.40002441406</ele>
        <time>2022-01-13T12:16:19.000Z</time>
      </trkpt>
      <trkpt lat="43.84519" lon="7.26196">
        <ele>762</ele>
        <time>2022-01-13T12:16:20.000Z</time>
      </trkpt>
      <trkpt lat="43.84516" lon="7.26201">
        <ele>761.20001220703</ele>
        <time>2022-01-13T12:16:21.000Z</time>
      </trkpt>
      <trkpt lat="43.84512" lon="7.26204">
        <ele>760.59997558594</ele>
        <time>2022-01-13T12:16:22.000Z</time>
      </trkpt>
      <trkpt lat="43.84509" lon="7.26211">
        <ele>759.59997558594</ele>
        <time>2022-01-13T12:16:24.000Z</time>
      </trkpt>
      <trkpt lat="43.84507" lon="7.26215">
        <ele>759.20001220703</ele>
        <time>2022-01-13T12:16:25.000Z</time>
      </trkpt>
      <trkpt lat="43.84498" lon="7.26228">
        <ele>758</ele>
        <time>2022-01-13T12:16:29.000Z</time>
      </trkpt>
      <trkpt lat="43.84489" lon="7.26229">
        <ele>757.59997558594</ele>
        <time>2022-01-13T12:16:32.000Z</time>
      </trkpt>
      <trkpt lat="43.84487" lon="7.26227">
        <ele>757.20001220703</ele>
        <time>2022-01-13T12:16:33.000Z</time>
      </trkpt>
      <trkpt lat="43.84484" lon="7.26225">
        <ele>757</ele>
        <time>2022-01-13T12:16:34.000Z</time>
      </trkpt>
      <trkpt lat="43.84479" lon="7.26224">
        <ele>755.59997558594</ele>
        <time>2022-01-13T12:16:36.000Z</time>
      </trkpt>
      <trkpt lat="43.84475" lon="7.26229">
        <ele>754</ele>
        <time>2022-01-13T12:16:38.000Z</time>
      </trkpt>
      <trkpt lat="43.84469" lon="7.26232">
        <ele>752.40002441406</ele>
        <time>2022-01-13T12:16:40.000Z</time>
      </trkpt>
      <trkpt lat="43.84464" lon="7.26234">
        <ele>750.79998779297</ele>
        <time>2022-01-13T12:16:42.000Z</time>
      </trkpt>
      <trkpt lat="43.84458" lon="7.26242">
        <ele>750.20001220703</ele>
        <time>2022-01-13T12:16:44.000Z</time>
      </trkpt>
      <trkpt lat="43.84451" lon="7.2625">
        <ele>749.40002441406</ele>
        <time>2022-01-13T12:16:46.000Z</time>
      </trkpt>
      <trkpt lat="43.84447" lon="7.26255">
        <ele>749.20001220703</ele>
        <time>2022-01-13T12:16:47.000Z</time>
      </trkpt>
      <trkpt lat="43.84443" lon="7.26259">
        <ele>748.79998779297</ele>
        <time>2022-01-13T12:16:48.000Z</time>
      </trkpt>
      <trkpt lat="43.8444" lon="7.2626">
        <ele>748.79998779297</ele>
        <time>2022-01-13T12:16:49.000Z</time>
      </trkpt>
      <trkpt lat="43.84437" lon="7.26263">
        <ele>748</ele>
        <time>2022-01-13T12:16:50.000Z</time>
      </trkpt>
      <trkpt lat="43.84432" lon="7.26267">
        <ele>746.20001220703</ele>
        <time>2022-01-13T12:16:52.000Z</time>
      </trkpt>
      <trkpt lat="43.8443" lon="7.2627">
        <ele>745.40002441406</ele>
        <time>2022-01-13T12:16:53.000Z</time>
      </trkpt>
      <trkpt lat="43.84428" lon="7.26273">
        <ele>744.40002441406</ele>
        <time>2022-01-13T12:16:54.000Z</time>
      </trkpt>
      <trkpt lat="43.84423" lon="7.26273">
        <ele>742.40002441406</ele>
        <time>2022-01-13T12:16:56.000Z</time>
      </trkpt>
      <trkpt lat="43.8442" lon="7.26273">
        <ele>740.59997558594</ele>
        <time>2022-01-13T12:16:57.000Z</time>
      </trkpt>
      <trkpt lat="43.84413" lon="7.26277">
        <ele>738.59997558594</ele>
        <time>2022-01-13T12:16:59.000Z</time>
      </trkpt>
      <trkpt lat="43.84409" lon="7.26279">
        <ele>737.79998779297</ele>
        <time>2022-01-13T12:17:00.000Z</time>
      </trkpt>
      <trkpt lat="43.84406" lon="7.2628">
        <ele>737.20001220703</ele>
        <time>2022-01-13T12:17:01.000Z</time>
      </trkpt>
      <trkpt lat="43.844" lon="7.26284">
        <ele>735.59997558594</ele>
        <time>2022-01-13T12:17:03.000Z</time>
      </trkpt>
      <trkpt lat="43.84398" lon="7.26291">
        <ele>734.79998779297</ele>
        <time>2022-01-13T12:17:05.000Z</time>
      </trkpt>
      <trkpt lat="43.84396" lon="7.263">
        <ele>734.40002441406</ele>
        <time>2022-01-13T12:17:07.000Z</time>
      </trkpt>
      <trkpt lat="43.84392" lon="7.26311">
        <ele>734.20001220703</ele>
        <time>2022-01-13T12:17:10.000Z</time>
      </trkpt>
      <trkpt lat="43.8439" lon="7.26313">
        <ele>734.40002441406</ele>
        <time>2022-01-13T12:17:11.000Z</time>
      </trkpt>
      <trkpt lat="43.84379" lon="7.26317">
        <ele>734.20001220703</ele>
        <time>2022-01-13T12:17:14.000Z</time>
      </trkpt>
      <trkpt lat="43.84363" lon="7.26323">
        <ele>733</ele>
        <time>2022-01-13T12:17:18.000Z</time>
      </trkpt>
      <trkpt lat="43.84359" lon="7.26325">
        <ele>733</ele>
        <time>2022-01-13T12:17:19.000Z</time>
      </trkpt>
      <trkpt lat="43.84347" lon="7.26331">
        <ele>732.40002441406</ele>
        <time>2022-01-13T12:17:22.000Z</time>
      </trkpt>
      <trkpt lat="43.84343" lon="7.26334">
        <ele>732</ele>
        <time>2022-01-13T12:17:24.000Z</time>
      </trkpt>
      <trkpt lat="43.84339" lon="7.26335">
        <ele>731.79998779297</ele>
        <time>2022-01-13T12:17:25.000Z</time>
      </trkpt>
      <trkpt lat="43.84335" lon="7.26338">
        <ele>731.40002441406</ele>
        <time>2022-01-13T12:17:26.000Z</time>
      </trkpt>
      <trkpt lat="43.84329" lon="7.2634">
        <ele>731</ele>
        <time>2022-01-13T12:17:27.000Z</time>
      </trkpt>
      <trkpt lat="43.84324" lon="7.26342">
        <ele>730.20001220703</ele>
        <time>2022-01-13T12:17:28.000Z</time>
      </trkpt>
      <trkpt lat="43.84319" lon="7.26343">
        <ele>730</ele>
        <time>2022-01-13T12:17:29.000Z</time>
      </trkpt>
      <trkpt lat="43.84311" lon="7.26345">
        <ele>728</ele>
        <time>2022-01-13T12:17:31.000Z</time>
      </trkpt>
      <trkpt lat="43.84309" lon="7.26346">
        <ele>726.40002441406</ele>
        <time>2022-01-13T12:17:32.000Z</time>
      </trkpt>
      <trkpt lat="43.84306" lon="7.26346">
        <ele>725.40002441406</ele>
        <time>2022-01-13T12:17:33.000Z</time>
      </trkpt>
      <trkpt lat="43.84296" lon="7.26347">
        <ele>724</ele>
        <time>2022-01-13T12:17:35.000Z</time>
      </trkpt>
      <trkpt lat="43.84291" lon="7.26348">
        <ele>723</ele>
        <time>2022-01-13T12:17:36.000Z</time>
      </trkpt>
      <trkpt lat="43.84288" lon="7.26348">
        <ele>721.79998779297</ele>
        <time>2022-01-13T12:17:37.000Z</time>
      </trkpt>
      <trkpt lat="43.84284" lon="7.2635">
        <ele>721.20001220703</ele>
        <time>2022-01-13T12:17:38.000Z</time>
      </trkpt>
      <trkpt lat="43.8428" lon="7.26353">
        <ele>720.20001220703</ele>
        <time>2022-01-13T12:17:39.000Z</time>
      </trkpt>
      <trkpt lat="43.84272" lon="7.26356">
        <ele>718.59997558594</ele>
        <time>2022-01-13T12:17:41.000Z</time>
      </trkpt>
      <trkpt lat="43.84268" lon="7.26357">
        <ele>717.20001220703</ele>
        <time>2022-01-13T12:17:42.000Z</time>
      </trkpt>
      <trkpt lat="43.84265" lon="7.26357">
        <ele>716.20001220703</ele>
        <time>2022-01-13T12:17:43.000Z</time>
      </trkpt>
      <trkpt lat="43.8426" lon="7.26357">
        <ele>715</ele>
        <time>2022-01-13T12:17:45.000Z</time>
      </trkpt>
      <trkpt lat="43.84254" lon="7.26358">
        <ele>713.59997558594</ele>
        <time>2022-01-13T12:17:46.000Z</time>
      </trkpt>
      <trkpt lat="43.8425" lon="7.26358">
        <ele>712.59997558594</ele>
        <time>2022-01-13T12:17:47.000Z</time>
      </trkpt>
      <trkpt lat="43.84247" lon="7.26358">
        <ele>712</ele>
        <time>2022-01-13T12:17:48.000Z</time>
      </trkpt>
      <trkpt lat="43.84244" lon="7.26358">
        <ele>710.40002441406</ele>
        <time>2022-01-13T12:17:49.000Z</time>
      </trkpt>
      <trkpt lat="43.84241" lon="7.26358">
        <ele>709</ele>
        <time>2022-01-13T12:17:50.000Z</time>
      </trkpt>
      <trkpt lat="43.84239" lon="7.26359">
        <ele>707.79998779297</ele>
        <time>2022-01-13T12:17:51.000Z</time>
      </trkpt>
      <trkpt lat="43.84236" lon="7.26359">
        <ele>706.59997558594</ele>
        <time>2022-01-13T12:17:52.000Z</time>
      </trkpt>
      <trkpt lat="43.84233" lon="7.26359">
        <ele>705.40002441406</ele>
        <time>2022-01-13T12:17:54.000Z</time>
      </trkpt>
      <trkpt lat="43.84234" lon="7.26359">
        <ele>704.59997558594</ele>
        <time>2022-01-13T12:17:55.000Z</time>
      </trkpt>
      <trkpt lat="43.84233" lon="7.2636">
        <ele>704</ele>
        <time>2022-01-13T12:17:56.000Z</time>
      </trkpt>
      <trkpt lat="43.84231" lon="7.26361">
        <ele>703</ele>
        <time>2022-01-13T12:17:59.000Z</time>
      </trkpt>
      <trkpt lat="43.84228" lon="7.26364">
        <ele>702.79998779297</ele>
        <time>2022-01-13T12:18:01.000Z</time>
      </trkpt>
      <trkpt lat="43.84227" lon="7.26363">
        <ele>702.59997558594</ele>
        <time>2022-01-13T12:18:02.000Z</time>
      </trkpt>
      <trkpt lat="43.84227" lon="7.26361">
        <ele>702.20001220703</ele>
        <time>2022-01-13T12:18:04.000Z</time>
      </trkpt>
      <trkpt lat="43.84229" lon="7.26359">
        <ele>701.79998779297</ele>
        <time>2022-01-13T12:18:05.000Z</time>
      </trkpt>
      <trkpt lat="43.84236" lon="7.26355">
        <ele>700.20001220703</ele>
        <time>2022-01-13T12:18:08.000Z</time>
      </trkpt>
      <trkpt lat="43.84241" lon="7.26353">
        <ele>698.79998779297</ele>
        <time>2022-01-13T12:18:10.000Z</time>
      </trkpt>
      <trkpt lat="43.84244" lon="7.26348">
        <ele>697.59997558594</ele>
        <time>2022-01-13T12:18:12.000Z</time>
      </trkpt>
      <trkpt lat="43.84244" lon="7.26346">
        <ele>696.59997558594</ele>
        <time>2022-01-13T12:18:14.000Z</time>
      </trkpt>
      <trkpt lat="43.84243" lon="7.26346">
        <ele>695.59997558594</ele>
        <time>2022-01-13T12:18:16.000Z</time>
      </trkpt>
      <trkpt lat="43.84241" lon="7.26346">
        <ele>694.40002441406</ele>
        <time>2022-01-13T12:18:18.000Z</time>
      </trkpt>
      <trkpt lat="43.84235" lon="7.26345">
        <ele>693.79998779297</ele>
        <time>2022-01-13T12:18:20.000Z</time>
      </trkpt>
      <trkpt lat="43.84222" lon="7.26342">
        <ele>693</ele>
        <time>2022-01-13T12:18:23.000Z</time>
      </trkpt>
      <trkpt lat="43.84219" lon="7.26342">
        <ele>692.40002441406</ele>
        <time>2022-01-13T12:18:24.000Z</time>
      </trkpt>
      <trkpt lat="43.84217" lon="7.26338">
        <ele>691.79998779297</ele>
        <time>2022-01-13T12:18:25.000Z</time>
      </trkpt>
      <trkpt lat="43.84213" lon="7.26334">
        <ele>690.40002441406</ele>
        <time>2022-01-13T12:18:27.000Z</time>
      </trkpt>
      <trkpt lat="43.84208" lon="7.26336">
        <ele>689</ele>
        <time>2022-01-13T12:18:29.000Z</time>
      </trkpt>
      <trkpt lat="43.84206" lon="7.26338">
        <ele>688.59997558594</ele>
        <time>2022-01-13T12:18:30.000Z</time>
      </trkpt>
      <trkpt lat="43.84199" lon="7.26349">
        <ele>688</ele>
        <time>2022-01-13T12:18:34.000Z</time>
      </trkpt>
      <trkpt lat="43.84198" lon="7.26353">
        <ele>688</ele>
        <time>2022-01-13T12:18:35.000Z</time>
      </trkpt>
      <trkpt lat="43.84196" lon="7.26356">
        <ele>687.79998779297</ele>
        <time>2022-01-13T12:18:36.000Z</time>
      </trkpt>
      <trkpt lat="43.8419" lon="7.2636">
        <ele>687.40002441406</ele>
        <time>2022-01-13T12:18:38.000Z</time>
      </trkpt>
      <trkpt lat="43.84185" lon="7.26362">
        <ele>687.20001220703</ele>
        <time>2022-01-13T12:18:39.000Z</time>
      </trkpt>
      <trkpt lat="43.84178" lon="7.26363">
        <ele>686.59997558594</ele>
        <time>2022-01-13T12:18:41.000Z</time>
      </trkpt>
      <trkpt lat="43.84171" lon="7.26366">
        <ele>684.79998779297</ele>
        <time>2022-01-13T12:18:43.000Z</time>
      </trkpt>
      <trkpt lat="43.84167" lon="7.26367">
        <ele>683.59997558594</ele>
        <time>2022-01-13T12:18:44.000Z</time>
      </trkpt>
      <trkpt lat="43.84162" lon="7.26368">
        <ele>682.40002441406</ele>
        <time>2022-01-13T12:18:45.000Z</time>
      </trkpt>
      <trkpt lat="43.84158" lon="7.26369">
        <ele>681</ele>
        <time>2022-01-13T12:18:46.000Z</time>
      </trkpt>
      <trkpt lat="43.84155" lon="7.26369">
        <ele>679.40002441406</ele>
        <time>2022-01-13T12:18:47.000Z</time>
      </trkpt>
      <trkpt lat="43.84151" lon="7.26369">
        <ele>678.20001220703</ele>
        <time>2022-01-13T12:18:48.000Z</time>
      </trkpt>
      <trkpt lat="43.84148" lon="7.2637">
        <ele>676.40002441406</ele>
        <time>2022-01-13T12:18:49.000Z</time>
      </trkpt>
      <trkpt lat="43.84146" lon="7.26371">
        <ele>675</ele>
        <time>2022-01-13T12:18:50.000Z</time>
      </trkpt>
      <trkpt lat="43.84143" lon="7.26374">
        <ele>673.79998779297</ele>
        <time>2022-01-13T12:18:51.000Z</time>
      </trkpt>
      <trkpt lat="43.84139" lon="7.26377">
        <ele>672.40002441406</ele>
        <time>2022-01-13T12:18:52.000Z</time>
      </trkpt>
      <trkpt lat="43.84135" lon="7.2638">
        <ele>670.79998779297</ele>
        <time>2022-01-13T12:18:53.000Z</time>
      </trkpt>
      <trkpt lat="43.84126" lon="7.26385">
        <ele>669.59997558594</ele>
        <time>2022-01-13T12:18:55.000Z</time>
      </trkpt>
      <trkpt lat="43.84122" lon="7.26386">
        <ele>668.20001220703</ele>
        <time>2022-01-13T12:18:56.000Z</time>
      </trkpt>
      <trkpt lat="43.84114" lon="7.26389">
        <ele>666.79998779297</ele>
        <time>2022-01-13T12:18:58.000Z</time>
      </trkpt>
      <trkpt lat="43.84107" lon="7.26387">
        <ele>665.59997558594</ele>
        <time>2022-01-13T12:19:00.000Z</time>
      </trkpt>
      <trkpt lat="43.84103" lon="7.26385">
        <ele>664.79998779297</ele>
        <time>2022-01-13T12:19:01.000Z</time>
      </trkpt>
      <trkpt lat="43.84099" lon="7.26383">
        <ele>664.20001220703</ele>
        <time>2022-01-13T12:19:02.000Z</time>
      </trkpt>
      <trkpt lat="43.8409" lon="7.26384">
        <ele>662.79998779297</ele>
        <time>2022-01-13T12:19:05.000Z</time>
      </trkpt>
      <trkpt lat="43.84079" lon="7.26398">
        <ele>662.40002441406</ele>
        <time>2022-01-13T12:19:10.000Z</time>
      </trkpt>
      <trkpt lat="43.84066" lon="7.26409">
        <ele>663.59997558594</ele>
        <time>2022-01-13T12:19:16.000Z</time>
      </trkpt>
      <trkpt lat="43.84059" lon="7.26401">
        <ele>663.59997558594</ele>
        <time>2022-01-13T12:19:20.000Z</time>
      </trkpt>
      <trkpt lat="43.84056" lon="7.264">
        <ele>663.20001220703</ele>
        <time>2022-01-13T12:19:21.000Z</time>
      </trkpt>
      <trkpt lat="43.84051" lon="7.26403">
        <ele>662.20001220703</ele>
        <time>2022-01-13T12:19:23.000Z</time>
      </trkpt>
      <trkpt lat="43.84045" lon="7.26405">
        <ele>661.20001220703</ele>
        <time>2022-01-13T12:19:25.000Z</time>
      </trkpt>
      <trkpt lat="43.8403" lon="7.26408">
        <ele>660.59997558594</ele>
        <time>2022-01-13T12:19:29.000Z</time>
      </trkpt>
      <trkpt lat="43.84027" lon="7.26406">
        <ele>660.40002441406</ele>
        <time>2022-01-13T12:19:30.000Z</time>
      </trkpt>
      <trkpt lat="43.84026" lon="7.26403">
        <ele>660.20001220703</ele>
        <time>2022-01-13T12:19:31.000Z</time>
      </trkpt>
      <trkpt lat="43.84025" lon="7.26394">
        <ele>659</ele>
        <time>2022-01-13T12:19:34.000Z</time>
      </trkpt>
      <trkpt lat="43.84024" lon="7.26395">
        <ele>658</ele>
        <time>2022-01-13T12:19:35.000Z</time>
      </trkpt>
      <trkpt lat="43.84021" lon="7.26395">
        <ele>657.40002441406</ele>
        <time>2022-01-13T12:19:36.000Z</time>
      </trkpt>
      <trkpt lat="43.84016" lon="7.26393">
        <ele>656.20001220703</ele>
        <time>2022-01-13T12:19:38.000Z</time>
      </trkpt>
      <trkpt lat="43.84009" lon="7.26389">
        <ele>655.20001220703</ele>
        <time>2022-01-13T12:19:40.000Z</time>
      </trkpt>
      <trkpt lat="43.84002" lon="7.26388">
        <ele>654.20001220703</ele>
        <time>2022-01-13T12:19:42.000Z</time>
      </trkpt>
      <trkpt lat="43.83995" lon="7.26385">
        <ele>653.20001220703</ele>
        <time>2022-01-13T12:19:44.000Z</time>
      </trkpt>
      <trkpt lat="43.83992" lon="7.26386">
        <ele>652.40002441406</ele>
        <time>2022-01-13T12:19:45.000Z</time>
      </trkpt>
      <trkpt lat="43.83988" lon="7.26386">
        <ele>652</ele>
        <time>2022-01-13T12:19:46.000Z</time>
      </trkpt>
      <trkpt lat="43.8398" lon="7.26384">
        <ele>650.59997558594</ele>
        <time>2022-01-13T12:19:48.000Z</time>
      </trkpt>
      <trkpt lat="43.83977" lon="7.26384">
        <ele>649.79998779297</ele>
        <time>2022-01-13T12:19:49.000Z</time>
      </trkpt>
      <trkpt lat="43.83973" lon="7.26383">
        <ele>649</ele>
        <time>2022-01-13T12:19:50.000Z</time>
      </trkpt>
      <trkpt lat="43.83966" lon="7.26382">
        <ele>647</ele>
        <time>2022-01-13T12:19:52.000Z</time>
      </trkpt>
      <trkpt lat="43.8396" lon="7.26383">
        <ele>645.40002441406</ele>
        <time>2022-01-13T12:19:54.000Z</time>
      </trkpt>
      <trkpt lat="43.83953" lon="7.26386">
        <ele>644</ele>
        <time>2022-01-13T12:19:56.000Z</time>
      </trkpt>
      <trkpt lat="43.8395" lon="7.26385">
        <ele>642.79998779297</ele>
        <time>2022-01-13T12:19:58.000Z</time>
      </trkpt>
      <trkpt lat="43.83948" lon="7.26385">
        <ele>642.40002441406</ele>
        <time>2022-01-13T12:19:59.000Z</time>
      </trkpt>
      <trkpt lat="43.83946" lon="7.26387">
        <ele>641.59997558594</ele>
        <time>2022-01-13T12:20:00.000Z</time>
      </trkpt>
      <trkpt lat="43.83943" lon="7.26391">
        <ele>640.59997558594</ele>
        <time>2022-01-13T12:20:02.000Z</time>
      </trkpt>
      <trkpt lat="43.8394" lon="7.26392">
        <ele>640</ele>
        <time>2022-01-13T12:20:03.000Z</time>
      </trkpt>
      <trkpt lat="43.83937" lon="7.26399">
        <ele>639</ele>
        <time>2022-01-13T12:20:05.000Z</time>
      </trkpt>
      <trkpt lat="43.83935" lon="7.26401">
        <ele>638.40002441406</ele>
        <time>2022-01-13T12:20:06.000Z</time>
      </trkpt>
      <trkpt lat="43.83931" lon="7.26401">
        <ele>638</ele>
        <time>2022-01-13T12:20:07.000Z</time>
      </trkpt>
      <trkpt lat="43.83928" lon="7.26401">
        <ele>637.20001220703</ele>
        <time>2022-01-13T12:20:08.000Z</time>
      </trkpt>
      <trkpt lat="43.83924" lon="7.264">
        <ele>636.59997558594</ele>
        <time>2022-01-13T12:20:09.000Z</time>
      </trkpt>
      <trkpt lat="43.8392" lon="7.26401">
        <ele>635.79998779297</ele>
        <time>2022-01-13T12:20:10.000Z</time>
      </trkpt>
      <trkpt lat="43.83917" lon="7.26402">
        <ele>634.59997558594</ele>
        <time>2022-01-13T12:20:11.000Z</time>
      </trkpt>
      <trkpt lat="43.83912" lon="7.26407">
        <ele>633.20001220703</ele>
        <time>2022-01-13T12:20:13.000Z</time>
      </trkpt>
      <trkpt lat="43.83905" lon="7.26409">
        <ele>632.79998779297</ele>
        <time>2022-01-13T12:20:15.000Z</time>
      </trkpt>
      <trkpt lat="43.839" lon="7.2641">
        <ele>633.40002441406</ele>
        <time>2022-01-13T12:20:16.000Z</time>
      </trkpt>
      <trkpt lat="43.8389" lon="7.26413">
        <ele>633.40002441406</ele>
        <time>2022-01-13T12:20:18.000Z</time>
      </trkpt>
      <trkpt lat="43.83882" lon="7.26419">
        <ele>632.59997558594</ele>
        <time>2022-01-13T12:20:20.000Z</time>
      </trkpt>
      <trkpt lat="43.8388" lon="7.26422">
        <ele>631.59997558594</ele>
        <time>2022-01-13T12:20:21.000Z</time>
      </trkpt>
      <trkpt lat="43.83874" lon="7.26426">
        <ele>631</ele>
        <time>2022-01-13T12:20:24.000Z</time>
      </trkpt>
      <trkpt lat="43.83867" lon="7.26426">
        <ele>632.40002441406</ele>
        <time>2022-01-13T12:20:26.000Z</time>
      </trkpt>
      <trkpt lat="43.83863" lon="7.26427">
        <ele>633.20001220703</ele>
        <time>2022-01-13T12:20:27.000Z</time>
      </trkpt>
      <trkpt lat="43.83854" lon="7.26433">
        <ele>633.40002441406</ele>
        <time>2022-01-13T12:20:30.000Z</time>
      </trkpt>
      <trkpt lat="43.8384" lon="7.2644">
        <ele>634.20001220703</ele>
        <time>2022-01-13T12:20:36.000Z</time>
      </trkpt>
      <trkpt lat="43.83838" lon="7.2644">
        <ele>634.40002441406</ele>
        <time>2022-01-13T12:20:37.000Z</time>
      </trkpt>
      <trkpt lat="43.83831" lon="7.2644">
        <ele>635.79998779297</ele>
        <time>2022-01-13T12:20:40.000Z</time>
      </trkpt>
      <trkpt lat="43.83828" lon="7.2644">
        <ele>636.20001220703</ele>
        <time>2022-01-13T12:20:41.000Z</time>
      </trkpt>
      <trkpt lat="43.83804" lon="7.26438">
        <ele>636.79998779297</ele>
        <time>2022-01-13T12:20:48.000Z</time>
      </trkpt>
      <trkpt lat="43.83777" lon="7.26436">
        <ele>636.40002441406</ele>
        <time>2022-01-13T12:20:55.000Z</time>
      </trkpt>
      <trkpt lat="43.83748" lon="7.26437">
        <ele>635.79998779297</ele>
        <time>2022-01-13T12:21:03.000Z</time>
      </trkpt>
      <trkpt lat="43.83724" lon="7.26438">
        <ele>636.79998779297</ele>
        <time>2022-01-13T12:21:10.000Z</time>
      </trkpt>
      <trkpt lat="43.83695" lon="7.26433">
        <ele>637.59997558594</ele>
        <time>2022-01-13T12:21:18.000Z</time>
      </trkpt>
      <trkpt lat="43.83676" lon="7.26431">
        <ele>637.20001220703</ele>
        <time>2022-01-13T12:21:23.000Z</time>
      </trkpt>
      <trkpt lat="43.83654" lon="7.26429">
        <ele>637.59997558594</ele>
        <time>2022-01-13T12:21:29.000Z</time>
      </trkpt>
      <trkpt lat="43.83634" lon="7.26424">
        <ele>637.79998779297</ele>
        <time>2022-01-13T12:21:33.000Z</time>
      </trkpt>
      <trkpt lat="43.83619" lon="7.26414">
        <ele>636.59997558594</ele>
        <time>2022-01-13T12:21:36.000Z</time>
      </trkpt>
      <trkpt lat="43.83613" lon="7.26414">
        <ele>635.79998779297</ele>
        <time>2022-01-13T12:21:37.000Z</time>
      </trkpt>
      <trkpt lat="43.83604" lon="7.26415">
        <ele>634</ele>
        <time>2022-01-13T12:21:39.000Z</time>
      </trkpt>
      <trkpt lat="43.83599" lon="7.26415">
        <ele>633.59997558594</ele>
        <time>2022-01-13T12:21:40.000Z</time>
      </trkpt>
      <trkpt lat="43.83595" lon="7.26416">
        <ele>633</ele>
        <time>2022-01-13T12:21:41.000Z</time>
      </trkpt>
      <trkpt lat="43.8359" lon="7.26416">
        <ele>632.59997558594</ele>
        <time>2022-01-13T12:21:42.000Z</time>
      </trkpt>
      <trkpt lat="43.83572" lon="7.26414">
        <ele>632</ele>
        <time>2022-01-13T12:21:46.000Z</time>
      </trkpt>
      <trkpt lat="43.8357" lon="7.2641">
        <ele>632</ele>
        <time>2022-01-13T12:21:47.000Z</time>
      </trkpt>
      <trkpt lat="43.83568" lon="7.26405">
        <ele>631.79998779297</ele>
        <time>2022-01-13T12:21:48.000Z</time>
      </trkpt>
      <trkpt lat="43.8356" lon="7.26396">
        <ele>631.40002441406</ele>
        <time>2022-01-13T12:21:50.000Z</time>
      </trkpt>
      <trkpt lat="43.8355" lon="7.26388">
        <ele>630.79998779297</ele>
        <time>2022-01-13T12:21:52.000Z</time>
      </trkpt>
      <trkpt lat="43.83547" lon="7.26383">
        <ele>630.40002441406</ele>
        <time>2022-01-13T12:21:53.000Z</time>
      </trkpt>
      <trkpt lat="43.83544" lon="7.26375">
        <ele>629.20001220703</ele>
        <time>2022-01-13T12:21:55.000Z</time>
      </trkpt>
      <trkpt lat="43.83542" lon="7.26374">
        <ele>627.79998779297</ele>
        <time>2022-01-13T12:21:57.000Z</time>
      </trkpt>
      <trkpt lat="43.83543" lon="7.26375">
        <ele>627.40002441406</ele>
        <time>2022-01-13T12:21:58.000Z</time>
      </trkpt>
      <trkpt lat="43.83542" lon="7.26375">
        <ele>627</ele>
        <time>2022-01-13T12:22:11.000Z</time>
      </trkpt>
      <trkpt lat="43.83541" lon="7.26375">
        <ele>626.79998779297</ele>
        <time>2022-01-13T12:22:33.000Z</time>
      </trkpt>
      <trkpt lat="43.83541" lon="7.26375">
        <ele>626.79998779297</ele>
        <time>2022-01-13T12:22:35.000Z</time>
      </trkpt>
      <trkpt lat="43.8354" lon="7.26376">
        <ele>626.79998779297</ele>
        <time>2022-01-13T12:23:01.000Z</time>
      </trkpt>
      <trkpt lat="43.83537" lon="7.26373">
        <ele>626.79998779297</ele>
        <time>2022-01-13T12:23:06.000Z</time>
      </trkpt>
      <trkpt lat="43.83535" lon="7.26373">
        <ele>626.79998779297</ele>
        <time>2022-01-13T12:23:07.000Z</time>
      </trkpt>
      <trkpt lat="43.83523" lon="7.26381">
        <ele>625.79998779297</ele>
        <time>2022-01-13T12:23:11.000Z</time>
      </trkpt>
      <trkpt lat="43.83521" lon="7.26385">
        <ele>625.40002441406</ele>
        <time>2022-01-13T12:23:12.000Z</time>
      </trkpt>
      <trkpt lat="43.83521" lon="7.26396">
        <ele>624.20001220703</ele>
        <time>2022-01-13T12:23:14.000Z</time>
      </trkpt>
      <trkpt lat="43.83513" lon="7.26407">
        <ele>623.40002441406</ele>
        <time>2022-01-13T12:23:17.000Z</time>
      </trkpt>
      <trkpt lat="43.83508" lon="7.26407">
        <ele>623.20001220703</ele>
        <time>2022-01-13T12:23:19.000Z</time>
      </trkpt>
      <trkpt lat="43.83505" lon="7.2641">
        <ele>623.20001220703</ele>
        <time>2022-01-13T12:23:20.000Z</time>
      </trkpt>
      <trkpt lat="43.83493" lon="7.2642">
        <ele>621.59997558594</ele>
        <time>2022-01-13T12:23:24.000Z</time>
      </trkpt>
      <trkpt lat="43.8349" lon="7.26422">
        <ele>620.40002441406</ele>
        <time>2022-01-13T12:23:25.000Z</time>
      </trkpt>
      <trkpt lat="43.83485" lon="7.26423">
        <ele>618.59997558594</ele>
        <time>2022-01-13T12:23:27.000Z</time>
      </trkpt>
      <trkpt lat="43.83478" lon="7.26425">
        <ele>617</ele>
        <time>2022-01-13T12:23:29.000Z</time>
      </trkpt>
      <trkpt lat="43.83476" lon="7.26425">
        <ele>616.20001220703</ele>
        <time>2022-01-13T12:23:30.000Z</time>
      </trkpt>
      <trkpt lat="43.83474" lon="7.26424">
        <ele>615.59997558594</ele>
        <time>2022-01-13T12:23:31.000Z</time>
      </trkpt>
      <trkpt lat="43.8347" lon="7.26428">
        <ele>614.40002441406</ele>
        <time>2022-01-13T12:23:33.000Z</time>
      </trkpt>
      <trkpt lat="43.83468" lon="7.26432">
        <ele>613.40002441406</ele>
        <time>2022-01-13T12:23:34.000Z</time>
      </trkpt>
      <trkpt lat="43.83466" lon="7.26436">
        <ele>613</ele>
        <time>2022-01-13T12:23:35.000Z</time>
      </trkpt>
      <trkpt lat="43.83462" lon="7.2644">
        <ele>611.59997558594</ele>
        <time>2022-01-13T12:23:37.000Z</time>
      </trkpt>
      <trkpt lat="43.8346" lon="7.2644">
        <ele>611.40002441406</ele>
        <time>2022-01-13T12:23:38.000Z</time>
      </trkpt>
      <trkpt lat="43.83462" lon="7.2644">
        <ele>610.59997558594</ele>
        <time>2022-01-13T12:23:40.000Z</time>
      </trkpt>
      <trkpt lat="43.83462" lon="7.26439">
        <ele>610</ele>
        <time>2022-01-13T12:23:42.000Z</time>
      </trkpt>
      <trkpt lat="43.83461" lon="7.26439">
        <ele>610.40002441406</ele>
        <time>2022-01-13T12:23:47.000Z</time>
      </trkpt>
      <trkpt lat="43.83459" lon="7.26441">
        <ele>610.79998779297</ele>
        <time>2022-01-13T12:23:51.000Z</time>
      </trkpt>
      <trkpt lat="43.8346" lon="7.26442">
        <ele>611</ele>
        <time>2022-01-13T12:23:52.000Z</time>
      </trkpt>
      <trkpt lat="43.83456" lon="7.26444">
        <ele>611.20001220703</ele>
        <time>2022-01-13T12:23:58.000Z</time>
      </trkpt>
      <trkpt lat="43.83455" lon="7.26444">
        <ele>610.40002441406</ele>
        <time>2022-01-13T12:24:05.000Z</time>
      </trkpt>
      <trkpt lat="43.83453" lon="7.26446">
        <ele>610.20001220703</ele>
        <time>2022-01-13T12:24:08.000Z</time>
      </trkpt>
      <trkpt lat="43.83451" lon="7.26449">
        <ele>610.20001220703</ele>
        <time>2022-01-13T12:24:10.000Z</time>
      </trkpt>
      <trkpt lat="43.83446" lon="7.26455">
        <ele>610</ele>
        <time>2022-01-13T12:24:13.000Z</time>
      </trkpt>
      <trkpt lat="43.83443" lon="7.26456">
        <ele>610</ele>
        <time>2022-01-13T12:24:14.000Z</time>
      </trkpt>
      <trkpt lat="43.83434" lon="7.26469">
        <ele>610</ele>
        <time>2022-01-13T12:24:18.000Z</time>
      </trkpt>
      <trkpt lat="43.83426" lon="7.26478">
        <ele>609.20001220703</ele>
        <time>2022-01-13T12:24:21.000Z</time>
      </trkpt>
      <trkpt lat="43.83424" lon="7.26482">
        <ele>609</ele>
        <time>2022-01-13T12:24:22.000Z</time>
      </trkpt>
      <trkpt lat="43.83421" lon="7.26486">
        <ele>608.79998779297</ele>
        <time>2022-01-13T12:24:23.000Z</time>
      </trkpt>
      <trkpt lat="43.83418" lon="7.26487">
        <ele>608.79998779297</ele>
        <time>2022-01-13T12:24:24.000Z</time>
      </trkpt>
      <trkpt lat="43.83414" lon="7.26493">
        <ele>609.20001220703</ele>
        <time>2022-01-13T12:24:26.000Z</time>
      </trkpt>
      <trkpt lat="43.83404" lon="7.26496">
        <ele>609.20001220703</ele>
        <time>2022-01-13T12:24:29.000Z</time>
      </trkpt>
      <trkpt lat="43.83395" lon="7.265">
        <ele>608.59997558594</ele>
        <time>2022-01-13T12:24:32.000Z</time>
      </trkpt>
      <trkpt lat="43.83392" lon="7.26502">
        <ele>608.40002441406</ele>
        <time>2022-01-13T12:24:36.000Z</time>
      </trkpt>
      <trkpt lat="43.83387" lon="7.26505">
        <ele>610</ele>
        <time>2022-01-13T12:24:42.000Z</time>
      </trkpt>
      <trkpt lat="43.83385" lon="7.26505">
        <ele>610.40002441406</ele>
        <time>2022-01-13T12:24:44.000Z</time>
      </trkpt>
      <trkpt lat="43.83385" lon="7.26506">
        <ele>610.40002441406</ele>
        <time>2022-01-13T12:24:48.000Z</time>
      </trkpt>
      <trkpt lat="43.83381" lon="7.26508">
        <ele>611.20001220703</ele>
        <time>2022-01-13T12:24:54.000Z</time>
      </trkpt>
      <trkpt lat="43.8338" lon="7.26509">
        <ele>611.40002441406</ele>
        <time>2022-01-13T12:24:55.000Z</time>
      </trkpt>
      <trkpt lat="43.83379" lon="7.2651">
        <ele>611.40002441406</ele>
        <time>2022-01-13T12:24:59.000Z</time>
      </trkpt>
      <trkpt lat="43.83377" lon="7.26511">
        <ele>611.59997558594</ele>
        <time>2022-01-13T12:25:01.000Z</time>
      </trkpt>
      <trkpt lat="43.8337" lon="7.26514">
        <ele>611.59997558594</ele>
        <time>2022-01-13T12:25:04.000Z</time>
      </trkpt>
      <trkpt lat="43.83358" lon="7.26517">
        <ele>610.59997558594</ele>
        <time>2022-01-13T12:25:08.000Z</time>
      </trkpt>
      <trkpt lat="43.83355" lon="7.26518">
        <ele>610.20001220703</ele>
        <time>2022-01-13T12:25:09.000Z</time>
      </trkpt>
      <trkpt lat="43.83353" lon="7.26518">
        <ele>609</ele>
        <time>2022-01-13T12:25:11.000Z</time>
      </trkpt>
      <trkpt lat="43.83353" lon="7.26519">
        <ele>608.59997558594</ele>
        <time>2022-01-13T12:25:12.000Z</time>
      </trkpt>
      <trkpt lat="43.83353" lon="7.26519">
        <ele>607.59997558594</ele>
        <time>2022-01-13T12:25:14.000Z</time>
      </trkpt>
      <trkpt lat="43.83351" lon="7.26522">
        <ele>607.79998779297</ele>
        <time>2022-01-13T12:25:17.000Z</time>
      </trkpt>
      <trkpt lat="43.8335" lon="7.26523">
        <ele>608.79998779297</ele>
        <time>2022-01-13T12:25:22.000Z</time>
      </trkpt>
      <trkpt lat="43.83347" lon="7.26522">
        <ele>609</ele>
        <time>2022-01-13T12:25:25.000Z</time>
      </trkpt>
      <trkpt lat="43.83341" lon="7.26521">
        <ele>608.79998779297</ele>
        <time>2022-01-13T12:25:28.000Z</time>
      </trkpt>
      <trkpt lat="43.83338" lon="7.26523">
        <ele>608.20001220703</ele>
        <time>2022-01-13T12:25:30.000Z</time>
      </trkpt>
      <trkpt lat="43.83335" lon="7.26524">
        <ele>607.79998779297</ele>
        <time>2022-01-13T12:25:31.000Z</time>
      </trkpt>
      <trkpt lat="43.83332" lon="7.26524">
        <ele>607.20001220703</ele>
        <time>2022-01-13T12:25:32.000Z</time>
      </trkpt>
      <trkpt lat="43.8333" lon="7.26526">
        <ele>606.59997558594</ele>
        <time>2022-01-13T12:25:33.000Z</time>
      </trkpt>
      <trkpt lat="43.83328" lon="7.26527">
        <ele>606.20001220703</ele>
        <time>2022-01-13T12:25:34.000Z</time>
      </trkpt>
      <trkpt lat="43.83326" lon="7.26531">
        <ele>605.59997558594</ele>
        <time>2022-01-13T12:25:36.000Z</time>
      </trkpt>
      <trkpt lat="43.83325" lon="7.26534">
        <ele>605.59997558594</ele>
        <time>2022-01-13T12:25:38.000Z</time>
      </trkpt>
      <trkpt lat="43.8332" lon="7.26537">
        <ele>606.59997558594</ele>
        <time>2022-01-13T12:25:41.000Z</time>
      </trkpt>
      <trkpt lat="43.83316" lon="7.26538">
        <ele>607</ele>
        <time>2022-01-13T12:25:42.000Z</time>
      </trkpt>
      <trkpt lat="43.83306" lon="7.26539">
        <ele>607.40002441406</ele>
        <time>2022-01-13T12:25:44.000Z</time>
      </trkpt>
      <trkpt lat="43.83302" lon="7.2654">
        <ele>607.20001220703</ele>
        <time>2022-01-13T12:25:45.000Z</time>
      </trkpt>
      <trkpt lat="43.83298" lon="7.26543">
        <ele>606.59997558594</ele>
        <time>2022-01-13T12:25:46.000Z</time>
      </trkpt>
      <trkpt lat="43.83289" lon="7.26548">
        <ele>605</ele>
        <time>2022-01-13T12:25:48.000Z</time>
      </trkpt>
      <trkpt lat="43.83286" lon="7.26549">
        <ele>603.79998779297</ele>
        <time>2022-01-13T12:25:49.000Z</time>
      </trkpt>
      <trkpt lat="43.83281" lon="7.26546">
        <ele>602.40002441406</ele>
        <time>2022-01-13T12:25:51.000Z</time>
      </trkpt>
      <trkpt lat="43.83277" lon="7.26544">
        <ele>601.59997558594</ele>
        <time>2022-01-13T12:25:52.000Z</time>
      </trkpt>
      <trkpt lat="43.83275" lon="7.26542">
        <ele>601.20001220703</ele>
        <time>2022-01-13T12:25:53.000Z</time>
      </trkpt>
      <trkpt lat="43.83273" lon="7.2654">
        <ele>600.79998779297</ele>
        <time>2022-01-13T12:25:54.000Z</time>
      </trkpt>
      <trkpt lat="43.8327" lon="7.26542">
        <ele>600</ele>
        <time>2022-01-13T12:25:55.000Z</time>
      </trkpt>
      <trkpt lat="43.83268" lon="7.26542">
        <ele>599.40002441406</ele>
        <time>2022-01-13T12:25:56.000Z</time>
      </trkpt>
      <trkpt lat="43.83262" lon="7.26541">
        <ele>597.79998779297</ele>
        <time>2022-01-13T12:25:57.000Z</time>
      </trkpt>
      <trkpt lat="43.83256" lon="7.26544">
        <ele>596.40002441406</ele>
        <time>2022-01-13T12:25:59.000Z</time>
      </trkpt>
      <trkpt lat="43.83253" lon="7.26546">
        <ele>595</ele>
        <time>2022-01-13T12:26:00.000Z</time>
      </trkpt>
      <trkpt lat="43.83246" lon="7.26551">
        <ele>594</ele>
        <time>2022-01-13T12:26:02.000Z</time>
      </trkpt>
      <trkpt lat="43.83243" lon="7.26553">
        <ele>593.59997558594</ele>
        <time>2022-01-13T12:26:03.000Z</time>
      </trkpt>
      <trkpt lat="43.83236" lon="7.26555">
        <ele>594</ele>
        <time>2022-01-13T12:26:05.000Z</time>
      </trkpt>
      <trkpt lat="43.83226" lon="7.26555">
        <ele>594</ele>
        <time>2022-01-13T12:26:07.000Z</time>
      </trkpt>
      <trkpt lat="43.83217" lon="7.26557">
        <ele>593.20001220703</ele>
        <time>2022-01-13T12:26:09.000Z</time>
      </trkpt>
      <trkpt lat="43.83211" lon="7.26558">
        <ele>592.20001220703</ele>
        <time>2022-01-13T12:26:10.000Z</time>
      </trkpt>
      <trkpt lat="43.83207" lon="7.26557">
        <ele>591.20001220703</ele>
        <time>2022-01-13T12:26:11.000Z</time>
      </trkpt>
      <trkpt lat="43.83203" lon="7.26556">
        <ele>590</ele>
        <time>2022-01-13T12:26:12.000Z</time>
      </trkpt>
      <trkpt lat="43.83198" lon="7.26555">
        <ele>589.20001220703</ele>
        <time>2022-01-13T12:26:13.000Z</time>
      </trkpt>
      <trkpt lat="43.83194" lon="7.26555">
        <ele>588.40002441406</ele>
        <time>2022-01-13T12:26:14.000Z</time>
      </trkpt>
      <trkpt lat="43.8319" lon="7.26556">
        <ele>586.79998779297</ele>
        <time>2022-01-13T12:26:15.000Z</time>
      </trkpt>
      <trkpt lat="43.83183" lon="7.26555">
        <ele>586</ele>
        <time>2022-01-13T12:26:17.000Z</time>
      </trkpt>
      <trkpt lat="43.83179" lon="7.26553">
        <ele>584.79998779297</ele>
        <time>2022-01-13T12:26:18.000Z</time>
      </trkpt>
      <trkpt lat="43.83168" lon="7.26553">
        <ele>583</ele>
        <time>2022-01-13T12:26:21.000Z</time>
      </trkpt>
      <trkpt lat="43.83165" lon="7.26553">
        <ele>581.20001220703</ele>
        <time>2022-01-13T12:26:22.000Z</time>
      </trkpt>
      <trkpt lat="43.83158" lon="7.26552">
        <ele>579.79998779297</ele>
        <time>2022-01-13T12:26:24.000Z</time>
      </trkpt>
      <trkpt lat="43.83156" lon="7.26554">
        <ele>578.59997558594</ele>
        <time>2022-01-13T12:26:25.000Z</time>
      </trkpt>
      <trkpt lat="43.83143" lon="7.26556">
        <ele>578</ele>
        <time>2022-01-13T12:26:30.000Z</time>
      </trkpt>
      <trkpt lat="43.8314" lon="7.26555">
        <ele>578.20001220703</ele>
        <time>2022-01-13T12:26:31.000Z</time>
      </trkpt>
      <trkpt lat="43.83135" lon="7.26554">
        <ele>577.40002441406</ele>
        <time>2022-01-13T12:26:33.000Z</time>
      </trkpt>
      <trkpt lat="43.8313" lon="7.26553">
        <ele>576.20001220703</ele>
        <time>2022-01-13T12:26:35.000Z</time>
      </trkpt>
      <trkpt lat="43.83129" lon="7.26553">
        <ele>574.59997558594</ele>
        <time>2022-01-13T12:26:37.000Z</time>
      </trkpt>
      <trkpt lat="43.83129" lon="7.26553">
        <ele>574.20001220703</ele>
        <time>2022-01-13T12:26:38.000Z</time>
      </trkpt>
      <trkpt lat="43.83128" lon="7.26553">
        <ele>573.40002441406</ele>
        <time>2022-01-13T12:26:40.000Z</time>
      </trkpt>
      <trkpt lat="43.83128" lon="7.26554">
        <ele>573.20001220703</ele>
        <time>2022-01-13T12:26:44.000Z</time>
      </trkpt>
      <trkpt lat="43.83127" lon="7.26556">
        <ele>572.40002441406</ele>
        <time>2022-01-13T12:26:52.000Z</time>
      </trkpt>
      <trkpt lat="43.83126" lon="7.26556">
        <ele>573.59997558594</ele>
        <time>2022-01-13T12:27:04.000Z</time>
      </trkpt>
      <trkpt lat="43.83126" lon="7.26557">
        <ele>573</ele>
        <time>2022-01-13T12:27:15.000Z</time>
      </trkpt>
      <trkpt lat="43.83126" lon="7.26557">
        <ele>573.20001220703</ele>
        <time>2022-01-13T12:27:22.000Z</time>
      </trkpt>
      <trkpt lat="43.83123" lon="7.26556">
        <ele>573.40002441406</ele>
        <time>2022-01-13T12:27:27.000Z</time>
      </trkpt>
      <trkpt lat="43.83121" lon="7.26555">
        <ele>573.40002441406</ele>
        <time>2022-01-13T12:27:28.000Z</time>
      </trkpt>
      <trkpt lat="43.83109" lon="7.26551">
        <ele>572</ele>
        <time>2022-01-13T12:27:32.000Z</time>
      </trkpt>
      <trkpt lat="43.83108" lon="7.26551">
        <ele>571.20001220703</ele>
        <time>2022-01-13T12:27:33.000Z</time>
      </trkpt>
      <trkpt lat="43.83107" lon="7.26552">
        <ele>570.79998779297</ele>
        <time>2022-01-13T12:27:34.000Z</time>
      </trkpt>
      <trkpt lat="43.83107" lon="7.26551">
        <ele>569.79998779297</ele>
        <time>2022-01-13T12:27:36.000Z</time>
      </trkpt>
      <trkpt lat="43.83106" lon="7.26552">
        <ele>569.59997558594</ele>
        <time>2022-01-13T12:27:41.000Z</time>
      </trkpt>
      <trkpt lat="43.83102" lon="7.26552">
        <ele>569.20001220703</ele>
        <time>2022-01-13T12:27:48.000Z</time>
      </trkpt>
      <trkpt lat="43.83094" lon="7.26549">
        <ele>568.59997558594</ele>
        <time>2022-01-13T12:27:51.000Z</time>
      </trkpt>
      <trkpt lat="43.83088" lon="7.26549">
        <ele>567.59997558594</ele>
        <time>2022-01-13T12:27:53.000Z</time>
      </trkpt>
      <trkpt lat="43.83086" lon="7.26549">
        <ele>567.40002441406</ele>
        <time>2022-01-13T12:27:54.000Z</time>
      </trkpt>
      <trkpt lat="43.8308" lon="7.2655">
        <ele>566.20001220703</ele>
        <time>2022-01-13T12:27:56.000Z</time>
      </trkpt>
      <trkpt lat="43.83063" lon="7.26554">
        <ele>565</ele>
        <time>2022-01-13T12:28:01.000Z</time>
      </trkpt>
      <trkpt lat="43.83048" lon="7.26558">
        <ele>564.59997558594</ele>
        <time>2022-01-13T12:28:07.000Z</time>
      </trkpt>
      <trkpt lat="43.83033" lon="7.26565">
        <ele>564.20001220703</ele>
        <time>2022-01-13T12:28:12.000Z</time>
      </trkpt>
      <trkpt lat="43.83023" lon="7.26574">
        <ele>564.79998779297</ele>
        <time>2022-01-13T12:28:17.000Z</time>
      </trkpt>
      <trkpt lat="43.83015" lon="7.26581">
        <ele>566.40002441406</ele>
        <time>2022-01-13T12:28:21.000Z</time>
      </trkpt>
      <trkpt lat="43.83011" lon="7.26584">
        <ele>567.40002441406</ele>
        <time>2022-01-13T12:28:23.000Z</time>
      </trkpt>
      <trkpt lat="43.82994" lon="7.26593">
        <ele>567.40002441406</ele>
        <time>2022-01-13T12:28:30.000Z</time>
      </trkpt>
      <trkpt lat="43.82981" lon="7.26598">
        <ele>566.40002441406</ele>
        <time>2022-01-13T12:28:35.000Z</time>
      </trkpt>
      <trkpt lat="43.82979" lon="7.26599">
        <ele>566</ele>
        <time>2022-01-13T12:28:36.000Z</time>
      </trkpt>
      <trkpt lat="43.82974" lon="7.26605">
        <ele>564.79998779297</ele>
        <time>2022-01-13T12:28:39.000Z</time>
      </trkpt>
      <trkpt lat="43.82964" lon="7.26618">
        <ele>565</ele>
        <time>2022-01-13T12:28:45.000Z</time>
      </trkpt>
      <trkpt lat="43.82964" lon="7.26619">
        <ele>566</ele>
        <time>2022-01-13T12:28:48.000Z</time>
      </trkpt>
      <trkpt lat="43.82964" lon="7.26619">
        <ele>566.20001220703</ele>
        <time>2022-01-13T12:28:49.000Z</time>
      </trkpt>
      <trkpt lat="43.82963" lon="7.26619">
        <ele>567</ele>
        <time>2022-01-13T12:29:00.000Z</time>
      </trkpt>
      <trkpt lat="43.82962" lon="7.2662">
        <ele>567.20001220703</ele>
        <time>2022-01-13T12:29:16.000Z</time>
      </trkpt>
      <trkpt lat="43.82961" lon="7.26621">
        <ele>567.59997558594</ele>
        <time>2022-01-13T12:29:25.000Z</time>
      </trkpt>
      <trkpt lat="43.82961" lon="7.2662">
        <ele>567.20001220703</ele>
        <time>2022-01-13T12:29:32.000Z</time>
      </trkpt>
      <trkpt lat="43.8296" lon="7.2662">
        <ele>567.79998779297</ele>
        <time>2022-01-13T12:29:42.000Z</time>
      </trkpt>
      <trkpt lat="43.82959" lon="7.26621">
        <ele>568</ele>
        <time>2022-01-13T12:30:00.000Z</time>
      </trkpt>
      <trkpt lat="43.82959" lon="7.26621">
        <ele>568</ele>
        <time>2022-01-13T12:30:01.000Z</time>
      </trkpt>
      <trkpt lat="43.82959" lon="7.26621">
        <ele>568.20001220703</ele>
        <time>2022-01-13T12:30:23.000Z</time>
      </trkpt>
      <trkpt lat="43.82958" lon="7.26618">
        <ele>568</ele>
        <time>2022-01-13T12:30:47.000Z</time>
      </trkpt>
      <trkpt lat="43.82958" lon="7.26618">
        <ele>568.20001220703</ele>
        <time>2022-01-13T12:30:56.000Z</time>
      </trkpt>
      <trkpt lat="43.82959" lon="7.26619">
        <ele>568.40002441406</ele>
        <time>2022-01-13T12:31:12.000Z</time>
      </trkpt>
      <trkpt lat="43.82959" lon="7.26618">
        <ele>568.40002441406</ele>
        <time>2022-01-13T12:31:23.000Z</time>
      </trkpt>
      <trkpt lat="43.8296" lon="7.26621">
        <ele>568.40002441406</ele>
        <time>2022-01-13T12:31:44.000Z</time>
      </trkpt>
      <trkpt lat="43.8296" lon="7.26621">
        <ele>568.59997558594</ele>
        <time>2022-01-13T12:32:03.000Z</time>
      </trkpt>
      <trkpt lat="43.8296" lon="7.2662">
        <ele>568.40002441406</ele>
        <time>2022-01-13T12:32:26.000Z</time>
      </trkpt>
      <trkpt lat="43.8296" lon="7.2662">
        <ele>569</ele>
        <time>2022-01-13T12:32:39.000Z</time>
      </trkpt>
      <trkpt lat="43.8296" lon="7.2662">
        <ele>568.79998779297</ele>
        <time>2022-01-13T12:32:40.000Z</time>
      </trkpt>
      <trkpt lat="43.8296" lon="7.2662">
        <ele>568.59997558594</ele>
        <time>2022-01-13T12:32:51.000Z</time>
      </trkpt>
      <trkpt lat="43.82961" lon="7.2662">
        <ele>568.40002441406</ele>
        <time>2022-01-13T12:33:10.000Z</time>
      </trkpt>
      <trkpt lat="43.82961" lon="7.2662">
        <ele>568.79998779297</ele>
        <time>2022-01-13T12:33:24.000Z</time>
      </trkpt>
      <trkpt lat="43.82961" lon="7.26621">
        <ele>568</ele>
        <time>2022-01-13T12:33:30.000Z</time>
      </trkpt>
      <trkpt lat="43.82961" lon="7.26621">
        <ele>568</ele>
        <time>2022-01-13T12:33:34.000Z</time>
      </trkpt>
      <trkpt lat="43.82961" lon="7.26621">
        <ele>568.59997558594</ele>
        <time>2022-01-13T12:33:44.000Z</time>
      </trkpt>
      <trkpt lat="43.82961" lon="7.26621">
        <ele>569</ele>
        <time>2022-01-13T12:33:48.000Z</time>
      </trkpt>
      <trkpt lat="43.8296" lon="7.26624">
        <ele>568.59997558594</ele>
        <time>2022-01-13T12:33:58.000Z</time>
      </trkpt>
      <trkpt lat="43.82957" lon="7.26626">
        <ele>570</ele>
        <time>2022-01-13T12:34:05.000Z</time>
      </trkpt>
      <trkpt lat="43.82956" lon="7.26628">
        <ele>570.59997558594</ele>
        <time>2022-01-13T12:34:08.000Z</time>
      </trkpt>
      <trkpt lat="43.82954" lon="7.2663">
        <ele>571.20001220703</ele>
        <time>2022-01-13T12:34:11.000Z</time>
      </trkpt>
      <trkpt lat="43.82951" lon="7.26632">
        <ele>571.59997558594</ele>
        <time>2022-01-13T12:34:15.000Z</time>
      </trkpt>
      <trkpt lat="43.8295" lon="7.26635">
        <ele>572.40002441406</ele>
        <time>2022-01-13T12:34:22.000Z</time>
      </trkpt>
      <trkpt lat="43.8295" lon="7.26636">
        <ele>572.40002441406</ele>
        <time>2022-01-13T12:34:23.000Z</time>
      </trkpt>
      <trkpt lat="43.82949" lon="7.26637">
        <ele>572.40002441406</ele>
        <time>2022-01-13T12:34:32.000Z</time>
      </trkpt>
      <trkpt lat="43.8295" lon="7.26638">
        <ele>573.40002441406</ele>
        <time>2022-01-13T12:34:35.000Z</time>
      </trkpt>
      <trkpt lat="43.8295" lon="7.26638">
        <ele>573.79998779297</ele>
        <time>2022-01-13T12:34:39.000Z</time>
      </trkpt>
      <trkpt lat="43.8295" lon="7.26638">
        <ele>573.40002441406</ele>
        <time>2022-01-13T12:34:46.000Z</time>
      </trkpt>
      <trkpt lat="43.82949" lon="7.26638">
        <ele>573.40002441406</ele>
        <time>2022-01-13T12:35:07.000Z</time>
      </trkpt>
      <trkpt lat="43.82949" lon="7.26637">
        <ele>573.20001220703</ele>
        <time>2022-01-13T12:35:26.000Z</time>
      </trkpt>
      <trkpt lat="43.82949" lon="7.26638">
        <ele>572.79998779297</ele>
        <time>2022-01-13T12:35:41.000Z</time>
      </trkpt>
      <trkpt lat="43.82949" lon="7.26638">
        <ele>572.79998779297</ele>
        <time>2022-01-13T12:36:15.000Z</time>
      </trkpt>
      <trkpt lat="43.82949" lon="7.26639">
        <ele>572.79998779297</ele>
        <time>2022-01-13T12:36:40.000Z</time>
      </trkpt>
      <trkpt lat="43.82948" lon="7.26637">
        <ele>573.20001220703</ele>
        <time>2022-01-13T12:36:58.000Z</time>
      </trkpt>
      <trkpt lat="43.82948" lon="7.26638">
        <ele>573.20001220703</ele>
        <time>2022-01-13T12:37:15.000Z</time>
      </trkpt>
      <trkpt lat="43.82947" lon="7.26635">
        <ele>573.20001220703</ele>
        <time>2022-01-13T12:37:34.000Z</time>
      </trkpt>
      <trkpt lat="43.82947" lon="7.26635">
        <ele>573.20001220703</ele>
        <time>2022-01-13T12:37:44.000Z</time>
      </trkpt>
      <trkpt lat="43.82947" lon="7.26635">
        <ele>573.20001220703</ele>
        <time>2022-01-13T12:38:01.000Z</time>
      </trkpt>
      <trkpt lat="43.82947" lon="7.26635">
        <ele>572.79998779297</ele>
        <time>2022-01-13T12:38:11.000Z</time>
      </trkpt>
      <trkpt lat="43.82946" lon="7.26634">
        <ele>573.20001220703</ele>
        <time>2022-01-13T12:38:16.000Z</time>
      </trkpt>
      <trkpt lat="43.82947" lon="7.26632">
        <ele>573.20001220703</ele>
        <time>2022-01-13T12:38:18.000Z</time>
      </trkpt>
      <trkpt lat="43.82948" lon="7.2663">
        <ele>572.79998779297</ele>
        <time>2022-01-13T12:38:20.000Z</time>
      </trkpt>
      <trkpt lat="43.82949" lon="7.26629">
        <ele>572.40002441406</ele>
        <time>2022-01-13T12:38:21.000Z</time>
      </trkpt>
      <trkpt lat="43.8295" lon="7.26628">
        <ele>572.20001220703</ele>
        <time>2022-01-13T12:38:22.000Z</time>
      </trkpt>
      <trkpt lat="43.82953" lon="7.26626">
        <ele>571.40002441406</ele>
        <time>2022-01-13T12:38:25.000Z</time>
      </trkpt>
      <trkpt lat="43.82954" lon="7.26625">
        <ele>571</ele>
        <time>2022-01-13T12:38:27.000Z</time>
      </trkpt>
      <trkpt lat="43.82957" lon="7.26622">
        <ele>570.59997558594</ele>
        <time>2022-01-13T12:38:32.000Z</time>
      </trkpt>
      <trkpt lat="43.82959" lon="7.26619">
        <ele>569.79998779297</ele>
        <time>2022-01-13T12:38:35.000Z</time>
      </trkpt>
      <trkpt lat="43.82961" lon="7.26616">
        <ele>568.59997558594</ele>
        <time>2022-01-13T12:38:38.000Z</time>
      </trkpt>
      <trkpt lat="43.82961" lon="7.26615">
        <ele>568.20001220703</ele>
        <time>2022-01-13T12:38:39.000Z</time>
      </trkpt>
      <trkpt lat="43.82962" lon="7.26615">
        <ele>567.40002441406</ele>
        <time>2022-01-13T12:38:41.000Z</time>
      </trkpt>
      <trkpt lat="43.82964" lon="7.26611">
        <ele>566.59997558594</ele>
        <time>2022-01-13T12:38:43.000Z</time>
      </trkpt>
      <trkpt lat="43.82964" lon="7.2661">
        <ele>566.20001220703</ele>
        <time>2022-01-13T12:38:44.000Z</time>
      </trkpt>
      <trkpt lat="43.82968" lon="7.26607">
        <ele>565.59997558594</ele>
        <time>2022-01-13T12:38:47.000Z</time>
      </trkpt>
      <trkpt lat="43.82974" lon="7.26599">
        <ele>565.20001220703</ele>
        <time>2022-01-13T12:38:53.000Z</time>
      </trkpt>
      <trkpt lat="43.82975" lon="7.26598">
        <ele>564.59997558594</ele>
        <time>2022-01-13T12:38:58.000Z</time>
      </trkpt>
      <trkpt lat="43.82972" lon="7.26592">
        <ele>564.40002441406</ele>
        <time>2022-01-13T12:39:04.000Z</time>
      </trkpt>
      <trkpt lat="43.8297" lon="7.26592">
        <ele>564</ele>
        <time>2022-01-13T12:39:06.000Z</time>
      </trkpt>
      <trkpt lat="43.82967" lon="7.26592">
        <ele>563.40002441406</ele>
        <time>2022-01-13T12:39:09.000Z</time>
      </trkpt>
      <trkpt lat="43.82966" lon="7.26591">
        <ele>563.20001220703</ele>
        <time>2022-01-13T12:39:10.000Z</time>
      </trkpt>
      <trkpt lat="43.82964" lon="7.26591">
        <ele>563</ele>
        <time>2022-01-13T12:39:11.000Z</time>
      </trkpt>
      <trkpt lat="43.82962" lon="7.26589">
        <ele>562.59997558594</ele>
        <time>2022-01-13T12:39:13.000Z</time>
      </trkpt>
      <trkpt lat="43.8296" lon="7.26588">
        <ele>562.20001220703</ele>
        <time>2022-01-13T12:39:15.000Z</time>
      </trkpt>
      <trkpt lat="43.82954" lon="7.26588">
        <ele>562</ele>
        <time>2022-01-13T12:39:22.000Z</time>
      </trkpt>
      <trkpt lat="43.82952" lon="7.26587">
        <ele>561.79998779297</ele>
        <time>2022-01-13T12:39:24.000Z</time>
      </trkpt>
      <trkpt lat="43.82951" lon="7.26586">
        <ele>561.40002441406</ele>
        <time>2022-01-13T12:39:26.000Z</time>
      </trkpt>
      <trkpt lat="43.8295" lon="7.26586">
        <ele>561.20001220703</ele>
        <time>2022-01-13T12:39:27.000Z</time>
      </trkpt>
      <trkpt lat="43.82946" lon="7.26586">
        <ele>560.59997558594</ele>
        <time>2022-01-13T12:39:33.000Z</time>
      </trkpt>
      <trkpt lat="43.82944" lon="7.26586">
        <ele>560.40002441406</ele>
        <time>2022-01-13T12:39:34.000Z</time>
      </trkpt>
      <trkpt lat="43.82941" lon="7.26586">
        <ele>559.79998779297</ele>
        <time>2022-01-13T12:39:37.000Z</time>
      </trkpt>
      <trkpt lat="43.82939" lon="7.26585">
        <ele>559.59997558594</ele>
        <time>2022-01-13T12:39:39.000Z</time>
      </trkpt>
      <trkpt lat="43.8294" lon="7.26585">
        <ele>559.40002441406</ele>
        <time>2022-01-13T12:39:40.000Z</time>
      </trkpt>
      <trkpt lat="43.82939" lon="7.26584">
        <ele>558.40002441406</ele>
        <time>2022-01-13T12:39:45.000Z</time>
      </trkpt>
      <trkpt lat="43.82939" lon="7.26584">
        <ele>558.40002441406</ele>
        <time>2022-01-13T12:39:47.000Z</time>
      </trkpt>
      <trkpt lat="43.82939" lon="7.26583">
        <ele>558.40002441406</ele>
        <time>2022-01-13T12:39:54.000Z</time>
      </trkpt>
      <trkpt lat="43.8294" lon="7.26585">
        <ele>558.59997558594</ele>
        <time>2022-01-13T12:40:00.000Z</time>
      </trkpt>
      <trkpt lat="43.8294" lon="7.26588">
        <ele>558.79998779297</ele>
        <time>2022-01-13T12:40:03.000Z</time>
      </trkpt>
      <trkpt lat="43.8294" lon="7.2659">
        <ele>559</ele>
        <time>2022-01-13T12:40:05.000Z</time>
      </trkpt>
      <trkpt lat="43.82939" lon="7.26593">
        <ele>559.79998779297</ele>
        <time>2022-01-13T12:40:09.000Z</time>
      </trkpt>
      <trkpt lat="43.82938" lon="7.26595">
        <ele>560.20001220703</ele>
        <time>2022-01-13T12:40:11.000Z</time>
      </trkpt>
      <trkpt lat="43.82938" lon="7.26597">
        <ele>560.79998779297</ele>
        <time>2022-01-13T12:40:13.000Z</time>
      </trkpt>
      <trkpt lat="43.82937" lon="7.26601">
        <ele>561.59997558594</ele>
        <time>2022-01-13T12:40:17.000Z</time>
      </trkpt>
      <trkpt lat="43.82936" lon="7.26603">
        <ele>562</ele>
        <time>2022-01-13T12:40:19.000Z</time>
      </trkpt>
      <trkpt lat="43.82937" lon="7.26605">
        <ele>562</ele>
        <time>2022-01-13T12:40:22.000Z</time>
      </trkpt>
      <trkpt lat="43.82939" lon="7.26611">
        <ele>562.59997558594</ele>
        <time>2022-01-13T12:40:29.000Z</time>
      </trkpt>
      <trkpt lat="43.82941" lon="7.26612">
        <ele>563</ele>
        <time>2022-01-13T12:40:33.000Z</time>
      </trkpt>
      <trkpt lat="43.82942" lon="7.26613">
        <ele>563</ele>
        <time>2022-01-13T12:40:34.000Z</time>
      </trkpt>
      <trkpt lat="43.82943" lon="7.26613">
        <ele>563.20001220703</ele>
        <time>2022-01-13T12:40:35.000Z</time>
      </trkpt>
      <trkpt lat="43.82944" lon="7.26612">
        <ele>564</ele>
        <time>2022-01-13T12:40:38.000Z</time>
      </trkpt>
      <trkpt lat="43.82946" lon="7.26611">
        <ele>564.59997558594</ele>
        <time>2022-01-13T12:40:40.000Z</time>
      </trkpt>
      <trkpt lat="43.82947" lon="7.26612">
        <ele>565.20001220703</ele>
        <time>2022-01-13T12:40:42.000Z</time>
      </trkpt>
      <trkpt lat="43.82949" lon="7.26612">
        <ele>565.59997558594</ele>
        <time>2022-01-13T12:40:46.000Z</time>
      </trkpt>
      <trkpt lat="43.82951" lon="7.26613">
        <ele>565.20001220703</ele>
        <time>2022-01-13T12:40:51.000Z</time>
      </trkpt>
      <trkpt lat="43.8295" lon="7.26615">
        <ele>566.20001220703</ele>
        <time>2022-01-13T12:40:56.000Z</time>
      </trkpt>
      <trkpt lat="43.82951" lon="7.26619">
        <ele>567.20001220703</ele>
        <time>2022-01-13T12:41:01.000Z</time>
      </trkpt>
      <trkpt lat="43.82951" lon="7.26619">
        <ele>567.40002441406</ele>
        <time>2022-01-13T12:41:02.000Z</time>
      </trkpt>
      <trkpt lat="43.8295" lon="7.2662">
        <ele>567.59997558594</ele>
        <time>2022-01-13T12:41:03.000Z</time>
      </trkpt>
      <trkpt lat="43.8295" lon="7.2662">
        <ele>567.79998779297</ele>
        <time>2022-01-13T12:41:04.000Z</time>
      </trkpt>
      <trkpt lat="43.8295" lon="7.26621">
        <ele>568.40002441406</ele>
        <time>2022-01-13T12:41:07.000Z</time>
      </trkpt>
      <trkpt lat="43.8295" lon="7.26621">
        <ele>568.79998779297</ele>
        <time>2022-01-13T12:41:09.000Z</time>
      </trkpt>
      <trkpt lat="43.82952" lon="7.26624">
        <ele>569</ele>
        <time>2022-01-13T12:41:14.000Z</time>
      </trkpt>
      <trkpt lat="43.82953" lon="7.26626">
        <ele>569.59997558594</ele>
        <time>2022-01-13T12:41:18.000Z</time>
      </trkpt>
      <trkpt lat="43.82949" lon="7.2663">
        <ele>570.40002441406</ele>
        <time>2022-01-13T12:41:24.000Z</time>
      </trkpt>
      <trkpt lat="43.82948" lon="7.26632">
        <ele>570.59997558594</ele>
        <time>2022-01-13T12:41:26.000Z</time>
      </trkpt>
      <trkpt lat="43.82948" lon="7.26634">
        <ele>571</ele>
        <time>2022-01-13T12:41:30.000Z</time>
      </trkpt>
      <trkpt lat="43.82947" lon="7.26633">
        <ele>571.59997558594</ele>
        <time>2022-01-13T12:41:35.000Z</time>
      </trkpt>
      <trkpt lat="43.82947" lon="7.26632">
        <ele>571.79998779297</ele>
        <time>2022-01-13T12:41:36.000Z</time>
      </trkpt>
      <trkpt lat="43.82948" lon="7.26631">
        <ele>571.40002441406</ele>
        <time>2022-01-13T12:41:42.000Z</time>
      </trkpt>
      <trkpt lat="43.8295" lon="7.26629">
        <ele>571.20001220703</ele>
        <time>2022-01-13T12:41:49.000Z</time>
      </trkpt>
      <trkpt lat="43.82955" lon="7.26626">
        <ele>571</ele>
        <time>2022-01-13T12:41:52.000Z</time>
      </trkpt>
      <trkpt lat="43.82956" lon="7.26625">
        <ele>570.59997558594</ele>
        <time>2022-01-13T12:41:54.000Z</time>
      </trkpt>
      <trkpt lat="43.82957" lon="7.26624">
        <ele>570</ele>
        <time>2022-01-13T12:41:56.000Z</time>
      </trkpt>
      <trkpt lat="43.82959" lon="7.26622">
        <ele>569.40002441406</ele>
        <time>2022-01-13T12:41:58.000Z</time>
      </trkpt>
      <trkpt lat="43.8296" lon="7.2662">
        <ele>569</ele>
        <time>2022-01-13T12:41:59.000Z</time>
      </trkpt>
      <trkpt lat="43.82964" lon="7.26614">
        <ele>568.20001220703</ele>
        <time>2022-01-13T12:42:01.000Z</time>
      </trkpt>
      <trkpt lat="43.82969" lon="7.26609">
        <ele>567</ele>
        <time>2022-01-13T12:42:03.000Z</time>
      </trkpt>
      <trkpt lat="43.82973" lon="7.26604">
        <ele>565.79998779297</ele>
        <time>2022-01-13T12:42:05.000Z</time>
      </trkpt>
      <trkpt lat="43.82975" lon="7.266">
        <ele>565</ele>
        <time>2022-01-13T12:42:07.000Z</time>
      </trkpt>
      <trkpt lat="43.82974" lon="7.26599">
        <ele>564.59997558594</ele>
        <time>2022-01-13T12:42:08.000Z</time>
      </trkpt>
      <trkpt lat="43.8297" lon="7.26594">
        <ele>563.79998779297</ele>
        <time>2022-01-13T12:42:12.000Z</time>
      </trkpt>
      <trkpt lat="43.82966" lon="7.26595">
        <ele>563.59997558594</ele>
        <time>2022-01-13T12:42:14.000Z</time>
      </trkpt>
      <trkpt lat="43.82961" lon="7.26592">
        <ele>563</ele>
        <time>2022-01-13T12:42:16.000Z</time>
      </trkpt>
      <trkpt lat="43.82959" lon="7.26591">
        <ele>562.59997558594</ele>
        <time>2022-01-13T12:42:17.000Z</time>
      </trkpt>
      <trkpt lat="43.82953" lon="7.2659">
        <ele>561.59997558594</ele>
        <time>2022-01-13T12:42:21.000Z</time>
      </trkpt>
      <trkpt lat="43.82952" lon="7.2659">
        <ele>561.59997558594</ele>
        <time>2022-01-13T12:42:22.000Z</time>
      </trkpt>
      <trkpt lat="43.82951" lon="7.26589">
        <ele>561.40002441406</ele>
        <time>2022-01-13T12:42:23.000Z</time>
      </trkpt>
      <trkpt lat="43.82947" lon="7.26588">
        <ele>561</ele>
        <time>2022-01-13T12:42:26.000Z</time>
      </trkpt>
      <trkpt lat="43.82942" lon="7.26588">
        <ele>560.20001220703</ele>
        <time>2022-01-13T12:42:29.000Z</time>
      </trkpt>
      <trkpt lat="43.82937" lon="7.26589">
        <ele>559.79998779297</ele>
        <time>2022-01-13T12:42:31.000Z</time>
      </trkpt>
      <trkpt lat="43.82933" lon="7.26589">
        <ele>559.20001220703</ele>
        <time>2022-01-13T12:42:33.000Z</time>
      </trkpt>
      <trkpt lat="43.82925" lon="7.26586">
        <ele>558</ele>
        <time>2022-01-13T12:42:36.000Z</time>
      </trkpt>
      <trkpt lat="43.82922" lon="7.26584">
        <ele>556.79998779297</ele>
        <time>2022-01-13T12:42:38.000Z</time>
      </trkpt>
      <trkpt lat="43.82919" lon="7.26582">
        <ele>555.40002441406</ele>
        <time>2022-01-13T12:42:40.000Z</time>
      </trkpt>
      <trkpt lat="43.82917" lon="7.26582">
        <ele>554.40002441406</ele>
        <time>2022-01-13T12:42:42.000Z</time>
      </trkpt>
      <trkpt lat="43.82915" lon="7.26581">
        <ele>554.20001220703</ele>
        <time>2022-01-13T12:42:43.000Z</time>
      </trkpt>
      <trkpt lat="43.82914" lon="7.2658">
        <ele>553.79998779297</ele>
        <time>2022-01-13T12:42:44.000Z</time>
      </trkpt>
      <trkpt lat="43.82912" lon="7.26576">
        <ele>553.40002441406</ele>
        <time>2022-01-13T12:42:48.000Z</time>
      </trkpt>
      <trkpt lat="43.82909" lon="7.26575">
        <ele>553</ele>
        <time>2022-01-13T12:42:50.000Z</time>
      </trkpt>
      <trkpt lat="43.82905" lon="7.26571">
        <ele>552.20001220703</ele>
        <time>2022-01-13T12:42:53.000Z</time>
      </trkpt>
      <trkpt lat="43.82905" lon="7.26568">
        <ele>551.79998779297</ele>
        <time>2022-01-13T12:42:54.000Z</time>
      </trkpt>
      <trkpt lat="43.82905" lon="7.26566">
        <ele>551.40002441406</ele>
        <time>2022-01-13T12:42:55.000Z</time>
      </trkpt>
      <trkpt lat="43.82906" lon="7.26565">
        <ele>551</ele>
        <time>2022-01-13T12:42:56.000Z</time>
      </trkpt>
      <trkpt lat="43.8291" lon="7.26564">
        <ele>550.20001220703</ele>
        <time>2022-01-13T12:42:59.000Z</time>
      </trkpt>
      <trkpt lat="43.82911" lon="7.26563">
        <ele>550.20001220703</ele>
        <time>2022-01-13T12:43:00.000Z</time>
      </trkpt>
      <trkpt lat="43.82912" lon="7.26558">
        <ele>549.79998779297</ele>
        <time>2022-01-13T12:43:02.000Z</time>
      </trkpt>
      <trkpt lat="43.82912" lon="7.26555">
        <ele>549.40002441406</ele>
        <time>2022-01-13T12:43:03.000Z</time>
      </trkpt>
      <trkpt lat="43.82913" lon="7.26551">
        <ele>548.20001220703</ele>
        <time>2022-01-13T12:43:05.000Z</time>
      </trkpt>
      <trkpt lat="43.82914" lon="7.2655">
        <ele>547.40002441406</ele>
        <time>2022-01-13T12:43:06.000Z</time>
      </trkpt>
      <trkpt lat="43.82916" lon="7.26549">
        <ele>546.59997558594</ele>
        <time>2022-01-13T12:43:07.000Z</time>
      </trkpt>
      <trkpt lat="43.82921" lon="7.26547">
        <ele>545.59997558594</ele>
        <time>2022-01-13T12:43:09.000Z</time>
      </trkpt>
      <trkpt lat="43.82922" lon="7.26547">
        <ele>545</ele>
        <time>2022-01-13T12:43:12.000Z</time>
      </trkpt>
      <trkpt lat="43.82921" lon="7.26548">
        <ele>545</ele>
        <time>2022-01-13T12:43:18.000Z</time>
      </trkpt>
      <trkpt lat="43.8292" lon="7.26548">
        <ele>545</ele>
        <time>2022-01-13T12:43:24.000Z</time>
      </trkpt>
      <trkpt lat="43.82917" lon="7.2655">
        <ele>545.20001220703</ele>
        <time>2022-01-13T12:43:30.000Z</time>
      </trkpt>
      <trkpt lat="43.82914" lon="7.26551">
        <ele>545</ele>
        <time>2022-01-13T12:43:41.000Z</time>
      </trkpt>
      <trkpt lat="43.82913" lon="7.26551">
        <ele>545.59997558594</ele>
        <time>2022-01-13T12:43:49.000Z</time>
      </trkpt>
      <trkpt lat="43.82912" lon="7.26555">
        <ele>546</ele>
        <time>2022-01-13T12:43:58.000Z</time>
      </trkpt>
      <trkpt lat="43.82912" lon="7.26558">
        <ele>546.79998779297</ele>
        <time>2022-01-13T12:44:02.000Z</time>
      </trkpt>
      <trkpt lat="43.82912" lon="7.26562">
        <ele>547.79998779297</ele>
        <time>2022-01-13T12:44:06.000Z</time>
      </trkpt>
      <trkpt lat="43.82912" lon="7.26563">
        <ele>548.40002441406</ele>
        <time>2022-01-13T12:44:08.000Z</time>
      </trkpt>
      <trkpt lat="43.82912" lon="7.26565">
        <ele>549</ele>
        <time>2022-01-13T12:44:10.000Z</time>
      </trkpt>
      <trkpt lat="43.82911" lon="7.26568">
        <ele>550</ele>
        <time>2022-01-13T12:44:14.000Z</time>
      </trkpt>
      <trkpt lat="43.82911" lon="7.26569">
        <ele>550.79998779297</ele>
        <time>2022-01-13T12:44:17.000Z</time>
      </trkpt>
      <trkpt lat="43.82911" lon="7.26569">
        <ele>551</ele>
        <time>2022-01-13T12:44:19.000Z</time>
      </trkpt>
      <trkpt lat="43.82911" lon="7.26569">
        <ele>551.20001220703</ele>
        <time>2022-01-13T12:44:23.000Z</time>
      </trkpt>
      <trkpt lat="43.82913" lon="7.26565">
        <ele>551.20001220703</ele>
        <time>2022-01-13T12:44:34.000Z</time>
      </trkpt>
      <trkpt lat="43.82918" lon="7.26565">
        <ele>550.59997558594</ele>
        <time>2022-01-13T12:44:39.000Z</time>
      </trkpt>
      <trkpt lat="43.82924" lon="7.26566">
        <ele>550.59997558594</ele>
        <time>2022-01-13T12:44:47.000Z</time>
      </trkpt>
      <trkpt lat="43.82928" lon="7.26565">
        <ele>551.20001220703</ele>
        <time>2022-01-13T12:44:51.000Z</time>
      </trkpt>
      <trkpt lat="43.82929" lon="7.26565">
        <ele>551.40002441406</ele>
        <time>2022-01-13T12:44:53.000Z</time>
      </trkpt>
      <trkpt lat="43.82929" lon="7.26564">
        <ele>551.40002441406</ele>
        <time>2022-01-13T12:45:00.000Z</time>
      </trkpt>
      <trkpt lat="43.82927" lon="7.26556">
        <ele>549.79998779297</ele>
        <time>2022-01-13T12:45:07.000Z</time>
      </trkpt>
      <trkpt lat="43.82928" lon="7.26555">
        <ele>549.59997558594</ele>
        <time>2022-01-13T12:45:08.000Z</time>
      </trkpt>
      <trkpt lat="43.82929" lon="7.26554">
        <ele>548.59997558594</ele>
        <time>2022-01-13T12:45:11.000Z</time>
      </trkpt>
      <trkpt lat="43.82929" lon="7.26551">
        <ele>547.79998779297</ele>
        <time>2022-01-13T12:45:17.000Z</time>
      </trkpt>
      <trkpt lat="43.8293" lon="7.2655">
        <ele>547.40002441406</ele>
        <time>2022-01-13T12:45:18.000Z</time>
      </trkpt>
      <trkpt lat="43.8293" lon="7.26549">
        <ele>546.20001220703</ele>
        <time>2022-01-13T12:45:21.000Z</time>
      </trkpt>
      <trkpt lat="43.8293" lon="7.26549">
        <ele>545.79998779297</ele>
        <time>2022-01-13T12:45:23.000Z</time>
      </trkpt>
      <trkpt lat="43.82931" lon="7.26549">
        <ele>545.20001220703</ele>
        <time>2022-01-13T12:45:26.000Z</time>
      </trkpt>
      <trkpt lat="43.82931" lon="7.26548">
        <ele>544.59997558594</ele>
        <time>2022-01-13T12:45:30.000Z</time>
      </trkpt>
      <trkpt lat="43.82933" lon="7.26547">
        <ele>544.20001220703</ele>
        <time>2022-01-13T12:45:35.000Z</time>
      </trkpt>
      <trkpt lat="43.82935" lon="7.26544">
        <ele>543.79998779297</ele>
        <time>2022-01-13T12:45:37.000Z</time>
      </trkpt>
      <trkpt lat="43.82936" lon="7.26544">
        <ele>543.79998779297</ele>
        <time>2022-01-13T12:45:38.000Z</time>
      </trkpt>
      <trkpt lat="43.82941" lon="7.26542">
        <ele>544</ele>
        <time>2022-01-13T12:45:43.000Z</time>
      </trkpt>
      <trkpt lat="43.82942" lon="7.26541">
        <ele>544</ele>
        <time>2022-01-13T12:45:49.000Z</time>
      </trkpt>
      <trkpt lat="43.8294" lon="7.2654">
        <ele>544</ele>
        <time>2022-01-13T12:46:00.000Z</time>
      </trkpt>
      <trkpt lat="43.8294" lon="7.26539">
        <ele>543.59997558594</ele>
        <time>2022-01-13T12:46:06.000Z</time>
      </trkpt>
      <trkpt lat="43.82941" lon="7.26537">
        <ele>543.59997558594</ele>
        <time>2022-01-13T12:46:08.000Z</time>
      </trkpt>
      <trkpt lat="43.82941" lon="7.26537">
        <ele>543.59997558594</ele>
        <time>2022-01-13T12:46:10.000Z</time>
      </trkpt>
      <trkpt lat="43.8294" lon="7.26538">
        <ele>543.79998779297</ele>
        <time>2022-01-13T12:46:15.000Z</time>
      </trkpt>
      <trkpt lat="43.8294" lon="7.26538">
        <ele>543.79998779297</ele>
        <time>2022-01-13T12:46:16.000Z</time>
      </trkpt>
      <trkpt lat="43.82941" lon="7.26539">
        <ele>543.79998779297</ele>
        <time>2022-01-13T12:46:21.000Z</time>
      </trkpt>
      <trkpt lat="43.8294" lon="7.26538">
        <ele>543.79998779297</ele>
        <time>2022-01-13T12:46:22.000Z</time>
      </trkpt>
      <trkpt lat="43.82941" lon="7.26537">
        <ele>543.59997558594</ele>
        <time>2022-01-13T12:46:24.000Z</time>
      </trkpt>
      <trkpt lat="43.82942" lon="7.26536">
        <ele>543.59997558594</ele>
        <time>2022-01-13T12:46:25.000Z</time>
      </trkpt>
      <trkpt lat="43.82942" lon="7.26537">
        <ele>543.40002441406</ele>
        <time>2022-01-13T12:46:30.000Z</time>
      </trkpt>
      <trkpt lat="43.82944" lon="7.26536">
        <ele>543.79998779297</ele>
        <time>2022-01-13T12:46:36.000Z</time>
      </trkpt>
      <trkpt lat="43.82945" lon="7.26535">
        <ele>543.59997558594</ele>
        <time>2022-01-13T12:46:37.000Z</time>
      </trkpt>
      <trkpt lat="43.82954" lon="7.2653">
        <ele>543.59997558594</ele>
        <time>2022-01-13T12:46:41.000Z</time>
      </trkpt>
      <trkpt lat="43.82962" lon="7.2653">
        <ele>543.40002441406</ele>
        <time>2022-01-13T12:46:43.000Z</time>
      </trkpt>
      <trkpt lat="43.82966" lon="7.2653">
        <ele>543</ele>
        <time>2022-01-13T12:46:44.000Z</time>
      </trkpt>
      <trkpt lat="43.8297" lon="7.26528">
        <ele>542.59997558594</ele>
        <time>2022-01-13T12:46:45.000Z</time>
      </trkpt>
      <trkpt lat="43.82973" lon="7.26522">
        <ele>541.40002441406</ele>
        <time>2022-01-13T12:46:47.000Z</time>
      </trkpt>
      <trkpt lat="43.82971" lon="7.2652">
        <ele>540.79998779297</ele>
        <time>2022-01-13T12:46:48.000Z</time>
      </trkpt>
      <trkpt lat="43.82969" lon="7.26518">
        <ele>540</ele>
        <time>2022-01-13T12:46:49.000Z</time>
      </trkpt>
      <trkpt lat="43.82963" lon="7.26516">
        <ele>539</ele>
        <time>2022-01-13T12:46:51.000Z</time>
      </trkpt>
      <trkpt lat="43.82961" lon="7.26514">
        <ele>538.59997558594</ele>
        <time>2022-01-13T12:46:52.000Z</time>
      </trkpt>
      <trkpt lat="43.8296" lon="7.26509">
        <ele>537.79998779297</ele>
        <time>2022-01-13T12:46:54.000Z</time>
      </trkpt>
      <trkpt lat="43.82961" lon="7.26508">
        <ele>537.40002441406</ele>
        <time>2022-01-13T12:46:55.000Z</time>
      </trkpt>
      <trkpt lat="43.82965" lon="7.26508">
        <ele>536.79998779297</ele>
        <time>2022-01-13T12:46:57.000Z</time>
      </trkpt>
      <trkpt lat="43.82971" lon="7.26506">
        <ele>536.59997558594</ele>
        <time>2022-01-13T12:46:59.000Z</time>
      </trkpt>
      <trkpt lat="43.82978" lon="7.26502">
        <ele>536.40002441406</ele>
        <time>2022-01-13T12:47:01.000Z</time>
      </trkpt>
      <trkpt lat="43.82987" lon="7.26498">
        <ele>535.79998779297</ele>
        <time>2022-01-13T12:47:03.000Z</time>
      </trkpt>
      <trkpt lat="43.82991" lon="7.26496">
        <ele>535.40002441406</ele>
        <time>2022-01-13T12:47:04.000Z</time>
      </trkpt>
      <trkpt lat="43.83003" lon="7.26491">
        <ele>535</ele>
        <time>2022-01-13T12:47:06.000Z</time>
      </trkpt>
      <trkpt lat="43.83015" lon="7.26485">
        <ele>534.59997558594</ele>
        <time>2022-01-13T12:47:08.000Z</time>
      </trkpt>
      <trkpt lat="43.83023" lon="7.26482">
        <ele>534.20001220703</ele>
        <time>2022-01-13T12:47:09.000Z</time>
      </trkpt>
      <trkpt lat="43.83039" lon="7.26476">
        <ele>532.59997558594</ele>
        <time>2022-01-13T12:47:11.000Z</time>
      </trkpt>
      <trkpt lat="43.83047" lon="7.26473">
        <ele>531.59997558594</ele>
        <time>2022-01-13T12:47:12.000Z</time>
      </trkpt>
      <trkpt lat="43.83055" lon="7.2647">
        <ele>530.59997558594</ele>
        <time>2022-01-13T12:47:13.000Z</time>
      </trkpt>
      <trkpt lat="43.83063" lon="7.26468">
        <ele>530</ele>
        <time>2022-01-13T12:47:14.000Z</time>
      </trkpt>
      <trkpt lat="43.8308" lon="7.26462">
        <ele>528.59997558594</ele>
        <time>2022-01-13T12:47:16.000Z</time>
      </trkpt>
      <trkpt lat="43.83096" lon="7.26456">
        <ele>527.40002441406</ele>
        <time>2022-01-13T12:47:18.000Z</time>
      </trkpt>
      <trkpt lat="43.8311" lon="7.26452">
        <ele>526.20001220703</ele>
        <time>2022-01-13T12:47:20.000Z</time>
      </trkpt>
      <trkpt lat="43.83117" lon="7.2645">
        <ele>525.79998779297</ele>
        <time>2022-01-13T12:47:21.000Z</time>
      </trkpt>
      <trkpt lat="43.83129" lon="7.26445">
        <ele>525.40002441406</ele>
        <time>2022-01-13T12:47:24.000Z</time>
      </trkpt>
      <trkpt lat="43.83129" lon="7.26443">
        <ele>525.40002441406</ele>
        <time>2022-01-13T12:47:25.000Z</time>
      </trkpt>
      <trkpt lat="43.83129" lon="7.26443">
        <ele>525.40002441406</ele>
        <time>2022-01-13T12:47:27.000Z</time>
      </trkpt>
      <trkpt lat="43.83128" lon="7.26442">
        <ele>525.79998779297</ele>
        <time>2022-01-13T12:47:40.000Z</time>
      </trkpt>
      <trkpt lat="43.83128" lon="7.26442">
        <ele>526.20001220703</ele>
        <time>2022-01-13T12:47:50.000Z</time>
      </trkpt>
      <trkpt lat="43.83128" lon="7.26443">
        <ele>525.79998779297</ele>
        <time>2022-01-13T12:48:10.000Z</time>
      </trkpt>
      <trkpt lat="43.83128" lon="7.26443">
        <ele>525.59997558594</ele>
        <time>2022-01-13T12:48:27.000Z</time>
      </trkpt>
      <trkpt lat="43.83128" lon="7.26443">
        <ele>525.79998779297</ele>
        <time>2022-01-13T12:48:45.000Z</time>
      </trkpt>
      <trkpt lat="43.83128" lon="7.26443">
        <ele>526</ele>
        <time>2022-01-13T12:48:57.000Z</time>
      </trkpt>
      <trkpt lat="43.83128" lon="7.26443">
        <ele>526.59997558594</ele>
        <time>2022-01-13T12:49:10.000Z</time>
      </trkpt>
      <trkpt lat="43.83128" lon="7.26443">
        <ele>526.40002441406</ele>
        <time>2022-01-13T12:49:22.000Z</time>
      </trkpt>
      <trkpt lat="43.83128" lon="7.26443">
        <ele>526.40002441406</ele>
        <time>2022-01-13T12:49:48.000Z</time>
      </trkpt>
      <trkpt lat="43.83128" lon="7.26444">
        <ele>525.79998779297</ele>
        <time>2022-01-13T12:49:57.000Z</time>
      </trkpt>
      <trkpt lat="43.83125" lon="7.26436">
        <ele>526.20001220703</ele>
        <time>2022-01-13T12:50:03.000Z</time>
      </trkpt>
      <trkpt lat="43.83122" lon="7.26432">
        <ele>526.20001220703</ele>
        <time>2022-01-13T12:50:04.000Z</time>
      </trkpt>
      <trkpt lat="43.8311" lon="7.26428">
        <ele>526</ele>
        <time>2022-01-13T12:50:06.000Z</time>
      </trkpt>
      <trkpt lat="43.83096" lon="7.26426">
        <ele>524.20001220703</ele>
        <time>2022-01-13T12:50:08.000Z</time>
      </trkpt>
      <trkpt lat="43.83088" lon="7.26425">
        <ele>523</ele>
        <time>2022-01-13T12:50:09.000Z</time>
      </trkpt>
      <trkpt lat="43.8308" lon="7.26425">
        <ele>521.40002441406</ele>
        <time>2022-01-13T12:50:10.000Z</time>
      </trkpt>
      <trkpt lat="43.83071" lon="7.26424">
        <ele>520</ele>
        <time>2022-01-13T12:50:11.000Z</time>
      </trkpt>
      <trkpt lat="43.83063" lon="7.26423">
        <ele>519</ele>
        <time>2022-01-13T12:50:12.000Z</time>
      </trkpt>
      <trkpt lat="43.83049" lon="7.26421">
        <ele>517.40002441406</ele>
        <time>2022-01-13T12:50:14.000Z</time>
      </trkpt>
      <trkpt lat="43.83034" lon="7.26419">
        <ele>517.40002441406</ele>
        <time>2022-01-13T12:50:16.000Z</time>
      </trkpt>
      <trkpt lat="43.83" lon="7.26416">
        <ele>518.40002441406</ele>
        <time>2022-01-13T12:50:22.000Z</time>
      </trkpt>
      <trkpt lat="43.82995" lon="7.26415">
        <ele>518.40002441406</ele>
        <time>2022-01-13T12:50:23.000Z</time>
      </trkpt>
      <trkpt lat="43.82987" lon="7.26415">
        <ele>518.59997558594</ele>
        <time>2022-01-13T12:50:25.000Z</time>
      </trkpt>
      <trkpt lat="43.82979" lon="7.26416">
        <ele>518.79998779297</ele>
        <time>2022-01-13T12:50:27.000Z</time>
      </trkpt>
      <trkpt lat="43.82969" lon="7.26417">
        <ele>519.40002441406</ele>
        <time>2022-01-13T12:50:30.000Z</time>
      </trkpt>
      <trkpt lat="43.82958" lon="7.26418">
        <ele>519.79998779297</ele>
        <time>2022-01-13T12:50:33.000Z</time>
      </trkpt>
      <trkpt lat="43.82927" lon="7.26423">
        <ele>519.79998779297</ele>
        <time>2022-01-13T12:50:41.000Z</time>
      </trkpt>
      <trkpt lat="43.82901" lon="7.26434">
        <ele>519.59997558594</ele>
        <time>2022-01-13T12:50:48.000Z</time>
      </trkpt>
      <trkpt lat="43.82881" lon="7.26444">
        <ele>519.40002441406</ele>
        <time>2022-01-13T12:50:54.000Z</time>
      </trkpt>
      <trkpt lat="43.82865" lon="7.26446">
        <ele>519.59997558594</ele>
        <time>2022-01-13T12:50:58.000Z</time>
      </trkpt>
      <trkpt lat="43.82855" lon="7.26445">
        <ele>519.20001220703</ele>
        <time>2022-01-13T12:51:00.000Z</time>
      </trkpt>
      <trkpt lat="43.82838" lon="7.26443">
        <ele>518.40002441406</ele>
        <time>2022-01-13T12:51:03.000Z</time>
      </trkpt>
      <trkpt lat="43.82825" lon="7.26441">
        <ele>517.40002441406</ele>
        <time>2022-01-13T12:51:05.000Z</time>
      </trkpt>
      <trkpt lat="43.8281" lon="7.26439">
        <ele>515.79998779297</ele>
        <time>2022-01-13T12:51:07.000Z</time>
      </trkpt>
      <trkpt lat="43.82794" lon="7.26436">
        <ele>514.20001220703</ele>
        <time>2022-01-13T12:51:09.000Z</time>
      </trkpt>
      <trkpt lat="43.82785" lon="7.26435">
        <ele>513.20001220703</ele>
        <time>2022-01-13T12:51:10.000Z</time>
      </trkpt>
      <trkpt lat="43.82777" lon="7.26433">
        <ele>512.20001220703</ele>
        <time>2022-01-13T12:51:11.000Z</time>
      </trkpt>
      <trkpt lat="43.82759" lon="7.26429">
        <ele>511</ele>
        <time>2022-01-13T12:51:13.000Z</time>
      </trkpt>
      <trkpt lat="43.82742" lon="7.26425">
        <ele>509.79998779297</ele>
        <time>2022-01-13T12:51:15.000Z</time>
      </trkpt>
      <trkpt lat="43.82727" lon="7.26421">
        <ele>508.60000610352</ele>
        <time>2022-01-13T12:51:17.000Z</time>
      </trkpt>
      <trkpt lat="43.82704" lon="7.26419">
        <ele>507.79998779297</ele>
        <time>2022-01-13T12:51:20.000Z</time>
      </trkpt>
      <trkpt lat="43.82695" lon="7.26421">
        <ele>507.39999389648</ele>
        <time>2022-01-13T12:51:21.000Z</time>
      </trkpt>
      <trkpt lat="43.82688" lon="7.26426">
        <ele>507</ele>
        <time>2022-01-13T12:51:22.000Z</time>
      </trkpt>
      <trkpt lat="43.82681" lon="7.26431">
        <ele>506.20001220703</ele>
        <time>2022-01-13T12:51:23.000Z</time>
      </trkpt>
      <trkpt lat="43.82674" lon="7.26433">
        <ele>505.39999389648</ele>
        <time>2022-01-13T12:51:24.000Z</time>
      </trkpt>
      <trkpt lat="43.82668" lon="7.26432">
        <ele>504.60000610352</ele>
        <time>2022-01-13T12:51:25.000Z</time>
      </trkpt>
      <trkpt lat="43.82664" lon="7.26428">
        <ele>504</ele>
        <time>2022-01-13T12:51:26.000Z</time>
      </trkpt>
      <trkpt lat="43.82662" lon="7.26421">
        <ele>503.39999389648</ele>
        <time>2022-01-13T12:51:27.000Z</time>
      </trkpt>
      <trkpt lat="43.82663" lon="7.26413">
        <ele>503.20001220703</ele>
        <time>2022-01-13T12:51:28.000Z</time>
      </trkpt>
      <trkpt lat="43.82668" lon="7.26396">
        <ele>503.20001220703</ele>
        <time>2022-01-13T12:51:30.000Z</time>
      </trkpt>
      <trkpt lat="43.82669" lon="7.26387">
        <ele>503</ele>
        <time>2022-01-13T12:51:31.000Z</time>
      </trkpt>
      <trkpt lat="43.82668" lon="7.26378">
        <ele>502.60000610352</ele>
        <time>2022-01-13T12:51:32.000Z</time>
      </trkpt>
      <trkpt lat="43.82665" lon="7.26368">
        <ele>502.20001220703</ele>
        <time>2022-01-13T12:51:33.000Z</time>
      </trkpt>
      <trkpt lat="43.82656" lon="7.26349">
        <ele>500.79998779297</ele>
        <time>2022-01-13T12:51:35.000Z</time>
      </trkpt>
      <trkpt lat="43.82651" lon="7.26339">
        <ele>499.79998779297</ele>
        <time>2022-01-13T12:51:36.000Z</time>
      </trkpt>
      <trkpt lat="43.82646" lon="7.26329">
        <ele>498.60000610352</ele>
        <time>2022-01-13T12:51:37.000Z</time>
      </trkpt>
      <trkpt lat="43.82641" lon="7.2632">
        <ele>497.20001220703</ele>
        <time>2022-01-13T12:51:38.000Z</time>
      </trkpt>
      <trkpt lat="43.82637" lon="7.2631">
        <ele>496.20001220703</ele>
        <time>2022-01-13T12:51:39.000Z</time>
      </trkpt>
      <trkpt lat="43.82632" lon="7.26301">
        <ele>494.60000610352</ele>
        <time>2022-01-13T12:51:40.000Z</time>
      </trkpt>
      <trkpt lat="43.82627" lon="7.26292">
        <ele>493.20001220703</ele>
        <time>2022-01-13T12:51:41.000Z</time>
      </trkpt>
      <trkpt lat="43.82621" lon="7.26285">
        <ele>491.79998779297</ele>
        <time>2022-01-13T12:51:42.000Z</time>
      </trkpt>
      <trkpt lat="43.82616" lon="7.26277">
        <ele>490.79998779297</ele>
        <time>2022-01-13T12:51:43.000Z</time>
      </trkpt>
      <trkpt lat="43.82611" lon="7.26258">
        <ele>489.20001220703</ele>
        <time>2022-01-13T12:51:45.000Z</time>
      </trkpt>
      <trkpt lat="43.82609" lon="7.26243">
        <ele>487.79998779297</ele>
        <time>2022-01-13T12:51:47.000Z</time>
      </trkpt>
      <trkpt lat="43.8261" lon="7.26237">
        <ele>487.20001220703</ele>
        <time>2022-01-13T12:51:48.000Z</time>
      </trkpt>
      <trkpt lat="43.82611" lon="7.26232">
        <ele>486.39999389648</ele>
        <time>2022-01-13T12:51:49.000Z</time>
      </trkpt>
      <trkpt lat="43.82618" lon="7.2623">
        <ele>485.60000610352</ele>
        <time>2022-01-13T12:51:51.000Z</time>
      </trkpt>
      <trkpt lat="43.82622" lon="7.26234">
        <ele>485</ele>
        <time>2022-01-13T12:51:52.000Z</time>
      </trkpt>
      <trkpt lat="43.82629" lon="7.26244">
        <ele>484</ele>
        <time>2022-01-13T12:51:54.000Z</time>
      </trkpt>
      <trkpt lat="43.82638" lon="7.26246">
        <ele>482.20001220703</ele>
        <time>2022-01-13T12:51:56.000Z</time>
      </trkpt>
      <trkpt lat="43.82641" lon="7.26243">
        <ele>481.39999389648</ele>
        <time>2022-01-13T12:51:57.000Z</time>
      </trkpt>
      <trkpt lat="43.82643" lon="7.26237">
        <ele>480.39999389648</ele>
        <time>2022-01-13T12:51:58.000Z</time>
      </trkpt>
      <trkpt lat="43.82647" lon="7.26227">
        <ele>479</ele>
        <time>2022-01-13T12:52:00.000Z</time>
      </trkpt>
      <trkpt lat="43.82652" lon="7.26208">
        <ele>477.60000610352</ele>
        <time>2022-01-13T12:52:03.000Z</time>
      </trkpt>
      <trkpt lat="43.82653" lon="7.26202">
        <ele>477.20001220703</ele>
        <time>2022-01-13T12:52:04.000Z</time>
      </trkpt>
      <trkpt lat="43.82655" lon="7.26184">
        <ele>476.20001220703</ele>
        <time>2022-01-13T12:52:06.000Z</time>
      </trkpt>
      <trkpt lat="43.82655" lon="7.26175">
        <ele>475.60000610352</ele>
        <time>2022-01-13T12:52:07.000Z</time>
      </trkpt>
      <trkpt lat="43.82652" lon="7.26167">
        <ele>475.20001220703</ele>
        <time>2022-01-13T12:52:08.000Z</time>
      </trkpt>
      <trkpt lat="43.82649" lon="7.26159">
        <ele>474.79998779297</ele>
        <time>2022-01-13T12:52:09.000Z</time>
      </trkpt>
      <trkpt lat="43.82639" lon="7.26142">
        <ele>473.79998779297</ele>
        <time>2022-01-13T12:52:11.000Z</time>
      </trkpt>
      <trkpt lat="43.82634" lon="7.26134">
        <ele>473.20001220703</ele>
        <time>2022-01-13T12:52:12.000Z</time>
      </trkpt>
      <trkpt lat="43.82628" lon="7.26127">
        <ele>472.39999389648</ele>
        <time>2022-01-13T12:52:13.000Z</time>
      </trkpt>
      <trkpt lat="43.82618" lon="7.26115">
        <ele>470.79998779297</ele>
        <time>2022-01-13T12:52:15.000Z</time>
      </trkpt>
      <trkpt lat="43.82613" lon="7.2611">
        <ele>470.20001220703</ele>
        <time>2022-01-13T12:52:16.000Z</time>
      </trkpt>
      <trkpt lat="43.82609" lon="7.26106">
        <ele>469.39999389648</ele>
        <time>2022-01-13T12:52:17.000Z</time>
      </trkpt>
      <trkpt lat="43.82594" lon="7.26096">
        <ele>468.20001220703</ele>
        <time>2022-01-13T12:52:20.000Z</time>
      </trkpt>
      <trkpt lat="43.82588" lon="7.26095">
        <ele>468</ele>
        <time>2022-01-13T12:52:21.000Z</time>
      </trkpt>
      <trkpt lat="43.82574" lon="7.26093">
        <ele>467.79998779297</ele>
        <time>2022-01-13T12:52:24.000Z</time>
      </trkpt>
      <trkpt lat="43.82564" lon="7.26091">
        <ele>467.79998779297</ele>
        <time>2022-01-13T12:52:26.000Z</time>
      </trkpt>
      <trkpt lat="43.82554" lon="7.2609">
        <ele>467.79998779297</ele>
        <time>2022-01-13T12:52:28.000Z</time>
      </trkpt>
      <trkpt lat="43.82535" lon="7.26087">
        <ele>468</ele>
        <time>2022-01-13T12:52:32.000Z</time>
      </trkpt>
      <trkpt lat="43.82506" lon="7.26086">
        <ele>468</ele>
        <time>2022-01-13T12:52:38.000Z</time>
      </trkpt>
      <trkpt lat="43.82497" lon="7.26089">
        <ele>468</ele>
        <time>2022-01-13T12:52:40.000Z</time>
      </trkpt>
      <trkpt lat="43.8248" lon="7.261">
        <ele>467.60000610352</ele>
        <time>2022-01-13T12:52:44.000Z</time>
      </trkpt>
      <trkpt lat="43.82471" lon="7.26107">
        <ele>467.60000610352</ele>
        <time>2022-01-13T12:52:46.000Z</time>
      </trkpt>
      <trkpt lat="43.82437" lon="7.26135">
        <ele>467.39999389648</ele>
        <time>2022-01-13T12:52:54.000Z</time>
      </trkpt>
      <trkpt lat="43.82407" lon="7.26161">
        <ele>467.39999389648</ele>
        <time>2022-01-13T12:53:01.000Z</time>
      </trkpt>
      <trkpt lat="43.82394" lon="7.26174">
        <ele>467.20001220703</ele>
        <time>2022-01-13T12:53:04.000Z</time>
      </trkpt>
      <trkpt lat="43.82381" lon="7.26185">
        <ele>467.20001220703</ele>
        <time>2022-01-13T12:53:07.000Z</time>
      </trkpt>
      <trkpt lat="43.82341" lon="7.26218">
        <ele>467</ele>
        <time>2022-01-13T12:53:16.000Z</time>
      </trkpt>
      <trkpt lat="43.82313" lon="7.26229">
        <ele>466.79998779297</ele>
        <time>2022-01-13T12:53:22.000Z</time>
      </trkpt>
      <trkpt lat="43.82291" lon="7.26242">
        <ele>467.20001220703</ele>
        <time>2022-01-13T12:53:27.000Z</time>
      </trkpt>
      <trkpt lat="43.82284" lon="7.2625">
        <ele>467.20001220703</ele>
        <time>2022-01-13T12:53:29.000Z</time>
      </trkpt>
      <trkpt lat="43.8228" lon="7.26255">
        <ele>467.39999389648</ele>
        <time>2022-01-13T12:53:30.000Z</time>
      </trkpt>
      <trkpt lat="43.82261" lon="7.26277">
        <ele>467.39999389648</ele>
        <time>2022-01-13T12:53:35.000Z</time>
      </trkpt>
      <trkpt lat="43.82231" lon="7.26307">
        <ele>467</ele>
        <time>2022-01-13T12:53:42.000Z</time>
      </trkpt>
      <trkpt lat="43.82225" lon="7.26309">
        <ele>466.79998779297</ele>
        <time>2022-01-13T12:53:43.000Z</time>
      </trkpt>
      <trkpt lat="43.82208" lon="7.26314">
        <ele>466.20001220703</ele>
        <time>2022-01-13T12:53:46.000Z</time>
      </trkpt>
      <trkpt lat="43.82184" lon="7.26319">
        <ele>465.39999389648</ele>
        <time>2022-01-13T12:53:50.000Z</time>
      </trkpt>
      <trkpt lat="43.82165" lon="7.26322">
        <ele>465</ele>
        <time>2022-01-13T12:53:53.000Z</time>
      </trkpt>
      <trkpt lat="43.82134" lon="7.26331">
        <ele>464.20001220703</ele>
        <time>2022-01-13T12:53:58.000Z</time>
      </trkpt>
      <trkpt lat="43.82128" lon="7.26333">
        <ele>464</ele>
        <time>2022-01-13T12:53:59.000Z</time>
      </trkpt>
      <trkpt lat="43.82102" lon="7.26344">
        <ele>463</ele>
        <time>2022-01-13T12:54:03.000Z</time>
      </trkpt>
      <trkpt lat="43.82082" lon="7.26353">
        <ele>462.20001220703</ele>
        <time>2022-01-13T12:54:06.000Z</time>
      </trkpt>
      <trkpt lat="43.8207" lon="7.2636">
        <ele>461.79998779297</ele>
        <time>2022-01-13T12:54:08.000Z</time>
      </trkpt>
      <trkpt lat="43.82043" lon="7.26373">
        <ele>460.60000610352</ele>
        <time>2022-01-13T12:54:12.000Z</time>
      </trkpt>
      <trkpt lat="43.82015" lon="7.26386">
        <ele>459.79998779297</ele>
        <time>2022-01-13T12:54:16.000Z</time>
      </trkpt>
      <trkpt lat="43.82008" lon="7.26389">
        <ele>459.39999389648</ele>
        <time>2022-01-13T12:54:17.000Z</time>
      </trkpt>
      <trkpt lat="43.8198" lon="7.26402">
        <ele>458.20001220703</ele>
        <time>2022-01-13T12:54:21.000Z</time>
      </trkpt>
      <trkpt lat="43.8196" lon="7.26411">
        <ele>457.20001220703</ele>
        <time>2022-01-13T12:54:24.000Z</time>
      </trkpt>
      <trkpt lat="43.81946" lon="7.26417">
        <ele>456.60000610352</ele>
        <time>2022-01-13T12:54:26.000Z</time>
      </trkpt>
      <trkpt lat="43.81932" lon="7.26424">
        <ele>456</ele>
        <time>2022-01-13T12:54:28.000Z</time>
      </trkpt>
      <trkpt lat="43.81898" lon="7.2644">
        <ele>455</ele>
        <time>2022-01-13T12:54:33.000Z</time>
      </trkpt>
      <trkpt lat="43.81877" lon="7.26449">
        <ele>454.39999389648</ele>
        <time>2022-01-13T12:54:36.000Z</time>
      </trkpt>
      <trkpt lat="43.8185" lon="7.26461">
        <ele>453.79998779297</ele>
        <time>2022-01-13T12:54:40.000Z</time>
      </trkpt>
      <trkpt lat="43.81824" lon="7.26474">
        <ele>453</ele>
        <time>2022-01-13T12:54:44.000Z</time>
      </trkpt>
      <trkpt lat="43.81816" lon="7.26478">
        <ele>452.60000610352</ele>
        <time>2022-01-13T12:54:45.000Z</time>
      </trkpt>
      <trkpt lat="43.81775" lon="7.26497">
        <ele>451.39999389648</ele>
        <time>2022-01-13T12:54:51.000Z</time>
      </trkpt>
      <trkpt lat="43.81761" lon="7.26503">
        <ele>451.20001220703</ele>
        <time>2022-01-13T12:54:53.000Z</time>
      </trkpt>
      <trkpt lat="43.81746" lon="7.26507">
        <ele>450.39999389648</ele>
        <time>2022-01-13T12:54:55.000Z</time>
      </trkpt>
      <trkpt lat="43.8174" lon="7.26507">
        <ele>450.20001220703</ele>
        <time>2022-01-13T12:54:56.000Z</time>
      </trkpt>
      <trkpt lat="43.81725" lon="7.26507">
        <ele>449.39999389648</ele>
        <time>2022-01-13T12:54:58.000Z</time>
      </trkpt>
      <trkpt lat="43.81718" lon="7.26506">
        <ele>449.20001220703</ele>
        <time>2022-01-13T12:54:59.000Z</time>
      </trkpt>
      <trkpt lat="43.81697" lon="7.265">
        <ele>448.39999389648</ele>
        <time>2022-01-13T12:55:02.000Z</time>
      </trkpt>
      <trkpt lat="43.8169" lon="7.26498">
        <ele>448</ele>
        <time>2022-01-13T12:55:03.000Z</time>
      </trkpt>
      <trkpt lat="43.81676" lon="7.26499">
        <ele>447.39999389648</ele>
        <time>2022-01-13T12:55:05.000Z</time>
      </trkpt>
      <trkpt lat="43.81669" lon="7.26501">
        <ele>447.20001220703</ele>
        <time>2022-01-13T12:55:06.000Z</time>
      </trkpt>
      <trkpt lat="43.81636" lon="7.26521">
        <ele>447</ele>
        <time>2022-01-13T12:55:11.000Z</time>
      </trkpt>
      <trkpt lat="43.81629" lon="7.26525">
        <ele>447</ele>
        <time>2022-01-13T12:55:12.000Z</time>
      </trkpt>
      <trkpt lat="43.8161" lon="7.26537">
        <ele>445.79998779297</ele>
        <time>2022-01-13T12:55:15.000Z</time>
      </trkpt>
      <trkpt lat="43.81589" lon="7.26546">
        <ele>445</ele>
        <time>2022-01-13T12:55:18.000Z</time>
      </trkpt>
      <trkpt lat="43.81574" lon="7.26543">
        <ele>444.60000610352</ele>
        <time>2022-01-13T12:55:20.000Z</time>
      </trkpt>
      <trkpt lat="43.81567" lon="7.26539">
        <ele>444.39999389648</ele>
        <time>2022-01-13T12:55:21.000Z</time>
      </trkpt>
      <trkpt lat="43.81561" lon="7.26536">
        <ele>444.20001220703</ele>
        <time>2022-01-13T12:55:22.000Z</time>
      </trkpt>
      <trkpt lat="43.81549" lon="7.26528">
        <ele>443.60000610352</ele>
        <time>2022-01-13T12:55:24.000Z</time>
      </trkpt>
      <trkpt lat="43.81536" lon="7.26521">
        <ele>443.20001220703</ele>
        <time>2022-01-13T12:55:26.000Z</time>
      </trkpt>
      <trkpt lat="43.81528" lon="7.26519">
        <ele>443</ele>
        <time>2022-01-13T12:55:27.000Z</time>
      </trkpt>
      <trkpt lat="43.81501" lon="7.26525">
        <ele>442.60000610352</ele>
        <time>2022-01-13T12:55:31.000Z</time>
      </trkpt>
      <trkpt lat="43.81495" lon="7.26529">
        <ele>442.39999389648</ele>
        <time>2022-01-13T12:55:32.000Z</time>
      </trkpt>
      <trkpt lat="43.8146" lon="7.26551">
        <ele>441.20001220703</ele>
        <time>2022-01-13T12:55:37.000Z</time>
      </trkpt>
      <trkpt lat="43.81454" lon="7.26555">
        <ele>441</ele>
        <time>2022-01-13T12:55:38.000Z</time>
      </trkpt>
      <trkpt lat="43.81432" lon="7.26568">
        <ele>440</ele>
        <time>2022-01-13T12:55:41.000Z</time>
      </trkpt>
      <trkpt lat="43.8141" lon="7.26576">
        <ele>439</ele>
        <time>2022-01-13T12:55:44.000Z</time>
      </trkpt>
      <trkpt lat="43.81402" lon="7.26575">
        <ele>438.79998779297</ele>
        <time>2022-01-13T12:55:45.000Z</time>
      </trkpt>
      <trkpt lat="43.81381" lon="7.26562">
        <ele>438</ele>
        <time>2022-01-13T12:55:48.000Z</time>
      </trkpt>
      <trkpt lat="43.81375" lon="7.26558">
        <ele>437.60000610352</ele>
        <time>2022-01-13T12:55:49.000Z</time>
      </trkpt>
      <trkpt lat="43.81346" lon="7.26546">
        <ele>436.79998779297</ele>
        <time>2022-01-13T12:55:53.000Z</time>
      </trkpt>
      <trkpt lat="43.81339" lon="7.26547">
        <ele>436.60000610352</ele>
        <time>2022-01-13T12:55:54.000Z</time>
      </trkpt>
      <trkpt lat="43.81324" lon="7.26551">
        <ele>436</ele>
        <time>2022-01-13T12:55:56.000Z</time>
      </trkpt>
      <trkpt lat="43.81318" lon="7.26556">
        <ele>435.60000610352</ele>
        <time>2022-01-13T12:55:57.000Z</time>
      </trkpt>
      <trkpt lat="43.81305" lon="7.26566">
        <ele>435</ele>
        <time>2022-01-13T12:55:59.000Z</time>
      </trkpt>
      <trkpt lat="43.81298" lon="7.26571">
        <ele>434.79998779297</ele>
        <time>2022-01-13T12:56:00.000Z</time>
      </trkpt>
      <trkpt lat="43.81292" lon="7.26576">
        <ele>434.39999389648</ele>
        <time>2022-01-13T12:56:01.000Z</time>
      </trkpt>
      <trkpt lat="43.81247" lon="7.26612">
        <ele>433.39999389648</ele>
        <time>2022-01-13T12:56:08.000Z</time>
      </trkpt>
      <trkpt lat="43.81241" lon="7.26617">
        <ele>433</ele>
        <time>2022-01-13T12:56:09.000Z</time>
      </trkpt>
      <trkpt lat="43.81227" lon="7.26625">
        <ele>432.39999389648</ele>
        <time>2022-01-13T12:56:11.000Z</time>
      </trkpt>
      <trkpt lat="43.81211" lon="7.26627">
        <ele>431.79998779297</ele>
        <time>2022-01-13T12:56:13.000Z</time>
      </trkpt>
      <trkpt lat="43.8119" lon="7.2662">
        <ele>431</ele>
        <time>2022-01-13T12:56:16.000Z</time>
      </trkpt>
      <trkpt lat="43.81171" lon="7.26607">
        <ele>430.39999389648</ele>
        <time>2022-01-13T12:56:19.000Z</time>
      </trkpt>
      <trkpt lat="43.81157" lon="7.26597">
        <ele>430.20001220703</ele>
        <time>2022-01-13T12:56:21.000Z</time>
      </trkpt>
      <trkpt lat="43.81145" lon="7.26588">
        <ele>430</ele>
        <time>2022-01-13T12:56:23.000Z</time>
      </trkpt>
      <trkpt lat="43.81126" lon="7.26575">
        <ele>428.60000610352</ele>
        <time>2022-01-13T12:56:26.000Z</time>
      </trkpt>
      <trkpt lat="43.81114" lon="7.26565">
        <ele>428.20001220703</ele>
        <time>2022-01-13T12:56:28.000Z</time>
      </trkpt>
      <trkpt lat="43.8109" lon="7.26546">
        <ele>427.60000610352</ele>
        <time>2022-01-13T12:56:32.000Z</time>
      </trkpt>
      <trkpt lat="43.81076" lon="7.26542">
        <ele>427.39999389648</ele>
        <time>2022-01-13T12:56:34.000Z</time>
      </trkpt>
      <trkpt lat="43.81047" lon="7.26544">
        <ele>426.60000610352</ele>
        <time>2022-01-13T12:56:38.000Z</time>
      </trkpt>
      <trkpt lat="43.81018" lon="7.2655">
        <ele>425.39999389648</ele>
        <time>2022-01-13T12:56:42.000Z</time>
      </trkpt>
      <trkpt lat="43.80989" lon="7.26555">
        <ele>424.39999389648</ele>
        <time>2022-01-13T12:56:46.000Z</time>
      </trkpt>
      <trkpt lat="43.80982" lon="7.26557">
        <ele>424.20001220703</ele>
        <time>2022-01-13T12:56:47.000Z</time>
      </trkpt>
      <trkpt lat="43.80967" lon="7.2656">
        <ele>423.79998779297</ele>
        <time>2022-01-13T12:56:49.000Z</time>
      </trkpt>
      <trkpt lat="43.80952" lon="7.26562">
        <ele>423.60000610352</ele>
        <time>2022-01-13T12:56:52.000Z</time>
      </trkpt>
      <trkpt lat="43.80936" lon="7.26565">
        <ele>423.20001220703</ele>
        <time>2022-01-13T12:56:54.000Z</time>
      </trkpt>
      <trkpt lat="43.80929" lon="7.26567">
        <ele>423</ele>
        <time>2022-01-13T12:56:55.000Z</time>
      </trkpt>
      <trkpt lat="43.80909" lon="7.26575">
        <ele>422</ele>
        <time>2022-01-13T12:56:58.000Z</time>
      </trkpt>
      <trkpt lat="43.80889" lon="7.26587">
        <ele>421.39999389648</ele>
        <time>2022-01-13T12:57:01.000Z</time>
      </trkpt>
      <trkpt lat="43.80875" lon="7.26594">
        <ele>420.79998779297</ele>
        <time>2022-01-13T12:57:03.000Z</time>
      </trkpt>
      <trkpt lat="43.80847" lon="7.26608">
        <ele>420</ele>
        <time>2022-01-13T12:57:07.000Z</time>
      </trkpt>
      <trkpt lat="43.80834" lon="7.26611">
        <ele>419.60000610352</ele>
        <time>2022-01-13T12:57:09.000Z</time>
      </trkpt>
      <trkpt lat="43.80819" lon="7.26616">
        <ele>419.20001220703</ele>
        <time>2022-01-13T12:57:11.000Z</time>
      </trkpt>
      <trkpt lat="43.80806" lon="7.26628">
        <ele>418.60000610352</ele>
        <time>2022-01-13T12:57:13.000Z</time>
      </trkpt>
      <trkpt lat="43.80796" lon="7.26642">
        <ele>418.20001220703</ele>
        <time>2022-01-13T12:57:15.000Z</time>
      </trkpt>
      <trkpt lat="43.80778" lon="7.26664">
        <ele>417.39999389648</ele>
        <time>2022-01-13T12:57:18.000Z</time>
      </trkpt>
      <trkpt lat="43.80754" lon="7.26692">
        <ele>416.20001220703</ele>
        <time>2022-01-13T12:57:22.000Z</time>
      </trkpt>
      <trkpt lat="43.80734" lon="7.26708">
        <ele>415.39999389648</ele>
        <time>2022-01-13T12:57:25.000Z</time>
      </trkpt>
      <trkpt lat="43.80726" lon="7.26712">
        <ele>415</ele>
        <time>2022-01-13T12:57:26.000Z</time>
      </trkpt>
      <trkpt lat="43.80698" lon="7.26732">
        <ele>413.79998779297</ele>
        <time>2022-01-13T12:57:30.000Z</time>
      </trkpt>
      <trkpt lat="43.8067" lon="7.26768">
        <ele>412.79998779297</ele>
        <time>2022-01-13T12:57:35.000Z</time>
      </trkpt>
      <trkpt lat="43.80652" lon="7.26791">
        <ele>411.60000610352</ele>
        <time>2022-01-13T12:57:38.000Z</time>
      </trkpt>
      <trkpt lat="43.80625" lon="7.26827">
        <ele>410.60000610352</ele>
        <time>2022-01-13T12:57:43.000Z</time>
      </trkpt>
      <trkpt lat="43.80588" lon="7.26862">
        <ele>410</ele>
        <time>2022-01-13T12:57:49.000Z</time>
      </trkpt>
      <trkpt lat="43.80582" lon="7.26865">
        <ele>409.79998779297</ele>
        <time>2022-01-13T12:57:50.000Z</time>
      </trkpt>
      <trkpt lat="43.80575" lon="7.26868">
        <ele>409.60000610352</ele>
        <time>2022-01-13T12:57:51.000Z</time>
      </trkpt>
      <trkpt lat="43.80561" lon="7.26873">
        <ele>409.20001220703</ele>
        <time>2022-01-13T12:57:53.000Z</time>
      </trkpt>
      <trkpt lat="43.80539" lon="7.26877">
        <ele>408.79998779297</ele>
        <time>2022-01-13T12:57:56.000Z</time>
      </trkpt>
      <trkpt lat="43.80517" lon="7.26874">
        <ele>408.39999389648</ele>
        <time>2022-01-13T12:57:59.000Z</time>
      </trkpt>
      <trkpt lat="43.80503" lon="7.26872">
        <ele>408</ele>
        <time>2022-01-13T12:58:01.000Z</time>
      </trkpt>
      <trkpt lat="43.80483" lon="7.26864">
        <ele>407.20001220703</ele>
        <time>2022-01-13T12:58:04.000Z</time>
      </trkpt>
      <trkpt lat="43.80471" lon="7.26857">
        <ele>407</ele>
        <time>2022-01-13T12:58:06.000Z</time>
      </trkpt>
      <trkpt lat="43.8044" lon="7.26838">
        <ele>406.39999389648</ele>
        <time>2022-01-13T12:58:12.000Z</time>
      </trkpt>
      <trkpt lat="43.80434" lon="7.26832">
        <ele>407</ele>
        <time>2022-01-13T12:58:16.000Z</time>
      </trkpt>
      <trkpt lat="43.80435" lon="7.26831">
        <ele>407.39999389648</ele>
        <time>2022-01-13T12:58:20.000Z</time>
      </trkpt>
      <trkpt lat="43.80436" lon="7.26831">
        <ele>407.39999389648</ele>
        <time>2022-01-13T12:58:39.000Z</time>
      </trkpt>
      <trkpt lat="43.80436" lon="7.2683">
        <ele>407.60000610352</ele>
        <time>2022-01-13T12:58:47.000Z</time>
      </trkpt>
      <trkpt lat="43.80436" lon="7.26829">
        <ele>407.39999389648</ele>
        <time>2022-01-13T12:58:56.000Z</time>
      </trkpt>
      <trkpt lat="43.80437" lon="7.2683">
        <ele>407.39999389648</ele>
        <time>2022-01-13T12:59:00.000Z</time>
      </trkpt>
      <trkpt lat="43.80436" lon="7.26829">
        <ele>407.60000610352</ele>
        <time>2022-01-13T12:59:10.000Z</time>
      </trkpt>
      <trkpt lat="43.80433" lon="7.26826">
        <ele>407.39999389648</ele>
        <time>2022-01-13T12:59:14.000Z</time>
      </trkpt>
      <trkpt lat="43.80434" lon="7.26824">
        <ele>407.39999389648</ele>
        <time>2022-01-13T12:59:16.000Z</time>
      </trkpt>
      <trkpt lat="43.80437" lon="7.26819">
        <ele>407.79998779297</ele>
        <time>2022-01-13T12:59:21.000Z</time>
      </trkpt>
      <trkpt lat="43.80438" lon="7.26818">
        <ele>407.79998779297</ele>
        <time>2022-01-13T12:59:26.000Z</time>
      </trkpt>
      <trkpt lat="43.80438" lon="7.26819">
        <ele>407.60000610352</ele>
        <time>2022-01-13T12:59:31.000Z</time>
      </trkpt>
      <trkpt lat="43.8044" lon="7.26816">
        <ele>407.20001220703</ele>
        <time>2022-01-13T12:59:42.000Z</time>
      </trkpt>
      <trkpt lat="43.80441" lon="7.26815">
        <ele>408.20001220703</ele>
        <time>2022-01-13T12:59:49.000Z</time>
      </trkpt>
      <trkpt lat="43.80441" lon="7.26815">
        <ele>408.20001220703</ele>
        <time>2022-01-13T12:59:51.000Z</time>
      </trkpt>
      <trkpt lat="43.80441" lon="7.26814">
        <ele>408</ele>
        <time>2022-01-13T12:59:55.000Z</time>
      </trkpt>
      <trkpt lat="43.80442" lon="7.26813">
        <ele>408</ele>
        <time>2022-01-13T12:59:56.000Z</time>
      </trkpt>
      <trkpt lat="43.80442" lon="7.26804">
        <ele>408.20001220703</ele>
        <time>2022-01-13T12:59:59.000Z</time>
      </trkpt>
      <trkpt lat="43.80443" lon="7.26801">
        <ele>408.20001220703</ele>
        <time>2022-01-13T13:00:00.000Z</time>
      </trkpt>
      <trkpt lat="43.8045" lon="7.26784">
        <ele>409</ele>
        <time>2022-01-13T13:00:06.000Z</time>
      </trkpt>
      <trkpt lat="43.80454" lon="7.26779">
        <ele>409.39999389648</ele>
        <time>2022-01-13T13:00:08.000Z</time>
      </trkpt>
      <trkpt lat="43.8046" lon="7.26767">
        <ele>410.39999389648</ele>
        <time>2022-01-13T13:00:13.000Z</time>
      </trkpt>
      <trkpt lat="43.80461" lon="7.26765">
        <ele>410.79998779297</ele>
        <time>2022-01-13T13:00:14.000Z</time>
      </trkpt>
      <trkpt lat="43.80464" lon="7.2675">
        <ele>411.60000610352</ele>
        <time>2022-01-13T13:00:19.000Z</time>
      </trkpt>
      <trkpt lat="43.80463" lon="7.26748">
        <ele>411.79998779297</ele>
        <time>2022-01-13T13:00:20.000Z</time>
      </trkpt>
      <trkpt lat="43.80462" lon="7.26735">
        <ele>412.79998779297</ele>
        <time>2022-01-13T13:00:24.000Z</time>
      </trkpt>
      <trkpt lat="43.80461" lon="7.26725">
        <ele>413.39999389648</ele>
        <time>2022-01-13T13:00:27.000Z</time>
      </trkpt>
      <trkpt lat="43.8046" lon="7.26719">
        <ele>413.79998779297</ele>
        <time>2022-01-13T13:00:29.000Z</time>
      </trkpt>
      <trkpt lat="43.80455" lon="7.26705">
        <ele>415</ele>
        <time>2022-01-13T13:00:34.000Z</time>
      </trkpt>
      <trkpt lat="43.80453" lon="7.26705">
        <ele>415.20001220703</ele>
        <time>2022-01-13T13:00:35.000Z</time>
      </trkpt>
      <trkpt lat="43.8045" lon="7.26709">
        <ele>415.60000610352</ele>
        <time>2022-01-13T13:00:37.000Z</time>
      </trkpt>
      <trkpt lat="43.80452" lon="7.26719">
        <ele>416.20001220703</ele>
        <time>2022-01-13T13:00:40.000Z</time>
      </trkpt>
      <trkpt lat="43.80452" lon="7.26723">
        <ele>416.39999389648</ele>
        <time>2022-01-13T13:00:41.000Z</time>
      </trkpt>
      <trkpt lat="43.80452" lon="7.26732">
        <ele>417.20001220703</ele>
        <time>2022-01-13T13:00:44.000Z</time>
      </trkpt>
      <trkpt lat="43.80449" lon="7.26741">
        <ele>417.79998779297</ele>
        <time>2022-01-13T13:00:47.000Z</time>
      </trkpt>
      <trkpt lat="43.80446" lon="7.26746">
        <ele>418.39999389648</ele>
        <time>2022-01-13T13:00:49.000Z</time>
      </trkpt>
      <trkpt lat="43.8044" lon="7.26751">
        <ele>419</ele>
        <time>2022-01-13T13:00:52.000Z</time>
      </trkpt>
      <trkpt lat="43.80438" lon="7.26752">
        <ele>419.39999389648</ele>
        <time>2022-01-13T13:00:53.000Z</time>
      </trkpt>
      <trkpt lat="43.80428" lon="7.26753">
        <ele>420.39999389648</ele>
        <time>2022-01-13T13:00:57.000Z</time>
      </trkpt>
      <trkpt lat="43.80423" lon="7.26751">
        <ele>420.79998779297</ele>
        <time>2022-01-13T13:00:59.000Z</time>
      </trkpt>
      <trkpt lat="43.80414" lon="7.26741">
        <ele>421.60000610352</ele>
        <time>2022-01-13T13:01:04.000Z</time>
      </trkpt>
      <trkpt lat="43.80411" lon="7.26736">
        <ele>422</ele>
        <time>2022-01-13T13:01:06.000Z</time>
      </trkpt>
      <trkpt lat="43.80405" lon="7.26725">
        <ele>422.60000610352</ele>
        <time>2022-01-13T13:01:10.000Z</time>
      </trkpt>
      <trkpt lat="43.80398" lon="7.26709">
        <ele>423.20001220703</ele>
        <time>2022-01-13T13:01:15.000Z</time>
      </trkpt>
      <trkpt lat="43.80399" lon="7.26692">
        <ele>423.20001220703</ele>
        <time>2022-01-13T13:01:19.000Z</time>
      </trkpt>
      <trkpt lat="43.80393" lon="7.26661">
        <ele>422.20001220703</ele>
        <time>2022-01-13T13:01:25.000Z</time>
      </trkpt>
      <trkpt lat="43.8039" lon="7.26645">
        <ele>421.60000610352</ele>
        <time>2022-01-13T13:01:28.000Z</time>
      </trkpt>
      <trkpt lat="43.80389" lon="7.26627">
        <ele>421.60000610352</ele>
        <time>2022-01-13T13:01:32.000Z</time>
      </trkpt>
      <trkpt lat="43.80392" lon="7.26605">
        <ele>422.79998779297</ele>
        <time>2022-01-13T13:01:37.000Z</time>
      </trkpt>
      <trkpt lat="43.80394" lon="7.26597">
        <ele>423.39999389648</ele>
        <time>2022-01-13T13:01:39.000Z</time>
      </trkpt>
      <trkpt lat="43.80395" lon="7.26593">
        <ele>423.79998779297</ele>
        <time>2022-01-13T13:01:40.000Z</time>
      </trkpt>
      <trkpt lat="43.804" lon="7.26569">
        <ele>425</ele>
        <time>2022-01-13T13:01:46.000Z</time>
      </trkpt>
      <trkpt lat="43.80405" lon="7.26545">
        <ele>426</ele>
        <time>2022-01-13T13:01:52.000Z</time>
      </trkpt>
      <trkpt lat="43.80406" lon="7.26534">
        <ele>426.39999389648</ele>
        <time>2022-01-13T13:01:55.000Z</time>
      </trkpt>
      <trkpt lat="43.80409" lon="7.26517">
        <ele>427.20001220703</ele>
        <time>2022-01-13T13:01:59.000Z</time>
      </trkpt>
      <trkpt lat="43.8041" lon="7.26501">
        <ele>427.79998779297</ele>
        <time>2022-01-13T13:02:03.000Z</time>
      </trkpt>
      <trkpt lat="43.80411" lon="7.26493">
        <ele>428.20001220703</ele>
        <time>2022-01-13T13:02:05.000Z</time>
      </trkpt>
      <trkpt lat="43.8041" lon="7.26468">
        <ele>429.39999389648</ele>
        <time>2022-01-13T13:02:11.000Z</time>
      </trkpt>
      <trkpt lat="43.8041" lon="7.2646">
        <ele>429.79998779297</ele>
        <time>2022-01-13T13:02:13.000Z</time>
      </trkpt>
      <trkpt lat="43.80413" lon="7.26448">
        <ele>430.60000610352</ele>
        <time>2022-01-13T13:02:16.000Z</time>
      </trkpt>
      <trkpt lat="43.80416" lon="7.26437">
        <ele>431.39999389648</ele>
        <time>2022-01-13T13:02:19.000Z</time>
      </trkpt>
      <trkpt lat="43.80417" lon="7.26433">
        <ele>431.60000610352</ele>
        <time>2022-01-13T13:02:20.000Z</time>
      </trkpt>
      <trkpt lat="43.80422" lon="7.26418">
        <ele>432.60000610352</ele>
        <time>2022-01-13T13:02:24.000Z</time>
      </trkpt>
      <trkpt lat="43.80425" lon="7.26405">
        <ele>433.79998779297</ele>
        <time>2022-01-13T13:02:28.000Z</time>
      </trkpt>
      <trkpt lat="43.80426" lon="7.26402">
        <ele>434</ele>
        <time>2022-01-13T13:02:29.000Z</time>
      </trkpt>
      <trkpt lat="43.80429" lon="7.26393">
        <ele>435</ele>
        <time>2022-01-13T13:02:32.000Z</time>
      </trkpt>
      <trkpt lat="43.80431" lon="7.26382">
        <ele>436</ele>
        <time>2022-01-13T13:02:36.000Z</time>
      </trkpt>
      <trkpt lat="43.80432" lon="7.26376">
        <ele>436.79998779297</ele>
        <time>2022-01-13T13:02:38.000Z</time>
      </trkpt>
      <trkpt lat="43.80433" lon="7.2637">
        <ele>437.39999389648</ele>
        <time>2022-01-13T13:02:40.000Z</time>
      </trkpt>
      <trkpt lat="43.80436" lon="7.26359">
        <ele>438.39999389648</ele>
        <time>2022-01-13T13:02:44.000Z</time>
      </trkpt>
      <trkpt lat="43.80437" lon="7.26356">
        <ele>438.60000610352</ele>
        <time>2022-01-13T13:02:45.000Z</time>
      </trkpt>
      <trkpt lat="43.80439" lon="7.26347">
        <ele>439.60000610352</ele>
        <time>2022-01-13T13:02:48.000Z</time>
      </trkpt>
      <trkpt lat="43.80443" lon="7.26338">
        <ele>440.79998779297</ele>
        <time>2022-01-13T13:02:52.000Z</time>
      </trkpt>
      <trkpt lat="43.80444" lon="7.26336">
        <ele>441</ele>
        <time>2022-01-13T13:02:53.000Z</time>
      </trkpt>
      <trkpt lat="43.80446" lon="7.26329">
        <ele>442</ele>
        <time>2022-01-13T13:02:56.000Z</time>
      </trkpt>
      <trkpt lat="43.80445" lon="7.26322">
        <ele>442.60000610352</ele>
        <time>2022-01-13T13:02:59.000Z</time>
      </trkpt>
      <trkpt lat="43.80444" lon="7.26319">
        <ele>443</ele>
        <time>2022-01-13T13:03:00.000Z</time>
      </trkpt>
      <trkpt lat="43.80441" lon="7.263">
        <ele>444</ele>
        <time>2022-01-13T13:03:06.000Z</time>
      </trkpt>
      <trkpt lat="43.80449" lon="7.26289">
        <ele>444.79998779297</ele>
        <time>2022-01-13T13:03:11.000Z</time>
      </trkpt>
      <trkpt lat="43.80452" lon="7.26287">
        <ele>445.20001220703</ele>
        <time>2022-01-13T13:03:13.000Z</time>
      </trkpt>
      <trkpt lat="43.80459" lon="7.26279">
        <ele>446.20001220703</ele>
        <time>2022-01-13T13:03:18.000Z</time>
      </trkpt>
      <trkpt lat="43.8046" lon="7.26274">
        <ele>446.79998779297</ele>
        <time>2022-01-13T13:03:20.000Z</time>
      </trkpt>
      <trkpt lat="43.80459" lon="7.26269">
        <ele>447.20001220703</ele>
        <time>2022-01-13T13:03:22.000Z</time>
      </trkpt>
      <trkpt lat="43.8046" lon="7.26266">
        <ele>447.39999389648</ele>
        <time>2022-01-13T13:03:23.000Z</time>
      </trkpt>
      <trkpt lat="43.80461" lon="7.26256">
        <ele>447.60000610352</ele>
        <time>2022-01-13T13:03:28.000Z</time>
      </trkpt>
      <trkpt lat="43.80462" lon="7.26248">
        <ele>447.60000610352</ele>
        <time>2022-01-13T13:03:34.000Z</time>
      </trkpt>
      <trkpt lat="43.80463" lon="7.26245">
        <ele>448</ele>
        <time>2022-01-13T13:03:48.000Z</time>
      </trkpt>
      <trkpt lat="43.80464" lon="7.26247">
        <ele>447.79998779297</ele>
        <time>2022-01-13T13:03:53.000Z</time>
      </trkpt>
      <trkpt lat="43.80463" lon="7.26247">
        <ele>447.39999389648</ele>
        <time>2022-01-13T13:03:58.000Z</time>
      </trkpt>
      <trkpt lat="43.80463" lon="7.26247">
        <ele>447.79998779297</ele>
        <time>2022-01-13T13:04:06.000Z</time>
      </trkpt>
      <trkpt lat="43.80464" lon="7.26247">
        <ele>447.79998779297</ele>
        <time>2022-01-13T13:04:08.000Z</time>
      </trkpt>
      <trkpt lat="43.80463" lon="7.26247">
        <ele>447.60000610352</ele>
        <time>2022-01-13T13:04:09.000Z</time>
      </trkpt>
      <trkpt lat="43.80463" lon="7.26247">
        <ele>447.60000610352</ele>
        <time>2022-01-13T13:04:20.000Z</time>
      </trkpt>
      <trkpt lat="43.80463" lon="7.26247">
        <ele>447.60000610352</ele>
        <time>2022-01-13T13:04:25.000Z</time>
      </trkpt>
      <trkpt lat="43.80462" lon="7.26246">
        <ele>447.60000610352</ele>
        <time>2022-01-13T13:04:31.000Z</time>
      </trkpt>
      <trkpt lat="43.80462" lon="7.26244">
        <ele>447.60000610352</ele>
        <time>2022-01-13T13:04:32.000Z</time>
      </trkpt>
      <trkpt lat="43.80462" lon="7.26233">
        <ele>447.39999389648</ele>
        <time>2022-01-13T13:04:35.000Z</time>
      </trkpt>
      <trkpt lat="43.80462" lon="7.26213">
        <ele>446.79998779297</ele>
        <time>2022-01-13T13:04:39.000Z</time>
      </trkpt>
      <trkpt lat="43.80462" lon="7.26202">
        <ele>446.39999389648</ele>
        <time>2022-01-13T13:04:41.000Z</time>
      </trkpt>
      <trkpt lat="43.80462" lon="7.26195">
        <ele>446.39999389648</ele>
        <time>2022-01-13T13:04:42.000Z</time>
      </trkpt>
      <trkpt lat="43.80464" lon="7.2619">
        <ele>446.20001220703</ele>
        <time>2022-01-13T13:04:43.000Z</time>
      </trkpt>
      <trkpt lat="43.80465" lon="7.26179">
        <ele>445.60000610352</ele>
        <time>2022-01-13T13:04:45.000Z</time>
      </trkpt>
      <trkpt lat="43.80467" lon="7.26171">
        <ele>445</ele>
        <time>2022-01-13T13:04:47.000Z</time>
      </trkpt>
      <trkpt lat="43.80467" lon="7.26169">
        <ele>445</ele>
        <time>2022-01-13T13:04:48.000Z</time>
      </trkpt>
      <trkpt lat="43.80469" lon="7.26161">
        <ele>445.60000610352</ele>
        <time>2022-01-13T13:04:52.000Z</time>
      </trkpt>
      <trkpt lat="43.80467" lon="7.26164">
        <ele>446</ele>
        <time>2022-01-13T13:04:57.000Z</time>
      </trkpt>
      <trkpt lat="43.80465" lon="7.26166">
        <ele>446.20001220703</ele>
        <time>2022-01-13T13:05:02.000Z</time>
      </trkpt>
      <trkpt lat="43.80464" lon="7.26166">
        <ele>446.20001220703</ele>
        <time>2022-01-13T13:05:03.000Z</time>
      </trkpt>
      <trkpt lat="43.8046" lon="7.26169">
        <ele>445.79998779297</ele>
        <time>2022-01-13T13:05:08.000Z</time>
      </trkpt>
      <trkpt lat="43.8046" lon="7.26169">
        <ele>445.39999389648</ele>
        <time>2022-01-13T13:05:14.000Z</time>
      </trkpt>
      <trkpt lat="43.80459" lon="7.26169">
        <ele>445</ele>
        <time>2022-01-13T13:05:17.000Z</time>
      </trkpt>
      <trkpt lat="43.80458" lon="7.26168">
        <ele>445</ele>
        <time>2022-01-13T13:05:23.000Z</time>
      </trkpt>
      <trkpt lat="43.80453" lon="7.2617">
        <ele>445.79998779297</ele>
        <time>2022-01-13T13:05:27.000Z</time>
      </trkpt>
      <trkpt lat="43.80442" lon="7.26175">
        <ele>446</ele>
        <time>2022-01-13T13:05:32.000Z</time>
      </trkpt>
      <trkpt lat="43.80431" lon="7.26175">
        <ele>447.39999389648</ele>
        <time>2022-01-13T13:05:36.000Z</time>
      </trkpt>
      <trkpt lat="43.80428" lon="7.26175">
        <ele>447.60000610352</ele>
        <time>2022-01-13T13:05:37.000Z</time>
      </trkpt>
      <trkpt lat="43.80416" lon="7.2617">
        <ele>448.60000610352</ele>
        <time>2022-01-13T13:05:42.000Z</time>
      </trkpt>
      <trkpt lat="43.80414" lon="7.26167">
        <ele>448.79998779297</ele>
        <time>2022-01-13T13:05:43.000Z</time>
      </trkpt>
      <trkpt lat="43.80406" lon="7.26165">
        <ele>449.79998779297</ele>
        <time>2022-01-13T13:05:46.000Z</time>
      </trkpt>
      <trkpt lat="43.80404" lon="7.26164">
        <ele>450</ele>
        <time>2022-01-13T13:05:47.000Z</time>
      </trkpt>
      <trkpt lat="43.80397" lon="7.26159">
        <ele>451</ele>
        <time>2022-01-13T13:05:50.000Z</time>
      </trkpt>
      <trkpt lat="43.80388" lon="7.26153">
        <ele>451.20001220703</ele>
        <time>2022-01-13T13:05:54.000Z</time>
      </trkpt>
      <trkpt lat="43.80383" lon="7.26145">
        <ele>452.20001220703</ele>
        <time>2022-01-13T13:05:57.000Z</time>
      </trkpt>
      <trkpt lat="43.80379" lon="7.2614">
        <ele>453</ele>
        <time>2022-01-13T13:05:59.000Z</time>
      </trkpt>
      <trkpt lat="43.80376" lon="7.26135">
        <ele>453.39999389648</ele>
        <time>2022-01-13T13:06:01.000Z</time>
      </trkpt>
      <trkpt lat="43.80369" lon="7.2613">
        <ele>454.39999389648</ele>
        <time>2022-01-13T13:06:05.000Z</time>
      </trkpt>
      <trkpt lat="43.80368" lon="7.26127">
        <ele>454.79998779297</ele>
        <time>2022-01-13T13:06:06.000Z</time>
      </trkpt>
      <trkpt lat="43.80366" lon="7.26118">
        <ele>455.39999389648</ele>
        <time>2022-01-13T13:06:09.000Z</time>
      </trkpt>
      <trkpt lat="43.80366" lon="7.26115">
        <ele>455.39999389648</ele>
        <time>2022-01-13T13:06:10.000Z</time>
      </trkpt>
      <trkpt lat="43.80365" lon="7.26113">
        <ele>455.79998779297</ele>
        <time>2022-01-13T13:06:11.000Z</time>
      </trkpt>
      <trkpt lat="43.80359" lon="7.26114">
        <ele>456.60000610352</ele>
        <time>2022-01-13T13:06:13.000Z</time>
      </trkpt>
      <trkpt lat="43.80355" lon="7.26115">
        <ele>457.20001220703</ele>
        <time>2022-01-13T13:06:15.000Z</time>
      </trkpt>
      <trkpt lat="43.8035" lon="7.26114">
        <ele>457.79998779297</ele>
        <time>2022-01-13T13:06:17.000Z</time>
      </trkpt>
      <trkpt lat="43.80347" lon="7.26113">
        <ele>458.20001220703</ele>
        <time>2022-01-13T13:06:18.000Z</time>
      </trkpt>
      <trkpt lat="43.80345" lon="7.26112">
        <ele>458.39999389648</ele>
        <time>2022-01-13T13:06:19.000Z</time>
      </trkpt>
      <trkpt lat="43.80333" lon="7.26105">
        <ele>459.39999389648</ele>
        <time>2022-01-13T13:06:24.000Z</time>
      </trkpt>
      <trkpt lat="43.8033" lon="7.26104">
        <ele>459.60000610352</ele>
        <time>2022-01-13T13:06:25.000Z</time>
      </trkpt>
      <trkpt lat="43.80321" lon="7.26095">
        <ele>460.20001220703</ele>
        <time>2022-01-13T13:06:29.000Z</time>
      </trkpt>
      <trkpt lat="43.80317" lon="7.26086">
        <ele>460.20001220703</ele>
        <time>2022-01-13T13:06:32.000Z</time>
      </trkpt>
      <trkpt lat="43.80316" lon="7.26081">
        <ele>460.60000610352</ele>
        <time>2022-01-13T13:06:34.000Z</time>
      </trkpt>
      <trkpt lat="43.80316" lon="7.26079">
        <ele>460.79998779297</ele>
        <time>2022-01-13T13:06:35.000Z</time>
      </trkpt>
      <trkpt lat="43.80312" lon="7.26071">
        <ele>461.79998779297</ele>
        <time>2022-01-13T13:06:38.000Z</time>
      </trkpt>
      <trkpt lat="43.80311" lon="7.26068">
        <ele>462.20001220703</ele>
        <time>2022-01-13T13:06:39.000Z</time>
      </trkpt>
      <trkpt lat="43.80307" lon="7.26063">
        <ele>463</ele>
        <time>2022-01-13T13:06:42.000Z</time>
      </trkpt>
      <trkpt lat="43.80305" lon="7.26062">
        <ele>463.39999389648</ele>
        <time>2022-01-13T13:06:43.000Z</time>
      </trkpt>
      <trkpt lat="43.80293" lon="7.26057">
        <ele>463.60000610352</ele>
        <time>2022-01-13T13:06:48.000Z</time>
      </trkpt>
      <trkpt lat="43.80289" lon="7.26057">
        <ele>464.20001220703</ele>
        <time>2022-01-13T13:06:50.000Z</time>
      </trkpt>
      <trkpt lat="43.80283" lon="7.26053">
        <ele>465</ele>
        <time>2022-01-13T13:06:53.000Z</time>
      </trkpt>
      <trkpt lat="43.80281" lon="7.26052">
        <ele>465.20001220703</ele>
        <time>2022-01-13T13:06:54.000Z</time>
      </trkpt>
      <trkpt lat="43.80269" lon="7.26048">
        <ele>466</ele>
        <time>2022-01-13T13:06:59.000Z</time>
      </trkpt>
      <trkpt lat="43.80267" lon="7.26047">
        <ele>466.39999389648</ele>
        <time>2022-01-13T13:07:00.000Z</time>
      </trkpt>
      <trkpt lat="43.80261" lon="7.2604">
        <ele>467.79998779297</ele>
        <time>2022-01-13T13:07:03.000Z</time>
      </trkpt>
      <trkpt lat="43.80259" lon="7.26038">
        <ele>468.20001220703</ele>
        <time>2022-01-13T13:07:04.000Z</time>
      </trkpt>
      <trkpt lat="43.80256" lon="7.26034">
        <ele>469.20001220703</ele>
        <time>2022-01-13T13:07:06.000Z</time>
      </trkpt>
      <trkpt lat="43.80251" lon="7.26029">
        <ele>470.20001220703</ele>
        <time>2022-01-13T13:07:09.000Z</time>
      </trkpt>
      <trkpt lat="43.80246" lon="7.26024">
        <ele>471.20001220703</ele>
        <time>2022-01-13T13:07:12.000Z</time>
      </trkpt>
      <trkpt lat="43.80243" lon="7.26023">
        <ele>471.20001220703</ele>
        <time>2022-01-13T13:07:13.000Z</time>
      </trkpt>
      <trkpt lat="43.80239" lon="7.26021">
        <ele>471.39999389648</ele>
        <time>2022-01-13T13:07:15.000Z</time>
      </trkpt>
      <trkpt lat="43.80234" lon="7.26017">
        <ele>472.39999389648</ele>
        <time>2022-01-13T13:07:18.000Z</time>
      </trkpt>
      <trkpt lat="43.80233" lon="7.26015">
        <ele>473</ele>
        <time>2022-01-13T13:07:19.000Z</time>
      </trkpt>
      <trkpt lat="43.80231" lon="7.26015">
        <ele>473.60000610352</ele>
        <time>2022-01-13T13:07:20.000Z</time>
      </trkpt>
      <trkpt lat="43.80229" lon="7.26011">
        <ele>474.79998779297</ele>
        <time>2022-01-13T13:07:22.000Z</time>
      </trkpt>
      <trkpt lat="43.80228" lon="7.2601">
        <ele>475.39999389648</ele>
        <time>2022-01-13T13:07:23.000Z</time>
      </trkpt>
      <trkpt lat="43.80227" lon="7.26009">
        <ele>476</ele>
        <time>2022-01-13T13:07:24.000Z</time>
      </trkpt>
      <trkpt lat="43.80222" lon="7.26005">
        <ele>477.20001220703</ele>
        <time>2022-01-13T13:07:27.000Z</time>
      </trkpt>
      <trkpt lat="43.80221" lon="7.26003">
        <ele>477.60000610352</ele>
        <time>2022-01-13T13:07:28.000Z</time>
      </trkpt>
      <trkpt lat="43.80217" lon="7.25996">
        <ele>478.60000610352</ele>
        <time>2022-01-13T13:07:31.000Z</time>
      </trkpt>
      <trkpt lat="43.80212" lon="7.25993">
        <ele>479.79998779297</ele>
        <time>2022-01-13T13:07:34.000Z</time>
      </trkpt>
      <trkpt lat="43.80207" lon="7.25988">
        <ele>481</ele>
        <time>2022-01-13T13:07:38.000Z</time>
      </trkpt>
      <trkpt lat="43.80206" lon="7.25986">
        <ele>481.39999389648</ele>
        <time>2022-01-13T13:07:39.000Z</time>
      </trkpt>
      <trkpt lat="43.80205" lon="7.25981">
        <ele>482</ele>
        <time>2022-01-13T13:07:41.000Z</time>
      </trkpt>
      <trkpt lat="43.80204" lon="7.25979">
        <ele>482.60000610352</ele>
        <time>2022-01-13T13:07:42.000Z</time>
      </trkpt>
      <trkpt lat="43.802" lon="7.25978">
        <ele>483</ele>
        <time>2022-01-13T13:07:44.000Z</time>
      </trkpt>
      <trkpt lat="43.80199" lon="7.25977">
        <ele>483.39999389648</ele>
        <time>2022-01-13T13:07:45.000Z</time>
      </trkpt>
      <trkpt lat="43.80198" lon="7.25976">
        <ele>483.79998779297</ele>
        <time>2022-01-13T13:07:46.000Z</time>
      </trkpt>
      <trkpt lat="43.80195" lon="7.25974">
        <ele>484.60000610352</ele>
        <time>2022-01-13T13:07:48.000Z</time>
      </trkpt>
      <trkpt lat="43.80193" lon="7.25973">
        <ele>485.20001220703</ele>
        <time>2022-01-13T13:07:49.000Z</time>
      </trkpt>
      <trkpt lat="43.80191" lon="7.2597">
        <ele>485.79998779297</ele>
        <time>2022-01-13T13:07:51.000Z</time>
      </trkpt>
      <trkpt lat="43.80184" lon="7.2596">
        <ele>486.79998779297</ele>
        <time>2022-01-13T13:07:56.000Z</time>
      </trkpt>
      <trkpt lat="43.80175" lon="7.25953">
        <ele>487.60000610352</ele>
        <time>2022-01-13T13:08:01.000Z</time>
      </trkpt>
      <trkpt lat="43.80162" lon="7.25948">
        <ele>487</ele>
        <time>2022-01-13T13:08:06.000Z</time>
      </trkpt>
      <trkpt lat="43.80158" lon="7.25943">
        <ele>486.60000610352</ele>
        <time>2022-01-13T13:08:08.000Z</time>
      </trkpt>
      <trkpt lat="43.80155" lon="7.25939">
        <ele>486.60000610352</ele>
        <time>2022-01-13T13:08:10.000Z</time>
      </trkpt>
      <trkpt lat="43.80151" lon="7.25936">
        <ele>487.60000610352</ele>
        <time>2022-01-13T13:08:12.000Z</time>
      </trkpt>
      <trkpt lat="43.8015" lon="7.25934">
        <ele>488</ele>
        <time>2022-01-13T13:08:13.000Z</time>
      </trkpt>
      <trkpt lat="43.80142" lon="7.25926">
        <ele>488.79998779297</ele>
        <time>2022-01-13T13:08:17.000Z</time>
      </trkpt>
      <trkpt lat="43.80132" lon="7.25912">
        <ele>489.39999389648</ele>
        <time>2022-01-13T13:08:23.000Z</time>
      </trkpt>
      <trkpt lat="43.80127" lon="7.25904">
        <ele>490.60000610352</ele>
        <time>2022-01-13T13:08:27.000Z</time>
      </trkpt>
      <trkpt lat="43.80125" lon="7.25901">
        <ele>490.79998779297</ele>
        <time>2022-01-13T13:08:28.000Z</time>
      </trkpt>
      <trkpt lat="43.80124" lon="7.25895">
        <ele>491.39999389648</ele>
        <time>2022-01-13T13:08:30.000Z</time>
      </trkpt>
      <trkpt lat="43.80124" lon="7.25893">
        <ele>491.60000610352</ele>
        <time>2022-01-13T13:08:31.000Z</time>
      </trkpt>
      <trkpt lat="43.80122" lon="7.25888">
        <ele>492.60000610352</ele>
        <time>2022-01-13T13:08:33.000Z</time>
      </trkpt>
      <trkpt lat="43.8012" lon="7.2588">
        <ele>494.20001220703</ele>
        <time>2022-01-13T13:08:36.000Z</time>
      </trkpt>
      <trkpt lat="43.80118" lon="7.25875">
        <ele>495</ele>
        <time>2022-01-13T13:08:38.000Z</time>
      </trkpt>
      <trkpt lat="43.80117" lon="7.25873">
        <ele>495.39999389648</ele>
        <time>2022-01-13T13:08:39.000Z</time>
      </trkpt>
      <trkpt lat="43.80115" lon="7.25864">
        <ele>496.39999389648</ele>
        <time>2022-01-13T13:08:42.000Z</time>
      </trkpt>
      <trkpt lat="43.80115" lon="7.25857">
        <ele>497.60000610352</ele>
        <time>2022-01-13T13:08:45.000Z</time>
      </trkpt>
      <trkpt lat="43.80113" lon="7.25854">
        <ele>498.60000610352</ele>
        <time>2022-01-13T13:08:47.000Z</time>
      </trkpt>
      <trkpt lat="43.8011" lon="7.25849">
        <ele>499.20001220703</ele>
        <time>2022-01-13T13:08:49.000Z</time>
      </trkpt>
      <trkpt lat="43.801" lon="7.2584">
        <ele>497.20001220703</ele>
        <time>2022-01-13T13:08:54.000Z</time>
      </trkpt>
      <trkpt lat="43.80093" lon="7.25838">
        <ele>495.79998779297</ele>
        <time>2022-01-13T13:08:57.000Z</time>
      </trkpt>
      <trkpt lat="43.80093" lon="7.25839">
        <ele>495.39999389648</ele>
        <time>2022-01-13T13:08:58.000Z</time>
      </trkpt>
      <trkpt lat="43.80091" lon="7.2584">
        <ele>494.79998779297</ele>
        <time>2022-01-13T13:08:59.000Z</time>
      </trkpt>
      <trkpt lat="43.8009" lon="7.2584">
        <ele>494.60000610352</ele>
        <time>2022-01-13T13:09:00.000Z</time>
      </trkpt>
      <trkpt lat="43.80085" lon="7.25849">
        <ele>495.39999389648</ele>
        <time>2022-01-13T13:09:04.000Z</time>
      </trkpt>
      <trkpt lat="43.80082" lon="7.25852">
        <ele>496</ele>
        <time>2022-01-13T13:09:06.000Z</time>
      </trkpt>
      <trkpt lat="43.80079" lon="7.25856">
        <ele>496.60000610352</ele>
        <time>2022-01-13T13:09:08.000Z</time>
      </trkpt>
      <trkpt lat="43.80075" lon="7.25864">
        <ele>497</ele>
        <time>2022-01-13T13:09:11.000Z</time>
      </trkpt>
      <trkpt lat="43.80067" lon="7.25875">
        <ele>497.20001220703</ele>
        <time>2022-01-13T13:09:15.000Z</time>
      </trkpt>
      <trkpt lat="43.80049" lon="7.2589">
        <ele>497</ele>
        <time>2022-01-13T13:09:21.000Z</time>
      </trkpt>
      <trkpt lat="43.80035" lon="7.25896">
        <ele>496</ele>
        <time>2022-01-13T13:09:24.000Z</time>
      </trkpt>
      <trkpt lat="43.80025" lon="7.25895">
        <ele>495</ele>
        <time>2022-01-13T13:09:26.000Z</time>
      </trkpt>
      <trkpt lat="43.8002" lon="7.25892">
        <ele>495</ele>
        <time>2022-01-13T13:09:27.000Z</time>
      </trkpt>
      <trkpt lat="43.80015" lon="7.25889">
        <ele>494</ele>
        <time>2022-01-13T13:09:28.000Z</time>
      </trkpt>
      <trkpt lat="43.80011" lon="7.25886">
        <ele>493</ele>
        <time>2022-01-13T13:09:29.000Z</time>
      </trkpt>
      <trkpt lat="43.80008" lon="7.25884">
        <ele>492.39999389648</ele>
        <time>2022-01-13T13:09:30.000Z</time>
      </trkpt>
      <trkpt lat="43.80003" lon="7.25881">
        <ele>491.79998779297</ele>
        <time>2022-01-13T13:09:31.000Z</time>
      </trkpt>
      <trkpt lat="43.79999" lon="7.25876">
        <ele>490.60000610352</ele>
        <time>2022-01-13T13:09:32.000Z</time>
      </trkpt>
      <trkpt lat="43.79995" lon="7.25871">
        <ele>489.60000610352</ele>
        <time>2022-01-13T13:09:33.000Z</time>
      </trkpt>
      <trkpt lat="43.79992" lon="7.25865">
        <ele>488.79998779297</ele>
        <time>2022-01-13T13:09:34.000Z</time>
      </trkpt>
      <trkpt lat="43.79988" lon="7.2586">
        <ele>487.60000610352</ele>
        <time>2022-01-13T13:09:35.000Z</time>
      </trkpt>
      <trkpt lat="43.79984" lon="7.25855">
        <ele>486.39999389648</ele>
        <time>2022-01-13T13:09:36.000Z</time>
      </trkpt>
      <trkpt lat="43.79979" lon="7.25854">
        <ele>484.39999389648</ele>
        <time>2022-01-13T13:09:38.000Z</time>
      </trkpt>
      <trkpt lat="43.79976" lon="7.25856">
        <ele>482.79998779297</ele>
        <time>2022-01-13T13:09:40.000Z</time>
      </trkpt>
      <trkpt lat="43.79973" lon="7.25861">
        <ele>482.79998779297</ele>
        <time>2022-01-13T13:09:42.000Z</time>
      </trkpt>
      <trkpt lat="43.79969" lon="7.25866">
        <ele>484.39999389648</ele>
        <time>2022-01-13T13:09:44.000Z</time>
      </trkpt>
      <trkpt lat="43.79968" lon="7.25871">
        <ele>485.79998779297</ele>
        <time>2022-01-13T13:09:46.000Z</time>
      </trkpt>
      <trkpt lat="43.79968" lon="7.25874">
        <ele>486.39999389648</ele>
        <time>2022-01-13T13:09:47.000Z</time>
      </trkpt>
      <trkpt lat="43.79967" lon="7.25878">
        <ele>487</ele>
        <time>2022-01-13T13:09:48.000Z</time>
      </trkpt>
      <trkpt lat="43.79965" lon="7.25884">
        <ele>488.20001220703</ele>
        <time>2022-01-13T13:09:50.000Z</time>
      </trkpt>
      <trkpt lat="43.79964" lon="7.25892">
        <ele>489</ele>
        <time>2022-01-13T13:09:52.000Z</time>
      </trkpt>
      <trkpt lat="43.79963" lon="7.25896">
        <ele>489.39999389648</ele>
        <time>2022-01-13T13:09:53.000Z</time>
      </trkpt>
      <trkpt lat="43.79961" lon="7.25913">
        <ele>490.60000610352</ele>
        <time>2022-01-13T13:09:57.000Z</time>
      </trkpt>
      <trkpt lat="43.7996" lon="7.25919">
        <ele>491.79998779297</ele>
        <time>2022-01-13T13:09:59.000Z</time>
      </trkpt>
      <trkpt lat="43.79959" lon="7.25927">
        <ele>493</ele>
        <time>2022-01-13T13:10:01.000Z</time>
      </trkpt>
      <trkpt lat="43.79958" lon="7.25931">
        <ele>493.79998779297</ele>
        <time>2022-01-13T13:10:02.000Z</time>
      </trkpt>
      <trkpt lat="43.79959" lon="7.25934">
        <ele>494.39999389648</ele>
        <time>2022-01-13T13:10:03.000Z</time>
      </trkpt>
      <trkpt lat="43.79959" lon="7.2594">
        <ele>495.39999389648</ele>
        <time>2022-01-13T13:10:05.000Z</time>
      </trkpt>
      <trkpt lat="43.7996" lon="7.25947">
        <ele>496.60000610352</ele>
        <time>2022-01-13T13:10:07.000Z</time>
      </trkpt>
      <trkpt lat="43.7996" lon="7.25958">
        <ele>497.79998779297</ele>
        <time>2022-01-13T13:10:10.000Z</time>
      </trkpt>
      <trkpt lat="43.79957" lon="7.25971">
        <ele>498.60000610352</ele>
        <time>2022-01-13T13:10:14.000Z</time>
      </trkpt>
      <trkpt lat="43.79956" lon="7.25973">
        <ele>498.79998779297</ele>
        <time>2022-01-13T13:10:15.000Z</time>
      </trkpt>
      <trkpt lat="43.79955" lon="7.25974">
        <ele>499.60000610352</ele>
        <time>2022-01-13T13:10:18.000Z</time>
      </trkpt>
      <trkpt lat="43.79955" lon="7.25975">
        <ele>500</ele>
        <time>2022-01-13T13:10:20.000Z</time>
      </trkpt>
      <trkpt lat="43.79954" lon="7.25977">
        <ele>500.39999389648</ele>
        <time>2022-01-13T13:10:25.000Z</time>
      </trkpt>
      <trkpt lat="43.79954" lon="7.25982">
        <ele>500.39999389648</ele>
        <time>2022-01-13T13:10:47.000Z</time>
      </trkpt>
      <trkpt lat="43.79953" lon="7.25984">
        <ele>500.20001220703</ele>
        <time>2022-01-13T13:11:00.000Z</time>
      </trkpt>
      <trkpt lat="43.79952" lon="7.25988">
        <ele>500.20001220703</ele>
        <time>2022-01-13T13:11:19.000Z</time>
      </trkpt>
      <trkpt lat="43.79952" lon="7.25989">
        <ele>500.20001220703</ele>
        <time>2022-01-13T13:11:37.000Z</time>
      </trkpt>
      <trkpt lat="43.79952" lon="7.25989">
        <ele>500.20001220703</ele>
        <time>2022-01-13T13:11:50.000Z</time>
      </trkpt>
      <trkpt lat="43.79952" lon="7.25991">
        <ele>500.20001220703</ele>
        <time>2022-01-13T13:12:04.000Z</time>
      </trkpt>
      <trkpt lat="43.79952" lon="7.2599">
        <ele>500.20001220703</ele>
        <time>2022-01-13T13:12:22.000Z</time>
      </trkpt>
      <trkpt lat="43.79952" lon="7.2599">
        <ele>500.20001220703</ele>
        <time>2022-01-13T13:12:36.000Z</time>
      </trkpt>
      <trkpt lat="43.79951" lon="7.25992">
        <ele>500.39999389648</ele>
        <time>2022-01-13T13:12:52.000Z</time>
      </trkpt>
      <trkpt lat="43.79949" lon="7.25991">
        <ele>500.39999389648</ele>
        <time>2022-01-13T13:13:02.000Z</time>
      </trkpt>
      <trkpt lat="43.79948" lon="7.25984">
        <ele>500.60000610352</ele>
        <time>2022-01-13T13:13:08.000Z</time>
      </trkpt>
      <trkpt lat="43.79947" lon="7.25971">
        <ele>501.20001220703</ele>
        <time>2022-01-13T13:13:12.000Z</time>
      </trkpt>
      <trkpt lat="43.79946" lon="7.25968">
        <ele>501.39999389648</ele>
        <time>2022-01-13T13:13:13.000Z</time>
      </trkpt>
      <trkpt lat="43.79943" lon="7.25959">
        <ele>502.39999389648</ele>
        <time>2022-01-13T13:13:16.000Z</time>
      </trkpt>
      <trkpt lat="43.7994" lon="7.25948">
        <ele>503.60000610352</ele>
        <time>2022-01-13T13:13:19.000Z</time>
      </trkpt>
      <trkpt lat="43.79937" lon="7.25938">
        <ele>504.60000610352</ele>
        <time>2022-01-13T13:13:22.000Z</time>
      </trkpt>
      <trkpt lat="43.79936" lon="7.25926">
        <ele>505.39999389648</ele>
        <time>2022-01-13T13:13:25.000Z</time>
      </trkpt>
      <trkpt lat="43.79935" lon="7.25919">
        <ele>505.79998779297</ele>
        <time>2022-01-13T13:13:27.000Z</time>
      </trkpt>
      <trkpt lat="43.79934" lon="7.25899">
        <ele>506.79998779297</ele>
        <time>2022-01-13T13:13:32.000Z</time>
      </trkpt>
      <trkpt lat="43.79934" lon="7.25895">
        <ele>507.20001220703</ele>
        <time>2022-01-13T13:13:33.000Z</time>
      </trkpt>
      <trkpt lat="43.79933" lon="7.2588">
        <ele>508</ele>
        <time>2022-01-13T13:13:37.000Z</time>
      </trkpt>
      <trkpt lat="43.79932" lon="7.25869">
        <ele>508.60000610352</ele>
        <time>2022-01-13T13:13:40.000Z</time>
      </trkpt>
      <trkpt lat="43.79932" lon="7.25858">
        <ele>509.20001220703</ele>
        <time>2022-01-13T13:13:43.000Z</time>
      </trkpt>
      <trkpt lat="43.79932" lon="7.25845">
        <ele>510.60000610352</ele>
        <time>2022-01-13T13:13:47.000Z</time>
      </trkpt>
      <trkpt lat="43.7993" lon="7.25839">
        <ele>511.60000610352</ele>
        <time>2022-01-13T13:13:50.000Z</time>
      </trkpt>
      <trkpt lat="43.79928" lon="7.25837">
        <ele>512.20001220703</ele>
        <time>2022-01-13T13:13:52.000Z</time>
      </trkpt>
      <trkpt lat="43.79926" lon="7.25842">
        <ele>512.79998779297</ele>
        <time>2022-01-13T13:13:54.000Z</time>
      </trkpt>
      <trkpt lat="43.79924" lon="7.25849">
        <ele>513</ele>
        <time>2022-01-13T13:13:56.000Z</time>
      </trkpt>
      <trkpt lat="43.79924" lon="7.25852">
        <ele>513.20001220703</ele>
        <time>2022-01-13T13:13:57.000Z</time>
      </trkpt>
      <trkpt lat="43.79921" lon="7.25868">
        <ele>513</ele>
        <time>2022-01-13T13:14:02.000Z</time>
      </trkpt>
      <trkpt lat="43.79918" lon="7.25886">
        <ele>513.20001220703</ele>
        <time>2022-01-13T13:14:08.000Z</time>
      </trkpt>
      <trkpt lat="43.79909" lon="7.25899">
        <ele>513.20001220703</ele>
        <time>2022-01-13T13:14:14.000Z</time>
      </trkpt>
      <trkpt lat="43.79898" lon="7.25904">
        <ele>513.20001220703</ele>
        <time>2022-01-13T13:14:19.000Z</time>
      </trkpt>
      <trkpt lat="43.79886" lon="7.25904">
        <ele>513</ele>
        <time>2022-01-13T13:14:23.000Z</time>
      </trkpt>
      <trkpt lat="43.79882" lon="7.25894">
        <ele>512.59997558594</ele>
        <time>2022-01-13T13:14:26.000Z</time>
      </trkpt>
      <trkpt lat="43.79867" lon="7.25872">
        <ele>513.59997558594</ele>
        <time>2022-01-13T13:14:33.000Z</time>
      </trkpt>
      <trkpt lat="43.79865" lon="7.25869">
        <ele>513.79998779297</ele>
        <time>2022-01-13T13:14:34.000Z</time>
      </trkpt>
      <trkpt lat="43.79852" lon="7.25858">
        <ele>515</ele>
        <time>2022-01-13T13:14:39.000Z</time>
      </trkpt>
      <trkpt lat="43.79848" lon="7.25854">
        <ele>515.20001220703</ele>
        <time>2022-01-13T13:14:41.000Z</time>
      </trkpt>
      <trkpt lat="43.79838" lon="7.25847">
        <ele>516.20001220703</ele>
        <time>2022-01-13T13:14:45.000Z</time>
      </trkpt>
      <trkpt lat="43.79829" lon="7.2584">
        <ele>516.79998779297</ele>
        <time>2022-01-13T13:14:49.000Z</time>
      </trkpt>
      <trkpt lat="43.79824" lon="7.25837">
        <ele>517.20001220703</ele>
        <time>2022-01-13T13:14:51.000Z</time>
      </trkpt>
      <trkpt lat="43.79809" lon="7.25826">
        <ele>518.20001220703</ele>
        <time>2022-01-13T13:14:57.000Z</time>
      </trkpt>
      <trkpt lat="43.79791" lon="7.2581">
        <ele>519.20001220703</ele>
        <time>2022-01-13T13:15:05.000Z</time>
      </trkpt>
      <trkpt lat="43.7979" lon="7.25806">
        <ele>519.20001220703</ele>
        <time>2022-01-13T13:15:06.000Z</time>
      </trkpt>
      <trkpt lat="43.79793" lon="7.25801">
        <ele>519.59997558594</ele>
        <time>2022-01-13T13:15:08.000Z</time>
      </trkpt>
      <trkpt lat="43.79797" lon="7.25803">
        <ele>520.40002441406</ele>
        <time>2022-01-13T13:15:10.000Z</time>
      </trkpt>
      <trkpt lat="43.798" lon="7.25805">
        <ele>520.79998779297</ele>
        <time>2022-01-13T13:15:11.000Z</time>
      </trkpt>
      <trkpt lat="43.79806" lon="7.25811">
        <ele>521.59997558594</ele>
        <time>2022-01-13T13:15:14.000Z</time>
      </trkpt>
      <trkpt lat="43.79811" lon="7.25813">
        <ele>522</ele>
        <time>2022-01-13T13:15:16.000Z</time>
      </trkpt>
      <trkpt lat="43.79813" lon="7.25814">
        <ele>522.20001220703</ele>
        <time>2022-01-13T13:15:17.000Z</time>
      </trkpt>
      <trkpt lat="43.7982" lon="7.25816">
        <ele>522.79998779297</ele>
        <time>2022-01-13T13:15:20.000Z</time>
      </trkpt>
      <trkpt lat="43.7983" lon="7.25818">
        <ele>523.59997558594</ele>
        <time>2022-01-13T13:15:24.000Z</time>
      </trkpt>
      <trkpt lat="43.79832" lon="7.25817">
        <ele>524</ele>
        <time>2022-01-13T13:15:25.000Z</time>
      </trkpt>
      <trkpt lat="43.79843" lon="7.25817">
        <ele>525.20001220703</ele>
        <time>2022-01-13T13:15:30.000Z</time>
      </trkpt>
      <trkpt lat="43.79852" lon="7.25816">
        <ele>526.20001220703</ele>
        <time>2022-01-13T13:15:34.000Z</time>
      </trkpt>
      <trkpt lat="43.79857" lon="7.25814">
        <ele>526.59997558594</ele>
        <time>2022-01-13T13:15:36.000Z</time>
      </trkpt>
      <trkpt lat="43.79866" lon="7.25808">
        <ele>527.20001220703</ele>
        <time>2022-01-13T13:15:40.000Z</time>
      </trkpt>
      <trkpt lat="43.79873" lon="7.25804">
        <ele>528.20001220703</ele>
        <time>2022-01-13T13:15:43.000Z</time>
      </trkpt>
      <trkpt lat="43.79876" lon="7.25802">
        <ele>528.59997558594</ele>
        <time>2022-01-13T13:15:44.000Z</time>
      </trkpt>
      <trkpt lat="43.79885" lon="7.2579">
        <ele>529.79998779297</ele>
        <time>2022-01-13T13:15:49.000Z</time>
      </trkpt>
      <trkpt lat="43.79889" lon="7.25786">
        <ele>530.59997558594</ele>
        <time>2022-01-13T13:15:51.000Z</time>
      </trkpt>
      <trkpt lat="43.79891" lon="7.25783">
        <ele>530.79998779297</ele>
        <time>2022-01-13T13:15:52.000Z</time>
      </trkpt>
      <trkpt lat="43.79899" lon="7.25771">
        <ele>531.79998779297</ele>
        <time>2022-01-13T13:15:57.000Z</time>
      </trkpt>
      <trkpt lat="43.79904" lon="7.25762">
        <ele>532.40002441406</ele>
        <time>2022-01-13T13:16:00.000Z</time>
      </trkpt>
      <trkpt lat="43.79907" lon="7.25756">
        <ele>533</ele>
        <time>2022-01-13T13:16:02.000Z</time>
      </trkpt>
      <trkpt lat="43.79913" lon="7.25745">
        <ele>534</ele>
        <time>2022-01-13T13:16:06.000Z</time>
      </trkpt>
      <trkpt lat="43.79915" lon="7.2574">
        <ele>534.40002441406</ele>
        <time>2022-01-13T13:16:08.000Z</time>
      </trkpt>
      <trkpt lat="43.79918" lon="7.25727">
        <ele>535</ele>
        <time>2022-01-13T13:16:12.000Z</time>
      </trkpt>
      <trkpt lat="43.7992" lon="7.25718">
        <ele>535.79998779297</ele>
        <time>2022-01-13T13:16:15.000Z</time>
      </trkpt>
      <trkpt lat="43.79922" lon="7.25712">
        <ele>536.20001220703</ele>
        <time>2022-01-13T13:16:17.000Z</time>
      </trkpt>
      <trkpt lat="43.79926" lon="7.25696">
        <ele>537.40002441406</ele>
        <time>2022-01-13T13:16:22.000Z</time>
      </trkpt>
      <trkpt lat="43.7993" lon="7.2568">
        <ele>538.59997558594</ele>
        <time>2022-01-13T13:16:27.000Z</time>
      </trkpt>
      <trkpt lat="43.79931" lon="7.25677">
        <ele>538.79998779297</ele>
        <time>2022-01-13T13:16:28.000Z</time>
      </trkpt>
      <trkpt lat="43.79933" lon="7.25668">
        <ele>539.59997558594</ele>
        <time>2022-01-13T13:16:31.000Z</time>
      </trkpt>
      <trkpt lat="43.79936" lon="7.25659">
        <ele>540.20001220703</ele>
        <time>2022-01-13T13:16:34.000Z</time>
      </trkpt>
      <trkpt lat="43.79938" lon="7.25653">
        <ele>540.59997558594</ele>
        <time>2022-01-13T13:16:36.000Z</time>
      </trkpt>
      <trkpt lat="43.79942" lon="7.25641">
        <ele>541.59997558594</ele>
        <time>2022-01-13T13:16:40.000Z</time>
      </trkpt>
      <trkpt lat="43.79943" lon="7.25637">
        <ele>541.79998779297</ele>
        <time>2022-01-13T13:16:41.000Z</time>
      </trkpt>
      <trkpt lat="43.79948" lon="7.25623">
        <ele>542.59997558594</ele>
        <time>2022-01-13T13:16:45.000Z</time>
      </trkpt>
      <trkpt lat="43.7995" lon="7.25619">
        <ele>542.79998779297</ele>
        <time>2022-01-13T13:16:46.000Z</time>
      </trkpt>
      <trkpt lat="43.79957" lon="7.25607">
        <ele>543.79998779297</ele>
        <time>2022-01-13T13:16:50.000Z</time>
      </trkpt>
      <trkpt lat="43.79961" lon="7.25602">
        <ele>544.40002441406</ele>
        <time>2022-01-13T13:16:52.000Z</time>
      </trkpt>
      <trkpt lat="43.79963" lon="7.25598">
        <ele>544.79998779297</ele>
        <time>2022-01-13T13:16:53.000Z</time>
      </trkpt>
      <trkpt lat="43.7997" lon="7.25587">
        <ele>545.79998779297</ele>
        <time>2022-01-13T13:16:57.000Z</time>
      </trkpt>
      <trkpt lat="43.79974" lon="7.2558">
        <ele>546.20001220703</ele>
        <time>2022-01-13T13:16:59.000Z</time>
      </trkpt>
      <trkpt lat="43.79981" lon="7.25572">
        <ele>547</ele>
        <time>2022-01-13T13:17:02.000Z</time>
      </trkpt>
      <trkpt lat="43.79988" lon="7.25562">
        <ele>548.20001220703</ele>
        <time>2022-01-13T13:17:06.000Z</time>
      </trkpt>
      <trkpt lat="43.80003" lon="7.25549">
        <ele>549.20001220703</ele>
        <time>2022-01-13T13:17:12.000Z</time>
      </trkpt>
      <trkpt lat="43.80006" lon="7.2555">
        <ele>549.20001220703</ele>
        <time>2022-01-13T13:17:13.000Z</time>
      </trkpt>
      <trkpt lat="43.80011" lon="7.25557">
        <ele>549.20001220703</ele>
        <time>2022-01-13T13:17:15.000Z</time>
      </trkpt>
      <trkpt lat="43.80014" lon="7.2557">
        <ele>549.20001220703</ele>
        <time>2022-01-13T13:17:18.000Z</time>
      </trkpt>
      <trkpt lat="43.80014" lon="7.25574">
        <ele>549.20001220703</ele>
        <time>2022-01-13T13:17:19.000Z</time>
      </trkpt>
      <trkpt lat="43.80018" lon="7.25597">
        <ele>550</ele>
        <time>2022-01-13T13:17:25.000Z</time>
      </trkpt>
      <trkpt lat="43.80022" lon="7.25608">
        <ele>550.40002441406</ele>
        <time>2022-01-13T13:17:28.000Z</time>
      </trkpt>
      <trkpt lat="43.80029" lon="7.25617">
        <ele>551.20001220703</ele>
        <time>2022-01-13T13:17:31.000Z</time>
      </trkpt>
      <trkpt lat="43.80033" lon="7.25622">
        <ele>551.40002441406</ele>
        <time>2022-01-13T13:17:33.000Z</time>
      </trkpt>
      <trkpt lat="43.80043" lon="7.25638">
        <ele>552.59997558594</ele>
        <time>2022-01-13T13:17:38.000Z</time>
      </trkpt>
      <trkpt lat="43.80046" lon="7.25645">
        <ele>553</ele>
        <time>2022-01-13T13:17:40.000Z</time>
      </trkpt>
      <trkpt lat="43.80053" lon="7.25655">
        <ele>553.79998779297</ele>
        <time>2022-01-13T13:17:43.000Z</time>
      </trkpt>
      <trkpt lat="43.80062" lon="7.25665">
        <ele>554.59997558594</ele>
        <time>2022-01-13T13:17:47.000Z</time>
      </trkpt>
      <trkpt lat="43.80067" lon="7.25667">
        <ele>555.20001220703</ele>
        <time>2022-01-13T13:17:49.000Z</time>
      </trkpt>
      <trkpt lat="43.80076" lon="7.25667">
        <ele>556.20001220703</ele>
        <time>2022-01-13T13:17:52.000Z</time>
      </trkpt>
      <trkpt lat="43.80079" lon="7.25666">
        <ele>556.59997558594</ele>
        <time>2022-01-13T13:17:53.000Z</time>
      </trkpt>
      <trkpt lat="43.8009" lon="7.25661">
        <ele>557.40002441406</ele>
        <time>2022-01-13T13:17:57.000Z</time>
      </trkpt>
      <trkpt lat="43.80102" lon="7.25655">
        <ele>557.59997558594</ele>
        <time>2022-01-13T13:18:01.000Z</time>
      </trkpt>
      <trkpt lat="43.8011" lon="7.2565">
        <ele>558.59997558594</ele>
        <time>2022-01-13T13:18:04.000Z</time>
      </trkpt>
      <trkpt lat="43.80118" lon="7.25644">
        <ele>559.20001220703</ele>
        <time>2022-01-13T13:18:07.000Z</time>
      </trkpt>
      <trkpt lat="43.80125" lon="7.25639">
        <ele>559.59997558594</ele>
        <time>2022-01-13T13:18:10.000Z</time>
      </trkpt>
      <trkpt lat="43.80133" lon="7.25634">
        <ele>560</ele>
        <time>2022-01-13T13:18:13.000Z</time>
      </trkpt>
      <trkpt lat="43.80147" lon="7.25623">
        <ele>561</ele>
        <time>2022-01-13T13:18:19.000Z</time>
      </trkpt>
      <trkpt lat="43.80151" lon="7.25617">
        <ele>561.40002441406</ele>
        <time>2022-01-13T13:18:21.000Z</time>
      </trkpt>
      <trkpt lat="43.80156" lon="7.25612">
        <ele>562</ele>
        <time>2022-01-13T13:18:23.000Z</time>
      </trkpt>
      <trkpt lat="43.80166" lon="7.25604">
        <ele>563</ele>
        <time>2022-01-13T13:18:27.000Z</time>
      </trkpt>
      <trkpt lat="43.80175" lon="7.25597">
        <ele>564.20001220703</ele>
        <time>2022-01-13T13:18:31.000Z</time>
      </trkpt>
      <trkpt lat="43.80179" lon="7.25592">
        <ele>564.79998779297</ele>
        <time>2022-01-13T13:18:33.000Z</time>
      </trkpt>
      <trkpt lat="43.80194" lon="7.25572">
        <ele>565.20001220703</ele>
        <time>2022-01-13T13:18:40.000Z</time>
      </trkpt>
      <trkpt lat="43.80201" lon="7.25568">
        <ele>565.20001220703</ele>
        <time>2022-01-13T13:18:42.000Z</time>
      </trkpt>
      <trkpt lat="43.80213" lon="7.2556">
        <ele>565.40002441406</ele>
        <time>2022-01-13T13:18:46.000Z</time>
      </trkpt>
      <trkpt lat="43.80235" lon="7.25549">
        <ele>565.59997558594</ele>
        <time>2022-01-13T13:18:53.000Z</time>
      </trkpt>
      <trkpt lat="43.80253" lon="7.25557">
        <ele>565</ele>
        <time>2022-01-13T13:18:58.000Z</time>
      </trkpt>
      <trkpt lat="43.80258" lon="7.25575">
        <ele>564.79998779297</ele>
        <time>2022-01-13T13:19:02.000Z</time>
      </trkpt>
      <trkpt lat="43.80258" lon="7.25596">
        <ele>566.40002441406</ele>
        <time>2022-01-13T13:19:07.000Z</time>
      </trkpt>
      <trkpt lat="43.80258" lon="7.256">
        <ele>566.79998779297</ele>
        <time>2022-01-13T13:19:08.000Z</time>
      </trkpt>
      <trkpt lat="43.80259" lon="7.25612">
        <ele>567.59997558594</ele>
        <time>2022-01-13T13:19:11.000Z</time>
      </trkpt>
      <trkpt lat="43.80263" lon="7.25632">
        <ele>568.40002441406</ele>
        <time>2022-01-13T13:19:16.000Z</time>
      </trkpt>
      <trkpt lat="43.80264" lon="7.25637">
        <ele>568.59997558594</ele>
        <time>2022-01-13T13:19:17.000Z</time>
      </trkpt>
      <trkpt lat="43.80264" lon="7.25656">
        <ele>569.59997558594</ele>
        <time>2022-01-13T13:19:21.000Z</time>
      </trkpt>
      <trkpt lat="43.80263" lon="7.2566">
        <ele>569.59997558594</ele>
        <time>2022-01-13T13:19:22.000Z</time>
      </trkpt>
      <trkpt lat="43.80262" lon="7.25676">
        <ele>570.79998779297</ele>
        <time>2022-01-13T13:19:26.000Z</time>
      </trkpt>
      <trkpt lat="43.80262" lon="7.25685">
        <ele>571.40002441406</ele>
        <time>2022-01-13T13:19:28.000Z</time>
      </trkpt>
      <trkpt lat="43.80264" lon="7.25703">
        <ele>572.20001220703</ele>
        <time>2022-01-13T13:19:32.000Z</time>
      </trkpt>
      <trkpt lat="43.80267" lon="7.25719">
        <ele>572.79998779297</ele>
        <time>2022-01-13T13:19:36.000Z</time>
      </trkpt>
      <trkpt lat="43.80272" lon="7.25729">
        <ele>573.40002441406</ele>
        <time>2022-01-13T13:19:39.000Z</time>
      </trkpt>
      <trkpt lat="43.80278" lon="7.25737">
        <ele>574</ele>
        <time>2022-01-13T13:19:42.000Z</time>
      </trkpt>
      <trkpt lat="43.80286" lon="7.25741">
        <ele>574.40002441406</ele>
        <time>2022-01-13T13:19:45.000Z</time>
      </trkpt>
      <trkpt lat="43.80294" lon="7.25742">
        <ele>574.79998779297</ele>
        <time>2022-01-13T13:19:47.000Z</time>
      </trkpt>
      <trkpt lat="43.80309" lon="7.25743">
        <ele>575.59997558594</ele>
        <time>2022-01-13T13:19:52.000Z</time>
      </trkpt>
      <trkpt lat="43.80315" lon="7.25744">
        <ele>576.40002441406</ele>
        <time>2022-01-13T13:19:54.000Z</time>
      </trkpt>
      <trkpt lat="43.80321" lon="7.25743">
        <ele>576.79998779297</ele>
        <time>2022-01-13T13:19:56.000Z</time>
      </trkpt>
      <trkpt lat="43.80333" lon="7.2574">
        <ele>577.59997558594</ele>
        <time>2022-01-13T13:20:00.000Z</time>
      </trkpt>
      <trkpt lat="43.80335" lon="7.25739">
        <ele>577.79998779297</ele>
        <time>2022-01-13T13:20:01.000Z</time>
      </trkpt>
      <trkpt lat="43.80347" lon="7.25736">
        <ele>578.79998779297</ele>
        <time>2022-01-13T13:20:05.000Z</time>
      </trkpt>
      <trkpt lat="43.80351" lon="7.25736">
        <ele>579</ele>
        <time>2022-01-13T13:20:06.000Z</time>
      </trkpt>
      <trkpt lat="43.80372" lon="7.25737">
        <ele>580.20001220703</ele>
        <time>2022-01-13T13:20:13.000Z</time>
      </trkpt>
      <trkpt lat="43.80387" lon="7.2574">
        <ele>581.20001220703</ele>
        <time>2022-01-13T13:20:17.000Z</time>
      </trkpt>
      <trkpt lat="43.80402" lon="7.25742">
        <ele>582.20001220703</ele>
        <time>2022-01-13T13:20:22.000Z</time>
      </trkpt>
      <trkpt lat="43.80404" lon="7.25742">
        <ele>582.40002441406</ele>
        <time>2022-01-13T13:20:23.000Z</time>
      </trkpt>
      <trkpt lat="43.80416" lon="7.2574">
        <ele>583.59997558594</ele>
        <time>2022-01-13T13:20:27.000Z</time>
      </trkpt>
      <trkpt lat="43.80423" lon="7.2574">
        <ele>584.40002441406</ele>
        <time>2022-01-13T13:20:29.000Z</time>
      </trkpt>
      <trkpt lat="43.80429" lon="7.25738">
        <ele>584.79998779297</ele>
        <time>2022-01-13T13:20:31.000Z</time>
      </trkpt>
      <trkpt lat="43.80451" lon="7.25739">
        <ele>585.59997558594</ele>
        <time>2022-01-13T13:20:37.000Z</time>
      </trkpt>
      <trkpt lat="43.80468" lon="7.25741">
        <ele>585.79998779297</ele>
        <time>2022-01-13T13:20:42.000Z</time>
      </trkpt>
      <trkpt lat="43.80474" lon="7.2574">
        <ele>586.20001220703</ele>
        <time>2022-01-13T13:20:44.000Z</time>
      </trkpt>
      <trkpt lat="43.80486" lon="7.25736">
        <ele>587</ele>
        <time>2022-01-13T13:20:48.000Z</time>
      </trkpt>
      <trkpt lat="43.80498" lon="7.25727">
        <ele>587.79998779297</ele>
        <time>2022-01-13T13:20:52.000Z</time>
      </trkpt>
      <trkpt lat="43.80502" lon="7.25721">
        <ele>588.20001220703</ele>
        <time>2022-01-13T13:20:54.000Z</time>
      </trkpt>
      <trkpt lat="43.80511" lon="7.25707">
        <ele>588.59997558594</ele>
        <time>2022-01-13T13:20:58.000Z</time>
      </trkpt>
      <trkpt lat="43.80518" lon="7.25697">
        <ele>589.40002441406</ele>
        <time>2022-01-13T13:21:01.000Z</time>
      </trkpt>
      <trkpt lat="43.80526" lon="7.25678">
        <ele>590.20001220703</ele>
        <time>2022-01-13T13:21:06.000Z</time>
      </trkpt>
      <trkpt lat="43.80527" lon="7.25668">
        <ele>590.40002441406</ele>
        <time>2022-01-13T13:21:08.000Z</time>
      </trkpt>
      <trkpt lat="43.8053" lon="7.25649">
        <ele>590.59997558594</ele>
        <time>2022-01-13T13:21:12.000Z</time>
      </trkpt>
      <trkpt lat="43.8054" lon="7.25613">
        <ele>590.40002441406</ele>
        <time>2022-01-13T13:21:19.000Z</time>
      </trkpt>
      <trkpt lat="43.80546" lon="7.25591">
        <ele>591</ele>
        <time>2022-01-13T13:21:24.000Z</time>
      </trkpt>
      <trkpt lat="43.80545" lon="7.2556">
        <ele>591.40002441406</ele>
        <time>2022-01-13T13:21:30.000Z</time>
      </trkpt>
      <trkpt lat="43.80545" lon="7.25551">
        <ele>591.40002441406</ele>
        <time>2022-01-13T13:21:32.000Z</time>
      </trkpt>
      <trkpt lat="43.80551" lon="7.25537">
        <ele>591.59997558594</ele>
        <time>2022-01-13T13:21:35.000Z</time>
      </trkpt>
      <trkpt lat="43.80562" lon="7.25536">
        <ele>591.79998779297</ele>
        <time>2022-01-13T13:21:38.000Z</time>
      </trkpt>
      <trkpt lat="43.8057" lon="7.25542">
        <ele>592.40002441406</ele>
        <time>2022-01-13T13:21:41.000Z</time>
      </trkpt>
      <trkpt lat="43.80577" lon="7.25545">
        <ele>592.59997558594</ele>
        <time>2022-01-13T13:21:43.000Z</time>
      </trkpt>
      <trkpt lat="43.80603" lon="7.25554">
        <ele>593.40002441406</ele>
        <time>2022-01-13T13:21:51.000Z</time>
      </trkpt>
      <trkpt lat="43.80606" lon="7.25557">
        <ele>593.59997558594</ele>
        <time>2022-01-13T13:21:52.000Z</time>
      </trkpt>
      <trkpt lat="43.80613" lon="7.25569">
        <ele>593.59997558594</ele>
        <time>2022-01-13T13:21:55.000Z</time>
      </trkpt>
      <trkpt lat="43.80631" lon="7.25593">
        <ele>594.20001220703</ele>
        <time>2022-01-13T13:22:02.000Z</time>
      </trkpt>
      <trkpt lat="43.80647" lon="7.25599">
        <ele>594.40002441406</ele>
        <time>2022-01-13T13:22:07.000Z</time>
      </trkpt>
      <trkpt lat="43.8065" lon="7.25598">
        <ele>594.79998779297</ele>
        <time>2022-01-13T13:22:08.000Z</time>
      </trkpt>
      <trkpt lat="43.80665" lon="7.25599">
        <ele>595.40002441406</ele>
        <time>2022-01-13T13:22:12.000Z</time>
      </trkpt>
      <trkpt lat="43.80676" lon="7.25614">
        <ele>595.20001220703</ele>
        <time>2022-01-13T13:22:16.000Z</time>
      </trkpt>
      <trkpt lat="43.80691" lon="7.25641">
        <ele>595.59997558594</ele>
        <time>2022-01-13T13:22:23.000Z</time>
      </trkpt>
      <trkpt lat="43.80707" lon="7.25653">
        <ele>595.79998779297</ele>
        <time>2022-01-13T13:22:28.000Z</time>
      </trkpt>
      <trkpt lat="43.80734" lon="7.25663">
        <ele>596.79998779297</ele>
        <time>2022-01-13T13:22:36.000Z</time>
      </trkpt>
      <trkpt lat="43.80737" lon="7.25664">
        <ele>597</ele>
        <time>2022-01-13T13:22:37.000Z</time>
      </trkpt>
      <trkpt lat="43.80751" lon="7.25664">
        <ele>598</ele>
        <time>2022-01-13T13:22:41.000Z</time>
      </trkpt>
      <trkpt lat="43.80766" lon="7.25662">
        <ele>598.59997558594</ele>
        <time>2022-01-13T13:22:45.000Z</time>
      </trkpt>
      <trkpt lat="43.80784" lon="7.25655">
        <ele>599</ele>
        <time>2022-01-13T13:22:50.000Z</time>
      </trkpt>
      <trkpt lat="43.80788" lon="7.25655">
        <ele>599.40002441406</ele>
        <time>2022-01-13T13:22:51.000Z</time>
      </trkpt>
      <trkpt lat="43.80796" lon="7.25658">
        <ele>599.40002441406</ele>
        <time>2022-01-13T13:22:53.000Z</time>
      </trkpt>
      <trkpt lat="43.80802" lon="7.25661">
        <ele>599.40002441406</ele>
        <time>2022-01-13T13:22:55.000Z</time>
      </trkpt>
      <trkpt lat="43.80816" lon="7.25664">
        <ele>600.40002441406</ele>
        <time>2022-01-13T13:22:59.000Z</time>
      </trkpt>
      <trkpt lat="43.80828" lon="7.25655">
        <ele>600.79998779297</ele>
        <time>2022-01-13T13:23:03.000Z</time>
      </trkpt>
      <trkpt lat="43.80838" lon="7.25643">
        <ele>601.40002441406</ele>
        <time>2022-01-13T13:23:07.000Z</time>
      </trkpt>
      <trkpt lat="43.80846" lon="7.25633">
        <ele>601.79998779297</ele>
        <time>2022-01-13T13:23:10.000Z</time>
      </trkpt>
      <trkpt lat="43.80867" lon="7.25601">
        <ele>602.20001220703</ele>
        <time>2022-01-13T13:23:19.000Z</time>
      </trkpt>
      <trkpt lat="43.80869" lon="7.25598">
        <ele>602.40002441406</ele>
        <time>2022-01-13T13:23:20.000Z</time>
      </trkpt>
      <trkpt lat="43.80879" lon="7.2558">
        <ele>603.40002441406</ele>
        <time>2022-01-13T13:23:25.000Z</time>
      </trkpt>
      <trkpt lat="43.80882" lon="7.25572">
        <ele>603.79998779297</ele>
        <time>2022-01-13T13:23:27.000Z</time>
      </trkpt>
      <trkpt lat="43.80887" lon="7.25546">
        <ele>604.20001220703</ele>
        <time>2022-01-13T13:23:33.000Z</time>
      </trkpt>
      <trkpt lat="43.80887" lon="7.25536">
        <ele>604.59997558594</ele>
        <time>2022-01-13T13:23:35.000Z</time>
      </trkpt>
      <trkpt lat="43.80884" lon="7.25513">
        <ele>605.20001220703</ele>
        <time>2022-01-13T13:23:40.000Z</time>
      </trkpt>
      <trkpt lat="43.80882" lon="7.25484">
        <ele>605.79998779297</ele>
        <time>2022-01-13T13:23:46.000Z</time>
      </trkpt>
      <trkpt lat="43.80882" lon="7.25479">
        <ele>605.79998779297</ele>
        <time>2022-01-13T13:23:47.000Z</time>
      </trkpt>
      <trkpt lat="43.80889" lon="7.25462">
        <ele>606</ele>
        <time>2022-01-13T13:23:51.000Z</time>
      </trkpt>
      <trkpt lat="43.80902" lon="7.25458">
        <ele>605.79998779297</ele>
        <time>2022-01-13T13:23:55.000Z</time>
      </trkpt>
      <trkpt lat="43.80917" lon="7.25471">
        <ele>606.20001220703</ele>
        <time>2022-01-13T13:24:00.000Z</time>
      </trkpt>
      <trkpt lat="43.80935" lon="7.25485">
        <ele>606.59997558594</ele>
        <time>2022-01-13T13:24:06.000Z</time>
      </trkpt>
      <trkpt lat="43.80938" lon="7.25488">
        <ele>606.79998779297</ele>
        <time>2022-01-13T13:24:07.000Z</time>
      </trkpt>
      <trkpt lat="43.80957" lon="7.25498">
        <ele>606.79998779297</ele>
        <time>2022-01-13T13:24:13.000Z</time>
      </trkpt>
      <trkpt lat="43.80975" lon="7.2551">
        <ele>607.59997558594</ele>
        <time>2022-01-13T13:24:19.000Z</time>
      </trkpt>
      <trkpt lat="43.8098" lon="7.25521">
        <ele>607.79998779297</ele>
        <time>2022-01-13T13:24:22.000Z</time>
      </trkpt>
      <trkpt lat="43.80987" lon="7.25536">
        <ele>608.59997558594</ele>
        <time>2022-01-13T13:24:26.000Z</time>
      </trkpt>
      <trkpt lat="43.80992" lon="7.25543">
        <ele>608.79998779297</ele>
        <time>2022-01-13T13:24:28.000Z</time>
      </trkpt>
      <trkpt lat="43.81004" lon="7.25563">
        <ele>609.59997558594</ele>
        <time>2022-01-13T13:24:34.000Z</time>
      </trkpt>
      <trkpt lat="43.81012" lon="7.25577">
        <ele>610</ele>
        <time>2022-01-13T13:24:38.000Z</time>
      </trkpt>
      <trkpt lat="43.81015" lon="7.2558">
        <ele>610.20001220703</ele>
        <time>2022-01-13T13:24:39.000Z</time>
      </trkpt>
      <trkpt lat="43.81033" lon="7.25602">
        <ele>610.79998779297</ele>
        <time>2022-01-13T13:24:47.000Z</time>
      </trkpt>
      <trkpt lat="43.81037" lon="7.25603">
        <ele>611</ele>
        <time>2022-01-13T13:24:48.000Z</time>
      </trkpt>
      <trkpt lat="43.81049" lon="7.25602">
        <ele>611.59997558594</ele>
        <time>2022-01-13T13:24:52.000Z</time>
      </trkpt>
      <trkpt lat="43.81059" lon="7.256">
        <ele>612.20001220703</ele>
        <time>2022-01-13T13:24:55.000Z</time>
      </trkpt>
      <trkpt lat="43.81071" lon="7.25593">
        <ele>613</ele>
        <time>2022-01-13T13:24:59.000Z</time>
      </trkpt>
      <trkpt lat="43.81084" lon="7.25584">
        <ele>613.40002441406</ele>
        <time>2022-01-13T13:25:03.000Z</time>
      </trkpt>
      <trkpt lat="43.81097" lon="7.25574">
        <ele>613.40002441406</ele>
        <time>2022-01-13T13:25:07.000Z</time>
      </trkpt>
      <trkpt lat="43.81122" lon="7.2556">
        <ele>613.40002441406</ele>
        <time>2022-01-13T13:25:14.000Z</time>
      </trkpt>
      <trkpt lat="43.81126" lon="7.25561">
        <ele>613.40002441406</ele>
        <time>2022-01-13T13:25:15.000Z</time>
      </trkpt>
      <trkpt lat="43.81132" lon="7.25566">
        <ele>613.59997558594</ele>
        <time>2022-01-13T13:25:17.000Z</time>
      </trkpt>
      <trkpt lat="43.81142" lon="7.25587">
        <ele>614.40002441406</ele>
        <time>2022-01-13T13:25:22.000Z</time>
      </trkpt>
      <trkpt lat="43.81144" lon="7.25592">
        <ele>614.59997558594</ele>
        <time>2022-01-13T13:25:23.000Z</time>
      </trkpt>
      <trkpt lat="43.81161" lon="7.25634">
        <ele>615.40002441406</ele>
        <time>2022-01-13T13:25:33.000Z</time>
      </trkpt>
      <trkpt lat="43.81163" lon="7.25636">
        <ele>615.59997558594</ele>
        <time>2022-01-13T13:25:34.000Z</time>
      </trkpt>
      <trkpt lat="43.81176" lon="7.25641">
        <ele>616.20001220703</ele>
        <time>2022-01-13T13:25:38.000Z</time>
      </trkpt>
      <trkpt lat="43.81182" lon="7.25641">
        <ele>616.59997558594</ele>
        <time>2022-01-13T13:25:40.000Z</time>
      </trkpt>
      <trkpt lat="43.81192" lon="7.25639">
        <ele>617</ele>
        <time>2022-01-13T13:25:43.000Z</time>
      </trkpt>
      <trkpt lat="43.81213" lon="7.25625">
        <ele>617.40002441406</ele>
        <time>2022-01-13T13:25:50.000Z</time>
      </trkpt>
      <trkpt lat="43.81221" lon="7.25617">
        <ele>617.79998779297</ele>
        <time>2022-01-13T13:25:53.000Z</time>
      </trkpt>
      <trkpt lat="43.81238" lon="7.25595">
        <ele>618.79998779297</ele>
        <time>2022-01-13T13:26:00.000Z</time>
      </trkpt>
      <trkpt lat="43.81254" lon="7.25569">
        <ele>619.59997558594</ele>
        <time>2022-01-13T13:26:08.000Z</time>
      </trkpt>
      <trkpt lat="43.81269" lon="7.2555">
        <ele>619.40002441406</ele>
        <time>2022-01-13T13:26:14.000Z</time>
      </trkpt>
      <trkpt lat="43.81283" lon="7.25545">
        <ele>619.40002441406</ele>
        <time>2022-01-13T13:26:18.000Z</time>
      </trkpt>
      <trkpt lat="43.81295" lon="7.25553">
        <ele>619.59997558594</ele>
        <time>2022-01-13T13:26:22.000Z</time>
      </trkpt>
      <trkpt lat="43.81304" lon="7.25558">
        <ele>620</ele>
        <time>2022-01-13T13:26:25.000Z</time>
      </trkpt>
      <trkpt lat="43.81314" lon="7.25561">
        <ele>620.59997558594</ele>
        <time>2022-01-13T13:26:28.000Z</time>
      </trkpt>
      <trkpt lat="43.8133" lon="7.25562">
        <ele>621</ele>
        <time>2022-01-13T13:26:33.000Z</time>
      </trkpt>
      <trkpt lat="43.81336" lon="7.25565">
        <ele>621.40002441406</ele>
        <time>2022-01-13T13:26:35.000Z</time>
      </trkpt>
      <trkpt lat="43.81338" lon="7.25567">
        <ele>621.79998779297</ele>
        <time>2022-01-13T13:26:36.000Z</time>
      </trkpt>
      <trkpt lat="43.81343" lon="7.25572">
        <ele>622.40002441406</ele>
        <time>2022-01-13T13:26:38.000Z</time>
      </trkpt>
      <trkpt lat="43.81347" lon="7.2558">
        <ele>623</ele>
        <time>2022-01-13T13:26:40.000Z</time>
      </trkpt>
      <trkpt lat="43.81356" lon="7.25613">
        <ele>622.79998779297</ele>
        <time>2022-01-13T13:26:47.000Z</time>
      </trkpt>
      <trkpt lat="43.81365" lon="7.25666">
        <ele>622.59997558594</ele>
        <time>2022-01-13T13:26:58.000Z</time>
      </trkpt>
      <trkpt lat="43.81373" lon="7.25695">
        <ele>623.40002441406</ele>
        <time>2022-01-13T13:27:04.000Z</time>
      </trkpt>
      <trkpt lat="43.81376" lon="7.25704">
        <ele>623.79998779297</ele>
        <time>2022-01-13T13:27:06.000Z</time>
      </trkpt>
      <trkpt lat="43.81386" lon="7.25718">
        <ele>624.40002441406</ele>
        <time>2022-01-13T13:27:11.000Z</time>
      </trkpt>
      <trkpt lat="43.8139" lon="7.2572">
        <ele>624.79998779297</ele>
        <time>2022-01-13T13:27:13.000Z</time>
      </trkpt>
      <trkpt lat="43.81396" lon="7.25724">
        <ele>626</ele>
        <time>2022-01-13T13:27:16.000Z</time>
      </trkpt>
      <trkpt lat="43.814" lon="7.25724">
        <ele>627</ele>
        <time>2022-01-13T13:27:18.000Z</time>
      </trkpt>
      <trkpt lat="43.81402" lon="7.25725">
        <ele>627.40002441406</ele>
        <time>2022-01-13T13:27:19.000Z</time>
      </trkpt>
      <trkpt lat="43.81408" lon="7.25725">
        <ele>628.40002441406</ele>
        <time>2022-01-13T13:27:22.000Z</time>
      </trkpt>
      <trkpt lat="43.81415" lon="7.25722">
        <ele>629</ele>
        <time>2022-01-13T13:27:25.000Z</time>
      </trkpt>
      <trkpt lat="43.8142" lon="7.2571">
        <ele>629.59997558594</ele>
        <time>2022-01-13T13:27:30.000Z</time>
      </trkpt>
      <trkpt lat="43.8142" lon="7.25697">
        <ele>630.79998779297</ele>
        <time>2022-01-13T13:27:34.000Z</time>
      </trkpt>
      <trkpt lat="43.8142" lon="7.25686">
        <ele>632.40002441406</ele>
        <time>2022-01-13T13:27:37.000Z</time>
      </trkpt>
      <trkpt lat="43.81419" lon="7.25683">
        <ele>632.79998779297</ele>
        <time>2022-01-13T13:27:38.000Z</time>
      </trkpt>
      <trkpt lat="43.81418" lon="7.25676">
        <ele>633.59997558594</ele>
        <time>2022-01-13T13:27:40.000Z</time>
      </trkpt>
      <trkpt lat="43.81418" lon="7.25667">
        <ele>635</ele>
        <time>2022-01-13T13:27:43.000Z</time>
      </trkpt>
      <trkpt lat="43.81418" lon="7.25664">
        <ele>635.40002441406</ele>
        <time>2022-01-13T13:27:44.000Z</time>
      </trkpt>
      <trkpt lat="43.81418" lon="7.25657">
        <ele>636.40002441406</ele>
        <time>2022-01-13T13:27:46.000Z</time>
      </trkpt>
      <trkpt lat="43.81419" lon="7.25647">
        <ele>637.40002441406</ele>
        <time>2022-01-13T13:27:49.000Z</time>
      </trkpt>
      <trkpt lat="43.81418" lon="7.25637">
        <ele>638.59997558594</ele>
        <time>2022-01-13T13:27:52.000Z</time>
      </trkpt>
      <trkpt lat="43.81418" lon="7.25634">
        <ele>639.20001220703</ele>
        <time>2022-01-13T13:27:53.000Z</time>
      </trkpt>
      <trkpt lat="43.81418" lon="7.25631">
        <ele>639.79998779297</ele>
        <time>2022-01-13T13:27:54.000Z</time>
      </trkpt>
      <trkpt lat="43.81418" lon="7.25625">
        <ele>641</ele>
        <time>2022-01-13T13:27:56.000Z</time>
      </trkpt>
      <trkpt lat="43.81418" lon="7.25618">
        <ele>642.40002441406</ele>
        <time>2022-01-13T13:27:58.000Z</time>
      </trkpt>
      <trkpt lat="43.8142" lon="7.25611">
        <ele>643.59997558594</ele>
        <time>2022-01-13T13:28:00.000Z</time>
      </trkpt>
      <trkpt lat="43.8142" lon="7.25609">
        <ele>644.20001220703</ele>
        <time>2022-01-13T13:28:01.000Z</time>
      </trkpt>
      <trkpt lat="43.81423" lon="7.25603">
        <ele>645</ele>
        <time>2022-01-13T13:28:03.000Z</time>
      </trkpt>
      <trkpt lat="43.81424" lon="7.25597">
        <ele>646.20001220703</ele>
        <time>2022-01-13T13:28:05.000Z</time>
      </trkpt>
      <trkpt lat="43.81424" lon="7.25591">
        <ele>647.20001220703</ele>
        <time>2022-01-13T13:28:07.000Z</time>
      </trkpt>
      <trkpt lat="43.81424" lon="7.25582">
        <ele>648.40002441406</ele>
        <time>2022-01-13T13:28:10.000Z</time>
      </trkpt>
      <trkpt lat="43.81425" lon="7.25573">
        <ele>649.79998779297</ele>
        <time>2022-01-13T13:28:13.000Z</time>
      </trkpt>
      <trkpt lat="43.81425" lon="7.25571">
        <ele>650.59997558594</ele>
        <time>2022-01-13T13:28:14.000Z</time>
      </trkpt>
      <trkpt lat="43.81425" lon="7.25568">
        <ele>651.40002441406</ele>
        <time>2022-01-13T13:28:15.000Z</time>
      </trkpt>
      <trkpt lat="43.81426" lon="7.25562">
        <ele>652.79998779297</ele>
        <time>2022-01-13T13:28:17.000Z</time>
      </trkpt>
      <trkpt lat="43.81426" lon="7.25556">
        <ele>654.20001220703</ele>
        <time>2022-01-13T13:28:19.000Z</time>
      </trkpt>
      <trkpt lat="43.81427" lon="7.2555">
        <ele>655.40002441406</ele>
        <time>2022-01-13T13:28:21.000Z</time>
      </trkpt>
      <trkpt lat="43.81427" lon="7.25545">
        <ele>656.59997558594</ele>
        <time>2022-01-13T13:28:23.000Z</time>
      </trkpt>
      <trkpt lat="43.81427" lon="7.25542">
        <ele>657.20001220703</ele>
        <time>2022-01-13T13:28:24.000Z</time>
      </trkpt>
      <trkpt lat="43.81427" lon="7.25539">
        <ele>657.79998779297</ele>
        <time>2022-01-13T13:28:25.000Z</time>
      </trkpt>
      <trkpt lat="43.81427" lon="7.25531">
        <ele>659</ele>
        <time>2022-01-13T13:28:28.000Z</time>
      </trkpt>
      <trkpt lat="43.81427" lon="7.25523">
        <ele>660.20001220703</ele>
        <time>2022-01-13T13:28:31.000Z</time>
      </trkpt>
      <trkpt lat="43.81428" lon="7.25518">
        <ele>662</ele>
        <time>2022-01-13T13:28:33.000Z</time>
      </trkpt>
      <trkpt lat="43.81429" lon="7.25513">
        <ele>663.79998779297</ele>
        <time>2022-01-13T13:28:35.000Z</time>
      </trkpt>
      <trkpt lat="43.81429" lon="7.25509">
        <ele>665.20001220703</ele>
        <time>2022-01-13T13:28:37.000Z</time>
      </trkpt>
      <trkpt lat="43.81429" lon="7.25503">
        <ele>666.59997558594</ele>
        <time>2022-01-13T13:28:39.000Z</time>
      </trkpt>
      <trkpt lat="43.81429" lon="7.25498">
        <ele>667.79998779297</ele>
        <time>2022-01-13T13:28:41.000Z</time>
      </trkpt>
      <trkpt lat="43.81429" lon="7.25492">
        <ele>669.40002441406</ele>
        <time>2022-01-13T13:28:43.000Z</time>
      </trkpt>
      <trkpt lat="43.81429" lon="7.25487">
        <ele>670.40002441406</ele>
        <time>2022-01-13T13:28:45.000Z</time>
      </trkpt>
      <trkpt lat="43.81429" lon="7.2548">
        <ele>671.79998779297</ele>
        <time>2022-01-13T13:28:48.000Z</time>
      </trkpt>
      <trkpt lat="43.81429" lon="7.25477">
        <ele>672.20001220703</ele>
        <time>2022-01-13T13:28:49.000Z</time>
      </trkpt>
      <trkpt lat="43.81429" lon="7.25472">
        <ele>673.20001220703</ele>
        <time>2022-01-13T13:28:51.000Z</time>
      </trkpt>
      <trkpt lat="43.81428" lon="7.25467">
        <ele>674.59997558594</ele>
        <time>2022-01-13T13:28:53.000Z</time>
      </trkpt>
      <trkpt lat="43.81427" lon="7.25459">
        <ele>675.59997558594</ele>
        <time>2022-01-13T13:28:56.000Z</time>
      </trkpt>
      <trkpt lat="43.81427" lon="7.25457">
        <ele>676.20001220703</ele>
        <time>2022-01-13T13:28:57.000Z</time>
      </trkpt>
      <trkpt lat="43.81427" lon="7.25452">
        <ele>677.40002441406</ele>
        <time>2022-01-13T13:28:59.000Z</time>
      </trkpt>
      <trkpt lat="43.81427" lon="7.25447">
        <ele>678.59997558594</ele>
        <time>2022-01-13T13:29:01.000Z</time>
      </trkpt>
      <trkpt lat="43.81427" lon="7.25441">
        <ele>680</ele>
        <time>2022-01-13T13:29:03.000Z</time>
      </trkpt>
      <trkpt lat="43.81426" lon="7.25435">
        <ele>681.20001220703</ele>
        <time>2022-01-13T13:29:05.000Z</time>
      </trkpt>
      <trkpt lat="43.81426" lon="7.2543">
        <ele>682.20001220703</ele>
        <time>2022-01-13T13:29:07.000Z</time>
      </trkpt>
      <trkpt lat="43.81426" lon="7.25422">
        <ele>683.59997558594</ele>
        <time>2022-01-13T13:29:10.000Z</time>
      </trkpt>
      <trkpt lat="43.81427" lon="7.25418">
        <ele>685</ele>
        <time>2022-01-13T13:29:12.000Z</time>
      </trkpt>
      <trkpt lat="43.81426" lon="7.25414">
        <ele>686</ele>
        <time>2022-01-13T13:29:14.000Z</time>
      </trkpt>
      <trkpt lat="43.81424" lon="7.25408">
        <ele>687.20001220703</ele>
        <time>2022-01-13T13:29:17.000Z</time>
      </trkpt>
      <trkpt lat="43.81423" lon="7.25406">
        <ele>687.59997558594</ele>
        <time>2022-01-13T13:29:18.000Z</time>
      </trkpt>
      <trkpt lat="43.81422" lon="7.25403">
        <ele>688.40002441406</ele>
        <time>2022-01-13T13:29:20.000Z</time>
      </trkpt>
      <trkpt lat="43.81416" lon="7.25397">
        <ele>689.20001220703</ele>
        <time>2022-01-13T13:29:26.000Z</time>
      </trkpt>
      <trkpt lat="43.81414" lon="7.25398">
        <ele>689.20001220703</ele>
        <time>2022-01-13T13:29:27.000Z</time>
      </trkpt>
      <trkpt lat="43.81412" lon="7.25397">
        <ele>689.20001220703</ele>
        <time>2022-01-13T13:29:29.000Z</time>
      </trkpt>
      <trkpt lat="43.81412" lon="7.25397">
        <ele>689</ele>
        <time>2022-01-13T13:29:31.000Z</time>
      </trkpt>
      <trkpt lat="43.81412" lon="7.25397">
        <ele>688.79998779297</ele>
        <time>2022-01-13T13:29:43.000Z</time>
      </trkpt>
      <trkpt lat="43.8141" lon="7.25398">
        <ele>688.59997558594</ele>
        <time>2022-01-13T13:30:01.000Z</time>
      </trkpt>
      <trkpt lat="43.81409" lon="7.25398">
        <ele>688.79998779297</ele>
        <time>2022-01-13T13:30:05.000Z</time>
      </trkpt>
      <trkpt lat="43.81404" lon="7.25398">
        <ele>688.59997558594</ele>
        <time>2022-01-13T13:30:07.000Z</time>
      </trkpt>
      <trkpt lat="43.81385" lon="7.25394">
        <ele>687.40002441406</ele>
        <time>2022-01-13T13:30:12.000Z</time>
      </trkpt>
      <trkpt lat="43.8138" lon="7.25394">
        <ele>687.20001220703</ele>
        <time>2022-01-13T13:30:13.000Z</time>
      </trkpt>
      <trkpt lat="43.81366" lon="7.25392">
        <ele>685.79998779297</ele>
        <time>2022-01-13T13:30:16.000Z</time>
      </trkpt>
      <trkpt lat="43.81357" lon="7.25389">
        <ele>684.79998779297</ele>
        <time>2022-01-13T13:30:18.000Z</time>
      </trkpt>
      <trkpt lat="43.81354" lon="7.25388">
        <ele>684.59997558594</ele>
        <time>2022-01-13T13:30:19.000Z</time>
      </trkpt>
      <trkpt lat="43.81337" lon="7.25381">
        <ele>683.59997558594</ele>
        <time>2022-01-13T13:30:23.000Z</time>
      </trkpt>
      <trkpt lat="43.81334" lon="7.2538">
        <ele>683.40002441406</ele>
        <time>2022-01-13T13:30:24.000Z</time>
      </trkpt>
      <trkpt lat="43.8133" lon="7.25379">
        <ele>683</ele>
        <time>2022-01-13T13:30:25.000Z</time>
      </trkpt>
      <trkpt lat="43.81312" lon="7.25375">
        <ele>683.20001220703</ele>
        <time>2022-01-13T13:30:32.000Z</time>
      </trkpt>
      <trkpt lat="43.81296" lon="7.25372">
        <ele>684.40002441406</ele>
        <time>2022-01-13T13:30:38.000Z</time>
      </trkpt>
      <trkpt lat="43.81289" lon="7.25369">
        <ele>685.40002441406</ele>
        <time>2022-01-13T13:30:41.000Z</time>
      </trkpt>
      <trkpt lat="43.81282" lon="7.25365">
        <ele>686.40002441406</ele>
        <time>2022-01-13T13:30:44.000Z</time>
      </trkpt>
      <trkpt lat="43.81275" lon="7.25362">
        <ele>688</ele>
        <time>2022-01-13T13:30:47.000Z</time>
      </trkpt>
      <trkpt lat="43.81273" lon="7.25361">
        <ele>688.59997558594</ele>
        <time>2022-01-13T13:30:48.000Z</time>
      </trkpt>
      <trkpt lat="43.81271" lon="7.2536">
        <ele>689.20001220703</ele>
        <time>2022-01-13T13:30:49.000Z</time>
      </trkpt>
      <trkpt lat="43.81266" lon="7.25359">
        <ele>690.40002441406</ele>
        <time>2022-01-13T13:30:51.000Z</time>
      </trkpt>
      <trkpt lat="43.81261" lon="7.25356">
        <ele>691.59997558594</ele>
        <time>2022-01-13T13:30:53.000Z</time>
      </trkpt>
      <trkpt lat="43.81257" lon="7.25351">
        <ele>693</ele>
        <time>2022-01-13T13:30:56.000Z</time>
      </trkpt>
      <trkpt lat="43.81256" lon="7.25349">
        <ele>694.40002441406</ele>
        <time>2022-01-13T13:30:58.000Z</time>
      </trkpt>
      <trkpt lat="43.81254" lon="7.25347">
        <ele>695.79998779297</ele>
        <time>2022-01-13T13:31:00.000Z</time>
      </trkpt>
      <trkpt lat="43.81248" lon="7.25344">
        <ele>696.40002441406</ele>
        <time>2022-01-13T13:31:03.000Z</time>
      </trkpt>
      <trkpt lat="43.81244" lon="7.25344">
        <ele>697</ele>
        <time>2022-01-13T13:31:05.000Z</time>
      </trkpt>
      <trkpt lat="43.8124" lon="7.25346">
        <ele>698.59997558594</ele>
        <time>2022-01-13T13:31:07.000Z</time>
      </trkpt>
      <trkpt lat="43.81238" lon="7.25346">
        <ele>699</ele>
        <time>2022-01-13T13:31:08.000Z</time>
      </trkpt>
      <trkpt lat="43.81234" lon="7.25345">
        <ele>700</ele>
        <time>2022-01-13T13:31:10.000Z</time>
      </trkpt>
      <trkpt lat="43.81232" lon="7.25344">
        <ele>700.40002441406</ele>
        <time>2022-01-13T13:31:11.000Z</time>
      </trkpt>
      <trkpt lat="43.8123" lon="7.25342">
        <ele>700.79998779297</ele>
        <time>2022-01-13T13:31:12.000Z</time>
      </trkpt>
      <trkpt lat="43.81229" lon="7.25341">
        <ele>701.20001220703</ele>
        <time>2022-01-13T13:31:13.000Z</time>
      </trkpt>
      <trkpt lat="43.81225" lon="7.25341">
        <ele>702.20001220703</ele>
        <time>2022-01-13T13:31:15.000Z</time>
      </trkpt>
      <trkpt lat="43.81223" lon="7.2534">
        <ele>702.79998779297</ele>
        <time>2022-01-13T13:31:16.000Z</time>
      </trkpt>
      <trkpt lat="43.8122" lon="7.25337">
        <ele>703.59997558594</ele>
        <time>2022-01-13T13:31:18.000Z</time>
      </trkpt>
      <trkpt lat="43.81217" lon="7.25335">
        <ele>704.40002441406</ele>
        <time>2022-01-13T13:31:20.000Z</time>
      </trkpt>
      <trkpt lat="43.81213" lon="7.25334">
        <ele>704.79998779297</ele>
        <time>2022-01-13T13:31:22.000Z</time>
      </trkpt>
      <trkpt lat="43.81205" lon="7.25334">
        <ele>705.40002441406</ele>
        <time>2022-01-13T13:31:26.000Z</time>
      </trkpt>
      <trkpt lat="43.81201" lon="7.25333">
        <ele>705.79998779297</ele>
        <time>2022-01-13T13:31:28.000Z</time>
      </trkpt>
      <trkpt lat="43.81188" lon="7.25329">
        <ele>707</ele>
        <time>2022-01-13T13:31:34.000Z</time>
      </trkpt>
      <trkpt lat="43.81175" lon="7.25322">
        <ele>708</ele>
        <time>2022-01-13T13:31:41.000Z</time>
      </trkpt>
      <trkpt lat="43.8116" lon="7.25311">
        <ele>709</ele>
        <time>2022-01-13T13:31:49.000Z</time>
      </trkpt>
      <trkpt lat="43.81158" lon="7.25309">
        <ele>709.20001220703</ele>
        <time>2022-01-13T13:31:50.000Z</time>
      </trkpt>
      <trkpt lat="43.81149" lon="7.25304">
        <ele>710.20001220703</ele>
        <time>2022-01-13T13:31:54.000Z</time>
      </trkpt>
      <trkpt lat="43.81142" lon="7.25297">
        <ele>711.40002441406</ele>
        <time>2022-01-13T13:31:58.000Z</time>
      </trkpt>
      <trkpt lat="43.81137" lon="7.25293">
        <ele>712.40002441406</ele>
        <time>2022-01-13T13:32:01.000Z</time>
      </trkpt>
      <trkpt lat="43.81128" lon="7.25291">
        <ele>713.59997558594</ele>
        <time>2022-01-13T13:32:05.000Z</time>
      </trkpt>
      <trkpt lat="43.81125" lon="7.25289">
        <ele>714.40002441406</ele>
        <time>2022-01-13T13:32:07.000Z</time>
      </trkpt>
      <trkpt lat="43.81123" lon="7.25287">
        <ele>714.79998779297</ele>
        <time>2022-01-13T13:32:08.000Z</time>
      </trkpt>
      <trkpt lat="43.81117" lon="7.25282">
        <ele>716.20001220703</ele>
        <time>2022-01-13T13:32:11.000Z</time>
      </trkpt>
      <trkpt lat="43.81111" lon="7.25276">
        <ele>717.40002441406</ele>
        <time>2022-01-13T13:32:15.000Z</time>
      </trkpt>
      <trkpt lat="43.81105" lon="7.25271">
        <ele>718.59997558594</ele>
        <time>2022-01-13T13:32:18.000Z</time>
      </trkpt>
      <trkpt lat="43.81098" lon="7.25263">
        <ele>719.79998779297</ele>
        <time>2022-01-13T13:32:22.000Z</time>
      </trkpt>
      <trkpt lat="43.81094" lon="7.25257">
        <ele>721</ele>
        <time>2022-01-13T13:32:25.000Z</time>
      </trkpt>
      <trkpt lat="43.81091" lon="7.25253">
        <ele>722</ele>
        <time>2022-01-13T13:32:27.000Z</time>
      </trkpt>
      <trkpt lat="43.8109" lon="7.25252">
        <ele>722.59997558594</ele>
        <time>2022-01-13T13:32:28.000Z</time>
      </trkpt>
      <trkpt lat="43.81088" lon="7.25252">
        <ele>723.20001220703</ele>
        <time>2022-01-13T13:32:29.000Z</time>
      </trkpt>
      <trkpt lat="43.81083" lon="7.25252">
        <ele>724.59997558594</ele>
        <time>2022-01-13T13:32:32.000Z</time>
      </trkpt>
      <trkpt lat="43.81081" lon="7.25252">
        <ele>725.20001220703</ele>
        <time>2022-01-13T13:32:33.000Z</time>
      </trkpt>
      <trkpt lat="43.81078" lon="7.25253">
        <ele>725.79998779297</ele>
        <time>2022-01-13T13:32:35.000Z</time>
      </trkpt>
      <trkpt lat="43.81072" lon="7.25249">
        <ele>727</ele>
        <time>2022-01-13T13:32:39.000Z</time>
      </trkpt>
      <trkpt lat="43.81066" lon="7.25245">
        <ele>728.20001220703</ele>
        <time>2022-01-13T13:32:43.000Z</time>
      </trkpt>
      <trkpt lat="43.81063" lon="7.25242">
        <ele>728.79998779297</ele>
        <time>2022-01-13T13:32:45.000Z</time>
      </trkpt>
      <trkpt lat="43.81061" lon="7.2524">
        <ele>729.20001220703</ele>
        <time>2022-01-13T13:32:46.000Z</time>
      </trkpt>
      <trkpt lat="43.81056" lon="7.25234">
        <ele>730.59997558594</ele>
        <time>2022-01-13T13:32:50.000Z</time>
      </trkpt>
      <trkpt lat="43.81053" lon="7.2523">
        <ele>731</ele>
        <time>2022-01-13T13:32:52.000Z</time>
      </trkpt>
      <trkpt lat="43.81049" lon="7.25224">
        <ele>731.59997558594</ele>
        <time>2022-01-13T13:32:55.000Z</time>
      </trkpt>
      <trkpt lat="43.81042" lon="7.25213">
        <ele>732.59997558594</ele>
        <time>2022-01-13T13:33:00.000Z</time>
      </trkpt>
      <trkpt lat="43.8104" lon="7.2521">
        <ele>732.79998779297</ele>
        <time>2022-01-13T13:33:01.000Z</time>
      </trkpt>
      <trkpt lat="43.81029" lon="7.25193">
        <ele>733.40002441406</ele>
        <time>2022-01-13T13:33:08.000Z</time>
      </trkpt>
      <trkpt lat="43.81023" lon="7.25186">
        <ele>733.79998779297</ele>
        <time>2022-01-13T13:33:11.000Z</time>
      </trkpt>
      <trkpt lat="43.81017" lon="7.25179">
        <ele>734.20001220703</ele>
        <time>2022-01-13T13:33:14.000Z</time>
      </trkpt>
      <trkpt lat="43.81011" lon="7.25173">
        <ele>734.79998779297</ele>
        <time>2022-01-13T13:33:17.000Z</time>
      </trkpt>
      <trkpt lat="43.81" lon="7.25159">
        <ele>735.40002441406</ele>
        <time>2022-01-13T13:33:22.000Z</time>
      </trkpt>
      <trkpt lat="43.80989" lon="7.25141">
        <ele>735.79998779297</ele>
        <time>2022-01-13T13:33:28.000Z</time>
      </trkpt>
      <trkpt lat="43.80987" lon="7.25138">
        <ele>736</ele>
        <time>2022-01-13T13:33:29.000Z</time>
      </trkpt>
      <trkpt lat="43.80976" lon="7.25123">
        <ele>737.20001220703</ele>
        <time>2022-01-13T13:33:35.000Z</time>
      </trkpt>
      <trkpt lat="43.80973" lon="7.2512">
        <ele>737.79998779297</ele>
        <time>2022-01-13T13:33:36.000Z</time>
      </trkpt>
      <trkpt lat="43.8097" lon="7.25117">
        <ele>738.20001220703</ele>
        <time>2022-01-13T13:33:37.000Z</time>
      </trkpt>
      <trkpt lat="43.80966" lon="7.25113">
        <ele>739.40002441406</ele>
        <time>2022-01-13T13:33:39.000Z</time>
      </trkpt>
      <trkpt lat="43.80961" lon="7.25109">
        <ele>740.40002441406</ele>
        <time>2022-01-13T13:33:41.000Z</time>
      </trkpt>
      <trkpt lat="43.80956" lon="7.25104">
        <ele>741.40002441406</ele>
        <time>2022-01-13T13:33:43.000Z</time>
      </trkpt>
      <trkpt lat="43.80952" lon="7.251">
        <ele>742.40002441406</ele>
        <time>2022-01-13T13:33:45.000Z</time>
      </trkpt>
      <trkpt lat="43.80947" lon="7.25097">
        <ele>743.40002441406</ele>
        <time>2022-01-13T13:33:47.000Z</time>
      </trkpt>
      <trkpt lat="43.80944" lon="7.25095">
        <ele>743.59997558594</ele>
        <time>2022-01-13T13:33:48.000Z</time>
      </trkpt>
      <trkpt lat="43.80934" lon="7.25086">
        <ele>744.79998779297</ele>
        <time>2022-01-13T13:33:52.000Z</time>
      </trkpt>
      <trkpt lat="43.80928" lon="7.25083">
        <ele>745.59997558594</ele>
        <time>2022-01-13T13:33:54.000Z</time>
      </trkpt>
      <trkpt lat="43.80926" lon="7.25082">
        <ele>745.79998779297</ele>
        <time>2022-01-13T13:33:55.000Z</time>
      </trkpt>
      <trkpt lat="43.80917" lon="7.2508">
        <ele>747</ele>
        <time>2022-01-13T13:33:58.000Z</time>
      </trkpt>
      <trkpt lat="43.80911" lon="7.25078">
        <ele>747.20001220703</ele>
        <time>2022-01-13T13:34:00.000Z</time>
      </trkpt>
      <trkpt lat="43.80899" lon="7.25073">
        <ele>748.20001220703</ele>
        <time>2022-01-13T13:34:05.000Z</time>
      </trkpt>
      <trkpt lat="43.80896" lon="7.25073">
        <ele>748.79998779297</ele>
        <time>2022-01-13T13:34:06.000Z</time>
      </trkpt>
      <trkpt lat="43.8089" lon="7.25072">
        <ele>749.20001220703</ele>
        <time>2022-01-13T13:34:08.000Z</time>
      </trkpt>
      <trkpt lat="43.80876" lon="7.2507">
        <ele>749.59997558594</ele>
        <time>2022-01-13T13:34:13.000Z</time>
      </trkpt>
      <trkpt lat="43.80864" lon="7.25064">
        <ele>750.20001220703</ele>
        <time>2022-01-13T13:34:18.000Z</time>
      </trkpt>
      <trkpt lat="43.80861" lon="7.25063">
        <ele>750.40002441406</ele>
        <time>2022-01-13T13:34:19.000Z</time>
      </trkpt>
      <trkpt lat="43.80851" lon="7.25055">
        <ele>751</ele>
        <time>2022-01-13T13:34:23.000Z</time>
      </trkpt>
      <trkpt lat="43.80847" lon="7.25047">
        <ele>751.59997558594</ele>
        <time>2022-01-13T13:34:26.000Z</time>
      </trkpt>
      <trkpt lat="43.80845" lon="7.25045">
        <ele>752.20001220703</ele>
        <time>2022-01-13T13:34:27.000Z</time>
      </trkpt>
      <trkpt lat="43.80843" lon="7.25043">
        <ele>752.59997558594</ele>
        <time>2022-01-13T13:34:28.000Z</time>
      </trkpt>
      <trkpt lat="43.80839" lon="7.25042">
        <ele>753.79998779297</ele>
        <time>2022-01-13T13:34:30.000Z</time>
      </trkpt>
      <trkpt lat="43.80835" lon="7.25047">
        <ele>754.20001220703</ele>
        <time>2022-01-13T13:34:32.000Z</time>
      </trkpt>
      <trkpt lat="43.80834" lon="7.25053">
        <ele>754.79998779297</ele>
        <time>2022-01-13T13:34:34.000Z</time>
      </trkpt>
      <trkpt lat="43.80833" lon="7.25056">
        <ele>754.79998779297</ele>
        <time>2022-01-13T13:34:35.000Z</time>
      </trkpt>
      <trkpt lat="43.80832" lon="7.25059">
        <ele>755.20001220703</ele>
        <time>2022-01-13T13:34:36.000Z</time>
      </trkpt>
      <trkpt lat="43.80828" lon="7.25064">
        <ele>756</ele>
        <time>2022-01-13T13:34:38.000Z</time>
      </trkpt>
      <trkpt lat="43.8082" lon="7.25072">
        <ele>757</ele>
        <time>2022-01-13T13:34:42.000Z</time>
      </trkpt>
      <trkpt lat="43.80812" lon="7.25083">
        <ele>758.40002441406</ele>
        <time>2022-01-13T13:34:47.000Z</time>
      </trkpt>
      <trkpt lat="43.80809" lon="7.25087">
        <ele>759</ele>
        <time>2022-01-13T13:34:50.000Z</time>
      </trkpt>
      <trkpt lat="43.80801" lon="7.25093">
        <ele>759.40002441406</ele>
        <time>2022-01-13T13:34:54.000Z</time>
      </trkpt>
      <trkpt lat="43.80798" lon="7.25095">
        <ele>759.59997558594</ele>
        <time>2022-01-13T13:34:56.000Z</time>
      </trkpt>
      <trkpt lat="43.80787" lon="7.25103">
        <ele>760.40002441406</ele>
        <time>2022-01-13T13:35:03.000Z</time>
      </trkpt>
      <trkpt lat="43.80785" lon="7.25104">
        <ele>760.40002441406</ele>
        <time>2022-01-13T13:35:04.000Z</time>
      </trkpt>
      <trkpt lat="43.80778" lon="7.25109">
        <ele>760.79998779297</ele>
        <time>2022-01-13T13:35:10.000Z</time>
      </trkpt>
      <trkpt lat="43.80777" lon="7.25109">
        <ele>760.40002441406</ele>
        <time>2022-01-13T13:35:15.000Z</time>
      </trkpt>
      <trkpt lat="43.80776" lon="7.25108">
        <ele>760.20001220703</ele>
        <time>2022-01-13T13:35:29.000Z</time>
      </trkpt>
      <trkpt lat="43.80776" lon="7.25107">
        <ele>760.20001220703</ele>
        <time>2022-01-13T13:35:35.000Z</time>
      </trkpt>
      <trkpt lat="43.80776" lon="7.25107">
        <ele>760.79998779297</ele>
        <time>2022-01-13T13:35:43.000Z</time>
      </trkpt>
      <trkpt lat="43.80777" lon="7.25107">
        <ele>761</ele>
        <time>2022-01-13T13:35:52.000Z</time>
      </trkpt>
      <trkpt lat="43.80776" lon="7.25108">
        <ele>760.79998779297</ele>
        <time>2022-01-13T13:36:02.000Z</time>
      </trkpt>
      <trkpt lat="43.80775" lon="7.2511">
        <ele>760.59997558594</ele>
        <time>2022-01-13T13:36:19.000Z</time>
      </trkpt>
      <trkpt lat="43.80776" lon="7.25111">
        <ele>760.79998779297</ele>
        <time>2022-01-13T13:36:27.000Z</time>
      </trkpt>
      <trkpt lat="43.80775" lon="7.25111">
        <ele>761.20001220703</ele>
        <time>2022-01-13T13:36:40.000Z</time>
      </trkpt>
      <trkpt lat="43.80775" lon="7.25111">
        <ele>761</ele>
        <time>2022-01-13T13:36:48.000Z</time>
      </trkpt>
      <trkpt lat="43.80778" lon="7.2511">
        <ele>760.59997558594</ele>
        <time>2022-01-13T13:37:05.000Z</time>
      </trkpt>
      <trkpt lat="43.80776" lon="7.25113">
        <ele>760</ele>
        <time>2022-01-13T13:37:11.000Z</time>
      </trkpt>
      <trkpt lat="43.80772" lon="7.25117">
        <ele>760</ele>
        <time>2022-01-13T13:37:17.000Z</time>
      </trkpt>
      <trkpt lat="43.8076" lon="7.2512">
        <ele>759.40002441406</ele>
        <time>2022-01-13T13:37:21.000Z</time>
      </trkpt>
      <trkpt lat="43.80751" lon="7.2512">
        <ele>758.79998779297</ele>
        <time>2022-01-13T13:37:23.000Z</time>
      </trkpt>
      <trkpt lat="43.80742" lon="7.25118">
        <ele>757.79998779297</ele>
        <time>2022-01-13T13:37:25.000Z</time>
      </trkpt>
      <trkpt lat="43.80737" lon="7.25117">
        <ele>757.20001220703</ele>
        <time>2022-01-13T13:37:26.000Z</time>
      </trkpt>
      <trkpt lat="43.80731" lon="7.25116">
        <ele>756.59997558594</ele>
        <time>2022-01-13T13:37:27.000Z</time>
      </trkpt>
      <trkpt lat="43.80719" lon="7.25112">
        <ele>755.40002441406</ele>
        <time>2022-01-13T13:37:29.000Z</time>
      </trkpt>
      <trkpt lat="43.80707" lon="7.25109">
        <ele>754.40002441406</ele>
        <time>2022-01-13T13:37:31.000Z</time>
      </trkpt>
      <trkpt lat="43.80701" lon="7.25108">
        <ele>754.20001220703</ele>
        <time>2022-01-13T13:37:32.000Z</time>
      </trkpt>
      <trkpt lat="43.80696" lon="7.25105">
        <ele>753.59997558594</ele>
        <time>2022-01-13T13:37:33.000Z</time>
      </trkpt>
      <trkpt lat="43.80692" lon="7.25104">
        <ele>753.20001220703</ele>
        <time>2022-01-13T13:37:34.000Z</time>
      </trkpt>
      <trkpt lat="43.80689" lon="7.25105">
        <ele>752.79998779297</ele>
        <time>2022-01-13T13:37:35.000Z</time>
      </trkpt>
      <trkpt lat="43.8068" lon="7.25108">
        <ele>751.59997558594</ele>
        <time>2022-01-13T13:37:37.000Z</time>
      </trkpt>
      <trkpt lat="43.80675" lon="7.25108">
        <ele>751.20001220703</ele>
        <time>2022-01-13T13:37:38.000Z</time>
      </trkpt>
      <trkpt lat="43.80664" lon="7.25108">
        <ele>750.40002441406</ele>
        <time>2022-01-13T13:37:40.000Z</time>
      </trkpt>
      <trkpt lat="43.80653" lon="7.25107">
        <ele>749.59997558594</ele>
        <time>2022-01-13T13:37:43.000Z</time>
      </trkpt>
      <trkpt lat="43.80641" lon="7.25111">
        <ele>751</ele>
        <time>2022-01-13T13:37:48.000Z</time>
      </trkpt>
      <trkpt lat="43.80638" lon="7.25111">
        <ele>751.40002441406</ele>
        <time>2022-01-13T13:37:50.000Z</time>
      </trkpt>
      <trkpt lat="43.80633" lon="7.25115">
        <ele>751.79998779297</ele>
        <time>2022-01-13T13:37:52.000Z</time>
      </trkpt>
      <trkpt lat="43.80627" lon="7.25118">
        <ele>752.40002441406</ele>
        <time>2022-01-13T13:37:54.000Z</time>
      </trkpt>
      <trkpt lat="43.80618" lon="7.2512">
        <ele>752.79998779297</ele>
        <time>2022-01-13T13:37:56.000Z</time>
      </trkpt>
      <trkpt lat="43.80593" lon="7.25125">
        <ele>751.40002441406</ele>
        <time>2022-01-13T13:38:01.000Z</time>
      </trkpt>
      <trkpt lat="43.80573" lon="7.25126">
        <ele>750.59997558594</ele>
        <time>2022-01-13T13:38:05.000Z</time>
      </trkpt>
      <trkpt lat="43.80562" lon="7.25127">
        <ele>750.20001220703</ele>
        <time>2022-01-13T13:38:07.000Z</time>
      </trkpt>
      <trkpt lat="43.80551" lon="7.25128">
        <ele>749.59997558594</ele>
        <time>2022-01-13T13:38:09.000Z</time>
      </trkpt>
      <trkpt lat="43.80545" lon="7.25128">
        <ele>749.20001220703</ele>
        <time>2022-01-13T13:38:10.000Z</time>
      </trkpt>
      <trkpt lat="43.80532" lon="7.25128">
        <ele>748</ele>
        <time>2022-01-13T13:38:12.000Z</time>
      </trkpt>
      <trkpt lat="43.80526" lon="7.25129">
        <ele>747.40002441406</ele>
        <time>2022-01-13T13:38:13.000Z</time>
      </trkpt>
      <trkpt lat="43.80522" lon="7.25131">
        <ele>746.59997558594</ele>
        <time>2022-01-13T13:38:14.000Z</time>
      </trkpt>
      <trkpt lat="43.80514" lon="7.25134">
        <ele>745.79998779297</ele>
        <time>2022-01-13T13:38:16.000Z</time>
      </trkpt>
      <trkpt lat="43.80511" lon="7.25136">
        <ele>745.59997558594</ele>
        <time>2022-01-13T13:38:17.000Z</time>
      </trkpt>
      <trkpt lat="43.80503" lon="7.25138">
        <ele>746.40002441406</ele>
        <time>2022-01-13T13:38:19.000Z</time>
      </trkpt>
      <trkpt lat="43.80499" lon="7.25138">
        <ele>746.79998779297</ele>
        <time>2022-01-13T13:38:20.000Z</time>
      </trkpt>
      <trkpt lat="43.80494" lon="7.25139">
        <ele>747.20001220703</ele>
        <time>2022-01-13T13:38:21.000Z</time>
      </trkpt>
      <trkpt lat="43.80473" lon="7.25146">
        <ele>747.40002441406</ele>
        <time>2022-01-13T13:38:26.000Z</time>
      </trkpt>
      <trkpt lat="43.80465" lon="7.25151">
        <ele>747.20001220703</ele>
        <time>2022-01-13T13:38:28.000Z</time>
      </trkpt>
      <trkpt lat="43.80447" lon="7.25156">
        <ele>747.79998779297</ele>
        <time>2022-01-13T13:38:32.000Z</time>
      </trkpt>
      <trkpt lat="43.80443" lon="7.25158">
        <ele>747.79998779297</ele>
        <time>2022-01-13T13:38:33.000Z</time>
      </trkpt>
      <trkpt lat="43.80439" lon="7.25159">
        <ele>747.79998779297</ele>
        <time>2022-01-13T13:38:34.000Z</time>
      </trkpt>
      <trkpt lat="43.80424" lon="7.25164">
        <ele>747.79998779297</ele>
        <time>2022-01-13T13:38:37.000Z</time>
      </trkpt>
      <trkpt lat="43.80407" lon="7.2517">
        <ele>746.59997558594</ele>
        <time>2022-01-13T13:38:40.000Z</time>
      </trkpt>
      <trkpt lat="43.80393" lon="7.25175">
        <ele>745.59997558594</ele>
        <time>2022-01-13T13:38:42.000Z</time>
      </trkpt>
      <trkpt lat="43.80382" lon="7.25175">
        <ele>744</ele>
        <time>2022-01-13T13:38:44.000Z</time>
      </trkpt>
      <trkpt lat="43.80377" lon="7.25177">
        <ele>742.79998779297</ele>
        <time>2022-01-13T13:38:45.000Z</time>
      </trkpt>
      <trkpt lat="43.80371" lon="7.25178">
        <ele>742.20001220703</ele>
        <time>2022-01-13T13:38:46.000Z</time>
      </trkpt>
      <trkpt lat="43.80365" lon="7.25178">
        <ele>741.20001220703</ele>
        <time>2022-01-13T13:38:47.000Z</time>
      </trkpt>
      <trkpt lat="43.80358" lon="7.25179">
        <ele>740.59997558594</ele>
        <time>2022-01-13T13:38:48.000Z</time>
      </trkpt>
      <trkpt lat="43.80352" lon="7.25179">
        <ele>739.59997558594</ele>
        <time>2022-01-13T13:38:49.000Z</time>
      </trkpt>
      <trkpt lat="43.80336" lon="7.25178">
        <ele>738</ele>
        <time>2022-01-13T13:38:51.000Z</time>
      </trkpt>
      <trkpt lat="43.80328" lon="7.25177">
        <ele>736.40002441406</ele>
        <time>2022-01-13T13:38:52.000Z</time>
      </trkpt>
      <trkpt lat="43.80319" lon="7.25175">
        <ele>735.40002441406</ele>
        <time>2022-01-13T13:38:53.000Z</time>
      </trkpt>
      <trkpt lat="43.80311" lon="7.25173">
        <ele>734.20001220703</ele>
        <time>2022-01-13T13:38:54.000Z</time>
      </trkpt>
      <trkpt lat="43.80296" lon="7.25164">
        <ele>732.20001220703</ele>
        <time>2022-01-13T13:38:56.000Z</time>
      </trkpt>
      <trkpt lat="43.80275" lon="7.2515">
        <ele>731</ele>
        <time>2022-01-13T13:38:59.000Z</time>
      </trkpt>
      <trkpt lat="43.80266" lon="7.2514">
        <ele>730.79998779297</ele>
        <time>2022-01-13T13:39:01.000Z</time>
      </trkpt>
      <trkpt lat="43.80263" lon="7.25132">
        <ele>731.79998779297</ele>
        <time>2022-01-13T13:39:04.000Z</time>
      </trkpt>
      <trkpt lat="43.80261" lon="7.2513">
        <ele>732.20001220703</ele>
        <time>2022-01-13T13:39:05.000Z</time>
      </trkpt>
      <trkpt lat="43.80256" lon="7.25125">
        <ele>733.79998779297</ele>
        <time>2022-01-13T13:39:07.000Z</time>
      </trkpt>
      <trkpt lat="43.80252" lon="7.25121">
        <ele>734.40002441406</ele>
        <time>2022-01-13T13:39:08.000Z</time>
      </trkpt>
      <trkpt lat="43.8023" lon="7.25096">
        <ele>733.79998779297</ele>
        <time>2022-01-13T13:39:13.000Z</time>
      </trkpt>
      <trkpt lat="43.80227" lon="7.25091">
        <ele>733.59997558594</ele>
        <time>2022-01-13T13:39:14.000Z</time>
      </trkpt>
      <trkpt lat="43.80215" lon="7.25072">
        <ele>733.20001220703</ele>
        <time>2022-01-13T13:39:17.000Z</time>
      </trkpt>
      <trkpt lat="43.8021" lon="7.25059">
        <ele>733.20001220703</ele>
        <time>2022-01-13T13:39:19.000Z</time>
      </trkpt>
      <trkpt lat="43.80201" lon="7.25033">
        <ele>734</ele>
        <time>2022-01-13T13:39:23.000Z</time>
      </trkpt>
      <trkpt lat="43.80199" lon="7.25029">
        <ele>734</ele>
        <time>2022-01-13T13:39:24.000Z</time>
      </trkpt>
      <trkpt lat="43.80191" lon="7.25021">
        <ele>733</ele>
        <time>2022-01-13T13:39:27.000Z</time>
      </trkpt>
      <trkpt lat="43.80188" lon="7.25016">
        <ele>732.59997558594</ele>
        <time>2022-01-13T13:39:28.000Z</time>
      </trkpt>
      <trkpt lat="43.80178" lon="7.25004">
        <ele>730.40002441406</ele>
        <time>2022-01-13T13:39:30.000Z</time>
      </trkpt>
      <trkpt lat="43.80173" lon="7.24998">
        <ele>729.20001220703</ele>
        <time>2022-01-13T13:39:31.000Z</time>
      </trkpt>
      <trkpt lat="43.80169" lon="7.24994">
        <ele>728</ele>
        <time>2022-01-13T13:39:32.000Z</time>
      </trkpt>
      <trkpt lat="43.80165" lon="7.24989">
        <ele>726.79998779297</ele>
        <time>2022-01-13T13:39:33.000Z</time>
      </trkpt>
      <trkpt lat="43.8016" lon="7.24983">
        <ele>725.20001220703</ele>
        <time>2022-01-13T13:39:35.000Z</time>
      </trkpt>
      <trkpt lat="43.80155" lon="7.2498">
        <ele>724</ele>
        <time>2022-01-13T13:39:37.000Z</time>
      </trkpt>
      <trkpt lat="43.80147" lon="7.24982">
        <ele>723</ele>
        <time>2022-01-13T13:39:39.000Z</time>
      </trkpt>
      <trkpt lat="43.80142" lon="7.24983">
        <ele>722.40002441406</ele>
        <time>2022-01-13T13:39:40.000Z</time>
      </trkpt>
      <trkpt lat="43.80138" lon="7.24984">
        <ele>721.59997558594</ele>
        <time>2022-01-13T13:39:41.000Z</time>
      </trkpt>
      <trkpt lat="43.80124" lon="7.24977">
        <ele>720.20001220703</ele>
        <time>2022-01-13T13:39:44.000Z</time>
      </trkpt>
      <trkpt lat="43.80115" lon="7.24962">
        <ele>719.79998779297</ele>
        <time>2022-01-13T13:39:47.000Z</time>
      </trkpt>
      <trkpt lat="43.80106" lon="7.24944">
        <ele>719.40002441406</ele>
        <time>2022-01-13T13:39:50.000Z</time>
      </trkpt>
      <trkpt lat="43.80099" lon="7.24931">
        <ele>719.20001220703</ele>
        <time>2022-01-13T13:39:52.000Z</time>
      </trkpt>
      <trkpt lat="43.80096" lon="7.24927">
        <ele>719</ele>
        <time>2022-01-13T13:39:53.000Z</time>
      </trkpt>
      <trkpt lat="43.80091" lon="7.24922">
        <ele>719</ele>
        <time>2022-01-13T13:39:54.000Z</time>
      </trkpt>
      <trkpt lat="43.80087" lon="7.24911">
        <ele>718.40002441406</ele>
        <time>2022-01-13T13:39:56.000Z</time>
      </trkpt>
      <trkpt lat="43.80078" lon="7.24885">
        <ele>718.20001220703</ele>
        <time>2022-01-13T13:40:00.000Z</time>
      </trkpt>
      <trkpt lat="43.80076" lon="7.24876">
        <ele>718</ele>
        <time>2022-01-13T13:40:01.000Z</time>
      </trkpt>
      <trkpt lat="43.80073" lon="7.24868">
        <ele>717.20001220703</ele>
        <time>2022-01-13T13:40:02.000Z</time>
      </trkpt>
      <trkpt lat="43.80072" lon="7.24861">
        <ele>716.59997558594</ele>
        <time>2022-01-13T13:40:03.000Z</time>
      </trkpt>
      <trkpt lat="43.80071" lon="7.2485">
        <ele>715.59997558594</ele>
        <time>2022-01-13T13:40:04.000Z</time>
      </trkpt>
      <trkpt lat="43.80071" lon="7.24843">
        <ele>714.79998779297</ele>
        <time>2022-01-13T13:40:05.000Z</time>
      </trkpt>
      <trkpt lat="43.80074" lon="7.24829">
        <ele>713.79998779297</ele>
        <time>2022-01-13T13:40:07.000Z</time>
      </trkpt>
      <trkpt lat="43.80074" lon="7.24805">
        <ele>713.40002441406</ele>
        <time>2022-01-13T13:40:11.000Z</time>
      </trkpt>
      <trkpt lat="43.80071" lon="7.2479">
        <ele>713</ele>
        <time>2022-01-13T13:40:13.000Z</time>
      </trkpt>
      <trkpt lat="43.8007" lon="7.24783">
        <ele>712.40002441406</ele>
        <time>2022-01-13T13:40:14.000Z</time>
      </trkpt>
      <trkpt lat="43.80068" lon="7.24773">
        <ele>711.59997558594</ele>
        <time>2022-01-13T13:40:15.000Z</time>
      </trkpt>
      <trkpt lat="43.80068" lon="7.24765">
        <ele>710.79998779297</ele>
        <time>2022-01-13T13:40:16.000Z</time>
      </trkpt>
      <trkpt lat="43.80067" lon="7.2476">
        <ele>709.59997558594</ele>
        <time>2022-01-13T13:40:17.000Z</time>
      </trkpt>
      <trkpt lat="43.80064" lon="7.24755">
        <ele>708.59997558594</ele>
        <time>2022-01-13T13:40:18.000Z</time>
      </trkpt>
      <trkpt lat="43.80063" lon="7.24749">
        <ele>707.79998779297</ele>
        <time>2022-01-13T13:40:19.000Z</time>
      </trkpt>
      <trkpt lat="43.8006" lon="7.24734">
        <ele>707.20001220703</ele>
        <time>2022-01-13T13:40:21.000Z</time>
      </trkpt>
      <trkpt lat="43.80058" lon="7.24726">
        <ele>706.59997558594</ele>
        <time>2022-01-13T13:40:22.000Z</time>
      </trkpt>
      <trkpt lat="43.80053" lon="7.24713">
        <ele>704.79998779297</ele>
        <time>2022-01-13T13:40:24.000Z</time>
      </trkpt>
      <trkpt lat="43.80049" lon="7.24707">
        <ele>703.79998779297</ele>
        <time>2022-01-13T13:40:25.000Z</time>
      </trkpt>
      <trkpt lat="43.80045" lon="7.247">
        <ele>702.40002441406</ele>
        <time>2022-01-13T13:40:26.000Z</time>
      </trkpt>
      <trkpt lat="43.80042" lon="7.24693">
        <ele>701.20001220703</ele>
        <time>2022-01-13T13:40:27.000Z</time>
      </trkpt>
      <trkpt lat="43.80041" lon="7.24685">
        <ele>699.59997558594</ele>
        <time>2022-01-13T13:40:28.000Z</time>
      </trkpt>
      <trkpt lat="43.8004" lon="7.2468">
        <ele>698.59997558594</ele>
        <time>2022-01-13T13:40:29.000Z</time>
      </trkpt>
      <trkpt lat="43.80035" lon="7.24673">
        <ele>697.20001220703</ele>
        <time>2022-01-13T13:40:31.000Z</time>
      </trkpt>
      <trkpt lat="43.80032" lon="7.24673">
        <ele>697.20001220703</ele>
        <time>2022-01-13T13:40:32.000Z</time>
      </trkpt>
      <trkpt lat="43.80024" lon="7.24681">
        <ele>697.59997558594</ele>
        <time>2022-01-13T13:40:35.000Z</time>
      </trkpt>
      <trkpt lat="43.80016" lon="7.24679">
        <ele>698.20001220703</ele>
        <time>2022-01-13T13:40:38.000Z</time>
      </trkpt>
      <trkpt lat="43.80015" lon="7.24678">
        <ele>698.40002441406</ele>
        <time>2022-01-13T13:40:39.000Z</time>
      </trkpt>
      <trkpt lat="43.80011" lon="7.24677">
        <ele>699.20001220703</ele>
        <time>2022-01-13T13:40:41.000Z</time>
      </trkpt>
      <trkpt lat="43.80006" lon="7.2468">
        <ele>700</ele>
        <time>2022-01-13T13:40:43.000Z</time>
      </trkpt>
      <trkpt lat="43.80003" lon="7.24681">
        <ele>700.40002441406</ele>
        <time>2022-01-13T13:40:44.000Z</time>
      </trkpt>
      <trkpt lat="43.79997" lon="7.24685">
        <ele>702</ele>
        <time>2022-01-13T13:40:47.000Z</time>
      </trkpt>
      <trkpt lat="43.79992" lon="7.24686">
        <ele>702.79998779297</ele>
        <time>2022-01-13T13:40:49.000Z</time>
      </trkpt>
      <trkpt lat="43.7999" lon="7.24686">
        <ele>703.20001220703</ele>
        <time>2022-01-13T13:40:50.000Z</time>
      </trkpt>
      <trkpt lat="43.79981" lon="7.24685">
        <ele>704.40002441406</ele>
        <time>2022-01-13T13:40:54.000Z</time>
      </trkpt>
      <trkpt lat="43.79967" lon="7.24687">
        <ele>705</ele>
        <time>2022-01-13T13:40:59.000Z</time>
      </trkpt>
      <trkpt lat="43.79961" lon="7.24689">
        <ele>705.40002441406</ele>
        <time>2022-01-13T13:41:01.000Z</time>
      </trkpt>
      <trkpt lat="43.79953" lon="7.24692">
        <ele>706.59997558594</ele>
        <time>2022-01-13T13:41:04.000Z</time>
      </trkpt>
      <trkpt lat="43.79942" lon="7.24695">
        <ele>707.59997558594</ele>
        <time>2022-01-13T13:41:08.000Z</time>
      </trkpt>
      <trkpt lat="43.7994" lon="7.24696">
        <ele>708</ele>
        <time>2022-01-13T13:41:09.000Z</time>
      </trkpt>
      <trkpt lat="43.79935" lon="7.24697">
        <ele>708.79998779297</ele>
        <time>2022-01-13T13:41:11.000Z</time>
      </trkpt>
      <trkpt lat="43.79924" lon="7.24701">
        <ele>710.20001220703</ele>
        <time>2022-01-13T13:41:16.000Z</time>
      </trkpt>
      <trkpt lat="43.79916" lon="7.24704">
        <ele>711.20001220703</ele>
        <time>2022-01-13T13:41:20.000Z</time>
      </trkpt>
      <trkpt lat="43.79914" lon="7.24704">
        <ele>711.40002441406</ele>
        <time>2022-01-13T13:41:21.000Z</time>
      </trkpt>
      <trkpt lat="43.79908" lon="7.24706">
        <ele>712.40002441406</ele>
        <time>2022-01-13T13:41:24.000Z</time>
      </trkpt>
      <trkpt lat="43.79905" lon="7.24706">
        <ele>713</ele>
        <time>2022-01-13T13:41:26.000Z</time>
      </trkpt>
      <trkpt lat="43.79901" lon="7.24708">
        <ele>713.40002441406</ele>
        <time>2022-01-13T13:41:28.000Z</time>
      </trkpt>
      <trkpt lat="43.79892" lon="7.24711">
        <ele>714</ele>
        <time>2022-01-13T13:41:32.000Z</time>
      </trkpt>
      <trkpt lat="43.79888" lon="7.24712">
        <ele>714.40002441406</ele>
        <time>2022-01-13T13:41:34.000Z</time>
      </trkpt>
      <trkpt lat="43.79882" lon="7.24713">
        <ele>715.20001220703</ele>
        <time>2022-01-13T13:41:37.000Z</time>
      </trkpt>
      <trkpt lat="43.7988" lon="7.24714">
        <ele>715.40002441406</ele>
        <time>2022-01-13T13:41:38.000Z</time>
      </trkpt>
      <trkpt lat="43.79873" lon="7.24717">
        <ele>716.59997558594</ele>
        <time>2022-01-13T13:41:42.000Z</time>
      </trkpt>
      <trkpt lat="43.79864" lon="7.24721">
        <ele>717.79998779297</ele>
        <time>2022-01-13T13:41:47.000Z</time>
      </trkpt>
      <trkpt lat="43.79861" lon="7.24722">
        <ele>717.79998779297</ele>
        <time>2022-01-13T13:41:48.000Z</time>
      </trkpt>
      <trkpt lat="43.79851" lon="7.2473">
        <ele>718.59997558594</ele>
        <time>2022-01-13T13:41:53.000Z</time>
      </trkpt>
      <trkpt lat="43.79848" lon="7.24731">
        <ele>718.79998779297</ele>
        <time>2022-01-13T13:41:54.000Z</time>
      </trkpt>
      <trkpt lat="43.79838" lon="7.2474">
        <ele>719.59997558594</ele>
        <time>2022-01-13T13:41:59.000Z</time>
      </trkpt>
      <trkpt lat="43.79835" lon="7.24742">
        <ele>720.20001220703</ele>
        <time>2022-01-13T13:42:00.000Z</time>
      </trkpt>
      <trkpt lat="43.79826" lon="7.24749">
        <ele>721.40002441406</ele>
        <time>2022-01-13T13:42:05.000Z</time>
      </trkpt>
      <trkpt lat="43.79824" lon="7.2475">
        <ele>721.59997558594</ele>
        <time>2022-01-13T13:42:06.000Z</time>
      </trkpt>
      <trkpt lat="43.79819" lon="7.24756">
        <ele>722.59997558594</ele>
        <time>2022-01-13T13:42:09.000Z</time>
      </trkpt>
      <trkpt lat="43.79814" lon="7.24757">
        <ele>723.20001220703</ele>
        <time>2022-01-13T13:42:11.000Z</time>
      </trkpt>
      <trkpt lat="43.79809" lon="7.24757">
        <ele>724</ele>
        <time>2022-01-13T13:42:13.000Z</time>
      </trkpt>
      <trkpt lat="43.79804" lon="7.2476">
        <ele>725.20001220703</ele>
        <time>2022-01-13T13:42:16.000Z</time>
      </trkpt>
      <trkpt lat="43.79801" lon="7.24762">
        <ele>725.20001220703</ele>
        <time>2022-01-13T13:42:18.000Z</time>
      </trkpt>
      <trkpt lat="43.79785" lon="7.24775">
        <ele>725.40002441406</ele>
        <time>2022-01-13T13:42:26.000Z</time>
      </trkpt>
      <trkpt lat="43.79766" lon="7.24787">
        <ele>725</ele>
        <time>2022-01-13T13:42:34.000Z</time>
      </trkpt>
      <trkpt lat="43.79746" lon="7.24798">
        <ele>724</ele>
        <time>2022-01-13T13:42:40.000Z</time>
      </trkpt>
      <trkpt lat="43.79736" lon="7.24804">
        <ele>722.79998779297</ele>
        <time>2022-01-13T13:42:43.000Z</time>
      </trkpt>
      <trkpt lat="43.79726" lon="7.24811">
        <ele>721.59997558594</ele>
        <time>2022-01-13T13:42:46.000Z</time>
      </trkpt>
      <trkpt lat="43.79722" lon="7.24813">
        <ele>721</ele>
        <time>2022-01-13T13:42:47.000Z</time>
      </trkpt>
      <trkpt lat="43.79719" lon="7.24816">
        <ele>720.40002441406</ele>
        <time>2022-01-13T13:42:48.000Z</time>
      </trkpt>
      <trkpt lat="43.79705" lon="7.24832">
        <ele>719.20001220703</ele>
        <time>2022-01-13T13:42:52.000Z</time>
      </trkpt>
      <trkpt lat="43.79701" lon="7.24835">
        <ele>718.79998779297</ele>
        <time>2022-01-13T13:42:53.000Z</time>
      </trkpt>
      <trkpt lat="43.7969" lon="7.24848">
        <ele>717.59997558594</ele>
        <time>2022-01-13T13:42:56.000Z</time>
      </trkpt>
      <trkpt lat="43.79679" lon="7.24862">
        <ele>716.40002441406</ele>
        <time>2022-01-13T13:42:59.000Z</time>
      </trkpt>
      <trkpt lat="43.79676" lon="7.24867">
        <ele>715.79998779297</ele>
        <time>2022-01-13T13:43:00.000Z</time>
      </trkpt>
      <trkpt lat="43.79671" lon="7.24872">
        <ele>715.20001220703</ele>
        <time>2022-01-13T13:43:01.000Z</time>
      </trkpt>
      <trkpt lat="43.79662" lon="7.24881">
        <ele>713.79998779297</ele>
        <time>2022-01-13T13:43:03.000Z</time>
      </trkpt>
      <trkpt lat="43.79653" lon="7.2489">
        <ele>712.79998779297</ele>
        <time>2022-01-13T13:43:05.000Z</time>
      </trkpt>
      <trkpt lat="43.79649" lon="7.24895">
        <ele>712.20001220703</ele>
        <time>2022-01-13T13:43:06.000Z</time>
      </trkpt>
      <trkpt lat="43.79644" lon="7.24899">
        <ele>711.59997558594</ele>
        <time>2022-01-13T13:43:07.000Z</time>
      </trkpt>
      <trkpt lat="43.7964" lon="7.24902">
        <ele>711.20001220703</ele>
        <time>2022-01-13T13:43:08.000Z</time>
      </trkpt>
      <trkpt lat="43.79636" lon="7.24904">
        <ele>710.20001220703</ele>
        <time>2022-01-13T13:43:09.000Z</time>
      </trkpt>
      <trkpt lat="43.79627" lon="7.24907">
        <ele>708.79998779297</ele>
        <time>2022-01-13T13:43:11.000Z</time>
      </trkpt>
      <trkpt lat="43.79618" lon="7.24908">
        <ele>707.40002441406</ele>
        <time>2022-01-13T13:43:13.000Z</time>
      </trkpt>
      <trkpt lat="43.79609" lon="7.2491">
        <ele>706.20001220703</ele>
        <time>2022-01-13T13:43:15.000Z</time>
      </trkpt>
      <trkpt lat="43.796" lon="7.24911">
        <ele>705</ele>
        <time>2022-01-13T13:43:17.000Z</time>
      </trkpt>
      <trkpt lat="43.79596" lon="7.24911">
        <ele>705</ele>
        <time>2022-01-13T13:43:18.000Z</time>
      </trkpt>
      <trkpt lat="43.79588" lon="7.24912">
        <ele>704</ele>
        <time>2022-01-13T13:43:20.000Z</time>
      </trkpt>
      <trkpt lat="43.79578" lon="7.24912">
        <ele>703</ele>
        <time>2022-01-13T13:43:22.000Z</time>
      </trkpt>
      <trkpt lat="43.79574" lon="7.24911">
        <ele>702.40002441406</ele>
        <time>2022-01-13T13:43:23.000Z</time>
      </trkpt>
      <trkpt lat="43.79564" lon="7.2491">
        <ele>701.20001220703</ele>
        <time>2022-01-13T13:43:25.000Z</time>
      </trkpt>
      <trkpt lat="43.79558" lon="7.24909">
        <ele>700.59997558594</ele>
        <time>2022-01-13T13:43:26.000Z</time>
      </trkpt>
      <trkpt lat="43.79553" lon="7.24909">
        <ele>700.20001220703</ele>
        <time>2022-01-13T13:43:27.000Z</time>
      </trkpt>
      <trkpt lat="43.79528" lon="7.24908">
        <ele>699.59997558594</ele>
        <time>2022-01-13T13:43:32.000Z</time>
      </trkpt>
      <trkpt lat="43.79514" lon="7.24905">
        <ele>699.20001220703</ele>
        <time>2022-01-13T13:43:35.000Z</time>
      </trkpt>
      <trkpt lat="43.79509" lon="7.24905">
        <ele>699</ele>
        <time>2022-01-13T13:43:36.000Z</time>
      </trkpt>
      <trkpt lat="43.79498" lon="7.24903">
        <ele>698.79998779297</ele>
        <time>2022-01-13T13:43:38.000Z</time>
      </trkpt>
      <trkpt lat="43.79482" lon="7.24897">
        <ele>698</ele>
        <time>2022-01-13T13:43:41.000Z</time>
      </trkpt>
      <trkpt lat="43.79465" lon="7.2489">
        <ele>697</ele>
        <time>2022-01-13T13:43:44.000Z</time>
      </trkpt>
      <trkpt lat="43.79454" lon="7.24885">
        <ele>696.40002441406</ele>
        <time>2022-01-13T13:43:46.000Z</time>
      </trkpt>
      <trkpt lat="43.79442" lon="7.24879">
        <ele>695.79998779297</ele>
        <time>2022-01-13T13:43:48.000Z</time>
      </trkpt>
      <trkpt lat="43.79421" lon="7.24866">
        <ele>694.79998779297</ele>
        <time>2022-01-13T13:43:52.000Z</time>
      </trkpt>
      <trkpt lat="43.79411" lon="7.2486">
        <ele>694.40002441406</ele>
        <time>2022-01-13T13:43:54.000Z</time>
      </trkpt>
      <trkpt lat="43.79391" lon="7.2485">
        <ele>694.40002441406</ele>
        <time>2022-01-13T13:43:59.000Z</time>
      </trkpt>
      <trkpt lat="43.7937" lon="7.24842">
        <ele>694.79998779297</ele>
        <time>2022-01-13T13:44:07.000Z</time>
      </trkpt>
      <trkpt lat="43.79361" lon="7.2484">
        <ele>695.20001220703</ele>
        <time>2022-01-13T13:44:12.000Z</time>
      </trkpt>
      <trkpt lat="43.7936" lon="7.24839">
        <ele>695.40002441406</ele>
        <time>2022-01-13T13:44:13.000Z</time>
      </trkpt>
      <trkpt lat="43.79357" lon="7.24837">
        <ele>695.59997558594</ele>
        <time>2022-01-13T13:44:18.000Z</time>
      </trkpt>
      <trkpt lat="43.79357" lon="7.24837">
        <ele>695.79998779297</ele>
        <time>2022-01-13T13:44:19.000Z</time>
      </trkpt>
      <trkpt lat="43.79356" lon="7.24837">
        <ele>695.79998779297</ele>
        <time>2022-01-13T13:44:32.000Z</time>
      </trkpt>
      <trkpt lat="43.79349" lon="7.24838">
        <ele>695.59997558594</ele>
        <time>2022-01-13T13:44:36.000Z</time>
      </trkpt>
      <trkpt lat="43.79347" lon="7.24837">
        <ele>694.59997558594</ele>
        <time>2022-01-13T13:44:40.000Z</time>
      </trkpt>
      <trkpt lat="43.79347" lon="7.24837">
        <ele>693.40002441406</ele>
        <time>2022-01-13T13:44:43.000Z</time>
      </trkpt>
      <trkpt lat="43.79346" lon="7.24838">
        <ele>693.20001220703</ele>
        <time>2022-01-13T13:44:48.000Z</time>
      </trkpt>
      <trkpt lat="43.79343" lon="7.24839">
        <ele>693.40002441406</ele>
        <time>2022-01-13T13:44:49.000Z</time>
      </trkpt>
      <trkpt lat="43.79337" lon="7.24839">
        <ele>693.59997558594</ele>
        <time>2022-01-13T13:44:51.000Z</time>
      </trkpt>
      <trkpt lat="43.79333" lon="7.24837">
        <ele>693.40002441406</ele>
        <time>2022-01-13T13:44:52.000Z</time>
      </trkpt>
      <trkpt lat="43.7933" lon="7.24831">
        <ele>692.40002441406</ele>
        <time>2022-01-13T13:44:54.000Z</time>
      </trkpt>
      <trkpt lat="43.79329" lon="7.24831">
        <ele>691.79998779297</ele>
        <time>2022-01-13T13:44:55.000Z</time>
      </trkpt>
      <trkpt lat="43.79324" lon="7.2483">
        <ele>691.40002441406</ele>
        <time>2022-01-13T13:44:57.000Z</time>
      </trkpt>
      <trkpt lat="43.79304" lon="7.24818">
        <ele>691.20001220703</ele>
        <time>2022-01-13T13:45:02.000Z</time>
      </trkpt>
      <trkpt lat="43.793" lon="7.24813">
        <ele>690.79998779297</ele>
        <time>2022-01-13T13:45:03.000Z</time>
      </trkpt>
      <trkpt lat="43.79297" lon="7.24807">
        <ele>690.40002441406</ele>
        <time>2022-01-13T13:45:04.000Z</time>
      </trkpt>
      <trkpt lat="43.79292" lon="7.24796">
        <ele>689.59997558594</ele>
        <time>2022-01-13T13:45:06.000Z</time>
      </trkpt>
      <trkpt lat="43.79288" lon="7.24793">
        <ele>689.20001220703</ele>
        <time>2022-01-13T13:45:07.000Z</time>
      </trkpt>
      <trkpt lat="43.79282" lon="7.24789">
        <ele>689</ele>
        <time>2022-01-13T13:45:09.000Z</time>
      </trkpt>
      <trkpt lat="43.79274" lon="7.24787">
        <ele>688.20001220703</ele>
        <time>2022-01-13T13:45:11.000Z</time>
      </trkpt>
      <trkpt lat="43.79269" lon="7.24786">
        <ele>687.59997558594</ele>
        <time>2022-01-13T13:45:12.000Z</time>
      </trkpt>
      <trkpt lat="43.79264" lon="7.24785">
        <ele>687</ele>
        <time>2022-01-13T13:45:13.000Z</time>
      </trkpt>
      <trkpt lat="43.79258" lon="7.24784">
        <ele>686.59997558594</ele>
        <time>2022-01-13T13:45:14.000Z</time>
      </trkpt>
      <trkpt lat="43.79254" lon="7.24784">
        <ele>686</ele>
        <time>2022-01-13T13:45:15.000Z</time>
      </trkpt>
      <trkpt lat="43.79249" lon="7.24783">
        <ele>684.79998779297</ele>
        <time>2022-01-13T13:45:16.000Z</time>
      </trkpt>
      <trkpt lat="43.79237" lon="7.24781">
        <ele>682.79998779297</ele>
        <time>2022-01-13T13:45:18.000Z</time>
      </trkpt>
      <trkpt lat="43.79231" lon="7.24781">
        <ele>682.20001220703</ele>
        <time>2022-01-13T13:45:19.000Z</time>
      </trkpt>
      <trkpt lat="43.79225" lon="7.24779">
        <ele>681.40002441406</ele>
        <time>2022-01-13T13:45:20.000Z</time>
      </trkpt>
      <trkpt lat="43.79212" lon="7.24773">
        <ele>680</ele>
        <time>2022-01-13T13:45:22.000Z</time>
      </trkpt>
      <trkpt lat="43.79202" lon="7.24765">
        <ele>678.79998779297</ele>
        <time>2022-01-13T13:45:24.000Z</time>
      </trkpt>
      <trkpt lat="43.79194" lon="7.24758">
        <ele>677</ele>
        <time>2022-01-13T13:45:26.000Z</time>
      </trkpt>
      <trkpt lat="43.79191" lon="7.24755">
        <ele>675.79998779297</ele>
        <time>2022-01-13T13:45:27.000Z</time>
      </trkpt>
      <trkpt lat="43.79187" lon="7.24753">
        <ele>675.40002441406</ele>
        <time>2022-01-13T13:45:28.000Z</time>
      </trkpt>
      <trkpt lat="43.79184" lon="7.24752">
        <ele>674.40002441406</ele>
        <time>2022-01-13T13:45:29.000Z</time>
      </trkpt>
      <trkpt lat="43.79173" lon="7.2475">
        <ele>673.40002441406</ele>
        <time>2022-01-13T13:45:32.000Z</time>
      </trkpt>
      <trkpt lat="43.79161" lon="7.24749">
        <ele>671.79998779297</ele>
        <time>2022-01-13T13:45:36.000Z</time>
      </trkpt>
      <trkpt lat="43.79154" lon="7.24748">
        <ele>671.40002441406</ele>
        <time>2022-01-13T13:45:38.000Z</time>
      </trkpt>
      <trkpt lat="43.79145" lon="7.24749">
        <ele>670.40002441406</ele>
        <time>2022-01-13T13:45:41.000Z</time>
      </trkpt>
      <trkpt lat="43.79139" lon="7.2475">
        <ele>669.20001220703</ele>
        <time>2022-01-13T13:45:43.000Z</time>
      </trkpt>
      <trkpt lat="43.79133" lon="7.24752">
        <ele>667.79998779297</ele>
        <time>2022-01-13T13:45:45.000Z</time>
      </trkpt>
      <trkpt lat="43.79129" lon="7.24753">
        <ele>666.40002441406</ele>
        <time>2022-01-13T13:45:47.000Z</time>
      </trkpt>
      <trkpt lat="43.79123" lon="7.24753">
        <ele>666.20001220703</ele>
        <time>2022-01-13T13:45:48.000Z</time>
      </trkpt>
      <trkpt lat="43.79117" lon="7.24755">
        <ele>664.79998779297</ele>
        <time>2022-01-13T13:45:50.000Z</time>
      </trkpt>
      <trkpt lat="43.79111" lon="7.24757">
        <ele>663.59997558594</ele>
        <time>2022-01-13T13:45:51.000Z</time>
      </trkpt>
      <trkpt lat="43.79104" lon="7.24759">
        <ele>661.40002441406</ele>
        <time>2022-01-13T13:45:53.000Z</time>
      </trkpt>
      <trkpt lat="43.791" lon="7.24761">
        <ele>660.20001220703</ele>
        <time>2022-01-13T13:45:54.000Z</time>
      </trkpt>
      <trkpt lat="43.79092" lon="7.24765">
        <ele>658.79998779297</ele>
        <time>2022-01-13T13:45:56.000Z</time>
      </trkpt>
      <trkpt lat="43.79083" lon="7.24767">
        <ele>657.40002441406</ele>
        <time>2022-01-13T13:45:58.000Z</time>
      </trkpt>
      <trkpt lat="43.79077" lon="7.24768">
        <ele>657</ele>
        <time>2022-01-13T13:45:59.000Z</time>
      </trkpt>
      <trkpt lat="43.79072" lon="7.24768">
        <ele>656.20001220703</ele>
        <time>2022-01-13T13:46:00.000Z</time>
      </trkpt>
      <trkpt lat="43.79068" lon="7.24768">
        <ele>655</ele>
        <time>2022-01-13T13:46:01.000Z</time>
      </trkpt>
      <trkpt lat="43.79064" lon="7.24767">
        <ele>653.79998779297</ele>
        <time>2022-01-13T13:46:02.000Z</time>
      </trkpt>
      <trkpt lat="43.79056" lon="7.24767">
        <ele>652.40002441406</ele>
        <time>2022-01-13T13:46:04.000Z</time>
      </trkpt>
      <trkpt lat="43.79047" lon="7.2477">
        <ele>650.79998779297</ele>
        <time>2022-01-13T13:46:06.000Z</time>
      </trkpt>
      <trkpt lat="43.79038" lon="7.2477">
        <ele>649</ele>
        <time>2022-01-13T13:46:08.000Z</time>
      </trkpt>
      <trkpt lat="43.79034" lon="7.24773">
        <ele>647.59997558594</ele>
        <time>2022-01-13T13:46:09.000Z</time>
      </trkpt>
      <trkpt lat="43.79029" lon="7.24774">
        <ele>646.40002441406</ele>
        <time>2022-01-13T13:46:10.000Z</time>
      </trkpt>
      <trkpt lat="43.79019" lon="7.24775">
        <ele>645.40002441406</ele>
        <time>2022-01-13T13:46:12.000Z</time>
      </trkpt>
      <trkpt lat="43.79015" lon="7.24778">
        <ele>644.79998779297</ele>
        <time>2022-01-13T13:46:13.000Z</time>
      </trkpt>
      <trkpt lat="43.7901" lon="7.2478">
        <ele>643.79998779297</ele>
        <time>2022-01-13T13:46:14.000Z</time>
      </trkpt>
      <trkpt lat="43.79006" lon="7.24782">
        <ele>643.40002441406</ele>
        <time>2022-01-13T13:46:15.000Z</time>
      </trkpt>
      <trkpt lat="43.79001" lon="7.24783">
        <ele>642.59997558594</ele>
        <time>2022-01-13T13:46:16.000Z</time>
      </trkpt>
      <trkpt lat="43.78997" lon="7.24784">
        <ele>642</ele>
        <time>2022-01-13T13:46:17.000Z</time>
      </trkpt>
      <trkpt lat="43.78993" lon="7.24787">
        <ele>640.59997558594</ele>
        <time>2022-01-13T13:46:18.000Z</time>
      </trkpt>
      <trkpt lat="43.78988" lon="7.24786">
        <ele>639</ele>
        <time>2022-01-13T13:46:20.000Z</time>
      </trkpt>
      <trkpt lat="43.78985" lon="7.24784">
        <ele>638</ele>
        <time>2022-01-13T13:46:21.000Z</time>
      </trkpt>
      <trkpt lat="43.78981" lon="7.24784">
        <ele>637</ele>
        <time>2022-01-13T13:46:22.000Z</time>
      </trkpt>
      <trkpt lat="43.7897" lon="7.2479">
        <ele>635.40002441406</ele>
        <time>2022-01-13T13:46:24.000Z</time>
      </trkpt>
      <trkpt lat="43.78957" lon="7.24796">
        <ele>633.79998779297</ele>
        <time>2022-01-13T13:46:26.000Z</time>
      </trkpt>
      <trkpt lat="43.78953" lon="7.24799">
        <ele>632.79998779297</ele>
        <time>2022-01-13T13:46:27.000Z</time>
      </trkpt>
      <trkpt lat="43.78951" lon="7.24799">
        <ele>631.79998779297</ele>
        <time>2022-01-13T13:46:28.000Z</time>
      </trkpt>
      <trkpt lat="43.78951" lon="7.24799">
        <ele>631.20001220703</ele>
        <time>2022-01-13T13:46:29.000Z</time>
      </trkpt>
      <trkpt lat="43.78951" lon="7.24799">
        <ele>630.59997558594</ele>
        <time>2022-01-13T13:46:31.000Z</time>
      </trkpt>
      <trkpt lat="43.78948" lon="7.24798">
        <ele>631.20001220703</ele>
        <time>2022-01-13T13:46:39.000Z</time>
      </trkpt>
      <trkpt lat="43.78946" lon="7.24797">
        <ele>630.59997558594</ele>
        <time>2022-01-13T13:46:47.000Z</time>
      </trkpt>
      <trkpt lat="43.78946" lon="7.24796">
        <ele>629.79998779297</ele>
        <time>2022-01-13T13:46:49.000Z</time>
      </trkpt>
      <trkpt lat="43.78945" lon="7.24795">
        <ele>628.79998779297</ele>
        <time>2022-01-13T13:46:52.000Z</time>
      </trkpt>
      <trkpt lat="43.78939" lon="7.24785">
        <ele>628</ele>
        <time>2022-01-13T13:46:56.000Z</time>
      </trkpt>
      <trkpt lat="43.78936" lon="7.24782">
        <ele>627.59997558594</ele>
        <time>2022-01-13T13:46:57.000Z</time>
      </trkpt>
      <trkpt lat="43.78932" lon="7.24777">
        <ele>627.40002441406</ele>
        <time>2022-01-13T13:46:58.000Z</time>
      </trkpt>
      <trkpt lat="43.78928" lon="7.24772">
        <ele>626.20001220703</ele>
        <time>2022-01-13T13:46:59.000Z</time>
      </trkpt>
      <trkpt lat="43.78925" lon="7.24768">
        <ele>625.20001220703</ele>
        <time>2022-01-13T13:47:00.000Z</time>
      </trkpt>
      <trkpt lat="43.78921" lon="7.24763">
        <ele>624</ele>
        <time>2022-01-13T13:47:01.000Z</time>
      </trkpt>
      <trkpt lat="43.78917" lon="7.24756">
        <ele>623</ele>
        <time>2022-01-13T13:47:02.000Z</time>
      </trkpt>
      <trkpt lat="43.78913" lon="7.24745">
        <ele>621</ele>
        <time>2022-01-13T13:47:04.000Z</time>
      </trkpt>
      <trkpt lat="43.78912" lon="7.24737">
        <ele>619.20001220703</ele>
        <time>2022-01-13T13:47:05.000Z</time>
      </trkpt>
      <trkpt lat="43.7891" lon="7.24729">
        <ele>617.79998779297</ele>
        <time>2022-01-13T13:47:06.000Z</time>
      </trkpt>
      <trkpt lat="43.78909" lon="7.24722">
        <ele>616.20001220703</ele>
        <time>2022-01-13T13:47:07.000Z</time>
      </trkpt>
      <trkpt lat="43.78908" lon="7.24715">
        <ele>614.79998779297</ele>
        <time>2022-01-13T13:47:08.000Z</time>
      </trkpt>
      <trkpt lat="43.78906" lon="7.24707">
        <ele>613.59997558594</ele>
        <time>2022-01-13T13:47:09.000Z</time>
      </trkpt>
      <trkpt lat="43.78904" lon="7.247">
        <ele>612.79998779297</ele>
        <time>2022-01-13T13:47:10.000Z</time>
      </trkpt>
      <trkpt lat="43.78902" lon="7.24693">
        <ele>611.79998779297</ele>
        <time>2022-01-13T13:47:11.000Z</time>
      </trkpt>
      <trkpt lat="43.78898" lon="7.24686">
        <ele>610.40002441406</ele>
        <time>2022-01-13T13:47:12.000Z</time>
      </trkpt>
      <trkpt lat="43.78893" lon="7.2468">
        <ele>609</ele>
        <time>2022-01-13T13:47:13.000Z</time>
      </trkpt>
      <trkpt lat="43.78888" lon="7.24675">
        <ele>607.59997558594</ele>
        <time>2022-01-13T13:47:14.000Z</time>
      </trkpt>
      <trkpt lat="43.78881" lon="7.24669">
        <ele>605.59997558594</ele>
        <time>2022-01-13T13:47:16.000Z</time>
      </trkpt>
      <trkpt lat="43.7888" lon="7.24666">
        <ele>604.40002441406</ele>
        <time>2022-01-13T13:47:17.000Z</time>
      </trkpt>
      <trkpt lat="43.7888" lon="7.24662">
        <ele>603</ele>
        <time>2022-01-13T13:47:18.000Z</time>
      </trkpt>
      <trkpt lat="43.78884" lon="7.24659">
        <ele>600.79998779297</ele>
        <time>2022-01-13T13:47:20.000Z</time>
      </trkpt>
      <trkpt lat="43.78885" lon="7.24654">
        <ele>599.20001220703</ele>
        <time>2022-01-13T13:47:22.000Z</time>
      </trkpt>
      <trkpt lat="43.78882" lon="7.24653">
        <ele>597.79998779297</ele>
        <time>2022-01-13T13:47:24.000Z</time>
      </trkpt>
      <trkpt lat="43.78874" lon="7.24657">
        <ele>596.79998779297</ele>
        <time>2022-01-13T13:47:27.000Z</time>
      </trkpt>
      <trkpt lat="43.78871" lon="7.24657">
        <ele>596.59997558594</ele>
        <time>2022-01-13T13:47:28.000Z</time>
      </trkpt>
      <trkpt lat="43.78863" lon="7.24655">
        <ele>596.20001220703</ele>
        <time>2022-01-13T13:47:31.000Z</time>
      </trkpt>
      <trkpt lat="43.7886" lon="7.24653">
        <ele>595.59997558594</ele>
        <time>2022-01-13T13:47:33.000Z</time>
      </trkpt>
      <trkpt lat="43.7885" lon="7.24644">
        <ele>594.59997558594</ele>
        <time>2022-01-13T13:47:37.000Z</time>
      </trkpt>
      <trkpt lat="43.78847" lon="7.24641">
        <ele>594</ele>
        <time>2022-01-13T13:47:38.000Z</time>
      </trkpt>
      <trkpt lat="43.78844" lon="7.24639">
        <ele>593.59997558594</ele>
        <time>2022-01-13T13:47:39.000Z</time>
      </trkpt>
      <trkpt lat="43.78838" lon="7.24634">
        <ele>592.20001220703</ele>
        <time>2022-01-13T13:47:41.000Z</time>
      </trkpt>
      <trkpt lat="43.78833" lon="7.2463">
        <ele>591</ele>
        <time>2022-01-13T13:47:43.000Z</time>
      </trkpt>
      <trkpt lat="43.78827" lon="7.24625">
        <ele>590</ele>
        <time>2022-01-13T13:47:45.000Z</time>
      </trkpt>
      <trkpt lat="43.78824" lon="7.24621">
        <ele>589.79998779297</ele>
        <time>2022-01-13T13:47:46.000Z</time>
      </trkpt>
      <trkpt lat="43.78821" lon="7.24616">
        <ele>589.40002441406</ele>
        <time>2022-01-13T13:47:47.000Z</time>
      </trkpt>
      <trkpt lat="43.78816" lon="7.24606">
        <ele>588.59997558594</ele>
        <time>2022-01-13T13:47:49.000Z</time>
      </trkpt>
      <trkpt lat="43.78814" lon="7.24595">
        <ele>587.59997558594</ele>
        <time>2022-01-13T13:47:52.000Z</time>
      </trkpt>
      <trkpt lat="43.78815" lon="7.24592">
        <ele>587.40002441406</ele>
        <time>2022-01-13T13:47:53.000Z</time>
      </trkpt>
      <trkpt lat="43.78821" lon="7.24591">
        <ele>587.40002441406</ele>
        <time>2022-01-13T13:47:56.000Z</time>
      </trkpt>
      <trkpt lat="43.78827" lon="7.2459">
        <ele>587.59997558594</ele>
        <time>2022-01-13T13:47:59.000Z</time>
      </trkpt>
      <trkpt lat="43.78835" lon="7.24587">
        <ele>587.59997558594</ele>
        <time>2022-01-13T13:48:02.000Z</time>
      </trkpt>
      <trkpt lat="43.78842" lon="7.24579">
        <ele>587.20001220703</ele>
        <time>2022-01-13T13:48:05.000Z</time>
      </trkpt>
      <trkpt lat="43.78843" lon="7.24572">
        <ele>586.79998779297</ele>
        <time>2022-01-13T13:48:06.000Z</time>
      </trkpt>
      <trkpt lat="43.78843" lon="7.24566">
        <ele>586.40002441406</ele>
        <time>2022-01-13T13:48:07.000Z</time>
      </trkpt>
      <trkpt lat="43.78839" lon="7.24556">
        <ele>585.20001220703</ele>
        <time>2022-01-13T13:48:09.000Z</time>
      </trkpt>
      <trkpt lat="43.78835" lon="7.24553">
        <ele>584.79998779297</ele>
        <time>2022-01-13T13:48:10.000Z</time>
      </trkpt>
      <trkpt lat="43.78831" lon="7.24548">
        <ele>584</ele>
        <time>2022-01-13T13:48:11.000Z</time>
      </trkpt>
      <trkpt lat="43.78823" lon="7.2454">
        <ele>582.20001220703</ele>
        <time>2022-01-13T13:48:13.000Z</time>
      </trkpt>
      <trkpt lat="43.78819" lon="7.24536">
        <ele>581.20001220703</ele>
        <time>2022-01-13T13:48:14.000Z</time>
      </trkpt>
      <trkpt lat="43.78815" lon="7.24532">
        <ele>580</ele>
        <time>2022-01-13T13:48:15.000Z</time>
      </trkpt>
      <trkpt lat="43.7881" lon="7.24528">
        <ele>578.40002441406</ele>
        <time>2022-01-13T13:48:16.000Z</time>
      </trkpt>
      <trkpt lat="43.78805" lon="7.24524">
        <ele>576.79998779297</ele>
        <time>2022-01-13T13:48:17.000Z</time>
      </trkpt>
      <trkpt lat="43.788" lon="7.24521">
        <ele>575.40002441406</ele>
        <time>2022-01-13T13:48:18.000Z</time>
      </trkpt>
      <trkpt lat="43.78794" lon="7.24517">
        <ele>573.79998779297</ele>
        <time>2022-01-13T13:48:19.000Z</time>
      </trkpt>
      <trkpt lat="43.7879" lon="7.24515">
        <ele>572.40002441406</ele>
        <time>2022-01-13T13:48:20.000Z</time>
      </trkpt>
      <trkpt lat="43.78785" lon="7.24512">
        <ele>571.20001220703</ele>
        <time>2022-01-13T13:48:21.000Z</time>
      </trkpt>
      <trkpt lat="43.78777" lon="7.24505">
        <ele>569.40002441406</ele>
        <time>2022-01-13T13:48:23.000Z</time>
      </trkpt>
      <trkpt lat="43.78773" lon="7.24492">
        <ele>568.20001220703</ele>
        <time>2022-01-13T13:48:25.000Z</time>
      </trkpt>
      <trkpt lat="43.78772" lon="7.24484">
        <ele>567.59997558594</ele>
        <time>2022-01-13T13:48:26.000Z</time>
      </trkpt>
      <trkpt lat="43.7877" lon="7.24477">
        <ele>567</ele>
        <time>2022-01-13T13:48:27.000Z</time>
      </trkpt>
      <trkpt lat="43.78767" lon="7.24462">
        <ele>565.79998779297</ele>
        <time>2022-01-13T13:48:29.000Z</time>
      </trkpt>
      <trkpt lat="43.78762" lon="7.24446">
        <ele>564.79998779297</ele>
        <time>2022-01-13T13:48:31.000Z</time>
      </trkpt>
      <trkpt lat="43.78757" lon="7.2444">
        <ele>564.20001220703</ele>
        <time>2022-01-13T13:48:32.000Z</time>
      </trkpt>
      <trkpt lat="43.78752" lon="7.24434">
        <ele>563</ele>
        <time>2022-01-13T13:48:33.000Z</time>
      </trkpt>
      <trkpt lat="43.78746" lon="7.24427">
        <ele>562</ele>
        <time>2022-01-13T13:48:34.000Z</time>
      </trkpt>
      <trkpt lat="43.7874" lon="7.24421">
        <ele>560.79998779297</ele>
        <time>2022-01-13T13:48:35.000Z</time>
      </trkpt>
      <trkpt lat="43.78733" lon="7.24415">
        <ele>559.20001220703</ele>
        <time>2022-01-13T13:48:36.000Z</time>
      </trkpt>
      <trkpt lat="43.78726" lon="7.2441">
        <ele>558</ele>
        <time>2022-01-13T13:48:37.000Z</time>
      </trkpt>
      <trkpt lat="43.78719" lon="7.24406">
        <ele>556.40002441406</ele>
        <time>2022-01-13T13:48:38.000Z</time>
      </trkpt>
      <trkpt lat="43.78713" lon="7.24403">
        <ele>555</ele>
        <time>2022-01-13T13:48:39.000Z</time>
      </trkpt>
      <trkpt lat="43.78706" lon="7.24402">
        <ele>553.59997558594</ele>
        <time>2022-01-13T13:48:40.000Z</time>
      </trkpt>
      <trkpt lat="43.78699" lon="7.24402">
        <ele>552.20001220703</ele>
        <time>2022-01-13T13:48:41.000Z</time>
      </trkpt>
      <trkpt lat="43.78691" lon="7.24403">
        <ele>551</ele>
        <time>2022-01-13T13:48:42.000Z</time>
      </trkpt>
      <trkpt lat="43.78685" lon="7.24403">
        <ele>549.79998779297</ele>
        <time>2022-01-13T13:48:43.000Z</time>
      </trkpt>
      <trkpt lat="43.7868" lon="7.24404">
        <ele>548.59997558594</ele>
        <time>2022-01-13T13:48:44.000Z</time>
      </trkpt>
      <trkpt lat="43.78676" lon="7.24404">
        <ele>547.59997558594</ele>
        <time>2022-01-13T13:48:45.000Z</time>
      </trkpt>
      <trkpt lat="43.78669" lon="7.24405">
        <ele>546</ele>
        <time>2022-01-13T13:48:47.000Z</time>
      </trkpt>
      <trkpt lat="43.78667" lon="7.24405">
        <ele>545.40002441406</ele>
        <time>2022-01-13T13:48:48.000Z</time>
      </trkpt>
      <trkpt lat="43.78659" lon="7.24406">
        <ele>545</ele>
        <time>2022-01-13T13:48:50.000Z</time>
      </trkpt>
      <trkpt lat="43.78654" lon="7.24406">
        <ele>544.59997558594</ele>
        <time>2022-01-13T13:48:51.000Z</time>
      </trkpt>
      <trkpt lat="43.78648" lon="7.24409">
        <ele>544.20001220703</ele>
        <time>2022-01-13T13:48:52.000Z</time>
      </trkpt>
      <trkpt lat="43.78643" lon="7.24413">
        <ele>543.40002441406</ele>
        <time>2022-01-13T13:48:53.000Z</time>
      </trkpt>
      <trkpt lat="43.78638" lon="7.24417">
        <ele>542.59997558594</ele>
        <time>2022-01-13T13:48:54.000Z</time>
      </trkpt>
      <trkpt lat="43.78633" lon="7.24421">
        <ele>541.79998779297</ele>
        <time>2022-01-13T13:48:55.000Z</time>
      </trkpt>
      <trkpt lat="43.78621" lon="7.24428">
        <ele>540</ele>
        <time>2022-01-13T13:48:57.000Z</time>
      </trkpt>
      <trkpt lat="43.78615" lon="7.2443">
        <ele>539</ele>
        <time>2022-01-13T13:48:58.000Z</time>
      </trkpt>
      <trkpt lat="43.78609" lon="7.24432">
        <ele>538</ele>
        <time>2022-01-13T13:48:59.000Z</time>
      </trkpt>
      <trkpt lat="43.78604" lon="7.24434">
        <ele>537.40002441406</ele>
        <time>2022-01-13T13:49:00.000Z</time>
      </trkpt>
      <trkpt lat="43.78598" lon="7.24434">
        <ele>536.59997558594</ele>
        <time>2022-01-13T13:49:01.000Z</time>
      </trkpt>
      <trkpt lat="43.78587" lon="7.24432">
        <ele>535.40002441406</ele>
        <time>2022-01-13T13:49:03.000Z</time>
      </trkpt>
      <trkpt lat="43.7858" lon="7.2443">
        <ele>534.59997558594</ele>
        <time>2022-01-13T13:49:04.000Z</time>
      </trkpt>
      <trkpt lat="43.78574" lon="7.24429">
        <ele>534</ele>
        <time>2022-01-13T13:49:05.000Z</time>
      </trkpt>
      <trkpt lat="43.78558" lon="7.24427">
        <ele>532.20001220703</ele>
        <time>2022-01-13T13:49:07.000Z</time>
      </trkpt>
      <trkpt lat="43.7855" lon="7.24423">
        <ele>531</ele>
        <time>2022-01-13T13:49:08.000Z</time>
      </trkpt>
      <trkpt lat="43.78542" lon="7.24418">
        <ele>530</ele>
        <time>2022-01-13T13:49:09.000Z</time>
      </trkpt>
      <trkpt lat="43.78525" lon="7.24408">
        <ele>528.59997558594</ele>
        <time>2022-01-13T13:49:11.000Z</time>
      </trkpt>
      <trkpt lat="43.78517" lon="7.24403">
        <ele>527.20001220703</ele>
        <time>2022-01-13T13:49:12.000Z</time>
      </trkpt>
      <trkpt lat="43.7851" lon="7.24398">
        <ele>526</ele>
        <time>2022-01-13T13:49:13.000Z</time>
      </trkpt>
      <trkpt lat="43.78496" lon="7.24391">
        <ele>524</ele>
        <time>2022-01-13T13:49:15.000Z</time>
      </trkpt>
      <trkpt lat="43.78488" lon="7.24386">
        <ele>522.79998779297</ele>
        <time>2022-01-13T13:49:16.000Z</time>
      </trkpt>
      <trkpt lat="43.78476" lon="7.24379">
        <ele>521</ele>
        <time>2022-01-13T13:49:18.000Z</time>
      </trkpt>
      <trkpt lat="43.78462" lon="7.24373">
        <ele>519.59997558594</ele>
        <time>2022-01-13T13:49:20.000Z</time>
      </trkpt>
      <trkpt lat="43.78452" lon="7.24368">
        <ele>518.59997558594</ele>
        <time>2022-01-13T13:49:22.000Z</time>
      </trkpt>
      <trkpt lat="43.78442" lon="7.24365">
        <ele>518</ele>
        <time>2022-01-13T13:49:24.000Z</time>
      </trkpt>
      <trkpt lat="43.78431" lon="7.24363">
        <ele>517.79998779297</ele>
        <time>2022-01-13T13:49:28.000Z</time>
      </trkpt>
      <trkpt lat="43.78427" lon="7.24364">
        <ele>517.40002441406</ele>
        <time>2022-01-13T13:49:31.000Z</time>
      </trkpt>
      <trkpt lat="43.78426" lon="7.24364">
        <ele>517.20001220703</ele>
        <time>2022-01-13T13:49:32.000Z</time>
      </trkpt>
      <trkpt lat="43.78425" lon="7.24362">
        <ele>517.20001220703</ele>
        <time>2022-01-13T13:49:33.000Z</time>
      </trkpt>
      <trkpt lat="43.78425" lon="7.24349">
        <ele>517</ele>
        <time>2022-01-13T13:49:37.000Z</time>
      </trkpt>
      <trkpt lat="43.78421" lon="7.24341">
        <ele>517.20001220703</ele>
        <time>2022-01-13T13:49:40.000Z</time>
      </trkpt>
      <trkpt lat="43.78419" lon="7.24339">
        <ele>517</ele>
        <time>2022-01-13T13:49:41.000Z</time>
      </trkpt>
      <trkpt lat="43.78398" lon="7.24324">
        <ele>517.20001220703</ele>
        <time>2022-01-13T13:49:48.000Z</time>
      </trkpt>
      <trkpt lat="43.78384" lon="7.24303">
        <ele>517.40002441406</ele>
        <time>2022-01-13T13:49:52.000Z</time>
      </trkpt>
      <trkpt lat="43.78374" lon="7.24282">
        <ele>516</ele>
        <time>2022-01-13T13:49:54.000Z</time>
      </trkpt>
      <trkpt lat="43.78369" lon="7.24271">
        <ele>514.59997558594</ele>
        <time>2022-01-13T13:49:55.000Z</time>
      </trkpt>
      <trkpt lat="43.78363" lon="7.24257">
        <ele>512.79998779297</ele>
        <time>2022-01-13T13:49:56.000Z</time>
      </trkpt>
      <trkpt lat="43.78359" lon="7.24244">
        <ele>510.60000610352</ele>
        <time>2022-01-13T13:49:57.000Z</time>
      </trkpt>
      <trkpt lat="43.78353" lon="7.24233">
        <ele>508.60000610352</ele>
        <time>2022-01-13T13:49:58.000Z</time>
      </trkpt>
      <trkpt lat="43.78348" lon="7.24221">
        <ele>506.60000610352</ele>
        <time>2022-01-13T13:49:59.000Z</time>
      </trkpt>
      <trkpt lat="43.78344" lon="7.2421">
        <ele>505</ele>
        <time>2022-01-13T13:50:00.000Z</time>
      </trkpt>
      <trkpt lat="43.78339" lon="7.24198">
        <ele>503.39999389648</ele>
        <time>2022-01-13T13:50:01.000Z</time>
      </trkpt>
      <trkpt lat="43.78336" lon="7.24188">
        <ele>502</ele>
        <time>2022-01-13T13:50:02.000Z</time>
      </trkpt>
      <trkpt lat="43.78332" lon="7.24181">
        <ele>501</ele>
        <time>2022-01-13T13:50:03.000Z</time>
      </trkpt>
      <trkpt lat="43.78322" lon="7.24164">
        <ele>499.39999389648</ele>
        <time>2022-01-13T13:50:05.000Z</time>
      </trkpt>
      <trkpt lat="43.78319" lon="7.24156">
        <ele>498.60000610352</ele>
        <time>2022-01-13T13:50:06.000Z</time>
      </trkpt>
      <trkpt lat="43.78316" lon="7.24146">
        <ele>498</ele>
        <time>2022-01-13T13:50:07.000Z</time>
      </trkpt>
      <trkpt lat="43.78314" lon="7.24131">
        <ele>496.60000610352</ele>
        <time>2022-01-13T13:50:09.000Z</time>
      </trkpt>
      <trkpt lat="43.78313" lon="7.24124">
        <ele>496</ele>
        <time>2022-01-13T13:50:10.000Z</time>
      </trkpt>
      <trkpt lat="43.78312" lon="7.24118">
        <ele>495</ele>
        <time>2022-01-13T13:50:11.000Z</time>
      </trkpt>
      <trkpt lat="43.78309" lon="7.24113">
        <ele>494.20001220703</ele>
        <time>2022-01-13T13:50:12.000Z</time>
      </trkpt>
      <trkpt lat="43.78304" lon="7.24113">
        <ele>493.39999389648</ele>
        <time>2022-01-13T13:50:13.000Z</time>
      </trkpt>
      <trkpt lat="43.78294" lon="7.24113">
        <ele>491.60000610352</ele>
        <time>2022-01-13T13:50:15.000Z</time>
      </trkpt>
      <trkpt lat="43.7829" lon="7.24107">
        <ele>490.79998779297</ele>
        <time>2022-01-13T13:50:16.000Z</time>
      </trkpt>
      <trkpt lat="43.78286" lon="7.24099">
        <ele>490</ele>
        <time>2022-01-13T13:50:17.000Z</time>
      </trkpt>
      <trkpt lat="43.78281" lon="7.2409">
        <ele>489.20001220703</ele>
        <time>2022-01-13T13:50:18.000Z</time>
      </trkpt>
      <trkpt lat="43.78276" lon="7.24081">
        <ele>488</ele>
        <time>2022-01-13T13:50:19.000Z</time>
      </trkpt>
      <trkpt lat="43.78271" lon="7.24072">
        <ele>486.79998779297</ele>
        <time>2022-01-13T13:50:20.000Z</time>
      </trkpt>
      <trkpt lat="43.78265" lon="7.24064">
        <ele>485.60000610352</ele>
        <time>2022-01-13T13:50:21.000Z</time>
      </trkpt>
      <trkpt lat="43.78258" lon="7.24057">
        <ele>484.20001220703</ele>
        <time>2022-01-13T13:50:22.000Z</time>
      </trkpt>
      <trkpt lat="43.78251" lon="7.24053">
        <ele>483</ele>
        <time>2022-01-13T13:50:23.000Z</time>
      </trkpt>
      <trkpt lat="43.78244" lon="7.24047">
        <ele>481.79998779297</ele>
        <time>2022-01-13T13:50:24.000Z</time>
      </trkpt>
      <trkpt lat="43.78234" lon="7.24029">
        <ele>480.20001220703</ele>
        <time>2022-01-13T13:50:26.000Z</time>
      </trkpt>
      <trkpt lat="43.78229" lon="7.24019">
        <ele>479.39999389648</ele>
        <time>2022-01-13T13:50:27.000Z</time>
      </trkpt>
      <trkpt lat="43.78224" lon="7.24008">
        <ele>478.60000610352</ele>
        <time>2022-01-13T13:50:28.000Z</time>
      </trkpt>
      <trkpt lat="43.78216" lon="7.23988">
        <ele>477.39999389648</ele>
        <time>2022-01-13T13:50:30.000Z</time>
      </trkpt>
      <trkpt lat="43.78206" lon="7.23967">
        <ele>477.60000610352</ele>
        <time>2022-01-13T13:50:32.000Z</time>
      </trkpt>
      <trkpt lat="43.782" lon="7.23958">
        <ele>477.60000610352</ele>
        <time>2022-01-13T13:50:33.000Z</time>
      </trkpt>
      <trkpt lat="43.7819" lon="7.23937">
        <ele>476.39999389648</ele>
        <time>2022-01-13T13:50:35.000Z</time>
      </trkpt>
      <trkpt lat="43.78187" lon="7.23924">
        <ele>475</ele>
        <time>2022-01-13T13:50:36.000Z</time>
      </trkpt>
      <trkpt lat="43.78188" lon="7.23912">
        <ele>473.79998779297</ele>
        <time>2022-01-13T13:50:37.000Z</time>
      </trkpt>
      <trkpt lat="43.78188" lon="7.23903">
        <ele>472.60000610352</ele>
        <time>2022-01-13T13:50:38.000Z</time>
      </trkpt>
      <trkpt lat="43.78178" lon="7.23891">
        <ele>471.20001220703</ele>
        <time>2022-01-13T13:50:40.000Z</time>
      </trkpt>
      <trkpt lat="43.78164" lon="7.23897">
        <ele>470.39999389648</ele>
        <time>2022-01-13T13:50:42.000Z</time>
      </trkpt>
      <trkpt lat="43.78158" lon="7.23902">
        <ele>470</ele>
        <time>2022-01-13T13:50:43.000Z</time>
      </trkpt>
      <trkpt lat="43.78135" lon="7.23907">
        <ele>469</ele>
        <time>2022-01-13T13:50:46.000Z</time>
      </trkpt>
      <trkpt lat="43.78114" lon="7.23895">
        <ele>467.39999389648</ele>
        <time>2022-01-13T13:50:49.000Z</time>
      </trkpt>
      <trkpt lat="43.78106" lon="7.23893">
        <ele>466.60000610352</ele>
        <time>2022-01-13T13:50:50.000Z</time>
      </trkpt>
      <trkpt lat="43.78098" lon="7.23894">
        <ele>465.79998779297</ele>
        <time>2022-01-13T13:50:51.000Z</time>
      </trkpt>
      <trkpt lat="43.7809" lon="7.23898">
        <ele>465</ele>
        <time>2022-01-13T13:50:52.000Z</time>
      </trkpt>
      <trkpt lat="43.78084" lon="7.23904">
        <ele>464.20001220703</ele>
        <time>2022-01-13T13:50:53.000Z</time>
      </trkpt>
      <trkpt lat="43.78071" lon="7.23918">
        <ele>462.79998779297</ele>
        <time>2022-01-13T13:50:55.000Z</time>
      </trkpt>
      <trkpt lat="43.78058" lon="7.23932">
        <ele>461.60000610352</ele>
        <time>2022-01-13T13:50:57.000Z</time>
      </trkpt>
      <trkpt lat="43.78035" lon="7.23952">
        <ele>460.79998779297</ele>
        <time>2022-01-13T13:51:00.000Z</time>
      </trkpt>
      <trkpt lat="43.78027" lon="7.23958">
        <ele>460.39999389648</ele>
        <time>2022-01-13T13:51:01.000Z</time>
      </trkpt>
      <trkpt lat="43.77997" lon="7.23977">
        <ele>459.20001220703</ele>
        <time>2022-01-13T13:51:05.000Z</time>
      </trkpt>
      <trkpt lat="43.77978" lon="7.23983">
        <ele>457.39999389648</ele>
        <time>2022-01-13T13:51:07.000Z</time>
      </trkpt>
      <trkpt lat="43.7797" lon="7.23984">
        <ele>456.79998779297</ele>
        <time>2022-01-13T13:51:08.000Z</time>
      </trkpt>
      <trkpt lat="43.77961" lon="7.23985">
        <ele>456</ele>
        <time>2022-01-13T13:51:09.000Z</time>
      </trkpt>
      <trkpt lat="43.77942" lon="7.23981">
        <ele>454.39999389648</ele>
        <time>2022-01-13T13:51:11.000Z</time>
      </trkpt>
      <trkpt lat="43.77933" lon="7.23978">
        <ele>454</ele>
        <time>2022-01-13T13:51:12.000Z</time>
      </trkpt>
      <trkpt lat="43.77926" lon="7.23972">
        <ele>453.20001220703</ele>
        <time>2022-01-13T13:51:13.000Z</time>
      </trkpt>
      <trkpt lat="43.7791" lon="7.23961">
        <ele>452</ele>
        <time>2022-01-13T13:51:15.000Z</time>
      </trkpt>
      <trkpt lat="43.77901" lon="7.23955">
        <ele>451.39999389648</ele>
        <time>2022-01-13T13:51:16.000Z</time>
      </trkpt>
      <trkpt lat="43.77892" lon="7.2395">
        <ele>450.60000610352</ele>
        <time>2022-01-13T13:51:17.000Z</time>
      </trkpt>
      <trkpt lat="43.77873" lon="7.23943">
        <ele>449</ele>
        <time>2022-01-13T13:51:19.000Z</time>
      </trkpt>
      <trkpt lat="43.77855" lon="7.23938">
        <ele>447.79998779297</ele>
        <time>2022-01-13T13:51:21.000Z</time>
      </trkpt>
      <trkpt lat="43.77834" lon="7.23932">
        <ele>446.39999389648</ele>
        <time>2022-01-13T13:51:23.000Z</time>
      </trkpt>
      <trkpt lat="43.77816" lon="7.23925">
        <ele>445.20001220703</ele>
        <time>2022-01-13T13:51:25.000Z</time>
      </trkpt>
      <trkpt lat="43.77806" lon="7.23921">
        <ele>444.20001220703</ele>
        <time>2022-01-13T13:51:26.000Z</time>
      </trkpt>
      <trkpt lat="43.77789" lon="7.23912">
        <ele>443.20001220703</ele>
        <time>2022-01-13T13:51:28.000Z</time>
      </trkpt>
      <trkpt lat="43.77781" lon="7.23904">
        <ele>443</ele>
        <time>2022-01-13T13:51:29.000Z</time>
      </trkpt>
      <trkpt lat="43.77775" lon="7.23896">
        <ele>442.60000610352</ele>
        <time>2022-01-13T13:51:30.000Z</time>
      </trkpt>
      <trkpt lat="43.77763" lon="7.23878">
        <ele>442.20001220703</ele>
        <time>2022-01-13T13:51:32.000Z</time>
      </trkpt>
      <trkpt lat="43.77754" lon="7.23864">
        <ele>442.39999389648</ele>
        <time>2022-01-13T13:51:34.000Z</time>
      </trkpt>
      <trkpt lat="43.77749" lon="7.23853">
        <ele>443</ele>
        <time>2022-01-13T13:51:36.000Z</time>
      </trkpt>
      <trkpt lat="43.77745" lon="7.23844">
        <ele>444.60000610352</ele>
        <time>2022-01-13T13:51:38.000Z</time>
      </trkpt>
      <trkpt lat="43.7774" lon="7.23836">
        <ele>446.20001220703</ele>
        <time>2022-01-13T13:51:40.000Z</time>
      </trkpt>
      <trkpt lat="43.77735" lon="7.23829">
        <ele>447.39999389648</ele>
        <time>2022-01-13T13:51:42.000Z</time>
      </trkpt>
      <trkpt lat="43.77729" lon="7.23824">
        <ele>448.39999389648</ele>
        <time>2022-01-13T13:51:44.000Z</time>
      </trkpt>
      <trkpt lat="43.77721" lon="7.23817">
        <ele>449.79998779297</ele>
        <time>2022-01-13T13:51:47.000Z</time>
      </trkpt>
      <trkpt lat="43.77715" lon="7.23814">
        <ele>451.20001220703</ele>
        <time>2022-01-13T13:51:49.000Z</time>
      </trkpt>
      <trkpt lat="43.77709" lon="7.23811">
        <ele>452</ele>
        <time>2022-01-13T13:51:51.000Z</time>
      </trkpt>
      <trkpt lat="43.77705" lon="7.2381">
        <ele>452.39999389648</ele>
        <time>2022-01-13T13:51:52.000Z</time>
      </trkpt>
      <trkpt lat="43.77687" lon="7.2381">
        <ele>452.60000610352</ele>
        <time>2022-01-13T13:51:57.000Z</time>
      </trkpt>
      <trkpt lat="43.77679" lon="7.23808">
        <ele>452.20001220703</ele>
        <time>2022-01-13T13:51:59.000Z</time>
      </trkpt>
      <trkpt lat="43.77668" lon="7.23799">
        <ele>451</ele>
        <time>2022-01-13T13:52:02.000Z</time>
      </trkpt>
      <trkpt lat="43.77663" lon="7.23791">
        <ele>450.60000610352</ele>
        <time>2022-01-13T13:52:04.000Z</time>
      </trkpt>
      <trkpt lat="43.77659" lon="7.23788">
        <ele>450</ele>
        <time>2022-01-13T13:52:06.000Z</time>
      </trkpt>
      <trkpt lat="43.77654" lon="7.23777">
        <ele>448.39999389648</ele>
        <time>2022-01-13T13:52:09.000Z</time>
      </trkpt>
      <trkpt lat="43.77652" lon="7.23776">
        <ele>447.60000610352</ele>
        <time>2022-01-13T13:52:10.000Z</time>
      </trkpt>
      <trkpt lat="43.77648" lon="7.23777">
        <ele>446.79998779297</ele>
        <time>2022-01-13T13:52:11.000Z</time>
      </trkpt>
      <trkpt lat="43.77645" lon="7.23779">
        <ele>445.39999389648</ele>
        <time>2022-01-13T13:52:12.000Z</time>
      </trkpt>
      <trkpt lat="43.77641" lon="7.2378">
        <ele>444.39999389648</ele>
        <time>2022-01-13T13:52:13.000Z</time>
      </trkpt>
      <trkpt lat="43.77638" lon="7.23773">
        <ele>442.79998779297</ele>
        <time>2022-01-13T13:52:15.000Z</time>
      </trkpt>
      <trkpt lat="43.77639" lon="7.23769">
        <ele>442.20001220703</ele>
        <time>2022-01-13T13:52:16.000Z</time>
      </trkpt>
      <trkpt lat="43.7764" lon="7.23765">
        <ele>441.60000610352</ele>
        <time>2022-01-13T13:52:17.000Z</time>
      </trkpt>
      <trkpt lat="43.77642" lon="7.23757">
        <ele>439.79998779297</ele>
        <time>2022-01-13T13:52:19.000Z</time>
      </trkpt>
      <trkpt lat="43.77648" lon="7.23752">
        <ele>438.20001220703</ele>
        <time>2022-01-13T13:52:21.000Z</time>
      </trkpt>
      <trkpt lat="43.7765" lon="7.23751">
        <ele>437</ele>
        <time>2022-01-13T13:52:22.000Z</time>
      </trkpt>
      <trkpt lat="43.77648" lon="7.23747">
        <ele>435.39999389648</ele>
        <time>2022-01-13T13:52:24.000Z</time>
      </trkpt>
      <trkpt lat="43.77641" lon="7.23748">
        <ele>434.39999389648</ele>
        <time>2022-01-13T13:52:26.000Z</time>
      </trkpt>
      <trkpt lat="43.77637" lon="7.23747">
        <ele>433.60000610352</ele>
        <time>2022-01-13T13:52:27.000Z</time>
      </trkpt>
      <trkpt lat="43.77633" lon="7.23746">
        <ele>433</ele>
        <time>2022-01-13T13:52:28.000Z</time>
      </trkpt>
      <trkpt lat="43.77628" lon="7.23739">
        <ele>431.60000610352</ele>
        <time>2022-01-13T13:52:30.000Z</time>
      </trkpt>
      <trkpt lat="43.77626" lon="7.23734">
        <ele>431</ele>
        <time>2022-01-13T13:52:31.000Z</time>
      </trkpt>
      <trkpt lat="43.77625" lon="7.23728">
        <ele>430.20001220703</ele>
        <time>2022-01-13T13:52:32.000Z</time>
      </trkpt>
      <trkpt lat="43.7762" lon="7.23719">
        <ele>428.79998779297</ele>
        <time>2022-01-13T13:52:34.000Z</time>
      </trkpt>
      <trkpt lat="43.77618" lon="7.23714">
        <ele>427.39999389648</ele>
        <time>2022-01-13T13:52:35.000Z</time>
      </trkpt>
      <trkpt lat="43.77615" lon="7.23706">
        <ele>424.60000610352</ele>
        <time>2022-01-13T13:52:37.000Z</time>
      </trkpt>
      <trkpt lat="43.77614" lon="7.23702">
        <ele>423.60000610352</ele>
        <time>2022-01-13T13:52:38.000Z</time>
      </trkpt>
      <trkpt lat="43.77613" lon="7.23697">
        <ele>422.60000610352</ele>
        <time>2022-01-13T13:52:39.000Z</time>
      </trkpt>
      <trkpt lat="43.7761" lon="7.23693">
        <ele>422.20001220703</ele>
        <time>2022-01-13T13:52:40.000Z</time>
      </trkpt>
      <trkpt lat="43.77607" lon="7.23686">
        <ele>421</ele>
        <time>2022-01-13T13:52:41.000Z</time>
      </trkpt>
      <trkpt lat="43.77606" lon="7.23681">
        <ele>421</ele>
        <time>2022-01-13T13:52:42.000Z</time>
      </trkpt>
      <trkpt lat="43.77606" lon="7.23676">
        <ele>420</ele>
        <time>2022-01-13T13:52:43.000Z</time>
      </trkpt>
      <trkpt lat="43.77605" lon="7.23672">
        <ele>418.60000610352</ele>
        <time>2022-01-13T13:52:44.000Z</time>
      </trkpt>
      <trkpt lat="43.77601" lon="7.23663">
        <ele>417.60000610352</ele>
        <time>2022-01-13T13:52:46.000Z</time>
      </trkpt>
      <trkpt lat="43.776" lon="7.23658">
        <ele>416.79998779297</ele>
        <time>2022-01-13T13:52:47.000Z</time>
      </trkpt>
      <trkpt lat="43.77598" lon="7.23653">
        <ele>416</ele>
        <time>2022-01-13T13:52:48.000Z</time>
      </trkpt>
      <trkpt lat="43.77595" lon="7.23648">
        <ele>413.79998779297</ele>
        <time>2022-01-13T13:52:50.000Z</time>
      </trkpt>
      <trkpt lat="43.77593" lon="7.23642">
        <ele>413</ele>
        <time>2022-01-13T13:52:51.000Z</time>
      </trkpt>
      <trkpt lat="43.77591" lon="7.23635">
        <ele>412.20001220703</ele>
        <time>2022-01-13T13:52:52.000Z</time>
      </trkpt>
      <trkpt lat="43.77589" lon="7.2363">
        <ele>411.20001220703</ele>
        <time>2022-01-13T13:52:53.000Z</time>
      </trkpt>
      <trkpt lat="43.77587" lon="7.23625">
        <ele>410</ele>
        <time>2022-01-13T13:52:54.000Z</time>
      </trkpt>
      <trkpt lat="43.77585" lon="7.23625">
        <ele>409</ele>
        <time>2022-01-13T13:52:55.000Z</time>
      </trkpt>
      <trkpt lat="43.77581" lon="7.23624">
        <ele>407.79998779297</ele>
        <time>2022-01-13T13:52:56.000Z</time>
      </trkpt>
      <trkpt lat="43.77577" lon="7.23622">
        <ele>406.79998779297</ele>
        <time>2022-01-13T13:52:57.000Z</time>
      </trkpt>
      <trkpt lat="43.77576" lon="7.23615">
        <ele>405.79998779297</ele>
        <time>2022-01-13T13:52:58.000Z</time>
      </trkpt>
      <trkpt lat="43.77579" lon="7.2361">
        <ele>405.20001220703</ele>
        <time>2022-01-13T13:52:59.000Z</time>
      </trkpt>
      <trkpt lat="43.77581" lon="7.23605">
        <ele>404.20001220703</ele>
        <time>2022-01-13T13:53:00.000Z</time>
      </trkpt>
      <trkpt lat="43.77581" lon="7.23598">
        <ele>403.39999389648</ele>
        <time>2022-01-13T13:53:01.000Z</time>
      </trkpt>
      <trkpt lat="43.77582" lon="7.23585">
        <ele>402</ele>
        <time>2022-01-13T13:53:03.000Z</time>
      </trkpt>
      <trkpt lat="43.77581" lon="7.2358">
        <ele>400.39999389648</ele>
        <time>2022-01-13T13:53:04.000Z</time>
      </trkpt>
      <trkpt lat="43.77581" lon="7.23569">
        <ele>398.60000610352</ele>
        <time>2022-01-13T13:53:06.000Z</time>
      </trkpt>
      <trkpt lat="43.77579" lon="7.23562">
        <ele>396.79998779297</ele>
        <time>2022-01-13T13:53:08.000Z</time>
      </trkpt>
      <trkpt lat="43.77579" lon="7.2356">
        <ele>396.20001220703</ele>
        <time>2022-01-13T13:53:09.000Z</time>
      </trkpt>
      <trkpt lat="43.77579" lon="7.23558">
        <ele>395.39999389648</ele>
        <time>2022-01-13T13:53:10.000Z</time>
      </trkpt>
      <trkpt lat="43.77582" lon="7.23552">
        <ele>394.79998779297</ele>
        <time>2022-01-13T13:53:12.000Z</time>
      </trkpt>
      <trkpt lat="43.77583" lon="7.23548">
        <ele>394</ele>
        <time>2022-01-13T13:53:13.000Z</time>
      </trkpt>
      <trkpt lat="43.77579" lon="7.23543">
        <ele>392.60000610352</ele>
        <time>2022-01-13T13:53:15.000Z</time>
      </trkpt>
      <trkpt lat="43.77578" lon="7.23536">
        <ele>391.60000610352</ele>
        <time>2022-01-13T13:53:16.000Z</time>
      </trkpt>
      <trkpt lat="43.77577" lon="7.23529">
        <ele>391.20001220703</ele>
        <time>2022-01-13T13:53:17.000Z</time>
      </trkpt>
      <trkpt lat="43.77577" lon="7.23514">
        <ele>390</ele>
        <time>2022-01-13T13:53:19.000Z</time>
      </trkpt>
      <trkpt lat="43.77576" lon="7.23496">
        <ele>388.20001220703</ele>
        <time>2022-01-13T13:53:21.000Z</time>
      </trkpt>
      <trkpt lat="43.77575" lon="7.23488">
        <ele>386.79998779297</ele>
        <time>2022-01-13T13:53:22.000Z</time>
      </trkpt>
      <trkpt lat="43.77574" lon="7.2348">
        <ele>385.60000610352</ele>
        <time>2022-01-13T13:53:23.000Z</time>
      </trkpt>
      <trkpt lat="43.77572" lon="7.23473">
        <ele>384.39999389648</ele>
        <time>2022-01-13T13:53:24.000Z</time>
      </trkpt>
      <trkpt lat="43.7757" lon="7.23465">
        <ele>383.60000610352</ele>
        <time>2022-01-13T13:53:25.000Z</time>
      </trkpt>
      <trkpt lat="43.77568" lon="7.23458">
        <ele>383.39999389648</ele>
        <time>2022-01-13T13:53:26.000Z</time>
      </trkpt>
      <trkpt lat="43.77568" lon="7.23451">
        <ele>383.20001220703</ele>
        <time>2022-01-13T13:53:27.000Z</time>
      </trkpt>
      <trkpt lat="43.77568" lon="7.23444">
        <ele>382.39999389648</ele>
        <time>2022-01-13T13:53:28.000Z</time>
      </trkpt>
      <trkpt lat="43.77566" lon="7.23437">
        <ele>381.79998779297</ele>
        <time>2022-01-13T13:53:29.000Z</time>
      </trkpt>
      <trkpt lat="43.77568" lon="7.23425">
        <ele>380.60000610352</ele>
        <time>2022-01-13T13:53:31.000Z</time>
      </trkpt>
      <trkpt lat="43.77568" lon="7.23403">
        <ele>380</ele>
        <time>2022-01-13T13:53:35.000Z</time>
      </trkpt>
      <trkpt lat="43.77569" lon="7.2339">
        <ele>380</ele>
        <time>2022-01-13T13:53:37.000Z</time>
      </trkpt>
      <trkpt lat="43.77575" lon="7.23372">
        <ele>379.60000610352</ele>
        <time>2022-01-13T13:53:40.000Z</time>
      </trkpt>
      <trkpt lat="43.77576" lon="7.23366">
        <ele>379.39999389648</ele>
        <time>2022-01-13T13:53:41.000Z</time>
      </trkpt>
      <trkpt lat="43.77581" lon="7.2335">
        <ele>378</ele>
        <time>2022-01-13T13:53:44.000Z</time>
      </trkpt>
      <trkpt lat="43.77584" lon="7.23345">
        <ele>377.20001220703</ele>
        <time>2022-01-13T13:53:45.000Z</time>
      </trkpt>
      <trkpt lat="43.77587" lon="7.2334">
        <ele>376.39999389648</ele>
        <time>2022-01-13T13:53:46.000Z</time>
      </trkpt>
      <trkpt lat="43.77591" lon="7.23335">
        <ele>374.79998779297</ele>
        <time>2022-01-13T13:53:48.000Z</time>
      </trkpt>
      <trkpt lat="43.77595" lon="7.23331">
        <ele>373.60000610352</ele>
        <time>2022-01-13T13:53:50.000Z</time>
      </trkpt>
      <trkpt lat="43.77597" lon="7.23323">
        <ele>372.60000610352</ele>
        <time>2022-01-13T13:53:52.000Z</time>
      </trkpt>
      <trkpt lat="43.77595" lon="7.23312">
        <ele>370.79998779297</ele>
        <time>2022-01-13T13:53:54.000Z</time>
      </trkpt>
      <trkpt lat="43.77595" lon="7.23307">
        <ele>369.39999389648</ele>
        <time>2022-01-13T13:53:55.000Z</time>
      </trkpt>
      <trkpt lat="43.77596" lon="7.23304">
        <ele>368.79998779297</ele>
        <time>2022-01-13T13:53:56.000Z</time>
      </trkpt>
      <trkpt lat="43.77596" lon="7.23298">
        <ele>368.20001220703</ele>
        <time>2022-01-13T13:53:57.000Z</time>
      </trkpt>
      <trkpt lat="43.77596" lon="7.23292">
        <ele>367</ele>
        <time>2022-01-13T13:53:58.000Z</time>
      </trkpt>
      <trkpt lat="43.77595" lon="7.23286">
        <ele>366.20001220703</ele>
        <time>2022-01-13T13:53:59.000Z</time>
      </trkpt>
      <trkpt lat="43.77595" lon="7.23281">
        <ele>365.79998779297</ele>
        <time>2022-01-13T13:54:00.000Z</time>
      </trkpt>
      <trkpt lat="43.77594" lon="7.23269">
        <ele>364.20001220703</ele>
        <time>2022-01-13T13:54:02.000Z</time>
      </trkpt>
      <trkpt lat="43.77595" lon="7.23263">
        <ele>363</ele>
        <time>2022-01-13T13:54:03.000Z</time>
      </trkpt>
      <trkpt lat="43.77596" lon="7.23256">
        <ele>362</ele>
        <time>2022-01-13T13:54:04.000Z</time>
      </trkpt>
      <trkpt lat="43.77597" lon="7.2325">
        <ele>360.39999389648</ele>
        <time>2022-01-13T13:54:05.000Z</time>
      </trkpt>
      <trkpt lat="43.77596" lon="7.23243">
        <ele>359.39999389648</ele>
        <time>2022-01-13T13:54:06.000Z</time>
      </trkpt>
      <trkpt lat="43.77596" lon="7.23237">
        <ele>358.39999389648</ele>
        <time>2022-01-13T13:54:07.000Z</time>
      </trkpt>
      <trkpt lat="43.77596" lon="7.23225">
        <ele>356.79998779297</ele>
        <time>2022-01-13T13:54:09.000Z</time>
      </trkpt>
      <trkpt lat="43.77596" lon="7.23212">
        <ele>355.39999389648</ele>
        <time>2022-01-13T13:54:11.000Z</time>
      </trkpt>
      <trkpt lat="43.77597" lon="7.23205">
        <ele>354.39999389648</ele>
        <time>2022-01-13T13:54:12.000Z</time>
      </trkpt>
      <trkpt lat="43.77599" lon="7.23199">
        <ele>353.20001220703</ele>
        <time>2022-01-13T13:54:13.000Z</time>
      </trkpt>
      <trkpt lat="43.77602" lon="7.23194">
        <ele>351.79998779297</ele>
        <time>2022-01-13T13:54:14.000Z</time>
      </trkpt>
      <trkpt lat="43.77604" lon="7.23181">
        <ele>350</ele>
        <time>2022-01-13T13:54:16.000Z</time>
      </trkpt>
      <trkpt lat="43.77606" lon="7.23176">
        <ele>348.79998779297</ele>
        <time>2022-01-13T13:54:17.000Z</time>
      </trkpt>
      <trkpt lat="43.77608" lon="7.23175">
        <ele>347.39999389648</ele>
        <time>2022-01-13T13:54:18.000Z</time>
      </trkpt>
      <trkpt lat="43.77607" lon="7.23172">
        <ele>346.39999389648</ele>
        <time>2022-01-13T13:54:19.000Z</time>
      </trkpt>
      <trkpt lat="43.77606" lon="7.23167">
        <ele>345.39999389648</ele>
        <time>2022-01-13T13:54:20.000Z</time>
      </trkpt>
      <trkpt lat="43.77608" lon="7.23161">
        <ele>344.60000610352</ele>
        <time>2022-01-13T13:54:21.000Z</time>
      </trkpt>
      <trkpt lat="43.7761" lon="7.23154">
        <ele>344</ele>
        <time>2022-01-13T13:54:22.000Z</time>
      </trkpt>
      <trkpt lat="43.77614" lon="7.23147">
        <ele>342.79998779297</ele>
        <time>2022-01-13T13:54:24.000Z</time>
      </trkpt>
      <trkpt lat="43.77612" lon="7.23143">
        <ele>341.60000610352</ele>
        <time>2022-01-13T13:54:25.000Z</time>
      </trkpt>
      <trkpt lat="43.7761" lon="7.23141">
        <ele>340.39999389648</ele>
        <time>2022-01-13T13:54:26.000Z</time>
      </trkpt>
      <trkpt lat="43.77608" lon="7.23136">
        <ele>339.20001220703</ele>
        <time>2022-01-13T13:54:27.000Z</time>
      </trkpt>
      <trkpt lat="43.77608" lon="7.23131">
        <ele>338</ele>
        <time>2022-01-13T13:54:28.000Z</time>
      </trkpt>
      <trkpt lat="43.77606" lon="7.23129">
        <ele>337</ele>
        <time>2022-01-13T13:54:29.000Z</time>
      </trkpt>
      <trkpt lat="43.77604" lon="7.23125">
        <ele>336.39999389648</ele>
        <time>2022-01-13T13:54:30.000Z</time>
      </trkpt>
      <trkpt lat="43.77601" lon="7.2312">
        <ele>335.60000610352</ele>
        <time>2022-01-13T13:54:31.000Z</time>
      </trkpt>
      <trkpt lat="43.77598" lon="7.23111">
        <ele>334</ele>
        <time>2022-01-13T13:54:33.000Z</time>
      </trkpt>
      <trkpt lat="43.77594" lon="7.23109">
        <ele>332.79998779297</ele>
        <time>2022-01-13T13:54:34.000Z</time>
      </trkpt>
      <trkpt lat="43.77592" lon="7.23106">
        <ele>332</ele>
        <time>2022-01-13T13:54:35.000Z</time>
      </trkpt>
      <trkpt lat="43.77592" lon="7.23101">
        <ele>331.39999389648</ele>
        <time>2022-01-13T13:54:36.000Z</time>
      </trkpt>
      <trkpt lat="43.77589" lon="7.23096">
        <ele>329.60000610352</ele>
        <time>2022-01-13T13:54:38.000Z</time>
      </trkpt>
      <trkpt lat="43.77589" lon="7.23088">
        <ele>328</ele>
        <time>2022-01-13T13:54:41.000Z</time>
      </trkpt>
      <trkpt lat="43.77591" lon="7.23084">
        <ele>327.39999389648</ele>
        <time>2022-01-13T13:54:42.000Z</time>
      </trkpt>
      <trkpt lat="43.77593" lon="7.23081">
        <ele>326.79998779297</ele>
        <time>2022-01-13T13:54:43.000Z</time>
      </trkpt>
      <trkpt lat="43.77594" lon="7.23078">
        <ele>326</ele>
        <time>2022-01-13T13:54:44.000Z</time>
      </trkpt>
      <trkpt lat="43.77598" lon="7.23073">
        <ele>325.20001220703</ele>
        <time>2022-01-13T13:54:45.000Z</time>
      </trkpt>
      <trkpt lat="43.776" lon="7.2307">
        <ele>324</ele>
        <time>2022-01-13T13:54:46.000Z</time>
      </trkpt>
      <trkpt lat="43.77601" lon="7.23063">
        <ele>322.79998779297</ele>
        <time>2022-01-13T13:54:47.000Z</time>
      </trkpt>
      <trkpt lat="43.77599" lon="7.2305">
        <ele>320.60000610352</ele>
        <time>2022-01-13T13:54:49.000Z</time>
      </trkpt>
      <trkpt lat="43.77601" lon="7.23046">
        <ele>319.39999389648</ele>
        <time>2022-01-13T13:54:50.000Z</time>
      </trkpt>
      <trkpt lat="43.77602" lon="7.23044">
        <ele>318.39999389648</ele>
        <time>2022-01-13T13:54:51.000Z</time>
      </trkpt>
      <trkpt lat="43.77603" lon="7.23039">
        <ele>317.60000610352</ele>
        <time>2022-01-13T13:54:52.000Z</time>
      </trkpt>
      <trkpt lat="43.77603" lon="7.23032">
        <ele>316.79998779297</ele>
        <time>2022-01-13T13:54:53.000Z</time>
      </trkpt>
      <trkpt lat="43.77602" lon="7.23026">
        <ele>316.79998779297</ele>
        <time>2022-01-13T13:54:54.000Z</time>
      </trkpt>
      <trkpt lat="43.77602" lon="7.23022">
        <ele>316.39999389648</ele>
        <time>2022-01-13T13:54:55.000Z</time>
      </trkpt>
      <trkpt lat="43.77607" lon="7.23012">
        <ele>315.60000610352</ele>
        <time>2022-01-13T13:54:58.000Z</time>
      </trkpt>
      <trkpt lat="43.7761" lon="7.23007">
        <ele>315</ele>
        <time>2022-01-13T13:54:59.000Z</time>
      </trkpt>
      <trkpt lat="43.77614" lon="7.23003">
        <ele>313.79998779297</ele>
        <time>2022-01-13T13:55:00.000Z</time>
      </trkpt>
      <trkpt lat="43.77617" lon="7.23001">
        <ele>312.60000610352</ele>
        <time>2022-01-13T13:55:01.000Z</time>
      </trkpt>
      <trkpt lat="43.7762" lon="7.23001">
        <ele>311.79998779297</ele>
        <time>2022-01-13T13:55:02.000Z</time>
      </trkpt>
      <trkpt lat="43.7762" lon="7.23">
        <ele>310.20001220703</ele>
        <time>2022-01-13T13:55:03.000Z</time>
      </trkpt>
      <trkpt lat="43.7762" lon="7.22999">
        <ele>309.20001220703</ele>
        <time>2022-01-13T13:55:04.000Z</time>
      </trkpt>
      <trkpt lat="43.77618" lon="7.22998">
        <ele>307.79998779297</ele>
        <time>2022-01-13T13:55:06.000Z</time>
      </trkpt>
      <trkpt lat="43.77616" lon="7.22998">
        <ele>307.20001220703</ele>
        <time>2022-01-13T13:55:07.000Z</time>
      </trkpt>
      <trkpt lat="43.77611" lon="7.22998">
        <ele>306.60000610352</ele>
        <time>2022-01-13T13:55:09.000Z</time>
      </trkpt>
      <trkpt lat="43.77604" lon="7.22999">
        <ele>306.39999389648</ele>
        <time>2022-01-13T13:55:12.000Z</time>
      </trkpt>
      <trkpt lat="43.77595" lon="7.23001">
        <ele>306.20001220703</ele>
        <time>2022-01-13T13:55:16.000Z</time>
      </trkpt>
      <trkpt lat="43.77596" lon="7.22992">
        <ele>306</ele>
        <time>2022-01-13T13:55:19.000Z</time>
      </trkpt>
      <trkpt lat="43.77599" lon="7.22989">
        <ele>305.60000610352</ele>
        <time>2022-01-13T13:55:20.000Z</time>
      </trkpt>
      <trkpt lat="43.77607" lon="7.22984">
        <ele>304.60000610352</ele>
        <time>2022-01-13T13:55:22.000Z</time>
      </trkpt>
      <trkpt lat="43.77612" lon="7.22983">
        <ele>304</ele>
        <time>2022-01-13T13:55:23.000Z</time>
      </trkpt>
      <trkpt lat="43.77614" lon="7.22982">
        <ele>302.39999389648</ele>
        <time>2022-01-13T13:55:25.000Z</time>
      </trkpt>
      <trkpt lat="43.77613" lon="7.2298">
        <ele>301.60000610352</ele>
        <time>2022-01-13T13:55:26.000Z</time>
      </trkpt>
      <trkpt lat="43.77612" lon="7.22979">
        <ele>301.20001220703</ele>
        <time>2022-01-13T13:55:27.000Z</time>
      </trkpt>
      <trkpt lat="43.77604" lon="7.22975">
        <ele>300.20001220703</ele>
        <time>2022-01-13T13:55:29.000Z</time>
      </trkpt>
      <trkpt lat="43.77599" lon="7.22974">
        <ele>299.79998779297</ele>
        <time>2022-01-13T13:55:30.000Z</time>
      </trkpt>
      <trkpt lat="43.77593" lon="7.22972">
        <ele>298.60000610352</ele>
        <time>2022-01-13T13:55:32.000Z</time>
      </trkpt>
      <trkpt lat="43.7759" lon="7.22974">
        <ele>298</ele>
        <time>2022-01-13T13:55:33.000Z</time>
      </trkpt>
      <trkpt lat="43.77586" lon="7.22974">
        <ele>296.79998779297</ele>
        <time>2022-01-13T13:55:34.000Z</time>
      </trkpt>
      <trkpt lat="43.77579" lon="7.22975">
        <ele>295.20001220703</ele>
        <time>2022-01-13T13:55:36.000Z</time>
      </trkpt>
      <trkpt lat="43.77575" lon="7.22975">
        <ele>294.60000610352</ele>
        <time>2022-01-13T13:55:37.000Z</time>
      </trkpt>
      <trkpt lat="43.77572" lon="7.22977">
        <ele>293.79998779297</ele>
        <time>2022-01-13T13:55:38.000Z</time>
      </trkpt>
      <trkpt lat="43.77569" lon="7.22976">
        <ele>292.20001220703</ele>
        <time>2022-01-13T13:55:40.000Z</time>
      </trkpt>
      <trkpt lat="43.77572" lon="7.22972">
        <ele>290.60000610352</ele>
        <time>2022-01-13T13:55:42.000Z</time>
      </trkpt>
      <trkpt lat="43.77574" lon="7.22967">
        <ele>290.20001220703</ele>
        <time>2022-01-13T13:55:43.000Z</time>
      </trkpt>
      <trkpt lat="43.7758" lon="7.22957">
        <ele>289.39999389648</ele>
        <time>2022-01-13T13:55:45.000Z</time>
      </trkpt>
      <trkpt lat="43.77584" lon="7.22953">
        <ele>288.79998779297</ele>
        <time>2022-01-13T13:55:46.000Z</time>
      </trkpt>
      <trkpt lat="43.77587" lon="7.22949">
        <ele>288.39999389648</ele>
        <time>2022-01-13T13:55:47.000Z</time>
      </trkpt>
      <trkpt lat="43.77592" lon="7.22946">
        <ele>287.79998779297</ele>
        <time>2022-01-13T13:55:48.000Z</time>
      </trkpt>
      <trkpt lat="43.77597" lon="7.22939">
        <ele>286.20001220703</ele>
        <time>2022-01-13T13:55:50.000Z</time>
      </trkpt>
      <trkpt lat="43.77598" lon="7.22936">
        <ele>285.39999389648</ele>
        <time>2022-01-13T13:55:51.000Z</time>
      </trkpt>
      <trkpt lat="43.77599" lon="7.22933">
        <ele>284.79998779297</ele>
        <time>2022-01-13T13:55:52.000Z</time>
      </trkpt>
      <trkpt lat="43.77604" lon="7.22929">
        <ele>283.39999389648</ele>
        <time>2022-01-13T13:55:54.000Z</time>
      </trkpt>
      <trkpt lat="43.77607" lon="7.2293">
        <ele>283.20001220703</ele>
        <time>2022-01-13T13:55:55.000Z</time>
      </trkpt>
      <trkpt lat="43.77607" lon="7.22924">
        <ele>282</ele>
        <time>2022-01-13T13:55:58.000Z</time>
      </trkpt>
      <trkpt lat="43.77601" lon="7.22918">
        <ele>280.60000610352</ele>
        <time>2022-01-13T13:56:00.000Z</time>
      </trkpt>
      <trkpt lat="43.77597" lon="7.22915">
        <ele>279.79998779297</ele>
        <time>2022-01-13T13:56:01.000Z</time>
      </trkpt>
      <trkpt lat="43.77594" lon="7.22914">
        <ele>278.60000610352</ele>
        <time>2022-01-13T13:56:02.000Z</time>
      </trkpt>
      <trkpt lat="43.77591" lon="7.22913">
        <ele>277.60000610352</ele>
        <time>2022-01-13T13:56:03.000Z</time>
      </trkpt>
      <trkpt lat="43.77589" lon="7.22912">
        <ele>276.60000610352</ele>
        <time>2022-01-13T13:56:04.000Z</time>
      </trkpt>
      <trkpt lat="43.77588" lon="7.2291">
        <ele>275.60000610352</ele>
        <time>2022-01-13T13:56:05.000Z</time>
      </trkpt>
      <trkpt lat="43.77589" lon="7.22907">
        <ele>274.79998779297</ele>
        <time>2022-01-13T13:56:06.000Z</time>
      </trkpt>
      <trkpt lat="43.77593" lon="7.22905">
        <ele>273.60000610352</ele>
        <time>2022-01-13T13:56:08.000Z</time>
      </trkpt>
      <trkpt lat="43.77596" lon="7.22901">
        <ele>272.39999389648</ele>
        <time>2022-01-13T13:56:11.000Z</time>
      </trkpt>
      <trkpt lat="43.77592" lon="7.22901">
        <ele>271.20001220703</ele>
        <time>2022-01-13T13:56:13.000Z</time>
      </trkpt>
      <trkpt lat="43.7759" lon="7.22899">
        <ele>270.79998779297</ele>
        <time>2022-01-13T13:56:14.000Z</time>
      </trkpt>
      <trkpt lat="43.77587" lon="7.22895">
        <ele>270</ele>
        <time>2022-01-13T13:56:16.000Z</time>
      </trkpt>
      <trkpt lat="43.77584" lon="7.22897">
        <ele>269.20001220703</ele>
        <time>2022-01-13T13:56:18.000Z</time>
      </trkpt>
      <trkpt lat="43.77582" lon="7.22899">
        <ele>268.79998779297</ele>
        <time>2022-01-13T13:56:19.000Z</time>
      </trkpt>
      <trkpt lat="43.77573" lon="7.22906">
        <ele>267.39999389648</ele>
        <time>2022-01-13T13:56:22.000Z</time>
      </trkpt>
      <trkpt lat="43.7757" lon="7.22909">
        <ele>267</ele>
        <time>2022-01-13T13:56:23.000Z</time>
      </trkpt>
      <trkpt lat="43.77561" lon="7.22917">
        <ele>266.39999389648</ele>
        <time>2022-01-13T13:56:26.000Z</time>
      </trkpt>
      <trkpt lat="43.77551" lon="7.2293">
        <ele>266.79998779297</ele>
        <time>2022-01-13T13:56:30.000Z</time>
      </trkpt>
      <trkpt lat="43.77537" lon="7.22954">
        <ele>266.79998779297</ele>
        <time>2022-01-13T13:56:36.000Z</time>
      </trkpt>
      <trkpt lat="43.77522" lon="7.22968">
        <ele>266.60000610352</ele>
        <time>2022-01-13T13:56:41.000Z</time>
      </trkpt>
      <trkpt lat="43.77513" lon="7.22983">
        <ele>266.60000610352</ele>
        <time>2022-01-13T13:56:45.000Z</time>
      </trkpt>
      <trkpt lat="43.77502" lon="7.23005">
        <ele>266.60000610352</ele>
        <time>2022-01-13T13:56:50.000Z</time>
      </trkpt>
      <trkpt lat="43.77486" lon="7.23026">
        <ele>266.60000610352</ele>
        <time>2022-01-13T13:56:56.000Z</time>
      </trkpt>
      <trkpt lat="43.77472" lon="7.23041">
        <ele>267</ele>
        <time>2022-01-13T13:57:01.000Z</time>
      </trkpt>
      <trkpt lat="43.77465" lon="7.23042">
        <ele>267.20001220703</ele>
        <time>2022-01-13T13:57:03.000Z</time>
      </trkpt>
      <trkpt lat="43.77462" lon="7.23043">
        <ele>267</ele>
        <time>2022-01-13T13:57:04.000Z</time>
      </trkpt>
      <trkpt lat="43.77451" lon="7.23044">
        <ele>266.60000610352</ele>
        <time>2022-01-13T13:57:08.000Z</time>
      </trkpt>
      <trkpt lat="43.77441" lon="7.23044">
        <ele>265.20001220703</ele>
        <time>2022-01-13T13:57:12.000Z</time>
      </trkpt>
      <trkpt lat="43.77439" lon="7.23044">
        <ele>263.79998779297</ele>
        <time>2022-01-13T13:57:14.000Z</time>
      </trkpt>
      <trkpt lat="43.77439" lon="7.23042">
        <ele>262.79998779297</ele>
        <time>2022-01-13T13:57:16.000Z</time>
      </trkpt>
      <trkpt lat="43.7744" lon="7.2304">
        <ele>262.20001220703</ele>
        <time>2022-01-13T13:57:17.000Z</time>
      </trkpt>
      <trkpt lat="43.7744" lon="7.2304">
        <ele>261.60000610352</ele>
        <time>2022-01-13T13:57:19.000Z</time>
      </trkpt>
      <trkpt lat="43.77439" lon="7.23039">
        <ele>261.20001220703</ele>
        <time>2022-01-13T13:57:20.000Z</time>
      </trkpt>
      <trkpt lat="43.77438" lon="7.23039">
        <ele>260.20001220703</ele>
        <time>2022-01-13T13:57:22.000Z</time>
      </trkpt>
      <trkpt lat="43.77435" lon="7.23038">
        <ele>259</ele>
        <time>2022-01-13T13:57:25.000Z</time>
      </trkpt>
      <trkpt lat="43.77436" lon="7.23036">
        <ele>258.60000610352</ele>
        <time>2022-01-13T13:57:26.000Z</time>
      </trkpt>
      <trkpt lat="43.77438" lon="7.23032">
        <ele>257.60000610352</ele>
        <time>2022-01-13T13:57:28.000Z</time>
      </trkpt>
      <trkpt lat="43.77438" lon="7.2303">
        <ele>256.79998779297</ele>
        <time>2022-01-13T13:57:29.000Z</time>
      </trkpt>
      <trkpt lat="43.77439" lon="7.23029">
        <ele>256.39999389648</ele>
        <time>2022-01-13T13:57:30.000Z</time>
      </trkpt>
      <trkpt lat="43.77439" lon="7.23024">
        <ele>255.39999389648</ele>
        <time>2022-01-13T13:57:33.000Z</time>
      </trkpt>
      <trkpt lat="43.77439" lon="7.23021">
        <ele>255.19999694824</ele>
        <time>2022-01-13T13:57:34.000Z</time>
      </trkpt>
      <trkpt lat="43.77441" lon="7.23017">
        <ele>254.60000610352</ele>
        <time>2022-01-13T13:57:38.000Z</time>
      </trkpt>
      <trkpt lat="43.77443" lon="7.23015">
        <ele>256.79998779297</ele>
        <time>2022-01-13T13:57:42.000Z</time>
      </trkpt>
      <trkpt lat="43.77443" lon="7.23015">
        <ele>257.20001220703</ele>
        <time>2022-01-13T13:57:43.000Z</time>
      </trkpt>
      <trkpt lat="43.77444" lon="7.23014">
        <ele>258</ele>
        <time>2022-01-13T13:57:46.000Z</time>
      </trkpt>
      <trkpt lat="43.77445" lon="7.23011">
        <ele>258.79998779297</ele>
        <time>2022-01-13T13:57:50.000Z</time>
      </trkpt>
      <trkpt lat="43.77445" lon="7.23011">
        <ele>259</ele>
        <time>2022-01-13T13:57:51.000Z</time>
      </trkpt>
      <trkpt lat="43.77448" lon="7.23007">
        <ele>259.79998779297</ele>
        <time>2022-01-13T13:57:58.000Z</time>
      </trkpt>
      <trkpt lat="43.77448" lon="7.22999">
        <ele>259.60000610352</ele>
        <time>2022-01-13T13:58:04.000Z</time>
      </trkpt>
      <trkpt lat="43.77448" lon="7.22993">
        <ele>259.60000610352</ele>
        <time>2022-01-13T13:58:10.000Z</time>
      </trkpt>
      <trkpt lat="43.77447" lon="7.22986">
        <ele>260</ele>
        <time>2022-01-13T13:58:17.000Z</time>
      </trkpt>
      <trkpt lat="43.77446" lon="7.22981">
        <ele>260.20001220703</ele>
        <time>2022-01-13T13:58:22.000Z</time>
      </trkpt>
      <trkpt lat="43.77446" lon="7.22979">
        <ele>260.60000610352</ele>
        <time>2022-01-13T13:58:24.000Z</time>
      </trkpt>
      <trkpt lat="43.77446" lon="7.22975">
        <ele>260</ele>
        <time>2022-01-13T13:58:29.000Z</time>
      </trkpt>
      <trkpt lat="43.77444" lon="7.2297">
        <ele>259.79998779297</ele>
        <time>2022-01-13T13:58:36.000Z</time>
      </trkpt>
      <trkpt lat="43.77444" lon="7.22966">
        <ele>260.39999389648</ele>
        <time>2022-01-13T13:58:43.000Z</time>
      </trkpt>
      <trkpt lat="43.77443" lon="7.22964">
        <ele>260.39999389648</ele>
        <time>2022-01-13T13:58:49.000Z</time>
      </trkpt>
      <trkpt lat="43.77441" lon="7.22961">
        <ele>260.39999389648</ele>
        <time>2022-01-13T13:58:55.000Z</time>
      </trkpt>
      <trkpt lat="43.77439" lon="7.22959">
        <ele>261</ele>
        <time>2022-01-13T13:58:58.000Z</time>
      </trkpt>
      <trkpt lat="43.77438" lon="7.22958">
        <ele>261.20001220703</ele>
        <time>2022-01-13T13:59:00.000Z</time>
      </trkpt>
      <trkpt lat="43.77438" lon="7.22957">
        <ele>261.20001220703</ele>
        <time>2022-01-13T13:59:02.000Z</time>
      </trkpt>
      <trkpt lat="43.77438" lon="7.22952">
        <ele>261.60000610352</ele>
        <time>2022-01-13T13:59:07.000Z</time>
      </trkpt>
      <trkpt lat="43.77439" lon="7.22949">
        <ele>262.39999389648</ele>
        <time>2022-01-13T13:59:14.000Z</time>
      </trkpt>
      <trkpt lat="43.77439" lon="7.22945">
        <ele>262.20001220703</ele>
        <time>2022-01-13T13:59:20.000Z</time>
      </trkpt>
      <trkpt lat="43.77441" lon="7.22934">
        <ele>262.39999389648</ele>
        <time>2022-01-13T13:59:25.000Z</time>
      </trkpt>
      <trkpt lat="43.77442" lon="7.22915">
        <ele>263</ele>
        <time>2022-01-13T13:59:31.000Z</time>
      </trkpt>
      <trkpt lat="43.77447" lon="7.22896">
        <ele>261.39999389648</ele>
        <time>2022-01-13T13:59:35.000Z</time>
      </trkpt>
      <trkpt lat="43.77448" lon="7.22893">
        <ele>260.60000610352</ele>
        <time>2022-01-13T13:59:36.000Z</time>
      </trkpt>
      <trkpt lat="43.7745" lon="7.22884">
        <ele>259.20001220703</ele>
        <time>2022-01-13T13:59:38.000Z</time>
      </trkpt>
      <trkpt lat="43.77453" lon="7.22878">
        <ele>257.79998779297</ele>
        <time>2022-01-13T13:59:40.000Z</time>
      </trkpt>
      <trkpt lat="43.77456" lon="7.22872">
        <ele>256.39999389648</ele>
        <time>2022-01-13T13:59:42.000Z</time>
      </trkpt>
      <trkpt lat="43.77458" lon="7.22866">
        <ele>254.80000305176</ele>
        <time>2022-01-13T13:59:44.000Z</time>
      </trkpt>
      <trkpt lat="43.7746" lon="7.22863">
        <ele>254.19999694824</ele>
        <time>2022-01-13T13:59:45.000Z</time>
      </trkpt>
      <trkpt lat="43.77461" lon="7.2286">
        <ele>253.60000610352</ele>
        <time>2022-01-13T13:59:46.000Z</time>
      </trkpt>
      <trkpt lat="43.77461" lon="7.22851">
        <ele>252.60000610352</ele>
        <time>2022-01-13T13:59:48.000Z</time>
      </trkpt>
      <trkpt lat="43.77461" lon="7.22845">
        <ele>252</ele>
        <time>2022-01-13T13:59:49.000Z</time>
      </trkpt>
      <trkpt lat="43.7746" lon="7.2284">
        <ele>250.80000305176</ele>
        <time>2022-01-13T13:59:50.000Z</time>
      </trkpt>
      <trkpt lat="43.77461" lon="7.22835">
        <ele>249.60000610352</ele>
        <time>2022-01-13T13:59:51.000Z</time>
      </trkpt>
      <trkpt lat="43.77461" lon="7.22831">
        <ele>248.60000610352</ele>
        <time>2022-01-13T13:59:52.000Z</time>
      </trkpt>
      <trkpt lat="43.77463" lon="7.22827">
        <ele>247.39999389648</ele>
        <time>2022-01-13T13:59:53.000Z</time>
      </trkpt>
      <trkpt lat="43.77465" lon="7.22822">
        <ele>246.19999694824</ele>
        <time>2022-01-13T13:59:54.000Z</time>
      </trkpt>
      <trkpt lat="43.77467" lon="7.22815">
        <ele>245</ele>
        <time>2022-01-13T13:59:55.000Z</time>
      </trkpt>
      <trkpt lat="43.7747" lon="7.228">
        <ele>243.39999389648</ele>
        <time>2022-01-13T13:59:57.000Z</time>
      </trkpt>
      <trkpt lat="43.77472" lon="7.22793">
        <ele>242</ele>
        <time>2022-01-13T13:59:58.000Z</time>
      </trkpt>
      <trkpt lat="43.77472" lon="7.22788">
        <ele>241</ele>
        <time>2022-01-13T13:59:59.000Z</time>
      </trkpt>
      <trkpt lat="43.77471" lon="7.22784">
        <ele>239.80000305176</ele>
        <time>2022-01-13T14:00:00.000Z</time>
      </trkpt>
      <trkpt lat="43.77469" lon="7.22781">
        <ele>238.60000610352</ele>
        <time>2022-01-13T14:00:01.000Z</time>
      </trkpt>
      <trkpt lat="43.77467" lon="7.22773">
        <ele>237.60000610352</ele>
        <time>2022-01-13T14:00:03.000Z</time>
      </trkpt>
      <trkpt lat="43.77468" lon="7.2276">
        <ele>236.39999389648</ele>
        <time>2022-01-13T14:00:06.000Z</time>
      </trkpt>
      <trkpt lat="43.77469" lon="7.22757">
        <ele>235.80000305176</ele>
        <time>2022-01-13T14:00:07.000Z</time>
      </trkpt>
      <trkpt lat="43.77468" lon="7.22754">
        <ele>234.60000610352</ele>
        <time>2022-01-13T14:00:08.000Z</time>
      </trkpt>
      <trkpt lat="43.77466" lon="7.22748">
        <ele>232.80000305176</ele>
        <time>2022-01-13T14:00:10.000Z</time>
      </trkpt>
      <trkpt lat="43.77466" lon="7.22747">
        <ele>231.39999389648</ele>
        <time>2022-01-13T14:00:11.000Z</time>
      </trkpt>
      <trkpt lat="43.77467" lon="7.22745">
        <ele>230.19999694824</ele>
        <time>2022-01-13T14:00:12.000Z</time>
      </trkpt>
      <trkpt lat="43.77468" lon="7.22743">
        <ele>229.39999389648</ele>
        <time>2022-01-13T14:00:13.000Z</time>
      </trkpt>
      <trkpt lat="43.77468" lon="7.22741">
        <ele>228.80000305176</ele>
        <time>2022-01-13T14:00:14.000Z</time>
      </trkpt>
      <trkpt lat="43.77465" lon="7.22736">
        <ele>228</ele>
        <time>2022-01-13T14:00:16.000Z</time>
      </trkpt>
      <trkpt lat="43.77463" lon="7.22735">
        <ele>227.39999389648</ele>
        <time>2022-01-13T14:00:17.000Z</time>
      </trkpt>
      <trkpt lat="43.77463" lon="7.22731">
        <ele>226.19999694824</ele>
        <time>2022-01-13T14:00:19.000Z</time>
      </trkpt>
      <trkpt lat="43.77465" lon="7.22728">
        <ele>224.80000305176</ele>
        <time>2022-01-13T14:00:21.000Z</time>
      </trkpt>
      <trkpt lat="43.77465" lon="7.22722">
        <ele>223.80000305176</ele>
        <time>2022-01-13T14:00:23.000Z</time>
      </trkpt>
      <trkpt lat="43.77464" lon="7.22719">
        <ele>223.60000610352</ele>
        <time>2022-01-13T14:00:24.000Z</time>
      </trkpt>
      <trkpt lat="43.77463" lon="7.2271">
        <ele>222.19999694824</ele>
        <time>2022-01-13T14:00:27.000Z</time>
      </trkpt>
      <trkpt lat="43.77465" lon="7.22703">
        <ele>220</ele>
        <time>2022-01-13T14:00:29.000Z</time>
      </trkpt>
      <trkpt lat="43.77464" lon="7.227">
        <ele>218.60000610352</ele>
        <time>2022-01-13T14:00:30.000Z</time>
      </trkpt>
      <trkpt lat="43.77463" lon="7.22696">
        <ele>217.19999694824</ele>
        <time>2022-01-13T14:00:31.000Z</time>
      </trkpt>
      <trkpt lat="43.77463" lon="7.22692">
        <ele>216</ele>
        <time>2022-01-13T14:00:32.000Z</time>
      </trkpt>
      <trkpt lat="43.77463" lon="7.22684">
        <ele>214.39999389648</ele>
        <time>2022-01-13T14:00:34.000Z</time>
      </trkpt>
      <trkpt lat="43.7746" lon="7.22677">
        <ele>212.80000305176</ele>
        <time>2022-01-13T14:00:36.000Z</time>
      </trkpt>
      <trkpt lat="43.7746" lon="7.22673">
        <ele>211.39999389648</ele>
        <time>2022-01-13T14:00:37.000Z</time>
      </trkpt>
      <trkpt lat="43.7746" lon="7.2267">
        <ele>210.39999389648</ele>
        <time>2022-01-13T14:00:38.000Z</time>
      </trkpt>
      <trkpt lat="43.77459" lon="7.22667">
        <ele>209.60000610352</ele>
        <time>2022-01-13T14:00:39.000Z</time>
      </trkpt>
      <trkpt lat="43.77458" lon="7.22663">
        <ele>208.60000610352</ele>
        <time>2022-01-13T14:00:40.000Z</time>
      </trkpt>
      <trkpt lat="43.77458" lon="7.22659">
        <ele>207.60000610352</ele>
        <time>2022-01-13T14:00:41.000Z</time>
      </trkpt>
      <trkpt lat="43.7746" lon="7.22654">
        <ele>205.80000305176</ele>
        <time>2022-01-13T14:00:43.000Z</time>
      </trkpt>
      <trkpt lat="43.77463" lon="7.22649">
        <ele>204.39999389648</ele>
        <time>2022-01-13T14:00:45.000Z</time>
      </trkpt>
      <trkpt lat="43.77463" lon="7.22646">
        <ele>203.39999389648</ele>
        <time>2022-01-13T14:00:47.000Z</time>
      </trkpt>
      <trkpt lat="43.77462" lon="7.22643">
        <ele>202.60000610352</ele>
        <time>2022-01-13T14:00:48.000Z</time>
      </trkpt>
      <trkpt lat="43.7746" lon="7.22642">
        <ele>201.80000305176</ele>
        <time>2022-01-13T14:00:49.000Z</time>
      </trkpt>
      <trkpt lat="43.77456" lon="7.22637">
        <ele>199.60000610352</ele>
        <time>2022-01-13T14:00:51.000Z</time>
      </trkpt>
      <trkpt lat="43.77453" lon="7.22634">
        <ele>198.39999389648</ele>
        <time>2022-01-13T14:00:52.000Z</time>
      </trkpt>
      <trkpt lat="43.7745" lon="7.22631">
        <ele>197.19999694824</ele>
        <time>2022-01-13T14:00:53.000Z</time>
      </trkpt>
      <trkpt lat="43.77448" lon="7.22628">
        <ele>196.19999694824</ele>
        <time>2022-01-13T14:00:54.000Z</time>
      </trkpt>
      <trkpt lat="43.77446" lon="7.22628">
        <ele>195</ele>
        <time>2022-01-13T14:00:55.000Z</time>
      </trkpt>
      <trkpt lat="43.77444" lon="7.22628">
        <ele>194</ele>
        <time>2022-01-13T14:00:56.000Z</time>
      </trkpt>
      <trkpt lat="43.77442" lon="7.2263">
        <ele>193</ele>
        <time>2022-01-13T14:00:57.000Z</time>
      </trkpt>
      <trkpt lat="43.77439" lon="7.22631">
        <ele>191.80000305176</ele>
        <time>2022-01-13T14:00:59.000Z</time>
      </trkpt>
      <trkpt lat="43.77436" lon="7.22631">
        <ele>190.19999694824</ele>
        <time>2022-01-13T14:01:01.000Z</time>
      </trkpt>
      <trkpt lat="43.77432" lon="7.22631">
        <ele>188.60000610352</ele>
        <time>2022-01-13T14:01:03.000Z</time>
      </trkpt>
      <trkpt lat="43.77427" lon="7.22632">
        <ele>187.39999389648</ele>
        <time>2022-01-13T14:01:05.000Z</time>
      </trkpt>
      <trkpt lat="43.77422" lon="7.22636">
        <ele>186.39999389648</ele>
        <time>2022-01-13T14:01:07.000Z</time>
      </trkpt>
      <trkpt lat="43.77418" lon="7.2264">
        <ele>185.19999694824</ele>
        <time>2022-01-13T14:01:09.000Z</time>
      </trkpt>
      <trkpt lat="43.77415" lon="7.22645">
        <ele>183.60000610352</ele>
        <time>2022-01-13T14:01:11.000Z</time>
      </trkpt>
      <trkpt lat="43.77414" lon="7.22645">
        <ele>183</ele>
        <time>2022-01-13T14:01:12.000Z</time>
      </trkpt>
      <trkpt lat="43.77412" lon="7.22645">
        <ele>182.19999694824</ele>
        <time>2022-01-13T14:01:13.000Z</time>
      </trkpt>
      <trkpt lat="43.77408" lon="7.22638">
        <ele>181</ele>
        <time>2022-01-13T14:01:16.000Z</time>
      </trkpt>
      <trkpt lat="43.77401" lon="7.22619">
        <ele>182.19999694824</ele>
        <time>2022-01-13T14:01:23.000Z</time>
      </trkpt>
      <trkpt lat="43.77401" lon="7.22617">
        <ele>182.39999389648</ele>
        <time>2022-01-13T14:01:24.000Z</time>
      </trkpt>
      <trkpt lat="43.774" lon="7.22613">
        <ele>183.19999694824</ele>
        <time>2022-01-13T14:01:26.000Z</time>
      </trkpt>
      <trkpt lat="43.77396" lon="7.22609">
        <ele>184.60000610352</ele>
        <time>2022-01-13T14:01:29.000Z</time>
      </trkpt>
      <trkpt lat="43.77394" lon="7.22608">
        <ele>185.19999694824</ele>
        <time>2022-01-13T14:01:30.000Z</time>
      </trkpt>
      <trkpt lat="43.77393" lon="7.22607">
        <ele>185.80000305176</ele>
        <time>2022-01-13T14:01:31.000Z</time>
      </trkpt>
      <trkpt lat="43.7739" lon="7.22605">
        <ele>187</ele>
        <time>2022-01-13T14:01:33.000Z</time>
      </trkpt>
      <trkpt lat="43.77386" lon="7.226">
        <ele>188.39999389648</ele>
        <time>2022-01-13T14:01:36.000Z</time>
      </trkpt>
      <trkpt lat="43.77385" lon="7.22598">
        <ele>189</ele>
        <time>2022-01-13T14:01:37.000Z</time>
      </trkpt>
      <trkpt lat="43.77383" lon="7.22592">
        <ele>189.80000305176</ele>
        <time>2022-01-13T14:01:39.000Z</time>
      </trkpt>
      <trkpt lat="43.77383" lon="7.22582">
        <ele>190</ele>
        <time>2022-01-13T14:01:41.000Z</time>
      </trkpt>
      <trkpt lat="43.77382" lon="7.22566">
        <ele>188.80000305176</ele>
        <time>2022-01-13T14:01:44.000Z</time>
      </trkpt>
      <trkpt lat="43.7738" lon="7.2256">
        <ele>188.39999389648</ele>
        <time>2022-01-13T14:01:45.000Z</time>
      </trkpt>
      <trkpt lat="43.77376" lon="7.22557">
        <ele>188.19999694824</ele>
        <time>2022-01-13T14:01:46.000Z</time>
      </trkpt>
      <trkpt lat="43.77369" lon="7.22554">
        <ele>187</ele>
        <time>2022-01-13T14:01:48.000Z</time>
      </trkpt>
      <trkpt lat="43.77363" lon="7.22553">
        <ele>186.60000610352</ele>
        <time>2022-01-13T14:01:50.000Z</time>
      </trkpt>
      <trkpt lat="43.77349" lon="7.22558">
        <ele>186.39999389648</ele>
        <time>2022-01-13T14:01:54.000Z</time>
      </trkpt>
      <trkpt lat="43.77341" lon="7.22562">
        <ele>186.19999694824</ele>
        <time>2022-01-13T14:01:56.000Z</time>
      </trkpt>
      <trkpt lat="43.77337" lon="7.22562">
        <ele>186</ele>
        <time>2022-01-13T14:01:57.000Z</time>
      </trkpt>
      <trkpt lat="43.77332" lon="7.22559">
        <ele>185.80000305176</ele>
        <time>2022-01-13T14:01:58.000Z</time>
      </trkpt>
      <trkpt lat="43.77325" lon="7.22553">
        <ele>184.39999389648</ele>
        <time>2022-01-13T14:02:00.000Z</time>
      </trkpt>
      <trkpt lat="43.77321" lon="7.2255">
        <ele>183.80000305176</ele>
        <time>2022-01-13T14:02:01.000Z</time>
      </trkpt>
      <trkpt lat="43.77316" lon="7.2255">
        <ele>183.39999389648</ele>
        <time>2022-01-13T14:02:02.000Z</time>
      </trkpt>
      <trkpt lat="43.77307" lon="7.22549">
        <ele>182.19999694824</ele>
        <time>2022-01-13T14:02:04.000Z</time>
      </trkpt>
      <trkpt lat="43.77303" lon="7.2254">
        <ele>181.19999694824</ele>
        <time>2022-01-13T14:02:06.000Z</time>
      </trkpt>
      <trkpt lat="43.77309" lon="7.22531">
        <ele>179.19999694824</ele>
        <time>2022-01-13T14:02:08.000Z</time>
      </trkpt>
      <trkpt lat="43.77319" lon="7.22523">
        <ele>177.39999389648</ele>
        <time>2022-01-13T14:02:10.000Z</time>
      </trkpt>
      <trkpt lat="43.77323" lon="7.2252">
        <ele>176.39999389648</ele>
        <time>2022-01-13T14:02:11.000Z</time>
      </trkpt>
      <trkpt lat="43.77325" lon="7.22515">
        <ele>175.39999389648</ele>
        <time>2022-01-13T14:02:12.000Z</time>
      </trkpt>
      <trkpt lat="43.77325" lon="7.2251">
        <ele>174.39999389648</ele>
        <time>2022-01-13T14:02:13.000Z</time>
      </trkpt>
      <trkpt lat="43.77322" lon="7.22506">
        <ele>173.60000610352</ele>
        <time>2022-01-13T14:02:14.000Z</time>
      </trkpt>
      <trkpt lat="43.77318" lon="7.22504">
        <ele>173</ele>
        <time>2022-01-13T14:02:15.000Z</time>
      </trkpt>
      <trkpt lat="43.77309" lon="7.22506">
        <ele>171.80000305176</ele>
        <time>2022-01-13T14:02:17.000Z</time>
      </trkpt>
      <trkpt lat="43.77304" lon="7.22499">
        <ele>170.39999389648</ele>
        <time>2022-01-13T14:02:19.000Z</time>
      </trkpt>
      <trkpt lat="43.77304" lon="7.22493">
        <ele>169.80000305176</ele>
        <time>2022-01-13T14:02:20.000Z</time>
      </trkpt>
      <trkpt lat="43.7731" lon="7.22481">
        <ele>169</ele>
        <time>2022-01-13T14:02:22.000Z</time>
      </trkpt>
      <trkpt lat="43.77315" lon="7.22476">
        <ele>168.19999694824</ele>
        <time>2022-01-13T14:02:23.000Z</time>
      </trkpt>
      <trkpt lat="43.77317" lon="7.22472">
        <ele>167.39999389648</ele>
        <time>2022-01-13T14:02:24.000Z</time>
      </trkpt>
      <trkpt lat="43.77318" lon="7.22466">
        <ele>166.39999389648</ele>
        <time>2022-01-13T14:02:25.000Z</time>
      </trkpt>
      <trkpt lat="43.77315" lon="7.22463">
        <ele>165</ele>
        <time>2022-01-13T14:02:26.000Z</time>
      </trkpt>
      <trkpt lat="43.77311" lon="7.22462">
        <ele>163.39999389648</ele>
        <time>2022-01-13T14:02:27.000Z</time>
      </trkpt>
      <trkpt lat="43.77305" lon="7.22464">
        <ele>162</ele>
        <time>2022-01-13T14:02:28.000Z</time>
      </trkpt>
      <trkpt lat="43.773" lon="7.22467">
        <ele>161</ele>
        <time>2022-01-13T14:02:29.000Z</time>
      </trkpt>
      <trkpt lat="43.77294" lon="7.22471">
        <ele>160</ele>
        <time>2022-01-13T14:02:30.000Z</time>
      </trkpt>
      <trkpt lat="43.77289" lon="7.22472">
        <ele>159.19999694824</ele>
        <time>2022-01-13T14:02:31.000Z</time>
      </trkpt>
      <trkpt lat="43.77284" lon="7.22474">
        <ele>159</ele>
        <time>2022-01-13T14:02:32.000Z</time>
      </trkpt>
      <trkpt lat="43.77285" lon="7.2247">
        <ele>158.60000610352</ele>
        <time>2022-01-13T14:02:33.000Z</time>
      </trkpt>
      <trkpt lat="43.77284" lon="7.22458">
        <ele>157.80000305176</ele>
        <time>2022-01-13T14:02:34.000Z</time>
      </trkpt>
      <trkpt lat="43.77291" lon="7.22444">
        <ele>156.19999694824</ele>
        <time>2022-01-13T14:02:36.000Z</time>
      </trkpt>
      <trkpt lat="43.77297" lon="7.2244">
        <ele>155</ele>
        <time>2022-01-13T14:02:37.000Z</time>
      </trkpt>
      <trkpt lat="43.7731" lon="7.22436">
        <ele>153.60000610352</ele>
        <time>2022-01-13T14:02:39.000Z</time>
      </trkpt>
      <trkpt lat="43.77318" lon="7.22435">
        <ele>152.39999389648</ele>
        <time>2022-01-13T14:02:40.000Z</time>
      </trkpt>
      <trkpt lat="43.77326" lon="7.22436">
        <ele>151</ele>
        <time>2022-01-13T14:02:41.000Z</time>
      </trkpt>
      <trkpt lat="43.77333" lon="7.22438">
        <ele>152.19999694824</ele>
        <time>2022-01-13T14:02:42.000Z</time>
      </trkpt>
      <trkpt lat="43.77344" lon="7.22441">
        <ele>151</ele>
        <time>2022-01-13T14:02:44.000Z</time>
      </trkpt>
      <trkpt lat="43.7735" lon="7.22441">
        <ele>149.60000610352</ele>
        <time>2022-01-13T14:02:45.000Z</time>
      </trkpt>
      <trkpt lat="43.77353" lon="7.22441">
        <ele>148.39999389648</ele>
        <time>2022-01-13T14:02:46.000Z</time>
      </trkpt>
      <trkpt lat="43.77356" lon="7.2244">
        <ele>148</ele>
        <time>2022-01-13T14:02:47.000Z</time>
      </trkpt>
      <trkpt lat="43.77357" lon="7.22436">
        <ele>147.39999389648</ele>
        <time>2022-01-13T14:02:48.000Z</time>
      </trkpt>
      <trkpt lat="43.77356" lon="7.22427">
        <ele>146.80000305176</ele>
        <time>2022-01-13T14:02:50.000Z</time>
      </trkpt>
      <trkpt lat="43.77352" lon="7.22428">
        <ele>146.80000305176</ele>
        <time>2022-01-13T14:02:51.000Z</time>
      </trkpt>
      <trkpt lat="43.77342" lon="7.22425">
        <ele>146.60000610352</ele>
        <time>2022-01-13T14:02:52.000Z</time>
      </trkpt>
      <trkpt lat="43.77321" lon="7.22416">
        <ele>146</ele>
        <time>2022-01-13T14:02:55.000Z</time>
      </trkpt>
      <trkpt lat="43.77313" lon="7.22412">
        <ele>146</ele>
        <time>2022-01-13T14:02:56.000Z</time>
      </trkpt>
      <trkpt lat="43.77295" lon="7.22402">
        <ele>145</ele>
        <time>2022-01-13T14:02:58.000Z</time>
      </trkpt>
      <trkpt lat="43.77288" lon="7.22397">
        <ele>141.60000610352</ele>
        <time>2022-01-13T14:02:59.000Z</time>
      </trkpt>
      <trkpt lat="43.77279" lon="7.2239">
        <ele>140.19999694824</ele>
        <time>2022-01-13T14:03:00.000Z</time>
      </trkpt>
      <trkpt lat="43.77271" lon="7.22385">
        <ele>138.80000305176</ele>
        <time>2022-01-13T14:03:01.000Z</time>
      </trkpt>
      <trkpt lat="43.77262" lon="7.2238">
        <ele>137.39999389648</ele>
        <time>2022-01-13T14:03:02.000Z</time>
      </trkpt>
      <trkpt lat="43.77253" lon="7.22376">
        <ele>135.80000305176</ele>
        <time>2022-01-13T14:03:03.000Z</time>
      </trkpt>
      <trkpt lat="43.77244" lon="7.22372">
        <ele>134.80000305176</ele>
        <time>2022-01-13T14:03:04.000Z</time>
      </trkpt>
      <trkpt lat="43.77235" lon="7.2237">
        <ele>133.19999694824</ele>
        <time>2022-01-13T14:03:05.000Z</time>
      </trkpt>
      <trkpt lat="43.77229" lon="7.22368">
        <ele>131.60000610352</ele>
        <time>2022-01-13T14:03:06.000Z</time>
      </trkpt>
      <trkpt lat="43.77228" lon="7.22368">
        <ele>130.19999694824</ele>
        <time>2022-01-13T14:03:07.000Z</time>
      </trkpt>
      <trkpt lat="43.77229" lon="7.22368">
        <ele>128.60000610352</ele>
        <time>2022-01-13T14:03:08.000Z</time>
      </trkpt>
      <trkpt lat="43.77228" lon="7.22368">
        <ele>127.40000152588</ele>
        <time>2022-01-13T14:03:10.000Z</time>
      </trkpt>
      <trkpt lat="43.77229" lon="7.22368">
        <ele>126.59999847412</ele>
        <time>2022-01-13T14:03:18.000Z</time>
      </trkpt>
      <trkpt lat="43.77229" lon="7.22368">
        <ele>127.80000305176</ele>
        <time>2022-01-13T14:03:24.000Z</time>
      </trkpt>
      <trkpt lat="43.77228" lon="7.22368">
        <ele>127.80000305176</ele>
        <time>2022-01-13T14:03:26.000Z</time>
      </trkpt>
      <trkpt lat="43.77226" lon="7.22367">
        <ele>127.40000152588</ele>
        <time>2022-01-13T14:03:29.000Z</time>
      </trkpt>
      <trkpt lat="43.77224" lon="7.22364">
        <ele>126.80000305176</ele>
        <time>2022-01-13T14:03:34.000Z</time>
      </trkpt>
      <trkpt lat="43.77219" lon="7.22361">
        <ele>126.40000152588</ele>
        <time>2022-01-13T14:03:36.000Z</time>
      </trkpt>
      <trkpt lat="43.77217" lon="7.22356">
        <ele>126.19999694824</ele>
        <time>2022-01-13T14:03:37.000Z</time>
      </trkpt>
      <trkpt lat="43.77213" lon="7.22342">
        <ele>125.19999694824</ele>
        <time>2022-01-13T14:03:39.000Z</time>
      </trkpt>
      <trkpt lat="43.77211" lon="7.22333">
        <ele>124.59999847412</ele>
        <time>2022-01-13T14:03:40.000Z</time>
      </trkpt>
      <trkpt lat="43.77209" lon="7.22323">
        <ele>123.59999847412</ele>
        <time>2022-01-13T14:03:41.000Z</time>
      </trkpt>
      <trkpt lat="43.77206" lon="7.22313">
        <ele>122.59999847412</ele>
        <time>2022-01-13T14:03:42.000Z</time>
      </trkpt>
      <trkpt lat="43.77204" lon="7.22303">
        <ele>121.40000152588</ele>
        <time>2022-01-13T14:03:43.000Z</time>
      </trkpt>
      <trkpt lat="43.77202" lon="7.22293">
        <ele>120.19999694824</ele>
        <time>2022-01-13T14:03:44.000Z</time>
      </trkpt>
      <trkpt lat="43.772" lon="7.22281">
        <ele>119</ele>
        <time>2022-01-13T14:03:45.000Z</time>
      </trkpt>
      <trkpt lat="43.772" lon="7.22269">
        <ele>117.80000305176</ele>
        <time>2022-01-13T14:03:46.000Z</time>
      </trkpt>
      <trkpt lat="43.77201" lon="7.22258">
        <ele>117</ele>
        <time>2022-01-13T14:03:47.000Z</time>
      </trkpt>
      <trkpt lat="43.77205" lon="7.22247">
        <ele>116.19999694824</ele>
        <time>2022-01-13T14:03:48.000Z</time>
      </trkpt>
      <trkpt lat="43.77213" lon="7.22226">
        <ele>115</ele>
        <time>2022-01-13T14:03:50.000Z</time>
      </trkpt>
      <trkpt lat="43.7722" lon="7.22202">
        <ele>113.59999847412</ele>
        <time>2022-01-13T14:03:52.000Z</time>
      </trkpt>
      <trkpt lat="43.77221" lon="7.22179">
        <ele>112.19999694824</ele>
        <time>2022-01-13T14:03:54.000Z</time>
      </trkpt>
      <trkpt lat="43.77218" lon="7.22153">
        <ele>110.80000305176</ele>
        <time>2022-01-13T14:03:56.000Z</time>
      </trkpt>
      <trkpt lat="43.77213" lon="7.22128">
        <ele>109</ele>
        <time>2022-01-13T14:03:58.000Z</time>
      </trkpt>
      <trkpt lat="43.77211" lon="7.22117">
        <ele>108.59999847412</ele>
        <time>2022-01-13T14:03:59.000Z</time>
      </trkpt>
      <trkpt lat="43.77209" lon="7.22105">
        <ele>108</ele>
        <time>2022-01-13T14:04:00.000Z</time>
      </trkpt>
      <trkpt lat="43.77205" lon="7.2208">
        <ele>106.80000305176</ele>
        <time>2022-01-13T14:04:02.000Z</time>
      </trkpt>
      <trkpt lat="43.772" lon="7.22055">
        <ele>105.80000305176</ele>
        <time>2022-01-13T14:04:04.000Z</time>
      </trkpt>
      <trkpt lat="43.77192" lon="7.22017">
        <ele>104.40000152588</ele>
        <time>2022-01-13T14:04:07.000Z</time>
      </trkpt>
      <trkpt lat="43.77189" lon="7.21992">
        <ele>103.19999694824</ele>
        <time>2022-01-13T14:04:09.000Z</time>
      </trkpt>
      <trkpt lat="43.77185" lon="7.21965">
        <ele>102.19999694824</ele>
        <time>2022-01-13T14:04:11.000Z</time>
      </trkpt>
      <trkpt lat="43.77184" lon="7.21952">
        <ele>101.59999847412</ele>
        <time>2022-01-13T14:04:12.000Z</time>
      </trkpt>
      <trkpt lat="43.77184" lon="7.21938">
        <ele>101.19999694824</ele>
        <time>2022-01-13T14:04:13.000Z</time>
      </trkpt>
      <trkpt lat="43.77184" lon="7.21912">
        <ele>100</ele>
        <time>2022-01-13T14:04:15.000Z</time>
      </trkpt>
      <trkpt lat="43.77184" lon="7.21884">
        <ele>98.400001525879</ele>
        <time>2022-01-13T14:04:17.000Z</time>
      </trkpt>
      <trkpt lat="43.77184" lon="7.21857">
        <ele>97.199996948242</ele>
        <time>2022-01-13T14:04:19.000Z</time>
      </trkpt>
      <trkpt lat="43.77184" lon="7.21843">
        <ele>96.400001525879</ele>
        <time>2022-01-13T14:04:20.000Z</time>
      </trkpt>
      <trkpt lat="43.77184" lon="7.21828">
        <ele>96</ele>
        <time>2022-01-13T14:04:21.000Z</time>
      </trkpt>
      <trkpt lat="43.77183" lon="7.21772">
        <ele>94.800003051758</ele>
        <time>2022-01-13T14:04:25.000Z</time>
      </trkpt>
      <trkpt lat="43.77183" lon="7.21745">
        <ele>92.800003051758</ele>
        <time>2022-01-13T14:04:27.000Z</time>
      </trkpt>
      <trkpt lat="43.77182" lon="7.21729">
        <ele>91.599998474121</ele>
        <time>2022-01-13T14:04:28.000Z</time>
      </trkpt>
      <trkpt lat="43.77181" lon="7.21716">
        <ele>90.199996948242</ele>
        <time>2022-01-13T14:04:29.000Z</time>
      </trkpt>
      <trkpt lat="43.77179" lon="7.21701">
        <ele>89.199996948242</ele>
        <time>2022-01-13T14:04:30.000Z</time>
      </trkpt>
      <trkpt lat="43.77177" lon="7.21688">
        <ele>88.199996948242</ele>
        <time>2022-01-13T14:04:31.000Z</time>
      </trkpt>
      <trkpt lat="43.77174" lon="7.21676">
        <ele>87.599998474121</ele>
        <time>2022-01-13T14:04:32.000Z</time>
      </trkpt>
      <trkpt lat="43.77169" lon="7.2165">
        <ele>86.199996948242</ele>
        <time>2022-01-13T14:04:34.000Z</time>
      </trkpt>
      <trkpt lat="43.77164" lon="7.21625">
        <ele>85</ele>
        <time>2022-01-13T14:04:36.000Z</time>
      </trkpt>
      <trkpt lat="43.7715" lon="7.21559">
        <ele>84.800003051758</ele>
        <time>2022-01-13T14:04:42.000Z</time>
      </trkpt>
      <trkpt lat="43.77146" lon="7.21539">
        <ele>84.599998474121</ele>
        <time>2022-01-13T14:04:44.000Z</time>
      </trkpt>
      <trkpt lat="43.77147" lon="7.21518">
        <ele>84.599998474121</ele>
        <time>2022-01-13T14:04:46.000Z</time>
      </trkpt>
      <trkpt lat="43.77145" lon="7.21492">
        <ele>84.800003051758</ele>
        <time>2022-01-13T14:04:49.000Z</time>
      </trkpt>
      <trkpt lat="43.77145" lon="7.21485">
        <ele>84.599998474121</ele>
        <time>2022-01-13T14:04:50.000Z</time>
      </trkpt>
      <trkpt lat="43.77146" lon="7.21477">
        <ele>84.199996948242</ele>
        <time>2022-01-13T14:04:52.000Z</time>
      </trkpt>
      <trkpt lat="43.77147" lon="7.21477">
        <ele>84</ele>
        <time>2022-01-13T14:04:55.000Z</time>
      </trkpt>
      <trkpt lat="43.77147" lon="7.21478">
        <ele>84</ele>
        <time>2022-01-13T14:04:57.000Z</time>
      </trkpt>
      <trkpt lat="43.77148" lon="7.21478">
        <ele>83.599998474121</ele>
        <time>2022-01-13T14:05:01.000Z</time>
      </trkpt>
      <trkpt lat="43.77147" lon="7.2148">
        <ele>83.599998474121</ele>
        <time>2022-01-13T14:05:11.000Z</time>
      </trkpt>
      <trkpt lat="43.77147" lon="7.2148">
        <ele>83.599998474121</ele>
        <time>2022-01-13T14:05:19.000Z</time>
      </trkpt>
      <trkpt lat="43.77146" lon="7.2148">
        <ele>83.599998474121</ele>
        <time>2022-01-13T14:05:26.000Z</time>
      </trkpt>
      <trkpt lat="43.77146" lon="7.21481">
        <ele>83.400001525879</ele>
        <time>2022-01-13T14:05:34.000Z</time>
      </trkpt>
      <trkpt lat="43.77147" lon="7.21481">
        <ele>83.199996948242</ele>
        <time>2022-01-13T14:05:43.000Z</time>
      </trkpt>
      <trkpt lat="43.77147" lon="7.21481">
        <ele>83.199996948242</ele>
        <time>2022-01-13T14:05:50.000Z</time>
      </trkpt>
      <trkpt lat="43.77147" lon="7.21481">
        <ele>83</ele>
        <time>2022-01-13T14:06:05.000Z</time>
      </trkpt>
      <trkpt lat="43.77147" lon="7.21481">
        <ele>83.199996948242</ele>
        <time>2022-01-13T14:06:16.000Z</time>
      </trkpt>
      <trkpt lat="43.77145" lon="7.21483">
        <ele>83.199996948242</ele>
        <time>2022-01-13T14:06:28.000Z</time>
      </trkpt>
      <trkpt lat="43.77145" lon="7.21482">
        <ele>83</ele>
        <time>2022-01-13T14:06:29.000Z</time>
      </trkpt>
      <trkpt lat="43.77146" lon="7.21482">
        <ele>82.800003051758</ele>
        <time>2022-01-13T14:06:30.000Z</time>
      </trkpt>
      <trkpt lat="43.77146" lon="7.21482">
        <ele>82.800003051758</ele>
        <time>2022-01-13T14:06:33.000Z</time>
      </trkpt>
      <trkpt lat="43.77146" lon="7.21483">
        <ele>83.199996948242</ele>
        <time>2022-01-13T14:06:44.000Z</time>
      </trkpt>
      <trkpt lat="43.77145" lon="7.21484">
        <ele>82.400001525879</ele>
        <time>2022-01-13T14:06:52.000Z</time>
      </trkpt>
      <trkpt lat="43.77144" lon="7.21481">
        <ele>83</ele>
        <time>2022-01-13T14:06:57.000Z</time>
      </trkpt>
      <trkpt lat="43.77144" lon="7.21481">
        <ele>83</ele>
        <time>2022-01-13T14:07:02.000Z</time>
      </trkpt>
      <trkpt lat="43.77145" lon="7.21481">
        <ele>83.199996948242</ele>
        <time>2022-01-13T14:07:10.000Z</time>
      </trkpt>
      <trkpt lat="43.77145" lon="7.21482">
        <ele>82.800003051758</ele>
        <time>2022-01-13T14:07:18.000Z</time>
      </trkpt>
      <trkpt lat="43.77144" lon="7.21483">
        <ele>82.800003051758</ele>
        <time>2022-01-13T14:07:24.000Z</time>
      </trkpt>
      <trkpt lat="43.77143" lon="7.21482">
        <ele>82.599998474121</ele>
        <time>2022-01-13T14:07:30.000Z</time>
      </trkpt>
      <trkpt lat="43.77143" lon="7.21482">
        <ele>82.800003051758</ele>
        <time>2022-01-13T14:07:33.000Z</time>
      </trkpt>
      <trkpt lat="43.77144" lon="7.21486">
        <ele>81.199996948242</ele>
        <time>2022-01-13T14:19:12.000Z</time>
      </trkpt>
      <trkpt lat="43.77144" lon="7.21486">
        <ele>81.199996948242</ele>
        <time>2022-01-13T14:19:13.000Z</time>
      </trkpt>
    </trkseg>
  </trk>
</gpx>